<?xml version='1.0' encoding='UTF-8'?><gpx version="1.1" creator="JPX - https://github.com/jenetics/jpx" xmlns="http://www.topografix.com/GPX/1/1"><trk><trkseg><trkpt lat="44.00503187108392" lon="10.109935000361366"><ele>3.0</ele><time>2026-05-02T06:35:43.998Z</time></trkpt><trkpt lat="44.00509534887429" lon="10.109952001558431"><ele>3.0</ele><time>2026-05-02T06:36:01.998Z</time></trkpt><trkpt lat="44.00516641826579" lon="10.110011480066149"><ele>3.0</ele><time>2026-05-02T06:36:03.998Z</time></trkpt><trkpt lat="44.00524472833845" lon="10.110081079694115"><ele>3.0</ele><time>2026-05-02T06:36:05.998Z</time></trkpt><trkpt lat="44.00534129365589" lon="10.110174501492025"><ele>3.0</ele><time>2026-05-02T06:36:07.998Z</time></trkpt><trkpt lat="44.005397543519805" lon="10.110225128003655"><ele>3.0</ele><time>2026-05-02T06:36:08.998Z</time></trkpt><trkpt lat="44.005455664045016" lon="10.11027887451914"><ele>3.0</ele><time>2026-05-02T06:36:09.998Z</time></trkpt><trkpt lat="44.00551844008665" lon="10.110341372902491"><ele>3.0</ele><time>2026-05-02T06:36:10.998Z</time></trkpt><trkpt lat="44.00558752406402" lon="10.110403650349202"><ele>3.0</ele><time>2026-05-02T06:36:11.998Z</time></trkpt><trkpt lat="44.00565079493577" lon="10.110466981718409"><ele>3.0</ele><time>2026-05-02T06:36:12.998Z</time></trkpt><trkpt lat="44.00571587848542" lon="10.110533850054324"><ele>3.0</ele><time>2026-05-02T06:36:13.998Z</time></trkpt><trkpt lat="44.00578420251577" lon="10.110601162572035"><ele>3.0</ele><time>2026-05-02T06:36:14.998Z</time></trkpt><trkpt lat="44.005850568443044" lon="10.11066453702302"><ele>2.9999999999999996</ele><time>2026-05-02T06:36:15.998Z</time></trkpt><trkpt lat="44.005909829002285" lon="10.110722541208418"><ele>3.0</ele><time>2026-05-02T06:36:16.998Z</time></trkpt><trkpt lat="44.005970243660045" lon="10.110780008577494"><ele>3.0</ele><time>2026-05-02T06:36:17.998Z</time></trkpt><trkpt lat="44.006029292428714" lon="10.110830502415384"><ele>3.0</ele><time>2026-05-02T06:36:18.998Z</time></trkpt><trkpt lat="44.006091403533965" lon="10.110875616269865"><ele>3.0</ele><time>2026-05-02T06:36:19.998Z</time></trkpt><trkpt lat="44.00615591711194" lon="10.110935670137984"><ele>2.9999999999999996</ele><time>2026-05-02T06:36:20.998Z</time></trkpt><trkpt lat="44.006212598889796" lon="10.110993139301629"><ele>3.0</ele><time>2026-05-02T06:36:21.998Z</time></trkpt><trkpt lat="44.006271645947265" lon="10.111060528986808"><ele>3.3333333333333335</ele><time>2026-05-02T06:36:22.998Z</time></trkpt><trkpt lat="44.006332622057805" lon="10.111134220006676"><ele>3.666666666666667</ele><time>2026-05-02T06:36:23.998Z</time></trkpt><trkpt lat="44.00640258681755" lon="10.11120667750759"><ele>4.0</ele><time>2026-05-02T06:36:24.998Z</time></trkpt><trkpt lat="44.006480939649784" lon="10.111280921180807"><ele>4.333333333333334</ele><time>2026-05-02T06:36:25.998Z</time></trkpt><trkpt lat="44.00655460159293" lon="10.111347765791637"><ele>4.666666666666667</ele><time>2026-05-02T06:36:26.998Z</time></trkpt><trkpt lat="44.006627458149026" lon="10.111417361307351"><ele>5.0</ele><time>2026-05-02T06:36:27.998Z</time></trkpt><trkpt lat="44.00669957481269" lon="10.111489517558207"><ele>5.2</ele><time>2026-05-02T06:36:28.998Z</time></trkpt><trkpt lat="44.006779806504014" lon="10.111562103780605"><ele>5.4</ele><time>2026-05-02T06:36:29.998Z</time></trkpt><trkpt lat="44.006859282167106" lon="10.111642700987064"><ele>5.6</ele><time>2026-05-02T06:36:30.998Z</time></trkpt><trkpt lat="44.006935691553856" lon="10.111714062775533"><ele>5.8</ele><time>2026-05-02T06:36:31.998Z</time></trkpt><trkpt lat="44.007012005097415" lon="10.111783889807773"><ele>6.0</ele><time>2026-05-02T06:36:32.998Z</time></trkpt><trkpt lat="44.00708922743189" lon="10.111848852462813"><ele>6.333333333333333</ele><time>2026-05-02T06:36:33.998Z</time></trkpt><trkpt lat="44.00718591933019" lon="10.111916407021845"><ele>6.666666666666666</ele><time>2026-05-02T06:36:34.998Z</time></trkpt><trkpt lat="44.007253233668614" lon="10.111981619430052"><ele>7.0</ele><time>2026-05-02T06:36:35.998Z</time></trkpt><trkpt lat="44.007314960384285" lon="10.11204884098385"><ele>7.333333333333333</ele><time>2026-05-02T06:36:36.998Z</time></trkpt><trkpt lat="44.00739312930236" lon="10.112116969226067"><ele>7.666666666666666</ele><time>2026-05-02T06:36:37.998Z</time></trkpt><trkpt lat="44.00746437519882" lon="10.112187048726973"><ele>8.0</ele><time>2026-05-02T06:36:38.998Z</time></trkpt><trkpt lat="44.00753041670278" lon="10.112260888741963"><ele>7.333333333333333</ele><time>2026-05-02T06:36:39.998Z</time></trkpt><trkpt lat="44.007597034886665" lon="10.112336497913192"><ele>6.666666666666666</ele><time>2026-05-02T06:36:40.998Z</time></trkpt><trkpt lat="44.00766052108047" lon="10.112400861537054"><ele>6.0</ele><time>2026-05-02T06:36:41.998Z</time></trkpt><trkpt lat="44.00772520013579" lon="10.112460645223955"><ele>5.333333333333333</ele><time>2026-05-02T06:36:42.998Z</time></trkpt><trkpt lat="44.00778407453137" lon="10.112516283128702"><ele>4.666666666666666</ele><time>2026-05-02T06:36:43.998Z</time></trkpt><trkpt lat="44.00785155436985" lon="10.112573301075894"><ele>4.0</ele><time>2026-05-02T06:36:44.998Z</time></trkpt><trkpt lat="44.00791999013087" lon="10.112637773861143"><ele>3.833333333333333</ele><time>2026-05-02T06:36:45.998Z</time></trkpt><trkpt lat="44.00798134734562" lon="10.112695245304337"><ele>3.6666666666666665</ele><time>2026-05-02T06:36:46.998Z</time></trkpt><trkpt lat="44.008048719411946" lon="10.112762334957377"><ele>3.5</ele><time>2026-05-02T06:36:47.998Z</time></trkpt><trkpt lat="44.008125213129134" lon="10.112833705018053"><ele>3.333333333333333</ele><time>2026-05-02T06:36:48.998Z</time></trkpt><trkpt lat="44.00818880552022" lon="10.112907589105628"><ele>3.1666666666666665</ele><time>2026-05-02T06:36:49.998Z</time></trkpt><trkpt lat="44.00825585983914" lon="10.112981946635124"><ele>3.0</ele><time>2026-05-02T06:36:50.998Z</time></trkpt><trkpt lat="44.00833510116808" lon="10.113065268551185"><ele>4.0</ele><time>2026-05-02T06:36:51.998Z</time></trkpt><trkpt lat="44.008436093828905" lon="10.113144672726245"><ele>5.0</ele><time>2026-05-02T06:36:52.998Z</time></trkpt><trkpt lat="44.008523593522774" lon="10.113224784984487"><ele>6.000000000000001</ele><time>2026-05-02T06:36:53.998Z</time></trkpt><trkpt lat="44.00860680875256" lon="10.11330459348133"><ele>7.0</ele><time>2026-05-02T06:36:54.998Z</time></trkpt><trkpt lat="44.00869237198413" lon="10.113386538709722"><ele>8.0</ele><time>2026-05-02T06:36:55.998Z</time></trkpt><trkpt lat="44.008782616830395" lon="10.113476747531474"><ele>8.0</ele><time>2026-05-02T06:36:56.998Z</time></trkpt><trkpt lat="44.00887779403466" lon="10.113560955942878"><ele>8.0</ele><time>2026-05-02T06:36:57.998Z</time></trkpt><trkpt lat="44.008968626670104" lon="10.113647695057164"><ele>8.0</ele><time>2026-05-02T06:36:58.997Z</time></trkpt><trkpt lat="44.00906461682958" lon="10.113739926663214"><ele>8.0</ele><time>2026-05-02T06:36:59.997Z</time></trkpt><trkpt lat="44.00915670787527" lon="10.11381512280777"><ele>8.0</ele><time>2026-05-02T06:37:00.997Z</time></trkpt><trkpt lat="44.009250190515836" lon="10.113908347316023"><ele>7.6000000000000005</ele><time>2026-05-02T06:37:01.997Z</time></trkpt><trkpt lat="44.009341087534914" lon="10.113990688276507"><ele>7.200000000000001</ele><time>2026-05-02T06:37:02.997Z</time></trkpt><trkpt lat="44.00943197578021" lon="10.114080585182645"><ele>6.8</ele><time>2026-05-02T06:37:03.997Z</time></trkpt><trkpt lat="44.009521638778565" lon="10.114170134429497"><ele>6.4</ele><time>2026-05-02T06:37:04.997Z</time></trkpt><trkpt lat="44.0096000511282" lon="10.114249845003096"><ele>6.0</ele><time>2026-05-02T06:37:05.997Z</time></trkpt><trkpt lat="44.009685573097144" lon="10.114337154394832"><ele>5.2</ele><time>2026-05-02T06:37:06.997Z</time></trkpt><trkpt lat="44.00977338300489" lon="10.114416735223061"><ele>4.3999999999999995</ele><time>2026-05-02T06:37:07.997Z</time></trkpt><trkpt lat="44.00986198861887" lon="10.11450135219865"><ele>3.6</ele><time>2026-05-02T06:37:08.997Z</time></trkpt><trkpt lat="44.00994019810059" lon="10.114576505700454"><ele>2.8</ele><time>2026-05-02T06:37:09.997Z</time></trkpt><trkpt lat="44.01001754315098" lon="10.114656532755388"><ele>2.0</ele><time>2026-05-02T06:37:10.997Z</time></trkpt><trkpt lat="44.01009447721705" lon="10.114729809317408"><ele>2.0</ele><time>2026-05-02T06:37:11.997Z</time></trkpt><trkpt lat="44.01016809469486" lon="10.114797172837607"><ele>2.0</ele><time>2026-05-02T06:37:12.997Z</time></trkpt><trkpt lat="44.010239378194605" lon="10.114870571838567"><ele>2.0</ele><time>2026-05-02T06:37:13.997Z</time></trkpt><trkpt lat="44.01031422549815" lon="10.114942995252322"><ele>2.0</ele><time>2026-05-02T06:37:14.997Z</time></trkpt><trkpt lat="44.01038699480134" lon="10.11501489081037"><ele>2.0</ele><time>2026-05-02T06:37:15.997Z</time></trkpt><trkpt lat="44.0104660182106" lon="10.115091709750278"><ele>2.0</ele><time>2026-05-02T06:37:16.997Z</time></trkpt><trkpt lat="44.01054702937286" lon="10.115169954877254"><ele>2.0</ele><time>2026-05-02T06:37:17.997Z</time></trkpt><trkpt lat="44.01062977714276" lon="10.115246198849862"><ele>2.0</ele><time>2026-05-02T06:37:18.997Z</time></trkpt><trkpt lat="44.010700845903735" lon="10.115314638890126"><ele>2.0</ele><time>2026-05-02T06:37:19.997Z</time></trkpt><trkpt lat="44.01076980796995" lon="10.115379590231855"><ele>2.0</ele><time>2026-05-02T06:37:20.997Z</time></trkpt><trkpt lat="44.01083993920806" lon="10.115448186394842"><ele>2.0</ele><time>2026-05-02T06:37:21.997Z</time></trkpt><trkpt lat="44.01091733602661" lon="10.115519815540978"><ele>2.0</ele><time>2026-05-02T06:37:22.997Z</time></trkpt><trkpt lat="44.010989079748256" lon="10.115591171475028"><ele>2.0</ele><time>2026-05-02T06:37:23.997Z</time></trkpt><trkpt lat="44.011067112951196" lon="10.11566876085817"><ele>2.0</ele><time>2026-05-02T06:37:24.997Z</time></trkpt><trkpt lat="44.01114561326287" lon="10.115744500148285"><ele>2.0</ele><time>2026-05-02T06:37:25.997Z</time></trkpt><trkpt lat="44.011219673282675" lon="10.115814443767599"><ele>2.0</ele><time>2026-05-02T06:37:26.997Z</time></trkpt><trkpt lat="44.01129876353225" lon="10.115889882515178"><ele>2.0</ele><time>2026-05-02T06:37:27.997Z</time></trkpt><trkpt lat="44.01137505034667" lon="10.115967806479308"><ele>2.0</ele><time>2026-05-02T06:37:28.997Z</time></trkpt><trkpt lat="44.01145460674957" lon="10.116046179432194"><ele>2.0</ele><time>2026-05-02T06:37:29.997Z</time></trkpt><trkpt lat="44.01154044426258" lon="10.116125122371393"><ele>2.0</ele><time>2026-05-02T06:37:30.997Z</time></trkpt><trkpt lat="44.01162161043547" lon="10.116203761069789"><ele>2.0</ele><time>2026-05-02T06:37:31.997Z</time></trkpt><trkpt lat="44.01170087238703" lon="10.116279285708844"><ele>2.0</ele><time>2026-05-02T06:37:32.997Z</time></trkpt><trkpt lat="44.01178486789714" lon="10.116357851014211"><ele>2.0</ele><time>2026-05-02T06:37:33.997Z</time></trkpt><trkpt lat="44.01186107092276" lon="10.11643231042195"><ele>2.0</ele><time>2026-05-02T06:37:34.997Z</time></trkpt><trkpt lat="44.01194120046122" lon="10.116512812606421"><ele>2.0</ele><time>2026-05-02T06:37:35.997Z</time></trkpt><trkpt lat="44.012017846089854" lon="10.116592776813258"><ele>1.9999999999999998</ele><time>2026-05-02T06:37:36.997Z</time></trkpt><trkpt lat="44.01208994488207" lon="10.116667184207225"><ele>2.0</ele><time>2026-05-02T06:37:37.997Z</time></trkpt><trkpt lat="44.012163704642816" lon="10.11673781104137"><ele>2.0</ele><time>2026-05-02T06:37:38.997Z</time></trkpt><trkpt lat="44.01223119048769" lon="10.116808648103328"><ele>2.0</ele><time>2026-05-02T06:37:39.997Z</time></trkpt><trkpt lat="44.012286919830444" lon="10.116876283881584"><ele>1.9999999999999998</ele><time>2026-05-02T06:37:40.997Z</time></trkpt><trkpt lat="44.01233697148581" lon="10.11693645861076"><ele>2.0</ele><time>2026-05-02T06:37:41.997Z</time></trkpt><trkpt lat="44.01242796316481" lon="10.117038027061609"><ele>2.0</ele><time>2026-05-02T06:37:43.997Z</time></trkpt><trkpt lat="44.0124890175692" lon="10.117094704690626"><ele>1.9999999999999998</ele><time>2026-05-02T06:37:45.997Z</time></trkpt><trkpt lat="44.0125564918518" lon="10.117122726407652"><ele>2.0</ele><time>2026-05-02T06:38:05.997Z</time></trkpt><trkpt lat="44.012618630532415" lon="10.117179933837006"><ele>2.0</ele><time>2026-05-02T06:38:11.997Z</time></trkpt><trkpt lat="44.01257285166969" lon="10.117113692598716"><ele>1.9999999999999998</ele><time>2026-05-02T06:38:47.997Z</time></trkpt><trkpt lat="44.01261398807057" lon="10.117188510629136"><ele>2.0</ele><time>2026-05-02T06:39:08.996Z</time></trkpt><trkpt lat="44.01268011825494" lon="10.117236946854359"><ele>2.0</ele><time>2026-05-02T06:39:10.996Z</time></trkpt><trkpt lat="44.01274514299388" lon="10.117295718771441"><ele>2.1666666666666665</ele><time>2026-05-02T06:39:12.995Z</time></trkpt><trkpt lat="44.012825410446816" lon="10.117370274669634"><ele>2.333333333333333</ele><time>2026-05-02T06:39:14.996Z</time></trkpt><trkpt lat="44.01291473059041" lon="10.117468708693234"><ele>2.5</ele><time>2026-05-02T06:39:16.996Z</time></trkpt><trkpt lat="44.012972991174514" lon="10.11752623824208"><ele>2.6666666666666665</ele><time>2026-05-02T06:39:17.995Z</time></trkpt><trkpt lat="44.01303095681444" lon="10.117576826768305"><ele>2.8333333333333335</ele><time>2026-05-02T06:39:18.995Z</time></trkpt><trkpt lat="44.013093609778984" lon="10.11763612530595"><ele>3.0</ele><time>2026-05-02T06:39:19.995Z</time></trkpt><trkpt lat="44.01315850952373" lon="10.117693937476071"><ele>3.0</ele><time>2026-05-02T06:39:20.995Z</time></trkpt><trkpt lat="44.013222027010336" lon="10.117748862504332"><ele>3.0</ele><time>2026-05-02T06:39:21.995Z</time></trkpt><trkpt lat="44.013288404010645" lon="10.117811532177804"><ele>3.0</ele><time>2026-05-02T06:39:22.995Z</time></trkpt><trkpt lat="44.0133587468021" lon="10.117876711235711"><ele>3.0</ele><time>2026-05-02T06:39:23.995Z</time></trkpt><trkpt lat="44.013428299742564" lon="10.117941068493849"><ele>3.0</ele><time>2026-05-02T06:39:24.995Z</time></trkpt><trkpt lat="44.01349617065848" lon="10.118006732225236"><ele>3.0</ele><time>2026-05-02T06:39:25.995Z</time></trkpt><trkpt lat="44.01355965890918" lon="10.118070951675104"><ele>3.0</ele><time>2026-05-02T06:39:26.995Z</time></trkpt><trkpt lat="44.01362645113273" lon="10.11813687559542"><ele>3.0</ele><time>2026-05-02T06:39:27.995Z</time></trkpt><trkpt lat="44.01369577593765" lon="10.118203674575158"><ele>3.0</ele><time>2026-05-02T06:39:28.995Z</time></trkpt><trkpt lat="44.01376494142546" lon="10.118268565747112"><ele>3.0</ele><time>2026-05-02T06:39:29.995Z</time></trkpt><trkpt lat="44.01384316561796" lon="10.118342484066542"><ele>3.0</ele><time>2026-05-02T06:39:30.995Z</time></trkpt><trkpt lat="44.01392730262687" lon="10.118417744902873"><ele>3.0</ele><time>2026-05-02T06:39:31.995Z</time></trkpt><trkpt lat="44.01400328054485" lon="10.118500874201803"><ele>3.0</ele><time>2026-05-02T06:39:32.995Z</time></trkpt><trkpt lat="44.01408877709846" lon="10.11859454684827"><ele>3.0</ele><time>2026-05-02T06:39:33.995Z</time></trkpt><trkpt lat="44.01416810967516" lon="10.118674121625428"><ele>3.0</ele><time>2026-05-02T06:39:34.995Z</time></trkpt><trkpt lat="44.01425252681673" lon="10.118753525718455"><ele>3.0</ele><time>2026-05-02T06:39:35.995Z</time></trkpt><trkpt lat="44.01433328742878" lon="10.118833068610734"><ele>3.0</ele><time>2026-05-02T06:39:36.995Z</time></trkpt><trkpt lat="44.0144191229945" lon="10.1189191565754"><ele>3.0</ele><time>2026-05-02T06:39:37.995Z</time></trkpt><trkpt lat="44.01450921082163" lon="10.11900967441211"><ele>3.0</ele><time>2026-05-02T06:39:38.995Z</time></trkpt><trkpt lat="44.01460674952253" lon="10.119101597715941"><ele>3.0</ele><time>2026-05-02T06:39:39.995Z</time></trkpt><trkpt lat="44.01470384998973" lon="10.119191374507466"><ele>3.0</ele><time>2026-05-02T06:39:40.995Z</time></trkpt><trkpt lat="44.0148059161686" lon="10.119279962825486"><ele>3.0</ele><time>2026-05-02T06:39:41.995Z</time></trkpt><trkpt lat="44.01489244122832" lon="10.119373097647372"><ele>3.0</ele><time>2026-05-02T06:39:42.995Z</time></trkpt><trkpt lat="44.01499008074669" lon="10.119464515852421"><ele>3.0</ele><time>2026-05-02T06:39:43.995Z</time></trkpt><trkpt lat="44.015088671133455" lon="10.119550435109991"><ele>3.0</ele><time>2026-05-02T06:39:44.995Z</time></trkpt><trkpt lat="44.01518367021012" lon="10.119639581513509"><ele>3.0</ele><time>2026-05-02T06:39:45.995Z</time></trkpt><trkpt lat="44.0152806769461" lon="10.119734965163985"><ele>3.0</ele><time>2026-05-02T06:39:46.995Z</time></trkpt><trkpt lat="44.01537966320005" lon="10.119827851267761"><ele>3.0</ele><time>2026-05-02T06:39:47.995Z</time></trkpt><trkpt lat="44.015468088038354" lon="10.119913232397817"><ele>3.0</ele><time>2026-05-02T06:39:48.995Z</time></trkpt><trkpt lat="44.015552180014254" lon="10.120004593161333"><ele>3.0</ele><time>2026-05-02T06:39:49.995Z</time></trkpt><trkpt lat="44.01564903176786" lon="10.120105723002075"><ele>3.0</ele><time>2026-05-02T06:39:50.995Z</time></trkpt><trkpt lat="44.01575127066469" lon="10.120203112338395"><ele>3.0</ele><time>2026-05-02T06:39:51.995Z</time></trkpt><trkpt lat="44.01585204819167" lon="10.120299271190776"><ele>3.0</ele><time>2026-05-02T06:39:52.995Z</time></trkpt><trkpt lat="44.015960472061266" lon="10.120395849959838"><ele>4.0</ele><time>2026-05-02T06:39:53.995Z</time></trkpt><trkpt lat="44.01606363944203" lon="10.120493936226717"><ele>5.0</ele><time>2026-05-02T06:39:54.995Z</time></trkpt><trkpt lat="44.01616896986756" lon="10.120592353999108"><ele>6.0</ele><time>2026-05-02T06:39:55.995Z</time></trkpt><trkpt lat="44.016272773457544" lon="10.120688702731433"><ele>7.0</ele><time>2026-05-02T06:39:56.995Z</time></trkpt><trkpt lat="44.016361052750796" lon="10.12078701354529"><ele>7.199999999999999</ele><time>2026-05-02T06:39:57.995Z</time></trkpt><trkpt lat="44.016450953933784" lon="10.120878406415446"><ele>7.3999999999999995</ele><time>2026-05-02T06:39:58.995Z</time></trkpt><trkpt lat="44.01654665555178" lon="10.120966153198644"><ele>7.6000000000000005</ele><time>2026-05-02T06:39:59.995Z</time></trkpt><trkpt lat="44.01664302310978" lon="10.121049310286567"><ele>7.800000000000001</ele><time>2026-05-02T06:40:00.995Z</time></trkpt><trkpt lat="44.01672293968974" lon="10.121132328817886"><ele>8.0</ele><time>2026-05-02T06:40:01.995Z</time></trkpt><trkpt lat="44.01680007604036" lon="10.121213011718417"><ele>8.4</ele><time>2026-05-02T06:40:02.995Z</time></trkpt><trkpt lat="44.0168787181194" lon="10.121278648560782"><ele>8.8</ele><time>2026-05-02T06:40:03.995Z</time></trkpt><trkpt lat="44.01695395996155" lon="10.121356602542638"><ele>9.2</ele><time>2026-05-02T06:40:04.995Z</time></trkpt><trkpt lat="44.01703161821582" lon="10.121426111124382"><ele>9.6</ele><time>2026-05-02T06:40:05.995Z</time></trkpt><trkpt lat="44.01711346676118" lon="10.121496715885051"><ele>10.0</ele><time>2026-05-02T06:40:06.995Z</time></trkpt><trkpt lat="44.0171886951373" lon="10.121564279736592"><ele>10.333333333333334</ele><time>2026-05-02T06:40:07.995Z</time></trkpt><trkpt lat="44.01726958207153" lon="10.121633284482371"><ele>10.666666666666668</ele><time>2026-05-02T06:40:08.995Z</time></trkpt><trkpt lat="44.01733485444637" lon="10.121711830422658"><ele>11.0</ele><time>2026-05-02T06:40:09.995Z</time></trkpt><trkpt lat="44.01739862358247" lon="10.121776966464651"><ele>11.333333333333334</ele><time>2026-05-02T06:40:10.995Z</time></trkpt><trkpt lat="44.01745255545453" lon="10.121824818054584"><ele>11.666666666666666</ele><time>2026-05-02T06:40:11.995Z</time></trkpt><trkpt lat="44.017541322833466" lon="10.121901798807327"><ele>12.0</ele><time>2026-05-02T06:40:13.995Z</time></trkpt><trkpt lat="44.01763074879402" lon="10.121993423973198"><ele>12.0</ele><time>2026-05-02T06:40:15.995Z</time></trkpt><trkpt lat="44.01772254445054" lon="10.122080873843728"><ele>12.0</ele><time>2026-05-02T06:40:17.995Z</time></trkpt><trkpt lat="44.01781975241417" lon="10.122189411706849"><ele>12.0</ele><time>2026-05-02T06:40:19.995Z</time></trkpt><trkpt lat="44.01787292310851" lon="10.12224047431491"><ele>12.0</ele><time>2026-05-02T06:40:20.995Z</time></trkpt><trkpt lat="44.017926652214406" lon="10.122292117492721"><ele>12.0</ele><time>2026-05-02T06:40:21.995Z</time></trkpt><trkpt lat="44.01798758927356" lon="10.122350265013015"><ele>12.0</ele><time>2026-05-02T06:40:22.995Z</time></trkpt><trkpt lat="44.01804441350107" lon="10.12240446453876"><ele>12.285714285714285</ele><time>2026-05-02T06:40:23.995Z</time></trkpt><trkpt lat="44.01810768444675" lon="10.122467074597767"><ele>12.571428571428571</ele><time>2026-05-02T06:40:24.995Z</time></trkpt><trkpt lat="44.01816889582747" lon="10.122531164679604"><ele>12.857142857142858</ele><time>2026-05-02T06:40:25.995Z</time></trkpt><trkpt lat="44.01823271479814" lon="10.12258855494152"><ele>13.142857142857142</ele><time>2026-05-02T06:40:26.995Z</time></trkpt><trkpt lat="44.01829278490728" lon="10.122650620440258"><ele>13.428571428571429</ele><time>2026-05-02T06:40:27.995Z</time></trkpt><trkpt lat="44.01834532268125" lon="10.122703708421861"><ele>13.714285714285714</ele><time>2026-05-02T06:40:28.995Z</time></trkpt><trkpt lat="44.01839771420364" lon="10.122757009197885"><ele>14.0</ele><time>2026-05-02T06:40:29.995Z</time></trkpt><trkpt lat="44.018479125725925" lon="10.122851698246716"><ele>14.0</ele><time>2026-05-02T06:40:31.995Z</time></trkpt><trkpt lat="44.0185509982181" lon="10.122937605630243"><ele>13.999999999999998</ele><time>2026-05-02T06:40:33.995Z</time></trkpt><trkpt lat="44.01862478029925" lon="10.123018693445259"><ele>13.999999999999998</ele><time>2026-05-02T06:40:35.995Z</time></trkpt><trkpt lat="44.018718588399324" lon="10.123094300100183"><ele>14.0</ele><time>2026-05-02T06:40:37.995Z</time></trkpt><trkpt lat="44.018810071210304" lon="10.123173771788922"><ele>14.0</ele><time>2026-05-02T06:40:39.995Z</time></trkpt><trkpt lat="44.018900468363135" lon="10.12326180780212"><ele>14.0</ele><time>2026-05-02T06:40:41.995Z</time></trkpt><trkpt lat="44.01899332926976" lon="10.123352716188794"><ele>14.0</ele><time>2026-05-02T06:40:43.995Z</time></trkpt><trkpt lat="44.01908555660285" lon="10.12344024893299"><ele>14.0</ele><time>2026-05-02T06:40:45.995Z</time></trkpt><trkpt lat="44.01917991968722" lon="10.123523336364105"><ele>14.0</ele><time>2026-05-02T06:40:47.995Z</time></trkpt><trkpt lat="44.019276428168645" lon="10.12360413072805"><ele>14.5</ele><time>2026-05-02T06:40:49.995Z</time></trkpt><trkpt lat="44.01938037742476" lon="10.12369531164122"><ele>15.0</ele><time>2026-05-02T06:40:51.995Z</time></trkpt><trkpt lat="44.01948221157455" lon="10.123788178576206"><ele>15.5</ele><time>2026-05-02T06:40:53.995Z</time></trkpt><trkpt lat="44.01958358524379" lon="10.12387952381612"><ele>16.0</ele><time>2026-05-02T06:40:55.995Z</time></trkpt><trkpt lat="44.019675868168356" lon="10.123956458416938"><ele>15.999999999999998</ele><time>2026-05-02T06:40:57.995Z</time></trkpt><trkpt lat="44.01975405537322" lon="10.124041504637148"><ele>16.0</ele><time>2026-05-02T06:40:59.995Z</time></trkpt><trkpt lat="44.019802322914806" lon="10.12409868055211"><ele>16.0</ele><time>2026-05-02T06:41:01.995Z</time></trkpt><trkpt lat="44.01984245437585" lon="10.124177387758442"><ele>16.0</ele><time>2026-05-02T06:41:05.995Z</time></trkpt><trkpt lat="44.01991146820544" lon="10.124227234373972"><ele>15.999999999999998</ele><time>2026-05-02T06:51:32.989Z</time></trkpt><trkpt lat="44.01998553263189" lon="10.124265395795183"><ele>16.0</ele><time>2026-05-02T06:51:35.989Z</time></trkpt><trkpt lat="44.02004427619469" lon="10.124318862952677"><ele>16.6</ele><time>2026-05-02T06:51:37.989Z</time></trkpt><trkpt lat="44.02009819599477" lon="10.124381266962859"><ele>17.200000000000003</ele><time>2026-05-02T06:51:39.989Z</time></trkpt><trkpt lat="44.02016909930381" lon="10.124440901298035"><ele>17.799999999999997</ele><time>2026-05-02T06:51:41.99Z</time></trkpt><trkpt lat="44.02024167026486" lon="10.124516599022444"><ele>18.4</ele><time>2026-05-02T06:51:43.989Z</time></trkpt><trkpt lat="44.0203253432349" lon="10.124611555917715"><ele>19.0</ele><time>2026-05-02T06:51:45.989Z</time></trkpt><trkpt lat="44.02042857108624" lon="10.124705693688716"><ele>19.0</ele><time>2026-05-02T06:51:47.989Z</time></trkpt><trkpt lat="44.02048815108819" lon="10.124760859626695"><ele>19.0</ele><time>2026-05-02T06:51:48.989Z</time></trkpt><trkpt lat="44.02059799847551" lon="10.124853380290586"><ele>19.0</ele><time>2026-05-02T06:51:50.989Z</time></trkpt><trkpt lat="44.02065490482841" lon="10.12490541235335"><ele>19.0</ele><time>2026-05-02T06:51:51.989Z</time></trkpt><trkpt lat="44.02072016586626" lon="10.124959702553952"><ele>19.0</ele><time>2026-05-02T06:51:52.989Z</time></trkpt><trkpt lat="44.02077900439826" lon="10.125016163948288"><ele>19.0</ele><time>2026-05-02T06:51:53.99Z</time></trkpt><trkpt lat="44.02083292715405" lon="10.1250749250317"><ele>19.666666666666664</ele><time>2026-05-02T06:51:54.99Z</time></trkpt><trkpt lat="44.02088766331458" lon="10.125128337494948"><ele>20.333333333333332</ele><time>2026-05-02T06:51:55.99Z</time></trkpt><trkpt lat="44.02099139845381" lon="10.125221933530172"><ele>21.0</ele><time>2026-05-02T06:51:57.99Z</time></trkpt><trkpt lat="44.02104679528925" lon="10.125286489822665"><ele>21.666666666666668</ele><time>2026-05-02T06:51:58.99Z</time></trkpt><trkpt lat="44.02110020132464" lon="10.125338380932078"><ele>22.333333333333336</ele><time>2026-05-02T06:51:59.99Z</time></trkpt><trkpt lat="44.02119624296948" lon="10.125423401314373"><ele>23.0</ele><time>2026-05-02T06:52:01.99Z</time></trkpt><trkpt lat="44.02126520194768" lon="10.125490651341721"><ele>23.0</ele><time>2026-05-02T06:52:03.99Z</time></trkpt><trkpt lat="44.02131520812971" lon="10.125558109495454"><ele>23.0</ele><time>2026-05-02T06:52:05.99Z</time></trkpt><trkpt lat="44.02137157868193" lon="10.125619407252476"><ele>23.0</ele><time>2026-05-02T06:52:07.99Z</time></trkpt><trkpt lat="44.02143511640651" lon="10.125708217199653"><ele>23.0</ele><time>2026-05-02T06:52:10.99Z</time></trkpt><trkpt lat="44.02147703011287" lon="10.125797499692807"><ele>23.0</ele><time>2026-05-02T06:52:12.99Z</time></trkpt><trkpt lat="44.02157566676021" lon="10.125877524810853"><ele>23.0</ele><time>2026-05-02T06:52:14.99Z</time></trkpt><trkpt lat="44.0216853869002" lon="10.12592739010392"><ele>23.0</ele><time>2026-05-02T06:52:16.99Z</time></trkpt><trkpt lat="44.021753638269765" lon="10.125971363378909"><ele>23.0</ele><time>2026-05-02T06:52:17.99Z</time></trkpt><trkpt lat="44.02181219674456" lon="10.126026282360929"><ele>23.0</ele><time>2026-05-02T06:52:18.99Z</time></trkpt><trkpt lat="44.02190778537955" lon="10.126127917561817"><ele>23.0</ele><time>2026-05-02T06:52:20.99Z</time></trkpt><trkpt lat="44.02201128370973" lon="10.126255518240983"><ele>23.0</ele><time>2026-05-02T06:52:22.99Z</time></trkpt><trkpt lat="44.022080878763646" lon="10.126314389384575"><ele>23.0</ele><time>2026-05-02T06:52:23.99Z</time></trkpt><trkpt lat="44.022139496575704" lon="10.126367428069129"><ele>23.0</ele><time>2026-05-02T06:52:24.99Z</time></trkpt><trkpt lat="44.02219646904059" lon="10.126416993932029"><ele>23.0</ele><time>2026-05-02T06:52:25.99Z</time></trkpt><trkpt lat="44.02229410974615" lon="10.126530538488115"><ele>23.0</ele><time>2026-05-02T06:52:27.99Z</time></trkpt><trkpt lat="44.02235033863972" lon="10.126577245969928"><ele>23.0</ele><time>2026-05-02T06:52:28.99Z</time></trkpt><trkpt lat="44.02241277848561" lon="10.126628071198857"><ele>23.0</ele><time>2026-05-02T06:52:29.99Z</time></trkpt><trkpt lat="44.022487913398706" lon="10.126702012019217"><ele>23.599999999999998</ele><time>2026-05-02T06:52:30.99Z</time></trkpt><trkpt lat="44.02257647161067" lon="10.12678729448455"><ele>24.2</ele><time>2026-05-02T06:52:31.99Z</time></trkpt><trkpt lat="44.02266071843065" lon="10.126868835695712"><ele>24.8</ele><time>2026-05-02T06:52:32.99Z</time></trkpt><trkpt lat="44.02273963915739" lon="10.126946280938245"><ele>25.4</ele><time>2026-05-02T06:52:33.99Z</time></trkpt><trkpt lat="44.022822223144765" lon="10.127028416349976"><ele>26.0</ele><time>2026-05-02T06:52:34.99Z</time></trkpt><trkpt lat="44.022907000310106" lon="10.127104496759795"><ele>26.0</ele><time>2026-05-02T06:52:35.99Z</time></trkpt><trkpt lat="44.02299068295738" lon="10.127183552285791"><ele>26.0</ele><time>2026-05-02T06:52:36.99Z</time></trkpt><trkpt lat="44.023079255669344" lon="10.127261539865192"><ele>26.0</ele><time>2026-05-02T06:52:37.99Z</time></trkpt><trkpt lat="44.02317004977038" lon="10.127351261369862"><ele>26.0</ele><time>2026-05-02T06:52:38.99Z</time></trkpt><trkpt lat="44.02326025968382" lon="10.12744191830618"><ele>26.0</ele><time>2026-05-02T06:52:39.99Z</time></trkpt><trkpt lat="44.02335478833318" lon="10.127527968580626"><ele>26.25</ele><time>2026-05-02T06:52:40.99Z</time></trkpt><trkpt lat="44.023449366086254" lon="10.127625081730894"><ele>26.5</ele><time>2026-05-02T06:52:41.99Z</time></trkpt><trkpt lat="44.02354949595235" lon="10.127714436870162"><ele>26.75</ele><time>2026-05-02T06:52:42.99Z</time></trkpt><trkpt lat="44.02364729554213" lon="10.12780806106204"><ele>27.0</ele><time>2026-05-02T06:52:43.99Z</time></trkpt><trkpt lat="44.02374251784346" lon="10.12790262615088"><ele>27.0</ele><time>2026-05-02T06:52:44.99Z</time></trkpt><trkpt lat="44.02384187522239" lon="10.127997635494248"><ele>27.0</ele><time>2026-05-02T06:52:45.99Z</time></trkpt><trkpt lat="44.02393942132848" lon="10.128089622919322"><ele>27.0</ele><time>2026-05-02T06:52:46.99Z</time></trkpt><trkpt lat="44.02404576513226" lon="10.128194735714683"><ele>27.0</ele><time>2026-05-02T06:52:47.99Z</time></trkpt><trkpt lat="44.0241412078896" lon="10.128283192858612"><ele>27.200000000000003</ele><time>2026-05-02T06:52:48.99Z</time></trkpt><trkpt lat="44.0242355968847" lon="10.128366642524659"><ele>27.400000000000002</ele><time>2026-05-02T06:52:49.99Z</time></trkpt><trkpt lat="44.02432538393179" lon="10.128465919271871"><ele>27.599999999999998</ele><time>2026-05-02T06:52:50.99Z</time></trkpt><trkpt lat="44.02441782754006" lon="10.128553751075685"><ele>27.799999999999997</ele><time>2026-05-02T06:52:51.99Z</time></trkpt><trkpt lat="44.02450496250443" lon="10.128639597135258"><ele>28.0</ele><time>2026-05-02T06:52:52.99Z</time></trkpt><trkpt lat="44.02460197133804" lon="10.128737880717132"><ele>28.0</ele><time>2026-05-02T06:52:53.99Z</time></trkpt><trkpt lat="44.02469403323876" lon="10.128831832018037"><ele>28.0</ele><time>2026-05-02T06:52:54.99Z</time></trkpt><trkpt lat="44.02479232667713" lon="10.12892816538206"><ele>28.0</ele><time>2026-05-02T06:52:55.99Z</time></trkpt><trkpt lat="44.024889064835726" lon="10.1290217749335"><ele>28.0</ele><time>2026-05-02T06:52:56.99Z</time></trkpt><trkpt lat="44.024985548213046" lon="10.129117442964292"><ele>28.5</ele><time>2026-05-02T06:52:57.99Z</time></trkpt><trkpt lat="44.02508392781011" lon="10.129208290186027"><ele>29.0</ele><time>2026-05-02T06:52:58.99Z</time></trkpt><trkpt lat="44.02518034032493" lon="10.129293958875037"><ele>29.5</ele><time>2026-05-02T06:52:59.99Z</time></trkpt><trkpt lat="44.02527826428577" lon="10.129381434641113"><ele>30.0</ele><time>2026-05-02T06:53:00.99Z</time></trkpt><trkpt lat="44.0253773984482" lon="10.129464690843882"><ele>30.0</ele><time>2026-05-02T06:53:01.99Z</time></trkpt><trkpt lat="44.02547939362039" lon="10.129560290819258"><ele>30.0</ele><time>2026-05-02T06:53:02.99Z</time></trkpt><trkpt lat="44.02558062884056" lon="10.129659922539405"><ele>30.0</ele><time>2026-05-02T06:53:03.99Z</time></trkpt><trkpt lat="44.02567764600973" lon="10.129761374271085"><ele>30.0</ele><time>2026-05-02T06:53:04.99Z</time></trkpt><trkpt lat="44.025781846628135" lon="10.129872848086332"><ele>30.0</ele><time>2026-05-02T06:53:05.99Z</time></trkpt><trkpt lat="44.025881883662244" lon="10.12997666197757"><ele>30.0</ele><time>2026-05-02T06:53:06.99Z</time></trkpt><trkpt lat="44.025982356281865" lon="10.130070754773703"><ele>30.0</ele><time>2026-05-02T06:53:07.99Z</time></trkpt><trkpt lat="44.02608492317673" lon="10.130167291852983"><ele>30.0</ele><time>2026-05-02T06:53:08.99Z</time></trkpt><trkpt lat="44.02618049405108" lon="10.130252043562628"><ele>30.0</ele><time>2026-05-02T06:53:09.99Z</time></trkpt><trkpt lat="44.0262822122947" lon="10.130340051776567"><ele>30.0</ele><time>2026-05-02T06:53:10.99Z</time></trkpt><trkpt lat="44.02637759011858" lon="10.130434105688337"><ele>30.0</ele><time>2026-05-02T06:53:11.99Z</time></trkpt><trkpt lat="44.02646174716916" lon="10.130505427413524"><ele>30.0</ele><time>2026-05-02T06:53:12.99Z</time></trkpt><trkpt lat="44.02655190969177" lon="10.130572406177611"><ele>30.0</ele><time>2026-05-02T06:53:13.99Z</time></trkpt><trkpt lat="44.02662741384099" lon="10.130633790016182"><ele>30.4</ele><time>2026-05-02T06:53:14.99Z</time></trkpt><trkpt lat="44.02669165416348" lon="10.130694575442565"><ele>30.8</ele><time>2026-05-02T06:53:15.99Z</time></trkpt><trkpt lat="44.02673451788334" lon="10.130800591042151"><ele>31.200000000000003</ele><time>2026-05-02T06:53:16.99Z</time></trkpt><trkpt lat="44.026813509307935" lon="10.130882633206333"><ele>31.6</ele><time>2026-05-02T06:53:17.99Z</time></trkpt><trkpt lat="44.02689475860915" lon="10.130961770048524"><ele>32.0</ele><time>2026-05-02T06:53:18.99Z</time></trkpt><trkpt lat="44.026968817076956" lon="10.131031691094154"><ele>32.0</ele><time>2026-05-02T06:53:19.99Z</time></trkpt><trkpt lat="44.02704117136679" lon="10.13110210066039"><ele>31.999999999999996</ele><time>2026-05-02T06:53:20.99Z</time></trkpt><trkpt lat="44.02710538333538" lon="10.131161066723639"><ele>32.0</ele><time>2026-05-02T06:53:21.99Z</time></trkpt><trkpt lat="44.027165802853645" lon="10.131221620314053"><ele>32.0</ele><time>2026-05-02T06:53:22.99Z</time></trkpt><trkpt lat="44.02722234543215" lon="10.131272588781401"><ele>31.999999999999996</ele><time>2026-05-02T06:53:23.99Z</time></trkpt><trkpt lat="44.02727971287226" lon="10.131328553830494"><ele>32.0</ele><time>2026-05-02T06:53:24.99Z</time></trkpt><trkpt lat="44.02733063027149" lon="10.131384010322213"><ele>32.0</ele><time>2026-05-02T06:53:25.99Z</time></trkpt><trkpt lat="44.02742787055788" lon="10.131476163671374"><ele>32.5</ele><time>2026-05-02T06:53:27.99Z</time></trkpt><trkpt lat="44.02751619575791" lon="10.131541712291448"><ele>33.0</ele><time>2026-05-02T06:53:29.99Z</time></trkpt><trkpt lat="44.02756674459158" lon="10.131599467582504"><ele>33.5</ele><time>2026-05-02T06:53:31.99Z</time></trkpt><trkpt lat="44.02768877115788" lon="10.13171922564248"><ele>34.0</ele><time>2026-05-02T06:53:39.99Z</time></trkpt><trkpt lat="44.02748245846352" lon="10.131632762031872"><ele>34.333333333333336</ele><time>2026-05-02T06:53:41.99Z</time></trkpt><trkpt lat="44.02748031732461" lon="10.131744225813831"><ele>34.666666666666664</ele><time>2026-05-02T06:53:44.99Z</time></trkpt><trkpt lat="44.02776712957438" lon="10.131938074331654"><ele>35.0</ele><time>2026-05-02T06:53:45.99Z</time></trkpt><trkpt lat="44.02784021485716" lon="10.131988571494855"><ele>35.0</ele><time>2026-05-02T06:53:47.988Z</time></trkpt><trkpt lat="44.0279356762211" lon="10.132021569040514"><ele>35.0</ele><time>2026-05-02T06:53:49.987Z</time></trkpt><trkpt lat="44.028051711601854" lon="10.132079639005871"><ele>35.0</ele><time>2026-05-02T06:53:51.987Z</time></trkpt><trkpt lat="44.02811779969782" lon="10.132127742433408"><ele>35.0</ele><time>2026-05-02T06:53:52.987Z</time></trkpt><trkpt lat="44.02817758166154" lon="10.13217658562023"><ele>35.0</ele><time>2026-05-02T06:53:53.987Z</time></trkpt><trkpt lat="44.02823941057406" lon="10.132218136810273"><ele>35.0</ele><time>2026-05-02T06:53:54.987Z</time></trkpt><trkpt lat="44.02830109054317" lon="10.13227423364681"><ele>35.5</ele><time>2026-05-02T06:53:55.988Z</time></trkpt><trkpt lat="44.02837979817442" lon="10.132340780342304"><ele>36.0</ele><time>2026-05-02T06:53:56.988Z</time></trkpt><trkpt lat="44.02844387878308" lon="10.13240496177121"><ele>36.5</ele><time>2026-05-02T06:53:57.988Z</time></trkpt><trkpt lat="44.028498148113954" lon="10.132463592643637"><ele>37.0</ele><time>2026-05-02T06:53:58.987Z</time></trkpt><trkpt lat="44.02856341612066" lon="10.132526916113468"><ele>37.5</ele><time>2026-05-02T06:53:59.988Z</time></trkpt><trkpt lat="44.0286234139735" lon="10.1325868657107"><ele>38.0</ele><time>2026-05-02T06:54:00.988Z</time></trkpt><trkpt lat="44.028687208607735" lon="10.132650871308353"><ele>38.199999999999996</ele><time>2026-05-02T06:54:01.988Z</time></trkpt><trkpt lat="44.02875318694023" lon="10.132716075481081"><ele>38.4</ele><time>2026-05-02T06:54:02.988Z</time></trkpt><trkpt lat="44.028824497868115" lon="10.132787192568934"><ele>38.599999999999994</ele><time>2026-05-02T06:54:03.988Z</time></trkpt><trkpt lat="44.028904866260596" lon="10.132865128040285"><ele>38.8</ele><time>2026-05-02T06:54:04.988Z</time></trkpt><trkpt lat="44.02899425066129" lon="10.13295241068237"><ele>39.0</ele><time>2026-05-02T06:54:05.988Z</time></trkpt><trkpt lat="44.02908374078266" lon="10.133042244453346"><ele>39.4</ele><time>2026-05-02T06:54:06.988Z</time></trkpt><trkpt lat="44.02916564613098" lon="10.133128802059703"><ele>39.8</ele><time>2026-05-02T06:54:07.988Z</time></trkpt><trkpt lat="44.02925720457644" lon="10.13320064801844"><ele>40.199999999999996</ele><time>2026-05-02T06:54:08.988Z</time></trkpt><trkpt lat="44.02936114770942" lon="10.133291379151839"><ele>40.599999999999994</ele><time>2026-05-02T06:54:09.988Z</time></trkpt><trkpt lat="44.029455503500394" lon="10.13338542458501"><ele>41.0</ele><time>2026-05-02T06:54:10.988Z</time></trkpt><trkpt lat="44.029547162038924" lon="10.13348881748612"><ele>41.0</ele><time>2026-05-02T06:54:11.988Z</time></trkpt><trkpt lat="44.02963778594099" lon="10.133586634079737"><ele>41.0</ele><time>2026-05-02T06:54:12.988Z</time></trkpt><trkpt lat="44.02973254807171" lon="10.133669176379843"><ele>41.0</ele><time>2026-05-02T06:54:13.988Z</time></trkpt><trkpt lat="44.029823164356515" lon="10.133742586226473"><ele>41.0</ele><time>2026-05-02T06:54:14.988Z</time></trkpt><trkpt lat="44.029921153517" lon="10.133839054013995"><ele>41.199999999999996</ele><time>2026-05-02T06:54:15.988Z</time></trkpt><trkpt lat="44.03000525778693" lon="10.133929630560127"><ele>41.4</ele><time>2026-05-02T06:54:16.988Z</time></trkpt><trkpt lat="44.03007863110571" lon="10.13402255851367"><ele>41.6</ele><time>2026-05-02T06:54:17.988Z</time></trkpt><trkpt lat="44.03015955117288" lon="10.134111362234364"><ele>41.8</ele><time>2026-05-02T06:54:18.988Z</time></trkpt><trkpt lat="44.03024867757379" lon="10.13418796535647"><ele>42.0</ele><time>2026-05-02T06:54:19.988Z</time></trkpt><trkpt lat="44.03033672544352" lon="10.134255840454696"><ele>42.0</ele><time>2026-05-02T06:54:20.988Z</time></trkpt><trkpt lat="44.030424161713896" lon="10.134336350164316"><ele>42.0</ele><time>2026-05-02T06:54:21.988Z</time></trkpt><trkpt lat="44.03050964136811" lon="10.134415894591625"><ele>42.0</ele><time>2026-05-02T06:54:22.988Z</time></trkpt><trkpt lat="44.0305905669731" lon="10.134490823626127"><ele>42.0</ele><time>2026-05-02T06:54:23.988Z</time></trkpt><trkpt lat="44.03066837478642" lon="10.134561171351828"><ele>42.0</ele><time>2026-05-02T06:54:24.988Z</time></trkpt><trkpt lat="44.030754038139314" lon="10.134634271077518"><ele>42.2</ele><time>2026-05-02T06:54:25.988Z</time></trkpt><trkpt lat="44.03083884077564" lon="10.134709775750117"><ele>42.400000000000006</ele><time>2026-05-02T06:54:26.988Z</time></trkpt><trkpt lat="44.03091826137657" lon="10.134777644982425"><ele>42.599999999999994</ele><time>2026-05-02T06:54:27.988Z</time></trkpt><trkpt lat="44.03099275580987" lon="10.134843147099772"><ele>42.8</ele><time>2026-05-02T06:54:28.988Z</time></trkpt><trkpt lat="44.03106553617878" lon="10.134907826464131"><ele>43.0</ele><time>2026-05-02T06:54:29.988Z</time></trkpt><trkpt lat="44.0311168217408" lon="10.13502270001998"><ele>43.16666666666667</ele><time>2026-05-02T06:54:30.988Z</time></trkpt><trkpt lat="44.03118283930923" lon="10.135085637547396"><ele>43.333333333333336</ele><time>2026-05-02T06:54:31.988Z</time></trkpt><trkpt lat="44.031260468027426" lon="10.135152375931721"><ele>43.5</ele><time>2026-05-02T06:54:32.988Z</time></trkpt><trkpt lat="44.031331223592225" lon="10.135216587020834"><ele>43.666666666666664</ele><time>2026-05-02T06:54:33.988Z</time></trkpt><trkpt lat="44.03140382818427" lon="10.135281928943591"><ele>43.83333333333333</ele><time>2026-05-02T06:54:34.988Z</time></trkpt><trkpt lat="44.03147878574177" lon="10.135354625719012"><ele>44.0</ele><time>2026-05-02T06:54:35.988Z</time></trkpt><trkpt lat="44.031553760297285" lon="10.135420379727067"><ele>44.0</ele><time>2026-05-02T06:54:36.988Z</time></trkpt><trkpt lat="44.031631683398395" lon="10.135493592219147"><ele>44.0</ele><time>2026-05-02T06:54:37.988Z</time></trkpt><trkpt lat="44.03170537634367" lon="10.135559268738566"><ele>44.0</ele><time>2026-05-02T06:54:38.988Z</time></trkpt><trkpt lat="44.031786068481594" lon="10.135635002510355"><ele>44.0</ele><time>2026-05-02T06:54:39.988Z</time></trkpt><trkpt lat="44.03187848668912" lon="10.135718429825348"><ele>44.0</ele><time>2026-05-02T06:54:40.988Z</time></trkpt><trkpt lat="44.031960320241026" lon="10.135795779027038"><ele>44.400000000000006</ele><time>2026-05-02T06:54:41.988Z</time></trkpt><trkpt lat="44.03204479804777" lon="10.135876462709774"><ele>44.8</ele><time>2026-05-02T06:54:42.988Z</time></trkpt><trkpt lat="44.032132735431524" lon="10.135951098357149"><ele>45.2</ele><time>2026-05-02T06:54:43.988Z</time></trkpt><trkpt lat="44.03221504486099" lon="10.136024536341159"><ele>45.599999999999994</ele><time>2026-05-02T06:54:44.988Z</time></trkpt><trkpt lat="44.032295651689786" lon="10.136111598361824"><ele>46.0</ele><time>2026-05-02T06:54:45.988Z</time></trkpt><trkpt lat="44.03239102951016" lon="10.136208479962818"><ele>45.8</ele><time>2026-05-02T06:54:46.988Z</time></trkpt><trkpt lat="44.0324817886661" lon="10.136289634565486"><ele>45.599999999999994</ele><time>2026-05-02T06:54:47.988Z</time></trkpt><trkpt lat="44.03256426147127" lon="10.136378272852708"><ele>45.4</ele><time>2026-05-02T06:54:48.988Z</time></trkpt><trkpt lat="44.0326551857059" lon="10.136459340487228"><ele>45.2</ele><time>2026-05-02T06:54:49.988Z</time></trkpt><trkpt lat="44.03274909313687" lon="10.136547648174373"><ele>45.0</ele><time>2026-05-02T06:54:50.988Z</time></trkpt><trkpt lat="44.03282844574333" lon="10.136618349105417"><ele>45.0</ele><time>2026-05-02T06:54:51.988Z</time></trkpt><trkpt lat="44.03290940108918" lon="10.136696480748753"><ele>45.0</ele><time>2026-05-02T06:54:52.988Z</time></trkpt><trkpt lat="44.03299378768667" lon="10.136782073253254"><ele>45.0</ele><time>2026-05-02T06:54:53.988Z</time></trkpt><trkpt lat="44.03307742104796" lon="10.13687608666132"><ele>45.0</ele><time>2026-05-02T06:54:54.988Z</time></trkpt><trkpt lat="44.03315502845716" lon="10.136962692932858"><ele>45.0</ele><time>2026-05-02T06:54:55.988Z</time></trkpt><trkpt lat="44.033230136147665" lon="10.137048901169601"><ele>45.8</ele><time>2026-05-02T06:54:56.988Z</time></trkpt><trkpt lat="44.03332550018089" lon="10.137144667852146"><ele>46.6</ele><time>2026-05-02T06:54:57.988Z</time></trkpt><trkpt lat="44.033415520808475" lon="10.13723773593472"><ele>47.400000000000006</ele><time>2026-05-02T06:54:58.988Z</time></trkpt><trkpt lat="44.03349621721504" lon="10.137324860785759"><ele>48.2</ele><time>2026-05-02T06:54:59.988Z</time></trkpt><trkpt lat="44.03359822769032" lon="10.137404778616903"><ele>49.0</ele><time>2026-05-02T06:55:00.988Z</time></trkpt><trkpt lat="44.03367634485814" lon="10.137468005807268"><ele>49.166666666666664</ele><time>2026-05-02T06:55:01.988Z</time></trkpt><trkpt lat="44.033739485469" lon="10.1375216827712"><ele>49.33333333333333</ele><time>2026-05-02T06:55:02.988Z</time></trkpt><trkpt lat="44.03381612381582" lon="10.137571247095646"><ele>49.5</ele><time>2026-05-02T06:55:04.988Z</time></trkpt><trkpt lat="44.033850488765836" lon="10.137652909225874"><ele>49.66666666666667</ele><time>2026-05-02T06:55:07.988Z</time></trkpt><trkpt lat="44.033927119129046" lon="10.1377215341254"><ele>49.833333333333336</ele><time>2026-05-02T06:55:10.988Z</time></trkpt><trkpt lat="44.03398503139832" lon="10.137786378341325"><ele>50.0</ele><time>2026-05-02T06:55:12.988Z</time></trkpt><trkpt lat="44.03405960382059" lon="10.137891945817385"><ele>50.0</ele><time>2026-05-02T06:55:14.988Z</time></trkpt><trkpt lat="44.0341053233868" lon="10.138018414152176"><ele>50.0</ele><time>2026-05-02T06:55:16.988Z</time></trkpt><trkpt lat="44.03416490628623" lon="10.138121454853348"><ele>50.0</ele><time>2026-05-02T06:55:18.988Z</time></trkpt><trkpt lat="44.034239582600456" lon="10.138164214106208"><ele>50.0</ele><time>2026-05-02T06:55:20.988Z</time></trkpt><trkpt lat="44.03436629348999" lon="10.138160051866718"><ele>50.0</ele><time>2026-05-02T06:55:22.988Z</time></trkpt><trkpt lat="44.03443635708097" lon="10.13818651352683"><ele>50.50000000000001</ele><time>2026-05-02T06:55:23.988Z</time></trkpt><trkpt lat="44.034510243404995" lon="10.13822077863995"><ele>51.0</ele><time>2026-05-02T06:55:24.988Z</time></trkpt><trkpt lat="44.03456706654406" lon="10.138276300299475"><ele>51.5</ele><time>2026-05-02T06:55:25.988Z</time></trkpt><trkpt lat="44.034624789574806" lon="10.138346368071492"><ele>52.0</ele><time>2026-05-02T06:55:26.988Z</time></trkpt><trkpt lat="44.03468749977055" lon="10.138429855484508"><ele>52.50000000000001</ele><time>2026-05-02T06:55:27.988Z</time></trkpt><trkpt lat="44.03473338860141" lon="10.13851126253611"><ele>53.0</ele><time>2026-05-02T06:55:28.988Z</time></trkpt><trkpt lat="44.03478258816818" lon="10.138594017455542"><ele>53.00000000000001</ele><time>2026-05-02T06:55:29.988Z</time></trkpt><trkpt lat="44.034841811908585" lon="10.138678679609074"><ele>53.0</ele><time>2026-05-02T06:55:30.988Z</time></trkpt><trkpt lat="44.03490352728063" lon="10.138765266715316"><ele>53.0</ele><time>2026-05-02T06:55:31.988Z</time></trkpt><trkpt lat="44.03495173665942" lon="10.138831586137325"><ele>53.0</ele><time>2026-05-02T06:55:32.988Z</time></trkpt><trkpt lat="44.035012225050295" lon="10.138916149714783"><ele>53.00000000000001</ele><time>2026-05-02T06:55:34.988Z</time></trkpt><trkpt lat="44.03507444512529" lon="10.13906213920253"><ele>53.0</ele><time>2026-05-02T06:56:00.986Z</time></trkpt><trkpt lat="44.035130406086246" lon="10.139118792783792"><ele>53.50000000000001</ele><time>2026-05-02T06:56:03.985Z</time></trkpt><trkpt lat="44.03516706231154" lon="10.139190547719767"><ele>54.0</ele><time>2026-05-02T06:56:05.986Z</time></trkpt><trkpt lat="44.03521378183852" lon="10.139265476884404"><ele>54.5</ele><time>2026-05-02T06:56:07.986Z</time></trkpt><trkpt lat="44.03526619907019" lon="10.139350127256721"><ele>55.0</ele><time>2026-05-02T06:56:09.986Z</time></trkpt><trkpt lat="44.035341506245445" lon="10.13944185598369"><ele>55.50000000000001</ele><time>2026-05-02T06:56:11.986Z</time></trkpt><trkpt lat="44.03535274864378" lon="10.139539836979639"><ele>56.0</ele><time>2026-05-02T06:56:12.986Z</time></trkpt><trkpt lat="44.03543789190512" lon="10.13962143976464"><ele>56.00000000000001</ele><time>2026-05-02T06:56:14.986Z</time></trkpt><trkpt lat="44.03550851487938" lon="10.139693246521395"><ele>56.0</ele><time>2026-05-02T06:56:16.986Z</time></trkpt><trkpt lat="44.035557888420186" lon="10.139759588031195"><ele>56.0</ele><time>2026-05-02T06:56:18.986Z</time></trkpt><trkpt lat="44.03562555161736" lon="10.139877614572038"><ele>56.0</ele><time>2026-05-02T06:56:20.986Z</time></trkpt><trkpt lat="44.03567276405943" lon="10.139938868362192"><ele>56.00000000000001</ele><time>2026-05-02T06:56:21.986Z</time></trkpt><trkpt lat="44.0357185493006" lon="10.140004447086746"><ele>56.0</ele><time>2026-05-02T06:56:22.986Z</time></trkpt><trkpt lat="44.03576058466211" lon="10.140075682581667"><ele>56.599999999999994</ele><time>2026-05-02T06:56:23.986Z</time></trkpt><trkpt lat="44.03584118988847" lon="10.140196485897805"><ele>57.199999999999996</ele><time>2026-05-02T06:56:25.986Z</time></trkpt><trkpt lat="44.03590271155231" lon="10.140298240740162"><ele>57.800000000000004</ele><time>2026-05-02T06:56:27.986Z</time></trkpt><trkpt lat="44.035959543113165" lon="10.140406551948988"><ele>58.400000000000006</ele><time>2026-05-02T06:56:29.986Z</time></trkpt><trkpt lat="44.0360136980395" lon="10.140491643131746"><ele>59.0</ele><time>2026-05-02T06:56:34.986Z</time></trkpt><trkpt lat="44.03607217355155" lon="10.140572389159116"><ele>59.0</ele><time>2026-05-02T06:56:38.986Z</time></trkpt><trkpt lat="44.03612900803775" lon="10.140650852440793"><ele>59.0</ele><time>2026-05-02T06:56:41.986Z</time></trkpt><trkpt lat="44.03617753426805" lon="10.14070712104417"><ele>59.0</ele><time>2026-05-02T06:56:44.986Z</time></trkpt><trkpt lat="44.03625339950893" lon="10.140774023642646"><ele>59.0</ele><time>2026-05-02T06:56:47.986Z</time></trkpt><trkpt lat="44.03648497239691" lon="10.14077817444064"><ele>59.16666666666667</ele><time>2026-05-02T06:56:50.986Z</time></trkpt><trkpt lat="44.03655558726614" lon="10.14073572574759"><ele>59.333333333333336</ele><time>2026-05-02T06:56:52.986Z</time></trkpt><trkpt lat="44.036643300276126" lon="10.140688662073881"><ele>59.5</ele><time>2026-05-02T06:56:54.986Z</time></trkpt><trkpt lat="44.03670268922717" lon="10.140656711366312"><ele>59.66666666666667</ele><time>2026-05-02T06:56:56.986Z</time></trkpt><trkpt lat="44.036765977957174" lon="10.1406225204019"><ele>59.833333333333336</ele><time>2026-05-02T06:56:58.986Z</time></trkpt><trkpt lat="44.03683824499487" lon="10.140565226919735"><ele>60.0</ele><time>2026-05-02T06:57:00.986Z</time></trkpt><trkpt lat="44.03689591733658" lon="10.140507090405375"><ele>60.0</ele><time>2026-05-02T06:57:02.986Z</time></trkpt><trkpt lat="44.03695088621764" lon="10.140457464281443"><ele>60.0</ele><time>2026-05-02T06:57:04.986Z</time></trkpt><trkpt lat="44.03701509960199" lon="10.140439223755395"><ele>60.0</ele><time>2026-05-02T06:57:10.986Z</time></trkpt><trkpt lat="44.03712085802766" lon="10.140529394638994"><ele>60.0</ele><time>2026-05-02T06:57:11.986Z</time></trkpt><trkpt lat="44.037176951291315" lon="10.140582768981263"><ele>60.0</ele><time>2026-05-02T06:57:13.986Z</time></trkpt><trkpt lat="44.03724454146109" lon="10.140682520182189"><ele>60.0</ele><time>2026-05-02T06:57:16.986Z</time></trkpt><trkpt lat="44.03730749035042" lon="10.14071974132718"><ele>60.25</ele><time>2026-05-02T06:57:18.986Z</time></trkpt><trkpt lat="44.03736807168528" lon="10.140786625933565"><ele>60.5</ele><time>2026-05-02T06:57:21.986Z</time></trkpt><trkpt lat="44.03747587188227" lon="10.140872356559239"><ele>60.75</ele><time>2026-05-02T06:57:55.986Z</time></trkpt><trkpt lat="44.03753944420187" lon="10.14094121805361"><ele>61.0</ele><time>2026-05-02T06:58:00.983Z</time></trkpt><trkpt lat="44.0375127446834" lon="10.14123685822744"><ele>60.99999999999999</ele><time>2026-05-02T06:58:13.983Z</time></trkpt><trkpt lat="44.037573936016386" lon="10.141291666116182"><ele>61.0</ele><time>2026-05-02T06:58:15.983Z</time></trkpt><trkpt lat="44.03762413529697" lon="10.141347784209065"><ele>61.0</ele><time>2026-05-02T06:58:17.983Z</time></trkpt><trkpt lat="44.03769890473688" lon="10.141429006096507"><ele>61.0</ele><time>2026-05-02T06:58:19.983Z</time></trkpt><trkpt lat="44.03779115871274" lon="10.14153407844484"><ele>60.99999999999999</ele><time>2026-05-02T06:58:21.983Z</time></trkpt><trkpt lat="44.03786358204194" lon="10.14156425127392"><ele>61.0</ele><time>2026-05-02T06:58:22.983Z</time></trkpt><trkpt lat="44.0379353894649" lon="10.141630921770606"><ele>61.166666666666664</ele><time>2026-05-02T06:58:23.983Z</time></trkpt><trkpt lat="44.03800116553801" lon="10.141694014336343"><ele>61.33333333333333</ele><time>2026-05-02T06:58:24.983Z</time></trkpt><trkpt lat="44.03806605624057" lon="10.141757211232225"><ele>61.5</ele><time>2026-05-02T06:58:25.983Z</time></trkpt><trkpt lat="44.038124861692" lon="10.141814422136177"><ele>61.66666666666667</ele><time>2026-05-02T06:58:26.983Z</time></trkpt><trkpt lat="44.038183764894754" lon="10.14187301263935"><ele>61.833333333333336</ele><time>2026-05-02T06:58:27.983Z</time></trkpt><trkpt lat="44.038253384511485" lon="10.141902901789496"><ele>62.0</ele><time>2026-05-02T06:58:28.983Z</time></trkpt><trkpt lat="44.038315708223905" lon="10.141957708635132"><ele>62.0</ele><time>2026-05-02T06:58:29.983Z</time></trkpt><trkpt lat="44.038377447017325" lon="10.142012496672985"><ele>62.00000000000001</ele><time>2026-05-02T06:58:30.983Z</time></trkpt><trkpt lat="44.03843015002273" lon="10.14207591210765"><ele>62.0</ele><time>2026-05-02T06:58:31.983Z</time></trkpt><trkpt lat="44.038467427147616" lon="10.14214863238662"><ele>62.0</ele><time>2026-05-02T06:58:32.983Z</time></trkpt><trkpt lat="44.03850084113202" lon="10.142224633033827"><ele>62.00000000000001</ele><time>2026-05-02T06:58:33.983Z</time></trkpt><trkpt lat="44.03853694085656" lon="10.142302656605459"><ele>62.0</ele><time>2026-05-02T06:58:34.983Z</time></trkpt><trkpt lat="44.038577171168185" lon="10.14238553474583"><ele>62.0</ele><time>2026-05-02T06:58:35.983Z</time></trkpt><trkpt lat="44.0386182096583" lon="10.142481582674797"><ele>63.00000000000001</ele><time>2026-05-02T06:58:36.983Z</time></trkpt><trkpt lat="44.038651312140935" lon="10.142558662476606"><ele>64.0</ele><time>2026-05-02T06:58:37.983Z</time></trkpt><trkpt lat="44.03866009890544" lon="10.142733652904946"><ele>65.0</ele><time>2026-05-02T06:58:39.983Z</time></trkpt><trkpt lat="44.03866057411094" lon="10.142849524630307"><ele>66.0</ele><time>2026-05-02T06:58:40.983Z</time></trkpt><trkpt lat="44.03864707745947" lon="10.142958429805416"><ele>67.0</ele><time>2026-05-02T06:58:41.983Z</time></trkpt><trkpt lat="44.03864266051586" lon="10.143069001152153"><ele>68.0</ele><time>2026-05-02T06:58:42.983Z</time></trkpt><trkpt lat="44.038645583268774" lon="10.143176187507333"><ele>68.66666666666667</ele><time>2026-05-02T06:58:43.983Z</time></trkpt><trkpt lat="44.03864502487425" lon="10.143277102562168"><ele>69.33333333333334</ele><time>2026-05-02T06:58:44.983Z</time></trkpt><trkpt lat="44.03867856683015" lon="10.143366632618745"><ele>70.0</ele><time>2026-05-02T06:58:45.983Z</time></trkpt><trkpt lat="44.038652206956186" lon="10.143482480701396"><ele>70.66666666666667</ele><time>2026-05-02T06:58:46.983Z</time></trkpt><trkpt lat="44.03865386300314" lon="10.143571610072943"><ele>71.33333333333333</ele><time>2026-05-02T06:58:47.983Z</time></trkpt><trkpt lat="44.03864444381209" lon="10.143710355173196"><ele>72.0</ele><time>2026-05-02T06:58:49.983Z</time></trkpt><trkpt lat="44.03862417673972" lon="10.143806554681177"><ele>72.0</ele><time>2026-05-02T06:58:51.983Z</time></trkpt><trkpt lat="44.03861455554892" lon="10.143913766008255"><ele>72.0</ele><time>2026-05-02T06:58:53.983Z</time></trkpt><trkpt lat="44.038626376038785" lon="10.144057785375535"><ele>72.0</ele><time>2026-05-02T06:58:55.983Z</time></trkpt><trkpt lat="44.038647783448276" lon="10.144200470656928"><ele>72.0</ele><time>2026-05-02T06:58:57.983Z</time></trkpt><trkpt lat="44.03868267887754" lon="10.144344816864537"><ele>72.0</ele><time>2026-05-02T06:58:59.983Z</time></trkpt><trkpt lat="44.03869523596802" lon="10.144450283010816"><ele>72.33333333333333</ele><time>2026-05-02T06:59:01.983Z</time></trkpt><trkpt lat="44.03870388983957" lon="10.14456281625444"><ele>72.66666666666667</ele><time>2026-05-02T06:59:04.983Z</time></trkpt><trkpt lat="44.038786661998465" lon="10.144619503776362"><ele>73.0</ele><time>2026-05-02T06:59:05.983Z</time></trkpt><trkpt lat="44.038877238676505" lon="10.14467668017901"><ele>73.33333333333334</ele><time>2026-05-02T06:59:07.983Z</time></trkpt><trkpt lat="44.03892999692768" lon="10.14473274961395"><ele>73.66666666666667</ele><time>2026-05-02T06:59:08.983Z</time></trkpt><trkpt lat="44.03899021983806" lon="10.144818174020848"><ele>74.0</ele><time>2026-05-02T06:59:09.983Z</time></trkpt><trkpt lat="44.03905170730393" lon="10.144907197752257"><ele>73.83333333333334</ele><time>2026-05-02T06:59:10.983Z</time></trkpt><trkpt lat="44.03912602318344" lon="10.144970197558889"><ele>73.66666666666667</ele><time>2026-05-02T06:59:11.983Z</time></trkpt><trkpt lat="44.03920262252149" lon="10.145037020335305"><ele>73.5</ele><time>2026-05-02T06:59:12.983Z</time></trkpt><trkpt lat="44.039270702051965" lon="10.145115073242891"><ele>73.33333333333333</ele><time>2026-05-02T06:59:13.983Z</time></trkpt><trkpt lat="44.03934069612058" lon="10.145190420270419"><ele>73.16666666666666</ele><time>2026-05-02T06:59:14.983Z</time></trkpt><trkpt lat="44.03941622510533" lon="10.145267604349552"><ele>73.0</ele><time>2026-05-02T06:59:15.983Z</time></trkpt><trkpt lat="44.03949143633625" lon="10.145344269126282"><ele>73.0</ele><time>2026-05-02T06:59:16.983Z</time></trkpt><trkpt lat="44.03956601733392" lon="10.14542968847267"><ele>73.0</ele><time>2026-05-02T06:59:17.983Z</time></trkpt><trkpt lat="44.03963953585451" lon="10.145519136856164"><ele>73.0</ele><time>2026-05-02T06:59:18.983Z</time></trkpt><trkpt lat="44.03971233972167" lon="10.145613289013932"><ele>73.0</ele><time>2026-05-02T06:59:19.983Z</time></trkpt><trkpt lat="44.03978559699842" lon="10.145704483294644"><ele>73.0</ele><time>2026-05-02T06:59:20.983Z</time></trkpt><trkpt lat="44.0398598883058" lon="10.145790685236676"><ele>73.5</ele><time>2026-05-02T06:59:21.983Z</time></trkpt><trkpt lat="44.03993962857571" lon="10.14586736640526"><ele>74.0</ele><time>2026-05-02T06:59:22.983Z</time></trkpt><trkpt lat="44.04000858536263" lon="10.14593109930408"><ele>74.5</ele><time>2026-05-02T06:59:23.983Z</time></trkpt><trkpt lat="44.04007535216961" lon="10.145958580692838"><ele>75.0</ele><time>2026-05-02T06:59:24.983Z</time></trkpt><trkpt lat="44.040142408494916" lon="10.145975831371725"><ele>75.5</ele><time>2026-05-02T06:59:25.983Z</time></trkpt><trkpt lat="44.04021342525986" lon="10.145987178462345"><ele>76.0</ele><time>2026-05-02T06:59:26.983Z</time></trkpt><trkpt lat="44.040282263920346" lon="10.145973110299046"><ele>76.0</ele><time>2026-05-02T06:59:27.983Z</time></trkpt><trkpt lat="44.04036129404158" lon="10.145958501558832"><ele>76.0</ele><time>2026-05-02T06:59:28.983Z</time></trkpt><trkpt lat="44.0404393228336" lon="10.145947913103216"><ele>76.0</ele><time>2026-05-02T06:59:29.983Z</time></trkpt><trkpt lat="44.040516205196816" lon="10.145930802238682"><ele>76.0</ele><time>2026-05-02T06:59:30.983Z</time></trkpt><trkpt lat="44.04059358903571" lon="10.145917535680443"><ele>76.0</ele><time>2026-05-02T06:59:31.983Z</time></trkpt><trkpt lat="44.040672120039105" lon="10.145893992597196"><ele>76.0</ele><time>2026-05-02T06:59:32.983Z</time></trkpt><trkpt lat="44.04075438019339" lon="10.14587058717282"><ele>76.33333333333333</ele><time>2026-05-02T06:59:33.983Z</time></trkpt><trkpt lat="44.04084461561366" lon="10.145901375582378"><ele>76.66666666666666</ele><time>2026-05-02T06:59:34.983Z</time></trkpt><trkpt lat="44.04092493283787" lon="10.145896652609462"><ele>77.0</ele><time>2026-05-02T06:59:35.983Z</time></trkpt><trkpt lat="44.0410016072227" lon="10.145890736979053"><ele>77.33333333333333</ele><time>2026-05-02T06:59:36.983Z</time></trkpt><trkpt lat="44.041066900561134" lon="10.145884661656092"><ele>77.66666666666667</ele><time>2026-05-02T06:59:37.983Z</time></trkpt><trkpt lat="44.041162668016824" lon="10.145881791275611"><ele>78.0</ele><time>2026-05-02T06:59:39.983Z</time></trkpt><trkpt lat="44.04124265141249" lon="10.145870724987384"><ele>78.0</ele><time>2026-05-02T06:59:44.983Z</time></trkpt><trkpt lat="44.041324076600915" lon="10.14586353057381"><ele>78.0</ele><time>2026-05-02T06:59:47.983Z</time></trkpt><trkpt lat="44.04139080018241" lon="10.145857993622627"><ele>78.0</ele><time>2026-05-02T06:59:49.983Z</time></trkpt><trkpt lat="44.041509241985366" lon="10.145851979600536"><ele>78.0</ele><time>2026-05-02T06:59:52.983Z</time></trkpt><trkpt lat="44.0415749894676" lon="10.14584136950704"><ele>78.0</ele><time>2026-05-02T06:59:53.983Z</time></trkpt><trkpt lat="44.04164867063303" lon="10.145827800498916"><ele>78.0</ele><time>2026-05-02T06:59:54.983Z</time></trkpt><trkpt lat="44.04173805887985" lon="10.145808516493256"><ele>78.5</ele><time>2026-05-02T06:59:55.983Z</time></trkpt><trkpt lat="44.04183306176203" lon="10.145788346250091"><ele>79.0</ele><time>2026-05-02T06:59:56.983Z</time></trkpt><trkpt lat="44.04191020384867" lon="10.145774491242914"><ele>79.5</ele><time>2026-05-02T06:59:57.983Z</time></trkpt><trkpt lat="44.041985603950124" lon="10.145767126243744"><ele>80.0</ele><time>2026-05-02T06:59:58.983Z</time></trkpt><trkpt lat="44.04206255782307" lon="10.14575821618898"><ele>80.5</ele><time>2026-05-02T06:59:59.983Z</time></trkpt><trkpt lat="44.04213460871847" lon="10.145785973031193"><ele>81.0</ele><time>2026-05-02T07:00:00.983Z</time></trkpt><trkpt lat="44.04218865902848" lon="10.145835954753641"><ele>81.0</ele><time>2026-05-02T07:00:01.983Z</time></trkpt><trkpt lat="44.04224050511406" lon="10.145979089905914"><ele>81.0</ele><time>2026-05-02T07:00:03.983Z</time></trkpt><trkpt lat="44.04222705071107" lon="10.146065340701526"><ele>81.0</ele><time>2026-05-02T07:00:04.981Z</time></trkpt><trkpt lat="44.04219745579635" lon="10.146143375249228"><ele>81.0</ele><time>2026-05-02T07:00:05.981Z</time></trkpt><trkpt lat="44.04214471121704" lon="10.146202733018322"><ele>81.0</ele><time>2026-05-02T07:00:06.981Z</time></trkpt><trkpt lat="44.042078027696505" lon="10.146223682981837"><ele>81.0</ele><time>2026-05-02T07:00:07.981Z</time></trkpt><trkpt lat="44.04201114467193" lon="10.146257183647224"><ele>81.0</ele><time>2026-05-02T07:00:08.981Z</time></trkpt><trkpt lat="44.0419442933467" lon="10.146293056694129"><ele>81.0</ele><time>2026-05-02T07:00:09.981Z</time></trkpt><trkpt lat="44.041875104470606" lon="10.146333705279982"><ele>81.0</ele><time>2026-05-02T07:00:10.981Z</time></trkpt><trkpt lat="44.041810967841144" lon="10.146373639430681"><ele>81.0</ele><time>2026-05-02T07:00:11.981Z</time></trkpt><trkpt lat="44.04176513505569" lon="10.146439258660973"><ele>81.0</ele><time>2026-05-02T07:00:12.981Z</time></trkpt><trkpt lat="44.04169369507307" lon="10.146566558853708"><ele>81.0</ele><time>2026-05-02T07:00:14.982Z</time></trkpt><trkpt lat="44.04168046812897" lon="10.146734003805458"><ele>81.0</ele><time>2026-05-02T07:00:16.981Z</time></trkpt><trkpt lat="44.041717535444015" lon="10.146882510955889"><ele>83.5</ele><time>2026-05-02T07:00:18.981Z</time></trkpt><trkpt lat="44.04179812315735" lon="10.147018500960288"><ele>86.0</ele><time>2026-05-02T07:00:20.981Z</time></trkpt><trkpt lat="44.041858012643594" lon="10.147074135413424"><ele>88.5</ele><time>2026-05-02T07:00:21.981Z</time></trkpt><trkpt lat="44.04192553939348" lon="10.147102577172852"><ele>91.0</ele><time>2026-05-02T07:00:22.981Z</time></trkpt><trkpt lat="44.04199069389917" lon="10.147095724776323"><ele>93.5</ele><time>2026-05-02T07:00:23.981Z</time></trkpt><trkpt lat="44.042053905726576" lon="10.147057175794602"><ele>96.0</ele><time>2026-05-02T07:00:24.981Z</time></trkpt><trkpt lat="44.04212355156096" lon="10.14700778482774"><ele>96.0</ele><time>2026-05-02T07:00:25.981Z</time></trkpt><trkpt lat="44.042169182916496" lon="10.14691263627693"><ele>96.0</ele><time>2026-05-02T07:00:26.981Z</time></trkpt><trkpt lat="44.04223163730552" lon="10.146854758825219"><ele>96.0</ele><time>2026-05-02T07:00:27.981Z</time></trkpt><trkpt lat="44.04229586689407" lon="10.146776625733864"><ele>96.0</ele><time>2026-05-02T07:00:28.981Z</time></trkpt><trkpt lat="44.04237966710009" lon="10.146734659402084"><ele>96.0</ele><time>2026-05-02T07:00:29.981Z</time></trkpt><trkpt lat="44.04247085674169" lon="10.146734825272"><ele>96.0</ele><time>2026-05-02T07:00:30.981Z</time></trkpt><trkpt lat="44.04256440883853" lon="10.146717938021524"><ele>96.33333333333333</ele><time>2026-05-02T07:00:31.981Z</time></trkpt><trkpt lat="44.04265603273986" lon="10.146701398693589"><ele>96.66666666666666</ele><time>2026-05-02T07:00:32.981Z</time></trkpt><trkpt lat="44.04274204876175" lon="10.14669899254741"><ele>97.0</ele><time>2026-05-02T07:00:33.981Z</time></trkpt><trkpt lat="44.04282476892595" lon="10.146722068588783"><ele>97.33333333333333</ele><time>2026-05-02T07:00:34.981Z</time></trkpt><trkpt lat="44.04290026409677" lon="10.146772666203733"><ele>97.66666666666666</ele><time>2026-05-02T07:00:35.981Z</time></trkpt><trkpt lat="44.04296289818221" lon="10.146847360472423"><ele>98.0</ele><time>2026-05-02T07:00:36.981Z</time></trkpt><trkpt lat="44.04301471632306" lon="10.146933184236739"><ele>97.99999999999999</ele><time>2026-05-02T07:00:37.981Z</time></trkpt><trkpt lat="44.043075131725836" lon="10.14702961424604"><ele>98.0</ele><time>2026-05-02T07:00:38.981Z</time></trkpt><trkpt lat="44.0431315327182" lon="10.147109388523972"><ele>98.0</ele><time>2026-05-02T07:00:39.981Z</time></trkpt><trkpt lat="44.04320325823517" lon="10.14717069243551"><ele>98.0</ele><time>2026-05-02T07:00:40.981Z</time></trkpt><trkpt lat="44.043281012424735" lon="10.147200143558653"><ele>97.99999999999999</ele><time>2026-05-02T07:00:41.981Z</time></trkpt><trkpt lat="44.043362101012" lon="10.147222542578394"><ele>98.0</ele><time>2026-05-02T07:00:42.981Z</time></trkpt><trkpt lat="44.043452589228025" lon="10.147283192334752"><ele>97.66666666666666</ele><time>2026-05-02T07:00:43.981Z</time></trkpt><trkpt lat="44.04353767239693" lon="10.1473185007044"><ele>97.33333333333333</ele><time>2026-05-02T07:00:44.981Z</time></trkpt><trkpt lat="44.043621294457914" lon="10.147351538603425"><ele>97.0</ele><time>2026-05-02T07:00:45.981Z</time></trkpt><trkpt lat="44.043699749477724" lon="10.147377781597815"><ele>96.66666666666666</ele><time>2026-05-02T07:00:46.981Z</time></trkpt><trkpt lat="44.0437812934479" lon="10.147371228163829"><ele>96.33333333333333</ele><time>2026-05-02T07:00:47.981Z</time></trkpt><trkpt lat="44.043860338428104" lon="10.147341925582548"><ele>96.0</ele><time>2026-05-02T07:00:48.981Z</time></trkpt><trkpt lat="44.04394306814191" lon="10.147292030511782"><ele>96.0</ele><time>2026-05-02T07:00:49.981Z</time></trkpt><trkpt lat="44.044025525359025" lon="10.147236209976585"><ele>96.0</ele><time>2026-05-02T07:00:50.981Z</time></trkpt><trkpt lat="44.04410858313618" lon="10.147166650974809"><ele>96.0</ele><time>2026-05-02T07:00:51.981Z</time></trkpt><trkpt lat="44.04419305385519" lon="10.147102737628776"><ele>96.0</ele><time>2026-05-02T07:00:52.981Z</time></trkpt><trkpt lat="44.04428258554453" lon="10.147046868650513"><ele>96.0</ele><time>2026-05-02T07:00:53.981Z</time></trkpt><trkpt lat="44.04435795484122" lon="10.146991196036774"><ele>95.57142857142857</ele><time>2026-05-02T07:00:54.981Z</time></trkpt><trkpt lat="44.044416979986934" lon="10.146953423945615"><ele>95.14285714285714</ele><time>2026-05-02T07:00:55.981Z</time></trkpt><trkpt lat="44.04449438724643" lon="10.146937879766925"><ele>94.71428571428572</ele><time>2026-05-02T07:00:57.981Z</time></trkpt><trkpt lat="44.04452937162327" lon="10.147019386542345"><ele>94.28571428571428</ele><time>2026-05-02T07:00:59.981Z</time></trkpt><trkpt lat="44.0444434282079" lon="10.147057648123868"><ele>93.85714285714286</ele><time>2026-05-02T07:01:01.981Z</time></trkpt><trkpt lat="44.044379109979346" lon="10.14705057623178"><ele>93.42857142857143</ele><time>2026-05-02T07:01:02.981Z</time></trkpt><trkpt lat="44.04431285565568" lon="10.147051847767704"><ele>93.0</ele><time>2026-05-02T07:01:03.981Z</time></trkpt><trkpt lat="44.04423503800709" lon="10.147106563589567"><ele>93.0</ele><time>2026-05-02T07:01:04.981Z</time></trkpt><trkpt lat="44.04414491087358" lon="10.147165187985596"><ele>93.0</ele><time>2026-05-02T07:01:05.981Z</time></trkpt><trkpt lat="44.044069821145754" lon="10.147225318089939"><ele>93.0</ele><time>2026-05-02T07:01:06.981Z</time></trkpt><trkpt lat="44.043994661386684" lon="10.147290596305782"><ele>93.0</ele><time>2026-05-02T07:01:07.981Z</time></trkpt><trkpt lat="44.043918441715654" lon="10.147356460207929"><ele>93.0</ele><time>2026-05-02T07:01:08.981Z</time></trkpt><trkpt lat="44.04383376560228" lon="10.147410175851828"><ele>100.80000000000001</ele><time>2026-05-02T07:01:09.981Z</time></trkpt><trkpt lat="44.043741326416104" lon="10.14743673401355"><ele>108.6</ele><time>2026-05-02T07:01:10.981Z</time></trkpt><trkpt lat="44.04364168657022" lon="10.14746033633439"><ele>116.39999999999999</ele><time>2026-05-02T07:01:11.981Z</time></trkpt><trkpt lat="44.0435318068601" lon="10.14748927539074"><ele>124.19999999999999</ele><time>2026-05-02T07:01:12.981Z</time></trkpt><trkpt lat="44.04341169302566" lon="10.147512198666263"><ele>132.0</ele><time>2026-05-02T07:01:13.981Z</time></trkpt><trkpt lat="44.043298708717366" lon="10.14754498496272"><ele>130.0</ele><time>2026-05-02T07:01:14.981Z</time></trkpt><trkpt lat="44.04319628319362" lon="10.147576089182087"><ele>128.0</ele><time>2026-05-02T07:01:15.981Z</time></trkpt><trkpt lat="44.043111362204606" lon="10.147559018350593"><ele>126.0</ele><time>2026-05-02T07:01:16.981Z</time></trkpt><trkpt lat="44.04302967413485" lon="10.14755402774587"><ele>124.0</ele><time>2026-05-02T07:01:17.981Z</time></trkpt><trkpt lat="44.04296051610951" lon="10.147475029208557"><ele>122.0</ele><time>2026-05-02T07:01:18.981Z</time></trkpt><trkpt lat="44.04289714342668" lon="10.147419258956466"><ele>120.0</ele><time>2026-05-02T07:01:19.981Z</time></trkpt><trkpt lat="44.042824695369234" lon="10.147403381749626"><ele>120.0</ele><time>2026-05-02T07:01:20.981Z</time></trkpt><trkpt lat="44.04271422260675" lon="10.14742479389335"><ele>120.0</ele><time>2026-05-02T07:01:22.981Z</time></trkpt><trkpt lat="44.04266559545204" lon="10.147503803001799"><ele>120.0</ele><time>2026-05-02T07:01:23.981Z</time></trkpt><trkpt lat="44.042609552193056" lon="10.147591104150681"><ele>120.0</ele><time>2026-05-02T07:01:24.981Z</time></trkpt><trkpt lat="44.04257830667346" lon="10.147723934489907"><ele>120.0</ele><time>2026-05-02T07:01:25.981Z</time></trkpt><trkpt lat="44.042569897092385" lon="10.147852500574565"><ele>120.0</ele><time>2026-05-02T07:01:26.981Z</time></trkpt><trkpt lat="44.04253497444178" lon="10.147973752010842"><ele>120.0</ele><time>2026-05-02T07:01:27.981Z</time></trkpt><trkpt lat="44.04252165658136" lon="10.148079107737551"><ele>120.0</ele><time>2026-05-02T07:01:28.981Z</time></trkpt><trkpt lat="44.04252286503781" lon="10.148189865911222"><ele>120.0</ele><time>2026-05-02T07:01:29.981Z</time></trkpt><trkpt lat="44.04254343706174" lon="10.148301335236665"><ele>120.0</ele><time>2026-05-02T07:01:30.981Z</time></trkpt><trkpt lat="44.04257984120873" lon="10.148410767299152"><ele>120.0</ele><time>2026-05-02T07:01:31.981Z</time></trkpt><trkpt lat="44.042604787929655" lon="10.148530026234837"><ele>122.0</ele><time>2026-05-02T07:01:32.981Z</time></trkpt><trkpt lat="44.04262666254103" lon="10.148657322532637"><ele>124.0</ele><time>2026-05-02T07:01:33.981Z</time></trkpt><trkpt lat="44.04264065908557" lon="10.148781675023116"><ele>126.0</ele><time>2026-05-02T07:01:34.981Z</time></trkpt><trkpt lat="44.042636459392284" lon="10.148903705866259"><ele>128.0</ele><time>2026-05-02T07:01:35.981Z</time></trkpt><trkpt lat="44.04261941879663" lon="10.14902661415503"><ele>130.0</ele><time>2026-05-02T07:01:36.981Z</time></trkpt><trkpt lat="44.04258823835323" lon="10.14914516241533"><ele>132.16666666666669</ele><time>2026-05-02T07:01:37.981Z</time></trkpt><trkpt lat="44.04254186065002" lon="10.149245976041213"><ele>134.33333333333334</ele><time>2026-05-02T07:01:38.981Z</time></trkpt><trkpt lat="44.04249215071797" lon="10.14933419915704"><ele>136.5</ele><time>2026-05-02T07:01:39.981Z</time></trkpt><trkpt lat="44.0424234188231" lon="10.149398347081778"><ele>138.66666666666666</ele><time>2026-05-02T07:01:40.981Z</time></trkpt><trkpt lat="44.04235058168733" lon="10.149450017707414"><ele>140.83333333333331</ele><time>2026-05-02T07:01:41.981Z</time></trkpt><trkpt lat="44.04227760264814" lon="10.149484541067244"><ele>143.0</ele><time>2026-05-02T07:01:42.981Z</time></trkpt><trkpt lat="44.04220733545823" lon="10.149487629645193"><ele>145.6</ele><time>2026-05-02T07:01:43.981Z</time></trkpt><trkpt lat="44.042128006212124" lon="10.14944798716962"><ele>148.20000000000002</ele><time>2026-05-02T07:01:44.981Z</time></trkpt><trkpt lat="44.04205040307947" lon="10.14938712606091"><ele>150.8</ele><time>2026-05-02T07:01:45.981Z</time></trkpt><trkpt lat="44.041979234849265" lon="10.149296375660189"><ele>153.4</ele><time>2026-05-02T07:01:46.981Z</time></trkpt><trkpt lat="44.041907716766815" lon="10.149208033055316"><ele>156.0</ele><time>2026-05-02T07:01:47.981Z</time></trkpt><trkpt lat="44.04183206856139" lon="10.14912754186806"><ele>156.0</ele><time>2026-05-02T07:01:48.981Z</time></trkpt><trkpt lat="44.041745722325985" lon="10.149075944302464"><ele>156.0</ele><time>2026-05-02T07:01:49.981Z</time></trkpt><trkpt lat="44.04165630010148" lon="10.149043181351475"><ele>156.0</ele><time>2026-05-02T07:01:50.981Z</time></trkpt><trkpt lat="44.041553948413124" lon="10.14900526800377"><ele>156.0</ele><time>2026-05-02T07:01:51.981Z</time></trkpt><trkpt lat="44.04145630434478" lon="10.14895818600422"><ele>156.0</ele><time>2026-05-02T07:01:52.981Z</time></trkpt><trkpt lat="44.04136119328845" lon="10.148904150251177"><ele>154.33333333333334</ele><time>2026-05-02T07:01:53.981Z</time></trkpt><trkpt lat="44.04127466740863" lon="10.14884451713405"><ele>152.66666666666666</ele><time>2026-05-02T07:01:54.981Z</time></trkpt><trkpt lat="44.041188086174024" lon="10.148776288037398"><ele>151.0</ele><time>2026-05-02T07:01:55.981Z</time></trkpt><trkpt lat="44.04111327628994" lon="10.14870655555462"><ele>149.33333333333331</ele><time>2026-05-02T07:01:56.981Z</time></trkpt><trkpt lat="44.04104046745785" lon="10.148648912674078"><ele>147.66666666666666</ele><time>2026-05-02T07:01:57.981Z</time></trkpt><trkpt lat="44.04096338280827" lon="10.148629098187236"><ele>146.0</ele><time>2026-05-02T07:01:58.981Z</time></trkpt><trkpt lat="44.040879472449085" lon="10.148632988646346"><ele>143.6</ele><time>2026-05-02T07:01:59.981Z</time></trkpt><trkpt lat="44.04079303058379" lon="10.148661517249694"><ele>141.2</ele><time>2026-05-02T07:02:00.981Z</time></trkpt><trkpt lat="44.040709857242234" lon="10.148634116194389"><ele>138.8</ele><time>2026-05-02T07:02:01.981Z</time></trkpt><trkpt lat="44.04059556836341" lon="10.148664823477523"><ele>136.4</ele><time>2026-05-02T07:02:03.981Z</time></trkpt><trkpt lat="44.04048346675903" lon="10.14869494320302"><ele>134.0</ele><time>2026-05-02T07:02:05.981Z</time></trkpt><trkpt lat="44.040449032321916" lon="10.148873436631549"><ele>134.0</ele><time>2026-05-02T07:02:06.98Z</time></trkpt><trkpt lat="44.040396013419965" lon="10.148947401474663"><ele>134.0</ele><time>2026-05-02T07:02:07.98Z</time></trkpt><trkpt lat="44.04032552158455" lon="10.149019699933069"><ele>134.0</ele><time>2026-05-02T07:02:08.98Z</time></trkpt><trkpt lat="44.04024071707706" lon="10.14905650346646"><ele>134.0</ele><time>2026-05-02T07:02:09.98Z</time></trkpt><trkpt lat="44.040150818719596" lon="10.149065565698537"><ele>134.0</ele><time>2026-05-02T07:02:10.978Z</time></trkpt><trkpt lat="44.04005977128374" lon="10.14902954972326"><ele>134.0</ele><time>2026-05-02T07:02:11.978Z</time></trkpt><trkpt lat="44.03995924342678" lon="10.149007716092575"><ele>134.4</ele><time>2026-05-02T07:02:12.978Z</time></trkpt><trkpt lat="44.039854448967255" lon="10.149011643687178"><ele>134.8</ele><time>2026-05-02T07:02:13.978Z</time></trkpt><trkpt lat="44.03974412580504" lon="10.14900873266129"><ele>135.2</ele><time>2026-05-02T07:02:14.978Z</time></trkpt><trkpt lat="44.03963518563363" lon="10.149024416798055"><ele>135.6</ele><time>2026-05-02T07:02:15.978Z</time></trkpt><trkpt lat="44.03952766234485" lon="10.149063988245073"><ele>136.0</ele><time>2026-05-02T07:02:16.977Z</time></trkpt><trkpt lat="44.03942219519122" lon="10.149126114637127"><ele>136.5</ele><time>2026-05-02T07:02:17.978Z</time></trkpt><trkpt lat="44.03931994068782" lon="10.149202966527508"><ele>137.0</ele><time>2026-05-02T07:02:18.978Z</time></trkpt><trkpt lat="44.03921404430706" lon="10.149286037669361"><ele>137.5</ele><time>2026-05-02T07:02:19.977Z</time></trkpt><trkpt lat="44.03910852900081" lon="10.149362004025587"><ele>138.0</ele><time>2026-05-02T07:02:20.978Z</time></trkpt><trkpt lat="44.03900092476018" lon="10.149434473455143"><ele>138.0</ele><time>2026-05-02T07:02:21.978Z</time></trkpt><trkpt lat="44.038902508585764" lon="10.14951121506236"><ele>138.0</ele><time>2026-05-02T07:02:22.978Z</time></trkpt><trkpt lat="44.038817222535656" lon="10.149596302717882"><ele>138.0</ele><time>2026-05-02T07:02:23.978Z</time></trkpt><trkpt lat="44.03875810582071" lon="10.149683621329924"><ele>138.0</ele><time>2026-05-02T07:02:24.978Z</time></trkpt><trkpt lat="44.03871678433767" lon="10.149791072790634"><ele>138.0</ele><time>2026-05-02T07:02:25.978Z</time></trkpt><trkpt lat="44.03869530675937" lon="10.149912947379608"><ele>142.20000000000002</ele><time>2026-05-02T07:02:26.978Z</time></trkpt><trkpt lat="44.03869434336911" lon="10.15006211546934"><ele>146.4</ele><time>2026-05-02T07:02:27.978Z</time></trkpt><trkpt lat="44.03871177753396" lon="10.150197712545149"><ele>150.60000000000002</ele><time>2026-05-02T07:02:28.978Z</time></trkpt><trkpt lat="44.03873327486818" lon="10.15033000164641"><ele>154.8</ele><time>2026-05-02T07:02:29.977Z</time></trkpt><trkpt lat="44.03876642238871" lon="10.150461644674154"><ele>159.0</ele><time>2026-05-02T07:02:30.977Z</time></trkpt><trkpt lat="44.03877845517654" lon="10.150598247239676"><ele>163.8</ele><time>2026-05-02T07:02:31.977Z</time></trkpt><trkpt lat="44.03876158532315" lon="10.150722046612909"><ele>168.60000000000002</ele><time>2026-05-02T07:02:32.977Z</time></trkpt><trkpt lat="44.03872315681502" lon="10.150834460203763"><ele>173.4</ele><time>2026-05-02T07:02:33.977Z</time></trkpt><trkpt lat="44.03866447167888" lon="10.150937803719517"><ele>178.20000000000002</ele><time>2026-05-02T07:02:34.977Z</time></trkpt><trkpt lat="44.038583001774555" lon="10.151008376638469"><ele>183.0</ele><time>2026-05-02T07:02:35.977Z</time></trkpt><trkpt lat="44.038491797177876" lon="10.151058912089093"><ele>183.0</ele><time>2026-05-02T07:02:36.977Z</time></trkpt><trkpt lat="44.038404993802615" lon="10.151094185747768"><ele>183.0</ele><time>2026-05-02T07:02:37.977Z</time></trkpt><trkpt lat="44.03830329724252" lon="10.151127820773048"><ele>183.0</ele><time>2026-05-02T07:02:38.977Z</time></trkpt><trkpt lat="44.038201151684135" lon="10.15115990813964"><ele>183.0</ele><time>2026-05-02T07:02:39.977Z</time></trkpt><trkpt lat="44.03810098566665" lon="10.151191478695809"><ele>183.0</ele><time>2026-05-02T07:02:40.977Z</time></trkpt><trkpt lat="44.03801221820659" lon="10.151216878195864"><ele>185.8</ele><time>2026-05-02T07:02:41.977Z</time></trkpt><trkpt lat="44.037918649969356" lon="10.151171886997515"><ele>188.60000000000002</ele><time>2026-05-02T07:02:42.977Z</time></trkpt><trkpt lat="44.037820684453266" lon="10.15112419457771"><ele>191.39999999999998</ele><time>2026-05-02T07:02:43.977Z</time></trkpt><trkpt lat="44.03774251974597" lon="10.151032318295787"><ele>194.2</ele><time>2026-05-02T07:02:44.977Z</time></trkpt><trkpt lat="44.03765112260846" lon="10.15098500502454"><ele>197.0</ele><time>2026-05-02T07:02:45.977Z</time></trkpt><trkpt lat="44.03755375611672" lon="10.150922175324157"><ele>196.8</ele><time>2026-05-02T07:02:46.977Z</time></trkpt><trkpt lat="44.03746189032348" lon="10.15086737049881"><ele>196.6</ele><time>2026-05-02T07:02:47.977Z</time></trkpt><trkpt lat="44.03737944878452" lon="10.15081128025518"><ele>196.4</ele><time>2026-05-02T07:02:48.977Z</time></trkpt><trkpt lat="44.037300363490886" lon="10.150757249596849"><ele>196.20000000000002</ele><time>2026-05-02T07:02:49.977Z</time></trkpt><trkpt lat="44.03723981300738" lon="10.150686080446485"><ele>196.0</ele><time>2026-05-02T07:02:50.977Z</time></trkpt><trkpt lat="44.037102973656935" lon="10.150482725854472"><ele>196.0</ele><time>2026-05-02T07:02:52.977Z</time></trkpt><trkpt lat="44.037068855902135" lon="10.150368007403538"><ele>196.0</ele><time>2026-05-02T07:02:53.977Z</time></trkpt><trkpt lat="44.037004338431835" lon="10.15022719734596"><ele>196.0</ele><time>2026-05-02T07:02:54.977Z</time></trkpt><trkpt lat="44.03695205766329" lon="10.15007628278732"><ele>196.0</ele><time>2026-05-02T07:02:55.977Z</time></trkpt><trkpt lat="44.03690071774112" lon="10.149966668884778"><ele>196.0</ele><time>2026-05-02T07:02:56.977Z</time></trkpt><trkpt lat="44.036822119993644" lon="10.14985657214297"><ele>190.4</ele><time>2026-05-02T07:02:57.977Z</time></trkpt><trkpt lat="44.03673398289012" lon="10.149788066753594"><ele>184.8</ele><time>2026-05-02T07:02:58.977Z</time></trkpt><trkpt lat="44.03663176662321" lon="10.14974433005344"><ele>179.20000000000002</ele><time>2026-05-02T07:02:59.977Z</time></trkpt><trkpt lat="44.036526931025044" lon="10.149718397759655"><ele>173.60000000000002</ele><time>2026-05-02T07:03:00.977Z</time></trkpt><trkpt lat="44.03643183847676" lon="10.149687295963632"><ele>168.0</ele><time>2026-05-02T07:03:01.977Z</time></trkpt><trkpt lat="44.03633011604501" lon="10.149679652742183"><ele>167.2</ele><time>2026-05-02T07:03:02.977Z</time></trkpt><trkpt lat="44.03621318798357" lon="10.149690700606605"><ele>166.4</ele><time>2026-05-02T07:03:03.977Z</time></trkpt><trkpt lat="44.03610106172609" lon="10.149719788003463"><ele>165.6</ele><time>2026-05-02T07:03:04.977Z</time></trkpt><trkpt lat="44.036011008283076" lon="10.149809682903822"><ele>164.79999999999998</ele><time>2026-05-02T07:03:05.977Z</time></trkpt><trkpt lat="44.03593643844224" lon="10.149911299687556"><ele>164.0</ele><time>2026-05-02T07:03:06.977Z</time></trkpt><trkpt lat="44.035906501251084" lon="10.150048606796688"><ele>168.6</ele><time>2026-05-02T07:03:07.977Z</time></trkpt><trkpt lat="44.035874062762865" lon="10.15017490006414"><ele>173.2</ele><time>2026-05-02T07:03:08.977Z</time></trkpt><trkpt lat="44.03586985080691" lon="10.150316895905707"><ele>177.79999999999998</ele><time>2026-05-02T07:03:09.977Z</time></trkpt><trkpt lat="44.03587925102667" lon="10.150454852229892"><ele>182.39999999999998</ele><time>2026-05-02T07:03:10.977Z</time></trkpt><trkpt lat="44.035873443329166" lon="10.150593993569961"><ele>187.0</ele><time>2026-05-02T07:03:11.977Z</time></trkpt><trkpt lat="44.035890361960575" lon="10.150732635893046"><ele>188.8</ele><time>2026-05-02T07:03:12.977Z</time></trkpt><trkpt lat="44.0359093692565" lon="10.150878042490616"><ele>190.6</ele><time>2026-05-02T07:03:13.977Z</time></trkpt><trkpt lat="44.03592929077538" lon="10.151030451751545"><ele>192.4</ele><time>2026-05-02T07:03:14.977Z</time></trkpt><trkpt lat="44.03594640319916" lon="10.151184202624927"><ele>194.20000000000002</ele><time>2026-05-02T07:03:15.977Z</time></trkpt><trkpt lat="44.035945689089225" lon="10.15133988254915"><ele>196.0</ele><time>2026-05-02T07:03:16.977Z</time></trkpt><trkpt lat="44.035919529663694" lon="10.151488931088561"><ele>198.20000000000002</ele><time>2026-05-02T07:03:17.977Z</time></trkpt><trkpt lat="44.035869342490486" lon="10.151620545651046"><ele>200.4</ele><time>2026-05-02T07:03:18.977Z</time></trkpt><trkpt lat="44.03580313804315" lon="10.151726711338974"><ele>202.6</ele><time>2026-05-02T07:03:19.977Z</time></trkpt><trkpt lat="44.03571779800067" lon="10.15178911730458"><ele>204.8</ele><time>2026-05-02T07:03:20.977Z</time></trkpt><trkpt lat="44.03562771420904" lon="10.151827832833838"><ele>207.0</ele><time>2026-05-02T07:03:21.977Z</time></trkpt><trkpt lat="44.035550769597485" lon="10.151848517897841"><ele>202.16666666666666</ele><time>2026-05-02T07:03:22.977Z</time></trkpt><trkpt lat="44.03548992243068" lon="10.151874238707329"><ele>197.33333333333334</ele><time>2026-05-02T07:03:23.977Z</time></trkpt><trkpt lat="44.03541442579702" lon="10.151957416115215"><ele>192.5</ele><time>2026-05-02T07:03:25.977Z</time></trkpt><trkpt lat="44.035440244602924" lon="10.152083076207484"><ele>187.66666666666669</ele><time>2026-05-02T07:03:27.977Z</time></trkpt><trkpt lat="44.03552908853367" lon="10.152112438627938"><ele>182.83333333333334</ele><time>2026-05-02T07:03:29.977Z</time></trkpt><trkpt lat="44.03560863096187" lon="10.152062491684228"><ele>178.0</ele><time>2026-05-02T07:03:30.977Z</time></trkpt><trkpt lat="44.03566615100256" lon="10.151995146702054"><ele>178.0</ele><time>2026-05-02T07:03:31.977Z</time></trkpt><trkpt lat="44.035725219093955" lon="10.151952491746885"><ele>178.0</ele><time>2026-05-02T07:03:32.977Z</time></trkpt><trkpt lat="44.03580800093395" lon="10.151909556042504"><ele>178.0</ele><time>2026-05-02T07:03:33.977Z</time></trkpt><trkpt lat="44.03588319744277" lon="10.15187992431808"><ele>178.0</ele><time>2026-05-02T07:03:34.977Z</time></trkpt><trkpt lat="44.03596177419396" lon="10.15183214430205"><ele>178.0</ele><time>2026-05-02T07:03:35.977Z</time></trkpt><trkpt lat="44.036036502156406" lon="10.151746454640145"><ele>178.0</ele><time>2026-05-02T07:03:36.977Z</time></trkpt><trkpt lat="44.03609170410701" lon="10.15165165894646"><ele>181.0</ele><time>2026-05-02T07:03:37.977Z</time></trkpt><trkpt lat="44.03614213002057" lon="10.151548315609416"><ele>184.0</ele><time>2026-05-02T07:03:38.977Z</time></trkpt><trkpt lat="44.03616554668586" lon="10.151428436151557"><ele>187.0</ele><time>2026-05-02T07:03:39.977Z</time></trkpt><trkpt lat="44.03618590640463" lon="10.151321728369343"><ele>190.0</ele><time>2026-05-02T07:03:40.977Z</time></trkpt><trkpt lat="44.03619080074874" lon="10.151206525288927"><ele>192.99999999999997</ele><time>2026-05-02T07:03:41.977Z</time></trkpt><trkpt lat="44.03619141186451" lon="10.151082591472711"><ele>196.0</ele><time>2026-05-02T07:03:42.977Z</time></trkpt><trkpt lat="44.036182477368286" lon="10.150956033225102"><ele>195.99999999999997</ele><time>2026-05-02T07:03:43.977Z</time></trkpt><trkpt lat="44.036174421820114" lon="10.150833115573496"><ele>196.0</ele><time>2026-05-02T07:03:44.977Z</time></trkpt><trkpt lat="44.036169909548065" lon="10.150722422250206"><ele>196.0</ele><time>2026-05-02T07:03:45.977Z</time></trkpt><trkpt lat="44.03616979888157" lon="10.150624332999799"><ele>196.0</ele><time>2026-05-02T07:03:46.977Z</time></trkpt><trkpt lat="44.03616919382132" lon="10.150528450309187"><ele>195.99999999999997</ele><time>2026-05-02T07:03:47.977Z</time></trkpt><trkpt lat="44.03620762600504" lon="10.150377791454897"><ele>196.0</ele><time>2026-05-02T07:03:49.977Z</time></trkpt><trkpt lat="44.036298749611205" lon="10.150291285911623"><ele>194.20000000000002</ele><time>2026-05-02T07:03:51.977Z</time></trkpt><trkpt lat="44.0364082481339" lon="10.150306465564274"><ele>192.4</ele><time>2026-05-02T07:03:53.977Z</time></trkpt><trkpt lat="44.03649991258512" lon="10.150395563821327"><ele>190.6</ele><time>2026-05-02T07:03:55.977Z</time></trkpt><trkpt lat="44.03653149102942" lon="10.150472067944493"><ele>188.8</ele><time>2026-05-02T07:03:56.977Z</time></trkpt><trkpt lat="44.03655450476897" lon="10.150576120797783"><ele>187.0</ele><time>2026-05-02T07:03:57.977Z</time></trkpt><trkpt lat="44.036571454927994" lon="10.150698896951596"><ele>188.5</ele><time>2026-05-02T07:03:58.977Z</time></trkpt><trkpt lat="44.036593140630096" lon="10.150823108657825"><ele>190.0</ele><time>2026-05-02T07:03:59.977Z</time></trkpt><trkpt lat="44.03662396088994" lon="10.150937412294507"><ele>191.5</ele><time>2026-05-02T07:04:00.977Z</time></trkpt><trkpt lat="44.03667927213322" lon="10.151025346871144"><ele>193.0</ele><time>2026-05-02T07:04:01.977Z</time></trkpt><trkpt lat="44.03672164616818" lon="10.15111909057337"><ele>194.49999999999997</ele><time>2026-05-02T07:04:02.977Z</time></trkpt><trkpt lat="44.03677022822028" lon="10.151207164268348"><ele>196.0</ele><time>2026-05-02T07:04:03.977Z</time></trkpt><trkpt lat="44.036816203937924" lon="10.151284835188221"><ele>200.66666666666666</ele><time>2026-05-02T07:04:04.977Z</time></trkpt><trkpt lat="44.03686330312859" lon="10.151362099934703"><ele>205.33333333333331</ele><time>2026-05-02T07:04:05.977Z</time></trkpt><trkpt lat="44.03691415349164" lon="10.151421881168172"><ele>210.0</ele><time>2026-05-02T07:04:06.977Z</time></trkpt><trkpt lat="44.03696981503045" lon="10.15147640633183"><ele>214.66666666666669</ele><time>2026-05-02T07:04:07.977Z</time></trkpt><trkpt lat="44.03708231685149" lon="10.151570502197673"><ele>219.33333333333334</ele><time>2026-05-02T07:04:09.977Z</time></trkpt><trkpt lat="44.03714417188069" lon="10.151609555868845"><ele>224.0</ele><time>2026-05-02T07:04:10.977Z</time></trkpt><trkpt lat="44.037203278244206" lon="10.151659008099447"><ele>226.66666666666669</ele><time>2026-05-02T07:04:11.977Z</time></trkpt><trkpt lat="44.03723393833484" lon="10.151744933328906"><ele>229.33333333333334</ele><time>2026-05-02T07:04:12.977Z</time></trkpt><trkpt lat="44.03726635075708" lon="10.151832207673866"><ele>232.0</ele><time>2026-05-02T07:04:13.977Z</time></trkpt><trkpt lat="44.03729790333666" lon="10.151928195250811"><ele>234.66666666666669</ele><time>2026-05-02T07:04:14.977Z</time></trkpt><trkpt lat="44.03732861637721" lon="10.152044903318133"><ele>237.33333333333334</ele><time>2026-05-02T07:04:15.977Z</time></trkpt><trkpt lat="44.037359595151905" lon="10.152164034294794"><ele>240.0</ele><time>2026-05-02T07:04:16.975Z</time></trkpt><trkpt lat="44.03738798329365" lon="10.152273080786092"><ele>240.0</ele><time>2026-05-02T07:04:17.975Z</time></trkpt><trkpt lat="44.03742700056536" lon="10.152369029638221"><ele>240.0</ele><time>2026-05-02T07:04:18.975Z</time></trkpt><trkpt lat="44.037476738374785" lon="10.152464297690155"><ele>240.0</ele><time>2026-05-02T07:04:19.975Z</time></trkpt><trkpt lat="44.037544735127845" lon="10.152541294152673"><ele>240.0</ele><time>2026-05-02T07:04:20.975Z</time></trkpt><trkpt lat="44.03761476804132" lon="10.15259510873668"><ele>240.0</ele><time>2026-05-02T07:04:21.975Z</time></trkpt><trkpt lat="44.03773918757167" lon="10.15261463819084"><ele>241.6</ele><time>2026-05-02T07:04:23.974Z</time></trkpt><trkpt lat="44.037862974270126" lon="10.152580446092733"><ele>243.2</ele><time>2026-05-02T07:04:25.975Z</time></trkpt><trkpt lat="44.037945478742905" lon="10.152545102580481"><ele>244.8</ele><time>2026-05-02T07:04:26.974Z</time></trkpt><trkpt lat="44.03802699737653" lon="10.152501240775969"><ele>246.4</ele><time>2026-05-02T07:04:27.974Z</time></trkpt><trkpt lat="44.03810370268241" lon="10.152448615045905"><ele>248.0</ele><time>2026-05-02T07:04:28.974Z</time></trkpt><trkpt lat="44.03817186058731" lon="10.15239994438244"><ele>247.33333333333334</ele><time>2026-05-02T07:04:29.975Z</time></trkpt><trkpt lat="44.038229182026484" lon="10.152360568933805"><ele>246.66666666666669</ele><time>2026-05-02T07:04:30.975Z</time></trkpt><trkpt lat="44.03828698505295" lon="10.152321696958458"><ele>246.0</ele><time>2026-05-02T07:04:31.975Z</time></trkpt><trkpt lat="44.03839337813591" lon="10.152262424793129"><ele>245.33333333333331</ele><time>2026-05-02T07:04:33.975Z</time></trkpt><trkpt lat="44.038505762962956" lon="10.152329970480494"><ele>244.66666666666666</ele><time>2026-05-02T07:04:35.975Z</time></trkpt><trkpt lat="44.038581300500205" lon="10.152378900202956"><ele>244.0</ele><time>2026-05-02T07:04:36.975Z</time></trkpt><trkpt lat="44.03864391151815" lon="10.152439471386819"><ele>243.99999999999997</ele><time>2026-05-02T07:04:37.975Z</time></trkpt><trkpt lat="44.038685272644265" lon="10.152520473130666"><ele>244.0</ele><time>2026-05-02T07:04:38.975Z</time></trkpt><trkpt lat="44.038704013298315" lon="10.152605702208461"><ele>244.0</ele><time>2026-05-02T07:04:39.975Z</time></trkpt><trkpt lat="44.03872478867612" lon="10.152715939488628"><ele>244.0</ele><time>2026-05-02T07:04:40.975Z</time></trkpt><trkpt lat="44.03874481198112" lon="10.152820055383325"><ele>243.99999999999997</ele><time>2026-05-02T07:04:41.975Z</time></trkpt><trkpt lat="44.03876775768774" lon="10.152926000146499"><ele>244.0</ele><time>2026-05-02T07:04:42.975Z</time></trkpt><trkpt lat="44.03878766333219" lon="10.153032470685803"><ele>243.99999999999997</ele><time>2026-05-02T07:04:43.975Z</time></trkpt><trkpt lat="44.038801913387786" lon="10.153142862049195"><ele>244.0</ele><time>2026-05-02T07:04:44.975Z</time></trkpt><trkpt lat="44.03882159039302" lon="10.153246530516675"><ele>244.0</ele><time>2026-05-02T07:04:45.975Z</time></trkpt><trkpt lat="44.03884546809938" lon="10.153338050776629"><ele>244.0</ele><time>2026-05-02T07:04:46.975Z</time></trkpt><trkpt lat="44.038856356440576" lon="10.15349140717914"><ele>243.99999999999997</ele><time>2026-05-02T07:04:48.975Z</time></trkpt><trkpt lat="44.0389113919637" lon="10.153599916011343"><ele>244.0</ele><time>2026-05-02T07:04:50.975Z</time></trkpt><trkpt lat="44.03901603094136" lon="10.153662848977127"><ele>246.33333333333331</ele><time>2026-05-02T07:04:52.975Z</time></trkpt><trkpt lat="44.0391283968257" lon="10.153635488032641"><ele>248.66666666666666</ele><time>2026-05-02T07:04:54.975Z</time></trkpt><trkpt lat="44.039226198389755" lon="10.153609096494701"><ele>251.0</ele><time>2026-05-02T07:04:56.975Z</time></trkpt><trkpt lat="44.03930448258197" lon="10.153587971073817"><ele>253.33333333333331</ele><time>2026-05-02T07:04:58.975Z</time></trkpt><trkpt lat="44.039363882446885" lon="10.153539744258081"><ele>255.66666666666666</ele><time>2026-05-02T07:04:59.975Z</time></trkpt><trkpt lat="44.0394112651291" lon="10.153456510035609"><ele>258.0</ele><time>2026-05-02T07:05:00.975Z</time></trkpt><trkpt lat="44.039409482192646" lon="10.153346965962164"><ele>258.0</ele><time>2026-05-02T07:05:01.975Z</time></trkpt><trkpt lat="44.039438025788044" lon="10.153266107991486"><ele>258.0</ele><time>2026-05-02T07:05:02.975Z</time></trkpt><trkpt lat="44.03946743020881" lon="10.153184551609801"><ele>258.0</ele><time>2026-05-02T07:05:03.975Z</time></trkpt><trkpt lat="44.03957322986982" lon="10.153140317468324"><ele>258.0</ele><time>2026-05-02T07:05:05.975Z</time></trkpt><trkpt lat="44.039715110711285" lon="10.153224618800078"><ele>258.0</ele><time>2026-05-02T07:05:07.975Z</time></trkpt><trkpt lat="44.03975963568788" lon="10.153297999183483"><ele>258.0</ele><time>2026-05-02T07:05:08.975Z</time></trkpt><trkpt lat="44.03977707238262" lon="10.153385141436774"><ele>258.0</ele><time>2026-05-02T07:05:09.975Z</time></trkpt><trkpt lat="44.03977415696197" lon="10.15347297228489"><ele>258.0</ele><time>2026-05-02T07:05:10.975Z</time></trkpt><trkpt lat="44.03970162725867" lon="10.153574515681237"><ele>258.0</ele><time>2026-05-02T07:05:12.975Z</time></trkpt><trkpt lat="44.03961133201785" lon="10.153667027091037"><ele>258.0</ele><time>2026-05-02T07:05:14.975Z</time></trkpt><trkpt lat="44.03949739632519" lon="10.153730386285451"><ele>258.0</ele><time>2026-05-02T07:05:16.975Z</time></trkpt><trkpt lat="44.039431989636" lon="10.153749253107746"><ele>258.0</ele><time>2026-05-02T07:05:17.975Z</time></trkpt><trkpt lat="44.039356719054645" lon="10.153765069119938"><ele>258.0</ele><time>2026-05-02T07:05:18.975Z</time></trkpt><trkpt lat="44.0392672383567" lon="10.153777386863094"><ele>258.0</ele><time>2026-05-02T07:05:19.975Z</time></trkpt><trkpt lat="44.03918172976412" lon="10.153837753259848"><ele>258.0</ele><time>2026-05-02T07:05:20.975Z</time></trkpt><trkpt lat="44.03909712222007" lon="10.153873450983525"><ele>258.0</ele><time>2026-05-02T07:05:21.975Z</time></trkpt><trkpt lat="44.03901794133651" lon="10.153906888148317"><ele>259.2</ele><time>2026-05-02T07:05:22.975Z</time></trkpt><trkpt lat="44.038937513486026" lon="10.153929606872662"><ele>260.4</ele><time>2026-05-02T07:05:23.975Z</time></trkpt><trkpt lat="44.03884135580402" lon="10.15392546765044"><ele>261.59999999999997</ele><time>2026-05-02T07:05:24.975Z</time></trkpt><trkpt lat="44.038748560726916" lon="10.153906812396437"><ele>262.8</ele><time>2026-05-02T07:05:25.975Z</time></trkpt><trkpt lat="44.03865239339878" lon="10.153869188531901"><ele>264.0</ele><time>2026-05-02T07:05:26.975Z</time></trkpt><trkpt lat="44.03855630759724" lon="10.153826171137515"><ele>264.0</ele><time>2026-05-02T07:05:27.975Z</time></trkpt><trkpt lat="44.03846030330597" lon="10.153789087779078"><ele>264.0</ele><time>2026-05-02T07:05:28.975Z</time></trkpt><trkpt lat="44.03836244934699" lon="10.153741254043222"><ele>264.0</ele><time>2026-05-02T07:05:29.975Z</time></trkpt><trkpt lat="44.03826040159226" lon="10.153721172179681"><ele>264.0</ele><time>2026-05-02T07:05:30.975Z</time></trkpt><trkpt lat="44.038152784375534" lon="10.153699910990571"><ele>264.0</ele><time>2026-05-02T07:05:31.975Z</time></trkpt><trkpt lat="44.03804705557348" lon="10.153677326563631"><ele>264.6666666666667</ele><time>2026-05-02T07:05:32.975Z</time></trkpt><trkpt lat="44.037949877259166" lon="10.153656568572881"><ele>265.3333333333333</ele><time>2026-05-02T07:05:33.975Z</time></trkpt><trkpt lat="44.037852134225254" lon="10.153635689971507"><ele>266.0</ele><time>2026-05-02T07:05:34.975Z</time></trkpt><trkpt lat="44.037760753916956" lon="10.15361634370077"><ele>266.66666666666663</ele><time>2026-05-02T07:05:35.975Z</time></trkpt><trkpt lat="44.037677796843525" lon="10.153621536615574"><ele>267.3333333333333</ele><time>2026-05-02T07:05:36.975Z</time></trkpt><trkpt lat="44.03761136788849" lon="10.153587932587211"><ele>268.0</ele><time>2026-05-02T07:05:37.975Z</time></trkpt><trkpt lat="44.037517220180355" lon="10.153633150342044"><ele>268.0</ele><time>2026-05-02T07:05:39.975Z</time></trkpt><trkpt lat="44.03749446083634" lon="10.153770504392044"><ele>268.0</ele><time>2026-05-02T07:05:41.975Z</time></trkpt><trkpt lat="44.03757225952466" lon="10.153867305601882"><ele>268.0</ele><time>2026-05-02T07:05:43.975Z</time></trkpt><trkpt lat="44.0376319516546" lon="10.153924873697866"><ele>268.0</ele><time>2026-05-02T07:05:44.975Z</time></trkpt><trkpt lat="44.037695787385196" lon="10.153949854658824"><ele>268.0</ele><time>2026-05-02T07:05:45.975Z</time></trkpt><trkpt lat="44.03777835462598" lon="10.15397922246637"><ele>268.0</ele><time>2026-05-02T07:05:46.975Z</time></trkpt><trkpt lat="44.037896769206284" lon="10.154001844264982"><ele>271.4</ele><time>2026-05-02T07:05:47.975Z</time></trkpt><trkpt lat="44.037994878055464" lon="10.154076276955374"><ele>274.8</ele><time>2026-05-02T07:05:48.975Z</time></trkpt><trkpt lat="44.03808830126362" lon="10.154115548894001"><ele>278.2</ele><time>2026-05-02T07:05:49.975Z</time></trkpt><trkpt lat="44.03817479615523" lon="10.154143783269724"><ele>281.6</ele><time>2026-05-02T07:05:50.975Z</time></trkpt><trkpt lat="44.03827230902926" lon="10.154178983196694"><ele>285.0</ele><time>2026-05-02T07:05:51.975Z</time></trkpt><trkpt lat="44.03836583155812" lon="10.154228807658535"><ele>285.2</ele><time>2026-05-02T07:05:52.975Z</time></trkpt><trkpt lat="44.03844782308592" lon="10.154264560546979"><ele>285.4</ele><time>2026-05-02T07:05:53.975Z</time></trkpt><trkpt lat="44.03853375976169" lon="10.154296879557473"><ele>285.6</ele><time>2026-05-02T07:05:54.975Z</time></trkpt><trkpt lat="44.03862846309867" lon="10.15433957434823"><ele>285.8</ele><time>2026-05-02T07:05:55.975Z</time></trkpt><trkpt lat="44.038718703485046" lon="10.154391137440031"><ele>286.0</ele><time>2026-05-02T07:05:56.975Z</time></trkpt><trkpt lat="44.03881657047441" lon="10.15445650401244"><ele>286.0</ele><time>2026-05-02T07:05:57.975Z</time></trkpt><trkpt lat="44.03891189433685" lon="10.154526568036658"><ele>286.0</ele><time>2026-05-02T07:05:58.975Z</time></trkpt><trkpt lat="44.03899908841974" lon="10.15458648563123"><ele>286.0</ele><time>2026-05-02T07:05:59.975Z</time></trkpt><trkpt lat="44.039074964672686" lon="10.154632875756402"><ele>286.0</ele><time>2026-05-02T07:06:00.975Z</time></trkpt><trkpt lat="44.03916129838617" lon="10.154677661670892"><ele>286.0</ele><time>2026-05-02T07:06:01.975Z</time></trkpt><trkpt lat="44.03924426853304" lon="10.154729601944624"><ele>284.66666666666663</ele><time>2026-05-02T07:06:02.975Z</time></trkpt><trkpt lat="44.03932749693695" lon="10.154774996217535"><ele>283.3333333333333</ele><time>2026-05-02T07:06:03.975Z</time></trkpt><trkpt lat="44.03941502480391" lon="10.154795832925664"><ele>282.0</ele><time>2026-05-02T07:06:04.975Z</time></trkpt><trkpt lat="44.039493473216666" lon="10.154778407611158"><ele>280.6666666666667</ele><time>2026-05-02T07:06:05.975Z</time></trkpt><trkpt lat="44.0395612394532" lon="10.154742220341634"><ele>279.33333333333337</ele><time>2026-05-02T07:06:06.975Z</time></trkpt><trkpt lat="44.03963681215266" lon="10.154698486903252"><ele>278.0</ele><time>2026-05-02T07:06:07.975Z</time></trkpt><trkpt lat="44.03970797087969" lon="10.154683302157629"><ele>278.0</ele><time>2026-05-02T07:06:08.975Z</time></trkpt><trkpt lat="44.03978220402717" lon="10.154688889045376"><ele>278.0</ele><time>2026-05-02T07:06:09.975Z</time></trkpt><trkpt lat="44.03985124991722" lon="10.15472301284965"><ele>278.0</ele><time>2026-05-02T07:06:10.975Z</time></trkpt><trkpt lat="44.03994169778528" lon="10.154790973474405"><ele>278.0</ele><time>2026-05-02T07:06:11.975Z</time></trkpt><trkpt lat="44.040034057954585" lon="10.154855093866642"><ele>278.0</ele><time>2026-05-02T07:06:12.975Z</time></trkpt><trkpt lat="44.04012485220155" lon="10.154924194313551"><ele>281.5</ele><time>2026-05-02T07:06:13.975Z</time></trkpt><trkpt lat="44.040202274681285" lon="10.155001785419277"><ele>285.0</ele><time>2026-05-02T07:06:14.975Z</time></trkpt><trkpt lat="44.04028061469814" lon="10.155078549036082"><ele>288.5</ele><time>2026-05-02T07:06:15.975Z</time></trkpt><trkpt lat="44.040354955688805" lon="10.155160661994538"><ele>292.0</ele><time>2026-05-02T07:06:16.975Z</time></trkpt><trkpt lat="44.04041956149605" lon="10.15522910089407"><ele>295.5</ele><time>2026-05-02T07:06:17.975Z</time></trkpt><trkpt lat="44.04047039966018" lon="10.155284366126866"><ele>299.0</ele><time>2026-05-02T07:06:18.975Z</time></trkpt><trkpt lat="44.040540867347126" lon="10.15535950863005"><ele>299.0</ele><time>2026-05-02T07:06:20.975Z</time></trkpt><trkpt lat="44.0405931426158" lon="10.15543418134635"><ele>299.0</ele><time>2026-05-02T07:06:25.972Z</time></trkpt><trkpt lat="44.040654116064694" lon="10.155504927713592"><ele>299.0</ele><time>2026-05-02T07:06:28.973Z</time></trkpt><trkpt lat="44.0407084624928" lon="10.155567669141325"><ele>299.0</ele><time>2026-05-02T07:06:31.973Z</time></trkpt><trkpt lat="44.04074459590816" lon="10.15564038627024"><ele>299.0</ele><time>2026-05-02T07:06:33.972Z</time></trkpt><trkpt lat="44.040803328884984" lon="10.155718960556705"><ele>299.0</ele><time>2026-05-02T07:06:36.972Z</time></trkpt><trkpt lat="44.04087320688594" lon="10.15572380729715"><ele>299.0</ele><time>2026-05-02T07:06:40.972Z</time></trkpt><trkpt lat="44.04085380241281" lon="10.155640301267422"><ele>299.0</ele><time>2026-05-02T07:07:21.972Z</time></trkpt><trkpt lat="44.040850920929564" lon="10.155544482537547"><ele>299.0</ele><time>2026-05-02T07:07:29.972Z</time></trkpt><trkpt lat="44.04080831524493" lon="10.155464936440081"><ele>299.0</ele><time>2026-05-02T07:07:33.972Z</time></trkpt><trkpt lat="44.040778231886286" lon="10.155375960246964"><ele>299.0</ele><time>2026-05-02T07:07:37.972Z</time></trkpt><trkpt lat="44.04074474757607" lon="10.155299576860234"><ele>299.0</ele><time>2026-05-02T07:07:42.972Z</time></trkpt><trkpt lat="44.04073377112082" lon="10.155202282937074"><ele>299.0</ele><time>2026-05-02T07:07:48.972Z</time></trkpt><trkpt lat="44.040749974993815" lon="10.155304340248337"><ele>299.0</ele><time>2026-05-02T07:09:44.97Z</time></trkpt><trkpt lat="44.04077417280071" lon="10.155400966944285"><ele>299.5</ele><time>2026-05-02T07:09:49.97Z</time></trkpt><trkpt lat="44.04080403723326" lon="10.155480814682182"><ele>300.0</ele><time>2026-05-02T07:09:53.97Z</time></trkpt><trkpt lat="44.040826944427124" lon="10.155569220751993"><ele>300.5</ele><time>2026-05-02T07:09:59.97Z</time></trkpt><trkpt lat="44.04081842728873" lon="10.155670435955576"><ele>301.0</ele><time>2026-05-02T07:10:05.97Z</time></trkpt><trkpt lat="44.04080819959445" lon="10.155769618203554"><ele>301.5</ele><time>2026-05-02T07:10:50.968Z</time></trkpt><trkpt lat="44.040754738870355" lon="10.155882051789439"><ele>302.0</ele><time>2026-05-02T07:11:03.968Z</time></trkpt><trkpt lat="44.04083762697262" lon="10.155837007887417"><ele>301.5714285714286</ele><time>2026-05-02T07:11:45.968Z</time></trkpt><trkpt lat="44.040793542424005" lon="10.155772948125383"><ele>301.14285714285717</ele><time>2026-05-02T07:11:50.968Z</time></trkpt><trkpt lat="44.04080688057779" lon="10.15568574802209"><ele>300.7142857142857</ele><time>2026-05-02T07:11:53.968Z</time></trkpt><trkpt lat="44.04082239013732" lon="10.15557950268723"><ele>300.28571428571433</ele><time>2026-05-02T07:11:57.968Z</time></trkpt><trkpt lat="44.04081581141766" lon="10.155487423982843"><ele>299.8571428571429</ele><time>2026-05-02T07:12:01.968Z</time></trkpt><trkpt lat="44.040786161901984" lon="10.155407328503737"><ele>299.42857142857144</ele><time>2026-05-02T07:12:05.968Z</time></trkpt><trkpt lat="44.040749800010516" lon="10.155308872460827"><ele>299.0</ele><time>2026-05-02T07:12:10.968Z</time></trkpt><trkpt lat="44.04075495297255" lon="10.15521973206932"><ele>299.0</ele><time>2026-05-02T07:12:16.968Z</time></trkpt><trkpt lat="44.04072802041196" lon="10.15530260766611"><ele>299.0</ele><time>2026-05-02T07:16:29.964Z</time></trkpt><trkpt lat="44.040747864925144" lon="10.155388068111245"><ele>299.0</ele><time>2026-05-02T07:16:36.964Z</time></trkpt><trkpt lat="44.04078349248975" lon="10.155462249594008"><ele>299.0</ele><time>2026-05-02T07:16:41.964Z</time></trkpt><trkpt lat="44.04081843178372" lon="10.155539407819631"><ele>299.0</ele><time>2026-05-02T07:16:48.964Z</time></trkpt><trkpt lat="44.04086962298819" lon="10.155607068925402"><ele>299.0</ele><time>2026-05-02T07:16:58.962Z</time></trkpt><trkpt lat="44.040845278139535" lon="10.155698266788908"><ele>299.0</ele><time>2026-05-02T07:17:06.963Z</time></trkpt><trkpt lat="44.04091343116895" lon="10.155698245993365"><ele>299.42857142857144</ele><time>2026-05-02T07:17:21.963Z</time></trkpt><trkpt lat="44.04095294764098" lon="10.15561815437905"><ele>299.8571428571429</ele><time>2026-05-02T07:17:28.963Z</time></trkpt><trkpt lat="44.04101461329312" lon="10.155641584541824"><ele>300.28571428571433</ele><time>2026-05-02T07:18:01.963Z</time></trkpt><trkpt lat="44.040975327839384" lon="10.155721189985648"><ele>300.7142857142857</ele><time>2026-05-02T07:18:56.969Z</time></trkpt><trkpt lat="44.04103367596936" lon="10.155673728048956"><ele>301.14285714285717</ele><time>2026-05-02T07:19:03.968Z</time></trkpt><trkpt lat="44.04109280367706" lon="10.15562838799621"><ele>301.5714285714286</ele><time>2026-05-02T07:19:09.968Z</time></trkpt><trkpt lat="44.04115187323955" lon="10.155593107965284"><ele>302.0</ele><time>2026-05-02T07:19:14.968Z</time></trkpt><trkpt lat="44.041088384501606" lon="10.155609526537017"><ele>302.00000000000006</ele><time>2026-05-02T07:19:32.968Z</time></trkpt><trkpt lat="44.04102772916309" lon="10.1556396443765"><ele>302.0</ele><time>2026-05-02T07:19:39.968Z</time></trkpt><trkpt lat="44.04097717974627" lon="10.155693882418577"><ele>302.0</ele><time>2026-05-02T07:19:47.968Z</time></trkpt><trkpt lat="44.040920409037675" lon="10.15573843091008"><ele>302.0</ele><time>2026-05-02T07:19:54.968Z</time></trkpt><trkpt lat="44.04093100583369" lon="10.155632627041873"><ele>302.0</ele><time>2026-05-02T07:20:56.968Z</time></trkpt><trkpt lat="44.041004382036014" lon="10.15564770999386"><ele>302.00000000000006</ele><time>2026-05-02T07:21:46.967Z</time></trkpt><trkpt lat="44.04096300040068" lon="10.155736950235317"><ele>302.0</ele><time>2026-05-02T07:22:07.967Z</time></trkpt><trkpt lat="44.04089977105101" lon="10.155778314433324"><ele>302.0</ele><time>2026-05-02T07:22:11.967Z</time></trkpt><trkpt lat="44.04090287831818" lon="10.155867733239338"><ele>302.0</ele><time>2026-05-02T07:22:14.967Z</time></trkpt><trkpt lat="44.04093725716169" lon="10.155947736452807"><ele>302.0</ele><time>2026-05-02T07:22:16.967Z</time></trkpt><trkpt lat="44.04098523907772" lon="10.15604809123693"><ele>302.0</ele><time>2026-05-02T07:22:18.967Z</time></trkpt><trkpt lat="44.041032751069736" lon="10.156124886843408"><ele>302.0</ele><time>2026-05-02T07:22:20.967Z</time></trkpt><trkpt lat="44.041082690853486" lon="10.156233834702828"><ele>302.0</ele><time>2026-05-02T07:22:22.967Z</time></trkpt><trkpt lat="44.041153888283915" lon="10.156358941701006"><ele>302.00000000000006</ele><time>2026-05-02T07:22:24.967Z</time></trkpt><trkpt lat="44.04119434533451" lon="10.156432046100187"><ele>302.0</ele><time>2026-05-02T07:22:25.967Z</time></trkpt><trkpt lat="44.04123513221271" lon="10.156505746562754"><ele>302.0</ele><time>2026-05-02T07:22:26.967Z</time></trkpt><trkpt lat="44.04127855508527" lon="10.156584210103574"><ele>302.0</ele><time>2026-05-02T07:22:27.967Z</time></trkpt><trkpt lat="44.0413315150301" lon="10.156642730669686"><ele>302.0</ele><time>2026-05-02T07:22:28.967Z</time></trkpt><trkpt lat="44.041365021950675" lon="10.156736912241156"><ele>302.00000000000006</ele><time>2026-05-02T07:22:29.967Z</time></trkpt><trkpt lat="44.041407259554674" lon="10.156813041291196"><ele>302.0</ele><time>2026-05-02T07:22:30.967Z</time></trkpt><trkpt lat="44.04145522247809" lon="10.156880309549402"><ele>302.00000000000006</ele><time>2026-05-02T07:22:31.967Z</time></trkpt><trkpt lat="44.04149581547582" lon="10.156950521025257"><ele>302.0</ele><time>2026-05-02T07:22:32.967Z</time></trkpt><trkpt lat="44.041540450064886" lon="10.15702213625762"><ele>302.0</ele><time>2026-05-02T07:22:33.967Z</time></trkpt><trkpt lat="44.04159776569179" lon="10.15708019122506"><ele>302.0</ele><time>2026-05-02T07:22:34.967Z</time></trkpt><trkpt lat="44.04165769930675" lon="10.15715175602511"><ele>302.0</ele><time>2026-05-02T07:22:35.967Z</time></trkpt><trkpt lat="44.04173276932089" lon="10.157197333928377"><ele>302.00000000000006</ele><time>2026-05-02T07:22:36.967Z</time></trkpt><trkpt lat="44.041811703491256" lon="10.157239128619448"><ele>302.0</ele><time>2026-05-02T07:22:37.967Z</time></trkpt><trkpt lat="44.04189235945493" lon="10.157277623521487"><ele>302.0</ele><time>2026-05-02T07:22:38.967Z</time></trkpt><trkpt lat="44.04197551540474" lon="10.157336542343803"><ele>302.0</ele><time>2026-05-02T07:22:39.967Z</time></trkpt><trkpt lat="44.04206037653548" lon="10.157390699251568"><ele>302.0</ele><time>2026-05-02T07:22:40.967Z</time></trkpt><trkpt lat="44.042145367758344" lon="10.157452290858016"><ele>302.0</ele><time>2026-05-02T07:22:41.967Z</time></trkpt><trkpt lat="44.0422364668969" lon="10.157496836126638"><ele>302.0</ele><time>2026-05-02T07:22:42.967Z</time></trkpt><trkpt lat="44.04232346837146" lon="10.157517022697329"><ele>303.2</ele><time>2026-05-02T07:22:43.967Z</time></trkpt><trkpt lat="44.042412275263175" lon="10.157531372406671"><ele>304.4</ele><time>2026-05-02T07:22:44.967Z</time></trkpt><trkpt lat="44.04250527265235" lon="10.157541479348602"><ele>305.6</ele><time>2026-05-02T07:22:45.967Z</time></trkpt><trkpt lat="44.04260731418022" lon="10.15759935102709"><ele>306.8</ele><time>2026-05-02T07:22:46.967Z</time></trkpt><trkpt lat="44.04271325916887" lon="10.157615941027405"><ele>308.0</ele><time>2026-05-02T07:22:47.967Z</time></trkpt><trkpt lat="44.0428163240953" lon="10.157630170178962"><ele>308.0</ele><time>2026-05-02T07:22:48.967Z</time></trkpt><trkpt lat="44.04291972199748" lon="10.157641642061197"><ele>308.0</ele><time>2026-05-02T07:22:49.967Z</time></trkpt><trkpt lat="44.04301762735777" lon="10.157650534747075"><ele>308.0</ele><time>2026-05-02T07:22:50.967Z</time></trkpt><trkpt lat="44.04312865502491" lon="10.157658438045056"><ele>308.0</ele><time>2026-05-02T07:22:51.967Z</time></trkpt><trkpt lat="44.04323191710696" lon="10.157675737414706"><ele>308.0</ele><time>2026-05-02T07:22:52.967Z</time></trkpt><trkpt lat="44.04331934738727" lon="10.157704046194002"><ele>304.2</ele><time>2026-05-02T07:22:53.967Z</time></trkpt><trkpt lat="44.0434107104093" lon="10.157743010031322"><ele>300.4</ele><time>2026-05-02T07:22:54.967Z</time></trkpt><trkpt lat="44.043495524277574" lon="10.157811508175893"><ele>296.59999999999997</ele><time>2026-05-02T07:22:55.967Z</time></trkpt><trkpt lat="44.04357192434819" lon="10.157889636570571"><ele>292.8</ele><time>2026-05-02T07:22:56.967Z</time></trkpt><trkpt lat="44.04365641392951" lon="10.157978353828934"><ele>289.0</ele><time>2026-05-02T07:22:57.967Z</time></trkpt><trkpt lat="44.043739236674575" lon="10.158059332865186"><ele>289.0</ele><time>2026-05-02T07:22:58.967Z</time></trkpt><trkpt lat="44.04381097649989" lon="10.158136456853054"><ele>289.0</ele><time>2026-05-02T07:22:59.967Z</time></trkpt><trkpt lat="44.04388218188853" lon="10.158233057829992"><ele>289.0</ele><time>2026-05-02T07:23:00.967Z</time></trkpt><trkpt lat="44.04394556713091" lon="10.15834619715517"><ele>289.0</ele><time>2026-05-02T07:23:01.967Z</time></trkpt><trkpt lat="44.04398671881127" lon="10.158482135606153"><ele>289.0</ele><time>2026-05-02T07:23:02.967Z</time></trkpt><trkpt lat="44.04400547381364" lon="10.158618828211761"><ele>292.2</ele><time>2026-05-02T07:23:03.967Z</time></trkpt><trkpt lat="44.04401152619431" lon="10.158755185236496"><ele>295.4</ele><time>2026-05-02T07:23:04.967Z</time></trkpt><trkpt lat="44.04397602188896" lon="10.158873614628993"><ele>298.6</ele><time>2026-05-02T07:23:05.967Z</time></trkpt><trkpt lat="44.043918390705564" lon="10.158982894157019"><ele>301.8</ele><time>2026-05-02T07:23:06.967Z</time></trkpt><trkpt lat="44.04384847064702" lon="10.15907638821159"><ele>305.0</ele><time>2026-05-02T07:23:07.967Z</time></trkpt><trkpt lat="44.043775215271275" lon="10.159152204670267"><ele>306.6</ele><time>2026-05-02T07:23:08.967Z</time></trkpt><trkpt lat="44.043689512339135" lon="10.1592089855982"><ele>308.2</ele><time>2026-05-02T07:23:09.967Z</time></trkpt><trkpt lat="44.04359579627989" lon="10.159276687901844"><ele>309.8</ele><time>2026-05-02T07:23:10.966Z</time></trkpt><trkpt lat="44.04352989763467" lon="10.159369763503902"><ele>311.4</ele><time>2026-05-02T07:23:11.965Z</time></trkpt><trkpt lat="44.043493044045" lon="10.159483519410788"><ele>313.0</ele><time>2026-05-02T07:23:12.965Z</time></trkpt><trkpt lat="44.04348459776372" lon="10.15961277760775"><ele>313.0</ele><time>2026-05-02T07:23:13.966Z</time></trkpt><trkpt lat="44.04346504306607" lon="10.159751671058055"><ele>313.0</ele><time>2026-05-02T07:23:14.966Z</time></trkpt><trkpt lat="44.04344883989873" lon="10.15987814972735"><ele>313.0</ele><time>2026-05-02T07:23:15.966Z</time></trkpt><trkpt lat="44.04341677341077" lon="10.159991254015033"><ele>313.0</ele><time>2026-05-02T07:23:16.966Z</time></trkpt><trkpt lat="44.04336286930614" lon="10.160089179990512"><ele>313.0</ele><time>2026-05-02T07:23:17.966Z</time></trkpt><trkpt lat="44.0433134026663" lon="10.160189104229065"><ele>317.4</ele><time>2026-05-02T07:23:18.966Z</time></trkpt><trkpt lat="44.043283675971416" lon="10.160307633804356"><ele>321.8</ele><time>2026-05-02T07:23:19.965Z</time></trkpt><trkpt lat="44.043255203681106" lon="10.160433748799981"><ele>326.2</ele><time>2026-05-02T07:23:20.966Z</time></trkpt><trkpt lat="44.04322613642208" lon="10.160555675944881"><ele>330.6</ele><time>2026-05-02T07:23:21.966Z</time></trkpt><trkpt lat="44.043201632740036" lon="10.160683842640033"><ele>335.0</ele><time>2026-05-02T07:23:22.966Z</time></trkpt><trkpt lat="44.043168963142755" lon="10.16080423020939"><ele>335.0</ele><time>2026-05-02T07:23:23.966Z</time></trkpt><trkpt lat="44.04313694054208" lon="10.160925542134141"><ele>335.0</ele><time>2026-05-02T07:23:24.966Z</time></trkpt><trkpt lat="44.04310949023991" lon="10.16104502892936"><ele>335.0</ele><time>2026-05-02T07:23:25.966Z</time></trkpt><trkpt lat="44.04306985400958" lon="10.161143892417675"><ele>335.0</ele><time>2026-05-02T07:23:26.966Z</time></trkpt><trkpt lat="44.04300519152473" lon="10.161288225587164"><ele>335.0</ele><time>2026-05-02T07:23:28.966Z</time></trkpt><trkpt lat="44.042960143832744" lon="10.161351149785236"><ele>335.0</ele><time>2026-05-02T07:23:29.966Z</time></trkpt><trkpt lat="44.04290538465457" lon="10.161410397144504"><ele>335.0</ele><time>2026-05-02T07:23:30.966Z</time></trkpt><trkpt lat="44.042841384138804" lon="10.161461351332845"><ele>335.0</ele><time>2026-05-02T07:23:31.966Z</time></trkpt><trkpt lat="44.042781315229895" lon="10.161511813355261"><ele>335.0</ele><time>2026-05-02T07:23:32.966Z</time></trkpt><trkpt lat="44.04270033008932" lon="10.161557373791004"><ele>335.0</ele><time>2026-05-02T07:23:33.966Z</time></trkpt><trkpt lat="44.04262011093012" lon="10.161608803495128"><ele>335.0</ele><time>2026-05-02T07:23:34.966Z</time></trkpt><trkpt lat="44.04254874739526" lon="10.161665852511653"><ele>329.33333333333337</ele><time>2026-05-02T07:23:35.966Z</time></trkpt><trkpt lat="44.042504681954156" lon="10.161729314645005"><ele>323.6666666666667</ele><time>2026-05-02T07:23:36.966Z</time></trkpt><trkpt lat="44.042436392486245" lon="10.161827920495083"><ele>318.0</ele><time>2026-05-02T07:23:38.966Z</time></trkpt><trkpt lat="44.042417872776035" lon="10.161972170040826"><ele>312.3333333333333</ele><time>2026-05-02T07:23:40.966Z</time></trkpt><trkpt lat="44.04242648769883" lon="10.162089575067712"><ele>306.66666666666663</ele><time>2026-05-02T07:23:41.966Z</time></trkpt><trkpt lat="44.04244992908638" lon="10.16218781735389"><ele>301.0</ele><time>2026-05-02T07:23:42.966Z</time></trkpt><trkpt lat="44.042493999347435" lon="10.16227121167612"><ele>301.0</ele><time>2026-05-02T07:23:43.966Z</time></trkpt><trkpt lat="44.042539063223124" lon="10.16233893733373"><ele>301.0</ele><time>2026-05-02T07:23:44.966Z</time></trkpt><trkpt lat="44.04259848006593" lon="10.162386583469479"><ele>301.0</ele><time>2026-05-02T07:23:45.966Z</time></trkpt><trkpt lat="44.042674656705856" lon="10.16241766362752"><ele>301.0</ele><time>2026-05-02T07:23:46.966Z</time></trkpt><trkpt lat="44.04274963835325" lon="10.162449829051328"><ele>301.0</ele><time>2026-05-02T07:23:47.966Z</time></trkpt><trkpt lat="44.04282855146267" lon="10.16247189439004"><ele>301.0</ele><time>2026-05-02T07:23:48.966Z</time></trkpt><trkpt lat="44.0429081554424" lon="10.16249927457744"><ele>300.0</ele><time>2026-05-02T07:23:49.966Z</time></trkpt><trkpt lat="44.04298475296037" lon="10.162561800560374"><ele>299.0</ele><time>2026-05-02T07:23:50.966Z</time></trkpt><trkpt lat="44.04307545375532" lon="10.162638001958618"><ele>298.0</ele><time>2026-05-02T07:23:51.966Z</time></trkpt><trkpt lat="44.043170963101026" lon="10.162693329869281"><ele>297.0</ele><time>2026-05-02T07:23:52.966Z</time></trkpt><trkpt lat="44.04327470079369" lon="10.162738000347215"><ele>296.0</ele><time>2026-05-02T07:23:53.966Z</time></trkpt><trkpt lat="44.043374930919214" lon="10.162770632315944"><ele>291.8</ele><time>2026-05-02T07:23:54.966Z</time></trkpt><trkpt lat="44.04347797767343" lon="10.16280243223632"><ele>287.6</ele><time>2026-05-02T07:23:55.966Z</time></trkpt><trkpt lat="44.04357130290489" lon="10.162828127261207"><ele>283.4</ele><time>2026-05-02T07:23:56.966Z</time></trkpt><trkpt lat="44.0436620279006" lon="10.16286049306724"><ele>279.2</ele><time>2026-05-02T07:23:57.966Z</time></trkpt><trkpt lat="44.043743754947315" lon="10.162889357128318"><ele>275.0</ele><time>2026-05-02T07:23:58.966Z</time></trkpt><trkpt lat="44.04381840304852" lon="10.162933917112671"><ele>275.0</ele><time>2026-05-02T07:23:59.966Z</time></trkpt><trkpt lat="44.04388957724708" lon="10.162983716305984"><ele>275.0</ele><time>2026-05-02T07:24:00.966Z</time></trkpt><trkpt lat="44.043957287975324" lon="10.163048940350711"><ele>275.0</ele><time>2026-05-02T07:24:01.966Z</time></trkpt><trkpt lat="44.04402772423361" lon="10.16311702360189"><ele>275.0</ele><time>2026-05-02T07:24:02.966Z</time></trkpt><trkpt lat="44.04411047242174" lon="10.163186886000263"><ele>275.0</ele><time>2026-05-02T07:24:03.966Z</time></trkpt><trkpt lat="44.04420143374197" lon="10.163215471965618"><ele>275.0</ele><time>2026-05-02T07:24:04.966Z</time></trkpt><trkpt lat="44.0442954440105" lon="10.16321172198179"><ele>274.1666666666667</ele><time>2026-05-02T07:24:05.966Z</time></trkpt><trkpt lat="44.04437795486814" lon="10.163186642201486"><ele>273.33333333333337</ele><time>2026-05-02T07:24:06.966Z</time></trkpt><trkpt lat="44.0444658777956" lon="10.163146997251257"><ele>272.5</ele><time>2026-05-02T07:24:07.966Z</time></trkpt><trkpt lat="44.04454671146392" lon="10.163101085714638"><ele>271.6666666666667</ele><time>2026-05-02T07:24:08.966Z</time></trkpt><trkpt lat="44.04463565960633" lon="10.163086608783342"><ele>270.8333333333333</ele><time>2026-05-02T07:24:09.966Z</time></trkpt><trkpt lat="44.044718824613916" lon="10.16310442264663"><ele>270.0</ele><time>2026-05-02T07:24:10.966Z</time></trkpt><trkpt lat="44.04480437756559" lon="10.163164077039234"><ele>273.0</ele><time>2026-05-02T07:24:11.966Z</time></trkpt><trkpt lat="44.04488643061589" lon="10.163246074014921"><ele>276.0</ele><time>2026-05-02T07:24:12.966Z</time></trkpt><trkpt lat="44.04495325979286" lon="10.163349201732984"><ele>279.0</ele><time>2026-05-02T07:24:13.966Z</time></trkpt><trkpt lat="44.04501913833918" lon="10.163441195238812"><ele>282.0</ele><time>2026-05-02T07:24:14.966Z</time></trkpt><trkpt lat="44.04509133435197" lon="10.163524937875144"><ele>285.0</ele><time>2026-05-02T07:24:15.966Z</time></trkpt><trkpt lat="44.045175070187426" lon="10.163591368625767"><ele>285.0</ele><time>2026-05-02T07:24:16.966Z</time></trkpt><trkpt lat="44.04527790465792" lon="10.163625890758345"><ele>285.0</ele><time>2026-05-02T07:24:17.966Z</time></trkpt><trkpt lat="44.045384419672075" lon="10.163624717129077"><ele>285.0</ele><time>2026-05-02T07:24:18.966Z</time></trkpt><trkpt lat="44.045482245767154" lon="10.163593058071944"><ele>285.0</ele><time>2026-05-02T07:24:19.966Z</time></trkpt><trkpt lat="44.04557413144014" lon="10.163546041167134"><ele>285.0</ele><time>2026-05-02T07:24:20.966Z</time></trkpt><trkpt lat="44.04566389765496" lon="10.163493199834745"><ele>285.0</ele><time>2026-05-02T07:24:21.966Z</time></trkpt><trkpt lat="44.045754352265085" lon="10.163448661103425"><ele>285.0</ele><time>2026-05-02T07:24:22.966Z</time></trkpt><trkpt lat="44.045843739444074" lon="10.163420696497555"><ele>285.0</ele><time>2026-05-02T07:24:23.966Z</time></trkpt><trkpt lat="44.0459346139587" lon="10.163406013270532"><ele>285.0</ele><time>2026-05-02T07:24:24.966Z</time></trkpt><trkpt lat="44.04601352531084" lon="10.163406258678322"><ele>285.0</ele><time>2026-05-02T07:24:25.966Z</time></trkpt><trkpt lat="44.04609616150474" lon="10.163417257932096"><ele>285.0</ele><time>2026-05-02T07:24:26.966Z</time></trkpt><trkpt lat="44.04617560496853" lon="10.163430856836914"><ele>285.1666666666667</ele><time>2026-05-02T07:24:27.966Z</time></trkpt><trkpt lat="44.04625031657997" lon="10.163465455265278"><ele>285.3333333333333</ele><time>2026-05-02T07:24:28.966Z</time></trkpt><trkpt lat="44.046321627427965" lon="10.16352169563948"><ele>285.5</ele><time>2026-05-02T07:24:29.966Z</time></trkpt><trkpt lat="44.04638194633187" lon="10.16359505154427"><ele>285.66666666666663</ele><time>2026-05-02T07:24:30.966Z</time></trkpt><trkpt lat="44.04642968491772" lon="10.16368220406733"><ele>285.8333333333333</ele><time>2026-05-02T07:24:31.966Z</time></trkpt><trkpt lat="44.046467964420366" lon="10.163778192477235"><ele>286.0</ele><time>2026-05-02T07:24:32.966Z</time></trkpt><trkpt lat="44.04647633082904" lon="10.163893496718467"><ele>286.0</ele><time>2026-05-02T07:24:33.966Z</time></trkpt><trkpt lat="44.04651120932092" lon="10.16398053652855"><ele>286.0</ele><time>2026-05-02T07:24:34.966Z</time></trkpt><trkpt lat="44.046551311318844" lon="10.164072976273635"><ele>286.0</ele><time>2026-05-02T07:24:35.966Z</time></trkpt><trkpt lat="44.046587342948314" lon="10.16415504180104"><ele>286.0</ele><time>2026-05-02T07:24:36.966Z</time></trkpt><trkpt lat="44.04662010090472" lon="10.164234489975687"><ele>286.0</ele><time>2026-05-02T07:24:37.966Z</time></trkpt><trkpt lat="44.04670940874606" lon="10.164360250571214"><ele>286.0</ele><time>2026-05-02T07:24:39.966Z</time></trkpt><trkpt lat="44.04677289670333" lon="10.164401054799647"><ele>288.3333333333333</ele><time>2026-05-02T07:24:40.966Z</time></trkpt><trkpt lat="44.04684446115542" lon="10.164440417622197"><ele>290.66666666666663</ele><time>2026-05-02T07:24:41.966Z</time></trkpt><trkpt lat="44.04691865589949" lon="10.164478924733832"><ele>293.0</ele><time>2026-05-02T07:24:42.966Z</time></trkpt><trkpt lat="44.04699014584163" lon="10.164515699276288"><ele>295.3333333333333</ele><time>2026-05-02T07:24:43.966Z</time></trkpt><trkpt lat="44.047052230128635" lon="10.164570529946234"><ele>297.6666666666667</ele><time>2026-05-02T07:24:44.966Z</time></trkpt><trkpt lat="44.047118157735646" lon="10.164646510978322"><ele>300.0</ele><time>2026-05-02T07:24:45.966Z</time></trkpt><trkpt lat="44.04717528115787" lon="10.164734127411283"><ele>300.0</ele><time>2026-05-02T07:24:46.966Z</time></trkpt><trkpt lat="44.04722889145073" lon="10.164836550184175"><ele>300.0</ele><time>2026-05-02T07:24:47.966Z</time></trkpt><trkpt lat="44.047281703764256" lon="10.164935442352792"><ele>300.0</ele><time>2026-05-02T07:24:48.966Z</time></trkpt><trkpt lat="44.0473284535666" lon="10.165033816529872"><ele>300.0</ele><time>2026-05-02T07:24:49.966Z</time></trkpt><trkpt lat="44.0473836510548" lon="10.165120120763417"><ele>300.0</ele><time>2026-05-02T07:24:50.966Z</time></trkpt><trkpt lat="44.047429098467255" lon="10.165183668611176"><ele>300.0</ele><time>2026-05-02T07:24:51.966Z</time></trkpt><trkpt lat="44.047489778600145" lon="10.165226769695327"><ele>300.8333333333333</ele><time>2026-05-02T07:24:52.966Z</time></trkpt><trkpt lat="44.04755666917632" lon="10.16526693761789"><ele>301.6666666666667</ele><time>2026-05-02T07:24:53.966Z</time></trkpt><trkpt lat="44.04767542463413" lon="10.165297814391133"><ele>302.5</ele><time>2026-05-02T07:24:55.966Z</time></trkpt><trkpt lat="44.04773907952506" lon="10.165305470650289"><ele>303.33333333333337</ele><time>2026-05-02T07:24:56.966Z</time></trkpt><trkpt lat="44.04780451370856" lon="10.16530904996399"><ele>304.1666666666667</ele><time>2026-05-02T07:24:57.966Z</time></trkpt><trkpt lat="44.047879594587194" lon="10.165305643221481"><ele>305.0</ele><time>2026-05-02T07:24:58.966Z</time></trkpt><trkpt lat="44.047964304622006" lon="10.16530765908933"><ele>305.0</ele><time>2026-05-02T07:24:59.966Z</time></trkpt><trkpt lat="44.04804646264461" lon="10.165315936416263"><ele>305.0</ele><time>2026-05-02T07:25:00.966Z</time></trkpt><trkpt lat="44.04812571968442" lon="10.16532699895103"><ele>305.0</ele><time>2026-05-02T07:25:01.966Z</time></trkpt><trkpt lat="44.04820601631056" lon="10.165348361534733"><ele>305.0</ele><time>2026-05-02T07:25:02.966Z</time></trkpt><trkpt lat="44.048288634048944" lon="10.165364711735334"><ele>305.0</ele><time>2026-05-02T07:25:03.966Z</time></trkpt><trkpt lat="44.04835725810823" lon="10.165378964417593"><ele>305.0</ele><time>2026-05-02T07:25:04.966Z</time></trkpt><trkpt lat="44.04842318802703" lon="10.165404210313294"><ele>306.5</ele><time>2026-05-02T07:25:05.966Z</time></trkpt><trkpt lat="44.04848663741973" lon="10.165451667337182"><ele>308.0</ele><time>2026-05-02T07:25:06.966Z</time></trkpt><trkpt lat="44.04854859000787" lon="10.165518291389581"><ele>309.5</ele><time>2026-05-02T07:25:07.966Z</time></trkpt><trkpt lat="44.04860322908085" lon="10.165594358219415"><ele>311.0</ele><time>2026-05-02T07:25:08.966Z</time></trkpt><trkpt lat="44.048655311845025" lon="10.165664674541777"><ele>312.5</ele><time>2026-05-02T07:25:09.966Z</time></trkpt><trkpt lat="44.048701823432516" lon="10.165724085106081"><ele>314.0</ele><time>2026-05-02T07:25:10.966Z</time></trkpt><trkpt lat="44.04876929844524" lon="10.165862589690732"><ele>313.99999999999994</ele><time>2026-05-02T07:25:12.966Z</time></trkpt><trkpt lat="44.048784982807064" lon="10.165953018379728"><ele>314.0</ele><time>2026-05-02T07:25:13.966Z</time></trkpt><trkpt lat="44.04879172220938" lon="10.166047312070129"><ele>314.0</ele><time>2026-05-02T07:25:14.966Z</time></trkpt><trkpt lat="44.04878252914715" lon="10.16614748669822"><ele>314.0</ele><time>2026-05-02T07:25:15.966Z</time></trkpt><trkpt lat="44.048759645229374" lon="10.166249037374063"><ele>314.0</ele><time>2026-05-02T07:25:16.964Z</time></trkpt><trkpt lat="44.04872589029374" lon="10.166360283227501"><ele>313.99999999999994</ele><time>2026-05-02T07:25:17.964Z</time></trkpt><trkpt lat="44.048691831776225" lon="10.166457849593986"><ele>314.0</ele><time>2026-05-02T07:25:18.964Z</time></trkpt><trkpt lat="44.048658956088644" lon="10.166567409589307"><ele>315.83333333333337</ele><time>2026-05-02T07:25:19.963Z</time></trkpt><trkpt lat="44.048630984132714" lon="10.166682815526551"><ele>317.6666666666667</ele><time>2026-05-02T07:25:20.964Z</time></trkpt><trkpt lat="44.048612398094946" lon="10.166801361319246"><ele>319.5</ele><time>2026-05-02T07:25:21.964Z</time></trkpt><trkpt lat="44.04859343645256" lon="10.166914910712245"><ele>321.3333333333333</ele><time>2026-05-02T07:25:22.964Z</time></trkpt><trkpt lat="44.048584885089724" lon="10.167040961234157"><ele>323.16666666666663</ele><time>2026-05-02T07:25:23.964Z</time></trkpt><trkpt lat="44.04858264105433" lon="10.167171010274034"><ele>325.0</ele><time>2026-05-02T07:25:24.964Z</time></trkpt><trkpt lat="44.048586879478016" lon="10.167300008725014"><ele>326.57142857142856</ele><time>2026-05-02T07:25:25.963Z</time></trkpt><trkpt lat="44.0485962668643" lon="10.16741482051821"><ele>328.14285714285717</ele><time>2026-05-02T07:25:26.964Z</time></trkpt><trkpt lat="44.04860527438084" lon="10.167519320183622"><ele>329.7142857142857</ele><time>2026-05-02T07:25:27.964Z</time></trkpt><trkpt lat="44.04862668173055" lon="10.167620841742224"><ele>331.2857142857143</ele><time>2026-05-02T07:25:28.964Z</time></trkpt><trkpt lat="44.04865113371403" lon="10.167719243614853"><ele>332.8571428571429</ele><time>2026-05-02T07:25:29.963Z</time></trkpt><trkpt lat="44.04867346962145" lon="10.167811430433702"><ele>334.42857142857144</ele><time>2026-05-02T07:25:30.963Z</time></trkpt><trkpt lat="44.04869716110276" lon="10.16789474505255"><ele>336.0</ele><time>2026-05-02T07:25:31.963Z</time></trkpt><trkpt lat="44.04874563449132" lon="10.168003384752302"><ele>336.0</ele><time>2026-05-02T07:25:33.963Z</time></trkpt><trkpt lat="44.048784150897156" lon="10.168096722812797"><ele>336.0</ele><time>2026-05-02T07:25:35.963Z</time></trkpt><trkpt lat="44.048843188541134" lon="10.168232375562075"><ele>336.0</ele><time>2026-05-02T07:25:37.963Z</time></trkpt><trkpt lat="44.04888390090914" lon="10.168300256049672"><ele>336.0</ele><time>2026-05-02T07:25:38.963Z</time></trkpt><trkpt lat="44.04894522871466" lon="10.168367484385884"><ele>336.0</ele><time>2026-05-02T07:25:39.963Z</time></trkpt><trkpt lat="44.04900273119513" lon="10.168448147789265"><ele>336.0</ele><time>2026-05-02T07:25:40.963Z</time></trkpt><trkpt lat="44.049055694100744" lon="10.168560746011186"><ele>334.0</ele><time>2026-05-02T07:25:41.963Z</time></trkpt><trkpt lat="44.049118905552625" lon="10.168667937554751"><ele>332.0</ele><time>2026-05-02T07:25:42.963Z</time></trkpt><trkpt lat="44.04918104835863" lon="10.168768868566108"><ele>330.0</ele><time>2026-05-02T07:25:43.963Z</time></trkpt><trkpt lat="44.04924842475542" lon="10.16887456951863"><ele>328.0</ele><time>2026-05-02T07:25:44.963Z</time></trkpt><trkpt lat="44.04932034568257" lon="10.168981716246334"><ele>326.0</ele><time>2026-05-02T07:25:45.963Z</time></trkpt><trkpt lat="44.04939517826425" lon="10.169085718590988"><ele>326.0</ele><time>2026-05-02T07:25:46.963Z</time></trkpt><trkpt lat="44.04947341776563" lon="10.169196678033584"><ele>326.0</ele><time>2026-05-02T07:25:47.963Z</time></trkpt><trkpt lat="44.049550116543806" lon="10.169308773451796"><ele>326.0</ele><time>2026-05-02T07:25:48.963Z</time></trkpt><trkpt lat="44.04961271685312" lon="10.169431463309406"><ele>326.0</ele><time>2026-05-02T07:25:49.963Z</time></trkpt><trkpt lat="44.0496789558629" lon="10.169548855533064"><ele>326.0</ele><time>2026-05-02T07:25:50.963Z</time></trkpt><trkpt lat="44.04975118470878" lon="10.169663720179107"><ele>326.0</ele><time>2026-05-02T07:25:51.963Z</time></trkpt><trkpt lat="44.04982272290413" lon="10.169772808991704"><ele>326.0</ele><time>2026-05-02T07:25:52.963Z</time></trkpt><trkpt lat="44.049891570007944" lon="10.1698846239666"><ele>326.0</ele><time>2026-05-02T07:25:53.963Z</time></trkpt><trkpt lat="44.04996007965206" lon="10.169994026944225"><ele>326.0</ele><time>2026-05-02T07:25:54.963Z</time></trkpt><trkpt lat="44.050036552462075" lon="10.17009314178219"><ele>326.0</ele><time>2026-05-02T07:25:55.963Z</time></trkpt><trkpt lat="44.050117921754136" lon="10.170177245652965"><ele>324.0</ele><time>2026-05-02T07:25:56.963Z</time></trkpt><trkpt lat="44.05021033437946" lon="10.170262498068471"><ele>322.0</ele><time>2026-05-02T07:25:57.963Z</time></trkpt><trkpt lat="44.050309266318536" lon="10.170343316166981"><ele>320.0</ele><time>2026-05-02T07:25:58.963Z</time></trkpt><trkpt lat="44.05041276977127" lon="10.17042206365517"><ele>318.0</ele><time>2026-05-02T07:25:59.963Z</time></trkpt><trkpt lat="44.05052167440718" lon="10.170521421381649"><ele>318.0</ele><time>2026-05-02T07:26:00.963Z</time></trkpt><trkpt lat="44.05063000263378" lon="10.170613222505327"><ele>318.0</ele><time>2026-05-02T07:26:01.963Z</time></trkpt><trkpt lat="44.05073855005184" lon="10.170707228393518"><ele>318.0</ele><time>2026-05-02T07:26:02.963Z</time></trkpt><trkpt lat="44.050845673670956" lon="10.170799413868732"><ele>318.0</ele><time>2026-05-02T07:26:03.963Z</time></trkpt><trkpt lat="44.05095478138881" lon="10.170885326417018"><ele>317.75</ele><time>2026-05-02T07:26:04.963Z</time></trkpt><trkpt lat="44.05106880936118" lon="10.17097230435247"><ele>317.5</ele><time>2026-05-02T07:26:05.963Z</time></trkpt><trkpt lat="44.051176683618905" lon="10.171056454354877"><ele>317.25</ele><time>2026-05-02T07:26:06.963Z</time></trkpt><trkpt lat="44.05127685254277" lon="10.171142485445973"><ele>317.0</ele><time>2026-05-02T07:26:07.963Z</time></trkpt><trkpt lat="44.05137235655114" lon="10.171220371416986"><ele>317.0</ele><time>2026-05-02T07:26:08.963Z</time></trkpt><trkpt lat="44.05146296512922" lon="10.171297815989677"><ele>317.0</ele><time>2026-05-02T07:26:09.963Z</time></trkpt><trkpt lat="44.05154145637631" lon="10.171380109729606"><ele>317.0</ele><time>2026-05-02T07:26:10.963Z</time></trkpt><trkpt lat="44.05161050549128" lon="10.171479243092268"><ele>317.0</ele><time>2026-05-02T07:26:11.963Z</time></trkpt><trkpt lat="44.051664923372186" lon="10.171588046124604"><ele>317.0</ele><time>2026-05-02T07:26:12.963Z</time></trkpt><trkpt lat="44.051707065369385" lon="10.171716825583447"><ele>318.2</ele><time>2026-05-02T07:26:13.963Z</time></trkpt><trkpt lat="44.051749651658575" lon="10.171848561357093"><ele>319.4</ele><time>2026-05-02T07:26:14.963Z</time></trkpt><trkpt lat="44.05180439225878" lon="10.171980453784188"><ele>320.59999999999997</ele><time>2026-05-02T07:26:15.963Z</time></trkpt><trkpt lat="44.05187177754192" lon="10.172107651758663"><ele>321.79999999999995</ele><time>2026-05-02T07:26:16.963Z</time></trkpt><trkpt lat="44.05194959520408" lon="10.172235811944853"><ele>323.0</ele><time>2026-05-02T07:26:17.963Z</time></trkpt><trkpt lat="44.05202498401695" lon="10.172369692656835"><ele>325.4</ele><time>2026-05-02T07:26:18.963Z</time></trkpt><trkpt lat="44.05210098769422" lon="10.172494301452549"><ele>327.79999999999995</ele><time>2026-05-02T07:26:19.963Z</time></trkpt><trkpt lat="44.05217161759443" lon="10.17260615109491"><ele>330.2</ele><time>2026-05-02T07:26:20.963Z</time></trkpt><trkpt lat="44.052248341891506" lon="10.17269855990206"><ele>332.6</ele><time>2026-05-02T07:26:21.963Z</time></trkpt><trkpt lat="44.05233398325971" lon="10.172777327687218"><ele>335.0</ele><time>2026-05-02T07:26:22.963Z</time></trkpt><trkpt lat="44.052418564192244" lon="10.172862511954152"><ele>335.8</ele><time>2026-05-02T07:26:23.963Z</time></trkpt><trkpt lat="44.052513299054944" lon="10.172942791621068"><ele>336.6</ele><time>2026-05-02T07:26:24.963Z</time></trkpt><trkpt lat="44.05260893720343" lon="10.17301792907018"><ele>337.4</ele><time>2026-05-02T07:26:25.963Z</time></trkpt><trkpt lat="44.05270247304059" lon="10.173092623513094"><ele>338.2</ele><time>2026-05-02T07:26:26.963Z</time></trkpt><trkpt lat="44.05279512259695" lon="10.173168662642897"><ele>339.0</ele><time>2026-05-02T07:26:27.963Z</time></trkpt><trkpt lat="44.05288171265783" lon="10.173244976202346"><ele>339.0</ele><time>2026-05-02T07:26:28.963Z</time></trkpt><trkpt lat="44.052960110041866" lon="10.173324809907816"><ele>339.0</ele><time>2026-05-02T07:26:29.963Z</time></trkpt><trkpt lat="44.05301755134363" lon="10.173418451480414"><ele>339.0</ele><time>2026-05-02T07:26:30.963Z</time></trkpt><trkpt lat="44.05305412362715" lon="10.17352815885474"><ele>339.0</ele><time>2026-05-02T07:26:31.963Z</time></trkpt><trkpt lat="44.05305970695151" lon="10.173627305789525"><ele>339.0</ele><time>2026-05-02T07:26:32.963Z</time></trkpt><trkpt lat="44.0530270449997" lon="10.17374608618992"><ele>339.0</ele><time>2026-05-02T07:26:33.963Z</time></trkpt><trkpt lat="44.05300605312732" lon="10.17385171349758"><ele>339.0</ele><time>2026-05-02T07:26:34.963Z</time></trkpt><trkpt lat="44.05298905742118" lon="10.173944585801658"><ele>339.0</ele><time>2026-05-02T07:26:35.963Z</time></trkpt><trkpt lat="44.05297426707471" lon="10.174039026449016"><ele>339.0</ele><time>2026-05-02T07:26:36.963Z</time></trkpt><trkpt lat="44.05296802040872" lon="10.174193259668497"><ele>339.0</ele><time>2026-05-02T07:26:38.963Z</time></trkpt><trkpt lat="44.05298483745192" lon="10.174317957755255"><ele>339.0</ele><time>2026-05-02T07:26:40.963Z</time></trkpt><trkpt lat="44.053034273589326" lon="10.174426053767496"><ele>339.0</ele><time>2026-05-02T07:26:42.963Z</time></trkpt><trkpt lat="44.05313518264125" lon="10.174535180615775"><ele>341.1666666666667</ele><time>2026-05-02T07:26:44.963Z</time></trkpt><trkpt lat="44.053202138847666" lon="10.174577792133089"><ele>343.3333333333333</ele><time>2026-05-02T07:26:45.963Z</time></trkpt><trkpt lat="44.05327752049913" lon="10.174620744098474"><ele>345.5</ele><time>2026-05-02T07:26:46.963Z</time></trkpt><trkpt lat="44.05335880059018" lon="10.174658209892446"><ele>347.66666666666663</ele><time>2026-05-02T07:26:47.963Z</time></trkpt><trkpt lat="44.053443824415275" lon="10.174703991765554"><ele>349.8333333333333</ele><time>2026-05-02T07:26:48.963Z</time></trkpt><trkpt lat="44.053518525276765" lon="10.174750521607768"><ele>352.0</ele><time>2026-05-02T07:26:49.963Z</time></trkpt><trkpt lat="44.053596265498655" lon="10.174807448661317"><ele>350.0</ele><time>2026-05-02T07:26:50.963Z</time></trkpt><trkpt lat="44.05366835795591" lon="10.17486746493534"><ele>348.0</ele><time>2026-05-02T07:26:51.963Z</time></trkpt><trkpt lat="44.05374322608626" lon="10.174924825357209"><ele>346.0</ele><time>2026-05-02T07:26:52.963Z</time></trkpt><trkpt lat="44.05381469667517" lon="10.174996196579118"><ele>344.0</ele><time>2026-05-02T07:26:53.963Z</time></trkpt><trkpt lat="44.05388059741652" lon="10.17507797585007"><ele>342.0</ele><time>2026-05-02T07:26:54.963Z</time></trkpt><trkpt lat="44.05393950496337" lon="10.175170281995998"><ele>340.0</ele><time>2026-05-02T07:26:55.964Z</time></trkpt><trkpt lat="44.05398431914854" lon="10.175276398773283"><ele>340.0</ele><time>2026-05-02T07:26:56.964Z</time></trkpt><trkpt lat="44.054016470362825" lon="10.175390598162386"><ele>340.0</ele><time>2026-05-02T07:26:57.964Z</time></trkpt><trkpt lat="44.05403783597861" lon="10.175503886761074"><ele>340.0</ele><time>2026-05-02T07:26:58.964Z</time></trkpt><trkpt lat="44.054054736836385" lon="10.17562628997558"><ele>340.0</ele><time>2026-05-02T07:26:59.964Z</time></trkpt><trkpt lat="44.054061273347" lon="10.175748850654891"><ele>340.0</ele><time>2026-05-02T07:27:00.964Z</time></trkpt><trkpt lat="44.05402670568711" lon="10.17587392828028"><ele>340.0</ele><time>2026-05-02T07:27:01.964Z</time></trkpt><trkpt lat="44.054000618945956" lon="10.176002344687902"><ele>338.8</ele><time>2026-05-02T07:27:02.964Z</time></trkpt><trkpt lat="44.05397400575606" lon="10.176139874272472"><ele>337.6</ele><time>2026-05-02T07:27:03.964Z</time></trkpt><trkpt lat="44.053959405422574" lon="10.176275238527007"><ele>336.4</ele><time>2026-05-02T07:27:04.964Z</time></trkpt><trkpt lat="44.05391070175109" lon="10.17639295948778"><ele>335.2</ele><time>2026-05-02T07:27:05.964Z</time></trkpt><trkpt lat="44.053836853739774" lon="10.176476928707244"><ele>334.0</ele><time>2026-05-02T07:27:06.964Z</time></trkpt><trkpt lat="44.05375898731587" lon="10.176545081815465"><ele>334.0</ele><time>2026-05-02T07:27:07.964Z</time></trkpt><trkpt lat="44.05366972422586" lon="10.176610780366941"><ele>334.0</ele><time>2026-05-02T07:27:08.964Z</time></trkpt><trkpt lat="44.05357704745716" lon="10.176661085589293"><ele>334.0</ele><time>2026-05-02T07:27:09.964Z</time></trkpt><trkpt lat="44.05347130955756" lon="10.176702382439458"><ele>334.0</ele><time>2026-05-02T07:27:10.964Z</time></trkpt><trkpt lat="44.05336562045816" lon="10.176733767527052"><ele>334.0</ele><time>2026-05-02T07:27:11.964Z</time></trkpt><trkpt lat="44.053270263081444" lon="10.176780373599172"><ele>341.4</ele><time>2026-05-02T07:27:12.964Z</time></trkpt><trkpt lat="44.05315608221005" lon="10.176792589440115"><ele>348.79999999999995</ele><time>2026-05-02T07:27:13.964Z</time></trkpt><trkpt lat="44.053065754011975" lon="10.176838932615743"><ele>356.20000000000005</ele><time>2026-05-02T07:27:14.964Z</time></trkpt><trkpt lat="44.052991020985054" lon="10.176921246216"><ele>363.6</ele><time>2026-05-02T07:27:15.964Z</time></trkpt><trkpt lat="44.05295924082305" lon="10.177026778694158"><ele>371.0</ele><time>2026-05-02T07:27:16.964Z</time></trkpt><trkpt lat="44.052937829357404" lon="10.17716684787272"><ele>371.0</ele><time>2026-05-02T07:27:17.964Z</time></trkpt><trkpt lat="44.05289437587791" lon="10.177276165827568"><ele>371.0</ele><time>2026-05-02T07:27:18.964Z</time></trkpt><trkpt lat="44.052842722658916" lon="10.177356854381022"><ele>371.0</ele><time>2026-05-02T07:27:19.964Z</time></trkpt><trkpt lat="44.05276813633409" lon="10.177426136574761"><ele>371.0</ele><time>2026-05-02T07:27:20.964Z</time></trkpt><trkpt lat="44.05268855345152" lon="10.177502800902571"><ele>371.0</ele><time>2026-05-02T07:27:21.964Z</time></trkpt><trkpt lat="44.05260977334231" lon="10.177562050287852"><ele>371.0</ele><time>2026-05-02T07:27:22.962Z</time></trkpt><trkpt lat="44.0525331782256" lon="10.177637189528095"><ele>368.0</ele><time>2026-05-02T07:27:23.961Z</time></trkpt><trkpt lat="44.05248119282473" lon="10.177733909997185"><ele>365.0</ele><time>2026-05-02T07:27:24.961Z</time></trkpt><trkpt lat="44.052445115797624" lon="10.177843514987426"><ele>362.0</ele><time>2026-05-02T07:27:25.962Z</time></trkpt><trkpt lat="44.05240953905334" lon="10.177936687031032"><ele>359.0</ele><time>2026-05-02T07:27:26.962Z</time></trkpt><trkpt lat="44.05239641722906" lon="10.178053515961299"><ele>356.0</ele><time>2026-05-02T07:27:27.962Z</time></trkpt><trkpt lat="44.0523877227643" lon="10.178191598153441"><ele>353.0</ele><time>2026-05-02T07:27:28.961Z</time></trkpt><trkpt lat="44.05238797102488" lon="10.178320168925671"><ele>349.59999999999997</ele><time>2026-05-02T07:27:29.962Z</time></trkpt><trkpt lat="44.05240023263614" lon="10.178461728895686"><ele>346.2</ele><time>2026-05-02T07:27:30.962Z</time></trkpt><trkpt lat="44.052421199651526" lon="10.178593586061707"><ele>342.8</ele><time>2026-05-02T07:27:31.962Z</time></trkpt><trkpt lat="44.05244566489644" lon="10.178743746879764"><ele>339.4</ele><time>2026-05-02T07:27:32.962Z</time></trkpt><trkpt lat="44.05248456335338" lon="10.178878127893364"><ele>336.0</ele><time>2026-05-02T07:27:33.962Z</time></trkpt><trkpt lat="44.052494798388246" lon="10.179028546503373"><ele>334.0</ele><time>2026-05-02T07:27:34.962Z</time></trkpt><trkpt lat="44.052519128920295" lon="10.1791727873529"><ele>332.0</ele><time>2026-05-02T07:27:35.961Z</time></trkpt><trkpt lat="44.05253690844597" lon="10.179306704984702"><ele>330.0</ele><time>2026-05-02T07:27:36.961Z</time></trkpt><trkpt lat="44.052542609795275" lon="10.179430631472066"><ele>328.0</ele><time>2026-05-02T07:27:37.961Z</time></trkpt><trkpt lat="44.05252500437734" lon="10.179548466629264"><ele>326.0</ele><time>2026-05-02T07:27:38.961Z</time></trkpt><trkpt lat="44.0524869974422" lon="10.179652848982423"><ele>332.8</ele><time>2026-05-02T07:27:39.961Z</time></trkpt><trkpt lat="44.052432804070634" lon="10.179739554726487"><ele>339.6</ele><time>2026-05-02T07:27:40.961Z</time></trkpt><trkpt lat="44.052364553880956" lon="10.17980387137091"><ele>346.4</ele><time>2026-05-02T07:27:41.961Z</time></trkpt><trkpt lat="44.052280513197665" lon="10.179860145970485"><ele>353.2</ele><time>2026-05-02T07:27:42.961Z</time></trkpt><trkpt lat="44.052204517683826" lon="10.179961365089493"><ele>360.0</ele><time>2026-05-02T07:27:43.961Z</time></trkpt><trkpt lat="44.05211301958141" lon="10.180030471737005"><ele>360.0</ele><time>2026-05-02T07:27:44.961Z</time></trkpt><trkpt lat="44.05204360641401" lon="10.180099052614011"><ele>360.0</ele><time>2026-05-02T07:27:45.961Z</time></trkpt><trkpt lat="44.05196806190991" lon="10.180167116018579"><ele>360.0</ele><time>2026-05-02T07:27:46.961Z</time></trkpt><trkpt lat="44.05189006088221" lon="10.180238860790517"><ele>360.0</ele><time>2026-05-02T07:27:47.961Z</time></trkpt><trkpt lat="44.05184180315335" lon="10.180313545587195"><ele>360.0</ele><time>2026-05-02T07:27:48.961Z</time></trkpt><trkpt lat="44.05181920670316" lon="10.180411117282217"><ele>360.0</ele><time>2026-05-02T07:27:49.961Z</time></trkpt><trkpt lat="44.05178207282311" lon="10.180533122593378"><ele>360.0</ele><time>2026-05-02T07:27:50.961Z</time></trkpt><trkpt lat="44.05177370002774" lon="10.180670589016623"><ele>360.0</ele><time>2026-05-02T07:27:51.961Z</time></trkpt><trkpt lat="44.051785905344424" lon="10.180824185592124"><ele>360.0</ele><time>2026-05-02T07:27:52.961Z</time></trkpt><trkpt lat="44.051829374336855" lon="10.180966516418236"><ele>360.0</ele><time>2026-05-02T07:27:53.961Z</time></trkpt><trkpt lat="44.05188425126479" lon="10.181099805652204"><ele>360.0</ele><time>2026-05-02T07:27:54.961Z</time></trkpt><trkpt lat="44.05194542114595" lon="10.181225607581672"><ele>358.75</ele><time>2026-05-02T07:27:55.961Z</time></trkpt><trkpt lat="44.05198082024737" lon="10.181360892855643"><ele>357.5</ele><time>2026-05-02T07:27:56.961Z</time></trkpt><trkpt lat="44.05203747335324" lon="10.18149498617873"><ele>356.25</ele><time>2026-05-02T07:27:57.961Z</time></trkpt><trkpt lat="44.0521083870267" lon="10.181637734128358"><ele>355.0</ele><time>2026-05-02T07:27:58.961Z</time></trkpt><trkpt lat="44.052176313946575" lon="10.18178739810633"><ele>355.2</ele><time>2026-05-02T07:27:59.961Z</time></trkpt><trkpt lat="44.052252187311154" lon="10.18190317932048"><ele>355.4</ele><time>2026-05-02T07:28:00.961Z</time></trkpt><trkpt lat="44.05231180721174" lon="10.182023261170897"><ele>355.6</ele><time>2026-05-02T07:28:01.961Z</time></trkpt><trkpt lat="44.052351071211255" lon="10.182152418301877"><ele>355.8</ele><time>2026-05-02T07:28:02.961Z</time></trkpt><trkpt lat="44.05238384300751" lon="10.182285356538381"><ele>356.0</ele><time>2026-05-02T07:28:03.961Z</time></trkpt><trkpt lat="44.05236958861586" lon="10.182418130521523"><ele>356.0</ele><time>2026-05-02T07:28:04.961Z</time></trkpt><trkpt lat="44.05230889097522" lon="10.182520244300358"><ele>356.0</ele><time>2026-05-02T07:28:05.961Z</time></trkpt><trkpt lat="44.05221795503393" lon="10.18254328755742"><ele>356.0</ele><time>2026-05-02T07:28:06.961Z</time></trkpt><trkpt lat="44.05213193706817" lon="10.182590699968909"><ele>356.0</ele><time>2026-05-02T07:28:07.961Z</time></trkpt><trkpt lat="44.05203949908046" lon="10.182644350073202"><ele>356.0</ele><time>2026-05-02T07:28:08.961Z</time></trkpt><trkpt lat="44.05195227375609" lon="10.182700935017149"><ele>356.0</ele><time>2026-05-02T07:28:09.961Z</time></trkpt><trkpt lat="44.051871155117695" lon="10.182762671786234"><ele>356.0</ele><time>2026-05-02T07:28:10.961Z</time></trkpt><trkpt lat="44.05179348595041" lon="10.182824209455973"><ele>356.0</ele><time>2026-05-02T07:28:11.961Z</time></trkpt><trkpt lat="44.05170642287129" lon="10.182887438791935"><ele>356.0</ele><time>2026-05-02T07:28:12.961Z</time></trkpt><trkpt lat="44.05164505355126" lon="10.182955149970821"><ele>356.0</ele><time>2026-05-02T07:28:13.961Z</time></trkpt><trkpt lat="44.0515977074229" lon="10.18303566006936"><ele>356.0</ele><time>2026-05-02T07:28:14.961Z</time></trkpt><trkpt lat="44.05157901424067" lon="10.183141428900049"><ele>360.0</ele><time>2026-05-02T07:28:15.961Z</time></trkpt><trkpt lat="44.05159371256406" lon="10.183255358031765"><ele>364.0</ele><time>2026-05-02T07:28:16.961Z</time></trkpt><trkpt lat="44.051628794542644" lon="10.183357022095269"><ele>368.0</ele><time>2026-05-02T07:28:17.961Z</time></trkpt><trkpt lat="44.05167157389875" lon="10.183471563351855"><ele>372.0</ele><time>2026-05-02T07:28:18.961Z</time></trkpt><trkpt lat="44.051750021583324" lon="10.183551017237546"><ele>376.0</ele><time>2026-05-02T07:28:19.961Z</time></trkpt><trkpt lat="44.05184029914315" lon="10.183601159913978"><ele>367.0</ele><time>2026-05-02T07:28:20.961Z</time></trkpt><trkpt lat="44.051919473705304" lon="10.18365520804157"><ele>358.0</ele><time>2026-05-02T07:28:21.961Z</time></trkpt><trkpt lat="44.051993691664386" lon="10.183719563703626"><ele>349.0</ele><time>2026-05-02T07:28:22.961Z</time></trkpt><trkpt lat="44.05206263193845" lon="10.183798375311701"><ele>340.0</ele><time>2026-05-02T07:28:23.961Z</time></trkpt><trkpt lat="44.05212760057704" lon="10.183890616632937"><ele>331.0</ele><time>2026-05-02T07:28:24.961Z</time></trkpt><trkpt lat="44.052184100270225" lon="10.183998431502566"><ele>334.8</ele><time>2026-05-02T07:28:25.961Z</time></trkpt><trkpt lat="44.052226287649894" lon="10.184111769912215"><ele>338.6</ele><time>2026-05-02T07:28:26.961Z</time></trkpt><trkpt lat="44.0522789501455" lon="10.184225567362212"><ele>342.4</ele><time>2026-05-02T07:28:27.961Z</time></trkpt><trkpt lat="44.05229719347035" lon="10.184348799893181"><ele>346.2</ele><time>2026-05-02T07:28:28.961Z</time></trkpt><trkpt lat="44.052299024009635" lon="10.184479048384288"><ele>350.0</ele><time>2026-05-02T07:28:29.961Z</time></trkpt><trkpt lat="44.05227568431919" lon="10.184599847993427"><ele>350.0</ele><time>2026-05-02T07:28:30.961Z</time></trkpt><trkpt lat="44.0522647368843" lon="10.184722254986761"><ele>350.0</ele><time>2026-05-02T07:28:31.961Z</time></trkpt><trkpt lat="44.052268959781806" lon="10.1848441931515"><ele>350.0</ele><time>2026-05-02T07:28:32.961Z</time></trkpt><trkpt lat="44.05228892190137" lon="10.18497158885215"><ele>350.0</ele><time>2026-05-02T07:28:33.961Z</time></trkpt><trkpt lat="44.05229677918383" lon="10.185112389835798"><ele>350.0</ele><time>2026-05-02T07:28:34.961Z</time></trkpt><trkpt lat="44.0523321136691" lon="10.18525284438298"><ele>353.8</ele><time>2026-05-02T07:28:35.961Z</time></trkpt><trkpt lat="44.052334900245945" lon="10.185397522822385"><ele>357.6</ele><time>2026-05-02T07:28:36.961Z</time></trkpt><trkpt lat="44.052351001190054" lon="10.185553954079115"><ele>361.4</ele><time>2026-05-02T07:28:37.961Z</time></trkpt><trkpt lat="44.05235691074957" lon="10.18570654906122"><ele>365.2</ele><time>2026-05-02T07:28:38.961Z</time></trkpt><trkpt lat="44.052349887932294" lon="10.185862592388338"><ele>369.0</ele><time>2026-05-02T07:28:39.961Z</time></trkpt><trkpt lat="44.05232763245625" lon="10.186018269135515"><ele>369.0</ele><time>2026-05-02T07:28:40.961Z</time></trkpt><trkpt lat="44.052305880020036" lon="10.186180956729489"><ele>369.0</ele><time>2026-05-02T07:28:41.961Z</time></trkpt><trkpt lat="44.05229056109917" lon="10.186345759921004"><ele>369.0</ele><time>2026-05-02T07:28:42.961Z</time></trkpt><trkpt lat="44.052268651828" lon="10.186505023235638"><ele>369.0</ele><time>2026-05-02T07:28:43.961Z</time></trkpt><trkpt lat="44.05226693360992" lon="10.18666943864893"><ele>362.25</ele><time>2026-05-02T07:28:44.961Z</time></trkpt><trkpt lat="44.05226281871432" lon="10.186828226523991"><ele>355.5</ele><time>2026-05-02T07:28:45.961Z</time></trkpt><trkpt lat="44.052254323226386" lon="10.186983245420183"><ele>348.75</ele><time>2026-05-02T07:28:46.961Z</time></trkpt><trkpt lat="44.05223169072787" lon="10.18713965630536"><ele>342.0</ele><time>2026-05-02T07:28:47.961Z</time></trkpt><trkpt lat="44.052202082327206" lon="10.187296877364277"><ele>336.75</ele><time>2026-05-02T07:28:48.961Z</time></trkpt><trkpt lat="44.05215972451521" lon="10.187456925442067"><ele>331.5</ele><time>2026-05-02T07:28:49.961Z</time></trkpt><trkpt lat="44.052132413416196" lon="10.187618312917143"><ele>326.25</ele><time>2026-05-02T07:28:50.961Z</time></trkpt><trkpt lat="44.05210875348229" lon="10.187774005707753"><ele>321.0</ele><time>2026-05-02T07:28:51.961Z</time></trkpt><trkpt lat="44.05208213910238" lon="10.187921829472678"><ele>321.0</ele><time>2026-05-02T07:28:52.961Z</time></trkpt><trkpt lat="44.05205354898227" lon="10.188064432879596"><ele>321.0</ele><time>2026-05-02T07:28:53.961Z</time></trkpt><trkpt lat="44.05203004677861" lon="10.188205441578045"><ele>321.0</ele><time>2026-05-02T07:28:54.961Z</time></trkpt><trkpt lat="44.052012360389355" lon="10.18834406226699"><ele>321.0</ele><time>2026-05-02T07:28:55.961Z</time></trkpt><trkpt lat="44.052016453148504" lon="10.188466678184074"><ele>321.0</ele><time>2026-05-02T07:28:56.961Z</time></trkpt><trkpt lat="44.052045783199766" lon="10.188571111679503"><ele>323.3333333333333</ele><time>2026-05-02T07:28:57.961Z</time></trkpt><trkpt lat="44.05210492914202" lon="10.188660141258326"><ele>325.6666666666667</ele><time>2026-05-02T07:28:58.961Z</time></trkpt><trkpt lat="44.05215801766781" lon="10.188745145878343"><ele>328.0</ele><time>2026-05-02T07:28:59.961Z</time></trkpt><trkpt lat="44.05219855850797" lon="10.188834776592856"><ele>330.33333333333337</ele><time>2026-05-02T07:29:00.961Z</time></trkpt><trkpt lat="44.05222094993645" lon="10.188941737623294"><ele>332.6666666666667</ele><time>2026-05-02T07:29:01.961Z</time></trkpt><trkpt lat="44.05225030751078" lon="10.189081466571503"><ele>335.0</ele><time>2026-05-02T07:29:02.961Z</time></trkpt><trkpt lat="44.052238071016205" lon="10.189215504811434"><ele>338.6</ele><time>2026-05-02T07:29:03.961Z</time></trkpt><trkpt lat="44.05223640048553" lon="10.189347099787117"><ele>342.2</ele><time>2026-05-02T07:29:04.961Z</time></trkpt><trkpt lat="44.052239452099" lon="10.1894912988961"><ele>345.79999999999995</ele><time>2026-05-02T07:29:05.961Z</time></trkpt><trkpt lat="44.052254824179954" lon="10.189634701533889"><ele>349.4</ele><time>2026-05-02T07:29:06.961Z</time></trkpt><trkpt lat="44.05226338529582" lon="10.189780910071441"><ele>353.0</ele><time>2026-05-02T07:29:07.961Z</time></trkpt><trkpt lat="44.052282402309565" lon="10.189906782566759"><ele>353.0</ele><time>2026-05-02T07:29:08.961Z</time></trkpt><trkpt lat="44.05228288925823" lon="10.190053971594152"><ele>353.0</ele><time>2026-05-02T07:29:09.961Z</time></trkpt><trkpt lat="44.0522739464627" lon="10.190207614815831"><ele>353.0</ele><time>2026-05-02T07:29:10.961Z</time></trkpt><trkpt lat="44.052232379849" lon="10.19035751864746"><ele>353.0</ele><time>2026-05-02T07:29:11.961Z</time></trkpt><trkpt lat="44.05216733770065" lon="10.190486066207665"><ele>353.0</ele><time>2026-05-02T07:29:12.961Z</time></trkpt><trkpt lat="44.05209610878401" lon="10.190601314109802"><ele>349.5</ele><time>2026-05-02T07:29:13.961Z</time></trkpt><trkpt lat="44.05203550314148" lon="10.190677736813555"><ele>346.0</ele><time>2026-05-02T07:29:14.961Z</time></trkpt><trkpt lat="44.05200752937506" lon="10.19076202169764"><ele>342.5</ele><time>2026-05-02T07:29:15.961Z</time></trkpt><trkpt lat="44.051989573672806" lon="10.190855923928156"><ele>339.0</ele><time>2026-05-02T07:29:16.961Z</time></trkpt><trkpt lat="44.05199477345467" lon="10.190960198893269"><ele>335.5</ele><time>2026-05-02T07:29:17.961Z</time></trkpt><trkpt lat="44.052034638073344" lon="10.19107265224392"><ele>332.0</ele><time>2026-05-02T07:29:18.961Z</time></trkpt><trkpt lat="44.052054384068995" lon="10.191184306021569"><ele>332.0</ele><time>2026-05-02T07:29:19.961Z</time></trkpt><trkpt lat="44.05211155828614" lon="10.191272631934236"><ele>332.0</ele><time>2026-05-02T07:29:20.961Z</time></trkpt><trkpt lat="44.052182687176696" lon="10.191344694241947"><ele>332.0</ele><time>2026-05-02T07:29:21.961Z</time></trkpt><trkpt lat="44.05227786386438" lon="10.191358370256701"><ele>332.0</ele><time>2026-05-02T07:29:22.961Z</time></trkpt><trkpt lat="44.0523677564532" lon="10.191350964972024"><ele>332.0</ele><time>2026-05-02T07:29:23.961Z</time></trkpt><trkpt lat="44.05246082674771" lon="10.191355917481644"><ele>327.40000000000003</ele><time>2026-05-02T07:29:24.961Z</time></trkpt><trkpt lat="44.05254998722157" lon="10.191323270852255"><ele>322.8</ele><time>2026-05-02T07:29:25.961Z</time></trkpt><trkpt lat="44.05261267738695" lon="10.191230437580415"><ele>318.2</ele><time>2026-05-02T07:29:26.961Z</time></trkpt><trkpt lat="44.05268332515202" lon="10.191153232446096"><ele>313.6</ele><time>2026-05-02T07:29:27.96Z</time></trkpt><trkpt lat="44.052744971592844" lon="10.191061708871835"><ele>309.0</ele><time>2026-05-02T07:29:28.96Z</time></trkpt><trkpt lat="44.052798861533006" lon="10.190957577440953"><ele>309.0</ele><time>2026-05-02T07:29:29.96Z</time></trkpt><trkpt lat="44.052871095968804" lon="10.190863369554268"><ele>309.0</ele><time>2026-05-02T07:29:30.96Z</time></trkpt><trkpt lat="44.05293962807696" lon="10.190765833633375"><ele>309.0</ele><time>2026-05-02T07:29:31.96Z</time></trkpt><trkpt lat="44.05300619530315" lon="10.190669102342111"><ele>309.0</ele><time>2026-05-02T07:29:32.96Z</time></trkpt><trkpt lat="44.05307441003072" lon="10.190574008953769"><ele>309.0</ele><time>2026-05-02T07:29:33.96Z</time></trkpt><trkpt lat="44.05313802664876" lon="10.190481007285998"><ele>308.8</ele><time>2026-05-02T07:29:34.96Z</time></trkpt><trkpt lat="44.053193392173796" lon="10.19038447777506"><ele>308.59999999999997</ele><time>2026-05-02T07:29:35.96Z</time></trkpt><trkpt lat="44.05323707530361" lon="10.19026119011778"><ele>308.4</ele><time>2026-05-02T07:29:36.96Z</time></trkpt><trkpt lat="44.053254120150314" lon="10.19011989130397"><ele>308.2</ele><time>2026-05-02T07:29:37.96Z</time></trkpt><trkpt lat="44.05326915544152" lon="10.189973953018862"><ele>308.0</ele><time>2026-05-02T07:29:38.96Z</time></trkpt><trkpt lat="44.0532880164503" lon="10.189829997062622"><ele>309.6</ele><time>2026-05-02T07:29:39.96Z</time></trkpt><trkpt lat="44.05331482783021" lon="10.189682869405964"><ele>311.20000000000005</ele><time>2026-05-02T07:29:40.96Z</time></trkpt><trkpt lat="44.05334077750233" lon="10.189543030168778"><ele>312.8</ele><time>2026-05-02T07:29:41.96Z</time></trkpt><trkpt lat="44.05337543397739" lon="10.189417289877172"><ele>314.40000000000003</ele><time>2026-05-02T07:29:42.96Z</time></trkpt><trkpt lat="44.05343187101295" lon="10.189312076733469"><ele>316.0</ele><time>2026-05-02T07:29:43.96Z</time></trkpt><trkpt lat="44.05349853116739" lon="10.189255392999094"><ele>316.0</ele><time>2026-05-02T07:29:44.96Z</time></trkpt><trkpt lat="44.05358099803153" lon="10.189243166111499"><ele>316.0</ele><time>2026-05-02T07:29:45.96Z</time></trkpt><trkpt lat="44.05366613500856" lon="10.189245223731769"><ele>316.0</ele><time>2026-05-02T07:29:46.96Z</time></trkpt><trkpt lat="44.053758812564766" lon="10.189244256703345"><ele>316.0</ele><time>2026-05-02T07:29:47.96Z</time></trkpt><trkpt lat="44.0538389671923" lon="10.18923980903901"><ele>316.0</ele><time>2026-05-02T07:29:48.96Z</time></trkpt><trkpt lat="44.05390911113326" lon="10.189232444602313"><ele>316.0</ele><time>2026-05-02T07:29:49.96Z</time></trkpt><trkpt lat="44.05397350310402" lon="10.1891921233364"><ele>316.0</ele><time>2026-05-02T07:29:50.96Z</time></trkpt><trkpt lat="44.05401831350276" lon="10.189117414732939"><ele>316.0</ele><time>2026-05-02T07:29:51.96Z</time></trkpt><trkpt lat="44.05403870489503" lon="10.189019408515145"><ele>316.0</ele><time>2026-05-02T07:29:52.96Z</time></trkpt><trkpt lat="44.054047571419346" lon="10.18891101928064"><ele>316.0</ele><time>2026-05-02T07:29:53.96Z</time></trkpt><trkpt lat="44.05401161412821" lon="10.188801398427161"><ele>316.0</ele><time>2026-05-02T07:29:54.96Z</time></trkpt><trkpt lat="44.0539579869475" lon="10.18870034051399"><ele>316.0</ele><time>2026-05-02T07:29:55.96Z</time></trkpt><trkpt lat="44.05389312101264" lon="10.18860587987045"><ele>313.5</ele><time>2026-05-02T07:29:56.96Z</time></trkpt><trkpt lat="44.0538256802915" lon="10.188527427072446"><ele>311.0</ele><time>2026-05-02T07:29:57.96Z</time></trkpt><trkpt lat="44.0537620664589" lon="10.188440606009255"><ele>308.5</ele><time>2026-05-02T07:29:58.96Z</time></trkpt><trkpt lat="44.05372086393231" lon="10.188353068514411"><ele>306.0</ele><time>2026-05-02T07:29:59.96Z</time></trkpt><trkpt lat="44.05370743024172" lon="10.188256661875366"><ele>303.5</ele><time>2026-05-02T07:30:00.96Z</time></trkpt><trkpt lat="44.05374320074901" lon="10.188164578100647"><ele>301.0</ele><time>2026-05-02T07:30:01.96Z</time></trkpt><trkpt lat="44.05377221540977" lon="10.188083147088802"><ele>298.3333333333333</ele><time>2026-05-02T07:30:02.96Z</time></trkpt><trkpt lat="44.05384305866489" lon="10.18802417486818"><ele>295.66666666666663</ele><time>2026-05-02T07:30:03.96Z</time></trkpt><trkpt lat="44.05389801782531" lon="10.187926925518141"><ele>293.0</ele><time>2026-05-02T07:30:04.96Z</time></trkpt><trkpt lat="44.05395648621589" lon="10.18784266731718"><ele>290.3333333333333</ele><time>2026-05-02T07:30:05.96Z</time></trkpt><trkpt lat="44.053991841618256" lon="10.187738622216381"><ele>287.6666666666667</ele><time>2026-05-02T07:30:06.96Z</time></trkpt><trkpt lat="44.05401996951057" lon="10.187623202375509"><ele>285.0</ele><time>2026-05-02T07:30:07.96Z</time></trkpt><trkpt lat="44.05404630678987" lon="10.187509554168903"><ele>285.0</ele><time>2026-05-02T07:30:08.96Z</time></trkpt><trkpt lat="44.054076840316284" lon="10.187392337822201"><ele>285.0</ele><time>2026-05-02T07:30:09.96Z</time></trkpt><trkpt lat="44.0541057720054" lon="10.1872786659918"><ele>285.0</ele><time>2026-05-02T07:30:10.96Z</time></trkpt><trkpt lat="44.05413935261101" lon="10.187167438260264"><ele>285.0</ele><time>2026-05-02T07:30:11.96Z</time></trkpt><trkpt lat="44.054173742427594" lon="10.187063898256765"><ele>285.0</ele><time>2026-05-02T07:30:12.96Z</time></trkpt><trkpt lat="44.05419855079585" lon="10.186949659666514"><ele>285.0</ele><time>2026-05-02T07:30:13.96Z</time></trkpt><trkpt lat="44.05421269503401" lon="10.186819984753493"><ele>292.0</ele><time>2026-05-02T07:30:14.96Z</time></trkpt><trkpt lat="44.05422089656185" lon="10.186678263900335"><ele>299.0</ele><time>2026-05-02T07:30:15.96Z</time></trkpt><trkpt lat="44.05422984117425" lon="10.18653065977759"><ele>306.0</ele><time>2026-05-02T07:30:16.96Z</time></trkpt><trkpt lat="44.05424236060731" lon="10.18638557118414"><ele>313.0</ele><time>2026-05-02T07:30:17.96Z</time></trkpt><trkpt lat="44.054265813373036" lon="10.18625249009877"><ele>320.0</ele><time>2026-05-02T07:30:18.96Z</time></trkpt><trkpt lat="44.05429887469267" lon="10.186124391984617"><ele>320.0</ele><time>2026-05-02T07:30:19.96Z</time></trkpt><trkpt lat="44.054341212092496" lon="10.186001496832521"><ele>320.0</ele><time>2026-05-02T07:30:20.96Z</time></trkpt><trkpt lat="44.05437929903328" lon="10.185863380366257"><ele>320.0</ele><time>2026-05-02T07:30:21.96Z</time></trkpt><trkpt lat="44.0544249937821" lon="10.185725013443072"><ele>320.0</ele><time>2026-05-02T07:30:22.96Z</time></trkpt><trkpt lat="44.05445346541183" lon="10.185577990498482"><ele>320.0</ele><time>2026-05-02T07:30:23.96Z</time></trkpt><trkpt lat="44.054486280562195" lon="10.185424216827126"><ele>318.6</ele><time>2026-05-02T07:30:24.96Z</time></trkpt><trkpt lat="44.05452297077312" lon="10.185267018429474"><ele>317.2</ele><time>2026-05-02T07:30:25.96Z</time></trkpt><trkpt lat="44.05456190077699" lon="10.185116554113394"><ele>315.8</ele><time>2026-05-02T07:30:26.96Z</time></trkpt><trkpt lat="44.054581517344864" lon="10.184982694548914"><ele>314.4</ele><time>2026-05-02T07:30:27.96Z</time></trkpt><trkpt lat="44.05460547772799" lon="10.18488653486576"><ele>313.0</ele><time>2026-05-02T07:30:28.96Z</time></trkpt><trkpt lat="44.054642129854116" lon="10.184739655916015"><ele>316.0</ele><time>2026-05-02T07:30:30.96Z</time></trkpt><trkpt lat="44.05468002922559" lon="10.184592366501692"><ele>319.0</ele><time>2026-05-02T07:30:32.96Z</time></trkpt><trkpt lat="44.05472359201311" lon="10.184527960644902"><ele>322.0</ele><time>2026-05-02T07:30:33.96Z</time></trkpt><trkpt lat="44.054787589293184" lon="10.184459970404458"><ele>325.0</ele><time>2026-05-02T07:30:34.96Z</time></trkpt><trkpt lat="44.05485854632371" lon="10.184397882165234"><ele>328.0</ele><time>2026-05-02T07:30:35.96Z</time></trkpt><trkpt lat="44.054940987529946" lon="10.184345769941"><ele>331.0</ele><time>2026-05-02T07:30:36.96Z</time></trkpt><trkpt lat="44.05502543863256" lon="10.18430306258974"><ele>331.0</ele><time>2026-05-02T07:30:37.96Z</time></trkpt><trkpt lat="44.05510665926277" lon="10.18426571384597"><ele>331.0</ele><time>2026-05-02T07:30:38.96Z</time></trkpt><trkpt lat="44.05518896645505" lon="10.184243418194706"><ele>331.0</ele><time>2026-05-02T07:30:39.96Z</time></trkpt><trkpt lat="44.05527048662694" lon="10.184247850490141"><ele>331.0</ele><time>2026-05-02T07:30:40.96Z</time></trkpt><trkpt lat="44.0553417331135" lon="10.184255737313382"><ele>331.0</ele><time>2026-05-02T07:30:41.96Z</time></trkpt><trkpt lat="44.05541005828041" lon="10.184293721154308"><ele>331.0</ele><time>2026-05-02T07:30:42.96Z</time></trkpt><trkpt lat="44.05547151940351" lon="10.184315311865872"><ele>331.0</ele><time>2026-05-02T07:30:43.96Z</time></trkpt><trkpt lat="44.05553471253486" lon="10.184305246443211"><ele>331.0</ele><time>2026-05-02T07:30:44.96Z</time></trkpt><trkpt lat="44.05564376973678" lon="10.184244531443845"><ele>331.0</ele><time>2026-05-02T07:30:46.96Z</time></trkpt><trkpt lat="44.05567828328065" lon="10.184165860746127"><ele>331.0</ele><time>2026-05-02T07:30:47.96Z</time></trkpt><trkpt lat="44.05570543667214" lon="10.184038055545406"><ele>331.0</ele><time>2026-05-02T07:30:49.96Z</time></trkpt><trkpt lat="44.05572301064164" lon="10.183924375628402"><ele>331.0</ele><time>2026-05-02T07:30:51.96Z</time></trkpt><trkpt lat="44.05572934367333" lon="10.183739135377293"><ele>328.40000000000003</ele><time>2026-05-02T07:30:53.96Z</time></trkpt><trkpt lat="44.05571473281197" lon="10.183619875357778"><ele>325.8</ele><time>2026-05-02T07:30:54.96Z</time></trkpt><trkpt lat="44.05567727238269" lon="10.183494598108226"><ele>323.20000000000005</ele><time>2026-05-02T07:30:55.96Z</time></trkpt><trkpt lat="44.05563312452986" lon="10.183365847081282"><ele>320.6</ele><time>2026-05-02T07:30:56.96Z</time></trkpt><trkpt lat="44.055586817785304" lon="10.183232109923317"><ele>318.0</ele><time>2026-05-02T07:30:57.96Z</time></trkpt><trkpt lat="44.05554600630038" lon="10.183105507502745"><ele>318.0</ele><time>2026-05-02T07:30:58.96Z</time></trkpt><trkpt lat="44.05551568383558" lon="10.182983774502226"><ele>318.0</ele><time>2026-05-02T07:30:59.96Z</time></trkpt><trkpt lat="44.05549744760641" lon="10.182862479906152"><ele>318.0</ele><time>2026-05-02T07:31:00.96Z</time></trkpt><trkpt lat="44.05548593177964" lon="10.182736426940687"><ele>318.0</ele><time>2026-05-02T07:31:01.96Z</time></trkpt><trkpt lat="44.055483353354454" lon="10.182606047043175"><ele>318.0</ele><time>2026-05-02T07:31:02.96Z</time></trkpt><trkpt lat="44.05549181549157" lon="10.182472546037287"><ele>317.8</ele><time>2026-05-02T07:31:03.96Z</time></trkpt><trkpt lat="44.055509496749366" lon="10.182331059631379"><ele>317.6</ele><time>2026-05-02T07:31:04.96Z</time></trkpt><trkpt lat="44.05553798667065" lon="10.182198453936651"><ele>317.4</ele><time>2026-05-02T07:31:05.96Z</time></trkpt><trkpt lat="44.05557349206088" lon="10.18207284537635"><ele>317.2</ele><time>2026-05-02T07:31:06.96Z</time></trkpt><trkpt lat="44.05560575552327" lon="10.181958452149784"><ele>317.0</ele><time>2026-05-02T07:31:07.96Z</time></trkpt><trkpt lat="44.05567226241953" lon="10.181884268309123"><ele>317.0</ele><time>2026-05-02T07:31:08.96Z</time></trkpt><trkpt lat="44.05575061333098" lon="10.18183008355851"><ele>317.0</ele><time>2026-05-02T07:31:09.96Z</time></trkpt><trkpt lat="44.0558428988444" lon="10.181804916974816"><ele>317.0</ele><time>2026-05-02T07:31:10.96Z</time></trkpt><trkpt lat="44.05594071858049" lon="10.181805544418188"><ele>317.0</ele><time>2026-05-02T07:31:11.96Z</time></trkpt><trkpt lat="44.05603276402988" lon="10.181843991230437"><ele>317.0</ele><time>2026-05-02T07:31:12.96Z</time></trkpt><trkpt lat="44.056122575235044" lon="10.18191018762525"><ele>325.0</ele><time>2026-05-02T07:31:13.96Z</time></trkpt><trkpt lat="44.05621116114212" lon="10.181991468242366"><ele>333.0</ele><time>2026-05-02T07:31:14.96Z</time></trkpt><trkpt lat="44.056315786582985" lon="10.18206627184138"><ele>341.0</ele><time>2026-05-02T07:31:15.96Z</time></trkpt><trkpt lat="44.05641812227836" lon="10.18214449260639"><ele>349.0</ele><time>2026-05-02T07:31:16.96Z</time></trkpt><trkpt lat="44.05652483218176" lon="10.182221156606127"><ele>349.79999999999995</ele><time>2026-05-02T07:31:17.96Z</time></trkpt><trkpt lat="44.05662918645299" lon="10.182307551363328"><ele>350.59999999999997</ele><time>2026-05-02T07:31:18.96Z</time></trkpt><trkpt lat="44.05672100100685" lon="10.18239585567043"><ele>351.4</ele><time>2026-05-02T07:31:19.96Z</time></trkpt><trkpt lat="44.05680739744123" lon="10.182486205323666"><ele>352.2</ele><time>2026-05-02T07:31:20.96Z</time></trkpt><trkpt lat="44.056891426858" lon="10.182562319020718"><ele>353.0</ele><time>2026-05-02T07:31:21.96Z</time></trkpt><trkpt lat="44.05697618842711" lon="10.182623816427206"><ele>357.5</ele><time>2026-05-02T07:31:22.96Z</time></trkpt><trkpt lat="44.057066559537084" lon="10.182658673740459"><ele>362.0</ele><time>2026-05-02T07:31:23.96Z</time></trkpt><trkpt lat="44.05714920828528" lon="10.182667906316022"><ele>366.5</ele><time>2026-05-02T07:31:24.96Z</time></trkpt><trkpt lat="44.05722500780555" lon="10.182643047026598"><ele>371.0</ele><time>2026-05-02T07:31:25.96Z</time></trkpt><trkpt lat="44.05728227146703" lon="10.182571044773994"><ele>375.5</ele><time>2026-05-02T07:31:26.96Z</time></trkpt><trkpt lat="44.057323866155315" lon="10.182489315343416"><ele>380.0</ele><time>2026-05-02T07:31:27.96Z</time></trkpt><trkpt lat="44.05734639571357" lon="10.182378620255946"><ele>374.6</ele><time>2026-05-02T07:31:28.96Z</time></trkpt><trkpt lat="44.0573527793812" lon="10.1822717957488"><ele>369.2</ele><time>2026-05-02T07:31:29.96Z</time></trkpt><trkpt lat="44.05735878622957" lon="10.182149441701235"><ele>363.79999999999995</ele><time>2026-05-02T07:31:30.96Z</time></trkpt><trkpt lat="44.057348066221756" lon="10.182026511349736"><ele>358.4</ele><time>2026-05-02T07:31:31.96Z</time></trkpt><trkpt lat="44.05733924869057" lon="10.181919943692035"><ele>353.0</ele><time>2026-05-02T07:31:32.96Z</time></trkpt><trkpt lat="44.05737177715292" lon="10.181743508159968"><ele>353.0</ele><time>2026-05-02T07:31:34.958Z</time></trkpt><trkpt lat="44.05744195549996" lon="10.181674155554758"><ele>353.0</ele><time>2026-05-02T07:31:35.958Z</time></trkpt><trkpt lat="44.057527232661734" lon="10.181638357709803"><ele>353.0</ele><time>2026-05-02T07:31:36.958Z</time></trkpt><trkpt lat="44.05762102737648" lon="10.18158508647915"><ele>353.0</ele><time>2026-05-02T07:31:37.959Z</time></trkpt><trkpt lat="44.05771377715877" lon="10.181529296426094"><ele>353.0</ele><time>2026-05-02T07:31:38.959Z</time></trkpt><trkpt lat="44.057804214559745" lon="10.181460636737635"><ele>353.0</ele><time>2026-05-02T07:31:39.958Z</time></trkpt><trkpt lat="44.05790980074786" lon="10.181397288139376"><ele>353.0</ele><time>2026-05-02T07:31:40.958Z</time></trkpt><trkpt lat="44.05801383418362" lon="10.181335438372484"><ele>353.0</ele><time>2026-05-02T07:31:41.958Z</time></trkpt><trkpt lat="44.05813086563198" lon="10.18128846239151"><ele>353.0</ele><time>2026-05-02T07:31:42.959Z</time></trkpt><trkpt lat="44.058243684159805" lon="10.18121175137389"><ele>357.0</ele><time>2026-05-02T07:31:43.958Z</time></trkpt><trkpt lat="44.05835021634396" lon="10.18114739728064"><ele>361.0</ele><time>2026-05-02T07:31:44.958Z</time></trkpt><trkpt lat="44.05845275997637" lon="10.181084671347474"><ele>365.0</ele><time>2026-05-02T07:31:45.958Z</time></trkpt><trkpt lat="44.05855663741141" lon="10.181024041722758"><ele>369.0</ele><time>2026-05-02T07:31:46.958Z</time></trkpt><trkpt lat="44.05864928275658" lon="10.180970416852105"><ele>373.0</ele><time>2026-05-02T07:31:47.958Z</time></trkpt><trkpt lat="44.0587337600017" lon="10.18092997887716"><ele>373.0</ele><time>2026-05-02T07:31:48.958Z</time></trkpt><trkpt lat="44.05881724867199" lon="10.18088505209199"><ele>373.0</ele><time>2026-05-02T07:31:49.958Z</time></trkpt><trkpt lat="44.058893222391255" lon="10.180822340068918"><ele>373.0</ele><time>2026-05-02T07:31:50.958Z</time></trkpt><trkpt lat="44.05896455644712" lon="10.18074907041295"><ele>373.0</ele><time>2026-05-02T07:31:51.958Z</time></trkpt><trkpt lat="44.05903430785593" lon="10.180681316354912"><ele>373.0</ele><time>2026-05-02T07:31:52.958Z</time></trkpt><trkpt lat="44.059107479084645" lon="10.180608151686041"><ele>373.0</ele><time>2026-05-02T07:31:53.958Z</time></trkpt><trkpt lat="44.0591807610981" lon="10.180526450053755"><ele>374.59999999999997</ele><time>2026-05-02T07:31:54.958Z</time></trkpt><trkpt lat="44.059247471920266" lon="10.180434256652857"><ele>376.2</ele><time>2026-05-02T07:31:55.958Z</time></trkpt><trkpt lat="44.05930513097524" lon="10.180332967723619"><ele>377.8</ele><time>2026-05-02T07:31:56.958Z</time></trkpt><trkpt lat="44.05936047399289" lon="10.180228546895767"><ele>379.4</ele><time>2026-05-02T07:31:57.958Z</time></trkpt><trkpt lat="44.05941330585205" lon="10.180113962618604"><ele>381.0</ele><time>2026-05-02T07:31:58.958Z</time></trkpt><trkpt lat="44.05946175196714" lon="10.1800046264979"><ele>381.0</ele><time>2026-05-02T07:31:59.958Z</time></trkpt><trkpt lat="44.059503150372116" lon="10.179884557499843"><ele>381.0</ele><time>2026-05-02T07:32:00.958Z</time></trkpt><trkpt lat="44.059544504297094" lon="10.179763312882338"><ele>381.0</ele><time>2026-05-02T07:32:01.958Z</time></trkpt><trkpt lat="44.05959081952656" lon="10.17964510278874"><ele>381.0</ele><time>2026-05-02T07:32:02.958Z</time></trkpt><trkpt lat="44.05963383757522" lon="10.179521961982289"><ele>381.0</ele><time>2026-05-02T07:32:03.958Z</time></trkpt><trkpt lat="44.05970389283128" lon="10.179270071143165"><ele>380.5</ele><time>2026-05-02T07:32:05.958Z</time></trkpt><trkpt lat="44.05974089522913" lon="10.179153023294246"><ele>380.0</ele><time>2026-05-02T07:32:06.958Z</time></trkpt><trkpt lat="44.05978707487112" lon="10.179047046366525"><ele>379.5</ele><time>2026-05-02T07:32:07.958Z</time></trkpt><trkpt lat="44.05983922727455" lon="10.178942236761921"><ele>379.0</ele><time>2026-05-02T07:32:08.958Z</time></trkpt><trkpt lat="44.05989274179353" lon="10.178853614479307"><ele>378.5</ele><time>2026-05-02T07:32:09.958Z</time></trkpt><trkpt lat="44.05995165055116" lon="10.178799933798402"><ele>378.0</ele><time>2026-05-02T07:32:10.958Z</time></trkpt><trkpt lat="44.060012412181834" lon="10.178773142209808"><ele>378.0</ele><time>2026-05-02T07:32:11.958Z</time></trkpt><trkpt lat="44.0601051580476" lon="10.178864106484616"><ele>378.0</ele><time>2026-05-02T07:32:13.958Z</time></trkpt><trkpt lat="44.06017015471461" lon="10.178910231921"><ele>378.0</ele><time>2026-05-02T07:32:14.958Z</time></trkpt><trkpt lat="44.0602298749022" lon="10.178952901323632"><ele>378.0</ele><time>2026-05-02T07:32:15.958Z</time></trkpt><trkpt lat="44.060299394381175" lon="10.178998160785433"><ele>378.0</ele><time>2026-05-02T07:32:16.958Z</time></trkpt><trkpt lat="44.060370145261075" lon="10.179021099286995"><ele>378.0</ele><time>2026-05-02T07:32:17.958Z</time></trkpt><trkpt lat="44.06043762857966" lon="10.179016042865225"><ele>378.0</ele><time>2026-05-02T07:32:18.958Z</time></trkpt><trkpt lat="44.06053006148261" lon="10.178953376004287"><ele>378.0</ele><time>2026-05-02T07:32:20.958Z</time></trkpt><trkpt lat="44.060569728462355" lon="10.178877268193292"><ele>378.0</ele><time>2026-05-02T07:32:21.958Z</time></trkpt><trkpt lat="44.06058683880587" lon="10.178764381858306"><ele>378.0</ele><time>2026-05-02T07:32:22.958Z</time></trkpt><trkpt lat="44.060598283582586" lon="10.178654579199547"><ele>378.0</ele><time>2026-05-02T07:32:23.958Z</time></trkpt><trkpt lat="44.06060981692707" lon="10.178540775716861"><ele>378.0</ele><time>2026-05-02T07:32:24.958Z</time></trkpt><trkpt lat="44.06062070090262" lon="10.178403380818272"><ele>378.0</ele><time>2026-05-02T07:32:25.958Z</time></trkpt><trkpt lat="44.060638864782845" lon="10.178263219478929"><ele>378.0</ele><time>2026-05-02T07:32:26.958Z</time></trkpt><trkpt lat="44.060656398083765" lon="10.178124915215328"><ele>378.0</ele><time>2026-05-02T07:32:27.958Z</time></trkpt><trkpt lat="44.06067587199563" lon="10.177997521802439"><ele>378.0</ele><time>2026-05-02T07:32:28.958Z</time></trkpt><trkpt lat="44.06068269020323" lon="10.177871226787051"><ele>378.0</ele><time>2026-05-02T07:32:29.958Z</time></trkpt><trkpt lat="44.06065345333654" lon="10.177624642178479"><ele>381.14285714285717</ele><time>2026-05-02T07:32:31.958Z</time></trkpt><trkpt lat="44.06064220616811" lon="10.177520079986534"><ele>384.2857142857143</ele><time>2026-05-02T07:32:32.958Z</time></trkpt><trkpt lat="44.06065419091395" lon="10.177433760927586"><ele>387.42857142857144</ele><time>2026-05-02T07:32:33.958Z</time></trkpt><trkpt lat="44.060679412821365" lon="10.177352305825632"><ele>390.57142857142856</ele><time>2026-05-02T07:32:34.958Z</time></trkpt><trkpt lat="44.060735894026024" lon="10.177289853868267"><ele>393.7142857142857</ele><time>2026-05-02T07:32:35.958Z</time></trkpt><trkpt lat="44.06079908380597" lon="10.177234204328727"><ele>396.8571428571429</ele><time>2026-05-02T07:32:36.958Z</time></trkpt><trkpt lat="44.06086490274297" lon="10.177189760140136"><ele>400.0</ele><time>2026-05-02T07:32:37.958Z</time></trkpt><trkpt lat="44.060936460880804" lon="10.177067649858166"><ele>400.00000000000006</ele><time>2026-05-02T07:32:39.958Z</time></trkpt><trkpt lat="44.06096814383897" lon="10.176919625493385"><ele>400.0</ele><time>2026-05-02T07:32:41.958Z</time></trkpt><trkpt lat="44.06097736785774" lon="10.176767461769328"><ele>400.0</ele><time>2026-05-02T07:32:43.958Z</time></trkpt><trkpt lat="44.06098102723265" lon="10.176677097585435"><ele>400.0</ele><time>2026-05-02T07:32:44.958Z</time></trkpt><trkpt lat="44.060982596108474" lon="10.176577211033381"><ele>400.00000000000006</ele><time>2026-05-02T07:32:45.958Z</time></trkpt><trkpt lat="44.06098687243508" lon="10.176466561163426"><ele>400.0</ele><time>2026-05-02T07:32:46.958Z</time></trkpt><trkpt lat="44.06098459577891" lon="10.176350006449939"><ele>398.83333333333337</ele><time>2026-05-02T07:32:47.958Z</time></trkpt><trkpt lat="44.06098428727961" lon="10.176229964664934"><ele>397.6666666666667</ele><time>2026-05-02T07:32:48.958Z</time></trkpt><trkpt lat="44.06099225206666" lon="10.176109009035798"><ele>396.5</ele><time>2026-05-02T07:32:49.958Z</time></trkpt><trkpt lat="44.061002234588436" lon="10.17599274879293"><ele>395.33333333333337</ele><time>2026-05-02T07:32:50.958Z</time></trkpt><trkpt lat="44.06101089530647" lon="10.175886117757651"><ele>394.1666666666667</ele><time>2026-05-02T07:32:51.958Z</time></trkpt><trkpt lat="44.06102147728491" lon="10.175785217708965"><ele>393.0</ele><time>2026-05-02T07:32:52.958Z</time></trkpt><trkpt lat="44.06102243621262" lon="10.17569277234598"><ele>393.0</ele><time>2026-05-02T07:32:53.958Z</time></trkpt><trkpt lat="44.06101048945356" lon="10.175533342174544"><ele>393.0</ele><time>2026-05-02T07:32:55.958Z</time></trkpt><trkpt lat="44.061039346374244" lon="10.17544171430818"><ele>393.0</ele><time>2026-05-02T07:32:57.958Z</time></trkpt><trkpt lat="44.06111640151163" lon="10.175482352777772"><ele>393.0</ele><time>2026-05-02T07:32:59.958Z</time></trkpt><trkpt lat="44.061056136702206" lon="10.17559513391105"><ele>393.0</ele><time>2026-05-02T07:33:01.958Z</time></trkpt><trkpt lat="44.0610452392337" lon="10.175692196944318"><ele>393.0</ele><time>2026-05-02T07:33:02.958Z</time></trkpt><trkpt lat="44.06104706468469" lon="10.175784537252833"><ele>393.0</ele><time>2026-05-02T07:33:03.958Z</time></trkpt><trkpt lat="44.061057833263966" lon="10.17588514236586"><ele>393.0</ele><time>2026-05-02T07:33:04.958Z</time></trkpt><trkpt lat="44.06105905770134" lon="10.175984204086237"><ele>393.0</ele><time>2026-05-02T07:33:05.958Z</time></trkpt><trkpt lat="44.06105139967397" lon="10.17609168178984"><ele>393.0</ele><time>2026-05-02T07:33:06.958Z</time></trkpt><trkpt lat="44.06104860963694" lon="10.176192078397206"><ele>393.0</ele><time>2026-05-02T07:33:07.958Z</time></trkpt><trkpt lat="44.061045444128325" lon="10.176308998103972"><ele>393.0</ele><time>2026-05-02T07:33:08.958Z</time></trkpt><trkpt lat="44.061052796338004" lon="10.176424278059475"><ele>394.1666666666667</ele><time>2026-05-02T07:33:09.958Z</time></trkpt><trkpt lat="44.06106189149122" lon="10.176543688710302"><ele>395.33333333333337</ele><time>2026-05-02T07:33:10.958Z</time></trkpt><trkpt lat="44.06106705713205" lon="10.176651013222784"><ele>396.5</ele><time>2026-05-02T07:33:11.958Z</time></trkpt><trkpt lat="44.06107201026855" lon="10.17676214301008"><ele>397.6666666666667</ele><time>2026-05-02T07:33:12.958Z</time></trkpt><trkpt lat="44.06107569940594" lon="10.176871711163546"><ele>398.83333333333337</ele><time>2026-05-02T07:33:13.958Z</time></trkpt><trkpt lat="44.06106319929219" lon="10.176976964468597"><ele>400.0</ele><time>2026-05-02T07:33:14.958Z</time></trkpt><trkpt lat="44.06103810841436" lon="10.177115112406447"><ele>400.00000000000006</ele><time>2026-05-02T07:33:16.958Z</time></trkpt><trkpt lat="44.06102850591821" lon="10.177224906439212"><ele>400.0</ele><time>2026-05-02T07:33:18.958Z</time></trkpt><trkpt lat="44.060970234910606" lon="10.177361949976742"><ele>400.0</ele><time>2026-05-02T07:33:20.958Z</time></trkpt><trkpt lat="44.0609236779375" lon="10.177436437505433"><ele>400.0</ele><time>2026-05-02T07:33:21.958Z</time></trkpt><trkpt lat="44.06088015290624" lon="10.17751367734689"><ele>400.00000000000006</ele><time>2026-05-02T07:33:22.958Z</time></trkpt><trkpt lat="44.06086776012965" lon="10.177606625169586"><ele>400.0</ele><time>2026-05-02T07:33:23.958Z</time></trkpt><trkpt lat="44.0608730368874" lon="10.177705848941207"><ele>402.4</ele><time>2026-05-02T07:33:24.958Z</time></trkpt><trkpt lat="44.060904428572414" lon="10.177809862842803"><ele>404.8</ele><time>2026-05-02T07:33:25.958Z</time></trkpt><trkpt lat="44.06092836855685" lon="10.177911327951941"><ele>407.20000000000005</ele><time>2026-05-02T07:33:26.958Z</time></trkpt><trkpt lat="44.060943296413235" lon="10.17803575319562"><ele>409.6</ele><time>2026-05-02T07:33:27.958Z</time></trkpt><trkpt lat="44.06093904375892" lon="10.178174916236477"><ele>412.0</ele><time>2026-05-02T07:33:28.958Z</time></trkpt><trkpt lat="44.06094519975931" lon="10.17831870000104"><ele>415.6</ele><time>2026-05-02T07:33:29.958Z</time></trkpt><trkpt lat="44.06092797111659" lon="10.178456185060028"><ele>419.20000000000005</ele><time>2026-05-02T07:33:30.958Z</time></trkpt><trkpt lat="44.06093283039627" lon="10.178590054146381"><ele>422.8</ele><time>2026-05-02T07:33:31.958Z</time></trkpt><trkpt lat="44.06095169137869" lon="10.178722768061203"><ele>426.4</ele><time>2026-05-02T07:33:32.958Z</time></trkpt><trkpt lat="44.06094759273405" lon="10.17886190364148"><ele>430.0</ele><time>2026-05-02T07:33:33.958Z</time></trkpt><trkpt lat="44.06095739293078" lon="10.1789869387228"><ele>427.00000000000006</ele><time>2026-05-02T07:33:34.958Z</time></trkpt><trkpt lat="44.06096956744269" lon="10.179102488464268"><ele>424.0</ele><time>2026-05-02T07:33:35.958Z</time></trkpt><trkpt lat="44.06096100370167" lon="10.179212763598455"><ele>421.0</ele><time>2026-05-02T07:33:36.958Z</time></trkpt><trkpt lat="44.060922709384855" lon="10.179314085802764"><ele>418.0</ele><time>2026-05-02T07:33:37.958Z</time></trkpt><trkpt lat="44.06086992407457" lon="10.17942097959075"><ele>415.00000000000006</ele><time>2026-05-02T07:33:38.958Z</time></trkpt><trkpt lat="44.060799386513864" lon="10.179501540171824"><ele>412.0</ele><time>2026-05-02T07:33:39.956Z</time></trkpt><trkpt lat="44.060711218523316" lon="10.179544407688937"><ele>412.00000000000006</ele><time>2026-05-02T07:33:40.956Z</time></trkpt><trkpt lat="44.06061280496165" lon="10.179575885415645"><ele>412.0</ele><time>2026-05-02T07:33:41.956Z</time></trkpt><trkpt lat="44.06051051954802" lon="10.179584053289085"><ele>412.0</ele><time>2026-05-02T07:33:42.956Z</time></trkpt><trkpt lat="44.060420475817054" lon="10.1795591782044"><ele>412.0</ele><time>2026-05-02T07:33:43.956Z</time></trkpt><trkpt lat="44.06033869858981" lon="10.179534145051106"><ele>412.00000000000006</ele><time>2026-05-02T07:33:44.956Z</time></trkpt><trkpt lat="44.06026904953017" lon="10.179536674762376"><ele>412.0</ele><time>2026-05-02T07:33:45.956Z</time></trkpt><trkpt lat="44.06020061569049" lon="10.179582556731678"><ele>412.00000000000006</ele><time>2026-05-02T07:33:46.956Z</time></trkpt><trkpt lat="44.060149834181466" lon="10.179656528118361"><ele>412.0</ele><time>2026-05-02T07:33:47.956Z</time></trkpt><trkpt lat="44.06013723992934" lon="10.179767363271461"><ele>412.0</ele><time>2026-05-02T07:33:48.957Z</time></trkpt><trkpt lat="44.06015568529456" lon="10.179906122482082"><ele>412.0</ele><time>2026-05-02T07:33:49.956Z</time></trkpt><trkpt lat="44.060161618481466" lon="10.180034245772925"><ele>412.00000000000006</ele><time>2026-05-02T07:33:50.956Z</time></trkpt><trkpt lat="44.06018265492001" lon="10.180168109450285"><ele>412.0</ele><time>2026-05-02T07:33:51.956Z</time></trkpt><trkpt lat="44.06020336485166" lon="10.180301936523154"><ele>415.5</ele><time>2026-05-02T07:33:52.956Z</time></trkpt><trkpt lat="44.06023034127221" lon="10.180441918454951"><ele>419.0</ele><time>2026-05-02T07:33:53.956Z</time></trkpt><trkpt lat="44.06023555136486" lon="10.180598482270733"><ele>422.5</ele><time>2026-05-02T07:33:54.956Z</time></trkpt><trkpt lat="44.060242033409956" lon="10.180759843581463"><ele>426.0</ele><time>2026-05-02T07:33:55.956Z</time></trkpt><trkpt lat="44.06023719237979" lon="10.180924193403298"><ele>429.25</ele><time>2026-05-02T07:33:56.956Z</time></trkpt><trkpt lat="44.06022582858578" lon="10.181081985656514"><ele>432.5</ele><time>2026-05-02T07:33:57.956Z</time></trkpt><trkpt lat="44.06020388322654" lon="10.181227026552715"><ele>435.75</ele><time>2026-05-02T07:33:58.956Z</time></trkpt><trkpt lat="44.06016938783475" lon="10.181374501306514"><ele>439.0</ele><time>2026-05-02T07:33:59.956Z</time></trkpt><trkpt lat="44.060115011785854" lon="10.181523651031803"><ele>443.25</ele><time>2026-05-02T07:34:00.957Z</time></trkpt><trkpt lat="44.06005509732771" lon="10.181675776362338"><ele>447.5</ele><time>2026-05-02T07:34:01.957Z</time></trkpt><trkpt lat="44.05999176502871" lon="10.181821197035712"><ele>451.75</ele><time>2026-05-02T07:34:02.958Z</time></trkpt><trkpt lat="44.05992663935281" lon="10.181960572359428"><ele>456.0</ele><time>2026-05-02T07:34:03.958Z</time></trkpt><trkpt lat="44.059859084822676" lon="10.182089469678813"><ele>453.6</ele><time>2026-05-02T07:34:04.959Z</time></trkpt><trkpt lat="44.059803507200016" lon="10.182209965690738"><ele>451.20000000000005</ele><time>2026-05-02T07:34:05.959Z</time></trkpt><trkpt lat="44.05973426111887" lon="10.182307804556688"><ele>448.79999999999995</ele><time>2026-05-02T07:34:06.96Z</time></trkpt><trkpt lat="44.059681727037564" lon="10.182419623758589"><ele>446.4</ele><time>2026-05-02T07:34:07.96Z</time></trkpt><trkpt lat="44.05962988260929" lon="10.182534424935973"><ele>444.0</ele><time>2026-05-02T07:34:08.96Z</time></trkpt><trkpt lat="44.05958041855885" lon="10.18263102413495"><ele>444.0</ele><time>2026-05-02T07:34:09.961Z</time></trkpt><trkpt lat="44.05952909631466" lon="10.182715636854768"><ele>444.0</ele><time>2026-05-02T07:34:10.961Z</time></trkpt><trkpt lat="44.05948201361527" lon="10.182790209679373"><ele>444.0</ele><time>2026-05-02T07:34:11.961Z</time></trkpt><trkpt lat="44.05945323144731" lon="10.182873439715056"><ele>444.0</ele><time>2026-05-02T07:34:12.962Z</time></trkpt><trkpt lat="44.05945773062346" lon="10.182973637108763"><ele>444.0</ele><time>2026-05-02T07:34:13.962Z</time></trkpt><trkpt lat="44.059519519903205" lon="10.183165433439807"><ele>444.0</ele><time>2026-05-02T07:34:15.962Z</time></trkpt><trkpt lat="44.059557174893015" lon="10.18324721127451"><ele>445.3333333333333</ele><time>2026-05-02T07:34:16.962Z</time></trkpt><trkpt lat="44.05960056361732" lon="10.183339323742684"><ele>446.66666666666663</ele><time>2026-05-02T07:34:17.963Z</time></trkpt><trkpt lat="44.05962947539015" lon="10.183437099445108"><ele>448.0</ele><time>2026-05-02T07:34:18.963Z</time></trkpt><trkpt lat="44.05965552051434" lon="10.183543194444905"><ele>449.3333333333333</ele><time>2026-05-02T07:34:19.963Z</time></trkpt><trkpt lat="44.059667451793295" lon="10.183651264454998"><ele>450.66666666666663</ele><time>2026-05-02T07:34:20.963Z</time></trkpt><trkpt lat="44.059659081259106" lon="10.183754785604673"><ele>452.0</ele><time>2026-05-02T07:34:21.963Z</time></trkpt><trkpt lat="44.05963566227136" lon="10.183847201033306"><ele>451.99999999999994</ele><time>2026-05-02T07:34:22.963Z</time></trkpt><trkpt lat="44.05959175452887" lon="10.18393221124418"><ele>452.0</ele><time>2026-05-02T07:34:23.964Z</time></trkpt><trkpt lat="44.05953630932083" lon="10.184017537373487"><ele>452.0</ele><time>2026-05-02T07:34:24.964Z</time></trkpt><trkpt lat="44.05946841342246" lon="10.184097936969753"><ele>452.0</ele><time>2026-05-02T07:34:25.964Z</time></trkpt><trkpt lat="44.05939435167734" lon="10.184177169715323"><ele>451.99999999999994</ele><time>2026-05-02T07:34:26.964Z</time></trkpt><trkpt lat="44.05931231953604" lon="10.18426967890176"><ele>452.0</ele><time>2026-05-02T07:34:27.964Z</time></trkpt><trkpt lat="44.059239594086236" lon="10.184357802251345"><ele>450.8</ele><time>2026-05-02T07:34:28.964Z</time></trkpt><trkpt lat="44.05916601196771" lon="10.184439634075588"><ele>449.6</ele><time>2026-05-02T07:34:29.964Z</time></trkpt><trkpt lat="44.05908714957751" lon="10.18452765104502"><ele>448.40000000000003</ele><time>2026-05-02T07:34:30.964Z</time></trkpt><trkpt lat="44.05900825589183" lon="10.184618770203532"><ele>447.20000000000005</ele><time>2026-05-02T07:34:31.964Z</time></trkpt><trkpt lat="44.05892327333429" lon="10.18470188380705"><ele>446.0</ele><time>2026-05-02T07:34:32.964Z</time></trkpt><trkpt lat="44.058834603444815" lon="10.184778783246445"><ele>453.4</ele><time>2026-05-02T07:34:33.965Z</time></trkpt><trkpt lat="44.05874201162987" lon="10.184850496608156"><ele>460.8</ele><time>2026-05-02T07:34:34.965Z</time></trkpt><trkpt lat="44.0586432545909" lon="10.184915267292121"><ele>468.19999999999993</ele><time>2026-05-02T07:34:35.965Z</time></trkpt><trkpt lat="44.058541439352" lon="10.184974471145646"><ele>475.59999999999997</ele><time>2026-05-02T07:34:36.965Z</time></trkpt><trkpt lat="44.0584386369413" lon="10.185033100492468"><ele>483.0</ele><time>2026-05-02T07:34:37.965Z</time></trkpt><trkpt lat="44.05833394658185" lon="10.185090833405047"><ele>479.79999999999995</ele><time>2026-05-02T07:34:38.965Z</time></trkpt><trkpt lat="44.05821941131537" lon="10.185125950465554"><ele>476.59999999999997</ele><time>2026-05-02T07:34:39.965Z</time></trkpt><trkpt lat="44.05811754363372" lon="10.185179877598147"><ele>473.40000000000003</ele><time>2026-05-02T07:34:40.965Z</time></trkpt><trkpt lat="44.05801785832865" lon="10.185237695557024"><ele>470.20000000000005</ele><time>2026-05-02T07:34:41.965Z</time></trkpt><trkpt lat="44.057914159932636" lon="10.185292284221955"><ele>467.0</ele><time>2026-05-02T07:34:42.965Z</time></trkpt><trkpt lat="44.05781080995786" lon="10.185349021280851"><ele>467.0</ele><time>2026-05-02T07:34:43.965Z</time></trkpt><trkpt lat="44.057713301464716" lon="10.185403772416077"><ele>467.00000000000006</ele><time>2026-05-02T07:34:44.965Z</time></trkpt><trkpt lat="44.05762965422424" lon="10.185453500631933"><ele>467.00000000000006</ele><time>2026-05-02T07:34:45.965Z</time></trkpt><trkpt lat="44.057555752417045" lon="10.185514173701954"><ele>467.0</ele><time>2026-05-02T07:34:46.965Z</time></trkpt><trkpt lat="44.057484356546716" lon="10.185585665973079"><ele>467.0</ele><time>2026-05-02T07:34:47.965Z</time></trkpt><trkpt lat="44.05741617665182" lon="10.185647612807049"><ele>464.8</ele><time>2026-05-02T07:34:48.965Z</time></trkpt><trkpt lat="44.057362926380655" lon="10.185754853460127"><ele>462.6</ele><time>2026-05-02T07:34:49.965Z</time></trkpt><trkpt lat="44.05732663437639" lon="10.18588168487873"><ele>460.40000000000003</ele><time>2026-05-02T07:34:50.965Z</time></trkpt><trkpt lat="44.0572947187165" lon="10.186012847791595"><ele>458.20000000000005</ele><time>2026-05-02T07:34:51.965Z</time></trkpt><trkpt lat="44.05726323907189" lon="10.186144794729138"><ele>456.0</ele><time>2026-05-02T07:34:52.965Z</time></trkpt><trkpt lat="44.05723076396673" lon="10.186283505508268"><ele>456.0</ele><time>2026-05-02T07:34:53.965Z</time></trkpt><trkpt lat="44.05719915137447" lon="10.186436814889273"><ele>456.0</ele><time>2026-05-02T07:34:54.965Z</time></trkpt><trkpt lat="44.057175145634865" lon="10.186601642830821"><ele>456.0</ele><time>2026-05-02T07:34:55.965Z</time></trkpt><trkpt lat="44.05713681960374" lon="10.18675072771774"><ele>456.0</ele><time>2026-05-02T07:34:56.965Z</time></trkpt><trkpt lat="44.057096263511724" lon="10.186903702565456"><ele>461.25</ele><time>2026-05-02T07:34:57.965Z</time></trkpt><trkpt lat="44.05705421680235" lon="10.18705247506399"><ele>466.5</ele><time>2026-05-02T07:34:58.965Z</time></trkpt><trkpt lat="44.05701888560992" lon="10.187207282975013"><ele>471.75</ele><time>2026-05-02T07:34:59.965Z</time></trkpt><trkpt lat="44.056984460332856" lon="10.187355373360313"><ele>477.0</ele><time>2026-05-02T07:35:00.965Z</time></trkpt><trkpt lat="44.0569516474201" lon="10.187497009905552"><ele>481.0</ele><time>2026-05-02T07:35:01.965Z</time></trkpt><trkpt lat="44.05691863587387" lon="10.187639208170692"><ele>485.00000000000006</ele><time>2026-05-02T07:35:02.965Z</time></trkpt><trkpt lat="44.05688884426993" lon="10.187776651742514"><ele>489.00000000000006</ele><time>2026-05-02T07:35:03.965Z</time></trkpt><trkpt lat="44.05684575225974" lon="10.187900585811681"><ele>493.0</ele><time>2026-05-02T07:35:04.966Z</time></trkpt><trkpt lat="44.056792468782774" lon="10.188014016225608"><ele>497.0</ele><time>2026-05-02T07:35:05.966Z</time></trkpt><trkpt lat="44.05672226772088" lon="10.188112368887865"><ele>499.99999999999994</ele><time>2026-05-02T07:35:06.966Z</time></trkpt><trkpt lat="44.056639365822456" lon="10.188184910149548"><ele>503.0</ele><time>2026-05-02T07:35:07.966Z</time></trkpt><trkpt lat="44.05656002179486" lon="10.188245349141086"><ele>506.0</ele><time>2026-05-02T07:35:08.966Z</time></trkpt><trkpt lat="44.05648856721066" lon="10.18829699807997"><ele>509.0</ele><time>2026-05-02T07:35:09.966Z</time></trkpt><trkpt lat="44.05642179226462" lon="10.188348210667947"><ele>511.99999999999994</ele><time>2026-05-02T07:35:10.966Z</time></trkpt><trkpt lat="44.05636502178305" lon="10.188427105499757"><ele>515.0</ele><time>2026-05-02T07:35:11.966Z</time></trkpt><trkpt lat="44.056331446459346" lon="10.1885272706849"><ele>508.3333333333333</ele><time>2026-05-02T07:35:12.966Z</time></trkpt><trkpt lat="44.05628665811801" lon="10.188635239113413"><ele>501.66666666666663</ele><time>2026-05-02T07:35:13.966Z</time></trkpt><trkpt lat="44.056272562757336" lon="10.188754323854997"><ele>495.0</ele><time>2026-05-02T07:35:14.966Z</time></trkpt><trkpt lat="44.05624667046827" lon="10.188859188824773"><ele>488.33333333333337</ele><time>2026-05-02T07:35:15.966Z</time></trkpt><trkpt lat="44.05622563300606" lon="10.188950179875146"><ele>481.6666666666667</ele><time>2026-05-02T07:35:16.966Z</time></trkpt><trkpt lat="44.05621123718008" lon="10.189040533243691"><ele>475.0</ele><time>2026-05-02T07:35:17.966Z</time></trkpt><trkpt lat="44.0561861156044" lon="10.189135297095772"><ele>475.0</ele><time>2026-05-02T07:35:18.966Z</time></trkpt><trkpt lat="44.05618579659626" lon="10.189247630841303"><ele>475.0</ele><time>2026-05-02T07:35:19.966Z</time></trkpt><trkpt lat="44.05620161453191" lon="10.189362608858547"><ele>475.0</ele><time>2026-05-02T07:35:20.966Z</time></trkpt><trkpt lat="44.05622773367477" lon="10.189480654713998"><ele>475.0</ele><time>2026-05-02T07:35:21.966Z</time></trkpt><trkpt lat="44.056266718631804" lon="10.189603370875455"><ele>475.0</ele><time>2026-05-02T07:35:22.966Z</time></trkpt><trkpt lat="44.05630819132526" lon="10.189734267632897"><ele>474.8</ele><time>2026-05-02T07:35:23.966Z</time></trkpt><trkpt lat="44.05636546177552" lon="10.189860886243567"><ele>474.6</ele><time>2026-05-02T07:35:24.966Z</time></trkpt><trkpt lat="44.056396378208504" lon="10.189997782081095"><ele>474.4</ele><time>2026-05-02T07:35:25.966Z</time></trkpt><trkpt lat="44.05643953449632" lon="10.190135401068895"><ele>474.2</ele><time>2026-05-02T07:35:26.966Z</time></trkpt><trkpt lat="44.05648598942941" lon="10.190285113409587"><ele>474.0</ele><time>2026-05-02T07:35:27.966Z</time></trkpt><trkpt lat="44.05652629954525" lon="10.190436792549697"><ele>474.0</ele><time>2026-05-02T07:35:28.966Z</time></trkpt><trkpt lat="44.056552167568455" lon="10.190588461539942"><ele>474.0</ele><time>2026-05-02T07:35:29.966Z</time></trkpt><trkpt lat="44.056567595082214" lon="10.190737831542618"><ele>474.0</ele><time>2026-05-02T07:35:30.966Z</time></trkpt><trkpt lat="44.05656870708738" lon="10.190863916788684"><ele>474.0</ele><time>2026-05-02T07:35:31.966Z</time></trkpt><trkpt lat="44.056575158692844" lon="10.190976089682925"><ele>474.0</ele><time>2026-05-02T07:35:32.966Z</time></trkpt><trkpt lat="44.05659636658056" lon="10.191075602833761"><ele>483.6666666666667</ele><time>2026-05-02T07:35:33.966Z</time></trkpt><trkpt lat="44.0566400937315" lon="10.191148667661231"><ele>493.33333333333337</ele><time>2026-05-02T07:35:34.966Z</time></trkpt><trkpt lat="44.05670195800496" lon="10.19117566944251"><ele>503.0</ele><time>2026-05-02T07:35:35.966Z</time></trkpt><trkpt lat="44.05676691013161" lon="10.191147407592743"><ele>512.6666666666667</ele><time>2026-05-02T07:35:36.966Z</time></trkpt><trkpt lat="44.05681647856481" lon="10.191068821089557"><ele>522.3333333333334</ele><time>2026-05-02T07:35:37.966Z</time></trkpt><trkpt lat="44.05682316933807" lon="10.19095572581304"><ele>532.0</ele><time>2026-05-02T07:35:38.966Z</time></trkpt><trkpt lat="44.05681135743249" lon="10.190827357049427"><ele>532.0</ele><time>2026-05-02T07:35:39.966Z</time></trkpt><trkpt lat="44.05677528098174" lon="10.19068634533163"><ele>532.0</ele><time>2026-05-02T07:35:40.966Z</time></trkpt><trkpt lat="44.056715397168055" lon="10.190542814715815"><ele>532.0</ele><time>2026-05-02T07:35:41.966Z</time></trkpt><trkpt lat="44.05665327434554" lon="10.190385235564333"><ele>532.0</ele><time>2026-05-02T07:35:42.966Z</time></trkpt><trkpt lat="44.05659781012522" lon="10.190245017207154"><ele>517.75</ele><time>2026-05-02T07:35:43.966Z</time></trkpt><trkpt lat="44.05654988416302" lon="10.190098368416662"><ele>503.5</ele><time>2026-05-02T07:35:44.966Z</time></trkpt><trkpt lat="44.05651004000962" lon="10.189933706247182"><ele>489.25</ele><time>2026-05-02T07:35:45.964Z</time></trkpt><trkpt lat="44.056484967912546" lon="10.189769562403626"><ele>475.0</ele><time>2026-05-02T07:35:46.964Z</time></trkpt><trkpt lat="44.05644697266345" lon="10.189618592320384"><ele>475.0</ele><time>2026-05-02T07:35:47.964Z</time></trkpt><trkpt lat="44.056414024490245" lon="10.189482520980064"><ele>475.0</ele><time>2026-05-02T07:35:48.964Z</time></trkpt><trkpt lat="44.056400636681104" lon="10.189344420962447"><ele>475.0</ele><time>2026-05-02T07:35:49.964Z</time></trkpt><trkpt lat="44.0564107007054" lon="10.189201460295807"><ele>475.0</ele><time>2026-05-02T07:35:50.964Z</time></trkpt><trkpt lat="44.05644971535627" lon="10.189066265454404"><ele>475.0</ele><time>2026-05-02T07:35:51.964Z</time></trkpt><trkpt lat="44.05650943379867" lon="10.188933540629497"><ele>473.75</ele><time>2026-05-02T07:35:52.964Z</time></trkpt><trkpt lat="44.056594359885395" lon="10.188832104213326"><ele>472.5</ele><time>2026-05-02T07:35:53.964Z</time></trkpt><trkpt lat="44.05668886163641" lon="10.188735872540157"><ele>471.25</ele><time>2026-05-02T07:35:54.964Z</time></trkpt><trkpt lat="44.05678954605662" lon="10.188639207862453"><ele>470.0</ele><time>2026-05-02T07:35:55.963Z</time></trkpt><trkpt lat="44.056894440647554" lon="10.188556062377312"><ele>476.75</ele><time>2026-05-02T07:35:56.963Z</time></trkpt><trkpt lat="44.05699713678694" lon="10.188465549987763"><ele>483.5</ele><time>2026-05-02T07:35:57.964Z</time></trkpt><trkpt lat="44.05708956585239" lon="10.188375508054017"><ele>490.25</ele><time>2026-05-02T07:35:58.964Z</time></trkpt><trkpt lat="44.05717283853732" lon="10.188276762051897"><ele>497.0</ele><time>2026-05-02T07:35:59.964Z</time></trkpt><trkpt lat="44.0572456171326" lon="10.188163583419241"><ele>497.0</ele><time>2026-05-02T07:36:00.964Z</time></trkpt><trkpt lat="44.05730301102991" lon="10.18802471867877"><ele>497.0</ele><time>2026-05-02T07:36:01.964Z</time></trkpt><trkpt lat="44.05735916560616" lon="10.187885017116955"><ele>497.0</ele><time>2026-05-02T07:36:02.964Z</time></trkpt><trkpt lat="44.05741011087199" lon="10.187734423273525"><ele>497.0</ele><time>2026-05-02T07:36:03.964Z</time></trkpt><trkpt lat="44.05746555105328" lon="10.187586841165984"><ele>503.0</ele><time>2026-05-02T07:36:04.964Z</time></trkpt><trkpt lat="44.05752173286767" lon="10.187434299295855"><ele>509.0</ele><time>2026-05-02T07:36:05.964Z</time></trkpt><trkpt lat="44.05758315290752" lon="10.187279136832627"><ele>515.0</ele><time>2026-05-02T07:36:06.964Z</time></trkpt><trkpt lat="44.05763996466898" lon="10.187116642224078"><ele>521.0</ele><time>2026-05-02T07:36:07.964Z</time></trkpt><trkpt lat="44.05769703877594" lon="10.186959007879771"><ele>521.0</ele><time>2026-05-02T07:36:08.964Z</time></trkpt><trkpt lat="44.057756421265005" lon="10.186804952490515"><ele>521.0</ele><time>2026-05-02T07:36:09.964Z</time></trkpt><trkpt lat="44.057818800596074" lon="10.18666368313169"><ele>521.0</ele><time>2026-05-02T07:36:10.964Z</time></trkpt><trkpt lat="44.05788683022233" lon="10.186536812816023"><ele>521.0</ele><time>2026-05-02T07:36:11.964Z</time></trkpt><trkpt lat="44.05795229013062" lon="10.186413354251105"><ele>522.0</ele><time>2026-05-02T07:36:12.964Z</time></trkpt><trkpt lat="44.05802804723096" lon="10.186299136433393"><ele>523.0</ele><time>2026-05-02T07:36:13.964Z</time></trkpt><trkpt lat="44.058114283085565" lon="10.18620424079943"><ele>524.0</ele><time>2026-05-02T07:36:14.964Z</time></trkpt><trkpt lat="44.05820840774892" lon="10.186122647913956"><ele>525.0</ele><time>2026-05-02T07:36:15.964Z</time></trkpt><trkpt lat="44.05831203543789" lon="10.186060746033437"><ele>526.0</ele><time>2026-05-02T07:36:16.964Z</time></trkpt><trkpt lat="44.05842172893358" lon="10.186015424846326"><ele>526.0</ele><time>2026-05-02T07:36:17.964Z</time></trkpt><trkpt lat="44.058537023871274" lon="10.185994125992766"><ele>526.0</ele><time>2026-05-02T07:36:18.964Z</time></trkpt><trkpt lat="44.05865689656395" lon="10.185976575024503"><ele>526.0</ele><time>2026-05-02T07:36:19.964Z</time></trkpt><trkpt lat="44.05878217653704" lon="10.185941097193123"><ele>526.0</ele><time>2026-05-02T07:36:20.964Z</time></trkpt><trkpt lat="44.05889854589012" lon="10.185885905080093"><ele>526.0</ele><time>2026-05-02T07:36:21.964Z</time></trkpt><trkpt lat="44.05902389005152" lon="10.1858157145393"><ele>526.0</ele><time>2026-05-02T07:36:22.964Z</time></trkpt><trkpt lat="44.05914447607284" lon="10.185749777815213"><ele>526.0</ele><time>2026-05-02T07:36:23.964Z</time></trkpt><trkpt lat="44.05926965640256" lon="10.185719600108964"><ele>526.0</ele><time>2026-05-02T07:36:24.964Z</time></trkpt><trkpt lat="44.059392235997166" lon="10.185700588109825"><ele>522.0</ele><time>2026-05-02T07:36:25.964Z</time></trkpt><trkpt lat="44.05950191680364" lon="10.185679732411021"><ele>518.0</ele><time>2026-05-02T07:36:26.964Z</time></trkpt><trkpt lat="44.05960142324237" lon="10.185641446830335"><ele>514.0</ele><time>2026-05-02T07:36:27.964Z</time></trkpt><trkpt lat="44.05968318924128" lon="10.185590434781437"><ele>510.0</ele><time>2026-05-02T07:36:28.964Z</time></trkpt><trkpt lat="44.05977085323696" lon="10.18553973825826"><ele>506.0</ele><time>2026-05-02T07:36:29.964Z</time></trkpt><trkpt lat="44.05985709532807" lon="10.185492703927725"><ele>506.0</ele><time>2026-05-02T07:36:30.964Z</time></trkpt><trkpt lat="44.05993960112823" lon="10.185454690214168"><ele>506.0</ele><time>2026-05-02T07:36:31.964Z</time></trkpt><trkpt lat="44.06001528788856" lon="10.185421286451128"><ele>506.0</ele><time>2026-05-02T07:36:32.964Z</time></trkpt><trkpt lat="44.0600807515766" lon="10.185397460675095"><ele>506.0</ele><time>2026-05-02T07:36:33.964Z</time></trkpt><trkpt lat="44.06018436853656" lon="10.185429644669073"><ele>506.0</ele><time>2026-05-02T07:36:35.964Z</time></trkpt><trkpt lat="44.06020688260463" lon="10.185581754572256"><ele>506.0</ele><time>2026-05-02T07:36:37.964Z</time></trkpt><trkpt lat="44.060116155963236" lon="10.1856793828289"><ele>506.0</ele><time>2026-05-02T07:36:39.964Z</time></trkpt><trkpt lat="44.05997925710804" lon="10.185665537326368"><ele>506.0</ele><time>2026-05-02T07:36:41.964Z</time></trkpt><trkpt lat="44.05988613547756" lon="10.185662151560395"><ele>506.0</ele><time>2026-05-02T07:36:42.964Z</time></trkpt><trkpt lat="44.059782654345916" lon="10.185682281797966"><ele>518.75</ele><time>2026-05-02T07:36:43.964Z</time></trkpt><trkpt lat="44.059671615264214" lon="10.1857228950089"><ele>531.5</ele><time>2026-05-02T07:36:44.964Z</time></trkpt><trkpt lat="44.05956056026135" lon="10.185782068381718"><ele>544.25</ele><time>2026-05-02T07:36:45.964Z</time></trkpt><trkpt lat="44.05945989798733" lon="10.18583611479988"><ele>557.0</ele><time>2026-05-02T07:36:46.964Z</time></trkpt><trkpt lat="44.05935742278639" lon="10.185901394075954"><ele>557.0</ele><time>2026-05-02T07:36:47.964Z</time></trkpt><trkpt lat="44.05925274047304" lon="10.185948712387935"><ele>557.0</ele><time>2026-05-02T07:36:48.964Z</time></trkpt><trkpt lat="44.059147903078944" lon="10.186000488033256"><ele>557.0</ele><time>2026-05-02T07:36:49.964Z</time></trkpt><trkpt lat="44.05904426934258" lon="10.186054455898692"><ele>557.0</ele><time>2026-05-02T07:36:50.964Z</time></trkpt><trkpt lat="44.058943124134146" lon="10.18611208302362"><ele>557.0</ele><time>2026-05-02T07:36:51.964Z</time></trkpt><trkpt lat="44.05884036331841" lon="10.186166742815965"><ele>550.8000000000001</ele><time>2026-05-02T07:36:52.964Z</time></trkpt><trkpt lat="44.05874587144857" lon="10.186216853639323"><ele>544.6</ele><time>2026-05-02T07:36:53.964Z</time></trkpt><trkpt lat="44.05865153382766" lon="10.186263260500583"><ele>538.4000000000001</ele><time>2026-05-02T07:36:54.964Z</time></trkpt><trkpt lat="44.05857000803742" lon="10.186313086442773"><ele>532.2</ele><time>2026-05-02T07:36:55.964Z</time></trkpt><trkpt lat="44.058496286059" lon="10.186349818845487"><ele>526.0</ele><time>2026-05-02T07:36:56.964Z</time></trkpt><trkpt lat="44.05841612965033" lon="10.186383835345937"><ele>526.0</ele><time>2026-05-02T07:36:57.964Z</time></trkpt><trkpt lat="44.0583467952202" lon="10.186464127598688"><ele>526.0</ele><time>2026-05-02T07:36:58.964Z</time></trkpt><trkpt lat="44.05830746727467" lon="10.186587181028923"><ele>526.0</ele><time>2026-05-02T07:36:59.964Z</time></trkpt><trkpt lat="44.058272729347166" lon="10.18671705503524"><ele>526.0</ele><time>2026-05-02T07:37:00.964Z</time></trkpt><trkpt lat="44.058240464118775" lon="10.18685470908026"><ele>526.0</ele><time>2026-05-02T07:37:01.964Z</time></trkpt><trkpt lat="44.058209627821725" lon="10.186998384078809"><ele>524.75</ele><time>2026-05-02T07:37:02.964Z</time></trkpt><trkpt lat="44.05817857853993" lon="10.18715045304799"><ele>523.5</ele><time>2026-05-02T07:37:03.964Z</time></trkpt><trkpt lat="44.05814847638085" lon="10.187315877824082"><ele>522.25</ele><time>2026-05-02T07:37:04.964Z</time></trkpt><trkpt lat="44.05811935618164" lon="10.187484354567742"><ele>521.0</ele><time>2026-05-02T07:37:05.964Z</time></trkpt><trkpt lat="44.05808359796162" lon="10.18765488121118"><ele>525.5</ele><time>2026-05-02T07:37:06.964Z</time></trkpt><trkpt lat="44.05804613826496" lon="10.18783633693489"><ele>530.0</ele><time>2026-05-02T07:37:07.964Z</time></trkpt><trkpt lat="44.05801427306276" lon="10.188018804107475"><ele>534.5</ele><time>2026-05-02T07:37:08.964Z</time></trkpt><trkpt lat="44.057981953220505" lon="10.18820418073766"><ele>539.0</ele><time>2026-05-02T07:37:09.964Z</time></trkpt><trkpt lat="44.057952882345845" lon="10.188386291421075"><ele>544.5</ele><time>2026-05-02T07:37:10.964Z</time></trkpt><trkpt lat="44.057921001446964" lon="10.188554679830446"><ele>550.0</ele><time>2026-05-02T07:37:11.964Z</time></trkpt><trkpt lat="44.057891269349234" lon="10.188711046806795"><ele>555.5</ele><time>2026-05-02T07:37:12.964Z</time></trkpt><trkpt lat="44.057834925843885" lon="10.18884156657101"><ele>561.0</ele><time>2026-05-02T07:37:13.964Z</time></trkpt><trkpt lat="44.05777444344836" lon="10.188951190707074"><ele>564.6666666666666</ele><time>2026-05-02T07:37:14.964Z</time></trkpt><trkpt lat="44.05771595733292" lon="10.189046644556427"><ele>568.3333333333334</ele><time>2026-05-02T07:37:15.964Z</time></trkpt><trkpt lat="44.057661390530406" lon="10.189135870607462"><ele>572.0</ele><time>2026-05-02T07:37:16.964Z</time></trkpt><trkpt lat="44.057621243489564" lon="10.189211553267096"><ele>575.6666666666667</ele><time>2026-05-02T07:37:17.964Z</time></trkpt><trkpt lat="44.05757624905296" lon="10.189286322996002"><ele>579.3333333333334</ele><time>2026-05-02T07:37:18.964Z</time></trkpt><trkpt lat="44.05756176410485" lon="10.18939006995065"><ele>583.0</ele><time>2026-05-02T07:37:19.964Z</time></trkpt><trkpt lat="44.05754492278803" lon="10.189498912235196"><ele>583.0</ele><time>2026-05-02T07:37:20.964Z</time></trkpt><trkpt lat="44.057534673247126" lon="10.189611692628006"><ele>583.0</ele><time>2026-05-02T07:37:21.964Z</time></trkpt><trkpt lat="44.05751137811432" lon="10.189734404483856"><ele>583.0</ele><time>2026-05-02T07:37:22.964Z</time></trkpt><trkpt lat="44.05751313696524" lon="10.189873689335805"><ele>583.0</ele><time>2026-05-02T07:37:23.964Z</time></trkpt><trkpt lat="44.05752538987875" lon="10.19000622558205"><ele>583.0</ele><time>2026-05-02T07:37:24.964Z</time></trkpt><trkpt lat="44.05755865164368" lon="10.190141386466067"><ele>584.1999999999999</ele><time>2026-05-02T07:37:25.964Z</time></trkpt><trkpt lat="44.05761405940235" lon="10.190245754259879"><ele>585.4</ele><time>2026-05-02T07:37:26.964Z</time></trkpt><trkpt lat="44.05769406733377" lon="10.190315468041254"><ele>586.5999999999999</ele><time>2026-05-02T07:37:27.964Z</time></trkpt><trkpt lat="44.05776493177231" lon="10.190404884458392"><ele>587.8</ele><time>2026-05-02T07:37:28.964Z</time></trkpt><trkpt lat="44.05782119286539" lon="10.190514275322725"><ele>589.0</ele><time>2026-05-02T07:37:29.964Z</time></trkpt><trkpt lat="44.05786619300213" lon="10.190613901509934"><ele>588.6</ele><time>2026-05-02T07:37:30.964Z</time></trkpt><trkpt lat="44.057907315406496" lon="10.190724335191552"><ele>588.2</ele><time>2026-05-02T07:37:31.964Z</time></trkpt><trkpt lat="44.05790548163479" lon="10.190857416203091"><ele>587.8000000000001</ele><time>2026-05-02T07:37:32.964Z</time></trkpt><trkpt lat="44.057912236830575" lon="10.190997792279347"><ele>587.4</ele><time>2026-05-02T07:37:33.964Z</time></trkpt><trkpt lat="44.05793113525526" lon="10.191146061348231"><ele>587.0</ele><time>2026-05-02T07:37:34.964Z</time></trkpt><trkpt lat="44.057933649408895" lon="10.191291875277154"><ele>587.0</ele><time>2026-05-02T07:37:35.964Z</time></trkpt><trkpt lat="44.05792524662481" lon="10.191441102713693"><ele>587.0</ele><time>2026-05-02T07:37:36.964Z</time></trkpt><trkpt lat="44.05790384750498" lon="10.191590735582007"><ele>587.0</ele><time>2026-05-02T07:37:37.964Z</time></trkpt><trkpt lat="44.05786586704868" lon="10.191742620665948"><ele>587.0</ele><time>2026-05-02T07:37:38.964Z</time></trkpt><trkpt lat="44.057822752276984" lon="10.191903490179765"><ele>586.75</ele><time>2026-05-02T07:37:39.964Z</time></trkpt><trkpt lat="44.0577824513711" lon="10.192072174663474"><ele>586.5</ele><time>2026-05-02T07:37:40.964Z</time></trkpt><trkpt lat="44.057747810111216" lon="10.192232842413922"><ele>586.25</ele><time>2026-05-02T07:37:41.964Z</time></trkpt><trkpt lat="44.05771042632852" lon="10.19238397178107"><ele>586.0</ele><time>2026-05-02T07:37:42.964Z</time></trkpt><trkpt lat="44.05767314477815" lon="10.192532476658204"><ele>587.4</ele><time>2026-05-02T07:37:43.964Z</time></trkpt><trkpt lat="44.0576250288766" lon="10.19267172324029"><ele>588.8</ele><time>2026-05-02T07:37:44.964Z</time></trkpt><trkpt lat="44.05756947773034" lon="10.192791639019164"><ele>590.1999999999999</ele><time>2026-05-02T07:37:45.964Z</time></trkpt><trkpt lat="44.0574971804172" lon="10.192882232847651"><ele>591.6</ele><time>2026-05-02T07:37:46.964Z</time></trkpt><trkpt lat="44.057409118568565" lon="10.192971668581249"><ele>593.0</ele><time>2026-05-02T07:37:47.964Z</time></trkpt><trkpt lat="44.057315749155784" lon="10.193047316781268"><ele>593.0</ele><time>2026-05-02T07:37:48.964Z</time></trkpt><trkpt lat="44.057217657912304" lon="10.193110508302826"><ele>593.0</ele><time>2026-05-02T07:37:49.964Z</time></trkpt><trkpt lat="44.0571160829007" lon="10.193150704811675"><ele>593.0</ele><time>2026-05-02T07:37:50.964Z</time></trkpt><trkpt lat="44.05701410513712" lon="10.193176564936628"><ele>593.0</ele><time>2026-05-02T07:37:51.962Z</time></trkpt><trkpt lat="44.05691333607694" lon="10.193210609368453"><ele>593.0</ele><time>2026-05-02T07:37:52.962Z</time></trkpt><trkpt lat="44.05682315653285" lon="10.193248520357116"><ele>591.1666666666666</ele><time>2026-05-02T07:37:53.962Z</time></trkpt><trkpt lat="44.05673092505305" lon="10.193293673403959"><ele>589.3333333333333</ele><time>2026-05-02T07:37:54.962Z</time></trkpt><trkpt lat="44.05667821016262" lon="10.193396302926297"><ele>587.5</ele><time>2026-05-02T07:37:55.962Z</time></trkpt><trkpt lat="44.05661968832417" lon="10.19346503965734"><ele>585.6666666666666</ele><time>2026-05-02T07:37:56.962Z</time></trkpt><trkpt lat="44.05659062163652" lon="10.193554681990788"><ele>583.8333333333334</ele><time>2026-05-02T07:37:57.963Z</time></trkpt><trkpt lat="44.056550133756836" lon="10.193691974039876"><ele>582.0</ele><time>2026-05-02T07:37:59.962Z</time></trkpt><trkpt lat="44.05651992626103" lon="10.193793022513908"><ele>582.0</ele><time>2026-05-02T07:38:01.962Z</time></trkpt><trkpt lat="44.0564670396003" lon="10.193887716958082"><ele>582.0</ele><time>2026-05-02T07:59:33.001Z</time></trkpt><trkpt lat="44.056447085329346" lon="10.194029249388162"><ele>582.0</ele><time>2026-05-02T07:59:36.001Z</time></trkpt><trkpt lat="44.056393757101866" lon="10.194166616771922"><ele>582.0</ele><time>2026-05-02T07:59:38.001Z</time></trkpt><trkpt lat="44.056353775896504" lon="10.19428920201371"><ele>582.0</ele><time>2026-05-02T07:59:40.001Z</time></trkpt><trkpt lat="44.05630119272331" lon="10.1944509835887"><ele>586.2</ele><time>2026-05-02T07:59:42.001Z</time></trkpt><trkpt lat="44.05626986546215" lon="10.194554888774608"><ele>590.4000000000001</ele><time>2026-05-02T07:59:43.001Z</time></trkpt><trkpt lat="44.05624085658595" lon="10.19468245930189"><ele>594.5999999999999</ele><time>2026-05-02T07:59:44.001Z</time></trkpt><trkpt lat="44.056228475944785" lon="10.194820468206347"><ele>598.8</ele><time>2026-05-02T07:59:45.001Z</time></trkpt><trkpt lat="44.05623018558072" lon="10.194967110520047"><ele>603.0</ele><time>2026-05-02T07:59:46.001Z</time></trkpt><trkpt lat="44.056242567980874" lon="10.195119800527246"><ele>604.8</ele><time>2026-05-02T07:59:47.001Z</time></trkpt><trkpt lat="44.05626488903563" lon="10.195283625183256"><ele>606.5999999999999</ele><time>2026-05-02T07:59:48.001Z</time></trkpt><trkpt lat="44.05630162942625" lon="10.19542948088426"><ele>608.4000000000001</ele><time>2026-05-02T07:59:49.001Z</time></trkpt><trkpt lat="44.05633065335256" lon="10.195564603499236"><ele>610.2</ele><time>2026-05-02T07:59:50.001Z</time></trkpt><trkpt lat="44.05635143252521" lon="10.19570700274229"><ele>612.0</ele><time>2026-05-02T07:59:51.001Z</time></trkpt><trkpt lat="44.0563832772416" lon="10.195857748332767"><ele>613.2</ele><time>2026-05-02T07:59:52.001Z</time></trkpt><trkpt lat="44.05638498266676" lon="10.196003096354397"><ele>614.4000000000001</ele><time>2026-05-02T07:59:53.001Z</time></trkpt><trkpt lat="44.05637036553796" lon="10.19614566802736"><ele>615.5999999999999</ele><time>2026-05-02T07:59:54.001Z</time></trkpt><trkpt lat="44.056335455427515" lon="10.196284586941223"><ele>616.8</ele><time>2026-05-02T07:59:55.001Z</time></trkpt><trkpt lat="44.05629306339704" lon="10.196415999671819"><ele>618.0</ele><time>2026-05-02T07:59:56.001Z</time></trkpt><trkpt lat="44.05621745076909" lon="10.196523470854363"><ele>622.8</ele><time>2026-05-02T07:59:57.001Z</time></trkpt><trkpt lat="44.056138338815735" lon="10.196628833189674"><ele>627.5999999999999</ele><time>2026-05-02T07:59:58.001Z</time></trkpt><trkpt lat="44.05607164651254" lon="10.196723119108574"><ele>632.4000000000001</ele><time>2026-05-02T07:59:59.001Z</time></trkpt><trkpt lat="44.05598523893243" lon="10.196847151935732"><ele>637.2</ele><time>2026-05-02T08:00:00.001Z</time></trkpt><trkpt lat="44.05590646947639" lon="10.196965261944031"><ele>642.0</ele><time>2026-05-02T08:00:01.001Z</time></trkpt><trkpt lat="44.05566919079646" lon="10.197325579042694"><ele>633.0</ele><time>2026-05-02T08:00:04.001Z</time></trkpt><trkpt lat="44.05558909808422" lon="10.197489212977493"><ele>624.0</ele><time>2026-05-02T08:00:05.001Z</time></trkpt><trkpt lat="44.055526918136394" lon="10.197608155204994"><ele>615.0</ele><time>2026-05-02T08:00:06.001Z</time></trkpt><trkpt lat="44.055498671652295" lon="10.197769852564928"><ele>606.0</ele><time>2026-05-02T08:00:07.001Z</time></trkpt><trkpt lat="44.05548065559587" lon="10.197937953077387"><ele>606.0</ele><time>2026-05-02T08:00:08.001Z</time></trkpt><trkpt lat="44.055455850023804" lon="10.198135610695495"><ele>606.0</ele><time>2026-05-02T08:00:09.001Z</time></trkpt><trkpt lat="44.05543804059612" lon="10.198311793129223"><ele>606.0</ele><time>2026-05-02T08:00:10.001Z</time></trkpt><trkpt lat="44.055402434872214" lon="10.198484904056922"><ele>606.0</ele><time>2026-05-02T08:00:11.001Z</time></trkpt><trkpt lat="44.05539768308881" lon="10.198658593976912"><ele>610.5</ele><time>2026-05-02T08:00:12.001Z</time></trkpt><trkpt lat="44.0554000529977" lon="10.198838860566797"><ele>615.0</ele><time>2026-05-02T08:00:13.001Z</time></trkpt><trkpt lat="44.05538279995733" lon="10.1990203781006"><ele>619.5</ele><time>2026-05-02T08:00:14.001Z</time></trkpt><trkpt lat="44.055377764986076" lon="10.199190902430416"><ele>624.0</ele><time>2026-05-02T08:00:15.001Z</time></trkpt><trkpt lat="44.05536588573237" lon="10.199382770953866"><ele>627.25</ele><time>2026-05-02T08:00:16.001Z</time></trkpt><trkpt lat="44.055357084498354" lon="10.19956470916981"><ele>630.5</ele><time>2026-05-02T08:00:17.001Z</time></trkpt><trkpt lat="44.055356765492355" lon="10.199741197159272"><ele>633.75</ele><time>2026-05-02T08:00:18.001Z</time></trkpt><trkpt lat="44.055357447729534" lon="10.199912461048159"><ele>637.0</ele><time>2026-05-02T08:00:19.001Z</time></trkpt><trkpt lat="44.0553569817909" lon="10.200077033877793"><ele>638.5</ele><time>2026-05-02T08:00:20.001Z</time></trkpt><trkpt lat="44.05535917326013" lon="10.200248393161633"><ele>640.0</ele><time>2026-05-02T08:00:21.001Z</time></trkpt><trkpt lat="44.05536731512802" lon="10.200425853041295"><ele>641.5</ele><time>2026-05-02T08:00:22.001Z</time></trkpt><trkpt lat="44.05537191335387" lon="10.20060618328464"><ele>643.0</ele><time>2026-05-02T08:00:23.001Z</time></trkpt><trkpt lat="44.05537627621901" lon="10.200800222107413"><ele>645.75</ele><time>2026-05-02T08:00:24.001Z</time></trkpt><trkpt lat="44.05536999887372" lon="10.20098754076021"><ele>648.5</ele><time>2026-05-02T08:00:25.001Z</time></trkpt><trkpt lat="44.05535707547521" lon="10.201174441333073"><ele>651.25</ele><time>2026-05-02T08:00:26.001Z</time></trkpt><trkpt lat="44.05534605950334" lon="10.201362179096728"><ele>654.0</ele><time>2026-05-02T08:00:27.001Z</time></trkpt><trkpt lat="44.055340623216054" lon="10.20155316199144"><ele>655.0</ele><time>2026-05-02T08:00:28.001Z</time></trkpt><trkpt lat="44.05533659186444" lon="10.201746609526078"><ele>656.0</ele><time>2026-05-02T08:00:29.001Z</time></trkpt><trkpt lat="44.05533166907538" lon="10.201939027991617"><ele>657.0</ele><time>2026-05-02T08:00:30.001Z</time></trkpt><trkpt lat="44.05533933155833" lon="10.202136336869383"><ele>658.0</ele><time>2026-05-02T08:00:31.001Z</time></trkpt><trkpt lat="44.05531480354511" lon="10.202333805033652"><ele>661.5</ele><time>2026-05-02T08:00:32.001Z</time></trkpt><trkpt lat="44.05528024150155" lon="10.20251439836704"><ele>665.0</ele><time>2026-05-02T08:00:33.001Z</time></trkpt><trkpt lat="44.05523846225557" lon="10.202674632447154"><ele>668.5</ele><time>2026-05-02T08:00:34.001Z</time></trkpt><trkpt lat="44.05519488480888" lon="10.202825979027423"><ele>672.0</ele><time>2026-05-02T08:00:35.001Z</time></trkpt><trkpt lat="44.0551392655694" lon="10.202967923412377"><ele>672.0</ele><time>2026-05-02T08:00:36.001Z</time></trkpt><trkpt lat="44.05509517649751" lon="10.203088332815367"><ele>672.0</ele><time>2026-05-02T08:00:37.001Z</time></trkpt><trkpt lat="44.05506892563706" lon="10.203191273537094"><ele>672.0</ele><time>2026-05-02T08:00:38.001Z</time></trkpt><trkpt lat="44.05504337807509" lon="10.203295700833255"><ele>672.0</ele><time>2026-05-02T08:00:39.001Z</time></trkpt><trkpt lat="44.05504471043594" lon="10.203385477310984"><ele>672.0</ele><time>2026-05-02T08:00:40.001Z</time></trkpt><trkpt lat="44.05509576339785" lon="10.203523326702667"><ele>672.0</ele><time>2026-05-02T08:00:42.001Z</time></trkpt><trkpt lat="44.05515864067653" lon="10.2035666584902"><ele>672.0</ele><time>2026-05-02T08:00:43.001Z</time></trkpt><trkpt lat="44.05524437904504" lon="10.203543369359013"><ele>672.0</ele><time>2026-05-02T08:00:44.001Z</time></trkpt><trkpt lat="44.055310891670736" lon="10.20345040779423"><ele>672.0</ele><time>2026-05-02T08:00:45.001Z</time></trkpt><trkpt lat="44.05533444641678" lon="10.203327371382585"><ele>672.0</ele><time>2026-05-02T08:00:46.001Z</time></trkpt><trkpt lat="44.05537464889522" lon="10.203198175035242"><ele>672.0</ele><time>2026-05-02T08:00:47.001Z</time></trkpt><trkpt lat="44.055406025052505" lon="10.2030452731795"><ele>672.0</ele><time>2026-05-02T08:00:48.001Z</time></trkpt><trkpt lat="44.055434339960726" lon="10.202897520908486"><ele>672.0</ele><time>2026-05-02T08:00:49.001Z</time></trkpt><trkpt lat="44.055462367664646" lon="10.20274949700141"><ele>672.0</ele><time>2026-05-02T08:00:50.001Z</time></trkpt><trkpt lat="44.05549325314225" lon="10.202593248425162"><ele>672.0</ele><time>2026-05-02T08:00:51.001Z</time></trkpt><trkpt lat="44.05553372398123" lon="10.202429569056424"><ele>668.5</ele><time>2026-05-02T08:00:52.001Z</time></trkpt><trkpt lat="44.05558212685507" lon="10.202249011896223"><ele>665.0</ele><time>2026-05-02T08:00:53.001Z</time></trkpt><trkpt lat="44.05562029803091" lon="10.202058717467233"><ele>661.5</ele><time>2026-05-02T08:00:54.001Z</time></trkpt><trkpt lat="44.055658841383774" lon="10.201858000427977"><ele>658.0</ele><time>2026-05-02T08:00:55.001Z</time></trkpt><trkpt lat="44.0556879247618" lon="10.201653014133223"><ele>656.6666666666667</ele><time>2026-05-02T08:00:56.001Z</time></trkpt><trkpt lat="44.05571789311037" lon="10.20144623948808"><ele>655.3333333333334</ele><time>2026-05-02T08:00:57.001Z</time></trkpt><trkpt lat="44.0557656881037" lon="10.201240505254017"><ele>654.0</ele><time>2026-05-02T08:00:58Z</time></trkpt><trkpt lat="44.055790392518844" lon="10.201031588891276"><ele>665.5</ele><time>2026-05-02T08:00:59Z</time></trkpt><trkpt lat="44.05580644536677" lon="10.200834588999559"><ele>677.0</ele><time>2026-05-02T08:01:00Z</time></trkpt><trkpt lat="44.055810853339096" lon="10.200630126516872"><ele>688.5</ele><time>2026-05-02T08:01:01Z</time></trkpt><trkpt lat="44.05584618097672" lon="10.2004256657361"><ele>700.0</ele><time>2026-05-02T08:01:02Z</time></trkpt><trkpt lat="44.055863292232736" lon="10.200222471442814"><ele>700.0</ele><time>2026-05-02T08:01:03Z</time></trkpt><trkpt lat="44.05588272036041" lon="10.200008371643912"><ele>700.0</ele><time>2026-05-02T08:01:04Z</time></trkpt><trkpt lat="44.05589609067468" lon="10.199791471429224"><ele>700.0</ele><time>2026-05-02T08:01:05Z</time></trkpt><trkpt lat="44.05590739277206" lon="10.19957581614726"><ele>698.0</ele><time>2026-05-02T08:01:06Z</time></trkpt><trkpt lat="44.055927122915264" lon="10.199361934267039"><ele>696.0</ele><time>2026-05-02T08:01:07Z</time></trkpt><trkpt lat="44.05594614700032" lon="10.199154837124082"><ele>694.0</ele><time>2026-05-02T08:01:08Z</time></trkpt><trkpt lat="44.0559657949582" lon="10.198957012524401"><ele>692.0</ele><time>2026-05-02T08:01:09Z</time></trkpt><trkpt lat="44.05598444668289" lon="10.198769463908356"><ele>689.75</ele><time>2026-05-02T08:01:10Z</time></trkpt><trkpt lat="44.056001258541365" lon="10.19859303632345"><ele>687.5</ele><time>2026-05-02T08:01:11Z</time></trkpt><trkpt lat="44.056018628813895" lon="10.198412927143165"><ele>685.25</ele><time>2026-05-02T08:01:12Z</time></trkpt><trkpt lat="44.05603999739094" lon="10.198257026828452"><ele>683.0</ele><time>2026-05-02T08:01:13Z</time></trkpt><trkpt lat="44.056063607614696" lon="10.198132598065405"><ele>680.5</ele><time>2026-05-02T08:01:14Z</time></trkpt><trkpt lat="44.05608445522152" lon="10.198031438091327"><ele>678.0</ele><time>2026-05-02T08:01:15Z</time></trkpt><trkpt lat="44.05610210575229" lon="10.197925019052358"><ele>675.5</ele><time>2026-05-02T08:01:16Z</time></trkpt><trkpt lat="44.0561731996344" lon="10.197865222749282"><ele>673.0</ele><time>2026-05-02T08:01:17Z</time></trkpt><trkpt lat="44.05624445646761" lon="10.197888676224132"><ele>670.5</ele><time>2026-05-02T08:01:18Z</time></trkpt><trkpt lat="44.056258700941015" lon="10.197994560017174"><ele>668.0</ele><time>2026-05-02T08:01:19Z</time></trkpt><trkpt lat="44.056192137218275" lon="10.198155063217728"><ele>671.0</ele><time>2026-05-02T08:01:21Z</time></trkpt><trkpt lat="44.056162453434304" lon="10.198265808485148"><ele>674.0</ele><time>2026-05-02T08:01:22Z</time></trkpt><trkpt lat="44.05613040288743" lon="10.198404251229489"><ele>677.0</ele><time>2026-05-02T08:01:23Z</time></trkpt><trkpt lat="44.05610841081057" lon="10.198561714645649"><ele>680.0</ele><time>2026-05-02T08:01:24Z</time></trkpt><trkpt lat="44.05609460209555" lon="10.198708474632685"><ele>683.0</ele><time>2026-05-02T08:01:25Z</time></trkpt><trkpt lat="44.05608847518836" lon="10.198853348684263"><ele>683.0</ele><time>2026-05-02T08:01:26Z</time></trkpt><trkpt lat="44.0560866521926" lon="10.198998549829149"><ele>683.0</ele><time>2026-05-02T08:01:27Z</time></trkpt><trkpt lat="44.05610731344286" lon="10.199147730385107"><ele>683.0</ele><time>2026-05-02T08:01:28Z</time></trkpt><trkpt lat="44.056105764773115" lon="10.199308099027679"><ele>683.0</ele><time>2026-05-02T08:01:29Z</time></trkpt><trkpt lat="44.056122077819865" lon="10.199468704031203"><ele>683.0</ele><time>2026-05-02T08:01:30Z</time></trkpt><trkpt lat="44.05613749288359" lon="10.199641249274665"><ele>685.25</ele><time>2026-05-02T08:01:31Z</time></trkpt><trkpt lat="44.056153385476705" lon="10.199820592560815"><ele>687.5</ele><time>2026-05-02T08:01:32Z</time></trkpt><trkpt lat="44.05616868200778" lon="10.200006463985192"><ele>689.75</ele><time>2026-05-02T08:01:33Z</time></trkpt><trkpt lat="44.05617986478046" lon="10.200204462941336"><ele>692.0</ele><time>2026-05-02T08:01:34Z</time></trkpt><trkpt lat="44.056193253461515" lon="10.200405977721129"><ele>694.0</ele><time>2026-05-02T08:01:35Z</time></trkpt><trkpt lat="44.05620041403567" lon="10.200605135706766"><ele>696.0</ele><time>2026-05-02T08:01:36Z</time></trkpt><trkpt lat="44.056214935402686" lon="10.200796991294306"><ele>698.0</ele><time>2026-05-02T08:01:37Z</time></trkpt><trkpt lat="44.056234478604964" lon="10.200980253633876"><ele>700.0</ele><time>2026-05-02T08:01:38Z</time></trkpt><trkpt lat="44.056247969515276" lon="10.201162271662275"><ele>700.0</ele><time>2026-05-02T08:01:39.001Z</time></trkpt><trkpt lat="44.056253107902734" lon="10.201349626679438"><ele>700.0</ele><time>2026-05-02T08:01:40.001Z</time></trkpt><trkpt lat="44.056250956482266" lon="10.20153201058036"><ele>700.0</ele><time>2026-05-02T08:01:41.001Z</time></trkpt><trkpt lat="44.05625322502273" lon="10.201711864055513"><ele>700.0</ele><time>2026-05-02T08:01:42.001Z</time></trkpt><trkpt lat="44.05625774374573" lon="10.201888392628707"><ele>701.0</ele><time>2026-05-02T08:01:43.001Z</time></trkpt><trkpt lat="44.05625895490807" lon="10.202058911200892"><ele>702.0</ele><time>2026-05-02T08:01:44.001Z</time></trkpt><trkpt lat="44.05625424037232" lon="10.202225866231506"><ele>703.0</ele><time>2026-05-02T08:01:45.001Z</time></trkpt><trkpt lat="44.056240323991645" lon="10.202392731832088"><ele>704.0</ele><time>2026-05-02T08:01:46.001Z</time></trkpt><trkpt lat="44.05623295955795" lon="10.202559580236478"><ele>706.0</ele><time>2026-05-02T08:01:47.001Z</time></trkpt><trkpt lat="44.056232126487586" lon="10.202735959889404"><ele>708.0</ele><time>2026-05-02T08:01:48.001Z</time></trkpt><trkpt lat="44.05622799172894" lon="10.202907885874215"><ele>710.0</ele><time>2026-05-02T08:01:49.001Z</time></trkpt><trkpt lat="44.05621995026496" lon="10.203074649734909"><ele>712.0</ele><time>2026-05-02T08:01:50.001Z</time></trkpt><trkpt lat="44.05621460776288" lon="10.203244884311662"><ele>714.0</ele><time>2026-05-02T08:01:51.001Z</time></trkpt><trkpt lat="44.05620529920607" lon="10.203410145422238"><ele>716.0</ele><time>2026-05-02T08:01:52.001Z</time></trkpt><trkpt lat="44.056194894941804" lon="10.203578686734861"><ele>718.0</ele><time>2026-05-02T08:01:53.001Z</time></trkpt><trkpt lat="44.05618450504687" lon="10.203753158236735"><ele>720.0</ele><time>2026-05-02T08:01:54.001Z</time></trkpt><trkpt lat="44.05616947507559" lon="10.203927358428757"><ele>723.75</ele><time>2026-05-02T08:01:55.001Z</time></trkpt><trkpt lat="44.056136898086805" lon="10.204097552064518"><ele>727.5</ele><time>2026-05-02T08:01:56.001Z</time></trkpt><trkpt lat="44.05609467824928" lon="10.204258363740038"><ele>731.25</ele><time>2026-05-02T08:01:57.001Z</time></trkpt><trkpt lat="44.05603695186295" lon="10.204409897954143"><ele>735.0</ele><time>2026-05-02T08:01:58.001Z</time></trkpt><trkpt lat="44.05596270106263" lon="10.204552543038101"><ele>735.0</ele><time>2026-05-02T08:01:59.001Z</time></trkpt><trkpt lat="44.05590529270647" lon="10.204685382832986"><ele>735.0</ele><time>2026-05-02T08:02:00.001Z</time></trkpt><trkpt lat="44.05585160720741" lon="10.20481104520573"><ele>735.0</ele><time>2026-05-02T08:02:01.001Z</time></trkpt><trkpt lat="44.05580439152867" lon="10.204924159301099"><ele>735.0</ele><time>2026-05-02T08:02:02.001Z</time></trkpt><trkpt lat="44.05576861760179" lon="10.205016738669777"><ele>735.0</ele><time>2026-05-02T08:02:03.001Z</time></trkpt><trkpt lat="44.05575210698952" lon="10.205108875845742"><ele>736.8</ele><time>2026-05-02T08:02:04.001Z</time></trkpt><trkpt lat="44.05577333235067" lon="10.205252625178463"><ele>738.6</ele><time>2026-05-02T08:02:06.001Z</time></trkpt><trkpt lat="44.05587329778188" lon="10.20534097937497"><ele>740.4000000000001</ele><time>2026-05-02T08:02:08.001Z</time></trkpt><trkpt lat="44.05593961396337" lon="10.205235879871887"><ele>742.2</ele><time>2026-05-02T08:02:09.001Z</time></trkpt><trkpt lat="44.05600869605568" lon="10.205174002890713"><ele>744.0</ele><time>2026-05-02T08:02:10.001Z</time></trkpt><trkpt lat="44.05606899414125" lon="10.205084751276997"><ele>742.2</ele><time>2026-05-02T08:02:11.001Z</time></trkpt><trkpt lat="44.05613102346255" lon="10.204992786807766"><ele>740.4000000000001</ele><time>2026-05-02T08:02:12.001Z</time></trkpt><trkpt lat="44.056184097633555" lon="10.204877243599954"><ele>738.6</ele><time>2026-05-02T08:02:13.001Z</time></trkpt><trkpt lat="44.05624419551668" lon="10.204766464897062"><ele>736.8</ele><time>2026-05-02T08:02:14.001Z</time></trkpt><trkpt lat="44.05628847279433" lon="10.20464306105717"><ele>735.0</ele><time>2026-05-02T08:02:15.001Z</time></trkpt><trkpt lat="44.05631748678184" lon="10.204510519155159"><ele>735.0</ele><time>2026-05-02T08:02:16.001Z</time></trkpt><trkpt lat="44.0563473905865" lon="10.204366619436861"><ele>735.0</ele><time>2026-05-02T08:02:17.001Z</time></trkpt><trkpt lat="44.056365019530006" lon="10.204217409002808"><ele>735.0</ele><time>2026-05-02T08:02:18.001Z</time></trkpt><trkpt lat="44.056388376908494" lon="10.204060657852601"><ele>735.0</ele><time>2026-05-02T08:02:19.001Z</time></trkpt><trkpt lat="44.05641243074035" lon="10.203912265227556"><ele>735.0</ele><time>2026-05-02T08:02:20.001Z</time></trkpt><trkpt lat="44.056431462291656" lon="10.203771218250075"><ele>731.25</ele><time>2026-05-02T08:02:21.001Z</time></trkpt><trkpt lat="44.05644761171211" lon="10.20363086562705"><ele>727.5</ele><time>2026-05-02T08:02:22.001Z</time></trkpt><trkpt lat="44.05646888538399" lon="10.203485586060157"><ele>723.75</ele><time>2026-05-02T08:02:23.001Z</time></trkpt><trkpt lat="44.05651543260411" lon="10.203326973580623"><ele>720.0</ele><time>2026-05-02T08:02:24.001Z</time></trkpt><trkpt lat="44.05654037933399" lon="10.20316452987363"><ele>718.0</ele><time>2026-05-02T08:02:25.001Z</time></trkpt><trkpt lat="44.056568940693126" lon="10.202996280067854"><ele>716.0</ele><time>2026-05-02T08:02:26.001Z</time></trkpt><trkpt lat="44.056594174378276" lon="10.20283268641753"><ele>714.0</ele><time>2026-05-02T08:02:27.001Z</time></trkpt><trkpt lat="44.056615432293924" lon="10.202667293354402"><ele>712.0</ele><time>2026-05-02T08:02:28.001Z</time></trkpt><trkpt lat="44.05664083971838" lon="10.202499713139897"><ele>724.5</ele><time>2026-05-02T08:02:29.001Z</time></trkpt><trkpt lat="44.05666591636678" lon="10.202332738307495"><ele>737.0</ele><time>2026-05-02T08:02:30.001Z</time></trkpt><trkpt lat="44.056688459094" lon="10.202167170231228"><ele>749.5</ele><time>2026-05-02T08:02:31.001Z</time></trkpt><trkpt lat="44.05671567172295" lon="10.201996907940476"><ele>762.0</ele><time>2026-05-02T08:02:32.001Z</time></trkpt><trkpt lat="44.056741335825066" lon="10.201824364416051"><ele>762.0</ele><time>2026-05-02T08:02:33.001Z</time></trkpt><trkpt lat="44.05676967153407" lon="10.201654061124463"><ele>762.0</ele><time>2026-05-02T08:02:34.001Z</time></trkpt><trkpt lat="44.05679749957918" lon="10.201487042157748"><ele>762.0</ele><time>2026-05-02T08:02:35.001Z</time></trkpt><trkpt lat="44.056822609812755" lon="10.201324558805922"><ele>762.0</ele><time>2026-05-02T08:02:36.001Z</time></trkpt><trkpt lat="44.05683458779293" lon="10.20115994531147"><ele>761.5</ele><time>2026-05-02T08:02:37.001Z</time></trkpt><trkpt lat="44.056836032514816" lon="10.200992691695156"><ele>761.0</ele><time>2026-05-02T08:02:38.001Z</time></trkpt><trkpt lat="44.05683828250344" lon="10.20081848763478"><ele>760.5</ele><time>2026-05-02T08:02:39.001Z</time></trkpt><trkpt lat="44.056824572571934" lon="10.200657681088424"><ele>760.0</ele><time>2026-05-02T08:02:40.001Z</time></trkpt><trkpt lat="44.05680940393382" lon="10.200495067285718"><ele>760.0</ele><time>2026-05-02T08:02:41.001Z</time></trkpt><trkpt lat="44.05679830660071" lon="10.200336533195683"><ele>760.0</ele><time>2026-05-02T08:02:42.001Z</time></trkpt><trkpt lat="44.05678460220281" lon="10.200185354303903"><ele>760.0</ele><time>2026-05-02T08:02:43.001Z</time></trkpt><trkpt lat="44.05677220907311" lon="10.200046030727544"><ele>760.0</ele><time>2026-05-02T08:02:44.001Z</time></trkpt><trkpt lat="44.0567665233168" lon="10.199923719646463"><ele>760.0</ele><time>2026-05-02T08:02:45.001Z</time></trkpt><trkpt lat="44.05674228406738" lon="10.199830030331619"><ele>760.0</ele><time>2026-05-02T08:02:46.001Z</time></trkpt><trkpt lat="44.05676921231893" lon="10.199748423092029"><ele>760.0</ele><time>2026-05-02T08:02:47.001Z</time></trkpt><trkpt lat="44.05687989013911" lon="10.199704676712976"><ele>760.0</ele><time>2026-05-02T08:02:49.001Z</time></trkpt><trkpt lat="44.056941884817576" lon="10.199828531783822"><ele>760.0</ele><time>2026-05-02T08:02:51.001Z</time></trkpt><trkpt lat="44.05692878763572" lon="10.199936514935567"><ele>760.0</ele><time>2026-05-02T08:02:52.001Z</time></trkpt><trkpt lat="44.05693028459748" lon="10.200061269358605"><ele>760.0</ele><time>2026-05-02T08:02:53.001Z</time></trkpt><trkpt lat="44.056919378644224" lon="10.20019471961446"><ele>760.0</ele><time>2026-05-02T08:02:54.001Z</time></trkpt><trkpt lat="44.056913406222705" lon="10.200324095441557"><ele>760.0</ele><time>2026-05-02T08:02:55.001Z</time></trkpt><trkpt lat="44.056917681547375" lon="10.200449835044804"><ele>760.0</ele><time>2026-05-02T08:02:56.001Z</time></trkpt><trkpt lat="44.05691990451458" lon="10.200573137628131"><ele>760.0</ele><time>2026-05-02T08:02:57.001Z</time></trkpt><trkpt lat="44.05693330607246" lon="10.200702929189436"><ele>759.8</ele><time>2026-05-02T08:02:58.001Z</time></trkpt><trkpt lat="44.056954720214875" lon="10.200836217247527"><ele>759.6</ele><time>2026-05-02T08:02:59.001Z</time></trkpt><trkpt lat="44.056978786552044" lon="10.200975095670783"><ele>759.4000000000001</ele><time>2026-05-02T08:03:00.001Z</time></trkpt><trkpt lat="44.056999069744506" lon="10.20111730417573"><ele>759.2</ele><time>2026-05-02T08:03:01.001Z</time></trkpt><trkpt lat="44.05701259157336" lon="10.201261558414501"><ele>759.0</ele><time>2026-05-02T08:03:02.001Z</time></trkpt><trkpt lat="44.05701546293738" lon="10.201412081765492"><ele>759.6</ele><time>2026-05-02T08:03:03.001Z</time></trkpt><trkpt lat="44.05700570793031" lon="10.201562487352163"><ele>760.2</ele><time>2026-05-02T08:03:03.999Z</time></trkpt><trkpt lat="44.056994816378705" lon="10.20171953380169"><ele>760.8000000000001</ele><time>2026-05-02T08:03:04.999Z</time></trkpt><trkpt lat="44.056981457501536" lon="10.201870132602997"><ele>761.4000000000001</ele><time>2026-05-02T08:03:05.999Z</time></trkpt><trkpt lat="44.056970743614144" lon="10.202021907824893"><ele>762.0</ele><time>2026-05-02T08:03:06.999Z</time></trkpt><trkpt lat="44.056962807236545" lon="10.202179029670338"><ele>762.75</ele><time>2026-05-02T08:03:07.999Z</time></trkpt><trkpt lat="44.05695755599865" lon="10.202334627597015"><ele>763.5</ele><time>2026-05-02T08:03:08.999Z</time></trkpt><trkpt lat="44.05695956672939" lon="10.202496649835467"><ele>764.25</ele><time>2026-05-02T08:03:09.999Z</time></trkpt><trkpt lat="44.05696407075496" lon="10.20265322153239"><ele>765.0</ele><time>2026-05-02T08:03:10.999Z</time></trkpt><trkpt lat="44.05696850436493" lon="10.202804899018314"><ele>765.0</ele><time>2026-05-02T08:03:11.999Z</time></trkpt><trkpt lat="44.05697180060166" lon="10.20296017061098"><ele>765.0</ele><time>2026-05-02T08:03:12.999Z</time></trkpt><trkpt lat="44.056974885358095" lon="10.20311753031525"><ele>765.0</ele><time>2026-05-02T08:03:13.999Z</time></trkpt><trkpt lat="44.05697108589022" lon="10.203271970828919"><ele>765.0</ele><time>2026-05-02T08:03:14.999Z</time></trkpt><trkpt lat="44.05696145567265" lon="10.203425890661798"><ele>765.0</ele><time>2026-05-02T08:03:15.999Z</time></trkpt><trkpt lat="44.056955076776845" lon="10.203579791138926"><ele>766.5</ele><time>2026-05-02T08:03:16.999Z</time></trkpt><trkpt lat="44.056946706745116" lon="10.203730203425511"><ele>768.0</ele><time>2026-05-02T08:03:17.999Z</time></trkpt><trkpt lat="44.05694141786939" lon="10.203884151640203"><ele>769.5</ele><time>2026-05-02T08:03:18.999Z</time></trkpt><trkpt lat="44.0569336024679" lon="10.204045954256593"><ele>771.0</ele><time>2026-05-02T08:03:19.999Z</time></trkpt><trkpt lat="44.056923256884374" lon="10.204205524978482"><ele>772.25</ele><time>2026-05-02T08:03:21Z</time></trkpt><trkpt lat="44.05691430681002" lon="10.204363903693041"><ele>773.5</ele><time>2026-05-02T08:03:22Z</time></trkpt><trkpt lat="44.056900376421716" lon="10.204520021297972"><ele>774.75</ele><time>2026-05-02T08:03:23Z</time></trkpt><trkpt lat="44.05688834315271" lon="10.204684589621728"><ele>776.0</ele><time>2026-05-02T08:03:24Z</time></trkpt><trkpt lat="44.05687699459992" lon="10.204847971700733"><ele>779.5</ele><time>2026-05-02T08:03:25Z</time></trkpt><trkpt lat="44.05686275051739" lon="10.205008986283918"><ele>783.0</ele><time>2026-05-02T08:03:26Z</time></trkpt><trkpt lat="44.056846208288086" lon="10.205170677596072"><ele>786.5</ele><time>2026-05-02T08:03:27Z</time></trkpt><trkpt lat="44.05683640766528" lon="10.2053295330568"><ele>790.0</ele><time>2026-05-02T08:03:28Z</time></trkpt><trkpt lat="44.0568277208515" lon="10.205481603868225"><ele>789.9999999999999</ele><time>2026-05-02T08:03:29Z</time></trkpt><trkpt lat="44.05682432692003" lon="10.205624684231616"><ele>790.0</ele><time>2026-05-02T08:03:30Z</time></trkpt><trkpt lat="44.05679224155285" lon="10.205750659635365"><ele>790.0</ele><time>2026-05-02T08:03:31Z</time></trkpt><trkpt lat="44.05676740050559" lon="10.205857671291543"><ele>790.0</ele><time>2026-05-02T08:03:32Z</time></trkpt><trkpt lat="44.0567262576193" lon="10.20594377217789"><ele>789.9999999999999</ele><time>2026-05-02T08:03:33Z</time></trkpt><trkpt lat="44.05667665006599" lon="10.205999965203548"><ele>790.0</ele><time>2026-05-02T08:03:34Z</time></trkpt><trkpt lat="44.05661951505566" lon="10.206136531741146"><ele>793.1666666666666</ele><time>2026-05-02T08:03:36Z</time></trkpt><trkpt lat="44.05667838183898" lon="10.206257804839572"><ele>796.3333333333333</ele><time>2026-05-02T08:03:38Z</time></trkpt><trkpt lat="44.05674464210075" lon="10.206239403125693"><ele>799.5</ele><time>2026-05-02T08:03:39Z</time></trkpt><trkpt lat="44.05680521399472" lon="10.206184009117827"><ele>802.6666666666667</ele><time>2026-05-02T08:03:40Z</time></trkpt><trkpt lat="44.05685006675209" lon="10.20611290886288"><ele>805.8333333333334</ele><time>2026-05-02T08:03:41Z</time></trkpt><trkpt lat="44.05687422068001" lon="10.206020785834106"><ele>809.0</ele><time>2026-05-02T08:03:42Z</time></trkpt><trkpt lat="44.05690875882676" lon="10.20592788640923"><ele>809.0</ele><time>2026-05-02T08:03:43Z</time></trkpt><trkpt lat="44.05693036026589" lon="10.205818273380613"><ele>809.0</ele><time>2026-05-02T08:03:44Z</time></trkpt><trkpt lat="44.056948006953014" lon="10.205705594638882"><ele>809.0</ele><time>2026-05-02T08:03:45Z</time></trkpt><trkpt lat="44.056967995907016" lon="10.205572341535655"><ele>809.0</ele><time>2026-05-02T08:03:46Z</time></trkpt><trkpt lat="44.05698670557804" lon="10.205425262898615"><ele>809.0</ele><time>2026-05-02T08:03:47Z</time></trkpt><trkpt lat="44.05701344129866" lon="10.20528074921392"><ele>805.2</ele><time>2026-05-02T08:03:48Z</time></trkpt><trkpt lat="44.05704195140073" lon="10.205141741065457"><ele>801.4000000000001</ele><time>2026-05-02T08:03:49Z</time></trkpt><trkpt lat="44.057072339018184" lon="10.204994203857337"><ele>797.6</ele><time>2026-05-02T08:03:50Z</time></trkpt><trkpt lat="44.05711930193113" lon="10.204854152633303"><ele>793.8</ele><time>2026-05-02T08:03:51Z</time></trkpt><trkpt lat="44.05717552859529" lon="10.204719530928907"><ele>790.0</ele><time>2026-05-02T08:03:52Z</time></trkpt><trkpt lat="44.05722057580736" lon="10.204583497474815"><ele>787.2</ele><time>2026-05-02T08:03:53Z</time></trkpt><trkpt lat="44.05724820891841" lon="10.204438565448399"><ele>784.4</ele><time>2026-05-02T08:03:54Z</time></trkpt><trkpt lat="44.05726814898996" lon="10.20428808268094"><ele>781.5999999999999</ele><time>2026-05-02T08:03:55Z</time></trkpt><trkpt lat="44.05728833941193" lon="10.204132595709115"><ele>778.8</ele><time>2026-05-02T08:03:56Z</time></trkpt><trkpt lat="44.05730639155336" lon="10.203991774347323"><ele>776.0</ele><time>2026-05-02T08:03:57Z</time></trkpt><trkpt lat="44.05732994799522" lon="10.203848669485756"><ele>775.0</ele><time>2026-05-02T08:03:58Z</time></trkpt><trkpt lat="44.0573567112154" lon="10.203703578147643"><ele>774.0</ele><time>2026-05-02T08:03:59Z</time></trkpt><trkpt lat="44.05738401492718" lon="10.203555706569812"><ele>773.0</ele><time>2026-05-02T08:04:00Z</time></trkpt><trkpt lat="44.057407679724534" lon="10.203398794320602"><ele>772.0</ele><time>2026-05-02T08:04:01Z</time></trkpt><trkpt lat="44.057424983150305" lon="10.203242329531879"><ele>771.0</ele><time>2026-05-02T08:04:02Z</time></trkpt><trkpt lat="44.05743911000761" lon="10.203096864000283"><ele>769.8</ele><time>2026-05-02T08:04:03Z</time></trkpt><trkpt lat="44.057449380992395" lon="10.202954685829775"><ele>768.5999999999999</ele><time>2026-05-02T08:04:04Z</time></trkpt><trkpt lat="44.05745712226099" lon="10.202810718226447"><ele>767.4</ele><time>2026-05-02T08:04:05Z</time></trkpt><trkpt lat="44.05746529699435" lon="10.202664642110285"><ele>766.2</ele><time>2026-05-02T08:04:06Z</time></trkpt><trkpt lat="44.057470370305005" lon="10.202521528440537"><ele>765.0</ele><time>2026-05-02T08:04:07Z</time></trkpt><trkpt lat="44.057473451189225" lon="10.202382799948918"><ele>777.0</ele><time>2026-05-02T08:04:08Z</time></trkpt><trkpt lat="44.05747840281867" lon="10.202255454335587"><ele>789.0</ele><time>2026-05-02T08:04:09Z</time></trkpt><trkpt lat="44.0574870665512" lon="10.202144020587834"><ele>801.0</ele><time>2026-05-02T08:04:10Z</time></trkpt><trkpt lat="44.0574919229821" lon="10.202050534343748"><ele>813.0</ele><time>2026-05-02T08:04:11Z</time></trkpt><trkpt lat="44.05749602644083" lon="10.201886673659446"><ele>825.0</ele><time>2026-05-02T08:04:13Z</time></trkpt><trkpt lat="44.05752522226448" lon="10.201733533080965"><ele>825.0</ele><time>2026-05-02T08:04:15Z</time></trkpt><trkpt lat="44.05761338994312" lon="10.2016511410474"><ele>825.0</ele><time>2026-05-02T08:04:17Z</time></trkpt><trkpt lat="44.05766396521575" lon="10.201763747507258"><ele>825.0</ele><time>2026-05-02T08:04:19Z</time></trkpt><trkpt lat="44.05762747532783" lon="10.201880266775989"><ele>825.0</ele><time>2026-05-02T08:04:21Z</time></trkpt><trkpt lat="44.057588460919966" lon="10.202049025804772"><ele>825.0</ele><time>2026-05-02T08:04:23Z</time></trkpt><trkpt lat="44.05756168882069" lon="10.202151781956815"><ele>825.0</ele><time>2026-05-02T08:04:24Z</time></trkpt><trkpt lat="44.057538183364784" lon="10.202271489729448"><ele>825.0</ele><time>2026-05-02T08:04:25Z</time></trkpt><trkpt lat="44.05753155251835" lon="10.202407321662216"><ele>825.0</ele><time>2026-05-02T08:04:26Z</time></trkpt><trkpt lat="44.057542656297024" lon="10.20254929508837"><ele>825.0</ele><time>2026-05-02T08:04:27Z</time></trkpt><trkpt lat="44.05756411310195" lon="10.202685798210826"><ele>825.0</ele><time>2026-05-02T08:04:28Z</time></trkpt><trkpt lat="44.05758485938411" lon="10.202812002475799"><ele>826.0</ele><time>2026-05-02T08:04:29Z</time></trkpt><trkpt lat="44.057597563623084" lon="10.202935328783187"><ele>827.0</ele><time>2026-05-02T08:04:30Z</time></trkpt><trkpt lat="44.05760293324383" lon="10.203072081903764"><ele>828.0</ele><time>2026-05-02T08:04:31Z</time></trkpt><trkpt lat="44.057615170517785" lon="10.203214027535244"><ele>829.0</ele><time>2026-05-02T08:04:32Z</time></trkpt><trkpt lat="44.05760802429052" lon="10.203357422054514"><ele>830.0</ele><time>2026-05-02T08:04:33Z</time></trkpt><trkpt lat="44.05760084073525" lon="10.203508281272889"><ele>830.8</ele><time>2026-05-02T08:04:34Z</time></trkpt><trkpt lat="44.05759389774516" lon="10.203656969278795"><ele>831.6</ele><time>2026-05-02T08:04:35Z</time></trkpt><trkpt lat="44.05758828467187" lon="10.203810373453377"><ele>832.4000000000001</ele><time>2026-05-02T08:04:36Z</time></trkpt><trkpt lat="44.05757871162324" lon="10.20396254136868"><ele>833.2</ele><time>2026-05-02T08:04:37Z</time></trkpt><trkpt lat="44.057571727137166" lon="10.204118930508727"><ele>834.0</ele><time>2026-05-02T08:04:38Z</time></trkpt><trkpt lat="44.05756704953543" lon="10.20427701264169"><ele>835.25</ele><time>2026-05-02T08:04:39Z</time></trkpt><trkpt lat="44.05756027203376" lon="10.204436508563678"><ele>836.5</ele><time>2026-05-02T08:04:40.001Z</time></trkpt><trkpt lat="44.057555112690714" lon="10.204600153603005"><ele>837.75</ele><time>2026-05-02T08:04:41.001Z</time></trkpt><trkpt lat="44.0575474368592" lon="10.204760863394453"><ele>839.0</ele><time>2026-05-02T08:04:42.001Z</time></trkpt><trkpt lat="44.05753798791661" lon="10.204920164807602"><ele>840.0</ele><time>2026-05-02T08:04:43.001Z</time></trkpt><trkpt lat="44.05752647606935" lon="10.205083711574538"><ele>841.0</ele><time>2026-05-02T08:04:44.001Z</time></trkpt><trkpt lat="44.05752096175009" lon="10.205239252549438"><ele>842.0</ele><time>2026-05-02T08:04:45.001Z</time></trkpt><trkpt lat="44.05751571693301" lon="10.205390477113637"><ele>843.0</ele><time>2026-05-02T08:04:46.001Z</time></trkpt><trkpt lat="44.05750886796793" lon="10.20554207116008"><ele>844.0</ele><time>2026-05-02T08:04:47.001Z</time></trkpt><trkpt lat="44.05750844744351" lon="10.205693294488368"><ele>845.8000000000001</ele><time>2026-05-02T08:04:48.001Z</time></trkpt><trkpt lat="44.05751999029564" lon="10.205837015068973"><ele>847.6</ele><time>2026-05-02T08:04:49.001Z</time></trkpt><trkpt lat="44.05754355789996" lon="10.205976433186843"><ele>849.4</ele><time>2026-05-02T08:04:50.001Z</time></trkpt><trkpt lat="44.057579340858354" lon="10.206113889758017"><ele>851.2</ele><time>2026-05-02T08:04:51.001Z</time></trkpt><trkpt lat="44.057616007079844" lon="10.206255160544703"><ele>853.0</ele><time>2026-05-02T08:04:52.001Z</time></trkpt><trkpt lat="44.05763588608687" lon="10.206405082235513"><ele>854.4</ele><time>2026-05-02T08:04:53.001Z</time></trkpt><trkpt lat="44.05767092263556" lon="10.206552786263263"><ele>855.8</ele><time>2026-05-02T08:04:54.001Z</time></trkpt><trkpt lat="44.057719046020196" lon="10.206691021256"><ele>857.2</ele><time>2026-05-02T08:04:55.001Z</time></trkpt><trkpt lat="44.057746878033235" lon="10.206836935990673"><ele>858.6</ele><time>2026-05-02T08:04:56.001Z</time></trkpt><trkpt lat="44.05777708384647" lon="10.206973868972936"><ele>860.0</ele><time>2026-05-02T08:04:57.001Z</time></trkpt><trkpt lat="44.05780747263053" lon="10.207112737184232"><ele>860.0</ele><time>2026-05-02T08:04:58.001Z</time></trkpt><trkpt lat="44.05783555660617" lon="10.207247361175373"><ele>860.0</ele><time>2026-05-02T08:04:59.001Z</time></trkpt><trkpt lat="44.05785927300405" lon="10.207376745462808"><ele>860.0</ele><time>2026-05-02T08:05:00.001Z</time></trkpt><trkpt lat="44.0578723725539" lon="10.2075040757027"><ele>860.0</ele><time>2026-05-02T08:05:01.001Z</time></trkpt><trkpt lat="44.05786617906101" lon="10.207634764198895"><ele>860.0</ele><time>2026-05-02T08:05:02.001Z</time></trkpt><trkpt lat="44.05783424009376" lon="10.207751124699223"><ele>860.0</ele><time>2026-05-02T08:05:03.001Z</time></trkpt><trkpt lat="44.05778463690562" lon="10.207859180607196"><ele>860.0</ele><time>2026-05-02T08:05:04.001Z</time></trkpt><trkpt lat="44.05772797726745" lon="10.207947090666748"><ele>860.0</ele><time>2026-05-02T08:05:05.001Z</time></trkpt><trkpt lat="44.05766609952096" lon="10.208018322974834"><ele>860.0</ele><time>2026-05-02T08:05:06.001Z</time></trkpt><trkpt lat="44.05758786880034" lon="10.208082737619335"><ele>860.0</ele><time>2026-05-02T08:05:07.001Z</time></trkpt><trkpt lat="44.05750655593179" lon="10.208172028776474"><ele>866.0000000000001</ele><time>2026-05-02T08:05:08.001Z</time></trkpt><trkpt lat="44.05743220244516" lon="10.208253587051232"><ele>872.0</ele><time>2026-05-02T08:05:09.001Z</time></trkpt><trkpt lat="44.057357921121195" lon="10.208334233606674"><ele>878.0</ele><time>2026-05-02T08:05:09.999Z</time></trkpt><trkpt lat="44.057289739812305" lon="10.208408919499389"><ele>884.0</ele><time>2026-05-02T08:05:10.999Z</time></trkpt><trkpt lat="44.057240312486975" lon="10.20849579514685"><ele>890.0000000000001</ele><time>2026-05-02T08:05:11.999Z</time></trkpt><trkpt lat="44.05718794220934" lon="10.208561089091319"><ele>896.0</ele><time>2026-05-02T08:05:12.999Z</time></trkpt><trkpt lat="44.0571442740645" lon="10.208629582587964"><ele>896.0000000000001</ele><time>2026-05-02T08:05:13.999Z</time></trkpt><trkpt lat="44.05710739608192" lon="10.208703846322479"><ele>896.0</ele><time>2026-05-02T08:05:14.999Z</time></trkpt><trkpt lat="44.057048029894304" lon="10.208859165521767"><ele>896.0</ele><time>2026-05-02T08:05:16.999Z</time></trkpt><trkpt lat="44.05702285381466" lon="10.208941239898454"><ele>896.0</ele><time>2026-05-02T08:05:17.999Z</time></trkpt><trkpt lat="44.05699823357432" lon="10.209023100627634"><ele>896.0000000000001</ele><time>2026-05-02T08:05:18.999Z</time></trkpt><trkpt lat="44.056980013514064" lon="10.20911557957133"><ele>896.0</ele><time>2026-05-02T08:05:21.137Z</time></trkpt><trkpt lat="44.05701762119539" lon="10.209458234444279"><ele>890.0</ele><time>2026-05-02T08:05:24.323Z</time></trkpt><trkpt lat="44.05703134231118" lon="10.20956160910197"><ele>883.9999999999999</ele><time>2026-05-02T08:05:25.325Z</time></trkpt><trkpt lat="44.05704721532851" lon="10.209664145585245"><ele>877.9999999999999</ele><time>2026-05-02T08:05:26.325Z</time></trkpt><trkpt lat="44.057063455906615" lon="10.209766219197105"><ele>872.0</ele><time>2026-05-02T08:05:27.322Z</time></trkpt><trkpt lat="44.05707982998599" lon="10.209869131877387"><ele>866.0</ele><time>2026-05-02T08:05:28.326Z</time></trkpt><trkpt lat="44.05690145874806" lon="10.210129695187966"><ele>866.0</ele><time>2026-05-02T08:05:30Z</time></trkpt><trkpt lat="44.0570480781499" lon="10.210277189275878"><ele>866.0</ele><time>2026-05-02T08:05:31Z</time></trkpt><trkpt lat="44.05712306733226" lon="10.21043627664101"><ele>866.0</ele><time>2026-05-02T08:05:32Z</time></trkpt><trkpt lat="44.057152164100266" lon="10.210581610515021"><ele>866.0</ele><time>2026-05-02T08:05:33Z</time></trkpt><trkpt lat="44.0571799328075" lon="10.210723418370577"><ele>866.0</ele><time>2026-05-02T08:05:34Z</time></trkpt><trkpt lat="44.05720634299702" lon="10.210871691524419"><ele>865.9999999999999</ele><time>2026-05-02T08:05:35Z</time></trkpt><trkpt lat="44.05723892085383" lon="10.211018465829863"><ele>865.9999999999999</ele><time>2026-05-02T08:05:36Z</time></trkpt><trkpt lat="44.05729901158156" lon="10.211141927191147"><ele>866.0</ele><time>2026-05-02T08:05:37Z</time></trkpt><trkpt lat="44.05736778570776" lon="10.211250243911048"><ele>866.0</ele><time>2026-05-02T08:05:38Z</time></trkpt><trkpt lat="44.05744521349202" lon="10.211348113214973"><ele>868.5999999999999</ele><time>2026-05-02T08:05:39Z</time></trkpt><trkpt lat="44.05751294216801" lon="10.21145669229953"><ele>871.1999999999999</ele><time>2026-05-02T08:05:40Z</time></trkpt><trkpt lat="44.057569998338785" lon="10.211572580957613"><ele>873.8000000000001</ele><time>2026-05-02T08:05:41Z</time></trkpt><trkpt lat="44.05759553950248" lon="10.211708429814902"><ele>876.4000000000001</ele><time>2026-05-02T08:05:42Z</time></trkpt><trkpt lat="44.057632271255635" lon="10.211845639027402"><ele>879.0</ele><time>2026-05-02T08:05:43Z</time></trkpt><trkpt lat="44.05766521772406" lon="10.211990302990209"><ele>883.75</ele><time>2026-05-02T08:05:44Z</time></trkpt><trkpt lat="44.05769960585266" lon="10.212138372695419"><ele>888.5</ele><time>2026-05-02T08:05:45Z</time></trkpt><trkpt lat="44.05773336768691" lon="10.212288212633474"><ele>893.25</ele><time>2026-05-02T08:05:46Z</time></trkpt><trkpt lat="44.05777695192906" lon="10.212449876784111"><ele>898.0</ele><time>2026-05-02T08:05:47Z</time></trkpt><trkpt lat="44.05782243022376" lon="10.212607767460854"><ele>903.5</ele><time>2026-05-02T08:05:48Z</time></trkpt><trkpt lat="44.05786967017636" lon="10.21276779678578"><ele>909.0</ele><time>2026-05-02T08:05:49Z</time></trkpt><trkpt lat="44.05791061712346" lon="10.212928488132963"><ele>914.5</ele><time>2026-05-02T08:05:50Z</time></trkpt><trkpt lat="44.05794441159198" lon="10.213096786169142"><ele>920.0</ele><time>2026-05-02T08:05:51Z</time></trkpt><trkpt lat="44.0579750078327" lon="10.213260237765168"><ele>927.75</ele><time>2026-05-02T08:05:52Z</time></trkpt><trkpt lat="44.05800656556736" lon="10.213422930385809"><ele>935.5</ele><time>2026-05-02T08:05:53Z</time></trkpt><trkpt lat="44.058043563678574" lon="10.213582281693157"><ele>943.25</ele><time>2026-05-02T08:05:54Z</time></trkpt><trkpt lat="44.058083556863224" lon="10.213734007242262"><ele>951.0</ele><time>2026-05-02T08:05:55Z</time></trkpt><trkpt lat="44.05811129094842" lon="10.213885967346608"><ele>958.25</ele><time>2026-05-02T08:05:56Z</time></trkpt><trkpt lat="44.05814699434518" lon="10.214033500871583"><ele>965.5</ele><time>2026-05-02T08:05:57Z</time></trkpt><trkpt lat="44.05819332293078" lon="10.214196994739861"><ele>972.75</ele><time>2026-05-02T08:05:58.139Z</time></trkpt><trkpt lat="44.05827567683501" lon="10.214466963287546"><ele>980.0</ele><time>2026-05-02T08:06:00Z</time></trkpt><trkpt lat="44.058327719903254" lon="10.214634099934136"><ele>967.75</ele><time>2026-05-02T08:06:01Z</time></trkpt><trkpt lat="44.058404825999894" lon="10.214772885070621"><ele>955.5</ele><time>2026-05-02T08:06:02Z</time></trkpt><trkpt lat="44.05845399636063" lon="10.21494806860867"><ele>943.25</ele><time>2026-05-02T08:06:03Z</time></trkpt><trkpt lat="44.058486967099626" lon="10.215080665254055"><ele>931.0</ele><time>2026-05-02T08:06:04Z</time></trkpt><trkpt lat="44.058488834445996" lon="10.215213357552662"><ele>931.0</ele><time>2026-05-02T08:06:05Z</time></trkpt><trkpt lat="44.05847817877448" lon="10.215338285581836"><ele>930.9999999999999</ele><time>2026-05-02T08:06:06Z</time></trkpt><trkpt lat="44.058443252068734" lon="10.215469269233854"><ele>930.9999999999999</ele><time>2026-05-02T08:06:07Z</time></trkpt><trkpt lat="44.05838358863258" lon="10.215602920411971"><ele>931.0</ele><time>2026-05-02T08:06:08Z</time></trkpt><trkpt lat="44.05835183273288" lon="10.215718059550976"><ele>931.0</ele><time>2026-05-02T08:06:09Z</time></trkpt><trkpt lat="44.0583445216477" lon="10.21583604956187"><ele>933.5999999999999</ele><time>2026-05-02T08:06:10Z</time></trkpt><trkpt lat="44.05836257555967" lon="10.215952553101495"><ele>936.1999999999999</ele><time>2026-05-02T08:06:11Z</time></trkpt><trkpt lat="44.05839492452408" lon="10.216069950288391"><ele>938.8000000000001</ele><time>2026-05-02T08:06:12Z</time></trkpt><trkpt lat="44.05843424243923" lon="10.21618781666789"><ele>941.4000000000001</ele><time>2026-05-02T08:06:13Z</time></trkpt><trkpt lat="44.05847981367989" lon="10.216304867117854"><ele>944.0</ele><time>2026-05-02T08:06:14Z</time></trkpt><trkpt lat="44.0585278431143" lon="10.216416301949693"><ele>946.4000000000001</ele><time>2026-05-02T08:06:15Z</time></trkpt><trkpt lat="44.058586736867746" lon="10.216514481120482"><ele>948.8000000000001</ele><time>2026-05-02T08:06:16Z</time></trkpt><trkpt lat="44.05865574684118" lon="10.21660926457944"><ele>951.1999999999999</ele><time>2026-05-02T08:06:17Z</time></trkpt><trkpt lat="44.058727320914976" lon="10.216700369713225"><ele>953.5999999999999</ele><time>2026-05-02T08:06:18Z</time></trkpt><trkpt lat="44.05878611360674" lon="10.216792782960766"><ele>956.0</ele><time>2026-05-02T08:06:19Z</time></trkpt><trkpt lat="44.05885192677252" lon="10.216858926618878"><ele>956.0</ele><time>2026-05-02T08:06:20Z</time></trkpt><trkpt lat="44.05908825623513" lon="10.216698313442052"><ele>956.0</ele><time>2026-05-02T08:06:21Z</time></trkpt><trkpt lat="44.05920579249013" lon="10.216669068088478"><ele>956.0</ele><time>2026-05-02T08:06:22Z</time></trkpt><trkpt lat="44.05932671559932" lon="10.216649654299637"><ele>952.4</ele><time>2026-05-02T08:06:23Z</time></trkpt><trkpt lat="44.05944185582289" lon="10.216626304596867"><ele>948.8</ele><time>2026-05-02T08:06:24Z</time></trkpt><trkpt lat="44.05955198743309" lon="10.216608624733997"><ele>945.1999999999999</ele><time>2026-05-02T08:06:25Z</time></trkpt><trkpt lat="44.05964770980723" lon="10.216626582953241"><ele>941.5999999999999</ele><time>2026-05-02T08:06:26Z</time></trkpt><trkpt lat="44.059739360655136" lon="10.216656449149372"><ele>938.0</ele><time>2026-05-02T08:06:27Z</time></trkpt><trkpt lat="44.05981731828581" lon="10.216725273035397"><ele>938.0</ele><time>2026-05-02T08:06:28Z</time></trkpt><trkpt lat="44.05988576859985" lon="10.216823143274748"><ele>938.0</ele><time>2026-05-02T08:06:29Z</time></trkpt><trkpt lat="44.05994620823362" lon="10.216926852360606"><ele>938.0</ele><time>2026-05-02T08:06:30Z</time></trkpt><trkpt lat="44.05999704146911" lon="10.21704915508611"><ele>938.0</ele><time>2026-05-02T08:06:31Z</time></trkpt><trkpt lat="44.06006974859174" lon="10.217164991765136"><ele>938.0</ele><time>2026-05-02T08:06:32Z</time></trkpt><trkpt lat="44.06015136964031" lon="10.217265009360547"><ele>945.0</ele><time>2026-05-02T08:06:33Z</time></trkpt><trkpt lat="44.060246718967065" lon="10.21734531397494"><ele>952.0</ele><time>2026-05-02T08:06:34Z</time></trkpt><trkpt lat="44.06036989811323" lon="10.217362650583217"><ele>959.0</ele><time>2026-05-02T08:06:35.001Z</time></trkpt><trkpt lat="44.06049002959719" lon="10.217352277212438"><ele>966.0</ele><time>2026-05-02T08:06:36.001Z</time></trkpt><trkpt lat="44.060615027456144" lon="10.217330377008883"><ele>958.0</ele><time>2026-05-02T08:06:37.001Z</time></trkpt><trkpt lat="44.06073740559507" lon="10.217310630172168"><ele>950.0</ele><time>2026-05-02T08:06:38.001Z</time></trkpt><trkpt lat="44.06086165716632" lon="10.217318047539283"><ele>942.0</ele><time>2026-05-02T08:06:39.001Z</time></trkpt><trkpt lat="44.06098028369492" lon="10.217305833928684"><ele>934.0</ele><time>2026-05-02T08:06:40.001Z</time></trkpt><trkpt lat="44.06109540372045" lon="10.2173035640781"><ele>933.0</ele><time>2026-05-02T08:06:41.001Z</time></trkpt><trkpt lat="44.061204476022134" lon="10.21730721335779"><ele>932.0000000000001</ele><time>2026-05-02T08:06:42.001Z</time></trkpt><trkpt lat="44.06130187547244" lon="10.217275430795654"><ele>931.0000000000001</ele><time>2026-05-02T08:06:43.001Z</time></trkpt><trkpt lat="44.06139045374347" lon="10.217246234139587"><ele>930.0</ele><time>2026-05-02T08:06:44.001Z</time></trkpt><trkpt lat="44.06147678907948" lon="10.217188922891294"><ele>929.0</ele><time>2026-05-02T08:06:45.001Z</time></trkpt><trkpt lat="44.06155437958759" lon="10.217116208697616"><ele>933.0</ele><time>2026-05-02T08:06:46.001Z</time></trkpt><trkpt lat="44.061625526636305" lon="10.21703259130633"><ele>937.0000000000001</ele><time>2026-05-02T08:06:47.001Z</time></trkpt><trkpt lat="44.061708865992436" lon="10.216936908299134"><ele>941.0000000000001</ele><time>2026-05-02T08:06:48.001Z</time></trkpt><trkpt lat="44.06179325290228" lon="10.216850370714374"><ele>945.0</ele><time>2026-05-02T08:06:49.001Z</time></trkpt><trkpt lat="44.061889171557894" lon="10.216769111152193"><ele>949.0</ele><time>2026-05-02T08:06:50.001Z</time></trkpt><trkpt lat="44.0619989698018" lon="10.216709466182527"><ele>949.0</ele><time>2026-05-02T08:06:51.001Z</time></trkpt><trkpt lat="44.06211236289922" lon="10.216670419342972"><ele>949.0000000000001</ele><time>2026-05-02T08:06:52.001Z</time></trkpt><trkpt lat="44.062219827630464" lon="10.216655401646191"><ele>949.0000000000001</ele><time>2026-05-02T08:06:53.001Z</time></trkpt><trkpt lat="44.062324237139464" lon="10.216675101878584"><ele>949.0</ele><time>2026-05-02T08:06:54.001Z</time></trkpt><trkpt lat="44.06241434976557" lon="10.216738693123663"><ele>949.0</ele><time>2026-05-02T08:06:55.001Z</time></trkpt><trkpt lat="44.06249843330698" lon="10.21679175004049"><ele>951.4000000000001</ele><time>2026-05-02T08:06:56.001Z</time></trkpt><trkpt lat="44.062585426603704" lon="10.216872880783416"><ele>953.8000000000001</ele><time>2026-05-02T08:06:57.001Z</time></trkpt><trkpt lat="44.06265900090813" lon="10.21698497353454"><ele>956.1999999999999</ele><time>2026-05-02T08:06:58.001Z</time></trkpt><trkpt lat="44.06271285032014" lon="10.217097228169532"><ele>958.5999999999999</ele><time>2026-05-02T08:06:59.001Z</time></trkpt><trkpt lat="44.06277175098943" lon="10.217209560956935"><ele>961.0</ele><time>2026-05-02T08:07:00.001Z</time></trkpt><trkpt lat="44.06280568871423" lon="10.217330949880244"><ele>966.8333333333333</ele><time>2026-05-02T08:07:01.001Z</time></trkpt><trkpt lat="44.062813827031334" lon="10.21743517013189"><ele>972.6666666666666</ele><time>2026-05-02T08:07:02.001Z</time></trkpt><trkpt lat="44.06281096281565" lon="10.217548904416374"><ele>978.5</ele><time>2026-05-02T08:07:03.001Z</time></trkpt><trkpt lat="44.062798610422604" lon="10.21764524054755"><ele>984.3333333333333</ele><time>2026-05-02T08:07:04.001Z</time></trkpt><trkpt lat="44.062790863930395" lon="10.217755148405535"><ele>990.1666666666666</ele><time>2026-05-02T08:07:05.001Z</time></trkpt><trkpt lat="44.06275021902518" lon="10.217853194876582"><ele>996.0</ele><time>2026-05-02T08:07:06.001Z</time></trkpt><trkpt lat="44.062693631637394" lon="10.21800043269118"><ele>996.0</ele><time>2026-05-02T08:07:07.001Z</time></trkpt><trkpt lat="44.06261638712963" lon="10.218141883878008"><ele>996.0</ele><time>2026-05-02T08:07:08.001Z</time></trkpt><trkpt lat="44.062539467700255" lon="10.218277422504901"><ele>996.0</ele><time>2026-05-02T08:07:09.001Z</time></trkpt><trkpt lat="44.06247869673295" lon="10.218386442844384"><ele>996.0</ele><time>2026-05-02T08:07:10.001Z</time></trkpt><trkpt lat="44.062418980077304" lon="10.218515337341175"><ele>1010.0</ele><time>2026-05-02T08:07:11.001Z</time></trkpt><trkpt lat="44.06237033615142" lon="10.21865309379055"><ele>1024.0</ele><time>2026-05-02T08:07:12.001Z</time></trkpt><trkpt lat="44.06232649738112" lon="10.218815721482816"><ele>1038.0</ele><time>2026-05-02T08:07:13.001Z</time></trkpt><trkpt lat="44.06230225953275" lon="10.21897629527037"><ele>1052.0</ele><time>2026-05-02T08:07:14.001Z</time></trkpt><trkpt lat="44.06229681430043" lon="10.219159234413484"><ele>1056.0</ele><time>2026-05-02T08:07:15.001Z</time></trkpt><trkpt lat="44.062260355528515" lon="10.219322765724767"><ele>1060.0</ele><time>2026-05-02T08:07:15.999Z</time></trkpt><trkpt lat="44.06225060905266" lon="10.219461299879603"><ele>1064.0</ele><time>2026-05-02T08:07:16.999Z</time></trkpt><trkpt lat="44.06224668693827" lon="10.219616818117736"><ele>1068.0</ele><time>2026-05-02T08:07:17.999Z</time></trkpt><trkpt lat="44.062257013804626" lon="10.219774754240243"><ele>1072.0</ele><time>2026-05-02T08:07:18.999Z</time></trkpt><trkpt lat="44.06226537347914" lon="10.219922224179435"><ele>1072.0</ele><time>2026-05-02T08:07:19.999Z</time></trkpt><trkpt lat="44.062276489802876" lon="10.220070198874456"><ele>1072.0</ele><time>2026-05-02T08:07:20.999Z</time></trkpt><trkpt lat="44.062285890080084" lon="10.2202062227674"><ele>1072.0</ele><time>2026-05-02T08:07:21.999Z</time></trkpt><trkpt lat="44.06229150587241" lon="10.220344767893106"><ele>1072.0</ele><time>2026-05-02T08:07:22.999Z</time></trkpt><trkpt lat="44.06228962367388" lon="10.220479990228325"><ele>1072.0</ele><time>2026-05-02T08:07:23.999Z</time></trkpt><trkpt lat="44.06229334160478" lon="10.220613124041659"><ele>1070.4</ele><time>2026-05-02T08:07:24.999Z</time></trkpt><trkpt lat="44.062312523619475" lon="10.220739817284176"><ele>1068.8000000000002</ele><time>2026-05-02T08:07:25.999Z</time></trkpt><trkpt lat="44.0623439417433" lon="10.220861697427328"><ele>1067.2</ele><time>2026-05-02T08:07:26.999Z</time></trkpt><trkpt lat="44.06238205378901" lon="10.220975764548324"><ele>1065.6000000000001</ele><time>2026-05-02T08:07:27.999Z</time></trkpt><trkpt lat="44.062418111908215" lon="10.221090450139478"><ele>1064.0</ele><time>2026-05-02T08:07:28.999Z</time></trkpt><trkpt lat="44.06245398977086" lon="10.22121088826547"><ele>1055.0</ele><time>2026-05-02T08:07:29.999Z</time></trkpt><trkpt lat="44.06248155108166" lon="10.221320930534803"><ele>1046.0</ele><time>2026-05-02T08:07:30.999Z</time></trkpt><trkpt lat="44.0624987953069" lon="10.221429017808322"><ele>1037.0</ele><time>2026-05-02T08:07:31.999Z</time></trkpt><trkpt lat="44.062501442035476" lon="10.221527233849473"><ele>1028.0</ele><time>2026-05-02T08:07:32.999Z</time></trkpt><trkpt lat="44.062521749042425" lon="10.221696409366807"><ele>1019.0000000000001</ele><time>2026-05-02T08:07:34.999Z</time></trkpt><trkpt lat="44.06253398488303" lon="10.221785419870686"><ele>1010.0</ele><time>2026-05-02T08:07:35.999Z</time></trkpt><trkpt lat="44.06255437623634" lon="10.221877744736695"><ele>1010.0000000000001</ele><time>2026-05-02T08:07:36.999Z</time></trkpt><trkpt lat="44.06257743118431" lon="10.22197742565965"><ele>1010.0</ele><time>2026-05-02T08:07:37.999Z</time></trkpt><trkpt lat="44.06264123173955" lon="10.222036584325995"><ele>1010.0</ele><time>2026-05-02T08:07:38.999Z</time></trkpt><trkpt lat="44.06270110029931" lon="10.222111147557644"><ele>1010.0</ele><time>2026-05-02T08:07:39.999Z</time></trkpt><trkpt lat="44.06277807094554" lon="10.22214454701269"><ele>1010.0000000000001</ele><time>2026-05-02T08:07:41Z</time></trkpt><trkpt lat="44.06285338781583" lon="10.222145403457436"><ele>1010.0</ele><time>2026-05-02T08:07:42Z</time></trkpt><trkpt lat="44.06294287603153" lon="10.222123082864005"><ele>1010.0000000000001</ele><time>2026-05-02T08:07:43Z</time></trkpt><trkpt lat="44.063018843437845" lon="10.222065996219039"><ele>1010.0</ele><time>2026-05-02T08:07:44Z</time></trkpt><trkpt lat="44.06308722194572" lon="10.221997172233092"><ele>1010.0</ele><time>2026-05-02T08:07:45Z</time></trkpt><trkpt lat="44.063168677276096" lon="10.221937174019953"><ele>1010.0</ele><time>2026-05-02T08:07:46Z</time></trkpt><trkpt lat="44.063235060383406" lon="10.221866477930522"><ele>1010.0000000000001</ele><time>2026-05-02T08:07:47Z</time></trkpt><trkpt lat="44.063293688528624" lon="10.221784669803847"><ele>1010.0</ele><time>2026-05-02T08:07:48Z</time></trkpt><trkpt lat="44.06336775175267" lon="10.221762475951783"><ele>1007.3333333333334</ele><time>2026-05-02T08:07:49Z</time></trkpt><trkpt lat="44.06344616520877" lon="10.221768033285"><ele>1004.6666666666667</ele><time>2026-05-02T08:07:50Z</time></trkpt><trkpt lat="44.06353831364841" lon="10.221789195923881"><ele>1002.0</ele><time>2026-05-02T08:07:51Z</time></trkpt><trkpt lat="44.06361688150726" lon="10.221832686044594"><ele>999.3333333333333</ele><time>2026-05-02T08:07:52Z</time></trkpt><trkpt lat="44.063674896317046" lon="10.221897174084168"><ele>996.6666666666666</ele><time>2026-05-02T08:07:53Z</time></trkpt><trkpt lat="44.063716524943004" lon="10.22196723166406"><ele>994.0</ele><time>2026-05-02T08:07:54Z</time></trkpt><trkpt lat="44.06376255835608" lon="10.222038193254187"><ele>993.9999999999999</ele><time>2026-05-02T08:07:55Z</time></trkpt><trkpt lat="44.063801214883746" lon="10.222129995788272"><ele>994.0</ele><time>2026-05-02T08:07:56Z</time></trkpt><trkpt lat="44.06383910078366" lon="10.222230566470657"><ele>994.0</ele><time>2026-05-02T08:07:57Z</time></trkpt><trkpt lat="44.063874245647135" lon="10.222339921549043"><ele>994.0</ele><time>2026-05-02T08:07:58Z</time></trkpt><trkpt lat="44.06391953068286" lon="10.222456512662955"><ele>993.9999999999999</ele><time>2026-05-02T08:07:59Z</time></trkpt><trkpt lat="44.06398178487298" lon="10.222554333411033"><ele>994.0</ele><time>2026-05-02T08:08:00Z</time></trkpt><trkpt lat="44.06403884641963" lon="10.222663239607797"><ele>994.8333333333333</ele><time>2026-05-02T08:08:01Z</time></trkpt><trkpt lat="44.064087455618214" lon="10.222761425401517"><ele>995.6666666666666</ele><time>2026-05-02T08:08:02Z</time></trkpt><trkpt lat="44.06413193370627" lon="10.222858592356548"><ele>996.5</ele><time>2026-05-02T08:08:03Z</time></trkpt><trkpt lat="44.06417129342794" lon="10.222947555996443"><ele>997.3333333333333</ele><time>2026-05-02T08:08:04Z</time></trkpt><trkpt lat="44.064211870243234" lon="10.223034177819084"><ele>998.1666666666666</ele><time>2026-05-02T08:08:05Z</time></trkpt><trkpt lat="44.06425663296102" lon="10.223120754482347"><ele>999.0</ele><time>2026-05-02T08:08:06Z</time></trkpt><trkpt lat="44.064300704492005" lon="10.223199341775096"><ele>1006.8571428571429</ele><time>2026-05-02T08:08:07Z</time></trkpt><trkpt lat="44.06434066740396" lon="10.223280116899165"><ele>1014.7142857142858</ele><time>2026-05-02T08:08:08Z</time></trkpt><trkpt lat="44.06437489599732" lon="10.223362559086407"><ele>1022.5714285714287</ele><time>2026-05-02T08:08:09Z</time></trkpt><trkpt lat="44.06440236787817" lon="10.223453695028207"><ele>1030.4285714285716</ele><time>2026-05-02T08:08:10Z</time></trkpt><trkpt lat="44.06445680994463" lon="10.223528890201983"><ele>1038.2857142857142</ele><time>2026-05-02T08:08:11Z</time></trkpt><trkpt lat="44.064494843964354" lon="10.223627577188543"><ele>1046.1428571428573</ele><time>2026-05-02T08:08:12Z</time></trkpt><trkpt lat="44.064518250957406" lon="10.223728401086124"><ele>1054.0</ele><time>2026-05-02T08:08:13Z</time></trkpt><trkpt lat="44.064534542342855" lon="10.223826131568336"><ele>1054.0000000000002</ele><time>2026-05-02T08:08:14Z</time></trkpt><trkpt lat="44.06455067700619" lon="10.223921469081182"><ele>1054.0</ele><time>2026-05-02T08:08:15Z</time></trkpt><trkpt lat="44.06456782295915" lon="10.224022782222386"><ele>1054.0</ele><time>2026-05-02T08:08:16Z</time></trkpt><trkpt lat="44.06458803762347" lon="10.224122218956426"><ele>1054.0</ele><time>2026-05-02T08:08:17Z</time></trkpt><trkpt lat="44.06461087320028" lon="10.224223361635225"><ele>1054.0</ele><time>2026-05-02T08:08:18Z</time></trkpt><trkpt lat="44.064641253863115" lon="10.224314983746275"><ele>1054.0000000000002</ele><time>2026-05-02T08:08:19Z</time></trkpt><trkpt lat="44.064680310426944" lon="10.224406632194222"><ele>1054.0</ele><time>2026-05-02T08:08:20Z</time></trkpt><trkpt lat="44.06472924157172" lon="10.224494429051012"><ele>1061.0</ele><time>2026-05-02T08:08:21Z</time></trkpt><trkpt lat="44.06479900322767" lon="10.224558911753407"><ele>1068.0</ele><time>2026-05-02T08:08:22Z</time></trkpt><trkpt lat="44.06487180262821" lon="10.224612200960287"><ele>1075.0</ele><time>2026-05-02T08:08:23Z</time></trkpt><trkpt lat="44.064954588440344" lon="10.224656661528707"><ele>1082.0</ele><time>2026-05-02T08:08:24Z</time></trkpt><trkpt lat="44.06505029579778" lon="10.224704869483402"><ele>1089.0</ele><time>2026-05-02T08:08:25Z</time></trkpt><trkpt lat="44.06514921714701" lon="10.224726432844639"><ele>1084.3333333333333</ele><time>2026-05-02T08:08:26Z</time></trkpt><trkpt lat="44.06523646762982" lon="10.22473861758472"><ele>1079.6666666666667</ele><time>2026-05-02T08:08:27Z</time></trkpt><trkpt lat="44.065329408108965" lon="10.224749234369202"><ele>1075.0</ele><time>2026-05-02T08:08:28Z</time></trkpt><trkpt lat="44.065410652599866" lon="10.224799999811488"><ele>1070.3333333333335</ele><time>2026-05-02T08:08:29Z</time></trkpt><trkpt lat="44.065480539537305" lon="10.224872935453503"><ele>1065.6666666666667</ele><time>2026-05-02T08:08:30Z</time></trkpt><trkpt lat="44.06554084436196" lon="10.224933730349271"><ele>1061.0</ele><time>2026-05-02T08:08:31Z</time></trkpt><trkpt lat="44.065574267189234" lon="10.225037497298228"><ele>1061.0</ele><time>2026-05-02T08:08:32Z</time></trkpt><trkpt lat="44.06557214504877" lon="10.225144679344316"><ele>1061.0</ele><time>2026-05-02T08:08:33Z</time></trkpt><trkpt lat="44.06557528763195" lon="10.225244505842387"><ele>1061.0</ele><time>2026-05-02T08:08:34Z</time></trkpt><trkpt lat="44.065557212825695" lon="10.225347694490024"><ele>1061.0</ele><time>2026-05-02T08:08:35Z</time></trkpt><trkpt lat="44.06556555514277" lon="10.225471116353283"><ele>1061.0</ele><time>2026-05-02T08:08:36Z</time></trkpt><trkpt lat="44.065558393580424" lon="10.225597973212427"><ele>1061.0</ele><time>2026-05-02T08:08:37Z</time></trkpt><trkpt lat="44.06548542938367" lon="10.225722693544084"><ele>1071.3999999999999</ele><time>2026-05-02T08:08:38Z</time></trkpt><trkpt lat="44.065461436875054" lon="10.22585497253559"><ele>1081.8</ele><time>2026-05-02T08:08:39Z</time></trkpt><trkpt lat="44.06543535148455" lon="10.22599210107083"><ele>1092.1999999999998</ele><time>2026-05-02T08:08:40Z</time></trkpt><trkpt lat="44.065401641269396" lon="10.226142959490243"><ele>1102.6</ele><time>2026-05-02T08:08:41.001Z</time></trkpt><trkpt lat="44.06537530779358" lon="10.226286964440499"><ele>1113.0</ele><time>2026-05-02T08:08:42.001Z</time></trkpt><trkpt lat="44.065339611849765" lon="10.226462972623567"><ele>1147.0</ele><time>2026-05-02T08:08:43.138Z</time></trkpt><trkpt lat="44.06530943349776" lon="10.226617116769471"><ele>1181.0</ele><time>2026-05-02T08:08:44.137Z</time></trkpt><trkpt lat="44.06501591981232" lon="10.228104074878981"><ele>1221.0</ele><time>2026-05-02T08:08:54.733Z</time></trkpt><trkpt lat="44.06488808721444" lon="10.228701758417674"><ele>1261.0</ele><time>2026-05-02T08:09:06.79Z</time></trkpt><trkpt lat="44.06385934927723" lon="10.233458581123756"><ele>1218.3999999999999</ele><time>2026-05-02T08:09:26.001Z</time></trkpt><trkpt lat="44.06373471237066" lon="10.233572208927031"><ele>1175.8</ele><time>2026-05-02T08:09:27.001Z</time></trkpt><trkpt lat="44.06368845558415" lon="10.233646739138056"><ele>1133.1999999999998</ele><time>2026-05-02T08:09:28.001Z</time></trkpt><trkpt lat="44.063609703140926" lon="10.233648267145641"><ele>1090.6</ele><time>2026-05-02T08:09:29.001Z</time></trkpt><trkpt lat="44.06352541653693" lon="10.233652789346321"><ele>1048.0</ele><time>2026-05-02T08:09:30.001Z</time></trkpt><trkpt lat="44.06342526431586" lon="10.233627888404474"><ele>1048.0</ele><time>2026-05-02T08:09:31.001Z</time></trkpt><trkpt lat="44.06333245771447" lon="10.233571192415624"><ele>1048.0</ele><time>2026-05-02T08:09:31.999Z</time></trkpt><trkpt lat="44.063219039340744" lon="10.233497324712642"><ele>1048.0</ele><time>2026-05-02T08:09:32.999Z</time></trkpt><trkpt lat="44.06310689535282" lon="10.233419807450916"><ele>1048.0</ele><time>2026-05-02T08:09:33.999Z</time></trkpt><trkpt lat="44.06298788705598" lon="10.233356598367969"><ele>1045.6</ele><time>2026-05-02T08:09:34.999Z</time></trkpt><trkpt lat="44.0628680498832" lon="10.23329838056877"><ele>1043.1999999999998</ele><time>2026-05-02T08:09:35.999Z</time></trkpt><trkpt lat="44.06276329048912" lon="10.233268755472135"><ele>1040.8</ele><time>2026-05-02T08:09:36.999Z</time></trkpt><trkpt lat="44.06268432803366" lon="10.23328263800575"><ele>1038.3999999999999</ele><time>2026-05-02T08:09:37.999Z</time></trkpt><trkpt lat="44.06259944403458" lon="10.233306230439528"><ele>1036.0</ele><time>2026-05-02T08:09:38.999Z</time></trkpt><trkpt lat="44.06252412387691" lon="10.233344769249639"><ele>1036.0</ele><time>2026-05-02T08:09:39.999Z</time></trkpt><trkpt lat="44.06245946121573" lon="10.23338233474516"><ele>1036.0</ele><time>2026-05-02T08:09:40.999Z</time></trkpt><trkpt lat="44.062377113911694" lon="10.233444446189653"><ele>1036.0</ele><time>2026-05-02T08:09:42.999Z</time></trkpt><trkpt lat="44.062315905748356" lon="10.23350949357758"><ele>1036.0</ele><time>2026-05-02T08:09:44.999Z</time></trkpt><trkpt lat="44.06225673050648" lon="10.233589858373932"><ele>1036.0</ele><time>2026-05-02T08:09:46.999Z</time></trkpt><trkpt lat="44.06219995801599" lon="10.233720653803642"><ele>1036.0</ele><time>2026-05-02T08:09:48.999Z</time></trkpt><trkpt lat="44.06217066725041" lon="10.233810966823976"><ele>1037.2</ele><time>2026-05-02T08:09:49.999Z</time></trkpt><trkpt lat="44.06214510316703" lon="10.233910413235137"><ele>1038.3999999999999</ele><time>2026-05-02T08:09:50.999Z</time></trkpt><trkpt lat="44.062119288244084" lon="10.234027614303695"><ele>1039.6</ele><time>2026-05-02T08:09:52Z</time></trkpt><trkpt lat="44.06209540074321" lon="10.234160515687305"><ele>1040.8</ele><time>2026-05-02T08:09:53Z</time></trkpt><trkpt lat="44.06207157103878" lon="10.23429511480984"><ele>1042.0</ele><time>2026-05-02T08:09:54Z</time></trkpt><trkpt lat="44.06204777318143" lon="10.234431998245608"><ele>1042.0</ele><time>2026-05-02T08:09:55Z</time></trkpt><trkpt lat="44.06200200381521" lon="10.234567195410813"><ele>1042.0</ele><time>2026-05-02T08:09:56Z</time></trkpt><trkpt lat="44.061951884430506" lon="10.234709772637016"><ele>1042.0</ele><time>2026-05-02T08:09:57Z</time></trkpt><trkpt lat="44.06187611999154" lon="10.234841515294354"><ele>1042.0</ele><time>2026-05-02T08:09:58Z</time></trkpt><trkpt lat="44.06180119935313" lon="10.234996508832698"><ele>1039.25</ele><time>2026-05-02T08:09:59Z</time></trkpt><trkpt lat="44.061720329637254" lon="10.235140349408551"><ele>1036.5</ele><time>2026-05-02T08:10:00Z</time></trkpt><trkpt lat="44.061640113968615" lon="10.235283051897893"><ele>1033.75</ele><time>2026-05-02T08:10:01Z</time></trkpt><trkpt lat="44.061556483922665" lon="10.235433416188533"><ele>1031.0</ele><time>2026-05-02T08:10:02Z</time></trkpt><trkpt lat="44.06147365498957" lon="10.235589595346397"><ele>1031.0</ele><time>2026-05-02T08:10:03Z</time></trkpt><trkpt lat="44.06139441169824" lon="10.235744064427818"><ele>1031.0</ele><time>2026-05-02T08:10:04Z</time></trkpt><trkpt lat="44.06131141368417" lon="10.235898619440423"><ele>1031.0</ele><time>2026-05-02T08:10:05Z</time></trkpt><trkpt lat="44.06122376884797" lon="10.236057089639944"><ele>1031.0</ele><time>2026-05-02T08:10:06Z</time></trkpt><trkpt lat="44.061135547684586" lon="10.236217489160307"><ele>1031.0</ele><time>2026-05-02T08:10:07Z</time></trkpt><trkpt lat="44.061051122996496" lon="10.236387007457227"><ele>1031.0</ele><time>2026-05-02T08:10:08Z</time></trkpt><trkpt lat="44.06096235210787" lon="10.23656016394578"><ele>1031.0</ele><time>2026-05-02T08:10:09Z</time></trkpt><trkpt lat="44.06086814171848" lon="10.236730845210483"><ele>1028.0</ele><time>2026-05-02T08:10:10Z</time></trkpt><trkpt lat="44.06076364500625" lon="10.236890523665584"><ele>1025.0</ele><time>2026-05-02T08:10:11Z</time></trkpt><trkpt lat="44.06066799644525" lon="10.237026470530123"><ele>1022.0</ele><time>2026-05-02T08:10:12Z</time></trkpt><trkpt lat="44.06057800991334" lon="10.237157533200678"><ele>1019.0</ele><time>2026-05-02T08:10:13Z</time></trkpt><trkpt lat="44.06049494477718" lon="10.237301920908275"><ele>1015.0</ele><time>2026-05-02T08:10:14Z</time></trkpt><trkpt lat="44.060414746599605" lon="10.237456811259793"><ele>1011.0</ele><time>2026-05-02T08:10:15Z</time></trkpt><trkpt lat="44.0603387683721" lon="10.23762876035851"><ele>1007.0</ele><time>2026-05-02T08:10:16Z</time></trkpt><trkpt lat="44.0602805390656" lon="10.237812497771047"><ele>1003.0</ele><time>2026-05-02T08:10:17Z</time></trkpt><trkpt lat="44.06022809901482" lon="10.23799505768563"><ele>1001.0</ele><time>2026-05-02T08:10:18Z</time></trkpt><trkpt lat="44.0601866414378" lon="10.2381602190085"><ele>999.0</ele><time>2026-05-02T08:10:19Z</time></trkpt><trkpt lat="44.06015402028604" lon="10.238307597551286"><ele>997.0</ele><time>2026-05-02T08:10:20Z</time></trkpt><trkpt lat="44.06011565188312" lon="10.238459615270669"><ele>995.0</ele><time>2026-05-02T08:10:21Z</time></trkpt><trkpt lat="44.06007642209291" lon="10.23861474808107"><ele>995.0</ele><time>2026-05-02T08:10:22Z</time></trkpt><trkpt lat="44.060038477007474" lon="10.238753118693651"><ele>995.0</ele><time>2026-05-02T08:10:23Z</time></trkpt><trkpt lat="44.059996130350235" lon="10.23887422799928"><ele>995.0</ele><time>2026-05-02T08:10:24Z</time></trkpt><trkpt lat="44.05994575331581" lon="10.238982183939308"><ele>995.0</ele><time>2026-05-02T08:10:25Z</time></trkpt><trkpt lat="44.05988945678496" lon="10.239072926344965"><ele>995.0</ele><time>2026-05-02T08:10:26Z</time></trkpt><trkpt lat="44.059840468243685" lon="10.23914629921515"><ele>994.5000000000001</ele><time>2026-05-02T08:10:27Z</time></trkpt><trkpt lat="44.05975997923848" lon="10.239251000667851"><ele>994.0</ele><time>2026-05-02T08:10:29Z</time></trkpt><trkpt lat="44.059716858403284" lon="10.239358026382906"><ele>993.5</ele><time>2026-05-02T08:10:31Z</time></trkpt><trkpt lat="44.059682664175135" lon="10.239474766013647"><ele>993.0</ele><time>2026-05-02T08:10:33Z</time></trkpt><trkpt lat="44.05965757572436" lon="10.239567270701594"><ele>992.5000000000001</ele><time>2026-05-02T08:10:35Z</time></trkpt><trkpt lat="44.05965090333093" lon="10.239667057558107"><ele>992.0</ele><time>2026-05-02T08:10:38Z</time></trkpt><trkpt lat="44.05968031251671" lon="10.23978485965941"><ele>988.6</ele><time>2026-05-02T08:22:43.001Z</time></trkpt><trkpt lat="44.05967841180281" lon="10.239900210709639"><ele>985.2</ele><time>2026-05-02T08:22:45.001Z</time></trkpt><trkpt lat="44.05968422786535" lon="10.240061986368135"><ele>981.8</ele><time>2026-05-02T08:22:47.001Z</time></trkpt><trkpt lat="44.05968371523331" lon="10.240156717885622"><ele>978.4</ele><time>2026-05-02T08:22:48.001Z</time></trkpt><trkpt lat="44.0596934165064" lon="10.240278349485802"><ele>975.0</ele><time>2026-05-02T08:22:49.001Z</time></trkpt><trkpt lat="44.059689849423854" lon="10.240414429029109"><ele>975.0</ele><time>2026-05-02T08:22:50.001Z</time></trkpt><trkpt lat="44.05965710426618" lon="10.24052486262084"><ele>975.0</ele><time>2026-05-02T08:22:51.001Z</time></trkpt><trkpt lat="44.05960793815224" lon="10.240642586496206"><ele>975.0</ele><time>2026-05-02T08:22:52.001Z</time></trkpt><trkpt lat="44.05954228293867" lon="10.240740138296276"><ele>975.0</ele><time>2026-05-02T08:22:53.001Z</time></trkpt><trkpt lat="44.05946037832538" lon="10.240823147172213"><ele>975.0</ele><time>2026-05-02T08:22:54.001Z</time></trkpt><trkpt lat="44.05937410742159" lon="10.240908155975983"><ele>972.8</ele><time>2026-05-02T08:22:55.001Z</time></trkpt><trkpt lat="44.0592988114599" lon="10.241003542540055"><ele>970.6</ele><time>2026-05-02T08:22:56.001Z</time></trkpt><trkpt lat="44.05923604600919" lon="10.241090893104847"><ele>968.4000000000001</ele><time>2026-05-02T08:22:57.001Z</time></trkpt><trkpt lat="44.05919458577874" lon="10.241178748820259"><ele>966.2</ele><time>2026-05-02T08:22:58.001Z</time></trkpt><trkpt lat="44.05915401901383" lon="10.241342594646419"><ele>964.0</ele><time>2026-05-02T08:23:00.001Z</time></trkpt><trkpt lat="44.0591208237996" lon="10.241498276259858"><ele>963.2</ele><time>2026-05-02T08:23:02.001Z</time></trkpt><trkpt lat="44.05912357814259" lon="10.241590145198924"><ele>962.4000000000001</ele><time>2026-05-02T08:23:03.001Z</time></trkpt><trkpt lat="44.05913670236913" lon="10.241688896306684"><ele>961.6</ele><time>2026-05-02T08:23:04.001Z</time></trkpt><trkpt lat="44.05916024079117" lon="10.241853123058188"><ele>960.8</ele><time>2026-05-02T08:23:06.001Z</time></trkpt><trkpt lat="44.05917410612503" lon="10.24193859337237"><ele>960.0</ele><time>2026-05-02T08:23:07.001Z</time></trkpt><trkpt lat="44.05919841754171" lon="10.24212087832741"><ele>960.0</ele><time>2026-05-02T08:23:09.001Z</time></trkpt><trkpt lat="44.05920491854828" lon="10.242243695691252"><ele>960.0</ele><time>2026-05-02T08:23:10.001Z</time></trkpt><trkpt lat="44.059204870440254" lon="10.242366367756986"><ele>960.0</ele><time>2026-05-02T08:23:11.001Z</time></trkpt><trkpt lat="44.05919860435859" lon="10.242503909965093"><ele>960.0</ele><time>2026-05-02T08:23:12.001Z</time></trkpt><trkpt lat="44.05919044562823" lon="10.24264851289056"><ele>960.0</ele><time>2026-05-02T08:23:13.001Z</time></trkpt><trkpt lat="44.05918279057857" lon="10.24280072656907"><ele>959.0</ele><time>2026-05-02T08:23:14.001Z</time></trkpt><trkpt lat="44.05917662044988" lon="10.24296233434659"><ele>958.0</ele><time>2026-05-02T08:23:15.001Z</time></trkpt><trkpt lat="44.05917112335367" lon="10.243132267167407"><ele>957.0</ele><time>2026-05-02T08:23:16.001Z</time></trkpt><trkpt lat="44.05916296452657" lon="10.24330620497804"><ele>956.0</ele><time>2026-05-02T08:23:17.001Z</time></trkpt><trkpt lat="44.05915608745389" lon="10.24347966333533"><ele>955.5</ele><time>2026-05-02T08:23:18.001Z</time></trkpt><trkpt lat="44.059144222150856" lon="10.243652533903045"><ele>955.0</ele><time>2026-05-02T08:23:19.001Z</time></trkpt><trkpt lat="44.05913232849163" lon="10.243824562525106"><ele>954.5</ele><time>2026-05-02T08:23:20.001Z</time></trkpt><trkpt lat="44.059129034307055" lon="10.243993692073705"><ele>954.0</ele><time>2026-05-02T08:23:21.001Z</time></trkpt><trkpt lat="44.059124097026476" lon="10.244166546348797"><ele>952.25</ele><time>2026-05-02T08:23:22.001Z</time></trkpt><trkpt lat="44.059120352620035" lon="10.244334594698893"><ele>950.5</ele><time>2026-05-02T08:23:23.001Z</time></trkpt><trkpt lat="44.05912606741887" lon="10.244500144285832"><ele>948.75</ele><time>2026-05-02T08:23:24.001Z</time></trkpt><trkpt lat="44.05914270974201" lon="10.244660671438186"><ele>947.0</ele><time>2026-05-02T08:23:25.001Z</time></trkpt><trkpt lat="44.059169625826954" lon="10.244816627147124"><ele>946.2</ele><time>2026-05-02T08:23:26.001Z</time></trkpt><trkpt lat="44.05921374393416" lon="10.244966853231976"><ele>945.4000000000001</ele><time>2026-05-02T08:23:27.001Z</time></trkpt><trkpt lat="44.05925674091693" lon="10.245110116187874"><ele>944.5999999999999</ele><time>2026-05-02T08:23:28.001Z</time></trkpt><trkpt lat="44.05931316656408" lon="10.245235800087324"><ele>943.8</ele><time>2026-05-02T08:23:29.001Z</time></trkpt><trkpt lat="44.05938088877766" lon="10.245358683562754"><ele>943.0</ele><time>2026-05-02T08:23:30.001Z</time></trkpt><trkpt lat="44.05945162254316" lon="10.245481980608735"><ele>943.0</ele><time>2026-05-02T08:23:31.001Z</time></trkpt><trkpt lat="44.0595382645704" lon="10.245584053991765"><ele>943.0</ele><time>2026-05-02T08:23:32.001Z</time></trkpt><trkpt lat="44.05962829645396" lon="10.245678741120258"><ele>943.0</ele><time>2026-05-02T08:23:33.001Z</time></trkpt><trkpt lat="44.059700512544396" lon="10.245776532576617"><ele>943.0</ele><time>2026-05-02T08:23:34.001Z</time></trkpt><trkpt lat="44.05976549002327" lon="10.2458758235888"><ele>943.0</ele><time>2026-05-02T08:23:35.001Z</time></trkpt><trkpt lat="44.05981833045176" lon="10.245983543073947"><ele>941.8</ele><time>2026-05-02T08:23:36.001Z</time></trkpt><trkpt lat="44.059867048481415" lon="10.246097558005406"><ele>940.5999999999999</ele><time>2026-05-02T08:23:37.001Z</time></trkpt><trkpt lat="44.059907160873834" lon="10.246215368295498"><ele>939.4000000000001</ele><time>2026-05-02T08:23:38.001Z</time></trkpt><trkpt lat="44.05993801893766" lon="10.246341076247043"><ele>938.2</ele><time>2026-05-02T08:23:39.001Z</time></trkpt><trkpt lat="44.05996065588936" lon="10.246470511460108"><ele>937.0</ele><time>2026-05-02T08:23:40.001Z</time></trkpt><trkpt lat="44.06015526118832" lon="10.246532863596967"><ele>946.0</ele><time>2026-05-02T08:23:41.001Z</time></trkpt><trkpt lat="44.0602361989415" lon="10.246649549582827"><ele>955.0</ele><time>2026-05-02T08:23:42.142Z</time></trkpt><trkpt lat="44.06303030018988" lon="10.249134472759993"><ele>954.9999999999999</ele><time>2026-05-02T08:24:10.002Z</time></trkpt><trkpt lat="44.063104557909135" lon="10.249136215157241"><ele>955.0</ele><time>2026-05-02T08:24:11.002Z</time></trkpt><trkpt lat="44.06322088685161" lon="10.249111800702435"><ele>955.0</ele><time>2026-05-02T08:24:12.002Z</time></trkpt><trkpt lat="44.06328109556251" lon="10.249059679307415"><ele>955.0</ele><time>2026-05-02T08:24:13.002Z</time></trkpt><trkpt lat="44.0633538825908" lon="10.249011215055262"><ele>954.9999999999999</ele><time>2026-05-02T08:24:14.002Z</time></trkpt><trkpt lat="44.06343029229109" lon="10.24897369704624"><ele>955.0</ele><time>2026-05-02T08:24:15.002Z</time></trkpt><trkpt lat="44.06349150251808" lon="10.248946840467097"><ele>957.4999999999999</ele><time>2026-05-02T08:24:16.001Z</time></trkpt><trkpt lat="44.06355060024533" lon="10.248913613142388"><ele>960.0</ele><time>2026-05-02T08:24:17.001Z</time></trkpt><trkpt lat="44.063628695280585" lon="10.248875200618633"><ele>962.5</ele><time>2026-05-02T08:24:18.001Z</time></trkpt><trkpt lat="44.06370103638731" lon="10.24884032654688"><ele>965.0</ele><time>2026-05-02T08:24:19.001Z</time></trkpt><trkpt lat="44.063791729871504" lon="10.248802741911701"><ele>967.4999999999999</ele><time>2026-05-02T08:24:20.001Z</time></trkpt><trkpt lat="44.06388320680351" lon="10.248786687957061"><ele>970.0</ele><time>2026-05-02T08:24:21.001Z</time></trkpt><trkpt lat="44.06398510686093" lon="10.248797947395945"><ele>970.0</ele><time>2026-05-02T08:24:22.001Z</time></trkpt><trkpt lat="44.06407433625304" lon="10.248864030383222"><ele>970.0</ele><time>2026-05-02T08:24:23.001Z</time></trkpt><trkpt lat="44.06416130826748" lon="10.248935756402386"><ele>970.0</ele><time>2026-05-02T08:24:24.001Z</time></trkpt><trkpt lat="44.06424402512326" lon="10.248999258606904"><ele>970.0</ele><time>2026-05-02T08:24:25.001Z</time></trkpt><trkpt lat="44.0643267184598" lon="10.249039697114036"><ele>970.0</ele><time>2026-05-02T08:24:26.001Z</time></trkpt><trkpt lat="44.06441770064966" lon="10.249050829529105"><ele>961.3333333333333</ele><time>2026-05-02T08:24:27.001Z</time></trkpt><trkpt lat="44.064509798987174" lon="10.249060290897663"><ele>952.6666666666666</ele><time>2026-05-02T08:24:28.001Z</time></trkpt><trkpt lat="44.06459161462025" lon="10.24906721024018"><ele>944.0</ele><time>2026-05-02T08:24:29.001Z</time></trkpt><trkpt lat="44.06466901111172" lon="10.249050609034652"><ele>935.3333333333333</ele><time>2026-05-02T08:24:30.001Z</time></trkpt><trkpt lat="44.064756161055264" lon="10.249024887043447"><ele>926.6666666666666</ele><time>2026-05-02T08:24:31.001Z</time></trkpt><trkpt lat="44.064835784215866" lon="10.248998159720129"><ele>918.0</ele><time>2026-05-02T08:24:32.001Z</time></trkpt><trkpt lat="44.0649279586881" lon="10.248967187600261"><ele>922.4</ele><time>2026-05-02T08:24:33.001Z</time></trkpt><trkpt lat="44.06501585592826" lon="10.24893740116278"><ele>926.8</ele><time>2026-05-02T08:24:34.001Z</time></trkpt><trkpt lat="44.06511388668295" lon="10.248897285252038"><ele>931.2</ele><time>2026-05-02T08:24:35.001Z</time></trkpt><trkpt lat="44.0651971704798" lon="10.248839881423985"><ele>935.6</ele><time>2026-05-02T08:24:36.001Z</time></trkpt><trkpt lat="44.06529171236941" lon="10.248803649326225"><ele>940.0</ele><time>2026-05-02T08:24:37.001Z</time></trkpt><trkpt lat="44.0653853931594" lon="10.248750733693324"><ele>940.0</ele><time>2026-05-02T08:24:38.001Z</time></trkpt><trkpt lat="44.06548663898941" lon="10.248712413562306"><ele>940.0</ele><time>2026-05-02T08:24:39.001Z</time></trkpt><trkpt lat="44.06559053642357" lon="10.248674254463056"><ele>940.0</ele><time>2026-05-02T08:24:40.001Z</time></trkpt><trkpt lat="44.06569510243324" lon="10.24862921072617"><ele>940.0</ele><time>2026-05-02T08:24:41.001Z</time></trkpt><trkpt lat="44.06580129073347" lon="10.248587452507303"><ele>940.0</ele><time>2026-05-02T08:24:42.001Z</time></trkpt><trkpt lat="44.06590795603364" lon="10.248544730894558"><ele>937.6666666666666</ele><time>2026-05-02T08:24:43.001Z</time></trkpt><trkpt lat="44.06599494772083" lon="10.248502943716256"><ele>935.3333333333333</ele><time>2026-05-02T08:24:44.001Z</time></trkpt><trkpt lat="44.066064203218104" lon="10.24847866619857"><ele>933.0</ele><time>2026-05-02T08:24:45.001Z</time></trkpt><trkpt lat="44.06617517940599" lon="10.248472891653998"><ele>930.6666666666667</ele><time>2026-05-02T08:24:47.001Z</time></trkpt><trkpt lat="44.06623163548748" lon="10.248551658068674"><ele>928.3333333333334</ele><time>2026-05-02T08:24:48.001Z</time></trkpt><trkpt lat="44.06626323281681" lon="10.24866286996189"><ele>926.0</ele><time>2026-05-02T08:24:49.001Z</time></trkpt><trkpt lat="44.066253223095394" lon="10.24876387556686"><ele>926.0</ele><time>2026-05-02T08:24:50.001Z</time></trkpt><trkpt lat="44.066235649426886" lon="10.248848597899368"><ele>926.0</ele><time>2026-05-02T08:24:51.001Z</time></trkpt><trkpt lat="44.06614683863209" lon="10.248914448906316"><ele>926.0</ele><time>2026-05-02T08:24:53.001Z</time></trkpt><trkpt lat="44.065994280578906" lon="10.248861566845724"><ele>926.0</ele><time>2026-05-02T08:24:54.001Z</time></trkpt><trkpt lat="44.065847346015325" lon="10.248761998745167"><ele>923.5999999999999</ele><time>2026-05-02T08:24:55.001Z</time></trkpt><trkpt lat="44.06574270975715" lon="10.248719034119715"><ele>921.1999999999999</ele><time>2026-05-02T08:24:56.001Z</time></trkpt><trkpt lat="44.06564473529623" lon="10.2487269722728"><ele>918.8000000000001</ele><time>2026-05-02T08:24:57.001Z</time></trkpt><trkpt lat="44.065565305584634" lon="10.248810897235215"><ele>916.4000000000001</ele><time>2026-05-02T08:24:58.001Z</time></trkpt><trkpt lat="44.06548731914497" lon="10.248912849507587"><ele>914.0</ele><time>2026-05-02T08:24:59.001Z</time></trkpt><trkpt lat="44.06541769483909" lon="10.249004623915393"><ele>914.0</ele><time>2026-05-02T08:25:00.001Z</time></trkpt><trkpt lat="44.0653359730656" lon="10.249097447902033"><ele>914.0000000000001</ele><time>2026-05-02T08:25:01.001Z</time></trkpt><trkpt lat="44.065253373157454" lon="10.249169310743753"><ele>914.0000000000001</ele><time>2026-05-02T08:25:02.001Z</time></trkpt><trkpt lat="44.06516272687531" lon="10.249257177611922"><ele>914.0</ele><time>2026-05-02T08:25:03.001Z</time></trkpt><trkpt lat="44.0650605951244" lon="10.249339419624434"><ele>914.0</ele><time>2026-05-02T08:25:04.001Z</time></trkpt><trkpt lat="44.06496504752961" lon="10.249413821073121"><ele>914.8000000000001</ele><time>2026-05-02T08:25:05.001Z</time></trkpt><trkpt lat="44.06488183275124" lon="10.249495035361257"><ele>915.6000000000001</ele><time>2026-05-02T08:25:06.001Z</time></trkpt><trkpt lat="44.06480140593195" lon="10.249601907429726"><ele>916.4</ele><time>2026-05-02T08:25:07.001Z</time></trkpt><trkpt lat="44.06473675430754" lon="10.249690616106458"><ele>917.2</ele><time>2026-05-02T08:25:08.001Z</time></trkpt><trkpt lat="44.064673892389074" lon="10.2497877022245"><ele>918.0</ele><time>2026-05-02T08:25:09.001Z</time></trkpt><trkpt lat="44.06462321488471" lon="10.24989561269165"><ele>914.8333333333334</ele><time>2026-05-02T08:25:10.001Z</time></trkpt><trkpt lat="44.06457948420861" lon="10.249990812649052"><ele>911.6666666666667</ele><time>2026-05-02T08:25:11.001Z</time></trkpt><trkpt lat="44.06451954347588" lon="10.250072912792172"><ele>908.5</ele><time>2026-05-02T08:25:12.001Z</time></trkpt><trkpt lat="44.06444947775529" lon="10.25012829438438"><ele>905.3333333333334</ele><time>2026-05-02T08:25:13.001Z</time></trkpt><trkpt lat="44.064384015944775" lon="10.25015261894971"><ele>902.1666666666667</ele><time>2026-05-02T08:25:14.001Z</time></trkpt><trkpt lat="44.0643223043465" lon="10.250172219744092"><ele>899.0</ele><time>2026-05-02T08:25:15.001Z</time></trkpt><trkpt lat="44.064237332779875" lon="10.250140405597282"><ele>899.0</ele><time>2026-05-02T08:25:16.001Z</time></trkpt><trkpt lat="44.0641455576979" lon="10.250132009884782"><ele>899.0000000000001</ele><time>2026-05-02T08:25:17.001Z</time></trkpt><trkpt lat="44.06405032763832" lon="10.250148835844712"><ele>899.0000000000001</ele><time>2026-05-02T08:25:18.001Z</time></trkpt><trkpt lat="44.06396093554971" lon="10.250169851140603"><ele>899.0</ele><time>2026-05-02T08:25:19.001Z</time></trkpt><trkpt lat="44.0638571318675" lon="10.250199715660262"><ele>899.0</ele><time>2026-05-02T08:25:20.001Z</time></trkpt><trkpt lat="44.06377172280685" lon="10.250226833203211"><ele>899.3333333333334</ele><time>2026-05-02T08:25:21.001Z</time></trkpt><trkpt lat="44.063670500596686" lon="10.250250080933455"><ele>899.6666666666667</ele><time>2026-05-02T08:25:22.001Z</time></trkpt><trkpt lat="44.063587020727596" lon="10.250247420243513"><ele>900.0</ele><time>2026-05-02T08:25:23.001Z</time></trkpt><trkpt lat="44.06351745098947" lon="10.250256181974871"><ele>900.3333333333333</ele><time>2026-05-02T08:25:24.001Z</time></trkpt><trkpt lat="44.06345168242115" lon="10.250278396050419"><ele>900.6666666666666</ele><time>2026-05-02T08:25:25.001Z</time></trkpt><trkpt lat="44.063384434547544" lon="10.25029245538738"><ele>901.0</ele><time>2026-05-02T08:25:26.001Z</time></trkpt><trkpt lat="44.06331020878685" lon="10.25031427357224"><ele>899.8</ele><time>2026-05-02T08:25:27.001Z</time></trkpt><trkpt lat="44.063251036177036" lon="10.250373099014666"><ele>898.5999999999999</ele><time>2026-05-02T08:25:28.001Z</time></trkpt><trkpt lat="44.06318674982958" lon="10.250475368802006"><ele>897.4</ele><time>2026-05-02T08:25:29.001Z</time></trkpt><trkpt lat="44.063123797673256" lon="10.25058225688067"><ele>896.2</ele><time>2026-05-02T08:25:30.001Z</time></trkpt><trkpt lat="44.06306358057649" lon="10.250697547507636"><ele>895.0</ele><time>2026-05-02T08:25:31.001Z</time></trkpt><trkpt lat="44.062998180635205" lon="10.250818722228663"><ele>895.0</ele><time>2026-05-02T08:25:32.001Z</time></trkpt><trkpt lat="44.062931928730656" lon="10.250929062855832"><ele>895.0</ele><time>2026-05-02T08:25:33.001Z</time></trkpt><trkpt lat="44.06285944429744" lon="10.25102525117581"><ele>895.0</ele><time>2026-05-02T08:25:34.001Z</time></trkpt><trkpt lat="44.06276254216179" lon="10.251081308596294"><ele>895.0</ele><time>2026-05-02T08:25:35.001Z</time></trkpt><trkpt lat="44.06267804858273" lon="10.251126950007508"><ele>895.0</ele><time>2026-05-02T08:25:36.001Z</time></trkpt><trkpt lat="44.0625963544554" lon="10.251154252951588"><ele>894.9999999999999</ele><time>2026-05-02T08:25:37.001Z</time></trkpt><trkpt lat="44.06249294739107" lon="10.251175748208055"><ele>895.0</ele><time>2026-05-02T08:25:38.001Z</time></trkpt><trkpt lat="44.062415367274546" lon="10.251207282030926"><ele>895.0</ele><time>2026-05-02T08:25:39.001Z</time></trkpt><trkpt lat="44.0623443124454" lon="10.251218251534041"><ele>895.0</ele><time>2026-05-02T08:25:40.001Z</time></trkpt><trkpt lat="44.06227727640462" lon="10.251253471700652"><ele>894.9999999999999</ele><time>2026-05-02T08:25:41.001Z</time></trkpt><trkpt lat="44.06221186127655" lon="10.25131442145576"><ele>895.0</ele><time>2026-05-02T08:25:42.001Z</time></trkpt><trkpt lat="44.062162810354074" lon="10.25141437118744"><ele>892.2</ele><time>2026-05-02T08:25:43.001Z</time></trkpt><trkpt lat="44.06214191353239" lon="10.25154749920975"><ele>889.4</ele><time>2026-05-02T08:25:44.001Z</time></trkpt><trkpt lat="44.062144621392115" lon="10.251703659392716"><ele>886.5999999999999</ele><time>2026-05-02T08:25:45.001Z</time></trkpt><trkpt lat="44.06215772467392" lon="10.251860420548148"><ele>883.8</ele><time>2026-05-02T08:25:46.001Z</time></trkpt><trkpt lat="44.06214962430138" lon="10.25201451737687"><ele>881.0</ele><time>2026-05-02T08:25:47.001Z</time></trkpt><trkpt lat="44.06215255984877" lon="10.25215654544696"><ele>877.4</ele><time>2026-05-02T08:25:48.001Z</time></trkpt><trkpt lat="44.062162687325724" lon="10.25230688745511"><ele>873.8</ele><time>2026-05-02T08:25:49.002Z</time></trkpt><trkpt lat="44.06216150838938" lon="10.252434994856802"><ele>870.1999999999999</ele><time>2026-05-02T08:25:50.002Z</time></trkpt><trkpt lat="44.06215739528284" lon="10.25253880145941"><ele>866.5999999999999</ele><time>2026-05-02T08:25:51.002Z</time></trkpt><trkpt lat="44.062130958721724" lon="10.252652134785016"><ele>863.0</ele><time>2026-05-02T08:25:52.002Z</time></trkpt><trkpt lat="44.06207472016247" lon="10.252748347722173"><ele>863.0</ele><time>2026-05-02T08:25:53.002Z</time></trkpt><trkpt lat="44.06201412321663" lon="10.25284070344367"><ele>863.0</ele><time>2026-05-02T08:25:54.002Z</time></trkpt><trkpt lat="44.06193464254235" lon="10.25293143892168"><ele>863.0</ele><time>2026-05-02T08:25:55.002Z</time></trkpt><trkpt lat="44.061851440226754" lon="10.253036208690434"><ele>863.0</ele><time>2026-05-02T08:25:56.002Z</time></trkpt><trkpt lat="44.06176662303824" lon="10.253132569876012"><ele>863.0</ele><time>2026-05-02T08:25:57.002Z</time></trkpt><trkpt lat="44.06167407397682" lon="10.253230417866781"><ele>856.75</ele><time>2026-05-02T08:25:58.002Z</time></trkpt><trkpt lat="44.06160100868817" lon="10.25332929742202"><ele>850.5</ele><time>2026-05-02T08:25:59.002Z</time></trkpt><trkpt lat="44.06151923453446" lon="10.253443573585002"><ele>844.25</ele><time>2026-05-02T08:26:00.002Z</time></trkpt><trkpt lat="44.06142880936503" lon="10.25355084619653"><ele>838.0</ele><time>2026-05-02T08:26:01.002Z</time></trkpt><trkpt lat="44.06134569707999" lon="10.253664479515948"><ele>838.0</ele><time>2026-05-02T08:26:02.002Z</time></trkpt><trkpt lat="44.06126369809312" lon="10.253779813509743"><ele>838.0</ele><time>2026-05-02T08:26:03.002Z</time></trkpt><trkpt lat="44.06118470692774" lon="10.253905539176609"><ele>838.0</ele><time>2026-05-02T08:26:04.002Z</time></trkpt><trkpt lat="44.06110877806244" lon="10.254038420067083"><ele>838.0</ele><time>2026-05-02T08:26:05.002Z</time></trkpt><trkpt lat="44.06102283177331" lon="10.254168490612743"><ele>838.0</ele><time>2026-05-02T08:26:06.002Z</time></trkpt><trkpt lat="44.06094418089368" lon="10.254303912087204"><ele>838.0</ele><time>2026-05-02T08:26:07.002Z</time></trkpt><trkpt lat="44.06087387303774" lon="10.254422895804998"><ele>838.0</ele><time>2026-05-02T08:26:08.002Z</time></trkpt><trkpt lat="44.06082445395308" lon="10.254532173686215"><ele>838.0</ele><time>2026-05-02T08:26:09.002Z</time></trkpt><trkpt lat="44.06076143902337" lon="10.25462593330161"><ele>838.0</ele><time>2026-05-02T08:26:10.002Z</time></trkpt><trkpt lat="44.06068838844143" lon="10.254752274785561"><ele>832.9999999999999</ele><time>2026-05-02T08:26:11.002Z</time></trkpt><trkpt lat="44.06062255656875" lon="10.254855413872678"><ele>828.0</ele><time>2026-05-02T08:26:12.002Z</time></trkpt><trkpt lat="44.06056354082543" lon="10.254957655150168"><ele>823.0</ele><time>2026-05-02T08:26:13.002Z</time></trkpt><trkpt lat="44.06052927434414" lon="10.255038576699794"><ele>818.0</ele><time>2026-05-02T08:26:14.002Z</time></trkpt><trkpt lat="44.06049461523819" lon="10.255114810538501"><ele>812.9999999999999</ele><time>2026-05-02T08:26:15.002Z</time></trkpt><trkpt lat="44.060461709079135" lon="10.255193174989486"><ele>808.0</ele><time>2026-05-02T08:26:16.002Z</time></trkpt><trkpt lat="44.060432303442404" lon="10.255283166771763"><ele>807.9999999999999</ele><time>2026-05-02T08:26:17.002Z</time></trkpt><trkpt lat="44.06042679064737" lon="10.255381782371325"><ele>808.0</ele><time>2026-05-02T08:26:18.002Z</time></trkpt><trkpt lat="44.06043983082804" lon="10.255474969474138"><ele>808.0</ele><time>2026-05-02T08:26:19.002Z</time></trkpt><trkpt lat="44.060484132496235" lon="10.255571488623884"><ele>808.0</ele><time>2026-05-02T08:26:20.002Z</time></trkpt><trkpt lat="44.06053021189526" lon="10.255662615810254"><ele>807.9999999999999</ele><time>2026-05-02T08:26:21.002Z</time></trkpt><trkpt lat="44.060593116946826" lon="10.255745517460294"><ele>808.0</ele><time>2026-05-02T08:26:22.001Z</time></trkpt><trkpt lat="44.060666871785465" lon="10.255821747425472"><ele>807.8</ele><time>2026-05-02T08:26:23.001Z</time></trkpt><trkpt lat="44.060741340412456" lon="10.255882391782084"><ele>807.5999999999999</ele><time>2026-05-02T08:26:24.001Z</time></trkpt><trkpt lat="44.06081847007224" lon="10.2559271124806"><ele>807.4000000000001</ele><time>2026-05-02T08:26:25.001Z</time></trkpt><trkpt lat="44.060915319501866" lon="10.255932395541153"><ele>807.2</ele><time>2026-05-02T08:26:26.001Z</time></trkpt><trkpt lat="44.061014558358124" lon="10.25592568029825"><ele>807.0</ele><time>2026-05-02T08:26:27.001Z</time></trkpt><trkpt lat="44.061109747626105" lon="10.255935651647695"><ele>811.6666666666666</ele><time>2026-05-02T08:26:28.001Z</time></trkpt><trkpt lat="44.06119560444586" lon="10.255962126855222"><ele>816.3333333333333</ele><time>2026-05-02T08:26:29.001Z</time></trkpt><trkpt lat="44.06126887164061" lon="10.256042521428743"><ele>821.0</ele><time>2026-05-02T08:26:30.001Z</time></trkpt><trkpt lat="44.06133298306622" lon="10.256128566727973"><ele>825.6666666666666</ele><time>2026-05-02T08:26:31.001Z</time></trkpt><trkpt lat="44.061366884294436" lon="10.256223566461399"><ele>830.3333333333333</ele><time>2026-05-02T08:26:32.001Z</time></trkpt><trkpt lat="44.06138079550462" lon="10.25631236352649"><ele>835.0</ele><time>2026-05-02T08:26:33.001Z</time></trkpt><trkpt lat="44.06134255876561" lon="10.256405856629382"><ele>834.8</ele><time>2026-05-02T08:26:34.001Z</time></trkpt><trkpt lat="44.06128519408774" lon="10.256476149242152"><ele>834.6</ele><time>2026-05-02T08:26:35.001Z</time></trkpt><trkpt lat="44.06121485800494" lon="10.256524266998843"><ele>834.4000000000001</ele><time>2026-05-02T08:26:36.001Z</time></trkpt><trkpt lat="44.06112200299326" lon="10.256553876292541"><ele>834.2</ele><time>2026-05-02T08:26:37.001Z</time></trkpt><trkpt lat="44.06102613838333" lon="10.256594614411382"><ele>834.0</ele><time>2026-05-02T08:26:38.001Z</time></trkpt><trkpt lat="44.06092394270543" lon="10.256647959913598"><ele>834.0</ele><time>2026-05-02T08:26:39.001Z</time></trkpt><trkpt lat="44.06081617262385" lon="10.25670373674566"><ele>834.0</ele><time>2026-05-02T08:26:40.001Z</time></trkpt><trkpt lat="44.06070353312772" lon="10.256749220127727"><ele>834.0</ele><time>2026-05-02T08:26:41.001Z</time></trkpt><trkpt lat="44.06058387948088" lon="10.256779486539646"><ele>834.0</ele><time>2026-05-02T08:26:42.001Z</time></trkpt><trkpt lat="44.06045837253988" lon="10.256801270515158"><ele>827.25</ele><time>2026-05-02T08:26:43.001Z</time></trkpt><trkpt lat="44.06034051241068" lon="10.256823607499845"><ele>820.5</ele><time>2026-05-02T08:26:44.001Z</time></trkpt><trkpt lat="44.06021429862373" lon="10.256837890142503"><ele>813.75</ele><time>2026-05-02T08:26:45.001Z</time></trkpt><trkpt lat="44.06009933956856" lon="10.25686962144556"><ele>807.0</ele><time>2026-05-02T08:26:46.001Z</time></trkpt><trkpt lat="44.059985680703875" lon="10.256921745140268"><ele>804.5</ele><time>2026-05-02T08:26:47.001Z</time></trkpt><trkpt lat="44.05987556154431" lon="10.256976872739616"><ele>802.0</ele><time>2026-05-02T08:26:48.001Z</time></trkpt><trkpt lat="44.05977573528711" lon="10.25705178285048"><ele>799.5</ele><time>2026-05-02T08:26:49.001Z</time></trkpt><trkpt lat="44.05972519845961" lon="10.257176633421565"><ele>797.0</ele><time>2026-05-02T08:26:50.001Z</time></trkpt><trkpt lat="44.05966807797076" lon="10.257317818149104"><ele>797.0</ele><time>2026-05-02T08:26:51.001Z</time></trkpt><trkpt lat="44.05955903832593" lon="10.257456740451133"><ele>797.0</ele><time>2026-05-02T08:26:52.001Z</time></trkpt><trkpt lat="44.05948776261384" lon="10.257494116965908"><ele>797.0</ele><time>2026-05-02T08:26:53.001Z</time></trkpt><trkpt lat="44.05948125370171" lon="10.25770020030317"><ele>797.0</ele><time>2026-05-02T08:26:55.001Z</time></trkpt><trkpt lat="44.059440139319506" lon="10.257813669464333"><ele>797.0</ele><time>2026-05-02T08:26:56.001Z</time></trkpt><trkpt lat="44.05939753201289" lon="10.257913434521297"><ele>797.0</ele><time>2026-05-02T08:26:57.001Z</time></trkpt><trkpt lat="44.059350403688136" lon="10.258006845241594"><ele>797.0</ele><time>2026-05-02T08:26:58.001Z</time></trkpt><trkpt lat="44.05928981729987" lon="10.25812138088104"><ele>797.0</ele><time>2026-05-02T08:26:59.001Z</time></trkpt><trkpt lat="44.05921983301445" lon="10.258223712436358"><ele>797.0</ele><time>2026-05-02T08:27:00.001Z</time></trkpt><trkpt lat="44.05913291312029" lon="10.258319110045601"><ele>796.6</ele><time>2026-05-02T08:27:01.001Z</time></trkpt><trkpt lat="44.05906408641522" lon="10.258423930925357"><ele>796.2</ele><time>2026-05-02T08:27:02.001Z</time></trkpt><trkpt lat="44.05899101182752" lon="10.258514918112569"><ele>795.8</ele><time>2026-05-02T08:27:03.001Z</time></trkpt><trkpt lat="44.05891695273115" lon="10.258593117273614"><ele>795.4</ele><time>2026-05-02T08:27:04.001Z</time></trkpt><trkpt lat="44.05883810151068" lon="10.258697178096288"><ele>795.0</ele><time>2026-05-02T08:27:05.001Z</time></trkpt><trkpt lat="44.058768659441206" lon="10.25880235613058"><ele>795.0</ele><time>2026-05-02T08:27:06.001Z</time></trkpt><trkpt lat="44.05870688399511" lon="10.258917178425053"><ele>795.0</ele><time>2026-05-02T08:27:07.001Z</time></trkpt><trkpt lat="44.058647772273794" lon="10.259015549842506"><ele>795.0</ele><time>2026-05-02T08:27:08.001Z</time></trkpt><trkpt lat="44.058592383078064" lon="10.259157748924531"><ele>795.0</ele><time>2026-05-02T08:27:09.001Z</time></trkpt><trkpt lat="44.05854660965238" lon="10.259303786920238"><ele>795.0</ele><time>2026-05-02T08:27:10.001Z</time></trkpt><trkpt lat="44.058495894558156" lon="10.259455077119652"><ele>795.0</ele><time>2026-05-02T08:27:11.001Z</time></trkpt><trkpt lat="44.0584435547987" lon="10.25960567528922"><ele>795.0</ele><time>2026-05-02T08:27:12.001Z</time></trkpt><trkpt lat="44.05838529053247" lon="10.259761681162773"><ele>795.0</ele><time>2026-05-02T08:27:13.001Z</time></trkpt><trkpt lat="44.05833066660169" lon="10.259908872539551"><ele>795.0</ele><time>2026-05-02T08:27:14.001Z</time></trkpt><trkpt lat="44.05826970357392" lon="10.260067098950062"><ele>797.0</ele><time>2026-05-02T08:27:15.001Z</time></trkpt><trkpt lat="44.0582270431364" lon="10.26020034974697"><ele>799.0</ele><time>2026-05-02T08:27:16.001Z</time></trkpt><trkpt lat="44.058196656793825" lon="10.260327104142458"><ele>801.0</ele><time>2026-05-02T08:27:17.001Z</time></trkpt><trkpt lat="44.05819550594069" lon="10.26046757339412"><ele>803.0</ele><time>2026-05-02T08:27:18.001Z</time></trkpt><trkpt lat="44.058191184348004" lon="10.260603133267272"><ele>805.0</ele><time>2026-05-02T08:27:19.001Z</time></trkpt><trkpt lat="44.058196040262246" lon="10.260750653022402"><ele>805.0</ele><time>2026-05-02T08:27:20.001Z</time></trkpt><trkpt lat="44.05821094651619" lon="10.260895944165084"><ele>805.0</ele><time>2026-05-02T08:27:21.001Z</time></trkpt><trkpt lat="44.0582219368033" lon="10.261044646772604"><ele>805.0</ele><time>2026-05-02T08:27:22.001Z</time></trkpt><trkpt lat="44.05821578016613" lon="10.261197909344446"><ele>805.0</ele><time>2026-05-02T08:27:23.001Z</time></trkpt><trkpt lat="44.0581890943583" lon="10.261351161958531"><ele>805.0</ele><time>2026-05-02T08:27:24.001Z</time></trkpt><trkpt lat="44.05817265839607" lon="10.261495132211936"><ele>802.5</ele><time>2026-05-02T08:27:25.001Z</time></trkpt><trkpt lat="44.05813861971981" lon="10.261645009513474"><ele>800.0</ele><time>2026-05-02T08:27:26.001Z</time></trkpt><trkpt lat="44.05809117570469" lon="10.261784918960736"><ele>797.5</ele><time>2026-05-02T08:27:27.001Z</time></trkpt><trkpt lat="44.058039337780855" lon="10.261926800026503"><ele>795.0</ele><time>2026-05-02T08:27:28.001Z</time></trkpt><trkpt lat="44.05798273017538" lon="10.262068519826784"><ele>795.0</ele><time>2026-05-02T08:27:29.001Z</time></trkpt><trkpt lat="44.05793987466997" lon="10.262218680976002"><ele>795.0</ele><time>2026-05-02T08:27:30.001Z</time></trkpt><trkpt lat="44.05791265330349" lon="10.262392048870538"><ele>795.0</ele><time>2026-05-02T08:27:31.001Z</time></trkpt><trkpt lat="44.05792591238131" lon="10.262539295983217"><ele>795.0</ele><time>2026-05-02T08:27:32.001Z</time></trkpt><trkpt lat="44.05793367743243" lon="10.26265472187259"><ele>795.0</ele><time>2026-05-02T08:27:33.001Z</time></trkpt><trkpt lat="44.05789123746717" lon="10.262751181735364"><ele>797.0</ele><time>2026-05-02T08:27:35.001Z</time></trkpt><trkpt lat="44.05779702526133" lon="10.262980187682382"><ele>799.0</ele><time>2026-05-02T08:27:37.001Z</time></trkpt><trkpt lat="44.05778743923606" lon="10.263096864824886"><ele>801.0</ele><time>2026-05-02T08:27:38.001Z</time></trkpt><trkpt lat="44.057809684368245" lon="10.263217851753403"><ele>803.0</ele><time>2026-05-02T08:27:39.001Z</time></trkpt><trkpt lat="44.05784306348375" lon="10.263334964375252"><ele>805.4</ele><time>2026-05-02T08:27:40.001Z</time></trkpt><trkpt lat="44.057892702947115" lon="10.263448404712317"><ele>807.8</ele><time>2026-05-02T08:27:41.001Z</time></trkpt><trkpt lat="44.05793764804173" lon="10.263560053728161"><ele>810.2</ele><time>2026-05-02T08:27:42.001Z</time></trkpt><trkpt lat="44.05798535429079" lon="10.26368231784154"><ele>812.6</ele><time>2026-05-02T08:27:43.001Z</time></trkpt><trkpt lat="44.05802264425275" lon="10.263804714436127"><ele>815.0</ele><time>2026-05-02T08:27:44.001Z</time></trkpt><trkpt lat="44.058043958628616" lon="10.263932016081272"><ele>810.4</ele><time>2026-05-02T08:27:45.001Z</time></trkpt><trkpt lat="44.058033897079305" lon="10.26404934672128"><ele>805.8</ele><time>2026-05-02T08:27:46.001Z</time></trkpt><trkpt lat="44.0579899140875" lon="10.264178865250603"><ele>801.2</ele><time>2026-05-02T08:27:47.001Z</time></trkpt><trkpt lat="44.05794767480757" lon="10.264325842581394"><ele>796.6</ele><time>2026-05-02T08:27:48.001Z</time></trkpt><trkpt lat="44.057887634013596" lon="10.264453590965982"><ele>792.0</ele><time>2026-05-02T08:27:49.001Z</time></trkpt><trkpt lat="44.05781339098183" lon="10.264537139493285"><ele>792.0</ele><time>2026-05-02T08:27:50.001Z</time></trkpt><trkpt lat="44.05765243724298" lon="10.264468251220869"><ele>792.0</ele><time>2026-05-02T08:27:51.001Z</time></trkpt><trkpt lat="44.057556901970514" lon="10.264531705990395"><ele>792.0</ele><time>2026-05-02T08:27:52.001Z</time></trkpt><trkpt lat="44.05746370712615" lon="10.264604188388494"><ele>792.0</ele><time>2026-05-02T08:27:53.001Z</time></trkpt><trkpt lat="44.05738162124475" lon="10.264688454868809"><ele>792.8</ele><time>2026-05-02T08:27:54.001Z</time></trkpt><trkpt lat="44.05729381821701" lon="10.264791093630043"><ele>793.6</ele><time>2026-05-02T08:27:55.001Z</time></trkpt><trkpt lat="44.05721567143455" lon="10.26489695730251"><ele>794.4</ele><time>2026-05-02T08:27:56.001Z</time></trkpt><trkpt lat="44.05714094718194" lon="10.265009121407548"><ele>795.1999999999999</ele><time>2026-05-02T08:27:57.001Z</time></trkpt><trkpt lat="44.05707730544082" lon="10.265137276460315"><ele>796.0</ele><time>2026-05-02T08:27:58.001Z</time></trkpt><trkpt lat="44.0570256825443" lon="10.265265012853913"><ele>796.0</ele><time>2026-05-02T08:27:59.001Z</time></trkpt><trkpt lat="44.056987769396244" lon="10.26540530843943"><ele>796.0</ele><time>2026-05-02T08:28:00.001Z</time></trkpt><trkpt lat="44.05696057174664" lon="10.265563680315935"><ele>796.0</ele><time>2026-05-02T08:28:01.001Z</time></trkpt><trkpt lat="44.056936010050066" lon="10.26570185964105"><ele>796.0</ele><time>2026-05-02T08:28:02.001Z</time></trkpt><trkpt lat="44.0569253617424" lon="10.265845349003534"><ele>796.0</ele><time>2026-05-02T08:28:03.001Z</time></trkpt><trkpt lat="44.05691048360185" lon="10.265985444336307"><ele>791.4999999999999</ele><time>2026-05-02T08:28:04.001Z</time></trkpt><trkpt lat="44.056893163021755" lon="10.266104959013832"><ele>787.0</ele><time>2026-05-02T08:28:05.001Z</time></trkpt><trkpt lat="44.05685456975942" lon="10.266225434424166"><ele>782.5</ele><time>2026-05-02T08:28:06.001Z</time></trkpt><trkpt lat="44.056807492022884" lon="10.266326829684077"><ele>778.0</ele><time>2026-05-02T08:28:07.001Z</time></trkpt><trkpt lat="44.056764413630425" lon="10.266434939499163"><ele>773.4999999999999</ele><time>2026-05-02T08:28:08.001Z</time></trkpt><trkpt lat="44.05672918833378" lon="10.266530889164926"><ele>769.0</ele><time>2026-05-02T08:28:09.001Z</time></trkpt><trkpt lat="44.0567033353898" lon="10.26664077980278"><ele>767.0</ele><time>2026-05-02T08:28:10.001Z</time></trkpt><trkpt lat="44.05668750932083" lon="10.266774832193928"><ele>765.0</ele><time>2026-05-02T08:28:11.001Z</time></trkpt><trkpt lat="44.05667924424103" lon="10.266913759564568"><ele>763.0</ele><time>2026-05-02T08:28:12.001Z</time></trkpt><trkpt lat="44.05669016850269" lon="10.267045315235762"><ele>761.0</ele><time>2026-05-02T08:28:13.001Z</time></trkpt><trkpt lat="44.05669189933506" lon="10.267194988194365"><ele>759.0</ele><time>2026-05-02T08:28:14.001Z</time></trkpt><trkpt lat="44.056698022371634" lon="10.267345953430773"><ele>759.0</ele><time>2026-05-02T08:28:15.001Z</time></trkpt><trkpt lat="44.05670332932989" lon="10.267496241431715"><ele>759.0</ele><time>2026-05-02T08:28:16.001Z</time></trkpt><trkpt lat="44.05671919906507" lon="10.267640627258604"><ele>759.0</ele><time>2026-05-02T08:28:17.001Z</time></trkpt><trkpt lat="44.05674129107896" lon="10.267779537228444"><ele>759.0</ele><time>2026-05-02T08:28:18.001Z</time></trkpt><trkpt lat="44.056764823465784" lon="10.267912447338114"><ele>759.0</ele><time>2026-05-02T08:28:19.001Z</time></trkpt><trkpt lat="44.056787641759904" lon="10.268051102671834"><ele>758.6</ele><time>2026-05-02T08:28:20.001Z</time></trkpt><trkpt lat="44.05681077976347" lon="10.268190244645623"><ele>758.2</ele><time>2026-05-02T08:28:21.001Z</time></trkpt><trkpt lat="44.05683402169343" lon="10.26832695963379"><ele>757.8000000000001</ele><time>2026-05-02T08:28:22.001Z</time></trkpt><trkpt lat="44.05685628573573" lon="10.268458794306927"><ele>757.4000000000001</ele><time>2026-05-02T08:28:23.001Z</time></trkpt><trkpt lat="44.05688265442603" lon="10.268575221658944"><ele>757.0</ele><time>2026-05-02T08:28:24.001Z</time></trkpt><trkpt lat="44.05690478732756" lon="10.268695499415676"><ele>757.0</ele><time>2026-05-02T08:28:25.001Z</time></trkpt><trkpt lat="44.05692381020538" lon="10.268817991718539"><ele>757.0</ele><time>2026-05-02T08:28:26.001Z</time></trkpt><trkpt lat="44.05693620792587" lon="10.268936894785714"><ele>757.0</ele><time>2026-05-02T08:28:27.001Z</time></trkpt><trkpt lat="44.05694565000263" lon="10.269065463423185"><ele>757.0</ele><time>2026-05-02T08:28:28.001Z</time></trkpt><trkpt lat="44.056953815971355" lon="10.269186935145404"><ele>757.0</ele><time>2026-05-02T08:28:29.001Z</time></trkpt><trkpt lat="44.05695924900811" lon="10.269317994999453"><ele>756.8</ele><time>2026-05-02T08:28:30.001Z</time></trkpt><trkpt lat="44.05696593854316" lon="10.269451571052796"><ele>756.6</ele><time>2026-05-02T08:28:31.001Z</time></trkpt><trkpt lat="44.05696667426019" lon="10.26958966804428"><ele>756.4</ele><time>2026-05-02T08:28:32.001Z</time></trkpt><trkpt lat="44.05696136156524" lon="10.269724064713701"><ele>756.1999999999999</ele><time>2026-05-02T08:28:33.001Z</time></trkpt><trkpt lat="44.0569450236626" lon="10.269852081834891"><ele>756.0</ele><time>2026-05-02T08:28:34.001Z</time></trkpt><trkpt lat="44.05691001896954" lon="10.269970442209353"><ele>756.0</ele><time>2026-05-02T08:28:35.001Z</time></trkpt><trkpt lat="44.05687611979054" lon="10.270078249577987"><ele>756.0</ele><time>2026-05-02T08:28:36.001Z</time></trkpt><trkpt lat="44.05683026019861" lon="10.270177889427389"><ele>756.0</ele><time>2026-05-02T08:28:37.001Z</time></trkpt><trkpt lat="44.0567774809663" lon="10.270269466986376"><ele>756.0</ele><time>2026-05-02T08:28:38.001Z</time></trkpt><trkpt lat="44.05672171119752" lon="10.27035891397181"><ele>756.0</ele><time>2026-05-02T08:28:39.001Z</time></trkpt><trkpt lat="44.05666175652204" lon="10.270444007556014"><ele>756.0</ele><time>2026-05-02T08:28:40.001Z</time></trkpt><trkpt lat="44.05659832390593" lon="10.270525505668594"><ele>764.1666666666666</ele><time>2026-05-02T08:28:41.001Z</time></trkpt><trkpt lat="44.05654012648693" lon="10.2705977262229"><ele>772.3333333333333</ele><time>2026-05-02T08:28:42.001Z</time></trkpt><trkpt lat="44.05648283207243" lon="10.270653898958802"><ele>780.5</ele><time>2026-05-02T08:28:43.001Z</time></trkpt><trkpt lat="44.05639387384945" lon="10.270713678849372"><ele>788.6666666666666</ele><time>2026-05-02T08:28:45.001Z</time></trkpt><trkpt lat="44.056314449811985" lon="10.27074759596022"><ele>796.8333333333333</ele><time>2026-05-02T08:28:47.001Z</time></trkpt><trkpt lat="44.056250452224084" lon="10.270774650285505"><ele>805.0</ele><time>2026-05-02T08:28:49.001Z</time></trkpt><trkpt lat="44.05621799531526" lon="10.270887779557881"><ele>806.0</ele><time>2026-05-02T08:28:52.001Z</time></trkpt><trkpt lat="44.05620795040434" lon="10.27098087349882"><ele>807.0</ele><time>2026-05-02T08:28:53.001Z</time></trkpt><trkpt lat="44.05621781182776" lon="10.271119432551243"><ele>808.0</ele><time>2026-05-02T08:28:54.001Z</time></trkpt><trkpt lat="44.05623267035622" lon="10.271270815413292"><ele>809.0</ele><time>2026-05-02T08:28:55.001Z</time></trkpt><trkpt lat="44.0562708813607" lon="10.271421678889357"><ele>810.0</ele><time>2026-05-02T08:28:56.001Z</time></trkpt><trkpt lat="44.05631691622772" lon="10.27155488693546"><ele>814.2</ele><time>2026-05-02T08:28:57.001Z</time></trkpt><trkpt lat="44.05637540455869" lon="10.2716694584643"><ele>818.4</ele><time>2026-05-02T08:28:58.001Z</time></trkpt><trkpt lat="44.05645963102038" lon="10.271746189318897"><ele>822.5999999999999</ele><time>2026-05-02T08:28:59.001Z</time></trkpt><trkpt lat="44.056577435867126" lon="10.271779071672588"><ele>826.8</ele><time>2026-05-02T08:29:00.001Z</time></trkpt><trkpt lat="44.056651110835304" lon="10.271861812926694"><ele>831.0</ele><time>2026-05-02T08:29:01.001Z</time></trkpt><trkpt lat="44.05676671483624" lon="10.271905793833405"><ele>818.1999999999999</ele><time>2026-05-02T08:29:02.001Z</time></trkpt><trkpt lat="44.05685683619052" lon="10.271967264118127"><ele>805.4</ele><time>2026-05-02T08:29:03.001Z</time></trkpt><trkpt lat="44.05694788103925" lon="10.27203188891826"><ele>792.6</ele><time>2026-05-02T08:29:04.001Z</time></trkpt><trkpt lat="44.05704442567712" lon="10.272099026923897"><ele>779.8</ele><time>2026-05-02T08:29:05.001Z</time></trkpt><trkpt lat="44.05713590618315" lon="10.272166497629533"><ele>767.0</ele><time>2026-05-02T08:29:06.001Z</time></trkpt><trkpt lat="44.057227204145626" lon="10.27223503059208"><ele>766.0</ele><time>2026-05-02T08:29:07.001Z</time></trkpt><trkpt lat="44.057315489826635" lon="10.272312136101588"><ele>765.0</ele><time>2026-05-02T08:29:08.001Z</time></trkpt><trkpt lat="44.057412419136384" lon="10.272390043098966"><ele>764.0</ele><time>2026-05-02T08:29:09.001Z</time></trkpt><trkpt lat="44.05750330980223" lon="10.272460336028097"><ele>763.0</ele><time>2026-05-02T08:29:10.001Z</time></trkpt><trkpt lat="44.05759371242467" lon="10.272534295587453"><ele>762.0</ele><time>2026-05-02T08:29:11.001Z</time></trkpt><trkpt lat="44.05768540135642" lon="10.272604523461565"><ele>762.0</ele><time>2026-05-02T08:29:12.001Z</time></trkpt><trkpt lat="44.05777177166458" lon="10.272664199560959"><ele>762.0</ele><time>2026-05-02T08:29:13.001Z</time></trkpt><trkpt lat="44.057848889193565" lon="10.272721541665744"><ele>762.0</ele><time>2026-05-02T08:29:14.001Z</time></trkpt><trkpt lat="44.05791294896433" lon="10.272793499913652"><ele>762.0</ele><time>2026-05-02T08:29:15.001Z</time></trkpt><trkpt lat="44.05797081419812" lon="10.272868121239398"><ele>762.0</ele><time>2026-05-02T08:29:16.001Z</time></trkpt><trkpt lat="44.05805267853914" lon="10.27293724331908"><ele>762.0</ele><time>2026-05-02T08:29:17.001Z</time></trkpt><trkpt lat="44.05815907581492" lon="10.272999647930705"><ele>762.0</ele><time>2026-05-02T08:29:18.001Z</time></trkpt><trkpt lat="44.058265699851596" lon="10.273066126251697"><ele>762.0</ele><time>2026-05-02T08:29:19.001Z</time></trkpt><trkpt lat="44.05836041091367" lon="10.27313999312778"><ele>762.0</ele><time>2026-05-02T08:29:20.001Z</time></trkpt><trkpt lat="44.05845223996227" lon="10.27322174261427"><ele>762.0</ele><time>2026-05-02T08:29:21.001Z</time></trkpt><trkpt lat="44.058546653903775" lon="10.27331272882533"><ele>762.0</ele><time>2026-05-02T08:29:22.001Z</time></trkpt><trkpt lat="44.058635308106176" lon="10.27340247262783"><ele>760.0</ele><time>2026-05-02T08:29:23.001Z</time></trkpt><trkpt lat="44.058719448386796" lon="10.273507337487203"><ele>758.0</ele><time>2026-05-02T08:29:24.001Z</time></trkpt><trkpt lat="44.05880847577489" lon="10.27361886849116"><ele>756.0</ele><time>2026-05-02T08:29:25.001Z</time></trkpt><trkpt lat="44.05889643474346" lon="10.27373232317202"><ele>754.0</ele><time>2026-05-02T08:29:26.001Z</time></trkpt><trkpt lat="44.05898232705378" lon="10.27384215690134"><ele>756.5</ele><time>2026-05-02T08:29:27.001Z</time></trkpt><trkpt lat="44.05906562058257" lon="10.27395184002746"><ele>759.0</ele><time>2026-05-02T08:29:28.001Z</time></trkpt><trkpt lat="44.059147324372226" lon="10.274062470438514"><ele>761.5</ele><time>2026-05-02T08:29:29.001Z</time></trkpt><trkpt lat="44.059227160496846" lon="10.274172239768193"><ele>764.0</ele><time>2026-05-02T08:29:30.001Z</time></trkpt><trkpt lat="44.05930756605359" lon="10.274282251381122"><ele>771.0</ele><time>2026-05-02T08:29:31.001Z</time></trkpt><trkpt lat="44.05938604655463" lon="10.274391489049728"><ele>778.0</ele><time>2026-05-02T08:29:32.001Z</time></trkpt><trkpt lat="44.05946798688082" lon="10.274500910029241"><ele>785.0</ele><time>2026-05-02T08:29:33.001Z</time></trkpt><trkpt lat="44.05955111465261" lon="10.2746107652968"><ele>792.0</ele><time>2026-05-02T08:29:34.001Z</time></trkpt><trkpt lat="44.05963541072206" lon="10.274713944522395"><ele>798.5</ele><time>2026-05-02T08:29:35.001Z</time></trkpt><trkpt lat="44.059730544105165" lon="10.274837616094631"><ele>805.0</ele><time>2026-05-02T08:29:36.143Z</time></trkpt><trkpt lat="44.05983835514001" lon="10.274955831200998"><ele>811.5</ele><time>2026-05-02T08:29:37.139Z</time></trkpt><trkpt lat="44.05994194244898" lon="10.275068647684584"><ele>818.0</ele><time>2026-05-02T08:29:38.142Z</time></trkpt><trkpt lat="44.05970802266957" lon="10.275112280801391"><ele>818.0</ele><time>2026-05-02T08:29:39.001Z</time></trkpt><trkpt lat="44.05977090957424" lon="10.275171092050432"><ele>818.0</ele><time>2026-05-02T08:29:40.001Z</time></trkpt><trkpt lat="44.05971750627566" lon="10.2753148389292"><ele>818.0</ele><time>2026-05-02T08:29:41.001Z</time></trkpt><trkpt lat="44.05971906489988" lon="10.27545937472293"><ele>818.0</ele><time>2026-05-02T08:29:42.001Z</time></trkpt><trkpt lat="44.05973718841109" lon="10.275598841663554"><ele>818.0</ele><time>2026-05-02T08:29:43.001Z</time></trkpt><trkpt lat="44.05975625535668" lon="10.275756013226605"><ele>825.75</ele><time>2026-05-02T08:29:44.001Z</time></trkpt><trkpt lat="44.059806522169296" lon="10.275904258987094"><ele>833.5</ele><time>2026-05-02T08:29:45.001Z</time></trkpt><trkpt lat="44.05984123565591" lon="10.276050274259125"><ele>841.25</ele><time>2026-05-02T08:29:46.001Z</time></trkpt><trkpt lat="44.059887974606596" lon="10.276184178755878"><ele>849.0</ele><time>2026-05-02T08:29:47.001Z</time></trkpt><trkpt lat="44.05992479043984" lon="10.276338619779452"><ele>833.5</ele><time>2026-05-02T08:29:48.001Z</time></trkpt><trkpt lat="44.0599677143899" lon="10.27646768705576"><ele>818.0</ele><time>2026-05-02T08:29:49.001Z</time></trkpt><trkpt lat="44.06000481739734" lon="10.27660392527774"><ele>802.5</ele><time>2026-05-02T08:29:50.001Z</time></trkpt><trkpt lat="44.06003923794013" lon="10.27670645228922"><ele>787.0</ele><time>2026-05-02T08:29:51.001Z</time></trkpt><trkpt lat="44.060082605641995" lon="10.27679600436249"><ele>771.5</ele><time>2026-05-02T08:29:52.001Z</time></trkpt><trkpt lat="44.06011382914808" lon="10.276886657393723"><ele>756.0</ele><time>2026-05-02T08:29:53.001Z</time></trkpt><trkpt lat="44.06015326942687" lon="10.276981357450648"><ele>756.0</ele><time>2026-05-02T08:29:54.001Z</time></trkpt><trkpt lat="44.06017359182823" lon="10.277077160726162"><ele>756.0</ele><time>2026-05-02T08:29:55.001Z</time></trkpt><trkpt lat="44.060158884765336" lon="10.27718294939131"><ele>756.0</ele><time>2026-05-02T08:29:56.001Z</time></trkpt><trkpt lat="44.06012210017741" lon="10.277310261017291"><ele>756.0</ele><time>2026-05-02T08:29:57.001Z</time></trkpt><trkpt lat="44.06008291658099" lon="10.27742576639612"><ele>756.0</ele><time>2026-05-02T08:29:58.001Z</time></trkpt><trkpt lat="44.06006305678003" lon="10.27755478751601"><ele>756.0</ele><time>2026-05-02T08:29:59.001Z</time></trkpt><trkpt lat="44.060040211706074" lon="10.277687944391175"><ele>755.5999999999999</ele><time>2026-05-02T08:30:00.001Z</time></trkpt><trkpt lat="44.060010767072626" lon="10.277837950266141"><ele>755.2</ele><time>2026-05-02T08:30:01.001Z</time></trkpt><trkpt lat="44.059997912876256" lon="10.277980438770825"><ele>754.8</ele><time>2026-05-02T08:30:02.001Z</time></trkpt><trkpt lat="44.05998516061535" lon="10.278116084396594"><ele>754.4000000000001</ele><time>2026-05-02T08:30:03.001Z</time></trkpt><trkpt lat="44.05995054798235" lon="10.278245488569981"><ele>754.0</ele><time>2026-05-02T08:30:04.001Z</time></trkpt><trkpt lat="44.059921721560855" lon="10.278384943579999"><ele>772.4000000000001</ele><time>2026-05-02T08:30:05.001Z</time></trkpt><trkpt lat="44.05990398016811" lon="10.278513343028484"><ele>790.8</ele><time>2026-05-02T08:30:06.001Z</time></trkpt><trkpt lat="44.059897611082924" lon="10.27866540518856"><ele>809.2</ele><time>2026-05-02T08:30:07.001Z</time></trkpt><trkpt lat="44.05986489481193" lon="10.278790965310149"><ele>827.5999999999999</ele><time>2026-05-02T08:30:08.001Z</time></trkpt><trkpt lat="44.05985354753887" lon="10.278928711233494"><ele>846.0</ele><time>2026-05-02T08:30:09.001Z</time></trkpt><trkpt lat="44.059867395290496" lon="10.279074725945176"><ele>846.0</ele><time>2026-05-02T08:30:10.001Z</time></trkpt><trkpt lat="44.0598813967759" lon="10.279198833948366"><ele>846.0</ele><time>2026-05-02T08:30:11.001Z</time></trkpt><trkpt lat="44.059909583573294" lon="10.279358266197887"><ele>846.0</ele><time>2026-05-02T08:30:12.001Z</time></trkpt><trkpt lat="44.05991445365733" lon="10.279507752269103"><ele>846.0</ele><time>2026-05-02T08:30:13.001Z</time></trkpt><trkpt lat="44.059954959006134" lon="10.279660385208192"><ele>846.0</ele><time>2026-05-02T08:30:14.001Z</time></trkpt><trkpt lat="44.059948909669" lon="10.2798152230105"><ele>827.4</ele><time>2026-05-02T08:30:15.001Z</time></trkpt><trkpt lat="44.05995137781266" lon="10.279975017731397"><ele>808.8</ele><time>2026-05-02T08:30:16.001Z</time></trkpt><trkpt lat="44.05997262305404" lon="10.28012687764851"><ele>790.1999999999999</ele><time>2026-05-02T08:30:17.001Z</time></trkpt><trkpt lat="44.060008165847506" lon="10.280260026659025"><ele>771.5999999999999</ele><time>2026-05-02T08:30:18.001Z</time></trkpt><trkpt lat="44.060052001406135" lon="10.28038930290082"><ele>753.0</ele><time>2026-05-02T08:30:19.001Z</time></trkpt><trkpt lat="44.06013281441146" lon="10.280488272098694"><ele>753.0</ele><time>2026-05-02T08:30:20.001Z</time></trkpt><trkpt lat="44.06019214283564" lon="10.280584181175225"><ele>753.0</ele><time>2026-05-02T08:30:21.001Z</time></trkpt><trkpt lat="44.06031831637885" lon="10.28064721369436"><ele>753.0</ele><time>2026-05-02T08:30:22.001Z</time></trkpt><trkpt lat="44.060391372053395" lon="10.280743766547875"><ele>753.0</ele><time>2026-05-02T08:30:23.001Z</time></trkpt><trkpt lat="44.06046536926071" lon="10.280849124846512"><ele>753.0</ele><time>2026-05-02T08:30:24.001Z</time></trkpt><trkpt lat="44.060531974526526" lon="10.280948549169544"><ele>760.5999999999999</ele><time>2026-05-02T08:30:25.001Z</time></trkpt><trkpt lat="44.06059185415497" lon="10.281045023940322"><ele>768.1999999999999</ele><time>2026-05-02T08:30:26.001Z</time></trkpt><trkpt lat="44.06064090701193" lon="10.28114854947543"><ele>775.8</ele><time>2026-05-02T08:30:27.001Z</time></trkpt><trkpt lat="44.06069340517595" lon="10.281271787670557"><ele>783.4</ele><time>2026-05-02T08:30:28.001Z</time></trkpt><trkpt lat="44.060729200955855" lon="10.281394323058514"><ele>791.0</ele><time>2026-05-02T08:30:29.001Z</time></trkpt><trkpt lat="44.060753882847514" lon="10.281523516563293"><ele>797.5999999999999</ele><time>2026-05-02T08:30:30.001Z</time></trkpt><trkpt lat="44.060762836108694" lon="10.281664500171251"><ele>804.2</ele><time>2026-05-02T08:30:31.001Z</time></trkpt><trkpt lat="44.06075637811887" lon="10.281803560917611"><ele>810.8</ele><time>2026-05-02T08:30:32.001Z</time></trkpt><trkpt lat="44.060752348783105" lon="10.28194117349045"><ele>817.4000000000001</ele><time>2026-05-02T08:30:33.001Z</time></trkpt><trkpt lat="44.060749946418156" lon="10.282062654456164"><ele>824.0</ele><time>2026-05-02T08:30:34.001Z</time></trkpt><trkpt lat="44.060746144645755" lon="10.282204750514097"><ele>827.2</ele><time>2026-05-02T08:30:35.001Z</time></trkpt><trkpt lat="44.06073330749999" lon="10.28234395763394"><ele>830.4000000000001</ele><time>2026-05-02T08:30:36.001Z</time></trkpt><trkpt lat="44.06071489672552" lon="10.28246846761666"><ele>833.6</ele><time>2026-05-02T08:30:37.001Z</time></trkpt><trkpt lat="44.060686712793085" lon="10.28259414642429"><ele>836.8</ele><time>2026-05-02T08:30:38.001Z</time></trkpt><trkpt lat="44.0606600822192" lon="10.282711866304794"><ele>840.0</ele><time>2026-05-02T08:30:39.001Z</time></trkpt><trkpt lat="44.06060635447131" lon="10.282834819363936"><ele>840.0</ele><time>2026-05-02T08:30:40.001Z</time></trkpt><trkpt lat="44.06055801796972" lon="10.28296672871929"><ele>840.0</ele><time>2026-05-02T08:30:41.001Z</time></trkpt><trkpt lat="44.0605361215294" lon="10.283105086140612"><ele>840.0</ele><time>2026-05-02T08:30:42.001Z</time></trkpt><trkpt lat="44.0605611096518" lon="10.283270493229162"><ele>840.0</ele><time>2026-05-02T08:30:43.001Z</time></trkpt><trkpt lat="44.060591108854474" lon="10.283408730952653"><ele>840.0</ele><time>2026-05-02T08:30:44.001Z</time></trkpt><trkpt lat="44.06066125649312" lon="10.283539238865659"><ele>840.4</ele><time>2026-05-02T08:30:45.001Z</time></trkpt><trkpt lat="44.06073015761092" lon="10.28365318846919"><ele>840.8</ele><time>2026-05-02T08:30:46.001Z</time></trkpt><trkpt lat="44.06082190606394" lon="10.283735220493034"><ele>841.2</ele><time>2026-05-02T08:30:47.001Z</time></trkpt><trkpt lat="44.060886484339996" lon="10.283862685051131"><ele>841.6</ele><time>2026-05-02T08:30:48.001Z</time></trkpt><trkpt lat="44.06094849900662" lon="10.283947046163398"><ele>842.0</ele><time>2026-05-02T08:30:49.001Z</time></trkpt><trkpt lat="44.06103897437819" lon="10.284043148818375"><ele>826.6666666666667</ele><time>2026-05-02T08:30:50.001Z</time></trkpt><trkpt lat="44.06111024939629" lon="10.284137495678923"><ele>811.3333333333334</ele><time>2026-05-02T08:30:51.001Z</time></trkpt><trkpt lat="44.0611631576274" lon="10.28422265542268"><ele>796.0</ele><time>2026-05-02T08:30:52.001Z</time></trkpt><trkpt lat="44.061239460769485" lon="10.284298357096912"><ele>780.6666666666667</ele><time>2026-05-02T08:30:53.001Z</time></trkpt><trkpt lat="44.061309680520644" lon="10.284368513381368"><ele>765.3333333333334</ele><time>2026-05-02T08:30:54.001Z</time></trkpt><trkpt lat="44.06136667672611" lon="10.284437372037749"><ele>750.0</ele><time>2026-05-02T08:30:55.001Z</time></trkpt><trkpt lat="44.06143853384228" lon="10.284498479429418"><ele>750.0</ele><time>2026-05-02T08:30:56.001Z</time></trkpt><trkpt lat="44.06150636487578" lon="10.284570544794612"><ele>750.0</ele><time>2026-05-02T08:30:57.001Z</time></trkpt><trkpt lat="44.061583844200484" lon="10.28464065222049"><ele>750.0</ele><time>2026-05-02T08:30:58.001Z</time></trkpt><trkpt lat="44.06164621115648" lon="10.284725752898316"><ele>750.0</ele><time>2026-05-02T08:30:59.001Z</time></trkpt><trkpt lat="44.061698526088435" lon="10.28482246226919"><ele>750.0</ele><time>2026-05-02T08:31:00.001Z</time></trkpt><trkpt lat="44.06174047646304" lon="10.284928049911485"><ele>750.0</ele><time>2026-05-02T08:31:01.001Z</time></trkpt><trkpt lat="44.0617635368769" lon="10.285042522207592"><ele>740.4</ele><time>2026-05-02T08:31:02.001Z</time></trkpt><trkpt lat="44.06178881494488" lon="10.285161243238667"><ele>730.8</ele><time>2026-05-02T08:31:03.001Z</time></trkpt><trkpt lat="44.06178621482349" lon="10.285291629815333"><ele>721.2</ele><time>2026-05-02T08:31:04.001Z</time></trkpt><trkpt lat="44.06178232306436" lon="10.28541891678557"><ele>711.6</ele><time>2026-05-02T08:31:05.001Z</time></trkpt><trkpt lat="44.061753414691" lon="10.285554466175787"><ele>702.0</ele><time>2026-05-02T08:31:06.001Z</time></trkpt><trkpt lat="44.06171333794652" lon="10.285691217660114"><ele>702.0</ele><time>2026-05-02T08:31:07.001Z</time></trkpt><trkpt lat="44.0616643863924" lon="10.285818505582066"><ele>702.0</ele><time>2026-05-02T08:31:08.001Z</time></trkpt><trkpt lat="44.06162203834454" lon="10.285941192493453"><ele>702.0</ele><time>2026-05-02T08:31:09.001Z</time></trkpt><trkpt lat="44.061571104777386" lon="10.286076833826904"><ele>702.0</ele><time>2026-05-02T08:31:10.001Z</time></trkpt><trkpt lat="44.06152456587612" lon="10.286205307731315"><ele>702.0</ele><time>2026-05-02T08:31:11.001Z</time></trkpt><trkpt lat="44.061482020882785" lon="10.286332496431646"><ele>718.8</ele><time>2026-05-02T08:31:12.001Z</time></trkpt><trkpt lat="44.06144258856195" lon="10.286466529297366"><ele>735.6</ele><time>2026-05-02T08:31:13.001Z</time></trkpt><trkpt lat="44.06142467264795" lon="10.286624031841809"><ele>752.4</ele><time>2026-05-02T08:31:14.001Z</time></trkpt><trkpt lat="44.0614269177715" lon="10.286764931059574"><ele>769.1999999999999</ele><time>2026-05-02T08:31:15.001Z</time></trkpt><trkpt lat="44.06142242573867" lon="10.286916688435918"><ele>786.0</ele><time>2026-05-02T08:31:16.001Z</time></trkpt><trkpt lat="44.06142404945065" lon="10.287050235845674"><ele>786.0</ele><time>2026-05-02T08:31:17.001Z</time></trkpt><trkpt lat="44.06142793464752" lon="10.287194674946875"><ele>786.0</ele><time>2026-05-02T08:31:18.001Z</time></trkpt><trkpt lat="44.06142719742385" lon="10.287332460375218"><ele>786.0</ele><time>2026-05-02T08:31:19.001Z</time></trkpt><trkpt lat="44.061425127545256" lon="10.287479313359778"><ele>786.0</ele><time>2026-05-02T08:31:20.001Z</time></trkpt><trkpt lat="44.061426583798415" lon="10.28762849524284"><ele>786.0</ele><time>2026-05-02T08:31:21.001Z</time></trkpt><trkpt lat="44.061428607178726" lon="10.287770296936916"><ele>786.4</ele><time>2026-05-02T08:31:22.001Z</time></trkpt><trkpt lat="44.06146002020539" lon="10.287907397133766"><ele>786.8</ele><time>2026-05-02T08:31:23.001Z</time></trkpt><trkpt lat="44.061501855571734" lon="10.288046983470567"><ele>787.1999999999999</ele><time>2026-05-02T08:31:24.001Z</time></trkpt><trkpt lat="44.06154880021824" lon="10.288181429406448"><ele>787.5999999999999</ele><time>2026-05-02T08:31:25.001Z</time></trkpt><trkpt lat="44.06160334299293" lon="10.288311713734732"><ele>788.0</ele><time>2026-05-02T08:31:26.001Z</time></trkpt><trkpt lat="44.06166139829239" lon="10.28844366432245"><ele>774.4</ele><time>2026-05-02T08:31:27.001Z</time></trkpt><trkpt lat="44.06172479012823" lon="10.288573417500647"><ele>760.8</ele><time>2026-05-02T08:31:28.001Z</time></trkpt><trkpt lat="44.061790958391576" lon="10.288699927406652"><ele>747.2</ele><time>2026-05-02T08:31:29.001Z</time></trkpt><trkpt lat="44.06185154490371" lon="10.288819539692101"><ele>733.6</ele><time>2026-05-02T08:31:30.001Z</time></trkpt><trkpt lat="44.06190392597286" lon="10.288923380128214"><ele>720.0</ele><time>2026-05-02T08:31:31.001Z</time></trkpt><trkpt lat="44.06195354674472" lon="10.289015737079758"><ele>720.0</ele><time>2026-05-02T08:31:32.001Z</time></trkpt><trkpt lat="44.06200272438506" lon="10.28909257187609"><ele>720.0</ele><time>2026-05-02T08:31:33.001Z</time></trkpt><trkpt lat="44.06206036166968" lon="10.289168436346475"><ele>720.0</ele><time>2026-05-02T08:31:34.001Z</time></trkpt><trkpt lat="44.06213526038199" lon="10.28921818189565"><ele>720.0</ele><time>2026-05-02T08:31:35.001Z</time></trkpt><trkpt lat="44.06222034262554" lon="10.289247844430465"><ele>720.0</ele><time>2026-05-02T08:31:36.001Z</time></trkpt><trkpt lat="44.0623195815261" lon="10.289262679702292"><ele>720.0</ele><time>2026-05-02T08:31:37.001Z</time></trkpt><trkpt lat="44.062416145537995" lon="10.28926866205432"><ele>713.6666666666666</ele><time>2026-05-02T08:31:38.001Z</time></trkpt><trkpt lat="44.062495849991706" lon="10.289287037923604"><ele>707.3333333333334</ele><time>2026-05-02T08:31:39.001Z</time></trkpt><trkpt lat="44.062574382439784" lon="10.289321364932782"><ele>701.0</ele><time>2026-05-02T08:31:40.001Z</time></trkpt><trkpt lat="44.06263436283603" lon="10.289389198295464"><ele>694.6666666666667</ele><time>2026-05-02T08:31:41.001Z</time></trkpt><trkpt lat="44.06268933641006" lon="10.289471750397349"><ele>688.3333333333334</ele><time>2026-05-02T08:31:42.001Z</time></trkpt><trkpt lat="44.06271659415901" lon="10.289589320965693"><ele>682.0</ele><time>2026-05-02T08:31:43.001Z</time></trkpt><trkpt lat="44.06273092071791" lon="10.28969107471092"><ele>681.6</ele><time>2026-05-02T08:31:44.001Z</time></trkpt><trkpt lat="44.062725646810556" lon="10.28980846859923"><ele>681.2</ele><time>2026-05-02T08:31:45.001Z</time></trkpt><trkpt lat="44.06267956278217" lon="10.289924029391809"><ele>680.8</ele><time>2026-05-02T08:31:46.001Z</time></trkpt><trkpt lat="44.06259782667955" lon="10.290021573966657"><ele>680.4</ele><time>2026-05-02T08:31:47.001Z</time></trkpt><trkpt lat="44.062504871747635" lon="10.290128388656502"><ele>680.0</ele><time>2026-05-02T08:31:48.001Z</time></trkpt><trkpt lat="44.06242325121239" lon="10.290236293367661"><ele>693.2</ele><time>2026-05-02T08:31:49.001Z</time></trkpt><trkpt lat="44.062355897660424" lon="10.290344602632084"><ele>706.4</ele><time>2026-05-02T08:31:50.001Z</time></trkpt><trkpt lat="44.062302096334605" lon="10.290467197184807"><ele>719.5999999999999</ele><time>2026-05-02T08:31:51.001Z</time></trkpt><trkpt lat="44.06224317018718" lon="10.290570207589491"><ele>732.8</ele><time>2026-05-02T08:31:52.001Z</time></trkpt><trkpt lat="44.0621979045716" lon="10.290659167506195"><ele>746.0</ele><time>2026-05-02T08:31:53.001Z</time></trkpt><trkpt lat="44.06216512858166" lon="10.290774053018849"><ele>743.8</ele><time>2026-05-02T08:31:54.001Z</time></trkpt><trkpt lat="44.06212657720584" lon="10.290906729037452"><ele>741.5999999999999</ele><time>2026-05-02T08:31:55.001Z</time></trkpt><trkpt lat="44.06207648978537" lon="10.291035930341595"><ele>739.4</ele><time>2026-05-02T08:31:56.001Z</time></trkpt><trkpt lat="44.06204103026059" lon="10.291175777299259"><ele>737.2</ele><time>2026-05-02T08:31:57.001Z</time></trkpt><trkpt lat="44.06200097748224" lon="10.291304892400884"><ele>735.0</ele><time>2026-05-02T08:31:58.001Z</time></trkpt><trkpt lat="44.06197939321924" lon="10.291449449040089"><ele>735.0</ele><time>2026-05-02T08:31:59.001Z</time></trkpt><trkpt lat="44.06195647901031" lon="10.291593161668638"><ele>735.0</ele><time>2026-05-02T08:32:00.001Z</time></trkpt><trkpt lat="44.061939732213915" lon="10.291734304936163"><ele>735.0</ele><time>2026-05-02T08:32:01.001Z</time></trkpt><trkpt lat="44.06192200183611" lon="10.29187975142818"><ele>735.0</ele><time>2026-05-02T08:32:02.001Z</time></trkpt><trkpt lat="44.06191666760175" lon="10.292028239870714"><ele>735.0</ele><time>2026-05-02T08:32:03.001Z</time></trkpt><trkpt lat="44.061920823176756" lon="10.292183517503737"><ele>727.6</ele><time>2026-05-02T08:32:04.001Z</time></trkpt><trkpt lat="44.06196175210627" lon="10.292317349999863"><ele>720.2</ele><time>2026-05-02T08:32:05.001Z</time></trkpt><trkpt lat="44.06198443578383" lon="10.292463387121995"><ele>712.8</ele><time>2026-05-02T08:32:06.001Z</time></trkpt><trkpt lat="44.06199859360041" lon="10.292603426868315"><ele>705.4</ele><time>2026-05-02T08:32:07.001Z</time></trkpt><trkpt lat="44.06201697156814" lon="10.292735336522982"><ele>698.0</ele><time>2026-05-02T08:32:08.001Z</time></trkpt><trkpt lat="44.06202385920242" lon="10.292870754822872"><ele>698.0</ele><time>2026-05-02T08:32:09.001Z</time></trkpt><trkpt lat="44.062023018026" lon="10.293014384683609"><ele>698.0</ele><time>2026-05-02T08:32:10.001Z</time></trkpt><trkpt lat="44.06200752923055" lon="10.29314848609508"><ele>698.0</ele><time>2026-05-02T08:32:11.001Z</time></trkpt><trkpt lat="44.061985541479665" lon="10.293287138377522"><ele>698.0</ele><time>2026-05-02T08:32:12.001Z</time></trkpt><trkpt lat="44.06194284715014" lon="10.293422223994924"><ele>698.0</ele><time>2026-05-02T08:32:13.001Z</time></trkpt><trkpt lat="44.061898655890815" lon="10.293536773424828"><ele>694.0</ele><time>2026-05-02T08:32:14.001Z</time></trkpt><trkpt lat="44.06185050774142" lon="10.29364678500737"><ele>690.0</ele><time>2026-05-02T08:32:15.001Z</time></trkpt><trkpt lat="44.061786861944064" lon="10.293742959539689"><ele>686.0</ele><time>2026-05-02T08:32:16.001Z</time></trkpt><trkpt lat="44.06171166244972" lon="10.293817540753146"><ele>682.0</ele><time>2026-05-02T08:32:17.001Z</time></trkpt><trkpt lat="44.06163122434641" lon="10.293879103335344"><ele>678.0</ele><time>2026-05-02T08:32:18.001Z</time></trkpt><trkpt lat="44.06154228701384" lon="10.293926314989983"><ele>678.0</ele><time>2026-05-02T08:32:19.001Z</time></trkpt><trkpt lat="44.06145041867635" lon="10.293965962415747"><ele>678.0</ele><time>2026-05-02T08:32:20.001Z</time></trkpt><trkpt lat="44.06135385989243" lon="10.294002289325373"><ele>678.0</ele><time>2026-05-02T08:32:21.001Z</time></trkpt><trkpt lat="44.06126000086717" lon="10.294049653054683"><ele>678.0</ele><time>2026-05-02T08:32:22.001Z</time></trkpt><trkpt lat="44.0611689198889" lon="10.29411058954915"><ele>678.0</ele><time>2026-05-02T08:32:23.001Z</time></trkpt><trkpt lat="44.06108503890308" lon="10.294197258312483"><ele>678.0</ele><time>2026-05-02T08:32:24.001Z</time></trkpt><trkpt lat="44.06099822481606" lon="10.294298210901879"><ele>678.0</ele><time>2026-05-02T08:32:25.001Z</time></trkpt><trkpt lat="44.060924925408194" lon="10.294397180958372"><ele>678.0</ele><time>2026-05-02T08:32:26.001Z</time></trkpt><trkpt lat="44.06085058701938" lon="10.294510858277024"><ele>678.0</ele><time>2026-05-02T08:32:27.001Z</time></trkpt><trkpt lat="44.06080030943571" lon="10.294632578198838"><ele>678.0</ele><time>2026-05-02T08:32:28.001Z</time></trkpt><trkpt lat="44.06076506774461" lon="10.294791026706587"><ele>674.25</ele><time>2026-05-02T08:32:29.001Z</time></trkpt><trkpt lat="44.06074838871096" lon="10.294955940271937"><ele>670.5</ele><time>2026-05-02T08:32:30.001Z</time></trkpt><trkpt lat="44.06075896888787" lon="10.295125698107967"><ele>666.75</ele><time>2026-05-02T08:32:31.001Z</time></trkpt><trkpt lat="44.06078507650772" lon="10.295267174784426"><ele>663.0</ele><time>2026-05-02T08:32:32.001Z</time></trkpt><trkpt lat="44.06080881661157" lon="10.295410671248035"><ele>663.0</ele><time>2026-05-02T08:32:33.001Z</time></trkpt><trkpt lat="44.060820257056356" lon="10.295578963575585"><ele>663.0</ele><time>2026-05-02T08:32:34.001Z</time></trkpt><trkpt lat="44.060825817813374" lon="10.295730090082959"><ele>663.0</ele><time>2026-05-02T08:32:35.001Z</time></trkpt><trkpt lat="44.060822861498764" lon="10.295881709799795"><ele>663.0</ele><time>2026-05-02T08:32:36.001Z</time></trkpt><trkpt lat="44.06082422871918" lon="10.296026757464693"><ele>663.0</ele><time>2026-05-02T08:32:37.001Z</time></trkpt><trkpt lat="44.06081898498331" lon="10.296177405200892"><ele>661.5999999999999</ele><time>2026-05-02T08:32:38.001Z</time></trkpt><trkpt lat="44.06081750599526" lon="10.29631616220757"><ele>660.1999999999999</ele><time>2026-05-02T08:32:39.001Z</time></trkpt><trkpt lat="44.06081988579894" lon="10.296467364576106"><ele>658.8</ele><time>2026-05-02T08:32:40.001Z</time></trkpt><trkpt lat="44.06083030906667" lon="10.296620007438104"><ele>657.4</ele><time>2026-05-02T08:32:41.001Z</time></trkpt><trkpt lat="44.060840864043364" lon="10.296772302619956"><ele>656.0</ele><time>2026-05-02T08:32:42.001Z</time></trkpt><trkpt lat="44.06084476670264" lon="10.296934934913812"><ele>654.8</ele><time>2026-05-02T08:32:43.001Z</time></trkpt><trkpt lat="44.06084825389399" lon="10.297067436689597"><ele>653.5999999999999</ele><time>2026-05-02T08:32:44.001Z</time></trkpt><trkpt lat="44.06087337921689" lon="10.297211347481172"><ele>652.4</ele><time>2026-05-02T08:32:45.001Z</time></trkpt><trkpt lat="44.060870590408065" lon="10.2973602866333"><ele>651.2</ele><time>2026-05-02T08:32:46.001Z</time></trkpt><trkpt lat="44.06087373547376" lon="10.297502990415545"><ele>650.0</ele><time>2026-05-02T08:32:47.001Z</time></trkpt><trkpt lat="44.06087571473261" lon="10.297648714882156"><ele>649.4</ele><time>2026-05-02T08:32:48.001Z</time></trkpt><trkpt lat="44.06087980388695" lon="10.297786185247052"><ele>648.8</ele><time>2026-05-02T08:32:49.001Z</time></trkpt><trkpt lat="44.06088274566479" lon="10.297926381385187"><ele>648.2</ele><time>2026-05-02T08:32:50.001Z</time></trkpt><trkpt lat="44.060861239901506" lon="10.298051548215817"><ele>647.6</ele><time>2026-05-02T08:32:51.001Z</time></trkpt><trkpt lat="44.06084353721433" lon="10.298182879520207"><ele>647.0</ele><time>2026-05-02T08:32:52.001Z</time></trkpt><trkpt lat="44.06081013546241" lon="10.298310801183291"><ele>659.4000000000001</ele><time>2026-05-02T08:32:53.001Z</time></trkpt><trkpt lat="44.06077530255778" lon="10.29843373234507"><ele>671.8000000000001</ele><time>2026-05-02T08:32:54.001Z</time></trkpt><trkpt lat="44.06074801280661" lon="10.298561989386846"><ele>684.2</ele><time>2026-05-02T08:32:55.001Z</time></trkpt><trkpt lat="44.06073922278323" lon="10.298698618513555"><ele>696.6</ele><time>2026-05-02T08:32:56.001Z</time></trkpt><trkpt lat="44.060744298281854" lon="10.298829043582064"><ele>709.0</ele><time>2026-05-02T08:32:57.001Z</time></trkpt><trkpt lat="44.06075505000772" lon="10.298957552979761"><ele>709.0</ele><time>2026-05-02T08:32:58.001Z</time></trkpt><trkpt lat="44.06076207641479" lon="10.299081132366629"><ele>709.0</ele><time>2026-05-02T08:32:59.001Z</time></trkpt><trkpt lat="44.06079184968218" lon="10.29916173778032"><ele>709.0</ele><time>2026-05-02T08:33:00.001Z</time></trkpt><trkpt lat="44.060836917869835" lon="10.299308846318917"><ele>709.0</ele><time>2026-05-02T08:33:02.001Z</time></trkpt><trkpt lat="44.06082665735162" lon="10.299410298605066"><ele>709.0</ele><time>2026-05-02T08:33:03.001Z</time></trkpt><trkpt lat="44.06080924502633" lon="10.299558788829934"><ele>709.0</ele><time>2026-05-02T08:33:04.001Z</time></trkpt><trkpt lat="44.060742511352856" lon="10.299675214961091"><ele>709.0</ele><time>2026-05-02T08:33:05.001Z</time></trkpt><trkpt lat="44.06065806414072" lon="10.29977485819684"><ele>709.0</ele><time>2026-05-02T08:33:06.001Z</time></trkpt><trkpt lat="44.06057123407104" lon="10.29986314777904"><ele>709.0</ele><time>2026-05-02T08:33:07.001Z</time></trkpt><trkpt lat="44.060468103606404" lon="10.299976130799566"><ele>707.5</ele><time>2026-05-02T08:33:08.001Z</time></trkpt><trkpt lat="44.06036548546374" lon="10.300052538495155"><ele>706.0</ele><time>2026-05-02T08:33:09.001Z</time></trkpt><trkpt lat="44.0609630590871" lon="10.300540924784972"><ele>703.25</ele><time>2026-05-02T08:33:10.001Z</time></trkpt><trkpt lat="44.06089564669228" lon="10.300644111020254"><ele>700.5</ele><time>2026-05-02T08:33:11.001Z</time></trkpt><trkpt lat="44.06079754225667" lon="10.300733064589373"><ele>697.75</ele><time>2026-05-02T08:33:12.001Z</time></trkpt><trkpt lat="44.06068889518674" lon="10.300953375979113"><ele>695.0</ele><time>2026-05-02T08:33:14.001Z</time></trkpt><trkpt lat="44.060666023538424" lon="10.3010746298128"><ele>695.0</ele><time>2026-05-02T08:33:15.001Z</time></trkpt><trkpt lat="44.060642387704924" lon="10.301213261199038"><ele>695.0</ele><time>2026-05-02T08:33:16.001Z</time></trkpt><trkpt lat="44.060638703521406" lon="10.30135346130379"><ele>695.0</ele><time>2026-05-02T08:33:17.001Z</time></trkpt><trkpt lat="44.06062046152491" lon="10.301506125392383"><ele>695.0</ele><time>2026-05-02T08:33:18.001Z</time></trkpt><trkpt lat="44.0605692234416" lon="10.301652382919912"><ele>695.0</ele><time>2026-05-02T08:33:19.001Z</time></trkpt><trkpt lat="44.06053712542794" lon="10.3017919494484"><ele>691.6</ele><time>2026-05-02T08:33:20.001Z</time></trkpt><trkpt lat="44.060499092662766" lon="10.301931014003532"><ele>688.2</ele><time>2026-05-02T08:33:21.001Z</time></trkpt><trkpt lat="44.06050093395435" lon="10.302086589670619"><ele>684.8</ele><time>2026-05-02T08:33:22.001Z</time></trkpt><trkpt lat="44.06052067969409" lon="10.302238415153358"><ele>681.4</ele><time>2026-05-02T08:33:23.001Z</time></trkpt><trkpt lat="44.06053742266247" lon="10.302384029395812"><ele>678.0</ele><time>2026-05-02T08:33:24.001Z</time></trkpt><trkpt lat="44.060564794967895" lon="10.302531574294326"><ele>675.4</ele><time>2026-05-02T08:33:25.001Z</time></trkpt><trkpt lat="44.06059176831448" lon="10.302680879965497"><ele>672.8</ele><time>2026-05-02T08:33:26.001Z</time></trkpt><trkpt lat="44.06061822284045" lon="10.302827231786644"><ele>670.2</ele><time>2026-05-02T08:33:27.001Z</time></trkpt><trkpt lat="44.06066662494113" lon="10.302975560281618"><ele>667.6</ele><time>2026-05-02T08:33:28.001Z</time></trkpt><trkpt lat="44.06070664405465" lon="10.3031149651652"><ele>665.0</ele><time>2026-05-02T08:33:29.001Z</time></trkpt><trkpt lat="44.06074788596515" lon="10.30324303369637"><ele>658.8333333333333</ele><time>2026-05-02T08:33:30.001Z</time></trkpt><trkpt lat="44.06078579592223" lon="10.303340952798608"><ele>652.6666666666666</ele><time>2026-05-02T08:33:31.001Z</time></trkpt><trkpt lat="44.06083871767342" lon="10.303432106916178"><ele>646.5</ele><time>2026-05-02T08:33:32.001Z</time></trkpt><trkpt lat="44.06087368970729" lon="10.303521056508098"><ele>640.3333333333334</ele><time>2026-05-02T08:33:33.001Z</time></trkpt><trkpt lat="44.0609054665923" lon="10.303632056027123"><ele>634.1666666666667</ele><time>2026-05-02T08:33:34.001Z</time></trkpt><trkpt lat="44.06093982256724" lon="10.303726130688357"><ele>628.0</ele><time>2026-05-02T08:33:35.001Z</time></trkpt><trkpt lat="44.06096461194342" lon="10.303848006197471"><ele>625.5</ele><time>2026-05-02T08:33:36.001Z</time></trkpt><trkpt lat="44.06098130394194" lon="10.30396756998404"><ele>623.0</ele><time>2026-05-02T08:33:37.001Z</time></trkpt><trkpt lat="44.060982412740344" lon="10.304088147406492"><ele>620.5</ele><time>2026-05-02T08:33:38.001Z</time></trkpt><trkpt lat="44.06096719163593" lon="10.304192347369227"><ele>618.0</ele><time>2026-05-02T08:33:39.001Z</time></trkpt><trkpt lat="44.06093934735368" lon="10.304292489034435"><ele>615.5</ele><time>2026-05-02T08:33:40.001Z</time></trkpt><trkpt lat="44.06090144506369" lon="10.304382952890707"><ele>613.0</ele><time>2026-05-02T08:33:41.001Z</time></trkpt><trkpt lat="44.060845796309366" lon="10.304520627491897"><ele>613.0</ele><time>2026-05-02T08:33:43.001Z</time></trkpt><trkpt lat="44.06083158146347" lon="10.304685924096583"><ele>613.0</ele><time>2026-05-02T08:33:45.001Z</time></trkpt><trkpt lat="44.06085489726611" lon="10.304779229058337"><ele>613.0</ele><time>2026-05-02T08:33:46.001Z</time></trkpt><trkpt lat="44.060903973457386" lon="10.304879122211908"><ele>613.0</ele><time>2026-05-02T08:33:47.001Z</time></trkpt><trkpt lat="44.06096443082915" lon="10.304976486892778"><ele>613.0</ele><time>2026-05-02T08:33:48.001Z</time></trkpt><trkpt lat="44.06101698493797" lon="10.305083902475689"><ele>610.4</ele><time>2026-05-02T08:33:49.001Z</time></trkpt><trkpt lat="44.061055558875225" lon="10.30522136110799"><ele>607.8</ele><time>2026-05-02T08:33:50.001Z</time></trkpt><trkpt lat="44.06108440105154" lon="10.305352645639442"><ele>605.2</ele><time>2026-05-02T08:33:51.001Z</time></trkpt><trkpt lat="44.06111106604743" lon="10.305487597422873"><ele>602.6</ele><time>2026-05-02T08:33:52.001Z</time></trkpt><trkpt lat="44.06113263927804" lon="10.305613943771752"><ele>600.0</ele><time>2026-05-02T08:33:53.001Z</time></trkpt><trkpt lat="44.061159994903335" lon="10.305739318722706"><ele>598.6</ele><time>2026-05-02T08:33:54.001Z</time></trkpt><trkpt lat="44.06115461423299" lon="10.305878834034784"><ele>597.2</ele><time>2026-05-02T08:33:55.001Z</time></trkpt><trkpt lat="44.06112993734688" lon="10.306011523702361"><ele>595.8</ele><time>2026-05-02T08:33:56.001Z</time></trkpt><trkpt lat="44.06110187899001" lon="10.306136844368456"><ele>594.4</ele><time>2026-05-02T08:33:57.001Z</time></trkpt><trkpt lat="44.0610519276325" lon="10.306241174070434"><ele>593.0</ele><time>2026-05-02T08:33:58.001Z</time></trkpt><trkpt lat="44.06102939978301" lon="10.30636818973505"><ele>592.1999999999999</ele><time>2026-05-02T08:33:59.001Z</time></trkpt><trkpt lat="44.06099648886058" lon="10.306480728241862"><ele>591.4</ele><time>2026-05-02T08:34:00.001Z</time></trkpt><trkpt lat="44.06098166332882" lon="10.30660592076736"><ele>590.5999999999999</ele><time>2026-05-02T08:34:01.001Z</time></trkpt><trkpt lat="44.0610042645556" lon="10.306752705775843"><ele>589.8</ele><time>2026-05-02T08:34:02.001Z</time></trkpt><trkpt lat="44.061018071613695" lon="10.306903882645289"><ele>589.0</ele><time>2026-05-02T08:34:03.001Z</time></trkpt><trkpt lat="44.06102693666281" lon="10.307054159311068"><ele>589.0</ele><time>2026-05-02T08:34:04.001Z</time></trkpt><trkpt lat="44.0610391612151" lon="10.307192080240245"><ele>589.0</ele><time>2026-05-02T08:34:05.001Z</time></trkpt><trkpt lat="44.06105225688542" lon="10.307333734644917"><ele>589.0</ele><time>2026-05-02T08:34:06.001Z</time></trkpt><trkpt lat="44.061076230477205" lon="10.307470637596829"><ele>589.0</ele><time>2026-05-02T08:34:07.001Z</time></trkpt><trkpt lat="44.06112029557757" lon="10.307601250840634"><ele>589.0</ele><time>2026-05-02T08:34:08.001Z</time></trkpt><trkpt lat="44.061138290054764" lon="10.307736313077056"><ele>588.2</ele><time>2026-05-02T08:34:09.001Z</time></trkpt><trkpt lat="44.06114579308285" lon="10.307866500517996"><ele>587.4</ele><time>2026-05-02T08:34:10.001Z</time></trkpt><trkpt lat="44.06115146416724" lon="10.308001921092625"><ele>586.6</ele><time>2026-05-02T08:34:11.001Z</time></trkpt><trkpt lat="44.06117786939604" lon="10.308125200770824"><ele>585.8</ele><time>2026-05-02T08:34:12.001Z</time></trkpt><trkpt lat="44.061231071083554" lon="10.308262087974187"><ele>585.0</ele><time>2026-05-02T08:34:13.001Z</time></trkpt><trkpt lat="44.06126454880207" lon="10.308411750039872"><ele>583.5</ele><time>2026-05-02T08:34:14.001Z</time></trkpt><trkpt lat="44.06132010537884" lon="10.308531137184058"><ele>582.0</ele><time>2026-05-02T08:34:16.001Z</time></trkpt><trkpt lat="44.061379663443205" lon="10.308592352743167"><ele>580.5</ele><time>2026-05-02T08:34:17.001Z</time></trkpt><trkpt lat="44.06146959213025" lon="10.308667387912424"><ele>579.0</ele><time>2026-05-02T08:34:19.001Z</time></trkpt><trkpt lat="44.06153096974355" lon="10.308718249279023"><ele>577.5</ele><time>2026-05-02T08:34:20.001Z</time></trkpt><trkpt lat="44.06159837148464" lon="10.308755283562505"><ele>576.0</ele><time>2026-05-02T08:34:21.001Z</time></trkpt><trkpt lat="44.06174443744604" lon="10.308776627970417"><ele>575.2</ele><time>2026-05-02T08:34:22.001Z</time></trkpt><trkpt lat="44.061811636906164" lon="10.308882289306927"><ele>574.4000000000001</ele><time>2026-05-02T08:34:23.001Z</time></trkpt><trkpt lat="44.06187986833732" lon="10.308962770207556"><ele>573.6</ele><time>2026-05-02T08:34:24.001Z</time></trkpt><trkpt lat="44.06195195405581" lon="10.30904045324358"><ele>572.8000000000001</ele><time>2026-05-02T08:34:25.001Z</time></trkpt><trkpt lat="44.06203798812005" lon="10.309137606053351"><ele>572.0</ele><time>2026-05-02T08:34:26.001Z</time></trkpt><trkpt lat="44.06212294859332" lon="10.3092163825882"><ele>572.0</ele><time>2026-05-02T08:34:27.001Z</time></trkpt><trkpt lat="44.062210438694905" lon="10.309315751141297"><ele>572.0</ele><time>2026-05-02T08:34:28.001Z</time></trkpt><trkpt lat="44.06228692218316" lon="10.309417246984001"><ele>572.0</ele><time>2026-05-02T08:34:29.001Z</time></trkpt><trkpt lat="44.06236456845006" lon="10.30951001286721"><ele>572.0</ele><time>2026-05-02T08:34:30.001Z</time></trkpt><trkpt lat="44.06243834068414" lon="10.30958366502013"><ele>572.0</ele><time>2026-05-02T08:34:31.001Z</time></trkpt><trkpt lat="44.06250759556907" lon="10.309651225328226"><ele>572.2</ele><time>2026-05-02T08:34:32.001Z</time></trkpt><trkpt lat="44.06256599772566" lon="10.309709101863332"><ele>572.4000000000001</ele><time>2026-05-02T08:34:33.001Z</time></trkpt><trkpt lat="44.062643038986074" lon="10.309718464835653"><ele>572.5999999999999</ele><time>2026-05-02T08:34:34.001Z</time></trkpt><trkpt lat="44.062767407963264" lon="10.309748497156281"><ele>572.8</ele><time>2026-05-02T08:34:36.001Z</time></trkpt><trkpt lat="44.06284655769209" lon="10.309811325369553"><ele>573.0</ele><time>2026-05-02T08:34:37.001Z</time></trkpt><trkpt lat="44.06291236293566" lon="10.309887556364524"><ele>573.0</ele><time>2026-05-02T08:34:38.001Z</time></trkpt><trkpt lat="44.06296010603002" lon="10.309959313698117"><ele>573.0</ele><time>2026-05-02T08:34:39.001Z</time></trkpt><trkpt lat="44.063011154640236" lon="10.310030922376852"><ele>573.0</ele><time>2026-05-02T08:34:40.001Z</time></trkpt><trkpt lat="44.06307845318578" lon="10.310098326881787"><ele>573.0</ele><time>2026-05-02T08:34:41.001Z</time></trkpt><trkpt lat="44.06314636666078" lon="10.310155935375214"><ele>573.0</ele><time>2026-05-02T08:34:42.001Z</time></trkpt><trkpt lat="44.06323181807999" lon="10.31019035397804"><ele>573.0</ele><time>2026-05-02T08:34:43.001Z</time></trkpt><trkpt lat="44.06333057724695" lon="10.310222591927106"><ele>570.6</ele><time>2026-05-02T08:34:44.001Z</time></trkpt><trkpt lat="44.06341734381375" lon="10.310285323249923"><ele>568.1999999999999</ele><time>2026-05-02T08:34:45.001Z</time></trkpt><trkpt lat="44.06349592349101" lon="10.310368411125866"><ele>565.8</ele><time>2026-05-02T08:34:46.001Z</time></trkpt><trkpt lat="44.06357144641564" lon="10.310444754448755"><ele>563.4</ele><time>2026-05-02T08:34:47.001Z</time></trkpt><trkpt lat="44.06365349672926" lon="10.310516104222224"><ele>561.0</ele><time>2026-05-02T08:34:48.001Z</time></trkpt><trkpt lat="44.06372887828685" lon="10.310612027098514"><ele>561.0</ele><time>2026-05-02T08:34:49.001Z</time></trkpt><trkpt lat="44.06380032598246" lon="10.310700264038394"><ele>561.0</ele><time>2026-05-02T08:34:50.001Z</time></trkpt><trkpt lat="44.063869732253934" lon="10.31077184982942"><ele>561.0</ele><time>2026-05-02T08:34:51.001Z</time></trkpt><trkpt lat="44.063931432109776" lon="10.310858350727804"><ele>561.0</ele><time>2026-05-02T08:34:52.001Z</time></trkpt><trkpt lat="44.06398304570193" lon="10.310926898966162"><ele>561.0</ele><time>2026-05-02T08:34:53.001Z</time></trkpt><trkpt lat="44.06401608784779" lon="10.311029641699873"><ele>561.0</ele><time>2026-05-02T08:34:54.001Z</time></trkpt><trkpt lat="44.064045388627484" lon="10.311123634881348"><ele>561.0</ele><time>2026-05-02T08:34:55.001Z</time></trkpt><trkpt lat="44.06407652131373" lon="10.311213059358595"><ele>561.0</ele><time>2026-05-02T08:34:56.001Z</time></trkpt><trkpt lat="44.064107122721445" lon="10.311298667279516"><ele>561.0</ele><time>2026-05-02T08:34:57.001Z</time></trkpt><trkpt lat="44.06414587771403" lon="10.31137787013695"><ele>561.0</ele><time>2026-05-02T08:34:58.001Z</time></trkpt><trkpt lat="44.0641843132332" lon="10.311453330334793"><ele>561.0</ele><time>2026-05-02T08:34:59.001Z</time></trkpt><trkpt lat="44.06422651114504" lon="10.311533810181208"><ele>561.0</ele><time>2026-05-02T08:35:00.001Z</time></trkpt><trkpt lat="44.06426574615246" lon="10.311618628350944"><ele>561.0</ele><time>2026-05-02T08:35:01.001Z</time></trkpt><trkpt lat="44.064308547936136" lon="10.311706535245138"><ele>561.0</ele><time>2026-05-02T08:35:02.001Z</time></trkpt><trkpt lat="44.06433923565323" lon="10.311794252776618"><ele>561.0</ele><time>2026-05-02T08:35:03.001Z</time></trkpt><trkpt lat="44.064379175917914" lon="10.31186896018721"><ele>561.0</ele><time>2026-05-02T08:35:04.001Z</time></trkpt><trkpt lat="44.06448526168948" lon="10.31197009577389"><ele>561.0</ele><time>2026-05-02T08:35:06.001Z</time></trkpt><trkpt lat="44.064550858390646" lon="10.311985019060698"><ele>561.0</ele><time>2026-05-02T08:35:07.001Z</time></trkpt><trkpt lat="44.06462991837819" lon="10.31199379176515"><ele>561.0</ele><time>2026-05-02T08:35:08.001Z</time></trkpt><trkpt lat="44.064714027671116" lon="10.312001783637939"><ele>561.0</ele><time>2026-05-02T08:35:09.001Z</time></trkpt><trkpt lat="44.06480050904077" lon="10.312008767229514"><ele>561.0</ele><time>2026-05-02T08:35:10.001Z</time></trkpt><trkpt lat="44.06488567227445" lon="10.31198443111406"><ele>561.0</ele><time>2026-05-02T08:35:11.001Z</time></trkpt><trkpt lat="44.064962928519066" lon="10.311936018685223"><ele>561.0</ele><time>2026-05-02T08:35:12.001Z</time></trkpt><trkpt lat="44.06504012573195" lon="10.31186757762077"><ele>561.0</ele><time>2026-05-02T08:35:13.001Z</time></trkpt><trkpt lat="44.06511581387892" lon="10.311798186614263"><ele>561.0</ele><time>2026-05-02T08:35:14.001Z</time></trkpt><trkpt lat="44.06519675042869" lon="10.311732022261182"><ele>564.3333333333334</ele><time>2026-05-02T08:35:15.001Z</time></trkpt><trkpt lat="44.06527796627861" lon="10.311655566438294"><ele>567.6666666666666</ele><time>2026-05-02T08:35:16.001Z</time></trkpt><trkpt lat="44.06536628635658" lon="10.311619930208034"><ele>571.0</ele><time>2026-05-02T08:35:17.001Z</time></trkpt><trkpt lat="44.065441093244466" lon="10.311578767072962"><ele>574.3333333333333</ele><time>2026-05-02T08:35:18.001Z</time></trkpt><trkpt lat="44.06552246559365" lon="10.31154905409421"><ele>577.6666666666666</ele><time>2026-05-02T08:35:19.001Z</time></trkpt><trkpt lat="44.06561414610883" lon="10.311517830419763"><ele>581.0</ele><time>2026-05-02T08:35:20.001Z</time></trkpt><trkpt lat="44.065687357282556" lon="10.31148547139849"><ele>581.0</ele><time>2026-05-02T08:35:21.001Z</time></trkpt><trkpt lat="44.06574667947689" lon="10.311443448458627"><ele>581.0</ele><time>2026-05-02T08:35:22.001Z</time></trkpt><trkpt lat="44.06584878694788" lon="10.311342951417835"><ele>581.0</ele><time>2026-05-02T08:35:24.001Z</time></trkpt><trkpt lat="44.0659326362029" lon="10.311253042482567"><ele>581.0</ele><time>2026-05-02T08:35:26.001Z</time></trkpt><trkpt lat="44.06601987306396" lon="10.311180650390565"><ele>581.0</ele><time>2026-05-02T08:35:28.001Z</time></trkpt><trkpt lat="44.06613294721606" lon="10.311151476137816"><ele>579.8571428571429</ele><time>2026-05-02T08:35:30.001Z</time></trkpt><trkpt lat="44.066196301637824" lon="10.311164461564903"><ele>578.7142857142858</ele><time>2026-05-02T08:35:31.001Z</time></trkpt><trkpt lat="44.06625671213248" lon="10.311189249368086"><ele>577.5714285714286</ele><time>2026-05-02T08:35:32.001Z</time></trkpt><trkpt lat="44.06632485669417" lon="10.311236697024352"><ele>576.4285714285714</ele><time>2026-05-02T08:35:33.001Z</time></trkpt><trkpt lat="44.06637504916576" lon="10.311293663487161"><ele>575.2857142857143</ele><time>2026-05-02T08:35:34.001Z</time></trkpt><trkpt lat="44.06641697048953" lon="10.31137779335586"><ele>574.1428571428571</ele><time>2026-05-02T08:35:35.001Z</time></trkpt><trkpt lat="44.06645083159682" lon="10.311475655985946"><ele>573.0</ele><time>2026-05-02T08:35:36.001Z</time></trkpt><trkpt lat="44.06646652065207" lon="10.31158547516674"><ele>573.0</ele><time>2026-05-02T08:35:37.001Z</time></trkpt><trkpt lat="44.06645639869378" lon="10.311713793632524"><ele>573.0</ele><time>2026-05-02T08:35:38.001Z</time></trkpt><trkpt lat="44.06643025020971" lon="10.311850302527684"><ele>573.0</ele><time>2026-05-02T08:35:39.001Z</time></trkpt><trkpt lat="44.06639251323676" lon="10.31199554362094"><ele>573.0</ele><time>2026-05-02T08:35:40.001Z</time></trkpt><trkpt lat="44.06633059151316" lon="10.312134579603885"><ele>573.0</ele><time>2026-05-02T08:35:41.001Z</time></trkpt><trkpt lat="44.0662702953199" lon="10.31227134718068"><ele>571.1999999999999</ele><time>2026-05-02T08:35:42.001Z</time></trkpt><trkpt lat="44.06621402867043" lon="10.312407207656006"><ele>569.4</ele><time>2026-05-02T08:35:43.001Z</time></trkpt><trkpt lat="44.066146080268354" lon="10.312537948547716"><ele>567.5999999999999</ele><time>2026-05-02T08:35:44.001Z</time></trkpt><trkpt lat="44.066092446976796" lon="10.312648663981241"><ele>565.8</ele><time>2026-05-02T08:35:45.001Z</time></trkpt><trkpt lat="44.06605127794539" lon="10.312772706556169"><ele>564.0</ele><time>2026-05-02T08:35:46.001Z</time></trkpt><trkpt lat="44.06602262984228" lon="10.312905150045767"><ele>564.0</ele><time>2026-05-02T08:35:47.001Z</time></trkpt><trkpt lat="44.065970232702746" lon="10.313022696686993"><ele>564.0</ele><time>2026-05-02T08:35:48.001Z</time></trkpt><trkpt lat="44.06594618082248" lon="10.313170110841595"><ele>564.0</ele><time>2026-05-02T08:35:49.001Z</time></trkpt><trkpt lat="44.065953596946606" lon="10.313294745981512"><ele>564.0</ele><time>2026-05-02T08:35:50.001Z</time></trkpt><trkpt lat="44.06593226172116" lon="10.313389543977477"><ele>564.0</ele><time>2026-05-02T08:35:51.001Z</time></trkpt><trkpt lat="44.065926560947666" lon="10.313491426890836"><ele>564.0</ele><time>2026-05-02T08:35:52.001Z</time></trkpt><trkpt lat="44.06592951534232" lon="10.313628432577989"><ele>563.0</ele><time>2026-05-02T08:35:54.001Z</time></trkpt><trkpt lat="44.06599186022725" lon="10.313713796012166"><ele>562.0</ele><time>2026-05-02T08:35:57.001Z</time></trkpt><trkpt lat="44.06601433131567" lon="10.313815537168521"><ele>561.0</ele><time>2026-05-02T08:35:58.001Z</time></trkpt><trkpt lat="44.066269600097876" lon="10.313959152273117"><ele>560.0</ele><time>2026-05-02T08:35:59.001Z</time></trkpt><trkpt lat="44.06631549623513" lon="10.314064138640857"><ele>557.3333333333333</ele><time>2026-05-02T08:36:00.001Z</time></trkpt><trkpt lat="44.06633992660662" lon="10.314182245630045"><ele>554.6666666666666</ele><time>2026-05-02T08:36:01.001Z</time></trkpt><trkpt lat="44.06633352174715" lon="10.31429639679289"><ele>552.0</ele><time>2026-05-02T08:36:02.001Z</time></trkpt><trkpt lat="44.06630282586192" lon="10.314404085212855"><ele>549.3333333333334</ele><time>2026-05-02T08:36:03.001Z</time></trkpt><trkpt lat="44.06628707132745" lon="10.314508787175258"><ele>546.6666666666667</ele><time>2026-05-02T08:36:04.001Z</time></trkpt><trkpt lat="44.066300548626025" lon="10.314630050637215"><ele>544.0</ele><time>2026-05-02T08:36:05.001Z</time></trkpt><trkpt lat="44.06632886087439" lon="10.314747341725692"><ele>542.0</ele><time>2026-05-02T08:36:06.001Z</time></trkpt><trkpt lat="44.06636397936232" lon="10.314871209291304"><ele>540.0</ele><time>2026-05-02T08:36:07.001Z</time></trkpt><trkpt lat="44.06639535750698" lon="10.314989590655246"><ele>538.0</ele><time>2026-05-02T08:36:08.001Z</time></trkpt><trkpt lat="44.066425959048985" lon="10.315102581432585"><ele>536.0</ele><time>2026-05-02T08:36:09.001Z</time></trkpt><trkpt lat="44.066455278606824" lon="10.31520989964652"><ele>534.0</ele><time>2026-05-02T08:36:10.001Z</time></trkpt><trkpt lat="44.06645779489648" lon="10.315325261518469"><ele>532.0</ele><time>2026-05-02T08:36:11.001Z</time></trkpt><trkpt lat="44.066426713989436" lon="10.315440906874791"><ele>532.0</ele><time>2026-05-02T08:36:12.001Z</time></trkpt><trkpt lat="44.06638857249279" lon="10.315548682957175"><ele>532.0</ele><time>2026-05-02T08:36:13.001Z</time></trkpt><trkpt lat="44.066325711016724" lon="10.315640804598043"><ele>532.0</ele><time>2026-05-02T08:36:14.001Z</time></trkpt><trkpt lat="44.06627120930722" lon="10.315734203780352"><ele>532.0</ele><time>2026-05-02T08:36:15.001Z</time></trkpt><trkpt lat="44.06622536186397" lon="10.315851673747119"><ele>532.0</ele><time>2026-05-02T08:36:16.001Z</time></trkpt><trkpt lat="44.066183364857025" lon="10.315970945151026"><ele>531.8000000000001</ele><time>2026-05-02T08:36:17.001Z</time></trkpt><trkpt lat="44.06613259071877" lon="10.316086851012184"><ele>531.6</ele><time>2026-05-02T08:36:18.001Z</time></trkpt><trkpt lat="44.066046484470064" lon="10.31618135813602"><ele>531.4000000000001</ele><time>2026-05-02T08:36:19.001Z</time></trkpt><trkpt lat="44.06597512856919" lon="10.316279784099997"><ele>531.2</ele><time>2026-05-02T08:36:20.001Z</time></trkpt><trkpt lat="44.06587654959441" lon="10.316375752046104"><ele>531.0</ele><time>2026-05-02T08:36:21.001Z</time></trkpt><trkpt lat="44.06576020337587" lon="10.316456877704082"><ele>530.4</ele><time>2026-05-02T08:36:22.001Z</time></trkpt><trkpt lat="44.0656738237679" lon="10.316543712273598"><ele>529.8</ele><time>2026-05-02T08:36:23.001Z</time></trkpt><trkpt lat="44.06558913101292" lon="10.316630833234589"><ele>529.1999999999999</ele><time>2026-05-02T08:36:24.001Z</time></trkpt><trkpt lat="44.06550256149863" lon="10.316719049437285"><ele>528.6</ele><time>2026-05-02T08:36:25.001Z</time></trkpt><trkpt lat="44.065433288469336" lon="10.316821206835055"><ele>528.0</ele><time>2026-05-02T08:36:26.001Z</time></trkpt><trkpt lat="44.06538972593706" lon="10.316945306603161"><ele>528.0</ele><time>2026-05-02T08:36:27.001Z</time></trkpt><trkpt lat="44.06536210589571" lon="10.317078636493674"><ele>528.0</ele><time>2026-05-02T08:36:28.001Z</time></trkpt><trkpt lat="44.06535439412455" lon="10.31722403211048"><ele>528.0</ele><time>2026-05-02T08:36:29.001Z</time></trkpt><trkpt lat="44.065361240245494" lon="10.317368287096873"><ele>528.0</ele><time>2026-05-02T08:36:30.001Z</time></trkpt><trkpt lat="44.06536646044482" lon="10.317509998791895"><ele>528.0</ele><time>2026-05-02T08:36:31.001Z</time></trkpt><trkpt lat="44.065377561772124" lon="10.317643249956873"><ele>528.4</ele><time>2026-05-02T08:36:32.001Z</time></trkpt><trkpt lat="44.06538362869966" lon="10.317770095068909"><ele>528.8</ele><time>2026-05-02T08:36:33.001Z</time></trkpt><trkpt lat="44.06536993942427" lon="10.317918291836122"><ele>529.2</ele><time>2026-05-02T08:36:34.001Z</time></trkpt><trkpt lat="44.06533604316223" lon="10.318058272105095"><ele>529.6</ele><time>2026-05-02T08:36:35.001Z</time></trkpt><trkpt lat="44.065289676792325" lon="10.318188360448865"><ele>530.0</ele><time>2026-05-02T08:36:36.001Z</time></trkpt><trkpt lat="44.06523889360326" lon="10.318321732871507"><ele>530.4</ele><time>2026-05-02T08:36:37.001Z</time></trkpt><trkpt lat="44.06518589439624" lon="10.318441822379457"><ele>530.8</ele><time>2026-05-02T08:36:38.001Z</time></trkpt><trkpt lat="44.06513060270478" lon="10.318526630651109"><ele>531.2</ele><time>2026-05-02T08:36:39.001Z</time></trkpt><trkpt lat="44.06509686856287" lon="10.31864320444362"><ele>531.6</ele><time>2026-05-02T08:36:40.001Z</time></trkpt><trkpt lat="44.06509813749027" lon="10.318780234547251"><ele>532.0</ele><time>2026-05-02T08:36:41.001Z</time></trkpt><trkpt lat="44.065103977559545" lon="10.31891338705799"><ele>533.2</ele><time>2026-05-02T08:36:42.001Z</time></trkpt><trkpt lat="44.065102516049365" lon="10.319047730365094"><ele>534.4000000000001</ele><time>2026-05-02T08:36:43.001Z</time></trkpt><trkpt lat="44.065089457604365" lon="10.31918216380223"><ele>535.5999999999999</ele><time>2026-05-02T08:36:44.001Z</time></trkpt><trkpt lat="44.0650902109674" lon="10.319319455143027"><ele>536.8</ele><time>2026-05-02T08:36:45.001Z</time></trkpt><trkpt lat="44.065104088606866" lon="10.319461057058227"><ele>538.0</ele><time>2026-05-02T08:36:46.001Z</time></trkpt><trkpt lat="44.0651080355033" lon="10.3196018580841"><ele>537.4</ele><time>2026-05-02T08:36:47.001Z</time></trkpt><trkpt lat="44.06512295737069" lon="10.319756795826244"><ele>536.8</ele><time>2026-05-02T08:36:48.001Z</time></trkpt><trkpt lat="44.06514500005203" lon="10.319904792207376"><ele>536.2</ele><time>2026-05-02T08:36:49.001Z</time></trkpt><trkpt lat="44.06516288419315" lon="10.320051545922318"><ele>535.6</ele><time>2026-05-02T08:36:50.001Z</time></trkpt><trkpt lat="44.065187597356946" lon="10.32019355178773"><ele>535.0</ele><time>2026-05-02T08:36:51Z</time></trkpt><trkpt lat="44.06522370107935" lon="10.320328847779496"><ele>535.0</ele><time>2026-05-02T08:36:52Z</time></trkpt><trkpt lat="44.06526261741782" lon="10.32045887720339"><ele>535.0</ele><time>2026-05-02T08:36:53Z</time></trkpt><trkpt lat="44.065283526748445" lon="10.320606273143039"><ele>535.0</ele><time>2026-05-02T08:36:54Z</time></trkpt><trkpt lat="44.06529494512857" lon="10.32075134977359"><ele>535.0</ele><time>2026-05-02T08:36:55Z</time></trkpt><trkpt lat="44.065298504318406" lon="10.320896610380585"><ele>535.0</ele><time>2026-05-02T08:36:56Z</time></trkpt><trkpt lat="44.06527197505145" lon="10.32103432196949"><ele>534.6</ele><time>2026-05-02T08:36:57Z</time></trkpt><trkpt lat="44.06529173885363" lon="10.321163004049964"><ele>534.2</ele><time>2026-05-02T08:36:58Z</time></trkpt><trkpt lat="44.06529689052642" lon="10.32130277927821"><ele>533.8</ele><time>2026-05-02T08:37:00Z</time></trkpt><trkpt lat="44.0653292181376" lon="10.32148882092151"><ele>533.4</ele><time>2026-05-02T08:37:02Z</time></trkpt><trkpt lat="44.06535740107736" lon="10.321577631030324"><ele>533.0</ele><time>2026-05-02T08:37:03Z</time></trkpt><trkpt lat="44.0654538907507" lon="10.321661406168888"><ele>533.0</ele><time>2026-05-02T08:37:04Z</time></trkpt><trkpt lat="44.06554527307149" lon="10.321790073992927"><ele>533.0</ele><time>2026-05-02T08:37:05Z</time></trkpt><trkpt lat="44.06561472724177" lon="10.321879982087054"><ele>533.0</ele><time>2026-05-02T08:37:06Z</time></trkpt><trkpt lat="44.06567766245659" lon="10.322009215423813"><ele>533.0</ele><time>2026-05-02T08:37:07Z</time></trkpt><trkpt lat="44.065620386162905" lon="10.322420344754267"><ele>530.4</ele><time>2026-05-02T08:37:08Z</time></trkpt><trkpt lat="44.06566854569442" lon="10.322506192508184"><ele>527.8</ele><time>2026-05-02T08:37:09Z</time></trkpt><trkpt lat="44.065673274794904" lon="10.322645904748759"><ele>525.2</ele><time>2026-05-02T08:37:10Z</time></trkpt><trkpt lat="44.06574321576708" lon="10.3227335728372"><ele>522.6</ele><time>2026-05-02T08:37:11Z</time></trkpt><trkpt lat="44.065817046219884" lon="10.322833937727065"><ele>520.0</ele><time>2026-05-02T08:37:12Z</time></trkpt><trkpt lat="44.065878327306265" lon="10.322932702668991"><ele>520.0</ele><time>2026-05-02T08:37:13Z</time></trkpt><trkpt lat="44.06595183900465" lon="10.323034279063496"><ele>520.0</ele><time>2026-05-02T08:37:14Z</time></trkpt><trkpt lat="44.06602167463096" lon="10.323144515187513"><ele>520.0</ele><time>2026-05-02T08:37:15Z</time></trkpt><trkpt lat="44.06609577466267" lon="10.323257431743897"><ele>520.0</ele><time>2026-05-02T08:37:16Z</time></trkpt><trkpt lat="44.066190101651905" lon="10.323349644502002"><ele>520.0</ele><time>2026-05-02T08:37:17Z</time></trkpt><trkpt lat="44.06628641943431" lon="10.323424495023398"><ele>520.0</ele><time>2026-05-02T08:37:18Z</time></trkpt><trkpt lat="44.066391626942966" lon="10.323473724372473"><ele>520.0</ele><time>2026-05-02T08:37:19Z</time></trkpt><trkpt lat="44.06649453957336" lon="10.323510845634027"><ele>520.0</ele><time>2026-05-02T08:37:20Z</time></trkpt><trkpt lat="44.06659546965315" lon="10.323548721536365"><ele>520.0</ele><time>2026-05-02T08:37:21Z</time></trkpt><trkpt lat="44.066686834338476" lon="10.323573081999408"><ele>520.0</ele><time>2026-05-02T08:37:22Z</time></trkpt><trkpt lat="44.0667977321674" lon="10.323587912114347"><ele>520.0</ele><time>2026-05-02T08:37:23Z</time></trkpt><trkpt lat="44.06690559335898" lon="10.323591275290623"><ele>520.0</ele><time>2026-05-02T08:37:24Z</time></trkpt><trkpt lat="44.06701332387309" lon="10.323592671762382"><ele>520.0</ele><time>2026-05-02T08:37:25Z</time></trkpt><trkpt lat="44.06712248352057" lon="10.323580885479872"><ele>520.0</ele><time>2026-05-02T08:37:26Z</time></trkpt><trkpt lat="44.067234631334046" lon="10.323585812152515"><ele>520.0</ele><time>2026-05-02T08:37:27Z</time></trkpt><trkpt lat="44.06734202833515" lon="10.323569805103407"><ele>521.6</ele><time>2026-05-02T08:37:28Z</time></trkpt><trkpt lat="44.06744580517874" lon="10.323571330856472"><ele>523.2</ele><time>2026-05-02T08:37:29Z</time></trkpt><trkpt lat="44.06754152524526" lon="10.32354214154632"><ele>524.8</ele><time>2026-05-02T08:37:30Z</time></trkpt><trkpt lat="44.06763789685869" lon="10.323502053985294"><ele>526.4</ele><time>2026-05-02T08:37:31Z</time></trkpt><trkpt lat="44.067732727962046" lon="10.323482466644185"><ele>528.0</ele><time>2026-05-02T08:37:32Z</time></trkpt><trkpt lat="44.067824081842815" lon="10.32349425180436"><ele>528.0</ele><time>2026-05-02T08:37:33Z</time></trkpt><trkpt lat="44.06791858405014" lon="10.323527641186104"><ele>528.0</ele><time>2026-05-02T08:37:34Z</time></trkpt><trkpt lat="44.06798904171565" lon="10.323608564340581"><ele>528.0</ele><time>2026-05-02T08:37:35Z</time></trkpt><trkpt lat="44.0680194172645" lon="10.323725343734269"><ele>528.0</ele><time>2026-05-02T08:37:36Z</time></trkpt><trkpt lat="44.068069002988565" lon="10.323842172145373"><ele>528.0</ele><time>2026-05-02T08:37:37Z</time></trkpt><trkpt lat="44.068123716954126" lon="10.323964156170499"><ele>523.8</ele><time>2026-05-02T08:37:38Z</time></trkpt><trkpt lat="44.06819397059922" lon="10.324063310344972"><ele>519.5999999999999</ele><time>2026-05-02T08:37:39Z</time></trkpt><trkpt lat="44.068270044603565" lon="10.324152515930923"><ele>515.4000000000001</ele><time>2026-05-02T08:37:40Z</time></trkpt><trkpt lat="44.068340401680075" lon="10.324283951105356"><ele>511.20000000000005</ele><time>2026-05-02T08:37:41Z</time></trkpt><trkpt lat="44.06842449655773" lon="10.32438674756605"><ele>507.0</ele><time>2026-05-02T08:37:42Z</time></trkpt><trkpt lat="44.06850314013587" lon="10.324483867656236"><ele>506.0</ele><time>2026-05-02T08:37:43Z</time></trkpt><trkpt lat="44.068566088131874" lon="10.324599180264986"><ele>505.00000000000006</ele><time>2026-05-02T08:37:44Z</time></trkpt><trkpt lat="44.06862834421582" lon="10.324713025972237"><ele>504.00000000000006</ele><time>2026-05-02T08:37:45Z</time></trkpt><trkpt lat="44.06867548766615" lon="10.32481829151745"><ele>503.0</ele><time>2026-05-02T08:37:46Z</time></trkpt><trkpt lat="44.068697160419035" lon="10.324930450538828"><ele>502.0</ele><time>2026-05-02T08:37:47Z</time></trkpt><trkpt lat="44.068725496223855" lon="10.325026683209218"><ele>500.0</ele><time>2026-05-02T08:37:48Z</time></trkpt><trkpt lat="44.068758835956466" lon="10.325117331420598"><ele>498.00000000000006</ele><time>2026-05-02T08:37:49Z</time></trkpt><trkpt lat="44.068772684834464" lon="10.325210943586239"><ele>496.00000000000006</ele><time>2026-05-02T08:37:50Z</time></trkpt><trkpt lat="44.06878955313864" lon="10.325411352078437"><ele>494.0</ele><time>2026-05-02T08:37:52Z</time></trkpt><trkpt lat="44.06877628241388" lon="10.32553043429053"><ele>492.0</ele><time>2026-05-02T08:37:53Z</time></trkpt><trkpt lat="44.06875682878241" lon="10.325641533863113"><ele>492.0</ele><time>2026-05-02T08:37:54Z</time></trkpt><trkpt lat="44.06872761286849" lon="10.32577152449738"><ele>492.00000000000006</ele><time>2026-05-02T08:37:55Z</time></trkpt><trkpt lat="44.068714777147854" lon="10.325916660807447"><ele>492.00000000000006</ele><time>2026-05-02T08:37:56Z</time></trkpt><trkpt lat="44.0687285497329" lon="10.326061207469973"><ele>492.0</ele><time>2026-05-02T08:37:57Z</time></trkpt><trkpt lat="44.06876352938029" lon="10.326199552600338"><ele>492.0</ele><time>2026-05-02T08:37:58Z</time></trkpt><trkpt lat="44.068802493550145" lon="10.326332480545384"><ele>491.40000000000003</ele><time>2026-05-02T08:37:59Z</time></trkpt><trkpt lat="44.06884631607732" lon="10.326468644262134"><ele>490.80000000000007</ele><time>2026-05-02T08:38:00Z</time></trkpt><trkpt lat="44.068893956416105" lon="10.326607308510033"><ele>490.2</ele><time>2026-05-02T08:38:01Z</time></trkpt><trkpt lat="44.068945751140525" lon="10.326747991479182"><ele>489.6</ele><time>2026-05-02T08:38:02Z</time></trkpt><trkpt lat="44.06900167031462" lon="10.326881308984797"><ele>489.0</ele><time>2026-05-02T08:38:03Z</time></trkpt><trkpt lat="44.06905233801839" lon="10.327003703309005"><ele>489.0</ele><time>2026-05-02T08:38:04Z</time></trkpt><trkpt lat="44.069094104014496" lon="10.327140806318338"><ele>489.0</ele><time>2026-05-02T08:38:05Z</time></trkpt><trkpt lat="44.06912753295911" lon="10.327268323173472"><ele>489.0</ele><time>2026-05-02T08:38:06Z</time></trkpt><trkpt lat="44.06912018486167" lon="10.327384131865628"><ele>489.0</ele><time>2026-05-02T08:38:07Z</time></trkpt><trkpt lat="44.06912603990122" lon="10.327488018887843"><ele>489.0</ele><time>2026-05-02T08:38:08Z</time></trkpt><trkpt lat="44.06911218994081" lon="10.327594481415021"><ele>489.0</ele><time>2026-05-02T08:38:09Z</time></trkpt><trkpt lat="44.06905556486722" lon="10.327709329304756"><ele>488.3333333333333</ele><time>2026-05-02T08:38:10Z</time></trkpt><trkpt lat="44.06901685656817" lon="10.327814358972024"><ele>487.66666666666663</ele><time>2026-05-02T08:38:11Z</time></trkpt><trkpt lat="44.06897323885138" lon="10.32792163073981"><ele>487.0</ele><time>2026-05-02T08:38:12Z</time></trkpt><trkpt lat="44.06891224317342" lon="10.328013268258895"><ele>486.3333333333333</ele><time>2026-05-02T08:38:13Z</time></trkpt><trkpt lat="44.06884890597525" lon="10.328098820396072"><ele>485.66666666666663</ele><time>2026-05-02T08:38:14Z</time></trkpt><trkpt lat="44.06878263621198" lon="10.328177601277194"><ele>485.0</ele><time>2026-05-02T08:38:15Z</time></trkpt><trkpt lat="44.06870080045038" lon="10.32823295584714"><ele>487.0</ele><time>2026-05-02T08:38:16Z</time></trkpt><trkpt lat="44.06860644199665" lon="10.328287844952175"><ele>489.0</ele><time>2026-05-02T08:38:17Z</time></trkpt><trkpt lat="44.06852612397557" lon="10.328346395000843"><ele>491.0</ele><time>2026-05-02T08:38:18Z</time></trkpt><trkpt lat="44.06843256383158" lon="10.328396909218496"><ele>493.0</ele><time>2026-05-02T08:38:19Z</time></trkpt><trkpt lat="44.068357434808284" lon="10.328450925705258"><ele>495.0</ele><time>2026-05-02T08:38:20.001Z</time></trkpt><trkpt lat="44.06825135073836" lon="10.328398189827292"><ele>488.6</ele><time>2026-05-02T08:38:21.001Z</time></trkpt><trkpt lat="44.068148689509776" lon="10.328366477757857"><ele>482.2</ele><time>2026-05-02T08:38:22.001Z</time></trkpt><trkpt lat="44.068061411741496" lon="10.328337723880644"><ele>475.79999999999995</ele><time>2026-05-02T08:38:23.001Z</time></trkpt><trkpt lat="44.06797877157695" lon="10.328323152220184"><ele>469.4</ele><time>2026-05-02T08:38:24.001Z</time></trkpt><trkpt lat="44.06789023644902" lon="10.328291270360385"><ele>463.0</ele><time>2026-05-02T08:38:25.001Z</time></trkpt><trkpt lat="44.067801270961255" lon="10.328289307238187"><ele>463.00000000000006</ele><time>2026-05-02T08:38:26.001Z</time></trkpt><trkpt lat="44.06771247232438" lon="10.328278713258777"><ele>463.0</ele><time>2026-05-02T08:38:27.001Z</time></trkpt><trkpt lat="44.06764103636405" lon="10.32834227392395"><ele>463.0</ele><time>2026-05-02T08:38:28.001Z</time></trkpt><trkpt lat="44.067585231836865" lon="10.328432505670836"><ele>463.0</ele><time>2026-05-02T08:38:29.001Z</time></trkpt><trkpt lat="44.06758527270442" lon="10.328544389039353"><ele>463.00000000000006</ele><time>2026-05-02T08:38:30.001Z</time></trkpt><trkpt lat="44.067617636322986" lon="10.328677934243212"><ele>463.0</ele><time>2026-05-02T08:38:31.001Z</time></trkpt><trkpt lat="44.06766752327738" lon="10.328799177885925"><ele>459.59999999999997</ele><time>2026-05-02T08:38:32.001Z</time></trkpt><trkpt lat="44.06771532869189" lon="10.328912502813852"><ele>456.19999999999993</ele><time>2026-05-02T08:38:33.001Z</time></trkpt><trkpt lat="44.06775306698866" lon="10.32903263149626"><ele>452.8</ele><time>2026-05-02T08:38:34.001Z</time></trkpt><trkpt lat="44.06781424586662" lon="10.329139812402982"><ele>449.4</ele><time>2026-05-02T08:38:35.001Z</time></trkpt><trkpt lat="44.06787812659441" lon="10.329240452219626"><ele>446.0</ele><time>2026-05-02T08:38:36.001Z</time></trkpt><trkpt lat="44.06795467489007" lon="10.32933444317916"><ele>446.0</ele><time>2026-05-02T08:38:37.001Z</time></trkpt><trkpt lat="44.068048755299124" lon="10.32941651566447"><ele>446.0</ele><time>2026-05-02T08:38:38.001Z</time></trkpt><trkpt lat="44.06814468658437" lon="10.329473050173748"><ele>446.0</ele><time>2026-05-02T08:38:39.001Z</time></trkpt><trkpt lat="44.068231455318845" lon="10.329515762243028"><ele>446.0</ele><time>2026-05-02T08:38:40.001Z</time></trkpt><trkpt lat="44.06830084135099" lon="10.32959640875287"><ele>446.0</ele><time>2026-05-02T08:38:41.001Z</time></trkpt><trkpt lat="44.06838735000333" lon="10.32968761559526"><ele>444.5</ele><time>2026-05-02T08:38:42.001Z</time></trkpt><trkpt lat="44.068502929916484" lon="10.329764545491122"><ele>443.0</ele><time>2026-05-02T08:38:43.001Z</time></trkpt><trkpt lat="44.06862461352327" lon="10.329866692398191"><ele>441.5</ele><time>2026-05-02T08:38:44.001Z</time></trkpt><trkpt lat="44.06875379805336" lon="10.329973646792894"><ele>440.0</ele><time>2026-05-02T08:38:45.001Z</time></trkpt><trkpt lat="44.06885174533422" lon="10.330066928852311"><ele>440.0</ele><time>2026-05-02T08:38:46.001Z</time></trkpt><trkpt lat="44.06893670156196" lon="10.330196320829018"><ele>440.0</ele><time>2026-05-02T08:38:47.001Z</time></trkpt><trkpt lat="44.0690059834293" lon="10.330316525017711"><ele>440.0</ele><time>2026-05-02T08:38:48.001Z</time></trkpt><trkpt lat="44.068856693993695" lon="10.33022346426654"><ele>440.0</ele><time>2026-05-02T08:38:49.001Z</time></trkpt><trkpt lat="44.068930550321525" lon="10.330313934092386"><ele>440.0</ele><time>2026-05-02T08:38:50.001Z</time></trkpt><trkpt lat="44.069007719705866" lon="10.33040365603589"><ele>440.0</ele><time>2026-05-02T08:38:51.001Z</time></trkpt><trkpt lat="44.06908773538831" lon="10.330493280062685"><ele>440.0</ele><time>2026-05-02T08:38:52.001Z</time></trkpt><trkpt lat="44.06918168025884" lon="10.330569947042166"><ele>440.0</ele><time>2026-05-02T08:38:53.001Z</time></trkpt><trkpt lat="44.06927663785396" lon="10.330644376736403"><ele>440.0</ele><time>2026-05-02T08:38:54.001Z</time></trkpt><trkpt lat="44.06937560166947" lon="10.330710223914709"><ele>440.2</ele><time>2026-05-02T08:38:55.001Z</time></trkpt><trkpt lat="44.06947524082329" lon="10.330784247870465"><ele>440.4</ele><time>2026-05-02T08:38:56.001Z</time></trkpt><trkpt lat="44.069570442795175" lon="10.33086123927821"><ele>440.6</ele><time>2026-05-02T08:38:57Z</time></trkpt><trkpt lat="44.069662721377405" lon="10.330941172482627"><ele>440.8</ele><time>2026-05-02T08:38:58Z</time></trkpt><trkpt lat="44.06975799536414" lon="10.33100724885672"><ele>441.0</ele><time>2026-05-02T08:38:59Z</time></trkpt><trkpt lat="44.069842172146224" lon="10.331091809745553"><ele>441.0</ele><time>2026-05-02T08:39:00Z</time></trkpt><trkpt lat="44.06991699444577" lon="10.331183430163629"><ele>441.0</ele><time>2026-05-02T08:39:01Z</time></trkpt><trkpt lat="44.06997642896262" lon="10.331290484661823"><ele>441.0</ele><time>2026-05-02T08:39:02Z</time></trkpt><trkpt lat="44.07002266736786" lon="10.331403329837178"><ele>441.0</ele><time>2026-05-02T08:39:03Z</time></trkpt><trkpt lat="44.07007048142067" lon="10.331520736940217"><ele>441.0</ele><time>2026-05-02T08:39:04Z</time></trkpt><trkpt lat="44.070103728644014" lon="10.331659110348946"><ele>441.4</ele><time>2026-05-02T08:39:05Z</time></trkpt><trkpt lat="44.07012306850132" lon="10.331794727447733"><ele>441.8</ele><time>2026-05-02T08:39:06Z</time></trkpt><trkpt lat="44.070133660161716" lon="10.331932960461348"><ele>442.19999999999993</ele><time>2026-05-02T08:39:07Z</time></trkpt><trkpt lat="44.070145917031766" lon="10.332072276163423"><ele>442.59999999999997</ele><time>2026-05-02T08:39:08Z</time></trkpt><trkpt lat="44.07016338431055" lon="10.332217483606575"><ele>443.0</ele><time>2026-05-02T08:39:09Z</time></trkpt><trkpt lat="44.07017885674524" lon="10.33236315331757"><ele>442.4</ele><time>2026-05-02T08:39:10Z</time></trkpt><trkpt lat="44.07019167789165" lon="10.332511406171152"><ele>441.79999999999995</ele><time>2026-05-02T08:39:11Z</time></trkpt><trkpt lat="44.07017857877512" lon="10.33267990726978"><ele>441.2</ele><time>2026-05-02T08:39:12Z</time></trkpt><trkpt lat="44.070193043170306" lon="10.332822836679586"><ele>440.6</ele><time>2026-05-02T08:39:13Z</time></trkpt><trkpt lat="44.07020901035313" lon="10.332959587873614"><ele>440.0</ele><time>2026-05-02T08:39:14Z</time></trkpt><trkpt lat="44.07021923953126" lon="10.333094733662934"><ele>440.0</ele><time>2026-05-02T08:39:15Z</time></trkpt><trkpt lat="44.07021882521324" lon="10.333241782149063"><ele>440.0</ele><time>2026-05-02T08:39:16Z</time></trkpt><trkpt lat="44.070241947908244" lon="10.33337761130833"><ele>440.0</ele><time>2026-05-02T08:39:17Z</time></trkpt><trkpt lat="44.0702660538107" lon="10.333514192589275"><ele>440.0</ele><time>2026-05-02T08:39:18Z</time></trkpt><trkpt lat="44.070290097288456" lon="10.333661052402867"><ele>440.0</ele><time>2026-05-02T08:39:19Z</time></trkpt><trkpt lat="44.07033013382686" lon="10.333784097712243"><ele>437.6</ele><time>2026-05-02T08:39:20Z</time></trkpt><trkpt lat="44.07035369431599" lon="10.333915567023459"><ele>435.2</ele><time>2026-05-02T08:39:21Z</time></trkpt><trkpt lat="44.07037527225101" lon="10.334049722269237"><ele>432.79999999999995</ele><time>2026-05-02T08:39:22Z</time></trkpt><trkpt lat="44.07039095468923" lon="10.334189975388098"><ele>430.4</ele><time>2026-05-02T08:39:23Z</time></trkpt><trkpt lat="44.07041123067035" lon="10.334328805677329"><ele>428.0</ele><time>2026-05-02T08:39:24Z</time></trkpt><trkpt lat="44.07043173622327" lon="10.334462577989601"><ele>427.99999999999994</ele><time>2026-05-02T08:39:25Z</time></trkpt><trkpt lat="44.070453198143746" lon="10.334585461453118"><ele>428.0</ele><time>2026-05-02T08:39:26Z</time></trkpt><trkpt lat="44.07046633495244" lon="10.334708688593892"><ele>428.0</ele><time>2026-05-02T08:39:27Z</time></trkpt><trkpt lat="44.07047641385401" lon="10.334834234459805"><ele>428.0</ele><time>2026-05-02T08:39:28Z</time></trkpt><trkpt lat="44.070492788367424" lon="10.33495447412073"><ele>427.99999999999994</ele><time>2026-05-02T08:39:29Z</time></trkpt><trkpt lat="44.07051461066934" lon="10.335069051105139"><ele>428.0</ele><time>2026-05-02T08:39:30Z</time></trkpt><trkpt lat="44.07053922869767" lon="10.335183695826242"><ele>427.79999999999995</ele><time>2026-05-02T08:39:31Z</time></trkpt><trkpt lat="44.070597072264675" lon="10.335287982251346"><ele>427.59999999999997</ele><time>2026-05-02T08:39:32Z</time></trkpt><trkpt lat="44.07067907155303" lon="10.33535001978739"><ele>427.40000000000003</ele><time>2026-05-02T08:39:33Z</time></trkpt><trkpt lat="44.07077616768369" lon="10.335372501469669"><ele>427.20000000000005</ele><time>2026-05-02T08:39:34Z</time></trkpt><trkpt lat="44.07087797141221" lon="10.335374145302348"><ele>427.0</ele><time>2026-05-02T08:39:35Z</time></trkpt><trkpt lat="44.070970600205605" lon="10.33536160129948"><ele>426.40000000000003</ele><time>2026-05-02T08:39:36Z</time></trkpt><trkpt lat="44.07106055876734" lon="10.335346138695362"><ele>425.80000000000007</ele><time>2026-05-02T08:39:37Z</time></trkpt><trkpt lat="44.07116611218215" lon="10.33533364769927"><ele>425.2</ele><time>2026-05-02T08:39:38Z</time></trkpt><trkpt lat="44.07127832554184" lon="10.335318713254756"><ele>424.6</ele><time>2026-05-02T08:39:39Z</time></trkpt><trkpt lat="44.071380413546024" lon="10.335307314009132"><ele>424.0</ele><time>2026-05-02T08:39:40Z</time></trkpt><trkpt lat="44.07146776612472" lon="10.335326336445792"><ele>424.0</ele><time>2026-05-02T08:39:41Z</time></trkpt><trkpt lat="44.0715543307884" lon="10.335347831104151"><ele>424.0</ele><time>2026-05-02T08:39:42Z</time></trkpt><trkpt lat="44.07164878527081" lon="10.335397363295902"><ele>424.0</ele><time>2026-05-02T08:39:43Z</time></trkpt><trkpt lat="44.07173493384353" lon="10.335471144675589"><ele>424.0</ele><time>2026-05-02T08:39:44Z</time></trkpt><trkpt lat="44.07181944324788" lon="10.335546007391866"><ele>424.0</ele><time>2026-05-02T08:39:45Z</time></trkpt><trkpt lat="44.071903011842686" lon="10.335610210752009"><ele>420.4</ele><time>2026-05-02T08:39:46Z</time></trkpt><trkpt lat="44.07197933668773" lon="10.33567377334486"><ele>416.79999999999995</ele><time>2026-05-02T08:39:47Z</time></trkpt><trkpt lat="44.07206153467602" lon="10.3357401253805"><ele>413.20000000000005</ele><time>2026-05-02T08:39:48Z</time></trkpt><trkpt lat="44.0721425887459" lon="10.335799659666588"><ele>409.6</ele><time>2026-05-02T08:39:49Z</time></trkpt><trkpt lat="44.07222355968474" lon="10.335862740360906"><ele>406.0</ele><time>2026-05-02T08:39:50Z</time></trkpt><trkpt lat="44.07229813135524" lon="10.335943914913663"><ele>406.0</ele><time>2026-05-02T08:39:51Z</time></trkpt><trkpt lat="44.07237291989827" lon="10.336025212888384"><ele>406.0</ele><time>2026-05-02T08:39:52Z</time></trkpt><trkpt lat="44.072437323746726" lon="10.336134485718796"><ele>406.0</ele><time>2026-05-02T08:39:53Z</time></trkpt><trkpt lat="44.0724762895917" lon="10.336246911540762"><ele>406.0</ele><time>2026-05-02T08:39:54Z</time></trkpt><trkpt lat="44.07252445292136" lon="10.336355972533749"><ele>406.0</ele><time>2026-05-02T08:39:55Z</time></trkpt><trkpt lat="44.0725664523806" lon="10.33646253863365"><ele>408.6666666666667</ele><time>2026-05-02T08:39:56Z</time></trkpt><trkpt lat="44.072590790149725" lon="10.336579040105708"><ele>411.33333333333337</ele><time>2026-05-02T08:39:57Z</time></trkpt><trkpt lat="44.072602877156115" lon="10.336695067359909"><ele>414.0</ele><time>2026-05-02T08:39:58Z</time></trkpt><trkpt lat="44.07261619813408" lon="10.33681565381714"><ele>416.66666666666663</ele><time>2026-05-02T08:39:59Z</time></trkpt><trkpt lat="44.072626732412424" lon="10.33693618730338"><ele>419.3333333333333</ele><time>2026-05-02T08:40:00Z</time></trkpt><trkpt lat="44.07263439815813" lon="10.337063617962546"><ele>422.0</ele><time>2026-05-02T08:40:01Z</time></trkpt><trkpt lat="44.07265056105042" lon="10.337187477318741"><ele>422.20000000000005</ele><time>2026-05-02T08:40:02Z</time></trkpt><trkpt lat="44.07264439420286" lon="10.337323613741166"><ele>422.4</ele><time>2026-05-02T08:40:03Z</time></trkpt><trkpt lat="44.0726469536362" lon="10.337460860513701"><ele>422.6</ele><time>2026-05-02T08:40:04Z</time></trkpt><trkpt lat="44.072641107430954" lon="10.337603951065564"><ele>422.79999999999995</ele><time>2026-05-02T08:40:05Z</time></trkpt><trkpt lat="44.072626875975786" lon="10.337740874563762"><ele>423.0</ele><time>2026-05-02T08:40:06Z</time></trkpt><trkpt lat="44.072603344225165" lon="10.337885212650516"><ele>423.0</ele><time>2026-05-02T08:40:07Z</time></trkpt><trkpt lat="44.0725776087059" lon="10.338021179602444"><ele>423.0</ele><time>2026-05-02T08:40:08Z</time></trkpt><trkpt lat="44.072543772002184" lon="10.338155054251288"><ele>423.0</ele><time>2026-05-02T08:40:09Z</time></trkpt><trkpt lat="44.07250763518665" lon="10.338287249662402"><ele>423.0</ele><time>2026-05-02T08:40:10Z</time></trkpt><trkpt lat="44.07246625708596" lon="10.338422107954102"><ele>423.0</ele><time>2026-05-02T08:40:11Z</time></trkpt><trkpt lat="44.07242851755916" lon="10.338553963836235"><ele>425.2</ele><time>2026-05-02T08:40:12Z</time></trkpt><trkpt lat="44.07239033073494" lon="10.338678862885683"><ele>427.4</ele><time>2026-05-02T08:40:13Z</time></trkpt><trkpt lat="44.07235482609162" lon="10.33880793024454"><ele>429.59999999999997</ele><time>2026-05-02T08:40:14Z</time></trkpt><trkpt lat="44.0723271422641" lon="10.338934562761537"><ele>431.79999999999995</ele><time>2026-05-02T08:40:15Z</time></trkpt><trkpt lat="44.072313423621814" lon="10.339063518238795"><ele>434.0</ele><time>2026-05-02T08:40:16Z</time></trkpt><trkpt lat="44.07231050771504" lon="10.339203328846661"><ele>434.0</ele><time>2026-05-02T08:40:17Z</time></trkpt><trkpt lat="44.07233266349777" lon="10.339346867138762"><ele>434.0</ele><time>2026-05-02T08:40:18Z</time></trkpt><trkpt lat="44.072370279578706" lon="10.339477443851928"><ele>434.0</ele><time>2026-05-02T08:40:19Z</time></trkpt><trkpt lat="44.07241361014595" lon="10.339603802543035"><ele>434.0</ele><time>2026-05-02T08:40:20Z</time></trkpt><trkpt lat="44.07245227223561" lon="10.33974288015964"><ele>434.0</ele><time>2026-05-02T08:40:21Z</time></trkpt><trkpt lat="44.072492045489966" lon="10.339872845365813"><ele>430.0</ele><time>2026-05-02T08:40:22Z</time></trkpt><trkpt lat="44.07253766846421" lon="10.339997021742493"><ele>426.0</ele><time>2026-05-02T08:40:23Z</time></trkpt><trkpt lat="44.0725895650631" lon="10.340124327156747"><ele>422.0</ele><time>2026-05-02T08:40:24Z</time></trkpt><trkpt lat="44.07262639507313" lon="10.340256743041726"><ele>418.0</ele><time>2026-05-02T08:40:25Z</time></trkpt><trkpt lat="44.072661037117435" lon="10.340382038181437"><ele>414.0</ele><time>2026-05-02T08:40:26Z</time></trkpt><trkpt lat="44.072691812784974" lon="10.340520868433913"><ele>413.0</ele><time>2026-05-02T08:40:27Z</time></trkpt><trkpt lat="44.07273433605334" lon="10.340638123686558"><ele>412.0</ele><time>2026-05-02T08:40:28Z</time></trkpt><trkpt lat="44.0727736636326" lon="10.340759448120343"><ele>411.0</ele><time>2026-05-02T08:40:29Z</time></trkpt><trkpt lat="44.07281102569308" lon="10.340876181950255"><ele>410.0</ele><time>2026-05-02T08:40:30Z</time></trkpt><trkpt lat="44.072863572753754" lon="10.340988767388644"><ele>409.0</ele><time>2026-05-02T08:40:31Z</time></trkpt><trkpt lat="44.07291876680124" lon="10.341083717927916"><ele>409.0</ele><time>2026-05-02T08:40:32Z</time></trkpt><trkpt lat="44.07298744637355" lon="10.34116539890592"><ele>409.0</ele><time>2026-05-02T08:40:33Z</time></trkpt><trkpt lat="44.07306635930142" lon="10.341227263516359"><ele>409.0</ele><time>2026-05-02T08:40:34Z</time></trkpt><trkpt lat="44.07315308892083" lon="10.341272699524794"><ele>409.0</ele><time>2026-05-02T08:40:35Z</time></trkpt><trkpt lat="44.07324351765459" lon="10.341327892978846"><ele>409.0</ele><time>2026-05-02T08:40:36Z</time></trkpt><trkpt lat="44.07333686847398" lon="10.341374509453061"><ele>409.79999999999995</ele><time>2026-05-02T08:40:37Z</time></trkpt><trkpt lat="44.0734239055197" lon="10.341405778560379"><ele>410.59999999999997</ele><time>2026-05-02T08:40:38Z</time></trkpt><trkpt lat="44.073524797711784" lon="10.341393299404404"><ele>411.4</ele><time>2026-05-02T08:40:39Z</time></trkpt><trkpt lat="44.073623855917866" lon="10.341345903966081"><ele>412.2</ele><time>2026-05-02T08:40:40Z</time></trkpt><trkpt lat="44.07372986191965" lon="10.341298637166071"><ele>413.0</ele><time>2026-05-02T08:40:41Z</time></trkpt><trkpt lat="44.0738215029102" lon="10.34121135579056"><ele>413.79999999999995</ele><time>2026-05-02T08:40:42Z</time></trkpt><trkpt lat="44.073919438929735" lon="10.341141053721573"><ele>414.6</ele><time>2026-05-02T08:40:43Z</time></trkpt><trkpt lat="44.074005605866525" lon="10.341069962957766"><ele>415.4</ele><time>2026-05-02T08:40:44Z</time></trkpt><trkpt lat="44.0740966471305" lon="10.340994483811901"><ele>416.20000000000005</ele><time>2026-05-02T08:40:45Z</time></trkpt><trkpt lat="44.074189563784714" lon="10.340917187941612"><ele>417.0</ele><time>2026-05-02T08:40:46Z</time></trkpt><trkpt lat="44.0742805505259" lon="10.340845360206986"><ele>417.0</ele><time>2026-05-02T08:40:47Z</time></trkpt><trkpt lat="44.074366184048465" lon="10.340790051828467"><ele>417.0</ele><time>2026-05-02T08:40:48Z</time></trkpt><trkpt lat="44.0744542253847" lon="10.340754922830957"><ele>417.0</ele><time>2026-05-02T08:40:49Z</time></trkpt><trkpt lat="44.07455515517989" lon="10.340733041903539"><ele>417.0</ele><time>2026-05-02T08:40:50Z</time></trkpt><trkpt lat="44.07464618832348" lon="10.340706104869332"><ele>417.0</ele><time>2026-05-02T08:40:51Z</time></trkpt><trkpt lat="44.074730849824036" lon="10.340710030953126"><ele>417.0</ele><time>2026-05-02T08:40:52Z</time></trkpt><trkpt lat="44.07480770163459" lon="10.3407321570455"><ele>417.0</ele><time>2026-05-02T08:40:53Z</time></trkpt><trkpt lat="44.074890372618356" lon="10.340762625421501"><ele>417.0</ele><time>2026-05-02T08:40:54Z</time></trkpt><trkpt lat="44.07497313353887" lon="10.34079928868371"><ele>417.0</ele><time>2026-05-02T08:40:55Z</time></trkpt><trkpt lat="44.07504927282372" lon="10.340840278198439"><ele>417.0</ele><time>2026-05-02T08:40:56Z</time></trkpt><trkpt lat="44.075113935022074" lon="10.340897173126374"><ele>417.0</ele><time>2026-05-02T08:40:57Z</time></trkpt><trkpt lat="44.075164928227125" lon="10.34102345898887"><ele>418.0</ele><time>2026-05-02T08:40:58Z</time></trkpt><trkpt lat="44.075223101522255" lon="10.341133951098568"><ele>419.0</ele><time>2026-05-02T08:40:59Z</time></trkpt><trkpt lat="44.07526586747422" lon="10.341252012876222"><ele>420.0</ele><time>2026-05-02T08:41:00Z</time></trkpt><trkpt lat="44.07532027561839" lon="10.341375362676244"><ele>421.0</ele><time>2026-05-02T08:41:01Z</time></trkpt><trkpt lat="44.07536636453983" lon="10.341500882588218"><ele>422.0</ele><time>2026-05-02T08:41:02Z</time></trkpt><trkpt lat="44.07539731334804" lon="10.341628727588647"><ele>421.20000000000005</ele><time>2026-05-02T08:41:03Z</time></trkpt><trkpt lat="44.07540449304928" lon="10.34175542872377"><ele>420.4</ele><time>2026-05-02T08:41:04Z</time></trkpt><trkpt lat="44.0753827494618" lon="10.341883151755624"><ele>419.6</ele><time>2026-05-02T08:41:05Z</time></trkpt><trkpt lat="44.0753420217082" lon="10.342007967508241"><ele>418.79999999999995</ele><time>2026-05-02T08:41:06Z</time></trkpt><trkpt lat="44.07529509286494" lon="10.342125619306909"><ele>418.0</ele><time>2026-05-02T08:41:07Z</time></trkpt><trkpt lat="44.075229826800424" lon="10.34223016128809"><ele>418.0</ele><time>2026-05-02T08:41:08Z</time></trkpt><trkpt lat="44.07513662639524" lon="10.342286748765094"><ele>418.0</ele><time>2026-05-02T08:41:09Z</time></trkpt><trkpt lat="44.07506784652867" lon="10.342381100714022"><ele>418.0</ele><time>2026-05-02T08:41:10Z</time></trkpt><trkpt lat="44.07501704625788" lon="10.342471758199162"><ele>418.0</ele><time>2026-05-02T08:41:11Z</time></trkpt><trkpt lat="44.074964844810424" lon="10.34258206432919"><ele>418.0</ele><time>2026-05-02T08:41:12Z</time></trkpt><trkpt lat="44.074923867934935" lon="10.34270749726181"><ele>418.4</ele><time>2026-05-02T08:41:13Z</time></trkpt><trkpt lat="44.07487622554726" lon="10.342834842204487"><ele>418.79999999999995</ele><time>2026-05-02T08:41:14Z</time></trkpt><trkpt lat="44.07482861631408" lon="10.34295572947402"><ele>419.2</ele><time>2026-05-02T08:41:15Z</time></trkpt><trkpt lat="44.07478355112449" lon="10.343083503666126"><ele>419.6</ele><time>2026-05-02T08:41:16Z</time></trkpt><trkpt lat="44.07473643900386" lon="10.343205731933052"><ele>420.0</ele><time>2026-05-02T08:41:17Z</time></trkpt><trkpt lat="44.07468071785188" lon="10.34331624957711"><ele>420.6</ele><time>2026-05-02T08:41:18Z</time></trkpt><trkpt lat="44.07461093094073" lon="10.343418802632804"><ele>421.2</ele><time>2026-05-02T08:41:19Z</time></trkpt><trkpt lat="44.0745469983202" lon="10.343526113561834"><ele>421.79999999999995</ele><time>2026-05-02T08:41:20Z</time></trkpt><trkpt lat="44.07449183326159" lon="10.343635368033937"><ele>422.4</ele><time>2026-05-02T08:41:21Z</time></trkpt><trkpt lat="44.07446299029314" lon="10.343749511145246"><ele>423.0</ele><time>2026-05-02T08:41:22Z</time></trkpt><trkpt lat="44.07446461771016" lon="10.343876843709578"><ele>427.4</ele><time>2026-05-02T08:41:23Z</time></trkpt><trkpt lat="44.074487812483646" lon="10.343997610879015"><ele>431.79999999999995</ele><time>2026-05-02T08:41:24Z</time></trkpt><trkpt lat="44.07453075710402" lon="10.344126172555068"><ele>436.2</ele><time>2026-05-02T08:41:25Z</time></trkpt><trkpt lat="44.07458330967835" lon="10.34422662883173"><ele>440.6</ele><time>2026-05-02T08:41:26Z</time></trkpt><trkpt lat="44.074681023213465" lon="10.344282462712194"><ele>445.0</ele><time>2026-05-02T08:41:27Z</time></trkpt><trkpt lat="44.07477549162621" lon="10.344345185443244"><ele>445.0</ele><time>2026-05-02T08:41:28Z</time></trkpt><trkpt lat="44.07486740731705" lon="10.34438500458554"><ele>445.0</ele><time>2026-05-02T08:41:29Z</time></trkpt><trkpt lat="44.074965241081166" lon="10.344421472363909"><ele>445.0</ele><time>2026-05-02T08:41:30Z</time></trkpt><trkpt lat="44.07506049417532" lon="10.344423521280907"><ele>445.0</ele><time>2026-05-02T08:41:31Z</time></trkpt><trkpt lat="44.07515948814018" lon="10.344436185002023"><ele>445.0</ele><time>2026-05-02T08:41:32Z</time></trkpt><trkpt lat="44.07524602312624" lon="10.344421443449207"><ele>438.4</ele><time>2026-05-02T08:41:33Z</time></trkpt><trkpt lat="44.075334880355584" lon="10.344350976941133"><ele>431.8</ele><time>2026-05-02T08:41:34Z</time></trkpt><trkpt lat="44.07543257350547" lon="10.344286702880863"><ele>425.20000000000005</ele><time>2026-05-02T08:41:35Z</time></trkpt><trkpt lat="44.07552549391884" lon="10.344208789678849"><ele>418.6</ele><time>2026-05-02T08:41:36Z</time></trkpt><trkpt lat="44.07561925713767" lon="10.344133519153694"><ele>412.0</ele><time>2026-05-02T08:41:37Z</time></trkpt><trkpt lat="44.075704220410415" lon="10.34405871304867"><ele>410.0</ele><time>2026-05-02T08:41:38Z</time></trkpt><trkpt lat="44.07581257046481" lon="10.344001375414773"><ele>408.0</ele><time>2026-05-02T08:41:39Z</time></trkpt><trkpt lat="44.07589035310194" lon="10.343931794133239"><ele>406.0</ele><time>2026-05-02T08:41:40Z</time></trkpt><trkpt lat="44.07598812619719" lon="10.343867443825054"><ele>404.0</ele><time>2026-05-02T08:41:41Z</time></trkpt><trkpt lat="44.07608741602685" lon="10.343848257672581"><ele>402.0</ele><time>2026-05-02T08:41:42Z</time></trkpt><trkpt lat="44.07618338046798" lon="10.34380148718598"><ele>407.20000000000005</ele><time>2026-05-02T08:41:43Z</time></trkpt><trkpt lat="44.07627838727989" lon="10.343797243852965"><ele>412.4</ele><time>2026-05-02T08:41:44Z</time></trkpt><trkpt lat="44.076370360779315" lon="10.34378780975339"><ele>417.59999999999997</ele><time>2026-05-02T08:41:45Z</time></trkpt><trkpt lat="44.07648372461625" lon="10.343778662683397"><ele>422.79999999999995</ele><time>2026-05-02T08:41:46Z</time></trkpt><trkpt lat="44.07658871632703" lon="10.343782299907524"><ele>428.0</ele><time>2026-05-02T08:41:47Z</time></trkpt><trkpt lat="44.076703654952404" lon="10.34380195930696"><ele>428.2</ele><time>2026-05-02T08:41:48Z</time></trkpt><trkpt lat="44.0768074404297" lon="10.343859176084264"><ele>428.4</ele><time>2026-05-02T08:41:49Z</time></trkpt><trkpt lat="44.07688496992565" lon="10.34397513940874"><ele>428.59999999999997</ele><time>2026-05-02T08:41:50Z</time></trkpt><trkpt lat="44.07696813279904" lon="10.34404559960613"><ele>428.79999999999995</ele><time>2026-05-02T08:41:51Z</time></trkpt><trkpt lat="44.077057784668554" lon="10.34412273907762"><ele>429.0</ele><time>2026-05-02T08:41:52Z</time></trkpt><trkpt lat="44.07715046261478" lon="10.344188528814291"><ele>422.2</ele><time>2026-05-02T08:41:53Z</time></trkpt><trkpt lat="44.0772360563941" lon="10.344284247894086"><ele>415.4</ele><time>2026-05-02T08:41:54Z</time></trkpt><trkpt lat="44.077297718152465" lon="10.344405386529697"><ele>408.6</ele><time>2026-05-02T08:41:55Z</time></trkpt><trkpt lat="44.077340904749676" lon="10.344540444779046"><ele>401.8</ele><time>2026-05-02T08:41:56Z</time></trkpt><trkpt lat="44.07734735108691" lon="10.344691173422905"><ele>395.0</ele><time>2026-05-02T08:41:57Z</time></trkpt><trkpt lat="44.07732255084381" lon="10.3448222240548"><ele>395.0</ele><time>2026-05-02T08:41:58Z</time></trkpt><trkpt lat="44.07727367674494" lon="10.344920968774854"><ele>395.0</ele><time>2026-05-02T08:41:59Z</time></trkpt><trkpt lat="44.07722179737869" lon="10.345040389151176"><ele>395.0</ele><time>2026-05-02T08:42:00Z</time></trkpt><trkpt lat="44.077168101666444" lon="10.345145920103548"><ele>395.0</ele><time>2026-05-02T08:42:01Z</time></trkpt><trkpt lat="44.07709368522812" lon="10.345243150323649"><ele>395.0</ele><time>2026-05-02T08:42:02Z</time></trkpt><trkpt lat="44.07701092602724" lon="10.345417122078768"><ele>395.4</ele><time>2026-05-02T08:42:03Z</time></trkpt><trkpt lat="44.076952340089804" lon="10.345552702030925"><ele>395.8</ele><time>2026-05-02T08:42:04Z</time></trkpt><trkpt lat="44.07691647482591" lon="10.345714533400969"><ele>396.20000000000005</ele><time>2026-05-02T08:42:05Z</time></trkpt><trkpt lat="44.07687440163535" lon="10.345867655934374"><ele>396.6</ele><time>2026-05-02T08:42:06Z</time></trkpt><trkpt lat="44.076855872650704" lon="10.345967202253274"><ele>397.0</ele><time>2026-05-02T08:42:07Z</time></trkpt><trkpt lat="44.07688668566263" lon="10.346143468664565"><ele>397.0</ele><time>2026-05-02T08:42:09Z</time></trkpt><trkpt lat="44.076899828877394" lon="10.34627791921589"><ele>397.0</ele><time>2026-05-02T08:42:10Z</time></trkpt><trkpt lat="44.076938078728354" lon="10.346393733724685"><ele>397.0</ele><time>2026-05-02T08:42:11Z</time></trkpt><trkpt lat="44.076989545302744" lon="10.346496024998162"><ele>397.0</ele><time>2026-05-02T08:42:12Z</time></trkpt><trkpt lat="44.07709371768277" lon="10.346554263796465"><ele>397.0</ele><time>2026-05-02T08:42:13Z</time></trkpt><trkpt lat="44.07719024564933" lon="10.34661688643177"><ele>397.20000000000005</ele><time>2026-05-02T08:42:14Z</time></trkpt><trkpt lat="44.07728367040312" lon="10.346689026520634"><ele>397.4</ele><time>2026-05-02T08:42:15Z</time></trkpt><trkpt lat="44.07737057892382" lon="10.346752984061732"><ele>397.6</ele><time>2026-05-02T08:42:16Z</time></trkpt><trkpt lat="44.077448510405546" lon="10.346862094085012"><ele>397.79999999999995</ele><time>2026-05-02T08:42:17Z</time></trkpt><trkpt lat="44.07749588433644" lon="10.347000029123178"><ele>398.0</ele><time>2026-05-02T08:42:18Z</time></trkpt><trkpt lat="44.077546451440476" lon="10.347128098972806"><ele>396.4</ele><time>2026-05-02T08:42:19Z</time></trkpt><trkpt lat="44.0776038681608" lon="10.34724967114358"><ele>394.79999999999995</ele><time>2026-05-02T08:42:20Z</time></trkpt><trkpt lat="44.07766693125396" lon="10.347383528948367"><ele>393.2</ele><time>2026-05-02T08:42:21Z</time></trkpt><trkpt lat="44.07772617037123" lon="10.34751094132614"><ele>391.6</ele><time>2026-05-02T08:42:22Z</time></trkpt><trkpt lat="44.0777806353693" lon="10.347636748918639"><ele>390.0</ele><time>2026-05-02T08:42:23Z</time></trkpt><trkpt lat="44.077812175449736" lon="10.347768127001101"><ele>390.0</ele><time>2026-05-02T08:42:24Z</time></trkpt><trkpt lat="44.0778203443538" lon="10.34791505299928"><ele>390.0</ele><time>2026-05-02T08:42:25Z</time></trkpt><trkpt lat="44.0778298338247" lon="10.348054414504054"><ele>390.0</ele><time>2026-05-02T08:42:26Z</time></trkpt><trkpt lat="44.07785082526406" lon="10.34818732402606"><ele>390.0</ele><time>2026-05-02T08:42:27Z</time></trkpt><trkpt lat="44.077867472348636" lon="10.348324067795573"><ele>390.0</ele><time>2026-05-02T08:42:28Z</time></trkpt><trkpt lat="44.07785030571688" lon="10.348467336013371"><ele>390.4</ele><time>2026-05-02T08:42:29Z</time></trkpt><trkpt lat="44.077817775090104" lon="10.348605917245695"><ele>390.8</ele><time>2026-05-02T08:42:30Z</time></trkpt><trkpt lat="44.077774288992565" lon="10.348733170745966"><ele>391.20000000000005</ele><time>2026-05-02T08:42:31Z</time></trkpt><trkpt lat="44.07773915106716" lon="10.348856045677707"><ele>391.6</ele><time>2026-05-02T08:42:32Z</time></trkpt><trkpt lat="44.07766623502629" lon="10.348955710117314"><ele>392.0</ele><time>2026-05-02T08:42:33Z</time></trkpt><trkpt lat="44.07758308619424" lon="10.349042297277668"><ele>393.0</ele><time>2026-05-02T08:42:34Z</time></trkpt><trkpt lat="44.077504243219636" lon="10.349131552717669"><ele>394.0</ele><time>2026-05-02T08:42:35Z</time></trkpt><trkpt lat="44.077436883004665" lon="10.34922896151121"><ele>395.0</ele><time>2026-05-02T08:42:36Z</time></trkpt><trkpt lat="44.077360156409405" lon="10.34931763580058"><ele>396.0</ele><time>2026-05-02T08:42:37Z</time></trkpt><trkpt lat="44.0773008174881" lon="10.349425542318157"><ele>397.0</ele><time>2026-05-02T08:42:38Z</time></trkpt><trkpt lat="44.0772491965354" lon="10.349527615753745"><ele>396.6</ele><time>2026-05-02T08:42:39Z</time></trkpt><trkpt lat="44.07722064098482" lon="10.34962877191076"><ele>396.20000000000005</ele><time>2026-05-02T08:42:40Z</time></trkpt><trkpt lat="44.0772035403065" lon="10.349763345910906"><ele>395.8</ele><time>2026-05-02T08:42:41Z</time></trkpt><trkpt lat="44.07719447742175" lon="10.349894743062885"><ele>395.4</ele><time>2026-05-02T08:42:42Z</time></trkpt><trkpt lat="44.07720511497266" lon="10.35002442800455"><ele>395.0</ele><time>2026-05-02T08:42:43Z</time></trkpt><trkpt lat="44.077220770937274" lon="10.350156708888665"><ele>395.0</ele><time>2026-05-02T08:42:44Z</time></trkpt><trkpt lat="44.07724698060291" lon="10.3502899267478"><ele>395.0</ele><time>2026-05-02T08:42:45Z</time></trkpt><trkpt lat="44.07725651311266" lon="10.350428262888105"><ele>395.0</ele><time>2026-05-02T08:42:46Z</time></trkpt><trkpt lat="44.077237860764136" lon="10.350554368780525"><ele>395.0</ele><time>2026-05-02T08:42:47Z</time></trkpt><trkpt lat="44.07720367305306" lon="10.350679983196866"><ele>395.0</ele><time>2026-05-02T08:42:48Z</time></trkpt><trkpt lat="44.07714494934948" lon="10.35081524633486"><ele>393.16666666666663</ele><time>2026-05-02T08:42:49Z</time></trkpt><trkpt lat="44.07707634825991" lon="10.350917555881452"><ele>391.3333333333333</ele><time>2026-05-02T08:42:50Z</time></trkpt><trkpt lat="44.07700703990949" lon="10.351033846518364"><ele>389.5</ele><time>2026-05-02T08:42:51Z</time></trkpt><trkpt lat="44.07694671768944" lon="10.35112825010062"><ele>387.66666666666663</ele><time>2026-05-02T08:42:52Z</time></trkpt><trkpt lat="44.076913910446414" lon="10.351226061381896"><ele>385.8333333333333</ele><time>2026-05-02T08:42:53Z</time></trkpt><trkpt lat="44.07691969957755" lon="10.351319933092402"><ele>384.0</ele><time>2026-05-02T08:42:54Z</time></trkpt><trkpt lat="44.07696590501517" lon="10.351422136971077"><ele>383.2</ele><time>2026-05-02T08:42:55Z</time></trkpt><trkpt lat="44.0770362905722" lon="10.35149337739628"><ele>382.4</ele><time>2026-05-02T08:42:56Z</time></trkpt><trkpt lat="44.07711142298806" lon="10.351548304268494"><ele>381.6</ele><time>2026-05-02T08:42:57Z</time></trkpt><trkpt lat="44.077200315946996" lon="10.351582127603361"><ele>380.8</ele><time>2026-05-02T08:42:58Z</time></trkpt><trkpt lat="44.07729442203964" lon="10.351601557977693"><ele>380.0</ele><time>2026-05-02T08:42:59Z</time></trkpt><trkpt lat="44.07739681851214" lon="10.35161890358061"><ele>382.2</ele><time>2026-05-02T08:43:00Z</time></trkpt><trkpt lat="44.07749101193742" lon="10.351626946577133"><ele>384.4</ele><time>2026-05-02T08:43:01Z</time></trkpt><trkpt lat="44.077587713790045" lon="10.351677744914012"><ele>386.6</ele><time>2026-05-02T08:43:02Z</time></trkpt><trkpt lat="44.07767465945075" lon="10.351746782645986"><ele>388.8</ele><time>2026-05-02T08:43:03Z</time></trkpt><trkpt lat="44.07774147422995" lon="10.351865300475287"><ele>391.0</ele><time>2026-05-02T08:43:04Z</time></trkpt><trkpt lat="44.07780570638244" lon="10.35198570758803"><ele>391.0</ele><time>2026-05-02T08:43:05Z</time></trkpt><trkpt lat="44.07787445426326" lon="10.352095573564192"><ele>391.0</ele><time>2026-05-02T08:43:06Z</time></trkpt><trkpt lat="44.07793515920633" lon="10.352202062659787"><ele>391.0</ele><time>2026-05-02T08:43:07Z</time></trkpt><trkpt lat="44.078007813724405" lon="10.35229275854324"><ele>391.0</ele><time>2026-05-02T08:43:08Z</time></trkpt><trkpt lat="44.078067549957495" lon="10.352387042812191"><ele>391.0</ele><time>2026-05-02T08:43:09Z</time></trkpt><trkpt lat="44.07813572774589" lon="10.35247315655219"><ele>391.0</ele><time>2026-05-02T08:43:10Z</time></trkpt><trkpt lat="44.07821001832931" lon="10.35255211416642"><ele>391.0</ele><time>2026-05-02T08:43:11Z</time></trkpt><trkpt lat="44.07830393907644" lon="10.35259649989931"><ele>391.0</ele><time>2026-05-02T08:43:12Z</time></trkpt><trkpt lat="44.07839780291621" lon="10.352609342246199"><ele>391.0</ele><time>2026-05-02T08:43:13Z</time></trkpt><trkpt lat="44.07849129569092" lon="10.352619804860483"><ele>391.0</ele><time>2026-05-02T08:43:14Z</time></trkpt><trkpt lat="44.0785767578869" lon="10.352623370180076"><ele>392.20000000000005</ele><time>2026-05-02T08:43:15Z</time></trkpt><trkpt lat="44.078681874161774" lon="10.352633180728198"><ele>393.40000000000003</ele><time>2026-05-02T08:43:16Z</time></trkpt><trkpt lat="44.0787843094323" lon="10.352634255134816"><ele>394.6</ele><time>2026-05-02T08:43:17Z</time></trkpt><trkpt lat="44.07889782025789" lon="10.35262648611485"><ele>395.8</ele><time>2026-05-02T08:43:18Z</time></trkpt><trkpt lat="44.07899986695305" lon="10.352622750746422"><ele>397.0</ele><time>2026-05-02T08:43:19Z</time></trkpt><trkpt lat="44.07910303360084" lon="10.352617618492747"><ele>397.0</ele><time>2026-05-02T08:43:20Z</time></trkpt><trkpt lat="44.07919245993925" lon="10.35261971869613"><ele>397.0</ele><time>2026-05-02T08:43:21Z</time></trkpt><trkpt lat="44.07926813955637" lon="10.35261614626737"><ele>397.0</ele><time>2026-05-02T08:43:22Z</time></trkpt><trkpt lat="44.07934955583776" lon="10.352628080219866"><ele>397.0</ele><time>2026-05-02T08:43:23Z</time></trkpt><trkpt lat="44.07943342469255" lon="10.352647386447734"><ele>397.0</ele><time>2026-05-02T08:43:24Z</time></trkpt><trkpt lat="44.07957717490262" lon="10.35271491868405"><ele>397.0</ele><time>2026-05-02T08:43:26Z</time></trkpt><trkpt lat="44.079650005966464" lon="10.352801550229914"><ele>397.0</ele><time>2026-05-02T08:43:27Z</time></trkpt><trkpt lat="44.07972069746589" lon="10.352885669525087"><ele>397.0</ele><time>2026-05-02T08:43:28Z</time></trkpt><trkpt lat="44.079794706273454" lon="10.352970511537936"><ele>397.0</ele><time>2026-05-02T08:43:29Z</time></trkpt><trkpt lat="44.07987014989883" lon="10.353050005045649"><ele>397.0</ele><time>2026-05-02T08:43:30Z</time></trkpt><trkpt lat="44.079942112455825" lon="10.353135920496385"><ele>396.6</ele><time>2026-05-02T08:43:31Z</time></trkpt><trkpt lat="44.0800022980296" lon="10.353233880951883"><ele>396.20000000000005</ele><time>2026-05-02T08:43:32Z</time></trkpt><trkpt lat="44.080059970487746" lon="10.3533513710677"><ele>395.8</ele><time>2026-05-02T08:43:33Z</time></trkpt><trkpt lat="44.0801042181203" lon="10.35347099259308"><ele>395.4</ele><time>2026-05-02T08:43:34Z</time></trkpt><trkpt lat="44.08016211666983" lon="10.353592021671236"><ele>395.0</ele><time>2026-05-02T08:43:35Z</time></trkpt><trkpt lat="44.080210125452126" lon="10.353722427810942"><ele>395.0</ele><time>2026-05-02T08:43:36Z</time></trkpt><trkpt lat="44.08026213574572" lon="10.353854016116312"><ele>395.0</ele><time>2026-05-02T08:43:37Z</time></trkpt><trkpt lat="44.08031700252611" lon="10.353975987510228"><ele>395.0</ele><time>2026-05-02T08:43:38Z</time></trkpt><trkpt lat="44.08037757361362" lon="10.354104028373582"><ele>395.0</ele><time>2026-05-02T08:43:39Z</time></trkpt><trkpt lat="44.08042469644735" lon="10.354235401457156"><ele>395.0</ele><time>2026-05-02T08:43:40Z</time></trkpt><trkpt lat="44.080452762307715" lon="10.354376700013994"><ele>394.8</ele><time>2026-05-02T08:43:41Z</time></trkpt><trkpt lat="44.08047427154423" lon="10.354521756999212"><ele>394.6</ele><time>2026-05-02T08:43:42Z</time></trkpt><trkpt lat="44.080486480505606" lon="10.354664858918728"><ele>394.4</ele><time>2026-05-02T08:43:43Z</time></trkpt><trkpt lat="44.080496761463706" lon="10.354804979225259"><ele>394.2</ele><time>2026-05-02T08:43:44Z</time></trkpt><trkpt lat="44.08051147473347" lon="10.354949319942177"><ele>394.0</ele><time>2026-05-02T08:43:45Z</time></trkpt><trkpt lat="44.08052597181077" lon="10.355097064352153"><ele>394.0</ele><time>2026-05-02T08:43:46Z</time></trkpt><trkpt lat="44.0805358295995" lon="10.355246793471032"><ele>394.0</ele><time>2026-05-02T08:43:47Z</time></trkpt><trkpt lat="44.08053054104405" lon="10.355393228068097"><ele>394.0</ele><time>2026-05-02T08:43:48Z</time></trkpt><trkpt lat="44.08052583628886" lon="10.355540038657109"><ele>394.0</ele><time>2026-05-02T08:43:49Z</time></trkpt><trkpt lat="44.08051485668944" lon="10.355680620520248"><ele>394.0</ele><time>2026-05-02T08:43:50Z</time></trkpt><trkpt lat="44.080516831080686" lon="10.355819571996289"><ele>398.2</ele><time>2026-05-02T08:43:51Z</time></trkpt><trkpt lat="44.08052407343058" lon="10.35596450434236"><ele>402.4</ele><time>2026-05-02T08:43:52Z</time></trkpt><trkpt lat="44.08053725425825" lon="10.356105081039138"><ele>406.6</ele><time>2026-05-02T08:43:53Z</time></trkpt><trkpt lat="44.08055474589359" lon="10.356242829739807"><ele>410.8</ele><time>2026-05-02T08:43:54Z</time></trkpt><trkpt lat="44.08057740282847" lon="10.356373688548226"><ele>415.0</ele><time>2026-05-02T08:43:55Z</time></trkpt><trkpt lat="44.080617160983195" lon="10.356503942178785"><ele>417.4</ele><time>2026-05-02T08:43:56Z</time></trkpt><trkpt lat="44.08064514563698" lon="10.356627593658354"><ele>419.8</ele><time>2026-05-02T08:43:57Z</time></trkpt><trkpt lat="44.080704500682586" lon="10.356746164599365"><ele>422.20000000000005</ele><time>2026-05-02T08:43:58Z</time></trkpt><trkpt lat="44.080754497514114" lon="10.356858800575463"><ele>424.6</ele><time>2026-05-02T08:43:59Z</time></trkpt><trkpt lat="44.080800927749785" lon="10.35696952419396"><ele>427.0</ele><time>2026-05-02T08:44:00Z</time></trkpt><trkpt lat="44.08084855768044" lon="10.357072303663752"><ele>422.6666666666667</ele><time>2026-05-02T08:44:01Z</time></trkpt><trkpt lat="44.08088676212362" lon="10.357172659134129"><ele>418.33333333333337</ele><time>2026-05-02T08:44:02Z</time></trkpt><trkpt lat="44.08091954860706" lon="10.357268828081047"><ele>414.0</ele><time>2026-05-02T08:44:03Z</time></trkpt><trkpt lat="44.080952232316335" lon="10.357348736368165"><ele>409.66666666666663</ele><time>2026-05-02T08:44:04Z</time></trkpt><trkpt lat="44.08098235495561" lon="10.357444683735672"><ele>405.3333333333333</ele><time>2026-05-02T08:44:05Z</time></trkpt><trkpt lat="44.08101868938969" lon="10.35754942365411"><ele>401.0</ele><time>2026-05-02T08:44:06Z</time></trkpt><trkpt lat="44.08107352546271" lon="10.357635627867023"><ele>397.4</ele><time>2026-05-02T08:44:07Z</time></trkpt><trkpt lat="44.0811289254452" lon="10.357716047296345"><ele>393.8</ele><time>2026-05-02T08:44:08Z</time></trkpt><trkpt lat="44.08116014933499" lon="10.35784369832176"><ele>390.2</ele><time>2026-05-02T08:44:09Z</time></trkpt><trkpt lat="44.08118466763875" lon="10.357969682067782"><ele>386.59999999999997</ele><time>2026-05-02T08:44:10Z</time></trkpt><trkpt lat="44.08121446611407" lon="10.358087072514909"><ele>383.0</ele><time>2026-05-02T08:44:11Z</time></trkpt><trkpt lat="44.08124418387291" lon="10.358217471380069"><ele>381.59999999999997</ele><time>2026-05-02T08:44:12Z</time></trkpt><trkpt lat="44.08126891163513" lon="10.358359669195204"><ele>380.2</ele><time>2026-05-02T08:44:13Z</time></trkpt><trkpt lat="44.081289239277595" lon="10.358495769309055"><ele>378.8</ele><time>2026-05-02T08:44:14Z</time></trkpt><trkpt lat="44.08129336268824" lon="10.358629833524985"><ele>377.4</ele><time>2026-05-02T08:44:15Z</time></trkpt><trkpt lat="44.08128484225389" lon="10.358764904870844"><ele>376.0</ele><time>2026-05-02T08:44:16Z</time></trkpt><trkpt lat="44.08124957042666" lon="10.35889532980859"><ele>375.8</ele><time>2026-05-02T08:44:17Z</time></trkpt><trkpt lat="44.08120314209632" lon="10.35901585725143"><ele>375.6</ele><time>2026-05-02T08:44:18Z</time></trkpt><trkpt lat="44.081140871581226" lon="10.359120299829481"><ele>375.4</ele><time>2026-05-02T08:44:19Z</time></trkpt><trkpt lat="44.081079047782346" lon="10.359215446628617"><ele>375.2</ele><time>2026-05-02T08:44:20Z</time></trkpt><trkpt lat="44.08103300211381" lon="10.359351124099701"><ele>375.0</ele><time>2026-05-02T08:44:21Z</time></trkpt><trkpt lat="44.080966756092394" lon="10.359464181590536"><ele>375.0</ele><time>2026-05-02T08:44:22Z</time></trkpt><trkpt lat="44.080910995603254" lon="10.35957952332276"><ele>375.0</ele><time>2026-05-02T08:44:23Z</time></trkpt><trkpt lat="44.0808599692025" lon="10.359703917068417"><ele>375.0</ele><time>2026-05-02T08:44:24Z</time></trkpt><trkpt lat="44.0808109476508" lon="10.35982489853599"><ele>375.0</ele><time>2026-05-02T08:44:25Z</time></trkpt><trkpt lat="44.080763834629295" lon="10.359939933410942"><ele>375.0</ele><time>2026-05-02T08:44:26Z</time></trkpt><trkpt lat="44.08072733212205" lon="10.360034254647262"><ele>376.2</ele><time>2026-05-02T08:44:27Z</time></trkpt><trkpt lat="44.08071179926041" lon="10.360126877381028"><ele>377.4</ele><time>2026-05-02T08:44:28Z</time></trkpt><trkpt lat="44.08070927313758" lon="10.360217418007725"><ele>378.6</ele><time>2026-05-02T08:44:29Z</time></trkpt><trkpt lat="44.080720635599064" lon="10.360392201197358"><ele>379.8</ele><time>2026-05-02T08:44:31Z</time></trkpt><trkpt lat="44.0807129953273" lon="10.360532647668357"><ele>381.0</ele><time>2026-05-02T08:44:32Z</time></trkpt><trkpt lat="44.080677274000514" lon="10.360784706599631"><ele>381.0</ele><time>2026-05-02T08:44:33Z</time></trkpt><trkpt lat="44.080682319714356" lon="10.360915973949659"><ele>381.0</ele><time>2026-05-02T08:44:34Z</time></trkpt><trkpt lat="44.080681180878784" lon="10.361031469253543"><ele>381.0</ele><time>2026-05-02T08:44:35Z</time></trkpt><trkpt lat="44.08069534912629" lon="10.361169696002625"><ele>381.0</ele><time>2026-05-02T08:44:36Z</time></trkpt><trkpt lat="44.08070527973449" lon="10.361293850494162"><ele>381.0</ele><time>2026-05-02T08:44:37Z</time></trkpt><trkpt lat="44.080707947294975" lon="10.361417492548211"><ele>380.6666666666667</ele><time>2026-05-02T08:44:38Z</time></trkpt><trkpt lat="44.08071051889132" lon="10.361550911306027"><ele>380.3333333333333</ele><time>2026-05-02T08:44:39Z</time></trkpt><trkpt lat="44.080713412091" lon="10.361673483451343"><ele>380.0</ele><time>2026-05-02T08:44:40Z</time></trkpt><trkpt lat="44.08071494808301" lon="10.361789464665327"><ele>379.66666666666663</ele><time>2026-05-02T08:44:41Z</time></trkpt><trkpt lat="44.08072897887625" lon="10.361887861423451"><ele>379.3333333333333</ele><time>2026-05-02T08:44:42Z</time></trkpt><trkpt lat="44.080727105697726" lon="10.362003743634915"><ele>379.0</ele><time>2026-05-02T08:44:43Z</time></trkpt><trkpt lat="44.08072632241552" lon="10.362125510364805"><ele>379.0</ele><time>2026-05-02T08:44:44Z</time></trkpt><trkpt lat="44.08072862033103" lon="10.362254482641898"><ele>379.0</ele><time>2026-05-02T08:44:45Z</time></trkpt><trkpt lat="44.080736729970525" lon="10.362388778213006"><ele>379.0</ele><time>2026-05-02T08:44:46Z</time></trkpt><trkpt lat="44.08074028194388" lon="10.362524721146615"><ele>379.0</ele><time>2026-05-02T08:44:47Z</time></trkpt><trkpt lat="44.080740145155964" lon="10.362664193353854"><ele>379.0</ele><time>2026-05-02T08:44:48Z</time></trkpt><trkpt lat="44.080739830380075" lon="10.362808109058696"><ele>379.0</ele><time>2026-05-02T08:44:49Z</time></trkpt><trkpt lat="44.0807438307355" lon="10.362958888720783"><ele>379.0</ele><time>2026-05-02T08:44:50Z</time></trkpt><trkpt lat="44.080745798079" lon="10.363102777068242"><ele>379.0</ele><time>2026-05-02T08:44:51Z</time></trkpt><trkpt lat="44.08075516859898" lon="10.36324340705829"><ele>379.0</ele><time>2026-05-02T08:44:52Z</time></trkpt><trkpt lat="44.08077207456231" lon="10.363379145679648"><ele>379.0</ele><time>2026-05-02T08:44:53Z</time></trkpt><trkpt lat="44.08080616574328" lon="10.363518814727817"><ele>376.6</ele><time>2026-05-02T08:44:54Z</time></trkpt><trkpt lat="44.08083890626248" lon="10.36366720224079"><ele>374.2</ele><time>2026-05-02T08:44:55Z</time></trkpt><trkpt lat="44.080907054128524" lon="10.363803247233697"><ele>371.8</ele><time>2026-05-02T08:44:56Z</time></trkpt><trkpt lat="44.080953202210424" lon="10.36393701705168"><ele>369.40000000000003</ele><time>2026-05-02T08:44:57Z</time></trkpt><trkpt lat="44.080986277906234" lon="10.364081774258684"><ele>367.0</ele><time>2026-05-02T08:44:58Z</time></trkpt><trkpt lat="44.08102201923928" lon="10.364233037988694"><ele>367.0</ele><time>2026-05-02T08:44:59Z</time></trkpt><trkpt lat="44.08107622955837" lon="10.364364823703546"><ele>367.0</ele><time>2026-05-02T08:45:00Z</time></trkpt><trkpt lat="44.081134315336755" lon="10.364495375974782"><ele>367.0</ele><time>2026-05-02T08:45:01Z</time></trkpt><trkpt lat="44.08119432468009" lon="10.364623163326925"><ele>367.0</ele><time>2026-05-02T08:45:02Z</time></trkpt><trkpt lat="44.08124512683077" lon="10.364749495618286"><ele>367.0</ele><time>2026-05-02T08:45:03Z</time></trkpt><trkpt lat="44.081302418699615" lon="10.36487878755637"><ele>368.20000000000005</ele><time>2026-05-02T08:45:04Z</time></trkpt><trkpt lat="44.08134469179569" lon="10.365021212273255"><ele>369.4</ele><time>2026-05-02T08:45:05Z</time></trkpt><trkpt lat="44.08141786437653" lon="10.365127755815998"><ele>370.6</ele><time>2026-05-02T08:45:06Z</time></trkpt><trkpt lat="44.08149689328094" lon="10.365200789966694"><ele>371.79999999999995</ele><time>2026-05-02T08:45:07Z</time></trkpt><trkpt lat="44.0815734706042" lon="10.365258360612456"><ele>373.0</ele><time>2026-05-02T08:45:08Z</time></trkpt><trkpt lat="44.08165698839361" lon="10.365302424981726"><ele>373.0</ele><time>2026-05-02T08:45:09Z</time></trkpt><trkpt lat="44.08175276105643" lon="10.365356658685322"><ele>373.0</ele><time>2026-05-02T08:45:10Z</time></trkpt><trkpt lat="44.081851926737414" lon="10.365434437398356"><ele>373.0</ele><time>2026-05-02T08:45:11Z</time></trkpt><trkpt lat="44.0819567610192" lon="10.365505052706148"><ele>373.0</ele><time>2026-05-02T08:45:12Z</time></trkpt><trkpt lat="44.08204648414649" lon="10.365584813392383"><ele>373.0</ele><time>2026-05-02T08:45:13Z</time></trkpt><trkpt lat="44.08213942983432" lon="10.36565295765915"><ele>370.59999999999997</ele><time>2026-05-02T08:45:14Z</time></trkpt><trkpt lat="44.08223723670185" lon="10.365716489329252"><ele>368.2</ele><time>2026-05-02T08:45:15Z</time></trkpt><trkpt lat="44.082334824170005" lon="10.365774207891262"><ele>365.8</ele><time>2026-05-02T08:45:16Z</time></trkpt><trkpt lat="44.08243165958946" lon="10.365845697970368"><ele>363.4</ele><time>2026-05-02T08:45:17Z</time></trkpt><trkpt lat="44.08252520462007" lon="10.36588196107016"><ele>361.0</ele><time>2026-05-02T08:45:18Z</time></trkpt><trkpt lat="44.082610946984346" lon="10.365887798216226"><ele>361.0</ele><time>2026-05-02T08:45:19Z</time></trkpt><trkpt lat="44.08271381139716" lon="10.365881565526605"><ele>361.0</ele><time>2026-05-02T08:45:20Z</time></trkpt><trkpt lat="44.08281702348335" lon="10.365883176542411"><ele>361.0</ele><time>2026-05-02T08:45:21Z</time></trkpt><trkpt lat="44.08291936476471" lon="10.365884852901278"><ele>361.0</ele><time>2026-05-02T08:45:22Z</time></trkpt><trkpt lat="44.08301626239921" lon="10.365889833401468"><ele>361.0</ele><time>2026-05-02T08:45:23Z</time></trkpt><trkpt lat="44.0831141230646" lon="10.365899045894528"><ele>361.0</ele><time>2026-05-02T08:45:24Z</time></trkpt><trkpt lat="44.08319813608783" lon="10.365888785594079"><ele>361.0</ele><time>2026-05-02T08:45:25Z</time></trkpt><trkpt lat="44.08329028002378" lon="10.36586954207524"><ele>361.0</ele><time>2026-05-02T08:45:26Z</time></trkpt><trkpt lat="44.083376025393854" lon="10.365869933549826"><ele>361.0</ele><time>2026-05-02T08:45:27Z</time></trkpt><trkpt lat="44.083467396742435" lon="10.365864035903275"><ele>361.0</ele><time>2026-05-02T08:45:28Z</time></trkpt><trkpt lat="44.08354850470609" lon="10.365855035813947"><ele>361.0</ele><time>2026-05-02T08:45:29Z</time></trkpt><trkpt lat="44.08362159388902" lon="10.365840065258249"><ele>360.8</ele><time>2026-05-02T08:45:30Z</time></trkpt><trkpt lat="44.08369263137413" lon="10.365880944660296"><ele>360.6</ele><time>2026-05-02T08:45:31Z</time></trkpt><trkpt lat="44.08376765116965" lon="10.36599945950598"><ele>360.4</ele><time>2026-05-02T08:45:32Z</time></trkpt><trkpt lat="44.08380852691716" lon="10.366144798097752"><ele>360.2</ele><time>2026-05-02T08:45:33Z</time></trkpt><trkpt lat="44.08386787702042" lon="10.366316328863235"><ele>360.0</ele><time>2026-05-02T08:45:34Z</time></trkpt><trkpt lat="44.08391971216511" lon="10.366508164324973"><ele>358.5</ele><time>2026-05-02T08:45:35Z</time></trkpt><trkpt lat="44.08396306833841" lon="10.366687157419594"><ele>357.0</ele><time>2026-05-02T08:45:36Z</time></trkpt><trkpt lat="44.08393172254711" lon="10.366798394955513"><ele>355.5</ele><time>2026-05-02T08:45:37Z</time></trkpt><trkpt lat="44.08389334409848" lon="10.36697857664389"><ele>354.0</ele><time>2026-05-02T08:45:39Z</time></trkpt><trkpt lat="44.08389301264907" lon="10.367117428527994"><ele>356.4</ele><time>2026-05-02T08:45:40Z</time></trkpt><trkpt lat="44.08387856281595" lon="10.367240942067687"><ele>358.79999999999995</ele><time>2026-05-02T08:45:41Z</time></trkpt><trkpt lat="44.08384968228349" lon="10.367364367665553"><ele>361.20000000000005</ele><time>2026-05-02T08:45:42Z</time></trkpt><trkpt lat="44.08379649845055" lon="10.367495056577134"><ele>363.6</ele><time>2026-05-02T08:45:43Z</time></trkpt><trkpt lat="44.08375330757903" lon="10.367610550850836"><ele>366.0</ele><time>2026-05-02T08:45:44Z</time></trkpt><trkpt lat="44.08369717711881" lon="10.367708046236574"><ele>366.0</ele><time>2026-05-02T08:45:45Z</time></trkpt><trkpt lat="44.083611879737795" lon="10.367820950874078"><ele>366.0</ele><time>2026-05-02T08:45:46Z</time></trkpt><trkpt lat="44.08359577278305" lon="10.367981668788914"><ele>366.0</ele><time>2026-05-02T08:45:48Z</time></trkpt><trkpt lat="44.083635552360036" lon="10.368071213140912"><ele>366.0</ele><time>2026-05-02T08:45:49Z</time></trkpt><trkpt lat="44.083679208461646" lon="10.368183521961098"><ele>366.0</ele><time>2026-05-02T08:45:50Z</time></trkpt><trkpt lat="44.0837402892465" lon="10.368290485823717"><ele>364.0</ele><time>2026-05-02T08:45:51Z</time></trkpt><trkpt lat="44.083798146822005" lon="10.368408292105206"><ele>362.0</ele><time>2026-05-02T08:45:52Z</time></trkpt><trkpt lat="44.08385811075101" lon="10.36852844838639"><ele>360.0</ele><time>2026-05-02T08:45:53Z</time></trkpt><trkpt lat="44.08391782382283" lon="10.36864477496726"><ele>358.0</ele><time>2026-05-02T08:45:54Z</time></trkpt><trkpt lat="44.08398394262798" lon="10.368737566787985"><ele>356.0</ele><time>2026-05-02T08:45:55Z</time></trkpt><trkpt lat="44.08405861831484" lon="10.368799604378886"><ele>357.6</ele><time>2026-05-02T08:45:56Z</time></trkpt><trkpt lat="44.08414003097137" lon="10.36884932795868"><ele>359.20000000000005</ele><time>2026-05-02T08:45:57Z</time></trkpt><trkpt lat="44.08422997623158" lon="10.368895677280268"><ele>360.79999999999995</ele><time>2026-05-02T08:45:58Z</time></trkpt><trkpt lat="44.08431753468591" lon="10.368952347072986"><ele>362.4</ele><time>2026-05-02T08:45:59Z</time></trkpt><trkpt lat="44.08439905297109" lon="10.369019187088675"><ele>364.0</ele><time>2026-05-02T08:46:00Z</time></trkpt><trkpt lat="44.08448531669541" lon="10.36908753727578"><ele>361.16666666666663</ele><time>2026-05-02T08:46:01Z</time></trkpt><trkpt lat="44.08457172716232" lon="10.369156291361671"><ele>358.3333333333333</ele><time>2026-05-02T08:46:02Z</time></trkpt><trkpt lat="44.08465882573338" lon="10.369222529711141"><ele>355.5</ele><time>2026-05-02T08:46:03Z</time></trkpt><trkpt lat="44.08473683397936" lon="10.369290576916644"><ele>352.6666666666667</ele><time>2026-05-02T08:46:04Z</time></trkpt><trkpt lat="44.08480372758626" lon="10.36934022017384"><ele>349.83333333333337</ele><time>2026-05-02T08:46:05Z</time></trkpt><trkpt lat="44.08486573693133" lon="10.369398437289927"><ele>347.0</ele><time>2026-05-02T08:46:06Z</time></trkpt><trkpt lat="44.08493207711036" lon="10.369462162406196"><ele>350.0</ele><time>2026-05-02T08:46:07Z</time></trkpt><trkpt lat="44.085013960509755" lon="10.369536210535372"><ele>353.0</ele><time>2026-05-02T08:46:08Z</time></trkpt><trkpt lat="44.08506592792989" lon="10.369641576186561"><ele>356.0</ele><time>2026-05-02T08:46:09Z</time></trkpt><trkpt lat="44.08508974328113" lon="10.36975995486561"><ele>359.0</ele><time>2026-05-02T08:46:10Z</time></trkpt><trkpt lat="44.08507222697576" lon="10.369889051010185"><ele>362.0</ele><time>2026-05-02T08:46:11Z</time></trkpt><trkpt lat="44.08499268639044" lon="10.370032922690832"><ele>360.6</ele><time>2026-05-02T08:46:12Z</time></trkpt><trkpt lat="44.084915100321005" lon="10.370124345841871"><ele>359.20000000000005</ele><time>2026-05-02T08:46:13Z</time></trkpt><trkpt lat="44.084846441025235" lon="10.370160885034378"><ele>357.8</ele><time>2026-05-02T08:46:14Z</time></trkpt><trkpt lat="44.084746702397894" lon="10.3701805466"><ele>356.4</ele><time>2026-05-02T08:46:15Z</time></trkpt><trkpt lat="44.084679806281486" lon="10.370196693470357"><ele>355.0</ele><time>2026-05-02T08:46:16Z</time></trkpt><trkpt lat="44.084800193222556" lon="10.370485878105672"><ele>354.0</ele><time>2026-05-02T08:46:17Z</time></trkpt><trkpt lat="44.08478848381553" lon="10.370619435396218"><ele>353.0</ele><time>2026-05-02T08:46:18Z</time></trkpt><trkpt lat="44.08478946166546" lon="10.370735392670435"><ele>352.0</ele><time>2026-05-02T08:46:19Z</time></trkpt><trkpt lat="44.08483276959836" lon="10.370830721984007"><ele>351.0</ele><time>2026-05-02T08:46:20Z</time></trkpt><trkpt lat="44.08490523179882" lon="10.370896403982417"><ele>350.0</ele><time>2026-05-02T08:46:21Z</time></trkpt><trkpt lat="44.084994252915976" lon="10.370947148428595"><ele>349.0</ele><time>2026-05-02T08:46:22Z</time></trkpt><trkpt lat="44.085078474568604" lon="10.370996516060895"><ele>349.0</ele><time>2026-05-02T08:46:23Z</time></trkpt><trkpt lat="44.08516915864899" lon="10.371033006436244"><ele>349.0</ele><time>2026-05-02T08:46:24Z</time></trkpt><trkpt lat="44.0852541390123" lon="10.371051291045639"><ele>349.0</ele><time>2026-05-02T08:46:25Z</time></trkpt><trkpt lat="44.08533625749225" lon="10.371083370224"><ele>349.0</ele><time>2026-05-02T08:46:26Z</time></trkpt><trkpt lat="44.08541881273264" lon="10.371102080648942"><ele>349.0</ele><time>2026-05-02T08:46:27Z</time></trkpt><trkpt lat="44.08550815452321" lon="10.371086352399299"><ele>349.0</ele><time>2026-05-02T08:46:28Z</time></trkpt><trkpt lat="44.085596678692845" lon="10.371054287272377"><ele>349.0</ele><time>2026-05-02T08:46:29Z</time></trkpt><trkpt lat="44.08569249830015" lon="10.371009047380575"><ele>349.0</ele><time>2026-05-02T08:46:30Z</time></trkpt><trkpt lat="44.085796209295594" lon="10.37097026008392"><ele>349.0</ele><time>2026-05-02T08:46:31Z</time></trkpt><trkpt lat="44.0858986280639" lon="10.37095642845266"><ele>349.0</ele><time>2026-05-02T08:46:32Z</time></trkpt><trkpt lat="44.08600739853689" lon="10.370968905087617"><ele>349.0</ele><time>2026-05-02T08:46:33Z</time></trkpt><trkpt lat="44.08611115592549" lon="10.370948932926186"><ele>353.4</ele><time>2026-05-02T08:46:34Z</time></trkpt><trkpt lat="44.08621019774936" lon="10.370955336718563"><ele>357.79999999999995</ele><time>2026-05-02T08:46:35Z</time></trkpt><trkpt lat="44.086301645678795" lon="10.370977580850681"><ele>362.20000000000005</ele><time>2026-05-02T08:46:36Z</time></trkpt><trkpt lat="44.08639047926974" lon="10.371036677670007"><ele>366.6</ele><time>2026-05-02T08:46:37Z</time></trkpt><trkpt lat="44.08646041947852" lon="10.371112960429889"><ele>371.0</ele><time>2026-05-02T08:46:38Z</time></trkpt><trkpt lat="44.08650534323024" lon="10.371218939523702"><ele>367.20000000000005</ele><time>2026-05-02T08:46:39Z</time></trkpt><trkpt lat="44.086508431530476" lon="10.371382536675519"><ele>363.40000000000003</ele><time>2026-05-02T08:46:40Z</time></trkpt><trkpt lat="44.086538279986975" lon="10.371497646765487"><ele>359.6</ele><time>2026-05-02T08:46:41Z</time></trkpt><trkpt lat="44.08656270395086" lon="10.37161152344654"><ele>355.8</ele><time>2026-05-02T08:46:42Z</time></trkpt><trkpt lat="44.086632712494946" lon="10.371747363685461"><ele>352.0</ele><time>2026-05-02T08:46:43Z</time></trkpt><trkpt lat="44.08670943140624" lon="10.371850524404005"><ele>352.0</ele><time>2026-05-02T08:46:44Z</time></trkpt><trkpt lat="44.08680335610528" lon="10.371928446661588"><ele>352.0</ele><time>2026-05-02T08:46:45Z</time></trkpt><trkpt lat="44.08689096300355" lon="10.372020450025376"><ele>352.0</ele><time>2026-05-02T08:46:46Z</time></trkpt><trkpt lat="44.0869542196399" lon="10.372111392082356"><ele>352.0</ele><time>2026-05-02T08:46:47Z</time></trkpt><trkpt lat="44.08701235472717" lon="10.37221272321947"><ele>352.0</ele><time>2026-05-02T08:46:48Z</time></trkpt><trkpt lat="44.08707704847828" lon="10.372311344300543"><ele>350.8</ele><time>2026-05-02T08:46:49Z</time></trkpt><trkpt lat="44.0871404788192" lon="10.372393242773155"><ele>349.6</ele><time>2026-05-02T08:46:50Z</time></trkpt><trkpt lat="44.087208258910046" lon="10.372479624892321"><ele>348.40000000000003</ele><time>2026-05-02T08:46:51Z</time></trkpt><trkpt lat="44.08727539645835" lon="10.372571993281122"><ele>347.20000000000005</ele><time>2026-05-02T08:46:52Z</time></trkpt><trkpt lat="44.08733777729398" lon="10.372656176660895"><ele>346.0</ele><time>2026-05-02T08:46:53Z</time></trkpt><trkpt lat="44.08739868327113" lon="10.372750520502404"><ele>344.8</ele><time>2026-05-02T08:46:54Z</time></trkpt><trkpt lat="44.087455696571986" lon="10.372828160448261"><ele>343.6</ele><time>2026-05-02T08:46:55Z</time></trkpt><trkpt lat="44.08751525357298" lon="10.372938967657639"><ele>342.4</ele><time>2026-05-02T08:46:56Z</time></trkpt><trkpt lat="44.08755846118591" lon="10.37306462202897"><ele>341.2</ele><time>2026-05-02T08:46:57Z</time></trkpt><trkpt lat="44.08759197280723" lon="10.373186256597894"><ele>340.0</ele><time>2026-05-02T08:46:58Z</time></trkpt><trkpt lat="44.08763057059245" lon="10.373306789872032"><ele>340.0</ele><time>2026-05-02T08:46:59Z</time></trkpt><trkpt lat="44.087673991855006" lon="10.373433566164781"><ele>340.0</ele><time>2026-05-02T08:47:00Z</time></trkpt><trkpt lat="44.087713697003124" lon="10.373562634810574"><ele>340.0</ele><time>2026-05-02T08:47:01Z</time></trkpt><trkpt lat="44.08774542994463" lon="10.373699662405626"><ele>340.0</ele><time>2026-05-02T08:47:02Z</time></trkpt><trkpt lat="44.087786429778" lon="10.373824170033936"><ele>340.0</ele><time>2026-05-02T08:47:03Z</time></trkpt><trkpt lat="44.087821810771565" lon="10.373955897813337"><ele>339.0</ele><time>2026-05-02T08:47:04Z</time></trkpt><trkpt lat="44.08785478471389" lon="10.374090498813793"><ele>338.0</ele><time>2026-05-02T08:47:05Z</time></trkpt><trkpt lat="44.087883007090426" lon="10.374222486944033"><ele>337.0</ele><time>2026-05-02T08:47:06Z</time></trkpt><trkpt lat="44.087911205888126" lon="10.374343889768225"><ele>336.0</ele><time>2026-05-02T08:47:07Z</time></trkpt><trkpt lat="44.08795147473481" lon="10.374464836241671"><ele>335.0</ele><time>2026-05-02T08:47:08Z</time></trkpt><trkpt lat="44.0879968629475" lon="10.374573725721504"><ele>335.0</ele><time>2026-05-02T08:47:09Z</time></trkpt><trkpt lat="44.08804546118559" lon="10.374678107177537"><ele>335.0</ele><time>2026-05-02T08:47:10Z</time></trkpt><trkpt lat="44.08810286244808" lon="10.374772528556324"><ele>335.0</ele><time>2026-05-02T08:47:11Z</time></trkpt><trkpt lat="44.08817933464474" lon="10.374845045662118"><ele>335.0</ele><time>2026-05-02T08:47:12Z</time></trkpt><trkpt lat="44.08826633900403" lon="10.37489773650858"><ele>335.0</ele><time>2026-05-02T08:47:13Z</time></trkpt><trkpt lat="44.088358680758006" lon="10.374920765957906"><ele>337.8</ele><time>2026-05-02T08:47:14Z</time></trkpt><trkpt lat="44.088454051360436" lon="10.37494718068965"><ele>340.6</ele><time>2026-05-02T08:47:15Z</time></trkpt><trkpt lat="44.088537562168604" lon="10.37498168578139"><ele>343.4</ele><time>2026-05-02T08:47:16Z</time></trkpt><trkpt lat="44.08862883389602" lon="10.374997456578424"><ele>346.2</ele><time>2026-05-02T08:47:17Z</time></trkpt><trkpt lat="44.088716565355035" lon="10.37502326249866"><ele>349.0</ele><time>2026-05-02T08:47:18Z</time></trkpt><trkpt lat="44.088803177638766" lon="10.37505788848081"><ele>349.0</ele><time>2026-05-02T08:47:19Z</time></trkpt><trkpt lat="44.08888407843835" lon="10.375098522091676"><ele>349.0</ele><time>2026-05-02T08:47:20Z</time></trkpt><trkpt lat="44.08897019765662" lon="10.375132267867695"><ele>349.0</ele><time>2026-05-02T08:47:21Z</time></trkpt><trkpt lat="44.08905238119307" lon="10.375190054139592"><ele>349.0</ele><time>2026-05-02T08:47:22Z</time></trkpt><trkpt lat="44.08914630044151" lon="10.375229609005412"><ele>349.0</ele><time>2026-05-02T08:47:23Z</time></trkpt><trkpt lat="44.08923288078855" lon="10.375275236022153"><ele>347.79999999999995</ele><time>2026-05-02T08:47:24Z</time></trkpt><trkpt lat="44.089313703893616" lon="10.375298054848274"><ele>346.59999999999997</ele><time>2026-05-02T08:47:25Z</time></trkpt><trkpt lat="44.089381833961674" lon="10.375341970428911"><ele>345.4</ele><time>2026-05-02T08:47:26Z</time></trkpt><trkpt lat="44.08945289245843" lon="10.375399882952147"><ele>344.2</ele><time>2026-05-02T08:47:27Z</time></trkpt><trkpt lat="44.08955503900976" lon="10.375517890088856"><ele>343.0</ele><time>2026-05-02T08:47:29Z</time></trkpt><trkpt lat="44.08957523690288" lon="10.375624591268533"><ele>343.0</ele><time>2026-05-02T08:47:30Z</time></trkpt><trkpt lat="44.08959540795942" lon="10.375720507144173"><ele>343.0</ele><time>2026-05-02T08:47:31Z</time></trkpt><trkpt lat="44.08959260613106" lon="10.375848429408622"><ele>343.0</ele><time>2026-05-02T08:47:32Z</time></trkpt><trkpt lat="44.089591120932255" lon="10.375955981562232"><ele>343.0</ele><time>2026-05-02T08:47:33Z</time></trkpt><trkpt lat="44.08956505806989" lon="10.376068558826395"><ele>343.0</ele><time>2026-05-02T08:47:34Z</time></trkpt><trkpt lat="44.08950891685665" lon="10.37616579032906"><ele>343.0</ele><time>2026-05-02T08:47:35Z</time></trkpt><trkpt lat="44.089434637379796" lon="10.376231696644092"><ele>343.0</ele><time>2026-05-02T08:47:36Z</time></trkpt><trkpt lat="44.08934934462569" lon="10.376265578634484"><ele>343.0</ele><time>2026-05-02T08:47:37Z</time></trkpt><trkpt lat="44.08927981765051" lon="10.3763422452389"><ele>343.0</ele><time>2026-05-02T08:47:38Z</time></trkpt><trkpt lat="44.08923037069843" lon="10.376449456771264"><ele>343.0</ele><time>2026-05-02T08:47:39Z</time></trkpt><trkpt lat="44.089199777878164" lon="10.376579771936083"><ele>343.0</ele><time>2026-05-02T08:47:40Z</time></trkpt><trkpt lat="44.0891624433139" lon="10.376700048034731"><ele>345.59999999999997</ele><time>2026-05-02T08:47:41Z</time></trkpt><trkpt lat="44.08913532471056" lon="10.376826737349122"><ele>348.2</ele><time>2026-05-02T08:47:42Z</time></trkpt><trkpt lat="44.0890938465856" lon="10.376956103679563"><ele>350.8</ele><time>2026-05-02T08:47:43Z</time></trkpt><trkpt lat="44.08903336831305" lon="10.377086909572983"><ele>353.4</ele><time>2026-05-02T08:47:44Z</time></trkpt><trkpt lat="44.08899145337115" lon="10.377219975524664"><ele>356.0</ele><time>2026-05-02T08:47:45Z</time></trkpt><trkpt lat="44.088941342539876" lon="10.377369003952765"><ele>356.0</ele><time>2026-05-02T08:47:46Z</time></trkpt><trkpt lat="44.088871872779556" lon="10.377504845102582"><ele>356.0</ele><time>2026-05-02T08:47:47Z</time></trkpt><trkpt lat="44.088810166216874" lon="10.377617969769059"><ele>356.0</ele><time>2026-05-02T08:47:48Z</time></trkpt><trkpt lat="44.088755033791045" lon="10.377731418700234"><ele>356.0</ele><time>2026-05-02T08:47:49Z</time></trkpt><trkpt lat="44.08869225577993" lon="10.37783208840342"><ele>356.0</ele><time>2026-05-02T08:47:50Z</time></trkpt><trkpt lat="44.088623020453674" lon="10.377916810117886"><ele>356.0</ele><time>2026-05-02T08:47:51Z</time></trkpt><trkpt lat="44.08854794088513" lon="10.378004549098199"><ele>356.0</ele><time>2026-05-02T08:47:52Z</time></trkpt><trkpt lat="44.088484143309586" lon="10.378089064345556"><ele>356.0</ele><time>2026-05-02T08:47:53Z</time></trkpt><trkpt lat="44.088422731553656" lon="10.378187754022417"><ele>356.0</ele><time>2026-05-02T08:47:54Z</time></trkpt><trkpt lat="44.088375693480614" lon="10.378296550893657"><ele>356.0</ele><time>2026-05-02T08:47:55Z</time></trkpt><trkpt lat="44.08834096403733" lon="10.378403967998887"><ele>355.6666666666667</ele><time>2026-05-02T08:47:56Z</time></trkpt><trkpt lat="44.08831329261165" lon="10.378512340711088"><ele>355.33333333333337</ele><time>2026-05-02T08:47:57Z</time></trkpt><trkpt lat="44.088286058146714" lon="10.37862622720968"><ele>355.0</ele><time>2026-05-02T08:47:58Z</time></trkpt><trkpt lat="44.088287159473246" lon="10.37873575691272"><ele>354.6666666666667</ele><time>2026-05-02T08:47:59Z</time></trkpt><trkpt lat="44.08832392796718" lon="10.378829416364171"><ele>354.3333333333333</ele><time>2026-05-02T08:48:00Z</time></trkpt><trkpt lat="44.08837272545484" lon="10.378914197360363"><ele>354.0</ele><time>2026-05-02T08:48:01Z</time></trkpt><trkpt lat="44.08844438796887" lon="10.37897115883039"><ele>351.0</ele><time>2026-05-02T08:48:02Z</time></trkpt><trkpt lat="44.08853490348981" lon="10.379003582037077"><ele>348.0</ele><time>2026-05-02T08:48:03Z</time></trkpt><trkpt lat="44.08863158190308" lon="10.379006380977668"><ele>345.0</ele><time>2026-05-02T08:48:04Z</time></trkpt><trkpt lat="44.08873013144702" lon="10.379006616642965"><ele>342.0</ele><time>2026-05-02T08:48:05Z</time></trkpt><trkpt lat="44.088831971510395" lon="10.37900565397931"><ele>339.0</ele><time>2026-05-02T08:48:06Z</time></trkpt><trkpt lat="44.08893516920078" lon="10.37901485717374"><ele>339.0</ele><time>2026-05-02T08:48:07Z</time></trkpt><trkpt lat="44.08903807352523" lon="10.379029503946116"><ele>339.0</ele><time>2026-05-02T08:48:08Z</time></trkpt><trkpt lat="44.089142609157875" lon="10.379050359520072"><ele>339.0</ele><time>2026-05-02T08:48:09Z</time></trkpt><trkpt lat="44.08924037130963" lon="10.379103706381404"><ele>339.0</ele><time>2026-05-02T08:48:10Z</time></trkpt><trkpt lat="44.089341882373816" lon="10.379131492576354"><ele>339.0</ele><time>2026-05-02T08:48:11Z</time></trkpt><trkpt lat="44.08943583338713" lon="10.37917758468551"><ele>338.4</ele><time>2026-05-02T08:48:12.001Z</time></trkpt><trkpt lat="44.08952538632601" lon="10.379239224046364"><ele>337.79999999999995</ele><time>2026-05-02T08:48:13.001Z</time></trkpt><trkpt lat="44.08960041659343" lon="10.379331103057014"><ele>337.20000000000005</ele><time>2026-05-02T08:48:14.001Z</time></trkpt><trkpt lat="44.089667819297276" lon="10.379435461636776"><ele>336.6</ele><time>2026-05-02T08:48:15.001Z</time></trkpt><trkpt lat="44.089715814301194" lon="10.379556983813861"><ele>336.0</ele><time>2026-05-02T08:48:16.001Z</time></trkpt><trkpt lat="44.0897477334409" lon="10.37968507476669"><ele>336.0</ele><time>2026-05-02T08:48:17.001Z</time></trkpt><trkpt lat="44.089781632016845" lon="10.379818099992402"><ele>336.0</ele><time>2026-05-02T08:48:18.001Z</time></trkpt><trkpt lat="44.08981964570973" lon="10.379938067031528"><ele>336.0</ele><time>2026-05-02T08:48:19.001Z</time></trkpt><trkpt lat="44.08986040911279" lon="10.380048726494365"><ele>336.0</ele><time>2026-05-02T08:48:20.001Z</time></trkpt><trkpt lat="44.08990434184754" lon="10.380162364601158"><ele>336.0</ele><time>2026-05-02T08:48:21.001Z</time></trkpt><trkpt lat="44.08992393053427" lon="10.380293999719713"><ele>336.0</ele><time>2026-05-02T08:48:22.001Z</time></trkpt><trkpt lat="44.08990681977004" lon="10.380414549623332"><ele>336.0</ele><time>2026-05-02T08:48:23.001Z</time></trkpt><trkpt lat="44.08986477308107" lon="10.38053703886371"><ele>336.0</ele><time>2026-05-02T08:48:24.001Z</time></trkpt><trkpt lat="44.08981177794937" lon="10.380649886116666"><ele>336.0</ele><time>2026-05-02T08:48:25.001Z</time></trkpt><trkpt lat="44.08976144529301" lon="10.380764019291806"><ele>336.0</ele><time>2026-05-02T08:48:26.001Z</time></trkpt><trkpt lat="44.08970818273271" lon="10.380882243603942"><ele>336.8</ele><time>2026-05-02T08:48:27.001Z</time></trkpt><trkpt lat="44.08965662739496" lon="10.380993623885923"><ele>337.6</ele><time>2026-05-02T08:48:28.001Z</time></trkpt><trkpt lat="44.08961648652948" lon="10.381117597958898"><ele>338.4</ele><time>2026-05-02T08:48:29.001Z</time></trkpt><trkpt lat="44.089589522749655" lon="10.381292878610925"><ele>339.2</ele><time>2026-05-02T08:48:30.001Z</time></trkpt><trkpt lat="44.089572725647265" lon="10.381455052919703"><ele>340.0</ele><time>2026-05-02T08:48:31.001Z</time></trkpt><trkpt lat="44.08954515293808" lon="10.381613299677236"><ele>340.0</ele><time>2026-05-02T08:48:33.001Z</time></trkpt><trkpt lat="44.08952100292019" lon="10.381748308112112"><ele>340.0</ele><time>2026-05-02T08:48:34.001Z</time></trkpt><trkpt lat="44.089505935552836" lon="10.381892515691963"><ele>340.0</ele><time>2026-05-02T08:48:35.001Z</time></trkpt><trkpt lat="44.08947707631005" lon="10.382028774118936"><ele>340.0</ele><time>2026-05-02T08:48:36.001Z</time></trkpt><trkpt lat="44.08946129415722" lon="10.382149697162758"><ele>340.0</ele><time>2026-05-02T08:48:37.001Z</time></trkpt><trkpt lat="44.08944235888611" lon="10.382252101565774"><ele>339.0</ele><time>2026-05-02T08:48:38.001Z</time></trkpt><trkpt lat="44.08942326150649" lon="10.382355554436558"><ele>338.0</ele><time>2026-05-02T08:48:39.001Z</time></trkpt><trkpt lat="44.08940472291486" lon="10.382466693315969"><ele>337.0</ele><time>2026-05-02T08:48:40.001Z</time></trkpt><trkpt lat="44.089387693116244" lon="10.382583890682263"><ele>336.0</ele><time>2026-05-02T08:48:41.001Z</time></trkpt><trkpt lat="44.08938224009105" lon="10.382709510116912"><ele>335.0</ele><time>2026-05-02T08:48:42.001Z</time></trkpt><trkpt lat="44.08938869994728" lon="10.382834272919192"><ele>334.0</ele><time>2026-05-02T08:48:43.001Z</time></trkpt><trkpt lat="44.089412518864556" lon="10.38296228770147"><ele>334.2</ele><time>2026-05-02T08:48:44.001Z</time></trkpt><trkpt lat="44.08944506858173" lon="10.38308427406054"><ele>334.4</ele><time>2026-05-02T08:48:45.001Z</time></trkpt><trkpt lat="44.08948133655132" lon="10.38320098362152"><ele>334.6</ele><time>2026-05-02T08:48:46.001Z</time></trkpt><trkpt lat="44.089527942416154" lon="10.38331456859733"><ele>334.8</ele><time>2026-05-02T08:48:47.001Z</time></trkpt><trkpt lat="44.08958082890476" lon="10.383423296127724"><ele>335.0</ele><time>2026-05-02T08:48:48.001Z</time></trkpt><trkpt lat="44.089646027930314" lon="10.383526981793988"><ele>335.0</ele><time>2026-05-02T08:48:49.001Z</time></trkpt><trkpt lat="44.089728141856455" lon="10.383612424623466"><ele>335.0</ele><time>2026-05-02T08:48:50.001Z</time></trkpt><trkpt lat="44.089810531839156" lon="10.383694687550234"><ele>335.0</ele><time>2026-05-02T08:48:51.001Z</time></trkpt><trkpt lat="44.08988091753736" lon="10.383785470094217"><ele>335.0</ele><time>2026-05-02T08:48:52.001Z</time></trkpt><trkpt lat="44.089953371330594" lon="10.383883050277088"><ele>335.0</ele><time>2026-05-02T08:48:53.001Z</time></trkpt><trkpt lat="44.0900351113456" lon="10.383973870079567"><ele>334.1666666666667</ele><time>2026-05-02T08:48:54.001Z</time></trkpt><trkpt lat="44.090112568042976" lon="10.384056162042432"><ele>333.33333333333337</ele><time>2026-05-02T08:48:55.001Z</time></trkpt><trkpt lat="44.09018315822843" lon="10.384122452004965"><ele>332.5</ele><time>2026-05-02T08:48:56.001Z</time></trkpt><trkpt lat="44.09025667038673" lon="10.384187955130308"><ele>331.6666666666667</ele><time>2026-05-02T08:48:57.001Z</time></trkpt><trkpt lat="44.090336630698765" lon="10.38423464283649"><ele>330.8333333333333</ele><time>2026-05-02T08:48:58.001Z</time></trkpt><trkpt lat="44.09041897662422" lon="10.38428262663079"><ele>330.0</ele><time>2026-05-02T08:48:59.001Z</time></trkpt><trkpt lat="44.09050537986603" lon="10.384324835766678"><ele>330.0</ele><time>2026-05-02T08:49:00.001Z</time></trkpt><trkpt lat="44.090593998000706" lon="10.384360639151339"><ele>330.0</ele><time>2026-05-02T08:49:01.001Z</time></trkpt><trkpt lat="44.090678174180965" lon="10.384390614757423"><ele>330.0</ele><time>2026-05-02T08:49:02.001Z</time></trkpt><trkpt lat="44.09076288436703" lon="10.3844193010544"><ele>330.0</ele><time>2026-05-02T08:49:03.001Z</time></trkpt><trkpt lat="44.09084718366312" lon="10.384453580051836"><ele>330.0</ele><time>2026-05-02T08:49:04.001Z</time></trkpt><trkpt lat="44.09092977128495" lon="10.384480655482827"><ele>330.0</ele><time>2026-05-02T08:49:05.001Z</time></trkpt><trkpt lat="44.09101155802635" lon="10.384511677705643"><ele>331.2</ele><time>2026-05-02T08:49:06.001Z</time></trkpt><trkpt lat="44.09109634698497" lon="10.3845552302209"><ele>332.4</ele><time>2026-05-02T08:49:07.001Z</time></trkpt><trkpt lat="44.09117889268935" lon="10.384598261229419"><ele>333.6</ele><time>2026-05-02T08:49:08.001Z</time></trkpt><trkpt lat="44.09126794856151" lon="10.384645242398932"><ele>334.8</ele><time>2026-05-02T08:49:09.001Z</time></trkpt><trkpt lat="44.091356066547796" lon="10.38469890169806"><ele>336.0</ele><time>2026-05-02T08:49:10.001Z</time></trkpt><trkpt lat="44.09143709541661" lon="10.384750499884403"><ele>335.0</ele><time>2026-05-02T08:49:11.001Z</time></trkpt><trkpt lat="44.0915182476892" lon="10.384791521974375"><ele>334.0</ele><time>2026-05-02T08:49:12.001Z</time></trkpt><trkpt lat="44.091600874903406" lon="10.384833511267317"><ele>333.0</ele><time>2026-05-02T08:49:13.001Z</time></trkpt><trkpt lat="44.09169773379299" lon="10.3848680283463"><ele>332.0</ele><time>2026-05-02T08:49:14.001Z</time></trkpt><trkpt lat="44.09176906169175" lon="10.384905736631797"><ele>331.0</ele><time>2026-05-02T08:49:15.001Z</time></trkpt><trkpt lat="44.09184936478714" lon="10.384990143349132"><ele>331.0</ele><time>2026-05-02T08:49:16.001Z</time></trkpt><trkpt lat="44.09192995681004" lon="10.385053657114263"><ele>331.0</ele><time>2026-05-02T08:49:17.001Z</time></trkpt><trkpt lat="44.09201024539876" lon="10.385140584231655"><ele>331.0</ele><time>2026-05-02T08:49:18.001Z</time></trkpt><trkpt lat="44.09210272239876" lon="10.38523246837402"><ele>331.0</ele><time>2026-05-02T08:49:19.001Z</time></trkpt><trkpt lat="44.092187540209245" lon="10.385305894150974"><ele>331.0</ele><time>2026-05-02T08:49:20.001Z</time></trkpt><trkpt lat="44.09228048604226" lon="10.385390612435463"><ele>331.0</ele><time>2026-05-02T08:49:21.001Z</time></trkpt><trkpt lat="44.09238325710516" lon="10.385445002535027"><ele>331.0</ele><time>2026-05-02T08:49:22.001Z</time></trkpt><trkpt lat="44.0924903366064" lon="10.385468208010227"><ele>331.0</ele><time>2026-05-02T08:49:23.001Z</time></trkpt><trkpt lat="44.09259654608849" lon="10.3855213565577"><ele>331.0</ele><time>2026-05-02T08:49:24.001Z</time></trkpt><trkpt lat="44.092680690973715" lon="10.385577062027783"><ele>331.0</ele><time>2026-05-02T08:49:25.001Z</time></trkpt><trkpt lat="44.092763842236224" lon="10.38561704349549"><ele>331.6</ele><time>2026-05-02T08:49:26.001Z</time></trkpt><trkpt lat="44.0928524778443" lon="10.38566964893936"><ele>332.20000000000005</ele><time>2026-05-02T08:49:27Z</time></trkpt><trkpt lat="44.09295751772708" lon="10.385692440191498"><ele>332.79999999999995</ele><time>2026-05-02T08:49:28Z</time></trkpt><trkpt lat="44.09306490649882" lon="10.385713121120427"><ele>333.4</ele><time>2026-05-02T08:49:29Z</time></trkpt><trkpt lat="44.09316504388369" lon="10.385739250375362"><ele>334.0</ele><time>2026-05-02T08:49:30Z</time></trkpt><trkpt lat="44.093259563846615" lon="10.385755065870926"><ele>334.0</ele><time>2026-05-02T08:49:31Z</time></trkpt><trkpt lat="44.09335363908505" lon="10.385773278443821"><ele>334.0</ele><time>2026-05-02T08:49:32Z</time></trkpt><trkpt lat="44.09344601271514" lon="10.385813529691788"><ele>334.0</ele><time>2026-05-02T08:49:33Z</time></trkpt><trkpt lat="44.09353386836287" lon="10.385823882082883"><ele>334.0</ele><time>2026-05-02T08:49:34Z</time></trkpt><trkpt lat="44.09362438989081" lon="10.385833861819364"><ele>334.0</ele><time>2026-05-02T08:49:35Z</time></trkpt><trkpt lat="44.09370568207314" lon="10.3858474894019"><ele>334.0</ele><time>2026-05-02T08:49:36Z</time></trkpt><trkpt lat="44.093793319831626" lon="10.385864193828585"><ele>334.0</ele><time>2026-05-02T08:49:37Z</time></trkpt><trkpt lat="44.093891270072945" lon="10.385895551068613"><ele>334.0</ele><time>2026-05-02T08:49:38Z</time></trkpt><trkpt lat="44.09400093450225" lon="10.385923812083261"><ele>334.0</ele><time>2026-05-02T08:49:39Z</time></trkpt><trkpt lat="44.09409751605982" lon="10.385954190609636"><ele>334.0</ele><time>2026-05-02T08:49:40Z</time></trkpt><trkpt lat="44.09419735534427" lon="10.38598853078062"><ele>335.4</ele><time>2026-05-02T08:49:41Z</time></trkpt><trkpt lat="44.09429397081355" lon="10.38602518812952"><ele>336.79999999999995</ele><time>2026-05-02T08:49:42Z</time></trkpt><trkpt lat="44.09439073260091" lon="10.38604883674357"><ele>338.20000000000005</ele><time>2026-05-02T08:49:43Z</time></trkpt><trkpt lat="44.0944766495749" lon="10.386083766077311"><ele>339.6</ele><time>2026-05-02T08:49:44Z</time></trkpt><trkpt lat="44.0945730330104" lon="10.386082146516822"><ele>341.0</ele><time>2026-05-02T08:49:45Z</time></trkpt><trkpt lat="44.094669200806656" lon="10.386070529675242"><ele>341.0</ele><time>2026-05-02T08:49:46Z</time></trkpt><trkpt lat="44.09476844581177" lon="10.386065530041636"><ele>341.0</ele><time>2026-05-02T08:49:47Z</time></trkpt><trkpt lat="44.094867695860735" lon="10.386059948858755"><ele>341.0</ele><time>2026-05-02T08:49:48Z</time></trkpt><trkpt lat="44.09496496087694" lon="10.386062933917714"><ele>341.0</ele><time>2026-05-02T08:49:49Z</time></trkpt><trkpt lat="44.095063573886144" lon="10.386057909559224"><ele>341.0</ele><time>2026-05-02T08:49:50Z</time></trkpt><trkpt lat="44.095162586430156" lon="10.386052614653721"><ele>344.0</ele><time>2026-05-02T08:49:51Z</time></trkpt><trkpt lat="44.095256917639006" lon="10.386049069810891"><ele>347.0</ele><time>2026-05-02T08:49:52Z</time></trkpt><trkpt lat="44.095353753646194" lon="10.386039028909716"><ele>350.0</ele><time>2026-05-02T08:49:53Z</time></trkpt><trkpt lat="44.09545057711848" lon="10.386014195064629"><ele>353.0</ele><time>2026-05-02T08:49:54Z</time></trkpt><trkpt lat="44.09555133495456" lon="10.385975154032629"><ele>356.0</ele><time>2026-05-02T08:49:55Z</time></trkpt><trkpt lat="44.09565307347049" lon="10.385956005088987"><ele>356.0</ele><time>2026-05-02T08:49:56Z</time></trkpt><trkpt lat="44.09574981023585" lon="10.385919235920797"><ele>356.0</ele><time>2026-05-02T08:49:57Z</time></trkpt><trkpt lat="44.09584623955508" lon="10.385882317665374"><ele>356.0</ele><time>2026-05-02T08:49:58Z</time></trkpt><trkpt lat="44.09592510751962" lon="10.385834874724637"><ele>356.0</ele><time>2026-05-02T08:49:59Z</time></trkpt><trkpt lat="44.096001088445156" lon="10.385763307677212"><ele>356.0</ele><time>2026-05-02T08:50:00Z</time></trkpt><trkpt lat="44.09608008322378" lon="10.38569318035557"><ele>356.75</ele><time>2026-05-02T08:50:01Z</time></trkpt><trkpt lat="44.09615936552954" lon="10.385550570764892"><ele>357.5</ele><time>2026-05-02T08:50:02Z</time></trkpt><trkpt lat="44.096199126449015" lon="10.385361797358636"><ele>358.25</ele><time>2026-05-02T08:50:04Z</time></trkpt><trkpt lat="44.09622039020401" lon="10.385236235161722"><ele>359.0</ele><time>2026-05-02T08:50:05Z</time></trkpt><trkpt lat="44.09623240324115" lon="10.385083180856245"><ele>359.0</ele><time>2026-05-02T08:50:06Z</time></trkpt><trkpt lat="44.09623704707226" lon="10.384978421152521"><ele>359.0</ele><time>2026-05-02T08:50:07Z</time></trkpt><trkpt lat="44.09624456983983" lon="10.384850201371314"><ele>359.0</ele><time>2026-05-02T08:50:08Z</time></trkpt><trkpt lat="44.09626658455209" lon="10.384729734799413"><ele>359.0</ele><time>2026-05-02T08:50:09Z</time></trkpt><trkpt lat="44.096312571170536" lon="10.384624946546298"><ele>359.0</ele><time>2026-05-02T08:50:10Z</time></trkpt><trkpt lat="44.096381677208036" lon="10.384539132867912"><ele>359.0</ele><time>2026-05-02T08:50:11Z</time></trkpt><trkpt lat="44.09645221132461" lon="10.384445964759902"><ele>355.6</ele><time>2026-05-02T08:50:12Z</time></trkpt><trkpt lat="44.09652831559949" lon="10.384357531974612"><ele>352.2</ele><time>2026-05-02T08:50:13Z</time></trkpt><trkpt lat="44.0966155302657" lon="10.384283563834407"><ele>348.8</ele><time>2026-05-02T08:50:14Z</time></trkpt><trkpt lat="44.09670239665196" lon="10.38420616261608"><ele>345.40000000000003</ele><time>2026-05-02T08:50:15Z</time></trkpt><trkpt lat="44.096789675283425" lon="10.384132891141835"><ele>342.0</ele><time>2026-05-02T08:50:16Z</time></trkpt><trkpt lat="44.096873589705154" lon="10.384065905088411"><ele>342.0</ele><time>2026-05-02T08:50:17Z</time></trkpt><trkpt lat="44.09696416702631" lon="10.383998831036884"><ele>342.0</ele><time>2026-05-02T08:50:18Z</time></trkpt><trkpt lat="44.09705243592277" lon="10.383941727905704"><ele>342.0</ele><time>2026-05-02T08:50:19Z</time></trkpt><trkpt lat="44.097152991994484" lon="10.383889657406685"><ele>342.0</ele><time>2026-05-02T08:50:20Z</time></trkpt><trkpt lat="44.097259282603474" lon="10.383854193548848"><ele>342.0</ele><time>2026-05-02T08:50:21Z</time></trkpt><trkpt lat="44.09735733801277" lon="10.383835341664946"><ele>344.40000000000003</ele><time>2026-05-02T08:50:22Z</time></trkpt><trkpt lat="44.09746343931249" lon="10.383822311121873"><ele>346.8</ele><time>2026-05-02T08:50:23Z</time></trkpt><trkpt lat="44.0975582589476" lon="10.383817439501982"><ele>349.2</ele><time>2026-05-02T08:50:24Z</time></trkpt><trkpt lat="44.09766428379421" lon="10.383811795419328"><ele>351.6</ele><time>2026-05-02T08:50:25Z</time></trkpt><trkpt lat="44.09776321999993" lon="10.383800379044668"><ele>354.0</ele><time>2026-05-02T08:50:26Z</time></trkpt><trkpt lat="44.09786367049781" lon="10.383799795241062"><ele>354.0</ele><time>2026-05-02T08:50:27Z</time></trkpt><trkpt lat="44.097968474461226" lon="10.38379199881467"><ele>354.0</ele><time>2026-05-02T08:50:28Z</time></trkpt><trkpt lat="44.09806940666893" lon="10.383771427795102"><ele>354.0</ele><time>2026-05-02T08:50:29Z</time></trkpt><trkpt lat="44.09817417634402" lon="10.38374584427566"><ele>354.0</ele><time>2026-05-02T08:50:30Z</time></trkpt><trkpt lat="44.09827746599056" lon="10.383724268554818"><ele>354.0</ele><time>2026-05-02T08:50:31Z</time></trkpt><trkpt lat="44.098380546910704" lon="10.383707435176875"><ele>350.4</ele><time>2026-05-02T08:50:32Z</time></trkpt><trkpt lat="44.098473448998256" lon="10.383684690525543"><ele>346.79999999999995</ele><time>2026-05-02T08:50:33Z</time></trkpt><trkpt lat="44.09857940344101" lon="10.383651769392108"><ele>343.20000000000005</ele><time>2026-05-02T08:50:34Z</time></trkpt><trkpt lat="44.09867212954301" lon="10.383577411038532"><ele>339.6</ele><time>2026-05-02T08:50:35Z</time></trkpt><trkpt lat="44.09876482125583" lon="10.383519423482433"><ele>336.0</ele><time>2026-05-02T08:50:36Z</time></trkpt><trkpt lat="44.09887289618844" lon="10.383459608168002"><ele>336.0</ele><time>2026-05-02T08:50:37Z</time></trkpt><trkpt lat="44.09896797720788" lon="10.38341034458906"><ele>336.0</ele><time>2026-05-02T08:50:38Z</time></trkpt><trkpt lat="44.099077286927994" lon="10.383365643032592"><ele>336.0</ele><time>2026-05-02T08:50:39Z</time></trkpt><trkpt lat="44.09915881349534" lon="10.383300069443088"><ele>336.0</ele><time>2026-05-02T08:50:40Z</time></trkpt><trkpt lat="44.09924059124353" lon="10.383235477211416"><ele>336.0</ele><time>2026-05-02T08:50:41Z</time></trkpt><trkpt lat="44.099339763589605" lon="10.383187971986063"><ele>333.0</ele><time>2026-05-02T08:50:42Z</time></trkpt><trkpt lat="44.09942171184215" lon="10.383151267847882"><ele>330.0</ele><time>2026-05-02T08:50:43.001Z</time></trkpt><trkpt lat="44.099497291685815" lon="10.383130360429748"><ele>327.0</ele><time>2026-05-02T08:50:44.001Z</time></trkpt><trkpt lat="44.099585642061896" lon="10.383154494860474"><ele>324.0</ele><time>2026-05-02T08:50:45.001Z</time></trkpt><trkpt lat="44.09966759462157" lon="10.383228585621866"><ele>321.0</ele><time>2026-05-02T08:50:46.001Z</time></trkpt><trkpt lat="44.09972591032278" lon="10.383336813696381"><ele>318.0</ele><time>2026-05-02T08:50:47.001Z</time></trkpt><trkpt lat="44.09978560283057" lon="10.383438513417678"><ele>318.0</ele><time>2026-05-02T08:50:48.001Z</time></trkpt><trkpt lat="44.099860475053745" lon="10.38349967586309"><ele>318.0</ele><time>2026-05-02T08:50:49.001Z</time></trkpt><trkpt lat="44.099927019080425" lon="10.383563001795656"><ele>318.0</ele><time>2026-05-02T08:50:50.001Z</time></trkpt><trkpt lat="44.10002672064418" lon="10.383597080808057"><ele>318.0</ele><time>2026-05-02T08:50:51.001Z</time></trkpt><trkpt lat="44.100117877915785" lon="10.383634501410318"><ele>318.0</ele><time>2026-05-02T08:50:52.001Z</time></trkpt><trkpt lat="44.10022267643145" lon="10.383649432449841"><ele>316.2</ele><time>2026-05-02T08:50:53.001Z</time></trkpt><trkpt lat="44.10031153834244" lon="10.383645431295601"><ele>314.4</ele><time>2026-05-02T08:50:54.001Z</time></trkpt><trkpt lat="44.100393708996634" lon="10.383666588219512"><ele>312.59999999999997</ele><time>2026-05-02T08:50:55.001Z</time></trkpt><trkpt lat="44.10047918887526" lon="10.38369946064924"><ele>310.8</ele><time>2026-05-02T08:50:56.001Z</time></trkpt><trkpt lat="44.100589397751634" lon="10.383786283959175"><ele>309.0</ele><time>2026-05-02T08:50:57.001Z</time></trkpt><trkpt lat="44.100661911186876" lon="10.383896017574221"><ele>311.2</ele><time>2026-05-02T08:50:58.001Z</time></trkpt><trkpt lat="44.10072971024232" lon="10.383997619859802"><ele>313.4</ele><time>2026-05-02T08:50:59.001Z</time></trkpt><trkpt lat="44.10082111792299" lon="10.384072129889208"><ele>315.6</ele><time>2026-05-02T08:51:00.001Z</time></trkpt><trkpt lat="44.10088885786177" lon="10.384163395779153"><ele>317.8</ele><time>2026-05-02T08:51:01.001Z</time></trkpt><trkpt lat="44.10096954468629" lon="10.384255147220774"><ele>320.0</ele><time>2026-05-02T08:51:02.001Z</time></trkpt><trkpt lat="44.10105913149097" lon="10.384344132030291"><ele>320.0</ele><time>2026-05-02T08:51:03.001Z</time></trkpt><trkpt lat="44.10116196641891" lon="10.384392613474176"><ele>320.0</ele><time>2026-05-02T08:51:04.001Z</time></trkpt><trkpt lat="44.10122762719881" lon="10.384489550885858"><ele>320.0</ele><time>2026-05-02T08:51:05.001Z</time></trkpt><trkpt lat="44.101314072620525" lon="10.384577051246987"><ele>320.0</ele><time>2026-05-02T08:51:06.001Z</time></trkpt><trkpt lat="44.10141445556319" lon="10.384657749914913"><ele>320.0</ele><time>2026-05-02T08:51:07.001Z</time></trkpt><trkpt lat="44.10151165236617" lon="10.384730830302516"><ele>320.6666666666667</ele><time>2026-05-02T08:51:08.001Z</time></trkpt><trkpt lat="44.10160070646612" lon="10.384804442424501"><ele>321.33333333333337</ele><time>2026-05-02T08:51:09.001Z</time></trkpt><trkpt lat="44.10169490044892" lon="10.384865104696193"><ele>322.0</ele><time>2026-05-02T08:51:10.001Z</time></trkpt><trkpt lat="44.101765350520466" lon="10.384931031866374"><ele>322.6666666666667</ele><time>2026-05-02T08:51:11.001Z</time></trkpt><trkpt lat="44.10182869206936" lon="10.384968670800715"><ele>323.3333333333333</ele><time>2026-05-02T08:51:12.001Z</time></trkpt><trkpt lat="44.10189937376359" lon="10.384998692079595"><ele>324.0</ele><time>2026-05-02T08:51:13.001Z</time></trkpt><trkpt lat="44.10194928470279" lon="10.385052272570615"><ele>324.0</ele><time>2026-05-02T08:51:14.001Z</time></trkpt><trkpt lat="44.10207679417282" lon="10.385152363587459"><ele>324.0</ele><time>2026-05-02T08:51:16.001Z</time></trkpt><trkpt lat="44.102154195280164" lon="10.385215751011161"><ele>324.0</ele><time>2026-05-02T08:51:17.001Z</time></trkpt><trkpt lat="44.10222682394782" lon="10.385280880756216"><ele>324.0</ele><time>2026-05-02T08:51:18.001Z</time></trkpt><trkpt lat="44.10230068944278" lon="10.385337609268753"><ele>324.0</ele><time>2026-05-02T08:51:19.001Z</time></trkpt><trkpt lat="44.10235911015441" lon="10.385430144752922"><ele>320.59999999999997</ele><time>2026-05-02T08:51:20.001Z</time></trkpt><trkpt lat="44.10241171341746" lon="10.38554597180645"><ele>317.2</ele><time>2026-05-02T08:51:21.001Z</time></trkpt><trkpt lat="44.10245279194185" lon="10.38567074996084"><ele>313.79999999999995</ele><time>2026-05-02T08:51:22.001Z</time></trkpt><trkpt lat="44.102471061575194" lon="10.385802153536005"><ele>310.4</ele><time>2026-05-02T08:51:23.001Z</time></trkpt><trkpt lat="44.10250190212378" lon="10.385933718319285"><ele>307.0</ele><time>2026-05-02T08:51:24.001Z</time></trkpt><trkpt lat="44.102537837071964" lon="10.386063222685262"><ele>307.0</ele><time>2026-05-02T08:51:25.001Z</time></trkpt><trkpt lat="44.10256953698401" lon="10.386179575177028"><ele>307.0</ele><time>2026-05-02T08:51:26.001Z</time></trkpt><trkpt lat="44.10259637032084" lon="10.386310688659409"><ele>307.0</ele><time>2026-05-02T08:51:27.001Z</time></trkpt><trkpt lat="44.102626467716966" lon="10.386444296597018"><ele>307.0</ele><time>2026-05-02T08:51:28.001Z</time></trkpt><trkpt lat="44.10264711160066" lon="10.386572909037206"><ele>307.0</ele><time>2026-05-02T08:51:29.001Z</time></trkpt><trkpt lat="44.10267359485612" lon="10.386708772405786"><ele>306.8333333333333</ele><time>2026-05-02T08:51:30.001Z</time></trkpt><trkpt lat="44.10270167189184" lon="10.386832970718663"><ele>306.66666666666663</ele><time>2026-05-02T08:51:31.001Z</time></trkpt><trkpt lat="44.10273148951324" lon="10.386950743544404"><ele>306.5</ele><time>2026-05-02T08:51:32.001Z</time></trkpt><trkpt lat="44.10275637486016" lon="10.387069824968421"><ele>306.3333333333333</ele><time>2026-05-02T08:51:33Z</time></trkpt><trkpt lat="44.10275775863796" lon="10.387188642358074"><ele>306.1666666666667</ele><time>2026-05-02T08:51:34Z</time></trkpt><trkpt lat="44.102761957610674" lon="10.387314841426397"><ele>306.0</ele><time>2026-05-02T08:51:35Z</time></trkpt><trkpt lat="44.10276361066461" lon="10.387438397807946"><ele>306.0</ele><time>2026-05-02T08:51:36Z</time></trkpt><trkpt lat="44.102759912223824" lon="10.38756713506003"><ele>306.0</ele><time>2026-05-02T08:51:37Z</time></trkpt><trkpt lat="44.102750080386244" lon="10.387702043976377"><ele>306.0</ele><time>2026-05-02T08:51:38Z</time></trkpt><trkpt lat="44.102727671986386" lon="10.38783745235571"><ele>306.0</ele><time>2026-05-02T08:51:39Z</time></trkpt><trkpt lat="44.10270499428678" lon="10.387974390200535"><ele>306.0</ele><time>2026-05-02T08:51:40Z</time></trkpt><trkpt lat="44.10267836099795" lon="10.388118711019597"><ele>305.0</ele><time>2026-05-02T08:51:41Z</time></trkpt><trkpt lat="44.10265414950536" lon="10.388263471605008"><ele>304.0</ele><time>2026-05-02T08:51:42Z</time></trkpt><trkpt lat="44.10262673318536" lon="10.388398763010429"><ele>303.0</ele><time>2026-05-02T08:51:43Z</time></trkpt><trkpt lat="44.10259733206149" lon="10.388542667957836"><ele>302.0</ele><time>2026-05-02T08:51:44Z</time></trkpt><trkpt lat="44.10256780712946" lon="10.38868973305006"><ele>301.0</ele><time>2026-05-02T08:51:45Z</time></trkpt><trkpt lat="44.10254212851139" lon="10.388835783888435"><ele>300.2</ele><time>2026-05-02T08:51:46Z</time></trkpt><trkpt lat="44.10251924723904" lon="10.388980409219672"><ele>299.40000000000003</ele><time>2026-05-02T08:51:47Z</time></trkpt><trkpt lat="44.102497514216786" lon="10.389118433665745"><ele>298.6</ele><time>2026-05-02T08:51:48Z</time></trkpt><trkpt lat="44.10246969993909" lon="10.389250083521855"><ele>297.8</ele><time>2026-05-02T08:51:49Z</time></trkpt><trkpt lat="44.102447705857074" lon="10.389376947824427"><ele>297.0</ele><time>2026-05-02T08:51:50Z</time></trkpt><trkpt lat="44.10242447271872" lon="10.389503898421713"><ele>297.8</ele><time>2026-05-02T08:51:51Z</time></trkpt><trkpt lat="44.10240462426187" lon="10.389630599172778"><ele>298.6</ele><time>2026-05-02T08:51:52Z</time></trkpt><trkpt lat="44.10239138550204" lon="10.389763424064794"><ele>299.40000000000003</ele><time>2026-05-02T08:51:53Z</time></trkpt><trkpt lat="44.10236359765311" lon="10.38988822609492"><ele>300.2</ele><time>2026-05-02T08:51:54Z</time></trkpt><trkpt lat="44.10234314186568" lon="10.390016623173002"><ele>301.0</ele><time>2026-05-02T08:51:55Z</time></trkpt><trkpt lat="44.10232272523711" lon="10.390152880471597"><ele>301.0</ele><time>2026-05-02T08:51:56Z</time></trkpt><trkpt lat="44.10230118997536" lon="10.390285427765829"><ele>301.0</ele><time>2026-05-02T08:51:57Z</time></trkpt><trkpt lat="44.10227579643313" lon="10.390415071834154"><ele>301.0</ele><time>2026-05-02T08:51:58Z</time></trkpt><trkpt lat="44.10225433513089" lon="10.390538386764604"><ele>301.0</ele><time>2026-05-02T08:51:59Z</time></trkpt><trkpt lat="44.10222936309861" lon="10.390665009818855"><ele>301.0</ele><time>2026-05-02T08:52:00Z</time></trkpt><trkpt lat="44.10220728135707" lon="10.3907915504054"><ele>300.6</ele><time>2026-05-02T08:52:01Z</time></trkpt><trkpt lat="44.10219382538089" lon="10.390923266368565"><ele>300.20000000000005</ele><time>2026-05-02T08:52:02Z</time></trkpt><trkpt lat="44.10215967160455" lon="10.391034615915887"><ele>299.79999999999995</ele><time>2026-05-02T08:52:03Z</time></trkpt><trkpt lat="44.10213712553876" lon="10.391154628035784"><ele>299.4</ele><time>2026-05-02T08:52:04Z</time></trkpt><trkpt lat="44.1021159381246" lon="10.391280886324859"><ele>299.0</ele><time>2026-05-02T08:52:05Z</time></trkpt><trkpt lat="44.1021060117104" lon="10.391405913191651"><ele>298.5</ele><time>2026-05-02T08:52:06Z</time></trkpt><trkpt lat="44.102088997526714" lon="10.391530238383586"><ele>298.0</ele><time>2026-05-02T08:52:07Z</time></trkpt><trkpt lat="44.10207882829992" lon="10.391645224299689"><ele>297.5</ele><time>2026-05-02T08:52:08Z</time></trkpt><trkpt lat="44.102072050583665" lon="10.391755777434197"><ele>297.0</ele><time>2026-05-02T08:52:09Z</time></trkpt><trkpt lat="44.10206645801585" lon="10.3918612635915"><ele>296.5</ele><time>2026-05-02T08:52:10Z</time></trkpt><trkpt lat="44.10207312445204" lon="10.391969969127722"><ele>296.0</ele><time>2026-05-02T08:52:11Z</time></trkpt><trkpt lat="44.102087316389046" lon="10.392084928215283"><ele>296.0</ele><time>2026-05-02T08:52:12Z</time></trkpt><trkpt lat="44.10210496241526" lon="10.392195599463301"><ele>296.0</ele><time>2026-05-02T08:52:13Z</time></trkpt><trkpt lat="44.102116159772734" lon="10.392316867040137"><ele>296.0</ele><time>2026-05-02T08:52:14Z</time></trkpt><trkpt lat="44.102145853629736" lon="10.39244524653336"><ele>296.0</ele><time>2026-05-02T08:52:15Z</time></trkpt><trkpt lat="44.1021783631131" lon="10.39256413749442"><ele>296.0</ele><time>2026-05-02T08:52:16Z</time></trkpt><trkpt lat="44.10219139824917" lon="10.392688948269495"><ele>296.0</ele><time>2026-05-02T08:52:17Z</time></trkpt><trkpt lat="44.10220428282432" lon="10.392824754788172"><ele>296.0</ele><time>2026-05-02T08:52:18Z</time></trkpt><trkpt lat="44.10222496395922" lon="10.392966293678592"><ele>296.0</ele><time>2026-05-02T08:52:19Z</time></trkpt><trkpt lat="44.102245904860595" lon="10.39310798342018"><ele>296.0</ele><time>2026-05-02T08:52:20Z</time></trkpt><trkpt lat="44.10227039882896" lon="10.393249148851243"><ele>296.0</ele><time>2026-05-02T08:52:21Z</time></trkpt><trkpt lat="44.10230287833584" lon="10.393386355502448"><ele>296.0</ele><time>2026-05-02T08:52:22Z</time></trkpt><trkpt lat="44.10232773092902" lon="10.393528135615576"><ele>295.40000000000003</ele><time>2026-05-02T08:52:23Z</time></trkpt><trkpt lat="44.10235392406079" lon="10.393661430662409"><ele>294.8</ele><time>2026-05-02T08:52:24Z</time></trkpt><trkpt lat="44.10238204663026" lon="10.393799881415386"><ele>294.20000000000005</ele><time>2026-05-02T08:52:25Z</time></trkpt><trkpt lat="44.1024067849814" lon="10.393940726980482"><ele>293.6</ele><time>2026-05-02T08:52:26Z</time></trkpt><trkpt lat="44.102423747447325" lon="10.394087692038761"><ele>293.0</ele><time>2026-05-02T08:52:27Z</time></trkpt><trkpt lat="44.10244983329023" lon="10.394224053398823"><ele>293.0</ele><time>2026-05-02T08:52:28Z</time></trkpt><trkpt lat="44.10247457850981" lon="10.394365101727205"><ele>293.0</ele><time>2026-05-02T08:52:29Z</time></trkpt><trkpt lat="44.102494344577266" lon="10.394507052791363"><ele>293.0</ele><time>2026-05-02T08:52:30Z</time></trkpt><trkpt lat="44.102518893508226" lon="10.394637507528456"><ele>293.0</ele><time>2026-05-02T08:52:31Z</time></trkpt><trkpt lat="44.102543871873834" lon="10.394765498080599"><ele>293.0</ele><time>2026-05-02T08:52:32Z</time></trkpt><trkpt lat="44.102565296248144" lon="10.394896895160338"><ele>294.6</ele><time>2026-05-02T08:52:33Z</time></trkpt><trkpt lat="44.102589713609575" lon="10.395019685302893"><ele>296.20000000000005</ele><time>2026-05-02T08:52:34Z</time></trkpt><trkpt lat="44.102611770515665" lon="10.395138203864008"><ele>297.8</ele><time>2026-05-02T08:52:35Z</time></trkpt><trkpt lat="44.10262949389529" lon="10.39526509415994"><ele>299.40000000000003</ele><time>2026-05-02T08:52:36Z</time></trkpt><trkpt lat="44.102652790987186" lon="10.395392089219182"><ele>301.0</ele><time>2026-05-02T08:52:37Z</time></trkpt><trkpt lat="44.10267473265471" lon="10.395526234134453"><ele>301.0</ele><time>2026-05-02T08:52:38Z</time></trkpt><trkpt lat="44.10269718011747" lon="10.395660571908566"><ele>301.0</ele><time>2026-05-02T08:52:39Z</time></trkpt><trkpt lat="44.102719188814106" lon="10.395791587069837"><ele>301.0</ele><time>2026-05-02T08:52:40Z</time></trkpt><trkpt lat="44.1027426498552" lon="10.395933262119652"><ele>301.0</ele><time>2026-05-02T08:52:41Z</time></trkpt><trkpt lat="44.102772874928704" lon="10.396073257854114"><ele>301.0</ele><time>2026-05-02T08:52:42Z</time></trkpt><trkpt lat="44.102798472553765" lon="10.396212142591043"><ele>300.8</ele><time>2026-05-02T08:52:43Z</time></trkpt><trkpt lat="44.102827462087575" lon="10.396349807914847"><ele>300.6</ele><time>2026-05-02T08:52:44Z</time></trkpt><trkpt lat="44.102853866604505" lon="10.396488560565183"><ele>300.4</ele><time>2026-05-02T08:52:45Z</time></trkpt><trkpt lat="44.10287941728495" lon="10.39662721150245"><ele>300.2</ele><time>2026-05-02T08:52:46Z</time></trkpt><trkpt lat="44.10289866734888" lon="10.396764544537236"><ele>300.0</ele><time>2026-05-02T08:52:47Z</time></trkpt><trkpt lat="44.102928110926854" lon="10.396900326165063"><ele>300.0</ele><time>2026-05-02T08:52:48Z</time></trkpt><trkpt lat="44.102950548769414" lon="10.39703990976876"><ele>300.0</ele><time>2026-05-02T08:52:49Z</time></trkpt><trkpt lat="44.10297526116865" lon="10.397185585095846"><ele>300.0</ele><time>2026-05-02T08:52:50Z</time></trkpt><trkpt lat="44.10300120498994" lon="10.39732447085766"><ele>300.0</ele><time>2026-05-02T08:52:51.001Z</time></trkpt><trkpt lat="44.1030199299657" lon="10.39746305050027"><ele>300.0</ele><time>2026-05-02T08:52:52.001Z</time></trkpt><trkpt lat="44.10304668736218" lon="10.397605220113515"><ele>299.4</ele><time>2026-05-02T08:52:53.001Z</time></trkpt><trkpt lat="44.103076973995975" lon="10.397747982039613"><ele>298.8</ele><time>2026-05-02T08:52:54.001Z</time></trkpt><trkpt lat="44.103098855263404" lon="10.397900093018787"><ele>298.2</ele><time>2026-05-02T08:52:55.001Z</time></trkpt><trkpt lat="44.10312132923632" lon="10.398039971775829"><ele>297.6</ele><time>2026-05-02T08:52:56.001Z</time></trkpt><trkpt lat="44.103147541521786" lon="10.398182364932806"><ele>297.0</ele><time>2026-05-02T08:52:57.001Z</time></trkpt><trkpt lat="44.10317182427282" lon="10.398325014977782"><ele>296.4</ele><time>2026-05-02T08:52:58.001Z</time></trkpt><trkpt lat="44.10319860690659" lon="10.398464309198998"><ele>295.79999999999995</ele><time>2026-05-02T08:52:59.001Z</time></trkpt><trkpt lat="44.10322533710976" lon="10.398602062482555"><ele>295.2</ele><time>2026-05-02T08:53:00.001Z</time></trkpt><trkpt lat="44.10325170546811" lon="10.39873625019407"><ele>294.59999999999997</ele><time>2026-05-02T08:53:01.001Z</time></trkpt><trkpt lat="44.10327424886201" lon="10.398876679047167"><ele>294.0</ele><time>2026-05-02T08:53:02.001Z</time></trkpt><trkpt lat="44.10329004598118" lon="10.399017270261977"><ele>292.0</ele><time>2026-05-02T08:53:03.001Z</time></trkpt><trkpt lat="44.103304357140544" lon="10.399157044332572"><ele>290.0</ele><time>2026-05-02T08:53:04.001Z</time></trkpt><trkpt lat="44.10332407168368" lon="10.399298194528388"><ele>288.0</ele><time>2026-05-02T08:53:05.001Z</time></trkpt><trkpt lat="44.10334036692713" lon="10.399440055693736"><ele>286.0</ele><time>2026-05-02T08:53:06.001Z</time></trkpt><trkpt lat="44.10334501134286" lon="10.39958566116762"><ele>284.0</ele><time>2026-05-02T08:53:07.001Z</time></trkpt><trkpt lat="44.1033505516007" lon="10.39972979235124"><ele>283.8</ele><time>2026-05-02T08:53:08.001Z</time></trkpt><trkpt lat="44.10336581752212" lon="10.39986710485473"><ele>283.59999999999997</ele><time>2026-05-02T08:53:09.001Z</time></trkpt><trkpt lat="44.103377522297954" lon="10.399995863840136"><ele>283.4</ele><time>2026-05-02T08:53:10.001Z</time></trkpt><trkpt lat="44.10338539840507" lon="10.400131889013364"><ele>283.2</ele><time>2026-05-02T08:53:11.001Z</time></trkpt><trkpt lat="44.10339976766951" lon="10.400264116202369"><ele>283.0</ele><time>2026-05-02T08:53:12.001Z</time></trkpt><trkpt lat="44.10341079412001" lon="10.400397777960313"><ele>282.8</ele><time>2026-05-02T08:53:13.001Z</time></trkpt><trkpt lat="44.10342401280887" lon="10.400529575882834"><ele>282.6</ele><time>2026-05-02T08:53:14.001Z</time></trkpt><trkpt lat="44.103438577258714" lon="10.400663938933404"><ele>282.4</ele><time>2026-05-02T08:53:15.001Z</time></trkpt><trkpt lat="44.103451550202514" lon="10.400798887443525"><ele>282.2</ele><time>2026-05-02T08:53:16.001Z</time></trkpt><trkpt lat="44.10346199256404" lon="10.40093814674118"><ele>282.0</ele><time>2026-05-02T08:53:17.001Z</time></trkpt><trkpt lat="44.10347554562806" lon="10.40107152322359"><ele>282.0</ele><time>2026-05-02T08:53:18.001Z</time></trkpt><trkpt lat="44.10348911162836" lon="10.40120799247253"><ele>282.0</ele><time>2026-05-02T08:53:19.001Z</time></trkpt><trkpt lat="44.103502414242925" lon="10.401340449904234"><ele>282.0</ele><time>2026-05-02T08:53:20.001Z</time></trkpt><trkpt lat="44.10351341578461" lon="10.401474349137839"><ele>282.0</ele><time>2026-05-02T08:53:21.001Z</time></trkpt><trkpt lat="44.10352362276292" lon="10.401605308215336"><ele>282.0</ele><time>2026-05-02T08:53:22.001Z</time></trkpt><trkpt lat="44.10354031058103" lon="10.401738972486726"><ele>282.0</ele><time>2026-05-02T08:53:23.001Z</time></trkpt><trkpt lat="44.10355230883594" lon="10.401876361875294"><ele>282.0</ele><time>2026-05-02T08:53:24.001Z</time></trkpt><trkpt lat="44.103558694522846" lon="10.40200776770297"><ele>282.0</ele><time>2026-05-02T08:53:25.001Z</time></trkpt><trkpt lat="44.1035705081192" lon="10.402138381067806"><ele>282.0</ele><time>2026-05-02T08:53:26.001Z</time></trkpt><trkpt lat="44.10357997539974" lon="10.40227639777958"><ele>282.0</ele><time>2026-05-02T08:53:27.001Z</time></trkpt><trkpt lat="44.10359350798164" lon="10.402415238800842"><ele>282.2</ele><time>2026-05-02T08:53:28.001Z</time></trkpt><trkpt lat="44.103609906501006" lon="10.402548682318951"><ele>282.4</ele><time>2026-05-02T08:53:29.001Z</time></trkpt><trkpt lat="44.103623624925895" lon="10.402685703120964"><ele>282.6</ele><time>2026-05-02T08:53:30.001Z</time></trkpt><trkpt lat="44.103637597498384" lon="10.40281777194059"><ele>282.8</ele><time>2026-05-02T08:53:31.001Z</time></trkpt><trkpt lat="44.10364740874409" lon="10.402957302627481"><ele>283.0</ele><time>2026-05-02T08:53:32.001Z</time></trkpt><trkpt lat="44.10365604958271" lon="10.403089020651704"><ele>283.6</ele><time>2026-05-02T08:53:33.001Z</time></trkpt><trkpt lat="44.10366556301027" lon="10.403225935820268"><ele>284.20000000000005</ele><time>2026-05-02T08:53:34.001Z</time></trkpt><trkpt lat="44.10367743761155" lon="10.403370260064927"><ele>284.8</ele><time>2026-05-02T08:53:35.001Z</time></trkpt><trkpt lat="44.1036931083079" lon="10.403511525146893"><ele>285.40000000000003</ele><time>2026-05-02T08:53:36.001Z</time></trkpt><trkpt lat="44.10370702231523" lon="10.403653079202035"><ele>286.0</ele><time>2026-05-02T08:53:37.001Z</time></trkpt><trkpt lat="44.10371841497928" lon="10.40379984758583"><ele>285.6</ele><time>2026-05-02T08:53:38.001Z</time></trkpt><trkpt lat="44.103734127319676" lon="10.403938917447174"><ele>285.20000000000005</ele><time>2026-05-02T08:53:39Z</time></trkpt><trkpt lat="44.10374936393335" lon="10.40408154730105"><ele>284.79999999999995</ele><time>2026-05-02T08:53:40Z</time></trkpt><trkpt lat="44.10377483158713" lon="10.404227217408184"><ele>284.4</ele><time>2026-05-02T08:53:41Z</time></trkpt><trkpt lat="44.10377762261902" lon="10.404365502074327"><ele>284.0</ele><time>2026-05-02T08:53:42Z</time></trkpt><trkpt lat="44.103790070159434" lon="10.404510678084156"><ele>284.0</ele><time>2026-05-02T08:53:43Z</time></trkpt><trkpt lat="44.103801640125525" lon="10.404646150029423"><ele>284.0</ele><time>2026-05-02T08:53:44Z</time></trkpt><trkpt lat="44.1038597790226" lon="10.404780378936495"><ele>284.0</ele><time>2026-05-02T08:53:45Z</time></trkpt><trkpt lat="44.103879979019695" lon="10.40491567415489"><ele>284.0</ele><time>2026-05-02T08:53:46Z</time></trkpt><trkpt lat="44.10393803208903" lon="10.40503858429945"><ele>284.0</ele><time>2026-05-02T08:53:47Z</time></trkpt><trkpt lat="44.103998112427554" lon="10.405156808012812"><ele>284.8</ele><time>2026-05-02T08:53:48Z</time></trkpt><trkpt lat="44.1040714963481" lon="10.405261410652994"><ele>285.59999999999997</ele><time>2026-05-02T08:53:49Z</time></trkpt><trkpt lat="44.104117205910136" lon="10.405364502395035"><ele>286.4</ele><time>2026-05-02T08:53:50Z</time></trkpt><trkpt lat="44.10415954496969" lon="10.405496542631047"><ele>287.2</ele><time>2026-05-02T08:53:51Z</time></trkpt><trkpt lat="44.10420072891493" lon="10.405617395916819"><ele>288.0</ele><time>2026-05-02T08:53:52Z</time></trkpt><trkpt lat="44.10424192654491" lon="10.405738289362205"><ele>287.0</ele><time>2026-05-02T08:53:53Z</time></trkpt><trkpt lat="44.10427217533717" lon="10.405834443948756"><ele>286.0</ele><time>2026-05-02T08:53:54Z</time></trkpt><trkpt lat="44.10393194603698" lon="10.406009886582401"><ele>285.0</ele><time>2026-05-02T08:53:55Z</time></trkpt><trkpt lat="44.10394149647172" lon="10.406112914190471"><ele>285.0</ele><time>2026-05-02T08:53:56Z</time></trkpt><trkpt lat="44.10394220340555" lon="10.406207875077603"><ele>285.0</ele><time>2026-05-02T08:53:57Z</time></trkpt><trkpt lat="44.103957361985856" lon="10.406300725613686"><ele>285.0</ele><time>2026-05-02T08:53:58Z</time></trkpt><trkpt lat="44.10396637462736" lon="10.406399356144929"><ele>285.0</ele><time>2026-05-02T08:53:59Z</time></trkpt><trkpt lat="44.10397611617405" lon="10.406496009418186"><ele>285.0</ele><time>2026-05-02T08:54:00Z</time></trkpt><trkpt lat="44.103988296305715" lon="10.406587653990535"><ele>285.0</ele><time>2026-05-02T08:54:01Z</time></trkpt><trkpt lat="44.103978245563674" lon="10.406677831207084"><ele>285.0</ele><time>2026-05-02T08:54:02Z</time></trkpt><trkpt lat="44.10398240212422" lon="10.406766140576284"><ele>285.0</ele><time>2026-05-02T08:54:03Z</time></trkpt><trkpt lat="44.10398795562448" lon="10.406909915486384"><ele>285.0</ele><time>2026-05-02T08:54:05Z</time></trkpt><trkpt lat="44.10400574144798" lon="10.407030743962192"><ele>285.0</ele><time>2026-05-02T08:54:07Z</time></trkpt><trkpt lat="44.104019218782696" lon="10.407195857375164"><ele>285.0</ele><time>2026-05-02T08:54:09Z</time></trkpt><trkpt lat="44.10403835322196" lon="10.407288298366629"><ele>285.0</ele><time>2026-05-02T08:54:10Z</time></trkpt><trkpt lat="44.10411043612489" lon="10.407435176891868"><ele>284.6666666666667</ele><time>2026-05-02T08:54:12Z</time></trkpt><trkpt lat="44.1041406322022" lon="10.407521647380353"><ele>284.3333333333333</ele><time>2026-05-02T08:54:13Z</time></trkpt><trkpt lat="44.10417114176572" lon="10.407600078775006"><ele>284.0</ele><time>2026-05-02T08:54:14Z</time></trkpt><trkpt lat="44.10424058008693" lon="10.407715906919737"><ele>283.66666666666663</ele><time>2026-05-02T08:54:16Z</time></trkpt><trkpt lat="44.10431047560735" lon="10.40778749847034"><ele>283.3333333333333</ele><time>2026-05-02T08:54:18Z</time></trkpt><trkpt lat="44.10438337215361" lon="10.407865783874662"><ele>283.0</ele><time>2026-05-02T08:54:20Z</time></trkpt><trkpt lat="44.10444566136154" lon="10.407930823196493"><ele>283.0</ele><time>2026-05-02T08:54:22Z</time></trkpt><trkpt lat="44.10450793218133" lon="10.407989126633954"><ele>283.0</ele><time>2026-05-02T08:54:24Z</time></trkpt><trkpt lat="44.104566348342175" lon="10.408044078403368"><ele>283.0</ele><time>2026-05-02T08:54:26Z</time></trkpt><trkpt lat="44.10462874019887" lon="10.408090533886604"><ele>283.0</ele><time>2026-05-02T08:54:28Z</time></trkpt><trkpt lat="44.10470228773698" lon="10.408158943241135"><ele>283.0</ele><time>2026-05-02T08:54:30Z</time></trkpt><trkpt lat="44.10477125705063" lon="10.408239125743684"><ele>283.0</ele><time>2026-05-02T08:54:32Z</time></trkpt><trkpt lat="44.10484556851268" lon="10.408292400574107"><ele>283.0</ele><time>2026-05-02T08:54:34Z</time></trkpt><trkpt lat="44.10491519512695" lon="10.408369803405714"><ele>283.0</ele><time>2026-05-02T08:54:36Z</time></trkpt><trkpt lat="44.105005775544406" lon="10.408453164893208"><ele>283.0</ele><time>2026-05-02T08:54:38Z</time></trkpt><trkpt lat="44.105061606345565" lon="10.408507527335958"><ele>283.0</ele><time>2026-05-02T08:54:39Z</time></trkpt><trkpt lat="44.10512647414112" lon="10.408569686770885"><ele>283.0</ele><time>2026-05-02T08:54:40Z</time></trkpt><trkpt lat="44.10519975394012" lon="10.40864706548081"><ele>283.0</ele><time>2026-05-02T08:54:41Z</time></trkpt><trkpt lat="44.105282586370514" lon="10.408719100360692"><ele>283.0</ele><time>2026-05-02T08:54:42Z</time></trkpt><trkpt lat="44.10536075333882" lon="10.408784783844911"><ele>283.0</ele><time>2026-05-02T08:54:43Z</time></trkpt><trkpt lat="44.10542634056548" lon="10.408852458906244"><ele>283.0</ele><time>2026-05-02T08:54:44Z</time></trkpt><trkpt lat="44.10549208571657" lon="10.408908720033805"><ele>283.0</ele><time>2026-05-02T08:54:45Z</time></trkpt><trkpt lat="44.10554657435208" lon="10.40896115803952"><ele>283.0</ele><time>2026-05-02T08:54:46Z</time></trkpt><trkpt lat="44.10560346380646" lon="10.40901725388206"><ele>283.0</ele><time>2026-05-02T08:54:47Z</time></trkpt><trkpt lat="44.105661348292934" lon="10.409074910205284"><ele>283.16666666666663</ele><time>2026-05-02T08:54:48Z</time></trkpt><trkpt lat="44.105723204044054" lon="10.40913697892832"><ele>283.3333333333333</ele><time>2026-05-02T08:54:49.001Z</time></trkpt><trkpt lat="44.105794319918246" lon="10.40919942293341"><ele>283.5</ele><time>2026-05-02T08:54:50.001Z</time></trkpt><trkpt lat="44.105852032623424" lon="10.409262067920055"><ele>283.6666666666667</ele><time>2026-05-02T08:54:51.001Z</time></trkpt><trkpt lat="44.10591109570948" lon="10.409331027104573"><ele>283.83333333333337</ele><time>2026-05-02T08:54:52.001Z</time></trkpt><trkpt lat="44.10597758845373" lon="10.409392703950967"><ele>284.0</ele><time>2026-05-02T08:54:53.001Z</time></trkpt><trkpt lat="44.106056776849954" lon="10.409440478547692"><ele>284.33333333333337</ele><time>2026-05-02T08:54:54.001Z</time></trkpt><trkpt lat="44.10612303445355" lon="10.409497010619008"><ele>284.6666666666667</ele><time>2026-05-02T08:54:55.001Z</time></trkpt><trkpt lat="44.10618533534745" lon="10.409553641792188"><ele>285.0</ele><time>2026-05-02T08:54:56.001Z</time></trkpt><trkpt lat="44.106234737672075" lon="10.409613614497626"><ele>285.3333333333333</ele><time>2026-05-02T08:54:57.001Z</time></trkpt><trkpt lat="44.10629260397126" lon="10.409682261491543"><ele>285.66666666666663</ele><time>2026-05-02T08:54:58.001Z</time></trkpt><trkpt lat="44.10636182414569" lon="10.409733363719445"><ele>286.0</ele><time>2026-05-02T08:54:59.001Z</time></trkpt><trkpt lat="44.10644500566653" lon="10.409787248992734"><ele>286.0</ele><time>2026-05-02T08:55:00.001Z</time></trkpt><trkpt lat="44.10649734345765" lon="10.409846951729612"><ele>286.0</ele><time>2026-05-02T08:55:01.001Z</time></trkpt><trkpt lat="44.1065632611932" lon="10.40990652717078"><ele>286.0</ele><time>2026-05-02T08:55:02.001Z</time></trkpt><trkpt lat="44.10663394072889" lon="10.409970945505034"><ele>286.0</ele><time>2026-05-02T08:55:03.001Z</time></trkpt><trkpt lat="44.10670640665306" lon="10.410047506765471"><ele>286.0</ele><time>2026-05-02T08:55:04.001Z</time></trkpt><trkpt lat="44.10678196091461" lon="10.410126835642943"><ele>286.0</ele><time>2026-05-02T08:55:05.001Z</time></trkpt><trkpt lat="44.10684630104401" lon="10.410216204605614"><ele>286.0</ele><time>2026-05-02T08:55:06.001Z</time></trkpt><trkpt lat="44.10691779178024" lon="10.4102826500049"><ele>286.0</ele><time>2026-05-02T08:55:07.001Z</time></trkpt><trkpt lat="44.10698405918177" lon="10.410344402284084"><ele>286.0</ele><time>2026-05-02T08:55:08.001Z</time></trkpt><trkpt lat="44.10705199740183" lon="10.410397049663974"><ele>286.0</ele><time>2026-05-02T08:55:09.001Z</time></trkpt><trkpt lat="44.10711419465899" lon="10.410450185686162"><ele>286.0</ele><time>2026-05-02T08:55:10.001Z</time></trkpt><trkpt lat="44.107185193045375" lon="10.41048225032395"><ele>286.0</ele><time>2026-05-02T08:55:11.001Z</time></trkpt><trkpt lat="44.10725363388808" lon="10.410528936300453"><ele>286.0</ele><time>2026-05-02T08:55:12.001Z</time></trkpt><trkpt lat="44.10737136532795" lon="10.410608411687328"><ele>286.0</ele><time>2026-05-02T08:55:14.001Z</time></trkpt><trkpt lat="44.10743538721173" lon="10.410645412573734"><ele>286.0</ele><time>2026-05-02T08:55:15.001Z</time></trkpt><trkpt lat="44.107530378967596" lon="10.410705695802237"><ele>286.0</ele><time>2026-05-02T08:55:17.001Z</time></trkpt><trkpt lat="44.107598605547516" lon="10.410723620181075"><ele>286.0</ele><time>2026-05-02T08:55:18.001Z</time></trkpt><trkpt lat="44.10765666978691" lon="10.410771472869781"><ele>286.0</ele><time>2026-05-02T08:55:19.001Z</time></trkpt><trkpt lat="44.1077135283345" lon="10.410817970803773"><ele>284.8</ele><time>2026-05-02T08:55:20.001Z</time></trkpt><trkpt lat="44.10777101085805" lon="10.41086369422578"><ele>283.6</ele><time>2026-05-02T08:55:21.001Z</time></trkpt><trkpt lat="44.10788481196984" lon="10.410961787502327"><ele>282.4</ele><time>2026-05-02T08:55:23.001Z</time></trkpt><trkpt lat="44.10794590149399" lon="10.410993240225753"><ele>281.2</ele><time>2026-05-02T08:55:24.001Z</time></trkpt><trkpt lat="44.10803354738993" lon="10.411032546405837"><ele>280.0</ele><time>2026-05-02T08:55:26.001Z</time></trkpt><trkpt lat="44.108140015426" lon="10.411067210226616"><ele>280.0</ele><time>2026-05-02T08:55:28.001Z</time></trkpt><trkpt lat="44.10820486362492" lon="10.411098918208651"><ele>280.0</ele><time>2026-05-02T08:55:29.001Z</time></trkpt><trkpt lat="44.10825861999013" lon="10.411157210514329"><ele>280.0</ele><time>2026-05-02T08:55:30.001Z</time></trkpt><trkpt lat="44.10831394942501" lon="10.411253152698329"><ele>280.0</ele><time>2026-05-02T08:55:31.001Z</time></trkpt><trkpt lat="44.10834774356209" lon="10.411365018119744"><ele>280.0</ele><time>2026-05-02T08:55:32.001Z</time></trkpt><trkpt lat="44.108312190524366" lon="10.411503606661698"><ele>280.0</ele><time>2026-05-02T08:55:33.001Z</time></trkpt><trkpt lat="44.10830635649778" lon="10.411635509592486"><ele>280.0</ele><time>2026-05-02T08:55:34.001Z</time></trkpt><trkpt lat="44.108306504689644" lon="10.411743877267794"><ele>280.0</ele><time>2026-05-02T08:55:35.001Z</time></trkpt><trkpt lat="44.10832079078581" lon="10.411859942846654"><ele>280.0</ele><time>2026-05-02T08:55:36.001Z</time></trkpt><trkpt lat="44.108342383220425" lon="10.411969596997663"><ele>280.0</ele><time>2026-05-02T08:55:37.001Z</time></trkpt><trkpt lat="44.10837461820756" lon="10.41208557998508"><ele>280.0</ele><time>2026-05-02T08:55:38.001Z</time></trkpt><trkpt lat="44.10840458309091" lon="10.412183810080766"><ele>280.0</ele><time>2026-05-02T08:55:39.001Z</time></trkpt><trkpt lat="44.108448282669734" lon="10.412341607075957"><ele>281.16666666666663</ele><time>2026-05-02T08:55:41.001Z</time></trkpt><trkpt lat="44.1084935924273" lon="10.412492435987414"><ele>282.3333333333333</ele><time>2026-05-02T08:55:43.001Z</time></trkpt><trkpt lat="44.108524322114086" lon="10.412578789830784"><ele>283.5</ele><time>2026-05-02T08:55:44.001Z</time></trkpt><trkpt lat="44.108532914817324" lon="10.412668335145854"><ele>284.6666666666667</ele><time>2026-05-02T08:55:45Z</time></trkpt><trkpt lat="44.1085556331757" lon="10.412756287409513"><ele>285.83333333333337</ele><time>2026-05-02T08:55:46Z</time></trkpt><trkpt lat="44.10859111158845" lon="10.41286549032157"><ele>287.0</ele><time>2026-05-02T08:55:47Z</time></trkpt><trkpt lat="44.10862555680953" lon="10.412979530863122"><ele>289.0</ele><time>2026-05-02T08:55:48Z</time></trkpt><trkpt lat="44.10865557721901" lon="10.413067777110387"><ele>291.0</ele><time>2026-05-02T08:55:49Z</time></trkpt><trkpt lat="44.10869464666583" lon="10.413180588682504"><ele>293.0</ele><time>2026-05-02T08:55:50Z</time></trkpt><trkpt lat="44.1087340464707" lon="10.413298490995574"><ele>295.0</ele><time>2026-05-02T08:55:51Z</time></trkpt><trkpt lat="44.10876609651766" lon="10.41340678257885"><ele>297.0</ele><time>2026-05-02T08:55:51.999Z</time></trkpt><trkpt lat="44.10879797306869" lon="10.413532991889838"><ele>299.0</ele><time>2026-05-02T08:55:54Z</time></trkpt><trkpt lat="44.10882930905311" lon="10.413639995003983"><ele>299.0</ele><time>2026-05-02T08:55:55.999Z</time></trkpt><trkpt lat="44.10885069706607" lon="10.41372365469526"><ele>299.0</ele><time>2026-05-02T08:56:02Z</time></trkpt><trkpt lat="44.10889247425743" lon="10.413789487979301"><ele>299.0</ele><time>2026-05-02T08:56:06Z</time></trkpt><trkpt lat="44.10895979043837" lon="10.413842932474505"><ele>299.0</ele><time>2026-05-02T08:56:10Z</time></trkpt><trkpt lat="44.109055103871846" lon="10.413877256775814"><ele>299.0</ele><time>2026-05-02T08:56:12Z</time></trkpt><trkpt lat="44.10927043665867" lon="10.413797244079625"><ele>295.6666666666667</ele><time>2026-05-02T08:56:24Z</time></trkpt><trkpt lat="44.1093122739921" lon="10.413694669358042"><ele>292.33333333333337</ele><time>2026-05-02T08:56:25Z</time></trkpt><trkpt lat="44.10935067240119" lon="10.413599970873676"><ele>289.0</ele><time>2026-05-02T08:56:26Z</time></trkpt><trkpt lat="44.10939597225479" lon="10.413486455202138"><ele>285.6666666666667</ele><time>2026-05-02T08:56:27Z</time></trkpt><trkpt lat="44.10943439767053" lon="10.413387388774854"><ele>282.3333333333333</ele><time>2026-05-02T08:56:28Z</time></trkpt><trkpt lat="44.10946544936151" lon="10.413309446503108"><ele>279.0</ele><time>2026-05-02T08:56:29Z</time></trkpt><trkpt lat="44.10949791865247" lon="10.413232731960164"><ele>278.99999999999994</ele><time>2026-05-02T08:56:30Z</time></trkpt><trkpt lat="44.10956282369581" lon="10.413144305084467"><ele>279.0</ele><time>2026-05-02T08:56:32Z</time></trkpt><trkpt lat="44.1096270990278" lon="10.413108398899043"><ele>279.0</ele><time>2026-05-02T08:56:33Z</time></trkpt><trkpt lat="44.10969079140646" lon="10.413075376344434"><ele>279.0</ele><time>2026-05-02T08:56:34Z</time></trkpt><trkpt lat="44.109754079392424" lon="10.413039497534342"><ele>279.0</ele><time>2026-05-02T08:56:35Z</time></trkpt><trkpt lat="44.10981411528859" lon="10.413012653134231"><ele>278.99999999999994</ele><time>2026-05-02T08:56:36Z</time></trkpt><trkpt lat="44.10989711296749" lon="10.412992323579495"><ele>279.0</ele><time>2026-05-02T08:56:38Z</time></trkpt><trkpt lat="44.110003503964535" lon="10.413009058254755"><ele>278.6666666666667</ele><time>2026-05-02T08:56:40Z</time></trkpt><trkpt lat="44.11005277015972" lon="10.413085925921592"><ele>278.3333333333333</ele><time>2026-05-02T08:56:41Z</time></trkpt><trkpt lat="44.11008680210805" lon="10.413193610049742"><ele>278.0</ele><time>2026-05-02T08:56:42Z</time></trkpt><trkpt lat="44.11012368087606" lon="10.413299549891223"><ele>277.66666666666663</ele><time>2026-05-02T08:56:43Z</time></trkpt><trkpt lat="44.11016429281541" lon="10.41340561752055"><ele>277.3333333333333</ele><time>2026-05-02T08:56:44Z</time></trkpt><trkpt lat="44.110203713586294" lon="10.413510376570967"><ele>277.0</ele><time>2026-05-02T08:56:45.001Z</time></trkpt><trkpt lat="44.11024611167667" lon="10.413609942974743"><ele>277.0</ele><time>2026-05-02T08:56:46.001Z</time></trkpt><trkpt lat="44.11027943114349" lon="10.413704836792963"><ele>277.0</ele><time>2026-05-02T08:56:47.001Z</time></trkpt><trkpt lat="44.11032301851487" lon="10.413779733474033"><ele>277.0</ele><time>2026-05-02T08:56:48.001Z</time></trkpt><trkpt lat="44.11038344510807" lon="10.413828884212219"><ele>277.0</ele><time>2026-05-02T08:56:49.001Z</time></trkpt><trkpt lat="44.110446689775344" lon="10.413843603325383"><ele>277.0</ele><time>2026-05-02T08:56:50.001Z</time></trkpt><trkpt lat="44.11055801489828" lon="10.413790581794249"><ele>277.0</ele><time>2026-05-02T08:56:52.001Z</time></trkpt><trkpt lat="44.11066118604082" lon="10.413736024880217"><ele>277.0</ele><time>2026-05-02T08:56:54.001Z</time></trkpt><trkpt lat="44.1107349064901" lon="10.413699169620584"><ele>277.0</ele><time>2026-05-02T08:56:55.001Z</time></trkpt><trkpt lat="44.11081769333006" lon="10.413666472490762"><ele>277.0</ele><time>2026-05-02T08:56:56.001Z</time></trkpt><trkpt lat="44.110895280425346" lon="10.413622153242416"><ele>277.0</ele><time>2026-05-02T08:56:57.001Z</time></trkpt><trkpt lat="44.11097296167073" lon="10.413574781989205"><ele>277.0</ele><time>2026-05-02T08:56:58.001Z</time></trkpt><trkpt lat="44.11104913928459" lon="10.413532371146063"><ele>277.0</ele><time>2026-05-02T08:56:59.001Z</time></trkpt><trkpt lat="44.111123040652224" lon="10.413497889884646"><ele>277.5</ele><time>2026-05-02T08:57:00.001Z</time></trkpt><trkpt lat="44.11119418194645" lon="10.413454140435398"><ele>278.0</ele><time>2026-05-02T08:57:01.001Z</time></trkpt><trkpt lat="44.11125436614627" lon="10.41342080193901"><ele>278.5</ele><time>2026-05-02T08:57:02.001Z</time></trkpt><trkpt lat="44.11131287089623" lon="10.41338715039995"><ele>279.0</ele><time>2026-05-02T08:57:03.001Z</time></trkpt><trkpt lat="44.11138177969514" lon="10.413347514470448"><ele>279.5</ele><time>2026-05-02T08:57:04.001Z</time></trkpt><trkpt lat="44.11146086552417" lon="10.413301835433577"><ele>280.0</ele><time>2026-05-02T08:57:05.001Z</time></trkpt><trkpt lat="44.11154823512372" lon="10.41324916999159"><ele>278.2</ele><time>2026-05-02T08:57:06.001Z</time></trkpt><trkpt lat="44.11165535759678" lon="10.413184597762823"><ele>276.4</ele><time>2026-05-02T08:57:07.001Z</time></trkpt><trkpt lat="44.11172429635001" lon="10.413155579686052"><ele>274.6</ele><time>2026-05-02T08:57:09.001Z</time></trkpt><trkpt lat="44.11184035101813" lon="10.413081710674646"><ele>272.8</ele><time>2026-05-02T08:57:11.001Z</time></trkpt><trkpt lat="44.11189835413501" lon="10.413040480178529"><ele>271.0</ele><time>2026-05-02T08:57:12.001Z</time></trkpt><trkpt lat="44.11201278362238" lon="10.41297073990399"><ele>271.0</ele><time>2026-05-02T08:57:14.001Z</time></trkpt><trkpt lat="44.11210459169744" lon="10.41291628934112"><ele>271.0</ele><time>2026-05-02T08:57:16.001Z</time></trkpt><trkpt lat="44.112185742687615" lon="10.4128586413944"><ele>271.0</ele><time>2026-05-02T08:57:18.001Z</time></trkpt><trkpt lat="44.11224631478941" lon="10.41281746354075"><ele>271.0</ele><time>2026-05-02T08:57:20.001Z</time></trkpt><trkpt lat="44.11231188833645" lon="10.412800318704308"><ele>271.0</ele><time>2026-05-02T08:57:22.001Z</time></trkpt><trkpt lat="44.11237023142531" lon="10.412758193057565"><ele>271.0</ele><time>2026-05-02T08:57:26.001Z</time></trkpt><trkpt lat="44.11243210229656" lon="10.412664292902837"><ele>271.0</ele><time>2026-05-02T09:03:29.545Z</time></trkpt><trkpt lat="44.11227070186137" lon="10.412714716495787"><ele>271.0</ele><time>2026-05-02T09:10:13.003Z</time></trkpt><trkpt lat="44.112311761019065" lon="10.412622382843827"><ele>271.0</ele><time>2026-05-02T09:12:53Z</time></trkpt><trkpt lat="44.11232672501573" lon="10.412731471423227"><ele>271.0</ele><time>2026-05-02T09:13:24Z</time></trkpt><trkpt lat="44.112426710851466" lon="10.412877980999925"><ele>271.0</ele><time>2026-05-02T09:23:06.002Z</time></trkpt><trkpt lat="44.112396617714296" lon="10.41279087134159"><ele>271.0</ele><time>2026-05-02T09:23:30.002Z</time></trkpt><trkpt lat="44.1124422027958" lon="10.412724266065513"><ele>271.0</ele><time>2026-05-02T09:24:17.002Z</time></trkpt><trkpt lat="44.11250036124938" lon="10.412682912759665"><ele>271.0</ele><time>2026-05-02T09:24:18.002Z</time></trkpt><trkpt lat="44.11259665925102" lon="10.412626046546768"><ele>271.0</ele><time>2026-05-02T09:24:20.002Z</time></trkpt><trkpt lat="44.112719894087896" lon="10.4126116971133"><ele>271.0</ele><time>2026-05-02T09:24:22.002Z</time></trkpt><trkpt lat="44.112790342841734" lon="10.412566231914766"><ele>272.66666666666663</ele><time>2026-05-02T09:24:23.002Z</time></trkpt><trkpt lat="44.112863946526865" lon="10.412512475338522"><ele>274.3333333333333</ele><time>2026-05-02T09:24:24.002Z</time></trkpt><trkpt lat="44.112934148725145" lon="10.412451824417776"><ele>276.0</ele><time>2026-05-02T09:24:25.002Z</time></trkpt><trkpt lat="44.113010343105664" lon="10.412406054583379"><ele>277.6666666666667</ele><time>2026-05-02T09:24:26.002Z</time></trkpt><trkpt lat="44.11308527618416" lon="10.41235264551831"><ele>279.33333333333337</ele><time>2026-05-02T09:24:27.002Z</time></trkpt><trkpt lat="44.11315361049049" lon="10.412299806549024"><ele>281.0</ele><time>2026-05-02T09:24:28.002Z</time></trkpt><trkpt lat="44.113220844032085" lon="10.412247618488605"><ele>281.1666666666667</ele><time>2026-05-02T09:24:29.002Z</time></trkpt><trkpt lat="44.113290723708786" lon="10.412189569040612"><ele>281.33333333333337</ele><time>2026-05-02T09:24:30.002Z</time></trkpt><trkpt lat="44.11336700618184" lon="10.412125627109976"><ele>281.5</ele><time>2026-05-02T09:24:31.002Z</time></trkpt><trkpt lat="44.11343909410296" lon="10.412073420870536"><ele>281.6666666666667</ele><time>2026-05-02T09:24:32.002Z</time></trkpt><trkpt lat="44.11350529750908" lon="10.4120094643911"><ele>281.8333333333333</ele><time>2026-05-02T09:24:33.002Z</time></trkpt><trkpt lat="44.11356779794023" lon="10.411946070088431"><ele>282.0</ele><time>2026-05-02T09:24:34.002Z</time></trkpt><trkpt lat="44.11362888549265" lon="10.411886163655879"><ele>282.0</ele><time>2026-05-02T09:24:35.002Z</time></trkpt><trkpt lat="44.113686410055706" lon="10.411825351713205"><ele>282.0</ele><time>2026-05-02T09:24:36.002Z</time></trkpt><trkpt lat="44.11375042682366" lon="10.41175886958366"><ele>282.0</ele><time>2026-05-02T09:24:37.002Z</time></trkpt><trkpt lat="44.1138171356908" lon="10.411687599158531"><ele>282.0</ele><time>2026-05-02T09:24:38.002Z</time></trkpt><trkpt lat="44.11388477981385" lon="10.411631110994813"><ele>282.0</ele><time>2026-05-02T09:24:39.002Z</time></trkpt><trkpt lat="44.11395255352799" lon="10.411545959987228"><ele>282.0</ele><time>2026-05-02T09:24:40.002Z</time></trkpt><trkpt lat="44.11402652680973" lon="10.411474598347644"><ele>281.3333333333333</ele><time>2026-05-02T09:24:41.002Z</time></trkpt><trkpt lat="44.11409902346651" lon="10.41140358494505"><ele>280.6666666666667</ele><time>2026-05-02T09:24:42.002Z</time></trkpt><trkpt lat="44.11416408865122" lon="10.411328812573123"><ele>280.0</ele><time>2026-05-02T09:24:43.002Z</time></trkpt><trkpt lat="44.11423460958391" lon="10.411248571957332"><ele>279.33333333333337</ele><time>2026-05-02T09:24:44.002Z</time></trkpt><trkpt lat="44.11430250297663" lon="10.411186675931082"><ele>278.6666666666667</ele><time>2026-05-02T09:24:45.002Z</time></trkpt><trkpt lat="44.11436190759695" lon="10.41111519591915"><ele>278.0</ele><time>2026-05-02T09:24:46.002Z</time></trkpt><trkpt lat="44.11442198612194" lon="10.41104433241133"><ele>278.0</ele><time>2026-05-02T09:24:47.002Z</time></trkpt><trkpt lat="44.114488933998096" lon="10.41098210416637"><ele>278.0</ele><time>2026-05-02T09:24:48.002Z</time></trkpt><trkpt lat="44.114557473832846" lon="10.410911972456022"><ele>278.0</ele><time>2026-05-02T09:24:49.002Z</time></trkpt><trkpt lat="44.11462991025438" lon="10.410845951914839"><ele>278.0</ele><time>2026-05-02T09:24:50.002Z</time></trkpt><trkpt lat="44.11470397210912" lon="10.410797000496606"><ele>278.0</ele><time>2026-05-02T09:24:51.002Z</time></trkpt><trkpt lat="44.1147891599742" lon="10.410762739499766"><ele>278.0</ele><time>2026-05-02T09:24:52.002Z</time></trkpt><trkpt lat="44.1148735753546" lon="10.410728348096784"><ele>280.8</ele><time>2026-05-02T09:24:53.002Z</time></trkpt><trkpt lat="44.11495113251409" lon="10.410682998218094"><ele>283.6</ele><time>2026-05-02T09:24:54.002Z</time></trkpt><trkpt lat="44.115031315255955" lon="10.410627668969198"><ele>286.4</ele><time>2026-05-02T09:24:55.002Z</time></trkpt><trkpt lat="44.11511622275792" lon="10.410583743800673"><ele>289.2</ele><time>2026-05-02T09:24:56.002Z</time></trkpt><trkpt lat="44.115212386275836" lon="10.410556609808753"><ele>292.0</ele><time>2026-05-02T09:24:57.002Z</time></trkpt><trkpt lat="44.11529866399066" lon="10.41053278496561"><ele>292.0</ele><time>2026-05-02T09:24:58.002Z</time></trkpt><trkpt lat="44.115386905791055" lon="10.410521437842155"><ele>292.0</ele><time>2026-05-02T09:24:59.002Z</time></trkpt><trkpt lat="44.115470092021354" lon="10.410516689803677"><ele>292.0</ele><time>2026-05-02T09:25:00.002Z</time></trkpt><trkpt lat="44.115540639673426" lon="10.410504459673556"><ele>292.0</ele><time>2026-05-02T09:25:01.002Z</time></trkpt><trkpt lat="44.11562102102414" lon="10.410460977178072"><ele>292.0</ele><time>2026-05-02T09:25:02.002Z</time></trkpt><trkpt lat="44.11570843300369" lon="10.410391370041234"><ele>292.0</ele><time>2026-05-02T09:25:03.002Z</time></trkpt><trkpt lat="44.11580519411975" lon="10.410362137250175"><ele>291.0</ele><time>2026-05-02T09:25:04.002Z</time></trkpt><trkpt lat="44.11588840307202" lon="10.410299242204687"><ele>290.0</ele><time>2026-05-02T09:25:05.002Z</time></trkpt><trkpt lat="44.115974465027854" lon="10.41023385885245"><ele>289.0</ele><time>2026-05-02T09:25:06.002Z</time></trkpt><trkpt lat="44.11607032507395" lon="10.410183306310211"><ele>288.0</ele><time>2026-05-02T09:25:07.002Z</time></trkpt><trkpt lat="44.11616858260659" lon="10.410137284206968"><ele>287.0</ele><time>2026-05-02T09:25:08.002Z</time></trkpt><trkpt lat="44.11625730034225" lon="10.410091486733307"><ele>287.0</ele><time>2026-05-02T09:25:09.002Z</time></trkpt><trkpt lat="44.116340160530335" lon="10.410037625938987"><ele>287.0</ele><time>2026-05-02T09:25:10.002Z</time></trkpt><trkpt lat="44.11641220697073" lon="10.410003445717257"><ele>287.0</ele><time>2026-05-02T09:25:11.002Z</time></trkpt><trkpt lat="44.11650014372106" lon="10.410011027388014"><ele>287.0</ele><time>2026-05-02T09:25:12.002Z</time></trkpt><trkpt lat="44.1165741153636" lon="10.409920682919472"><ele>287.0</ele><time>2026-05-02T09:25:13.002Z</time></trkpt><trkpt lat="44.11667061507174" lon="10.409888218739601"><ele>287.8</ele><time>2026-05-02T09:25:14.002Z</time></trkpt><trkpt lat="44.116772278405705" lon="10.409880461629527"><ele>288.6</ele><time>2026-05-02T09:25:15.002Z</time></trkpt><trkpt lat="44.116872105413115" lon="10.409860341155941"><ele>289.40000000000003</ele><time>2026-05-02T09:25:16.002Z</time></trkpt><trkpt lat="44.11697158142083" lon="10.409827306381521"><ele>290.2</ele><time>2026-05-02T09:25:17.002Z</time></trkpt><trkpt lat="44.117068798694255" lon="10.409793632541076"><ele>291.0</ele><time>2026-05-02T09:25:18.002Z</time></trkpt><trkpt lat="44.117163638389684" lon="10.409757995499874"><ele>291.0</ele><time>2026-05-02T09:25:19.002Z</time></trkpt><trkpt lat="44.11726500330557" lon="10.409732625187885"><ele>291.0</ele><time>2026-05-02T09:25:20.002Z</time></trkpt><trkpt lat="44.117361906513125" lon="10.40970964170421"><ele>291.0</ele><time>2026-05-02T09:25:21.002Z</time></trkpt><trkpt lat="44.11745701259328" lon="10.409672910842154"><ele>291.0</ele><time>2026-05-02T09:25:22.002Z</time></trkpt><trkpt lat="44.117554294189" lon="10.409656047400231"><ele>291.0</ele><time>2026-05-02T09:25:23.002Z</time></trkpt><trkpt lat="44.11764382663385" lon="10.409632690492863"><ele>290.5</ele><time>2026-05-02T09:25:24.002Z</time></trkpt><trkpt lat="44.117728392247166" lon="10.409615257351335"><ele>290.0</ele><time>2026-05-02T09:25:25.002Z</time></trkpt><trkpt lat="44.11780359159444" lon="10.40962924722475"><ele>289.5</ele><time>2026-05-02T09:25:26.002Z</time></trkpt><trkpt lat="44.117884425614925" lon="10.409658401581245"><ele>289.0</ele><time>2026-05-02T09:25:27.002Z</time></trkpt><trkpt lat="44.1179534971452" lon="10.40970145888852"><ele>288.5</ele><time>2026-05-02T09:25:28.002Z</time></trkpt><trkpt lat="44.11802896304123" lon="10.409764305525327"><ele>288.0</ele><time>2026-05-02T09:25:29.002Z</time></trkpt><trkpt lat="44.11809619049379" lon="10.409820868703095"><ele>288.0</ele><time>2026-05-02T09:25:30.002Z</time></trkpt><trkpt lat="44.118167878262376" lon="10.409888875463325"><ele>288.0</ele><time>2026-05-02T09:25:31.002Z</time></trkpt><trkpt lat="44.118224695480635" lon="10.409965601743286"><ele>288.0</ele><time>2026-05-02T09:25:32.002Z</time></trkpt><trkpt lat="44.11827906843876" lon="10.410056493171522"><ele>288.0</ele><time>2026-05-02T09:25:33.002Z</time></trkpt><trkpt lat="44.11830522377128" lon="10.410164211646629"><ele>288.0</ele><time>2026-05-02T09:25:34.002Z</time></trkpt><trkpt lat="44.118322981086344" lon="10.410279823070757"><ele>288.0</ele><time>2026-05-02T09:25:35.002Z</time></trkpt><trkpt lat="44.11834185092668" lon="10.410385325561386"><ele>289.3333333333333</ele><time>2026-05-02T09:25:36.002Z</time></trkpt><trkpt lat="44.118374558071594" lon="10.410477548646982"><ele>290.6666666666667</ele><time>2026-05-02T09:25:37.002Z</time></trkpt><trkpt lat="44.11839918235507" lon="10.410597641990838"><ele>292.0</ele><time>2026-05-02T09:25:38.002Z</time></trkpt><trkpt lat="44.11844110006151" lon="10.410690454831633"><ele>293.33333333333337</ele><time>2026-05-02T09:25:39.002Z</time></trkpt><trkpt lat="44.11847576956995" lon="10.4107863498059"><ele>294.6666666666667</ele><time>2026-05-02T09:25:40.002Z</time></trkpt><trkpt lat="44.118536730532426" lon="10.41086958509384"><ele>296.0</ele><time>2026-05-02T09:25:41.002Z</time></trkpt><trkpt lat="44.118595348672756" lon="10.410943512531693"><ele>297.5</ele><time>2026-05-02T09:25:42.002Z</time></trkpt><trkpt lat="44.11865823880179" lon="10.411020015777533"><ele>299.0</ele><time>2026-05-02T09:25:43.002Z</time></trkpt><trkpt lat="44.11871858691141" lon="10.411081309149221"><ele>300.5</ele><time>2026-05-02T09:25:44.002Z</time></trkpt><trkpt lat="44.118810479614446" lon="10.411108487618105"><ele>302.0</ele><time>2026-05-02T09:25:45.002Z</time></trkpt><trkpt lat="44.11889245156007" lon="10.411110966182619"><ele>303.5</ele><time>2026-05-02T09:25:46.002Z</time></trkpt><trkpt lat="44.11896601362672" lon="10.411110722910266"><ele>305.0</ele><time>2026-05-02T09:25:47.002Z</time></trkpt><trkpt lat="44.11903792655718" lon="10.411106510928958"><ele>305.83333333333337</ele><time>2026-05-02T09:25:48.002Z</time></trkpt><trkpt lat="44.11913109454429" lon="10.411099114135279"><ele>306.6666666666667</ele><time>2026-05-02T09:25:49.002Z</time></trkpt><trkpt lat="44.11920975570721" lon="10.411095086465249"><ele>307.5</ele><time>2026-05-02T09:25:50.002Z</time></trkpt><trkpt lat="44.119294779627914" lon="10.411090550568508"><ele>308.3333333333333</ele><time>2026-05-02T09:25:51.002Z</time></trkpt><trkpt lat="44.1193769040962" lon="10.411086169201257"><ele>309.16666666666663</ele><time>2026-05-02T09:25:52.002Z</time></trkpt><trkpt lat="44.119453057418774" lon="10.411082458817985"><ele>310.0</ele><time>2026-05-02T09:25:53.002Z</time></trkpt><trkpt lat="44.119532352136964" lon="10.41107843578907"><ele>310.0</ele><time>2026-05-02T09:25:54.002Z</time></trkpt><trkpt lat="44.11961285483065" lon="10.411071863041416"><ele>310.0</ele><time>2026-05-02T09:25:55.002Z</time></trkpt><trkpt lat="44.11968671117792" lon="10.411138107847123"><ele>310.0</ele><time>2026-05-02T09:25:56.002Z</time></trkpt><trkpt lat="44.11974187496337" lon="10.411227559426536"><ele>310.0</ele><time>2026-05-02T09:25:57.002Z</time></trkpt><trkpt lat="44.119774830164836" lon="10.411346290663015"><ele>310.0</ele><time>2026-05-02T09:25:58.002Z</time></trkpt><trkpt lat="44.11978328995702" lon="10.41145503552927"><ele>310.0</ele><time>2026-05-02T09:25:59.002Z</time></trkpt><trkpt lat="44.119778240298196" lon="10.411556865842089"><ele>310.0</ele><time>2026-05-02T09:26:00.002Z</time></trkpt><trkpt lat="44.11983411452122" lon="10.411660064823922"><ele>310.0</ele><time>2026-05-02T09:26:02.002Z</time></trkpt><trkpt lat="44.11995699469716" lon="10.411638573137372"><ele>310.0</ele><time>2026-05-02T09:26:04.002Z</time></trkpt><trkpt lat="44.12003026250977" lon="10.411459340184972"><ele>310.0</ele><time>2026-05-02T09:26:05.002Z</time></trkpt><trkpt lat="44.12000769890878" lon="10.411295749623338"><ele>310.0</ele><time>2026-05-02T09:26:08.002Z</time></trkpt><trkpt lat="44.11998205198545" lon="10.411170376273704"><ele>310.0</ele><time>2026-05-02T09:26:09.002Z</time></trkpt><trkpt lat="44.11994577133406" lon="10.411046139138174"><ele>310.0</ele><time>2026-05-02T09:26:10.002Z</time></trkpt><trkpt lat="44.11988857455168" lon="10.410930391549034"><ele>310.0</ele><time>2026-05-02T09:26:11.002Z</time></trkpt><trkpt lat="44.11981641162561" lon="10.410855498399792"><ele>310.0</ele><time>2026-05-02T09:26:12.002Z</time></trkpt><trkpt lat="44.119729154319295" lon="10.410798468536347"><ele>310.0</ele><time>2026-05-02T09:26:13.002Z</time></trkpt><trkpt lat="44.11963058694282" lon="10.410779470472638"><ele>310.0</ele><time>2026-05-02T09:26:14.002Z</time></trkpt><trkpt lat="44.11953591345785" lon="10.410773312786795"><ele>310.0</ele><time>2026-05-02T09:26:15.002Z</time></trkpt><trkpt lat="44.1194355734593" lon="10.410774527140317"><ele>310.0</ele><time>2026-05-02T09:26:16.002Z</time></trkpt><trkpt lat="44.119341148715996" lon="10.410774295858232"><ele>310.0</ele><time>2026-05-02T09:26:17.002Z</time></trkpt><trkpt lat="44.119253885389995" lon="10.410751418846509"><ele>310.0</ele><time>2026-05-02T09:26:18.002Z</time></trkpt><trkpt lat="44.119177279627074" lon="10.410698677348664"><ele>310.0</ele><time>2026-05-02T09:26:19.002Z</time></trkpt><trkpt lat="44.119111829927334" lon="10.410600602629588"><ele>310.0</ele><time>2026-05-02T09:26:20.002Z</time></trkpt><trkpt lat="44.11908911718634" lon="10.410475590682895"><ele>310.0</ele><time>2026-05-02T09:26:21.002Z</time></trkpt><trkpt lat="44.11906375685014" lon="10.410355719364304"><ele>310.0</ele><time>2026-05-02T09:26:22.002Z</time></trkpt><trkpt lat="44.11907850630054" lon="10.410221477033549"><ele>311.0</ele><time>2026-05-02T09:26:23.002Z</time></trkpt><trkpt lat="44.11913169824254" lon="10.410105250174576"><ele>312.0</ele><time>2026-05-02T09:26:24.002Z</time></trkpt><trkpt lat="44.119209669365986" lon="10.410029563130822"><ele>313.0</ele><time>2026-05-02T09:26:25.002Z</time></trkpt><trkpt lat="44.11929155284027" lon="10.409957367565326"><ele>314.0</ele><time>2026-05-02T09:26:26.002Z</time></trkpt><trkpt lat="44.11938178156912" lon="10.409882121600463"><ele>315.0</ele><time>2026-05-02T09:26:27.002Z</time></trkpt><trkpt lat="44.119465184941696" lon="10.409790788804903"><ele>315.0</ele><time>2026-05-02T09:26:28.002Z</time></trkpt><trkpt lat="44.119563335579954" lon="10.409723178947043"><ele>315.0</ele><time>2026-05-02T09:26:29.002Z</time></trkpt><trkpt lat="44.1196926428192" lon="10.409662885435182"><ele>315.0</ele><time>2026-05-02T09:26:30.002Z</time></trkpt><trkpt lat="44.119780161395695" lon="10.409579711950979"><ele>315.0</ele><time>2026-05-02T09:26:31.002Z</time></trkpt><trkpt lat="44.119864733096904" lon="10.409511679061852"><ele>315.0</ele><time>2026-05-02T09:26:32.002Z</time></trkpt><trkpt lat="44.11994412848143" lon="10.409447713758485"><ele>315.6</ele><time>2026-05-02T09:26:33.002Z</time></trkpt><trkpt lat="44.12001565398319" lon="10.409376512418964"><ele>316.2</ele><time>2026-05-02T09:26:34.002Z</time></trkpt><trkpt lat="44.12009257587378" lon="10.40931024623182"><ele>316.8</ele><time>2026-05-02T09:26:35.002Z</time></trkpt><trkpt lat="44.12017841209271" lon="10.40924724128048"><ele>317.4</ele><time>2026-05-02T09:26:36.002Z</time></trkpt><trkpt lat="44.1202627352727" lon="10.409180011780549"><ele>318.0</ele><time>2026-05-02T09:26:37.002Z</time></trkpt><trkpt lat="44.12035541986935" lon="10.409128933291617"><ele>318.0</ele><time>2026-05-02T09:26:38.002Z</time></trkpt><trkpt lat="44.120449137561835" lon="10.409086221452762"><ele>318.0</ele><time>2026-05-02T09:26:39.002Z</time></trkpt><trkpt lat="44.120547837722285" lon="10.409056300879222"><ele>318.0</ele><time>2026-05-02T09:26:40.002Z</time></trkpt><trkpt lat="44.12065200626259" lon="10.409039909493757"><ele>318.0</ele><time>2026-05-02T09:26:41.002Z</time></trkpt><trkpt lat="44.12075263209825" lon="10.409034016922934"><ele>318.0</ele><time>2026-05-02T09:26:42.002Z</time></trkpt><trkpt lat="44.12084832128484" lon="10.409038447357206"><ele>319.8</ele><time>2026-05-02T09:26:43.002Z</time></trkpt><trkpt lat="44.120954902599955" lon="10.409050804800229"><ele>321.6</ele><time>2026-05-02T09:26:44.002Z</time></trkpt><trkpt lat="44.121058274021934" lon="10.409068077940832"><ele>323.40000000000003</ele><time>2026-05-02T09:26:45.002Z</time></trkpt><trkpt lat="44.121161767514664" lon="10.409084314478022"><ele>325.20000000000005</ele><time>2026-05-02T09:26:46.002Z</time></trkpt><trkpt lat="44.121255114882864" lon="10.409101674249879"><ele>327.0</ele><time>2026-05-02T09:26:47.002Z</time></trkpt><trkpt lat="44.12134143138446" lon="10.40911235089824"><ele>327.0</ele><time>2026-05-02T09:26:48.002Z</time></trkpt><trkpt lat="44.12142328962967" lon="10.409122544723651"><ele>327.0</ele><time>2026-05-02T09:26:49.002Z</time></trkpt><trkpt lat="44.12150554757837" lon="10.409137544036067"><ele>327.0</ele><time>2026-05-02T09:26:50.002Z</time></trkpt><trkpt lat="44.12159209590625" lon="10.409149818047123"><ele>327.0</ele><time>2026-05-02T09:26:51.002Z</time></trkpt><trkpt lat="44.121680719521066" lon="10.409160064768157"><ele>327.0</ele><time>2026-05-02T09:26:52.002Z</time></trkpt><trkpt lat="44.12177097530018" lon="10.409174505086504"><ele>327.0</ele><time>2026-05-02T09:26:53.002Z</time></trkpt><trkpt lat="44.1218664684968" lon="10.409190248687374"><ele>327.5</ele><time>2026-05-02T09:26:54.002Z</time></trkpt><trkpt lat="44.121961467001086" lon="10.409211338094341"><ele>328.0</ele><time>2026-05-02T09:26:55.002Z</time></trkpt><trkpt lat="44.12204904173015" lon="10.409225638465944"><ele>328.5</ele><time>2026-05-02T09:26:56.002Z</time></trkpt><trkpt lat="44.12213096287544" lon="10.409240890415532"><ele>329.0</ele><time>2026-05-02T09:26:57.002Z</time></trkpt><trkpt lat="44.122206083564606" lon="10.409252640669763"><ele>329.5</ele><time>2026-05-02T09:26:58.002Z</time></trkpt><trkpt lat="44.122276678680336" lon="10.409259655852432"><ele>330.0</ele><time>2026-05-02T09:26:59.002Z</time></trkpt><trkpt lat="44.12234891077512" lon="10.409271560766301"><ele>330.5</ele><time>2026-05-02T09:27:00.002Z</time></trkpt><trkpt lat="44.1224274489524" lon="10.409279460146534"><ele>331.0</ele><time>2026-05-02T09:27:01.002Z</time></trkpt><trkpt lat="44.12250980324791" lon="10.409296179571545"><ele>331.5</ele><time>2026-05-02T09:27:02.002Z</time></trkpt><trkpt lat="44.12259639342086" lon="10.409309828403712"><ele>332.0</ele><time>2026-05-02T09:27:03.002Z</time></trkpt><trkpt lat="44.12268495468082" lon="10.40932831078695"><ele>332.5</ele><time>2026-05-02T09:27:04.002Z</time></trkpt><trkpt lat="44.12278300267794" lon="10.409343611362578"><ele>333.0</ele><time>2026-05-02T09:27:05.002Z</time></trkpt><trkpt lat="44.122872265335026" lon="10.409348987363582"><ele>333.0</ele><time>2026-05-02T09:27:06.002Z</time></trkpt><trkpt lat="44.12297189206433" lon="10.409363042656217"><ele>333.0</ele><time>2026-05-02T09:27:07.002Z</time></trkpt><trkpt lat="44.12305878018604" lon="10.409390059212171"><ele>333.0</ele><time>2026-05-02T09:27:08.002Z</time></trkpt><trkpt lat="44.12314292647461" lon="10.409435991629863"><ele>333.0</ele><time>2026-05-02T09:27:09.002Z</time></trkpt><trkpt lat="44.123223672425105" lon="10.409460532856723"><ele>333.0</ele><time>2026-05-02T09:27:10.002Z</time></trkpt><trkpt lat="44.12330998932154" lon="10.409489525054623"><ele>333.4</ele><time>2026-05-02T09:27:11.002Z</time></trkpt><trkpt lat="44.12339527641592" lon="10.409521161602589"><ele>333.79999999999995</ele><time>2026-05-02T09:27:12.002Z</time></trkpt><trkpt lat="44.12348264981109" lon="10.409551934058507"><ele>334.2</ele><time>2026-05-02T09:27:13.002Z</time></trkpt><trkpt lat="44.1235725451508" lon="10.409581800724185"><ele>334.6</ele><time>2026-05-02T09:27:14.002Z</time></trkpt><trkpt lat="44.1236668029591" lon="10.409613094735858"><ele>335.0</ele><time>2026-05-02T09:27:15.002Z</time></trkpt><trkpt lat="44.12375929621528" lon="10.409639124518986"><ele>335.1666666666667</ele><time>2026-05-02T09:27:16.002Z</time></trkpt><trkpt lat="44.12385448765741" lon="10.409669552081121"><ele>335.33333333333337</ele><time>2026-05-02T09:27:17.002Z</time></trkpt><trkpt lat="44.12394567095493" lon="10.409695443378673"><ele>335.5</ele><time>2026-05-02T09:27:18.002Z</time></trkpt><trkpt lat="44.12402097465" lon="10.409744975760416"><ele>335.6666666666667</ele><time>2026-05-02T09:27:19.002Z</time></trkpt><trkpt lat="44.124094636261965" lon="10.409773023355198"><ele>335.8333333333333</ele><time>2026-05-02T09:27:20.002Z</time></trkpt><trkpt lat="44.1241724842598" lon="10.409810799372275"><ele>336.0</ele><time>2026-05-02T09:27:21.002Z</time></trkpt><trkpt lat="44.12425046579763" lon="10.409848758863898"><ele>336.8</ele><time>2026-05-02T09:27:22.002Z</time></trkpt><trkpt lat="44.124332267611265" lon="10.409891000980535"><ele>337.6</ele><time>2026-05-02T09:27:23.002Z</time></trkpt><trkpt lat="44.12441604650189" lon="10.409941717824847"><ele>338.4</ele><time>2026-05-02T09:27:24.002Z</time></trkpt><trkpt lat="44.12449090226085" lon="10.409971184976312"><ele>339.2</ele><time>2026-05-02T09:27:25.002Z</time></trkpt><trkpt lat="44.12460186932011" lon="10.410028916144453"><ele>340.0</ele><time>2026-05-02T09:27:27.002Z</time></trkpt><trkpt lat="44.12467083121874" lon="10.410098488744502"><ele>340.0</ele><time>2026-05-02T09:27:29.002Z</time></trkpt><trkpt lat="44.12472003939819" lon="10.410228915285721"><ele>340.0</ele><time>2026-05-02T09:27:31.002Z</time></trkpt><trkpt lat="44.12479487443249" lon="10.410352054634862"><ele>340.0</ele><time>2026-05-02T09:27:33.002Z</time></trkpt><trkpt lat="44.124862784736706" lon="10.410399046789054"><ele>340.0</ele><time>2026-05-02T09:27:34.002Z</time></trkpt><trkpt lat="44.12494178523546" lon="10.410419253534771"><ele>340.0</ele><time>2026-05-02T09:27:35.002Z</time></trkpt><trkpt lat="44.12502522696904" lon="10.410404304360847"><ele>340.8</ele><time>2026-05-02T09:27:36.002Z</time></trkpt><trkpt lat="44.12509852129257" lon="10.41036598193748"><ele>341.6</ele><time>2026-05-02T09:27:37.002Z</time></trkpt><trkpt lat="44.1251379080552" lon="10.41027354328085"><ele>342.4</ele><time>2026-05-02T09:27:38.002Z</time></trkpt><trkpt lat="44.12525720152888" lon="10.410368214212331"><ele>343.2</ele><time>2026-05-02T09:27:39.002Z</time></trkpt><trkpt lat="44.1253407776173" lon="10.410405531240432"><ele>344.0</ele><time>2026-05-02T09:27:40.002Z</time></trkpt><trkpt lat="44.12542379146201" lon="10.410428484240416"><ele>344.0</ele><time>2026-05-02T09:27:41.002Z</time></trkpt><trkpt lat="44.125505355179655" lon="10.410471362884701"><ele>344.0</ele><time>2026-05-02T09:27:42.002Z</time></trkpt><trkpt lat="44.12559341170324" lon="10.410505078846874"><ele>344.0</ele><time>2026-05-02T09:27:43.002Z</time></trkpt><trkpt lat="44.12567842282193" lon="10.410542069908733"><ele>344.0</ele><time>2026-05-02T09:27:44.002Z</time></trkpt><trkpt lat="44.12576168659444" lon="10.410581845267249"><ele>344.0</ele><time>2026-05-02T09:27:45.002Z</time></trkpt><trkpt lat="44.12584804965904" lon="10.41061711342366"><ele>344.0</ele><time>2026-05-02T09:27:46.002Z</time></trkpt><trkpt lat="44.125938292039976" lon="10.41065077816464"><ele>344.79999999999995</ele><time>2026-05-02T09:27:47.002Z</time></trkpt><trkpt lat="44.1260285974871" lon="10.410677530281804"><ele>345.59999999999997</ele><time>2026-05-02T09:27:48.002Z</time></trkpt><trkpt lat="44.1261213826022" lon="10.410709841202236"><ele>346.4</ele><time>2026-05-02T09:27:49.002Z</time></trkpt><trkpt lat="44.12621251563746" lon="10.410732281071429"><ele>347.2</ele><time>2026-05-02T09:27:50.002Z</time></trkpt><trkpt lat="44.12630382577476" lon="10.410752942438751"><ele>348.0</ele><time>2026-05-02T09:27:51.002Z</time></trkpt><trkpt lat="44.126401284446914" lon="10.41078257091174"><ele>348.0</ele><time>2026-05-02T09:27:52.002Z</time></trkpt><trkpt lat="44.1264962364516" lon="10.410803827719665"><ele>348.0</ele><time>2026-05-02T09:27:53.002Z</time></trkpt><trkpt lat="44.12659477962825" lon="10.410834201070855"><ele>348.0</ele><time>2026-05-02T09:27:54.002Z</time></trkpt><trkpt lat="44.126689687878034" lon="10.41086065304358"><ele>348.0</ele><time>2026-05-02T09:27:55.002Z</time></trkpt><trkpt lat="44.1267850444533" lon="10.410889452569274"><ele>348.0</ele><time>2026-05-02T09:27:56.002Z</time></trkpt><trkpt lat="44.126880514067686" lon="10.410914556022842"><ele>348.2</ele><time>2026-05-02T09:27:57.002Z</time></trkpt><trkpt lat="44.12697384376886" lon="10.410940920175562"><ele>348.4</ele><time>2026-05-02T09:27:58.002Z</time></trkpt><trkpt lat="44.127067260610445" lon="10.410965695360277"><ele>348.59999999999997</ele><time>2026-05-02T09:27:59.002Z</time></trkpt><trkpt lat="44.127149049150965" lon="10.410997362915808"><ele>348.79999999999995</ele><time>2026-05-02T09:28:00.002Z</time></trkpt><trkpt lat="44.127234728855676" lon="10.41102613650189"><ele>349.0</ele><time>2026-05-02T09:28:01.002Z</time></trkpt><trkpt lat="44.12732407474751" lon="10.411046252606383"><ele>349.2</ele><time>2026-05-02T09:28:02.002Z</time></trkpt><trkpt lat="44.12740807405048" lon="10.411071486531242"><ele>349.4</ele><time>2026-05-02T09:28:03.002Z</time></trkpt><trkpt lat="44.12749514321009" lon="10.411096836462736"><ele>349.6</ele><time>2026-05-02T09:28:04.002Z</time></trkpt><trkpt lat="44.12758514669452" lon="10.411141650478863"><ele>349.8</ele><time>2026-05-02T09:28:05.002Z</time></trkpt><trkpt lat="44.127677707573106" lon="10.41117257723947"><ele>350.0</ele><time>2026-05-02T09:28:06.002Z</time></trkpt><trkpt lat="44.127771608817206" lon="10.411198865795248"><ele>350.0</ele><time>2026-05-02T09:28:07.002Z</time></trkpt><trkpt lat="44.1278726212195" lon="10.411233213979113"><ele>350.0</ele><time>2026-05-02T09:28:08.002Z</time></trkpt><trkpt lat="44.127966824188576" lon="10.41126879067397"><ele>350.0</ele><time>2026-05-02T09:28:09.002Z</time></trkpt><trkpt lat="44.12806263011286" lon="10.411301117439756"><ele>350.0</ele><time>2026-05-02T09:28:10.002Z</time></trkpt><trkpt lat="44.12815493569816" lon="10.411334752455229"><ele>350.0</ele><time>2026-05-02T09:28:11.002Z</time></trkpt><trkpt lat="44.12824561923619" lon="10.411366918965147"><ele>350.5</ele><time>2026-05-02T09:28:12.002Z</time></trkpt><trkpt lat="44.12833686727899" lon="10.411390646973567"><ele>351.0</ele><time>2026-05-02T09:28:13.002Z</time></trkpt><trkpt lat="44.128418818797634" lon="10.4114147861292"><ele>351.5</ele><time>2026-05-02T09:28:14.002Z</time></trkpt><trkpt lat="44.12849360839164" lon="10.411426918509301"><ele>352.0</ele><time>2026-05-02T09:28:15.002Z</time></trkpt><trkpt lat="44.12856262467371" lon="10.411421967769142"><ele>352.5</ele><time>2026-05-02T09:28:16.002Z</time></trkpt><trkpt lat="44.128634594917074" lon="10.411414126251492"><ele>353.0</ele><time>2026-05-02T09:28:17.002Z</time></trkpt><trkpt lat="44.12870246526658" lon="10.411419483164737"><ele>353.0</ele><time>2026-05-02T09:28:18.002Z</time></trkpt><trkpt lat="44.128802857294026" lon="10.411467187178205"><ele>353.0</ele><time>2026-05-02T09:28:20.002Z</time></trkpt><trkpt lat="44.1288806875875" lon="10.411562596828961"><ele>353.0</ele><time>2026-05-02T09:28:22.002Z</time></trkpt><trkpt lat="44.12899359129933" lon="10.411619075392089"><ele>353.0</ele><time>2026-05-02T09:28:24.002Z</time></trkpt><trkpt lat="44.129059204819185" lon="10.41163751582659"><ele>353.0</ele><time>2026-05-02T09:28:25.002Z</time></trkpt><trkpt lat="44.12916786849028" lon="10.41168525610192"><ele>353.33333333333337</ele><time>2026-05-02T09:28:27.002Z</time></trkpt><trkpt lat="44.12923155383787" lon="10.41171179277256"><ele>353.6666666666667</ele><time>2026-05-02T09:28:28.002Z</time></trkpt><trkpt lat="44.129301728401636" lon="10.411735126506743"><ele>354.0</ele><time>2026-05-02T09:28:29.002Z</time></trkpt><trkpt lat="44.12938258738695" lon="10.411762364382467"><ele>354.3333333333333</ele><time>2026-05-02T09:28:30.002Z</time></trkpt><trkpt lat="44.129460889773526" lon="10.411796002657134"><ele>354.66666666666663</ele><time>2026-05-02T09:28:31.002Z</time></trkpt><trkpt lat="44.12954463451414" lon="10.411819653939022"><ele>355.0</ele><time>2026-05-02T09:28:32.002Z</time></trkpt><trkpt lat="44.12962514218447" lon="10.411852775394006"><ele>355.0</ele><time>2026-05-02T09:28:33.002Z</time></trkpt><trkpt lat="44.129701877171684" lon="10.41189039697384"><ele>355.0</ele><time>2026-05-02T09:28:34.002Z</time></trkpt><trkpt lat="44.12978452377833" lon="10.411931881394334"><ele>355.0</ele><time>2026-05-02T09:28:35.002Z</time></trkpt><trkpt lat="44.12986230534889" lon="10.411979084206576"><ele>355.0</ele><time>2026-05-02T09:28:36.002Z</time></trkpt><trkpt lat="44.129941266900694" lon="10.412033237780065"><ele>355.0</ele><time>2026-05-02T09:28:37.002Z</time></trkpt><trkpt lat="44.1300219107422" lon="10.41208637345392"><ele>355.0</ele><time>2026-05-02T09:28:38.002Z</time></trkpt><trkpt lat="44.13010832869399" lon="10.412144590872591"><ele>356.6</ele><time>2026-05-02T09:28:39.002Z</time></trkpt><trkpt lat="44.130193154326484" lon="10.412177982824707"><ele>358.2</ele><time>2026-05-02T09:28:40.002Z</time></trkpt><trkpt lat="44.1302812742692" lon="10.412242998201908"><ele>359.79999999999995</ele><time>2026-05-02T09:28:41.002Z</time></trkpt><trkpt lat="44.13036498920961" lon="10.412297421648427"><ele>361.4</ele><time>2026-05-02T09:28:42.002Z</time></trkpt><trkpt lat="44.13044831004948" lon="10.41235062780957"><ele>363.0</ele><time>2026-05-02T09:28:43.002Z</time></trkpt><trkpt lat="44.13052040586232" lon="10.412416175103326"><ele>363.0</ele><time>2026-05-02T09:28:44.002Z</time></trkpt><trkpt lat="44.130594508517525" lon="10.412470721295955"><ele>363.0</ele><time>2026-05-02T09:28:45.002Z</time></trkpt><trkpt lat="44.13067061326831" lon="10.41253418673308"><ele>363.0</ele><time>2026-05-02T09:28:46.002Z</time></trkpt><trkpt lat="44.13075455994318" lon="10.412583753000892"><ele>363.0</ele><time>2026-05-02T09:28:47.002Z</time></trkpt><trkpt lat="44.13083808112941" lon="10.412644884516054"><ele>363.0</ele><time>2026-05-02T09:28:48.002Z</time></trkpt><trkpt lat="44.130931017692056" lon="10.412700216684838"><ele>363.2</ele><time>2026-05-02T09:28:49.002Z</time></trkpt><trkpt lat="44.131020937331854" lon="10.412760652594251"><ele>363.4</ele><time>2026-05-02T09:28:50.002Z</time></trkpt><trkpt lat="44.131099135546805" lon="10.412820035054478"><ele>363.59999999999997</ele><time>2026-05-02T09:28:51.002Z</time></trkpt><trkpt lat="44.131183664858725" lon="10.412872382417016"><ele>363.79999999999995</ele><time>2026-05-02T09:28:52.002Z</time></trkpt><trkpt lat="44.13126924794311" lon="10.412927180465795"><ele>364.0</ele><time>2026-05-02T09:28:53.002Z</time></trkpt><trkpt lat="44.13135372124728" lon="10.412981871520554"><ele>364.3333333333333</ele><time>2026-05-02T09:28:54.002Z</time></trkpt><trkpt lat="44.131446266806954" lon="10.413050228198511"><ele>364.66666666666663</ele><time>2026-05-02T09:28:55.002Z</time></trkpt><trkpt lat="44.131531304204" lon="10.413110078320747"><ele>365.0</ele><time>2026-05-02T09:28:56.002Z</time></trkpt><trkpt lat="44.131606929396824" lon="10.413160355115334"><ele>365.3333333333333</ele><time>2026-05-02T09:28:57.002Z</time></trkpt><trkpt lat="44.13168046338237" lon="10.413192812412383"><ele>365.6666666666667</ele><time>2026-05-02T09:28:58.002Z</time></trkpt><trkpt lat="44.13174633566184" lon="10.413220381755265"><ele>366.0</ele><time>2026-05-02T09:28:59.002Z</time></trkpt><trkpt lat="44.131812431679315" lon="10.41325279700854"><ele>366.3333333333333</ele><time>2026-05-02T09:29:00.002Z</time></trkpt><trkpt lat="44.13188072312852" lon="10.41329929350723"><ele>366.6666666666667</ele><time>2026-05-02T09:29:01.002Z</time></trkpt><trkpt lat="44.131949752440114" lon="10.413338261449484"><ele>367.0</ele><time>2026-05-02T09:29:02.002Z</time></trkpt><trkpt lat="44.13202582920578" lon="10.413354229336642"><ele>367.33333333333337</ele><time>2026-05-02T09:29:03.002Z</time></trkpt><trkpt lat="44.132097943326066" lon="10.413379857851284"><ele>367.6666666666667</ele><time>2026-05-02T09:29:04.002Z</time></trkpt><trkpt lat="44.13217914600884" lon="10.413408314969153"><ele>368.0</ele><time>2026-05-02T09:29:05.002Z</time></trkpt><trkpt lat="44.13225712545023" lon="10.413442253872054"><ele>368.0</ele><time>2026-05-02T09:29:06.002Z</time></trkpt><trkpt lat="44.13233263800987" lon="10.41347896669235"><ele>368.0</ele><time>2026-05-02T09:29:07.002Z</time></trkpt><trkpt lat="44.13240577822616" lon="10.413512468475215"><ele>368.0</ele><time>2026-05-02T09:29:08.002Z</time></trkpt><trkpt lat="44.13247609316163" lon="10.413537710976806"><ele>368.0</ele><time>2026-05-02T09:29:09.002Z</time></trkpt><trkpt lat="44.13254868754144" lon="10.413566151954582"><ele>368.0</ele><time>2026-05-02T09:29:10.002Z</time></trkpt><trkpt lat="44.13262049861445" lon="10.413589724987578"><ele>368.0</ele><time>2026-05-02T09:29:11.002Z</time></trkpt><trkpt lat="44.13269714548339" lon="10.413617547302223"><ele>368.6666666666667</ele><time>2026-05-02T09:29:12.002Z</time></trkpt><trkpt lat="44.13277519330931" lon="10.413652835322365"><ele>369.33333333333337</ele><time>2026-05-02T09:29:13.002Z</time></trkpt><trkpt lat="44.13285846287919" lon="10.413683517505373"><ele>370.0</ele><time>2026-05-02T09:29:14.002Z</time></trkpt><trkpt lat="44.132934889652695" lon="10.413733595622265"><ele>370.6666666666667</ele><time>2026-05-02T09:29:15.002Z</time></trkpt><trkpt lat="44.13302662111957" lon="10.413771749029275"><ele>371.3333333333333</ele><time>2026-05-02T09:29:16.002Z</time></trkpt><trkpt lat="44.13311654156794" lon="10.41380741345256"><ele>372.0</ele><time>2026-05-02T09:29:17.002Z</time></trkpt><trkpt lat="44.13319903882863" lon="10.413838872599097"><ele>373.0</ele><time>2026-05-02T09:29:18.002Z</time></trkpt><trkpt lat="44.13326982847639" lon="10.413868966533677"><ele>374.0</ele><time>2026-05-02T09:29:19.002Z</time></trkpt><trkpt lat="44.133332056225534" lon="10.413898155193467"><ele>375.0</ele><time>2026-05-02T09:29:20.002Z</time></trkpt><trkpt lat="44.13340396679747" lon="10.413943259477753"><ele>376.0</ele><time>2026-05-02T09:29:21.002Z</time></trkpt><trkpt lat="44.133472784144594" lon="10.413998092499765"><ele>377.0</ele><time>2026-05-02T09:29:22.002Z</time></trkpt><trkpt lat="44.133551353457214" lon="10.4140552324512"><ele>378.0</ele><time>2026-05-02T09:29:23.002Z</time></trkpt><trkpt lat="44.13362789865328" lon="10.414125263630805"><ele>378.0</ele><time>2026-05-02T09:29:24.002Z</time></trkpt><trkpt lat="44.133692145308025" lon="10.414218174946399"><ele>378.0</ele><time>2026-05-02T09:29:25.002Z</time></trkpt><trkpt lat="44.133764161149216" lon="10.414294546119978"><ele>378.0</ele><time>2026-05-02T09:29:26.002Z</time></trkpt><trkpt lat="44.13382991738769" lon="10.414366024214234"><ele>378.0</ele><time>2026-05-02T09:29:27.002Z</time></trkpt><trkpt lat="44.13389861351066" lon="10.414441943521473"><ele>378.0</ele><time>2026-05-02T09:29:28.002Z</time></trkpt><trkpt lat="44.1339663271601" lon="10.414521615854827"><ele>378.0</ele><time>2026-05-02T09:29:29.002Z</time></trkpt><trkpt lat="44.1340333513051" lon="10.414599601688273"><ele>378.79999999999995</ele><time>2026-05-02T09:29:30.002Z</time></trkpt><trkpt lat="44.13410297160881" lon="10.414680608384417"><ele>379.6</ele><time>2026-05-02T09:29:31.002Z</time></trkpt><trkpt lat="44.13417473399411" lon="10.414762831687016"><ele>380.4</ele><time>2026-05-02T09:29:32.002Z</time></trkpt><trkpt lat="44.13424567933801" lon="10.414843034969278"><ele>381.20000000000005</ele><time>2026-05-02T09:29:33.002Z</time></trkpt><trkpt lat="44.13432016950317" lon="10.414926873664703"><ele>382.0</ele><time>2026-05-02T09:29:34.002Z</time></trkpt><trkpt lat="44.13439380804849" lon="10.415009607780428"><ele>382.0</ele><time>2026-05-02T09:29:35.002Z</time></trkpt><trkpt lat="44.134463589303635" lon="10.415087763861285"><ele>382.0</ele><time>2026-05-02T09:29:36.002Z</time></trkpt><trkpt lat="44.13453173274386" lon="10.4151639276248"><ele>382.0</ele><time>2026-05-02T09:29:37.002Z</time></trkpt><trkpt lat="44.13460019531509" lon="10.415234585458167"><ele>382.0</ele><time>2026-05-02T09:29:38.002Z</time></trkpt><trkpt lat="44.13466487676943" lon="10.415311301380708"><ele>382.0</ele><time>2026-05-02T09:29:39.002Z</time></trkpt><trkpt lat="44.134734858105475" lon="10.415384906258426"><ele>382.0</ele><time>2026-05-02T09:29:40.002Z</time></trkpt><trkpt lat="44.134803113764235" lon="10.41546051802344"><ele>381.8333333333333</ele><time>2026-05-02T09:29:41.002Z</time></trkpt><trkpt lat="44.13487092390792" lon="10.415517671612289"><ele>381.66666666666663</ele><time>2026-05-02T09:29:42.002Z</time></trkpt><trkpt lat="44.134950075239466" lon="10.415557567870435"><ele>381.5</ele><time>2026-05-02T09:29:43.002Z</time></trkpt><trkpt lat="44.13503197821071" lon="10.415595366105249"><ele>381.3333333333333</ele><time>2026-05-02T09:29:44.002Z</time></trkpt><trkpt lat="44.135116056575974" lon="10.41563479813044"><ele>381.1666666666667</ele><time>2026-05-02T09:29:45.002Z</time></trkpt><trkpt lat="44.13519528168299" lon="10.415676144863268"><ele>381.0</ele><time>2026-05-02T09:29:46.002Z</time></trkpt><trkpt lat="44.135278806661326" lon="10.415716443720088"><ele>381.6</ele><time>2026-05-02T09:29:47.002Z</time></trkpt><trkpt lat="44.13536748648343" lon="10.415747328454023"><ele>382.20000000000005</ele><time>2026-05-02T09:29:48.002Z</time></trkpt><trkpt lat="44.135447004559296" lon="10.415801489282533"><ele>382.79999999999995</ele><time>2026-05-02T09:29:49.002Z</time></trkpt><trkpt lat="44.13553494219235" lon="10.415835201713568"><ele>383.4</ele><time>2026-05-02T09:29:50.002Z</time></trkpt><trkpt lat="44.13562725213514" lon="10.415881233301572"><ele>384.0</ele><time>2026-05-02T09:29:51.002Z</time></trkpt><trkpt lat="44.135716079797916" lon="10.415916156357259"><ele>384.6666666666667</ele><time>2026-05-02T09:29:52.002Z</time></trkpt><trkpt lat="44.13580695007019" lon="10.415951921604375"><ele>385.33333333333337</ele><time>2026-05-02T09:29:53.002Z</time></trkpt><trkpt lat="44.13588914466064" lon="10.415987442452387"><ele>386.0</ele><time>2026-05-02T09:29:54.002Z</time></trkpt><trkpt lat="44.13597172731691" lon="10.416026596062068"><ele>386.6666666666667</ele><time>2026-05-02T09:29:55.002Z</time></trkpt><trkpt lat="44.13605575925877" lon="10.41606873834845"><ele>387.33333333333337</ele><time>2026-05-02T09:29:56.002Z</time></trkpt><trkpt lat="44.136139668921324" lon="10.416116220957413"><ele>388.0</ele><time>2026-05-02T09:29:57.002Z</time></trkpt><trkpt lat="44.13622351155827" lon="10.416167666778321"><ele>388.0</ele><time>2026-05-02T09:29:58.002Z</time></trkpt><trkpt lat="44.13630538297435" lon="10.416225125555163"><ele>388.0</ele><time>2026-05-02T09:29:59.002Z</time></trkpt><trkpt lat="44.136385542575084" lon="10.416292125020606"><ele>388.0</ele><time>2026-05-02T09:30:00.002Z</time></trkpt><trkpt lat="44.136459661438224" lon="10.416363023872345"><ele>388.0</ele><time>2026-05-02T09:30:01.002Z</time></trkpt><trkpt lat="44.13653485595014" lon="10.41644249962899"><ele>388.0</ele><time>2026-05-02T09:30:02.002Z</time></trkpt><trkpt lat="44.13661374251712" lon="10.416522747303793"><ele>389.2</ele><time>2026-05-02T09:30:03.002Z</time></trkpt><trkpt lat="44.13669207136037" lon="10.416600350267247"><ele>390.4</ele><time>2026-05-02T09:30:04.002Z</time></trkpt><trkpt lat="44.136768312890474" lon="10.416678205539643"><ele>391.59999999999997</ele><time>2026-05-02T09:30:05.002Z</time></trkpt><trkpt lat="44.136846493345594" lon="10.416753351100203"><ele>392.79999999999995</ele><time>2026-05-02T09:30:06.002Z</time></trkpt><trkpt lat="44.13691758761053" lon="10.416832598398196"><ele>394.0</ele><time>2026-05-02T09:30:07.002Z</time></trkpt><trkpt lat="44.13698296114309" lon="10.41691658044222"><ele>394.00000000000006</ele><time>2026-05-02T09:30:08.002Z</time></trkpt><trkpt lat="44.13704978533834" lon="10.416997255495046"><ele>394.0</ele><time>2026-05-02T09:30:09.002Z</time></trkpt><trkpt lat="44.13712197109493" lon="10.417070260623692"><ele>394.0</ele><time>2026-05-02T09:30:10.002Z</time></trkpt><trkpt lat="44.137185954926856" lon="10.417149230221526"><ele>394.0</ele><time>2026-05-02T09:30:11.002Z</time></trkpt><trkpt lat="44.13724407424575" lon="10.417226524951431"><ele>394.00000000000006</ele><time>2026-05-02T09:30:12.002Z</time></trkpt><trkpt lat="44.137306706759176" lon="10.417290198566455"><ele>394.0</ele><time>2026-05-02T09:30:13.002Z</time></trkpt><trkpt lat="44.13735933260869" lon="10.417357016943836"><ele>395.2</ele><time>2026-05-02T09:30:14.002Z</time></trkpt><trkpt lat="44.1374298045674" lon="10.417461424689272"><ele>396.4</ele><time>2026-05-02T09:30:16.002Z</time></trkpt><trkpt lat="44.13748803885941" lon="10.417573386058987"><ele>397.6</ele><time>2026-05-02T09:30:18.002Z</time></trkpt><trkpt lat="44.13756821852118" lon="10.417652423144894"><ele>398.8</ele><time>2026-05-02T09:30:20.002Z</time></trkpt><trkpt lat="44.137643886943344" lon="10.417741774702312"><ele>400.0</ele><time>2026-05-02T09:30:22.002Z</time></trkpt><trkpt lat="44.137697045421646" lon="10.417856288146726"><ele>400.00000000000006</ele><time>2026-05-02T09:30:24.002Z</time></trkpt><trkpt lat="44.1377530402827" lon="10.417914337084643"><ele>400.0</ele><time>2026-05-02T09:30:25.002Z</time></trkpt><trkpt lat="44.13780706314312" lon="10.417977617396504"><ele>400.0</ele><time>2026-05-02T09:30:26.002Z</time></trkpt><trkpt lat="44.13788717593711" lon="10.41809364092671"><ele>400.0</ele><time>2026-05-02T09:30:28.002Z</time></trkpt><trkpt lat="44.137947004318285" lon="10.418146203564007"><ele>400.00000000000006</ele><time>2026-05-02T09:30:29.002Z</time></trkpt><trkpt lat="44.13801736330694" lon="10.418284560527859"><ele>400.0</ele><time>2026-05-02T09:30:30.991Z</time></trkpt><trkpt lat="44.13804742075926" lon="10.418363272976213"><ele>400.6</ele><time>2026-05-02T09:30:31.991Z</time></trkpt><trkpt lat="44.13811382989495" lon="10.4184928434111"><ele>401.2</ele><time>2026-05-02T09:30:33.991Z</time></trkpt><trkpt lat="44.138184803439486" lon="10.418612407236552"><ele>401.79999999999995</ele><time>2026-05-02T09:30:35.991Z</time></trkpt><trkpt lat="44.13826589893322" lon="10.418704610458452"><ele>402.4</ele><time>2026-05-02T09:30:37.991Z</time></trkpt><trkpt lat="44.13835582968739" lon="10.418781653468637"><ele>403.0</ele><time>2026-05-02T09:30:39.991Z</time></trkpt><trkpt lat="44.13844243524935" lon="10.41886562237262"><ele>404.59999999999997</ele><time>2026-05-02T09:30:41.991Z</time></trkpt><trkpt lat="44.13853607483914" lon="10.418922908613512"><ele>406.2</ele><time>2026-05-02T09:30:43.991Z</time></trkpt><trkpt lat="44.138644176738666" lon="10.418961852917157"><ele>407.8</ele><time>2026-05-02T09:30:45.991Z</time></trkpt><trkpt lat="44.1386982107393" lon="10.419008316981264"><ele>409.4</ele><time>2026-05-02T09:30:46.991Z</time></trkpt><trkpt lat="44.138793255692256" lon="10.419097847363654"><ele>411.0</ele><time>2026-05-02T09:30:48.991Z</time></trkpt><trkpt lat="44.13890143363907" lon="10.41918951483374"><ele>411.0</ele><time>2026-05-02T09:30:50.991Z</time></trkpt><trkpt lat="44.13900077335568" lon="10.419281357565227"><ele>411.0</ele><time>2026-05-02T09:30:52.991Z</time></trkpt><trkpt lat="44.139069696939146" lon="10.419404687999181"><ele>411.0</ele><time>2026-05-02T09:30:54.991Z</time></trkpt><trkpt lat="44.13910332983666" lon="10.419542200289465"><ele>411.0</ele><time>2026-05-02T09:30:56.991Z</time></trkpt><trkpt lat="44.1391276262968" lon="10.419623358227987"><ele>411.0</ele><time>2026-05-02T09:30:57.991Z</time></trkpt><trkpt lat="44.13917379878623" lon="10.419762076278957"><ele>411.5</ele><time>2026-05-02T09:30:59.991Z</time></trkpt><trkpt lat="44.1391621508181" lon="10.419926913551643"><ele>412.0</ele><time>2026-05-02T09:31:01.991Z</time></trkpt><trkpt lat="44.1391364564676" lon="10.42001388851741"><ele>412.5</ele><time>2026-05-02T09:31:02.991Z</time></trkpt><trkpt lat="44.13910004156503" lon="10.42009808834992"><ele>413.0</ele><time>2026-05-02T09:31:03.991Z</time></trkpt><trkpt lat="44.139064864933246" lon="10.420174008904107"><ele>413.5</ele><time>2026-05-02T09:31:04.991Z</time></trkpt><trkpt lat="44.13901149971247" lon="10.420231088603728"><ele>414.0</ele><time>2026-05-02T09:31:05.991Z</time></trkpt><trkpt lat="44.13895268702009" lon="10.420273040227194"><ele>414.0</ele><time>2026-05-02T09:31:06.991Z</time></trkpt><trkpt lat="44.13889433809854" lon="10.420320554538863"><ele>414.0</ele><time>2026-05-02T09:31:07.991Z</time></trkpt><trkpt lat="44.13883947956373" lon="10.420382762876255"><ele>414.0</ele><time>2026-05-02T09:31:08.991Z</time></trkpt><trkpt lat="44.13878778877143" lon="10.420449889896162"><ele>414.0</ele><time>2026-05-02T09:31:09.991Z</time></trkpt><trkpt lat="44.13876706220594" lon="10.420613716231777"><ele>414.0</ele><time>2026-05-02T09:31:11.991Z</time></trkpt><trkpt lat="44.1387928161733" lon="10.420694383790616"><ele>414.0</ele><time>2026-05-02T09:31:12.991Z</time></trkpt><trkpt lat="44.13889397571063" lon="10.420774725698298"><ele>414.3333333333333</ele><time>2026-05-02T09:31:14.991Z</time></trkpt><trkpt lat="44.13896146284192" lon="10.420781777925441"><ele>414.66666666666663</ele><time>2026-05-02T09:31:15.989Z</time></trkpt><trkpt lat="44.13903151125252" lon="10.42078507788761"><ele>415.0</ele><time>2026-05-02T09:31:16.989Z</time></trkpt><trkpt lat="44.13910181915975" lon="10.420797760707199"><ele>415.3333333333333</ele><time>2026-05-02T09:31:17.989Z</time></trkpt><trkpt lat="44.13917747277993" lon="10.42081635537197"><ele>415.66666666666663</ele><time>2026-05-02T09:31:18.989Z</time></trkpt><trkpt lat="44.139261685409785" lon="10.420828868847643"><ele>416.0</ele><time>2026-05-02T09:31:19.989Z</time></trkpt><trkpt lat="44.139342408651835" lon="10.420851409617034"><ele>417.8333333333333</ele><time>2026-05-02T09:31:20.989Z</time></trkpt><trkpt lat="44.13941221773025" lon="10.42089921074682"><ele>419.66666666666663</ele><time>2026-05-02T09:31:21.989Z</time></trkpt><trkpt lat="44.139467718414785" lon="10.420970806738111"><ele>421.5</ele><time>2026-05-02T09:31:22.989Z</time></trkpt><trkpt lat="44.13949204543346" lon="10.421057647681309"><ele>423.33333333333337</ele><time>2026-05-02T09:31:23.989Z</time></trkpt><trkpt lat="44.13947980812803" lon="10.421170186577557"><ele>425.1666666666667</ele><time>2026-05-02T09:31:24.989Z</time></trkpt><trkpt lat="44.13943995103931" lon="10.421270943298024"><ele>427.0</ele><time>2026-05-02T09:31:25.989Z</time></trkpt><trkpt lat="44.13939356894314" lon="10.421369767701984"><ele>428.1666666666667</ele><time>2026-05-02T09:31:26.989Z</time></trkpt><trkpt lat="44.13935010501053" lon="10.421474613069424"><ele>429.33333333333337</ele><time>2026-05-02T09:31:27.989Z</time></trkpt><trkpt lat="44.13930179549554" lon="10.421576638105122"><ele>430.5</ele><time>2026-05-02T09:31:28.989Z</time></trkpt><trkpt lat="44.139261858704174" lon="10.421688081349986"><ele>431.66666666666663</ele><time>2026-05-02T09:31:29.989Z</time></trkpt><trkpt lat="44.13924312685082" lon="10.421811855385895"><ele>432.8333333333333</ele><time>2026-05-02T09:31:30.989Z</time></trkpt><trkpt lat="44.13924574114989" lon="10.421940060963182"><ele>434.0</ele><time>2026-05-02T09:31:31.989Z</time></trkpt><trkpt lat="44.13926242110729" lon="10.422064527463865"><ele>436.8333333333333</ele><time>2026-05-02T09:31:32.989Z</time></trkpt><trkpt lat="44.13927970301403" lon="10.422189369622377"><ele>439.66666666666663</ele><time>2026-05-02T09:31:33.989Z</time></trkpt><trkpt lat="44.13929571532887" lon="10.422316052031688"><ele>442.5</ele><time>2026-05-02T09:31:34.989Z</time></trkpt><trkpt lat="44.13927246825822" lon="10.422422609848535"><ele>445.33333333333337</ele><time>2026-05-02T09:31:35.989Z</time></trkpt><trkpt lat="44.13922116674065" lon="10.42249111240468"><ele>448.1666666666667</ele><time>2026-05-02T09:31:36.989Z</time></trkpt><trkpt lat="44.13913067868878" lon="10.422465759600183"><ele>451.0</ele><time>2026-05-02T09:31:37.989Z</time></trkpt><trkpt lat="44.139056087585836" lon="10.42240861399598"><ele>448.50000000000006</ele><time>2026-05-02T09:31:38.989Z</time></trkpt><trkpt lat="44.13898229951783" lon="10.422347616609835"><ele>446.0</ele><time>2026-05-02T09:31:39.989Z</time></trkpt><trkpt lat="44.138909148968224" lon="10.422290652243435"><ele>443.5</ele><time>2026-05-02T09:31:40.989Z</time></trkpt><trkpt lat="44.13883674487366" lon="10.422234265154094"><ele>441.0</ele><time>2026-05-02T09:31:41.989Z</time></trkpt><trkpt lat="44.13875860487761" lon="10.422232435816982"><ele>438.50000000000006</ele><time>2026-05-02T09:31:42.989Z</time></trkpt><trkpt lat="44.13869104023438" lon="10.422260205209623"><ele>436.0</ele><time>2026-05-02T09:31:43.989Z</time></trkpt><trkpt lat="44.13864116949772" lon="10.42237109643017"><ele>436.0</ele><time>2026-05-02T09:31:44.989Z</time></trkpt><trkpt lat="44.13860758550688" lon="10.422488715818469"><ele>436.0</ele><time>2026-05-02T09:31:45.989Z</time></trkpt><trkpt lat="44.138623730445794" lon="10.422621758691937"><ele>436.0</ele><time>2026-05-02T09:31:46.989Z</time></trkpt><trkpt lat="44.13865158611574" lon="10.42274228082794"><ele>436.0</ele><time>2026-05-02T09:31:47.989Z</time></trkpt><trkpt lat="44.13868112500406" lon="10.42285729560198"><ele>436.0</ele><time>2026-05-02T09:31:48.989Z</time></trkpt><trkpt lat="44.13870908169009" lon="10.422974130915538"><ele>438.8</ele><time>2026-05-02T09:31:49.989Z</time></trkpt><trkpt lat="44.13875094662974" lon="10.423090478563516"><ele>441.6</ele><time>2026-05-02T09:31:50.989Z</time></trkpt><trkpt lat="44.13878858470636" lon="10.423206291085686"><ele>444.4</ele><time>2026-05-02T09:31:51.989Z</time></trkpt><trkpt lat="44.13882533054437" lon="10.423322073796385"><ele>447.2</ele><time>2026-05-02T09:31:52.989Z</time></trkpt><trkpt lat="44.138859691422425" lon="10.42343882513939"><ele>450.0</ele><time>2026-05-02T09:31:53.989Z</time></trkpt><trkpt lat="44.13888364816374" lon="10.423565151825036"><ele>450.0</ele><time>2026-05-02T09:31:54.989Z</time></trkpt><trkpt lat="44.138890166731045" lon="10.42369084759387"><ele>450.0</ele><time>2026-05-02T09:31:55.989Z</time></trkpt><trkpt lat="44.138886958402544" lon="10.423815258372853"><ele>450.0</ele><time>2026-05-02T09:31:56.989Z</time></trkpt><trkpt lat="44.13886484100878" lon="10.42394889416387"><ele>450.0</ele><time>2026-05-02T09:31:57.989Z</time></trkpt><trkpt lat="44.13884898166445" lon="10.424068065401093"><ele>450.0</ele><time>2026-05-02T09:31:58.989Z</time></trkpt><trkpt lat="44.13884291737209" lon="10.424191101882663"><ele>451.5</ele><time>2026-05-02T09:31:59.989Z</time></trkpt><trkpt lat="44.13884696406248" lon="10.424302792955986"><ele>453.0</ele><time>2026-05-02T09:32:00.989Z</time></trkpt><trkpt lat="44.1388654125268" lon="10.424421901796656"><ele>454.5</ele><time>2026-05-02T09:32:01.989Z</time></trkpt><trkpt lat="44.138902088460945" lon="10.424537492192428"><ele>456.0</ele><time>2026-05-02T09:32:02.989Z</time></trkpt><trkpt lat="44.13893591212996" lon="10.424652497910213"><ele>457.5</ele><time>2026-05-02T09:32:03.989Z</time></trkpt><trkpt lat="44.138957259043416" lon="10.424779714335951"><ele>459.0</ele><time>2026-05-02T09:32:04.989Z</time></trkpt><trkpt lat="44.1389962444046" lon="10.424902017493048"><ele>459.1666666666667</ele><time>2026-05-02T09:32:05.989Z</time></trkpt><trkpt lat="44.139030275544535" lon="10.425017507346597"><ele>459.33333333333337</ele><time>2026-05-02T09:32:06.989Z</time></trkpt><trkpt lat="44.1390461955625" lon="10.425142641206085"><ele>459.5</ele><time>2026-05-02T09:32:07.989Z</time></trkpt><trkpt lat="44.139030135735354" lon="10.425253713518657"><ele>459.6666666666667</ele><time>2026-05-02T09:32:08.989Z</time></trkpt><trkpt lat="44.13899729226001" lon="10.425369383275216"><ele>459.83333333333337</ele><time>2026-05-02T09:32:09.989Z</time></trkpt><trkpt lat="44.1389600169661" lon="10.42547816184836"><ele>460.0</ele><time>2026-05-02T09:32:10.989Z</time></trkpt><trkpt lat="44.138936937902336" lon="10.425578960665295"><ele>460.6</ele><time>2026-05-02T09:32:11.989Z</time></trkpt><trkpt lat="44.138948516424556" lon="10.425691687128538"><ele>461.2</ele><time>2026-05-02T09:32:12.989Z</time></trkpt><trkpt lat="44.13898726745695" lon="10.425810648546369"><ele>461.79999999999995</ele><time>2026-05-02T09:32:13.989Z</time></trkpt><trkpt lat="44.1390383759676" lon="10.425916883398841"><ele>462.4</ele><time>2026-05-02T09:32:14.989Z</time></trkpt><trkpt lat="44.13910138667416" lon="10.426010908170726"><ele>463.0</ele><time>2026-05-02T09:32:15.989Z</time></trkpt><trkpt lat="44.139178120414854" lon="10.426091077989616"><ele>466.0</ele><time>2026-05-02T09:32:16.989Z</time></trkpt><trkpt lat="44.13925922553306" lon="10.426171196549838"><ele>468.99999999999994</ele><time>2026-05-02T09:32:17.989Z</time></trkpt><trkpt lat="44.13933330014918" lon="10.42624830514733"><ele>471.99999999999994</ele><time>2026-05-02T09:32:18.989Z</time></trkpt><trkpt lat="44.139410437255385" lon="10.426324329039952"><ele>475.0</ele><time>2026-05-02T09:32:19.989Z</time></trkpt><trkpt lat="44.13948248141271" lon="10.426406486706044"><ele>478.0</ele><time>2026-05-02T09:32:20.989Z</time></trkpt><trkpt lat="44.139550767418534" lon="10.426492626751028"><ele>478.50000000000006</ele><time>2026-05-02T09:32:21.989Z</time></trkpt><trkpt lat="44.139628896346075" lon="10.426545940591195"><ele>479.0</ele><time>2026-05-02T09:32:22.989Z</time></trkpt><trkpt lat="44.139707415094676" lon="10.426585294171712"><ele>479.5</ele><time>2026-05-02T09:32:23.989Z</time></trkpt><trkpt lat="44.13978890755285" lon="10.426613066772266"><ele>480.0</ele><time>2026-05-02T09:32:24.989Z</time></trkpt><trkpt lat="44.139876152086025" lon="10.426640928190261"><ele>480.50000000000006</ele><time>2026-05-02T09:32:25.989Z</time></trkpt><trkpt lat="44.139962444888035" lon="10.426678741452717"><ele>481.0</ele><time>2026-05-02T09:32:26.989Z</time></trkpt><trkpt lat="44.140047696999524" lon="10.426723356466729"><ele>484.00000000000006</ele><time>2026-05-02T09:32:27.989Z</time></trkpt><trkpt lat="44.14011776472927" lon="10.426736745871375"><ele>487.0</ele><time>2026-05-02T09:32:28.989Z</time></trkpt><trkpt lat="44.14018192390484" lon="10.42671664736777"><ele>490.0</ele><time>2026-05-02T09:32:29.989Z</time></trkpt><trkpt lat="44.1402471271476" lon="10.42672900562132"><ele>493.0</ele><time>2026-05-02T09:32:30.989Z</time></trkpt><trkpt lat="44.14031410190232" lon="10.426721772304612"><ele>496.00000000000006</ele><time>2026-05-02T09:32:31.989Z</time></trkpt><trkpt lat="44.14039200385642" lon="10.426774582267505"><ele>499.0</ele><time>2026-05-02T09:32:33.989Z</time></trkpt><trkpt lat="44.14032583639229" lon="10.426936892715117"><ele>499.00000000000006</ele><time>2026-05-02T09:32:35.989Z</time></trkpt><trkpt lat="44.14024748606059" lon="10.426970102253739"><ele>499.0</ele><time>2026-05-02T09:32:36.989Z</time></trkpt><trkpt lat="44.140173346630185" lon="10.42700123879145"><ele>499.0</ele><time>2026-05-02T09:32:37.989Z</time></trkpt><trkpt lat="44.14011086429277" lon="10.42702403458621"><ele>499.0</ele><time>2026-05-02T09:32:38.989Z</time></trkpt><trkpt lat="44.14004666520584" lon="10.427043816130912"><ele>499.00000000000006</ele><time>2026-05-02T09:32:39.989Z</time></trkpt><trkpt lat="44.13992280795114" lon="10.42710091623737"><ele>499.0</ele><time>2026-05-02T09:32:41.989Z</time></trkpt><trkpt lat="44.13985231812848" lon="10.427136973194546"><ele>496.50000000000006</ele><time>2026-05-02T09:32:42.989Z</time></trkpt><trkpt lat="44.139785471558405" lon="10.427167206382956"><ele>494.0</ele><time>2026-05-02T09:32:43.989Z</time></trkpt><trkpt lat="44.139708779696065" lon="10.427190887478105"><ele>491.5</ele><time>2026-05-02T09:32:44.989Z</time></trkpt><trkpt lat="44.139643580121046" lon="10.427230275781504"><ele>489.0</ele><time>2026-05-02T09:32:45.989Z</time></trkpt><trkpt lat="44.139621435761484" lon="10.427394357467506"><ele>486.50000000000006</ele><time>2026-05-02T09:32:47.989Z</time></trkpt><trkpt lat="44.139655246586265" lon="10.42748590678075"><ele>484.0</ele><time>2026-05-02T09:32:48.989Z</time></trkpt><trkpt lat="44.13972705006936" lon="10.427507667415128"><ele>484.00000000000006</ele><time>2026-05-02T09:32:49.989Z</time></trkpt><trkpt lat="44.13979859941819" lon="10.427472779308808"><ele>484.0</ele><time>2026-05-02T09:32:50.989Z</time></trkpt><trkpt lat="44.13986743398813" lon="10.42740042195"><ele>484.0</ele><time>2026-05-02T09:32:51.989Z</time></trkpt><trkpt lat="44.139939688565455" lon="10.42736341241611"><ele>484.0</ele><time>2026-05-02T09:32:52.989Z</time></trkpt><trkpt lat="44.14001251458108" lon="10.427325878849631"><ele>484.00000000000006</ele><time>2026-05-02T09:32:53.989Z</time></trkpt><trkpt lat="44.14009259454021" lon="10.427288714705224"><ele>484.0</ele><time>2026-05-02T09:32:54.989Z</time></trkpt><trkpt lat="44.140181275412864" lon="10.427277295314232"><ele>487.6</ele><time>2026-05-02T09:32:55.989Z</time></trkpt><trkpt lat="44.140272029828495" lon="10.427271477166457"><ele>491.2</ele><time>2026-05-02T09:32:56.989Z</time></trkpt><trkpt lat="44.14036417712137" lon="10.42727788081874"><ele>494.80000000000007</ele><time>2026-05-02T09:32:57.989Z</time></trkpt><trkpt lat="44.14045551883639" lon="10.427287160541919"><ele>498.40000000000003</ele><time>2026-05-02T09:32:58.989Z</time></trkpt><trkpt lat="44.14054471471295" lon="10.42729046234725"><ele>502.0</ele><time>2026-05-02T09:32:59.989Z</time></trkpt><trkpt lat="44.14063502983615" lon="10.427253476755524"><ele>502.0</ele><time>2026-05-02T09:33:00.989Z</time></trkpt><trkpt lat="44.140713399265444" lon="10.427170750421714"><ele>502.00000000000006</ele><time>2026-05-02T09:33:01.989Z</time></trkpt><trkpt lat="44.140788499780626" lon="10.427087167858671"><ele>502.00000000000006</ele><time>2026-05-02T09:33:02.989Z</time></trkpt><trkpt lat="44.140850566550995" lon="10.426997437714387"><ele>502.0</ele><time>2026-05-02T09:33:03.989Z</time></trkpt><trkpt lat="44.14095405966878" lon="10.426944618412216"><ele>502.0</ele><time>2026-05-02T09:33:04.989Z</time></trkpt><trkpt lat="44.14103813225261" lon="10.426913037218139"><ele>504.1666666666667</ele><time>2026-05-02T09:33:05.989Z</time></trkpt><trkpt lat="44.141135026746845" lon="10.426901665395498"><ele>506.33333333333337</ele><time>2026-05-02T09:33:06.989Z</time></trkpt><trkpt lat="44.141221251108625" lon="10.426887406081025"><ele>508.5</ele><time>2026-05-02T09:33:07.989Z</time></trkpt><trkpt lat="44.141290436013946" lon="10.426909241040073"><ele>510.66666666666663</ele><time>2026-05-02T09:33:08.989Z</time></trkpt><trkpt lat="44.14135586109123" lon="10.426878542184031"><ele>512.8333333333333</ele><time>2026-05-02T09:33:09.989Z</time></trkpt><trkpt lat="44.14141342335612" lon="10.426836512778644"><ele>515.0</ele><time>2026-05-02T09:33:10.989Z</time></trkpt><trkpt lat="44.141475957862" lon="10.426779925682165"><ele>515.0</ele><time>2026-05-02T09:33:11.989Z</time></trkpt><trkpt lat="44.1415406112176" lon="10.426708914223536"><ele>515.0</ele><time>2026-05-02T09:33:12.989Z</time></trkpt><trkpt lat="44.14159122950622" lon="10.426631952317061"><ele>515.0</ele><time>2026-05-02T09:33:13.989Z</time></trkpt><trkpt lat="44.1416256855472" lon="10.426546997129629"><ele>515.0</ele><time>2026-05-02T09:33:14.989Z</time></trkpt><trkpt lat="44.14164606787676" lon="10.426452757044146"><ele>515.0</ele><time>2026-05-02T09:33:15.989Z</time></trkpt><trkpt lat="44.14163706334165" lon="10.426348969406634"><ele>515.0</ele><time>2026-05-02T09:33:16.989Z</time></trkpt><trkpt lat="44.141570585098805" lon="10.426265894145462"><ele>515.6</ele><time>2026-05-02T09:33:17.989Z</time></trkpt><trkpt lat="44.1414832724232" lon="10.426239379640277"><ele>516.2</ele><time>2026-05-02T09:33:18.989Z</time></trkpt><trkpt lat="44.14141671613705" lon="10.426193751978927"><ele>516.8</ele><time>2026-05-02T09:33:19.989Z</time></trkpt><trkpt lat="44.141346381688756" lon="10.426146047356966"><ele>517.4</ele><time>2026-05-02T09:33:20.989Z</time></trkpt><trkpt lat="44.14122235800293" lon="10.426052055119627"><ele>518.0</ele><time>2026-05-02T09:33:22.987Z</time></trkpt><trkpt lat="44.14117811797246" lon="10.425980283003428"><ele>518.0</ele><time>2026-05-02T09:33:23.987Z</time></trkpt><trkpt lat="44.14120677085534" lon="10.425894781496266"><ele>518.0</ele><time>2026-05-02T09:33:24.987Z</time></trkpt><trkpt lat="44.14130547445257" lon="10.42583063434742"><ele>518.0</ele><time>2026-05-02T09:33:26.987Z</time></trkpt><trkpt lat="44.14137080492213" lon="10.425884225499289"><ele>518.0</ele><time>2026-05-02T09:33:27.987Z</time></trkpt><trkpt lat="44.14143149912475" lon="10.425936071982552"><ele>518.0</ele><time>2026-05-02T09:33:28.986Z</time></trkpt><trkpt lat="44.14149886949756" lon="10.425975549349507"><ele>518.0</ele><time>2026-05-02T09:33:29.986Z</time></trkpt><trkpt lat="44.14157160060119" lon="10.426018871908688"><ele>520.5714285714286</ele><time>2026-05-02T09:33:30.987Z</time></trkpt><trkpt lat="44.14163860524766" lon="10.426054062466077"><ele>523.1428571428571</ele><time>2026-05-02T09:33:31.987Z</time></trkpt><trkpt lat="44.14170313554571" lon="10.42608387587675"><ele>525.7142857142858</ele><time>2026-05-02T09:33:32.987Z</time></trkpt><trkpt lat="44.14176666446069" lon="10.426112865612323"><ele>528.2857142857142</ele><time>2026-05-02T09:33:33.987Z</time></trkpt><trkpt lat="44.141830469344875" lon="10.426134126496631"><ele>530.8571428571429</ele><time>2026-05-02T09:33:34.987Z</time></trkpt><trkpt lat="44.14189603983147" lon="10.426154214655467"><ele>533.4285714285714</ele><time>2026-05-02T09:33:35.987Z</time></trkpt><trkpt lat="44.14196642494939" lon="10.426211948917448"><ele>536.0</ele><time>2026-05-02T09:33:36.987Z</time></trkpt><trkpt lat="44.14201670004113" lon="10.42629131641757"><ele>535.6</ele><time>2026-05-02T09:33:37.987Z</time></trkpt><trkpt lat="44.14205963549103" lon="10.426392122721108"><ele>535.2</ele><time>2026-05-02T09:33:38.987Z</time></trkpt><trkpt lat="44.14209188133426" lon="10.42651026026361"><ele>534.8</ele><time>2026-05-02T09:33:39.987Z</time></trkpt><trkpt lat="44.14213592639728" lon="10.426619717541431"><ele>534.4</ele><time>2026-05-02T09:33:40.987Z</time></trkpt><trkpt lat="44.14219839577988" lon="10.42672678704591"><ele>534.0</ele><time>2026-05-02T09:33:41.987Z</time></trkpt><trkpt lat="44.14227801785758" lon="10.426788902248063"><ele>534.0</ele><time>2026-05-02T09:33:42.987Z</time></trkpt><trkpt lat="44.14234924424972" lon="10.426837655417463"><ele>534.0</ele><time>2026-05-02T09:33:43.987Z</time></trkpt><trkpt lat="44.1424396161601" lon="10.426884850487902"><ele>534.0</ele><time>2026-05-02T09:33:44.987Z</time></trkpt><trkpt lat="44.14250929127445" lon="10.426928202581513"><ele>534.0</ele><time>2026-05-02T09:33:45.987Z</time></trkpt><trkpt lat="44.14257483346973" lon="10.426990351742289"><ele>534.0</ele><time>2026-05-02T09:33:46.987Z</time></trkpt><trkpt lat="44.14261404173653" lon="10.42707547222684"><ele>534.0</ele><time>2026-05-02T09:33:47.987Z</time></trkpt><trkpt lat="44.14264677618018" lon="10.427178537299064"><ele>538.0</ele><time>2026-05-02T09:33:48.987Z</time></trkpt><trkpt lat="44.142689301571075" lon="10.427268966939312"><ele>542.0</ele><time>2026-05-02T09:33:49.987Z</time></trkpt><trkpt lat="44.142742491686136" lon="10.427351590808316"><ele>546.0</ele><time>2026-05-02T09:33:50.987Z</time></trkpt><trkpt lat="44.142811849167806" lon="10.427421407648495"><ele>550.0</ele><time>2026-05-02T09:33:51.987Z</time></trkpt><trkpt lat="44.142882936774015" lon="10.427480246655925"><ele>554.0</ele><time>2026-05-02T09:33:52.987Z</time></trkpt><trkpt lat="44.14292123928852" lon="10.427553375243566"><ele>558.0</ele><time>2026-05-02T09:33:53.987Z</time></trkpt><trkpt lat="44.14294633324012" lon="10.427656349571235"><ele>558.0</ele><time>2026-05-02T09:33:54.987Z</time></trkpt><trkpt lat="44.1429579682649" lon="10.427764123675061"><ele>558.0</ele><time>2026-05-02T09:33:55.987Z</time></trkpt><trkpt lat="44.14295801389504" lon="10.427869364764101"><ele>558.0</ele><time>2026-05-02T09:33:56.987Z</time></trkpt><trkpt lat="44.14298417377564" lon="10.427974707408671"><ele>558.0</ele><time>2026-05-02T09:33:57.987Z</time></trkpt><trkpt lat="44.14299000751774" lon="10.428123106685645"><ele>558.0</ele><time>2026-05-02T09:33:59.987Z</time></trkpt><trkpt lat="44.142896644222844" lon="10.428176584781026"><ele>558.0</ele><time>2026-05-02T09:34:01.987Z</time></trkpt><trkpt lat="44.14283218880763" lon="10.42803112313607"><ele>558.0</ele><time>2026-05-02T09:34:03.987Z</time></trkpt><trkpt lat="44.142821167361866" lon="10.427922374115242"><ele>558.0</ele><time>2026-05-02T09:34:04.987Z</time></trkpt><trkpt lat="44.142745377295626" lon="10.427802988689649"><ele>558.0</ele><time>2026-05-02T09:34:06.987Z</time></trkpt><trkpt lat="44.14264308210108" lon="10.427851941938252"><ele>558.0</ele><time>2026-05-02T09:34:08.987Z</time></trkpt><trkpt lat="44.14262734701354" lon="10.428036591667045"><ele>558.0</ele><time>2026-05-02T09:34:10.987Z</time></trkpt><trkpt lat="44.142663948277544" lon="10.428135973972326"><ele>560.8</ele><time>2026-05-02T09:34:11.987Z</time></trkpt><trkpt lat="44.14269944697437" lon="10.428318051171567"><ele>563.5999999999999</ele><time>2026-05-02T09:34:13.987Z</time></trkpt><trkpt lat="44.14270899648861" lon="10.428423001209293"><ele>566.4000000000001</ele><time>2026-05-02T09:34:14.987Z</time></trkpt><trkpt lat="44.1427161865871" lon="10.428538602240149"><ele>569.2</ele><time>2026-05-02T09:34:15.987Z</time></trkpt><trkpt lat="44.142722876586944" lon="10.428650895544596"><ele>572.0</ele><time>2026-05-02T09:34:16.987Z</time></trkpt><trkpt lat="44.14272951445262" lon="10.428773121704134"><ele>574.5</ele><time>2026-05-02T09:34:17.987Z</time></trkpt><trkpt lat="44.142737046574744" lon="10.428893298052902"><ele>577.0</ele><time>2026-05-02T09:34:18.987Z</time></trkpt><trkpt lat="44.14274765497738" lon="10.429010437417201"><ele>579.5</ele><time>2026-05-02T09:34:19.987Z</time></trkpt><trkpt lat="44.14275521013684" lon="10.42913056620178"><ele>582.0</ele><time>2026-05-02T09:34:20.987Z</time></trkpt><trkpt lat="44.14277072418137" lon="10.42924797898166"><ele>584.5</ele><time>2026-05-02T09:34:21.987Z</time></trkpt><trkpt lat="44.14279104631344" lon="10.429363679199218"><ele>587.0</ele><time>2026-05-02T09:34:22.987Z</time></trkpt><trkpt lat="44.14281929752748" lon="10.429480710514174"><ele>587.0</ele><time>2026-05-02T09:34:23.987Z</time></trkpt><trkpt lat="44.14283868865943" lon="10.42957963056487"><ele>587.0</ele><time>2026-05-02T09:34:24.987Z</time></trkpt><trkpt lat="44.14283729878427" lon="10.429684543768563"><ele>587.0</ele><time>2026-05-02T09:34:25.987Z</time></trkpt><trkpt lat="44.14283987700939" lon="10.429787459690054"><ele>587.0</ele><time>2026-05-02T09:34:26.987Z</time></trkpt><trkpt lat="44.14281775209149" lon="10.429892935214317"><ele>587.0</ele><time>2026-05-02T09:34:27.987Z</time></trkpt><trkpt lat="44.14283630386093" lon="10.429981368669507"><ele>587.0</ele><time>2026-05-02T09:34:28.987Z</time></trkpt><trkpt lat="44.14289790421216" lon="10.43014109748223"><ele>587.6</ele><time>2026-05-02T09:34:30.987Z</time></trkpt><trkpt lat="44.14298466932326" lon="10.430184133258573"><ele>588.2</ele><time>2026-05-02T09:34:31.987Z</time></trkpt><trkpt lat="44.1430758718536" lon="10.43013924497228"><ele>588.8</ele><time>2026-05-02T09:34:32.987Z</time></trkpt><trkpt lat="44.143161160582075" lon="10.430121392339787"><ele>589.4</ele><time>2026-05-02T09:34:33.987Z</time></trkpt><trkpt lat="44.14324662191239" lon="10.430094121250336"><ele>590.0</ele><time>2026-05-02T09:34:34.987Z</time></trkpt><trkpt lat="44.14334000554459" lon="10.430089494802651"><ele>590.0</ele><time>2026-05-02T09:34:35.987Z</time></trkpt><trkpt lat="44.14342874450827" lon="10.430056307128908"><ele>590.0</ele><time>2026-05-02T09:34:36.987Z</time></trkpt><trkpt lat="44.143515757028275" lon="10.430025628809432"><ele>590.0</ele><time>2026-05-02T09:34:37.987Z</time></trkpt><trkpt lat="44.14360332774422" lon="10.42999867675525"><ele>590.0</ele><time>2026-05-02T09:34:38.987Z</time></trkpt><trkpt lat="44.14367997363462" lon="10.429969898936914"><ele>590.0</ele><time>2026-05-02T09:34:39.987Z</time></trkpt><trkpt lat="44.14374205878551" lon="10.429945244264491"><ele>590.0</ele><time>2026-05-02T09:34:40.987Z</time></trkpt><trkpt lat="44.14380720760408" lon="10.429903928050127"><ele>590.0</ele><time>2026-05-02T09:34:42.987Z</time></trkpt><trkpt lat="44.14389463780539" lon="10.429907143452056"><ele>590.0</ele><time>2026-05-02T09:34:45.987Z</time></trkpt><trkpt lat="44.14388891895312" lon="10.430052153867228"><ele>590.0</ele><time>2026-05-02T09:34:47.987Z</time></trkpt><trkpt lat="44.143759502484635" lon="10.430058860988092"><ele>590.0</ele><time>2026-05-02T09:34:49.987Z</time></trkpt><trkpt lat="44.14367465507347" lon="10.430079234502864"><ele>590.0</ele><time>2026-05-02T09:34:50.987Z</time></trkpt><trkpt lat="44.14360092828148" lon="10.430111550554916"><ele>590.0</ele><time>2026-05-02T09:34:51.987Z</time></trkpt><trkpt lat="44.14352411365916" lon="10.430156734900143"><ele>590.0</ele><time>2026-05-02T09:34:52.987Z</time></trkpt><trkpt lat="44.143454959858985" lon="10.43022648415576"><ele>590.0</ele><time>2026-05-02T09:34:53.987Z</time></trkpt><trkpt lat="44.14338449803078" lon="10.430288448383575"><ele>590.0</ele><time>2026-05-02T09:34:54.987Z</time></trkpt><trkpt lat="44.14331101184524" lon="10.430335246446173"><ele>590.0</ele><time>2026-05-02T09:34:55.987Z</time></trkpt><trkpt lat="44.14323976037565" lon="10.430393255016892"><ele>590.0</ele><time>2026-05-02T09:34:56.987Z</time></trkpt><trkpt lat="44.14316194012681" lon="10.430447929545657"><ele>594.8333333333333</ele><time>2026-05-02T09:34:57.987Z</time></trkpt><trkpt lat="44.14308364828963" lon="10.43049987874986"><ele>599.6666666666666</ele><time>2026-05-02T09:34:58.987Z</time></trkpt><trkpt lat="44.142995674331" lon="10.430500380099803"><ele>604.5</ele><time>2026-05-02T09:34:59.987Z</time></trkpt><trkpt lat="44.14291425586569" lon="10.43051750181074"><ele>609.3333333333334</ele><time>2026-05-02T09:35:00.987Z</time></trkpt><trkpt lat="44.14283124198441" lon="10.43050839940145"><ele>614.1666666666667</ele><time>2026-05-02T09:35:01.987Z</time></trkpt><trkpt lat="44.1427426940964" lon="10.430503471705434"><ele>619.0</ele><time>2026-05-02T09:35:02.987Z</time></trkpt><trkpt lat="44.14265212820022" lon="10.430496519854671"><ele>615.5</ele><time>2026-05-02T09:35:03.987Z</time></trkpt><trkpt lat="44.14257351994003" lon="10.430441434265736"><ele>612.0</ele><time>2026-05-02T09:35:04.987Z</time></trkpt><trkpt lat="44.14252038647357" lon="10.430335642267652"><ele>608.5</ele><time>2026-05-02T09:35:05.987Z</time></trkpt><trkpt lat="44.14246290758932" lon="10.430272587763797"><ele>605.0</ele><time>2026-05-02T09:35:06.987Z</time></trkpt><trkpt lat="44.142420433363554" lon="10.430181757133187"><ele>601.5</ele><time>2026-05-02T09:35:07.987Z</time></trkpt><trkpt lat="44.14239978427449" lon="10.430073748758215"><ele>598.0</ele><time>2026-05-02T09:35:08.987Z</time></trkpt><trkpt lat="44.1423675939477" lon="10.4299795142781"><ele>597.8333333333334</ele><time>2026-05-02T09:35:09.987Z</time></trkpt><trkpt lat="44.14230128996575" lon="10.429853191567572"><ele>597.6666666666667</ele><time>2026-05-02T09:35:11.987Z</time></trkpt><trkpt lat="44.14221240695438" lon="10.429782549807845"><ele>597.5</ele><time>2026-05-02T09:35:13.987Z</time></trkpt><trkpt lat="44.14214581688424" lon="10.429811777356537"><ele>597.3333333333334</ele><time>2026-05-02T09:35:14.987Z</time></trkpt><trkpt lat="44.14209767778356" lon="10.429883694633043"><ele>597.1666666666666</ele><time>2026-05-02T09:35:15.987Z</time></trkpt><trkpt lat="44.14206112483738" lon="10.42996999756361"><ele>597.0</ele><time>2026-05-02T09:35:16.987Z</time></trkpt><trkpt lat="44.14201879168048" lon="10.430053728251385"><ele>597.0</ele><time>2026-05-02T09:35:17.987Z</time></trkpt><trkpt lat="44.14196946643978" lon="10.430130876208102"><ele>597.0</ele><time>2026-05-02T09:35:18.987Z</time></trkpt><trkpt lat="44.14191997563034" lon="10.430216860517675"><ele>597.0</ele><time>2026-05-02T09:35:19.987Z</time></trkpt><trkpt lat="44.14187594550957" lon="10.430295510797523"><ele>597.0</ele><time>2026-05-02T09:35:20.987Z</time></trkpt><trkpt lat="44.14180536181994" lon="10.430430499108255"><ele>597.0</ele><time>2026-05-02T09:35:22.987Z</time></trkpt><trkpt lat="44.14177208147789" lon="10.430507076960716"><ele>597.0</ele><time>2026-05-02T09:35:23.987Z</time></trkpt><trkpt lat="44.141747186881815" lon="10.43060103218573"><ele>598.5</ele><time>2026-05-02T09:35:24.987Z</time></trkpt><trkpt lat="44.14174358333155" lon="10.430708552581"><ele>600.0</ele><time>2026-05-02T09:35:25.987Z</time></trkpt><trkpt lat="44.14177282771919" lon="10.430813254378434"><ele>601.5</ele><time>2026-05-02T09:35:26.987Z</time></trkpt><trkpt lat="44.141827591725765" lon="10.430887118640985"><ele>603.0</ele><time>2026-05-02T09:35:27.986Z</time></trkpt><trkpt lat="44.1418704982781" lon="10.430970679617992"><ele>604.5</ele><time>2026-05-02T09:35:28.985Z</time></trkpt><trkpt lat="44.14191340794046" lon="10.431058144974791"><ele>606.0</ele><time>2026-05-02T09:35:29.985Z</time></trkpt><trkpt lat="44.14196466450696" lon="10.431143364984814"><ele>606.0</ele><time>2026-05-02T09:35:30.986Z</time></trkpt><trkpt lat="44.142014560020485" lon="10.431217489120776"><ele>606.0</ele><time>2026-05-02T09:35:31.986Z</time></trkpt><trkpt lat="44.14205765088494" lon="10.431297101735245"><ele>606.0</ele><time>2026-05-02T09:35:32.986Z</time></trkpt><trkpt lat="44.14209502802268" lon="10.431385839380823"><ele>606.0</ele><time>2026-05-02T09:35:33.985Z</time></trkpt><trkpt lat="44.14212165822326" lon="10.431475476794242"><ele>606.0</ele><time>2026-05-02T09:35:34.986Z</time></trkpt><trkpt lat="44.142128236197465" lon="10.43157507134167"><ele>606.0</ele><time>2026-05-02T09:35:35.986Z</time></trkpt><trkpt lat="44.142107715273795" lon="10.431665822592342"><ele>606.0</ele><time>2026-05-02T09:35:36.986Z</time></trkpt><trkpt lat="44.1420653584597" lon="10.431764478374292"><ele>606.8333333333334</ele><time>2026-05-02T09:35:37.985Z</time></trkpt><trkpt lat="44.14201635860615" lon="10.431841076540634"><ele>607.6666666666666</ele><time>2026-05-02T09:35:38.985Z</time></trkpt><trkpt lat="44.14197209830449" lon="10.431914753633999"><ele>608.5</ele><time>2026-05-02T09:35:39.985Z</time></trkpt><trkpt lat="44.14190186275771" lon="10.432064620528777"><ele>609.3333333333333</ele><time>2026-05-02T09:35:41.985Z</time></trkpt><trkpt lat="44.14187547635039" lon="10.43215984657062"><ele>610.1666666666666</ele><time>2026-05-02T09:35:42.985Z</time></trkpt><trkpt lat="44.141852035217646" lon="10.432260835569911"><ele>611.0</ele><time>2026-05-02T09:35:43.985Z</time></trkpt><trkpt lat="44.14183078603727" lon="10.432366631114988"><ele>612.2857142857143</ele><time>2026-05-02T09:35:44.985Z</time></trkpt><trkpt lat="44.141828836833156" lon="10.43246536375055"><ele>613.5714285714286</ele><time>2026-05-02T09:35:45.985Z</time></trkpt><trkpt lat="44.1418414566607" lon="10.432565870194956"><ele>614.8571428571429</ele><time>2026-05-02T09:35:46.985Z</time></trkpt><trkpt lat="44.14185494620366" lon="10.432661480336419"><ele>616.1428571428571</ele><time>2026-05-02T09:35:47.985Z</time></trkpt><trkpt lat="44.14190525500374" lon="10.432780871408017"><ele>617.4285714285714</ele><time>2026-05-02T09:35:49.985Z</time></trkpt><trkpt lat="44.141943173416315" lon="10.4328598462905"><ele>618.7142857142858</ele><time>2026-05-02T09:35:59.985Z</time></trkpt><trkpt lat="44.14194788209326" lon="10.43276903271982"><ele>620.0</ele><time>2026-05-02T09:36:25.985Z</time></trkpt><trkpt lat="44.141995732190296" lon="10.432638620912622"><ele>620.0</ele><time>2026-05-02T09:38:33.985Z</time></trkpt><trkpt lat="44.141979119275504" lon="10.43246995140201"><ele>620.0</ele><time>2026-05-02T09:38:35.985Z</time></trkpt><trkpt lat="44.14194113607006" lon="10.432368666862576"><ele>620.0</ele><time>2026-05-02T09:38:36.985Z</time></trkpt><trkpt lat="44.1419905434709" lon="10.432274282134696"><ele>620.0</ele><time>2026-05-02T09:38:37.985Z</time></trkpt><trkpt lat="44.142076776624386" lon="10.432174246107698"><ele>620.0</ele><time>2026-05-02T09:38:39.985Z</time></trkpt><trkpt lat="44.14216997701559" lon="10.432090250680593"><ele>618.5</ele><time>2026-05-02T09:38:41.985Z</time></trkpt><trkpt lat="44.14223335499328" lon="10.432042144159022"><ele>617.0</ele><time>2026-05-02T09:38:42.985Z</time></trkpt><trkpt lat="44.14230157171875" lon="10.43200242641863"><ele>615.5</ele><time>2026-05-02T09:38:43.985Z</time></trkpt><trkpt lat="44.14237929025321" lon="10.431951107786444"><ele>614.0</ele><time>2026-05-02T09:38:44.985Z</time></trkpt><trkpt lat="44.142454886568046" lon="10.431897978561535"><ele>612.5</ele><time>2026-05-02T09:38:45.985Z</time></trkpt><trkpt lat="44.14253060973696" lon="10.431854610469072"><ele>611.0</ele><time>2026-05-02T09:38:46.985Z</time></trkpt><trkpt lat="44.14260569056987" lon="10.43182241025046"><ele>616.1666666666666</ele><time>2026-05-02T09:38:47.985Z</time></trkpt><trkpt lat="44.14268191636575" lon="10.431822718850675"><ele>621.3333333333333</ele><time>2026-05-02T09:38:48.985Z</time></trkpt><trkpt lat="44.142759261409196" lon="10.431845797791176"><ele>626.5</ele><time>2026-05-02T09:38:49.985Z</time></trkpt><trkpt lat="44.14285253493872" lon="10.431858085634802"><ele>631.6666666666666</ele><time>2026-05-02T09:38:50.985Z</time></trkpt><trkpt lat="44.14293644998637" lon="10.431889361168222"><ele>636.8333333333334</ele><time>2026-05-02T09:38:51.985Z</time></trkpt><trkpt lat="44.14302092579098" lon="10.431923652216312"><ele>642.0</ele><time>2026-05-02T09:38:52.985Z</time></trkpt><trkpt lat="44.14310639797967" lon="10.431962044031867"><ele>642.0</ele><time>2026-05-02T09:38:53.985Z</time></trkpt><trkpt lat="44.143172929608696" lon="10.432010498757979"><ele>642.0</ele><time>2026-05-02T09:38:54.985Z</time></trkpt><trkpt lat="44.14322664121003" lon="10.432082702287211"><ele>642.0</ele><time>2026-05-02T09:38:55.985Z</time></trkpt><trkpt lat="44.143279194590754" lon="10.432172340017301"><ele>642.0</ele><time>2026-05-02T09:38:56.985Z</time></trkpt><trkpt lat="44.14332420231877" lon="10.432294374402474"><ele>642.0</ele><time>2026-05-02T09:38:57.985Z</time></trkpt><trkpt lat="44.143344913901885" lon="10.43241089706348"><ele>642.0</ele><time>2026-05-02T09:38:58.985Z</time></trkpt><trkpt lat="44.143356637054794" lon="10.43250769109035"><ele>646.2</ele><time>2026-05-02T09:38:59.985Z</time></trkpt><trkpt lat="44.14336090825422" lon="10.432646352036073"><ele>650.4000000000001</ele><time>2026-05-02T09:39:01.985Z</time></trkpt><trkpt lat="44.143270450412324" lon="10.432676243832821"><ele>654.5999999999999</ele><time>2026-05-02T09:39:03.985Z</time></trkpt><trkpt lat="44.14321419275068" lon="10.432624873573076"><ele>658.8</ele><time>2026-05-02T09:39:04.985Z</time></trkpt><trkpt lat="44.14314068005377" lon="10.432500271698876"><ele>663.0</ele><time>2026-05-02T09:39:06.985Z</time></trkpt><trkpt lat="44.14305592773979" lon="10.432363058670415"><ele>663.0</ele><time>2026-05-02T09:39:08.985Z</time></trkpt><trkpt lat="44.14299874884903" lon="10.432304259124116"><ele>663.0</ele><time>2026-05-02T09:39:09.985Z</time></trkpt><trkpt lat="44.142937154031124" lon="10.43228158942104"><ele>663.0</ele><time>2026-05-02T09:39:10.985Z</time></trkpt><trkpt lat="44.14286178530146" lon="10.432415318994341"><ele>663.0</ele><time>2026-05-02T09:39:12.985Z</time></trkpt><trkpt lat="44.14288491630708" lon="10.432499172483976"><ele>663.0</ele><time>2026-05-02T09:39:13.985Z</time></trkpt><trkpt lat="44.142932730111596" lon="10.432567483169723"><ele>663.0</ele><time>2026-05-02T09:39:14.985Z</time></trkpt><trkpt lat="44.14298500081058" lon="10.432629633701161"><ele>663.0</ele><time>2026-05-02T09:39:15.985Z</time></trkpt><trkpt lat="44.14304126044284" lon="10.43268434246555"><ele>663.0</ele><time>2026-05-02T09:39:16.985Z</time></trkpt><trkpt lat="44.143096192360474" lon="10.432754479340376"><ele>663.0</ele><time>2026-05-02T09:39:17.985Z</time></trkpt><trkpt lat="44.14314233614276" lon="10.432826667412801"><ele>663.0</ele><time>2026-05-02T09:39:18.985Z</time></trkpt><trkpt lat="44.143173628909544" lon="10.432940495914302"><ele>663.0</ele><time>2026-05-02T09:39:19.985Z</time></trkpt><trkpt lat="44.14321076132549" lon="10.433049661841647"><ele>663.0</ele><time>2026-05-02T09:39:20.985Z</time></trkpt><trkpt lat="44.14324559149603" lon="10.433151460911182"><ele>665.3333333333334</ele><time>2026-05-02T09:39:21.985Z</time></trkpt><trkpt lat="44.14328962871811" lon="10.433261297896111"><ele>667.6666666666666</ele><time>2026-05-02T09:39:22.985Z</time></trkpt><trkpt lat="44.143330373180255" lon="10.433369695424652"><ele>670.0</ele><time>2026-05-02T09:39:23.985Z</time></trkpt><trkpt lat="44.14337109913418" lon="10.433474428090513"><ele>672.3333333333333</ele><time>2026-05-02T09:39:24.985Z</time></trkpt><trkpt lat="44.14341320630113" lon="10.433578961594705"><ele>674.6666666666666</ele><time>2026-05-02T09:39:25.985Z</time></trkpt><trkpt lat="44.143487883515135" lon="10.433656761078593"><ele>677.0</ele><time>2026-05-02T09:39:26.985Z</time></trkpt><trkpt lat="44.14357053128277" lon="10.433706651767146"><ele>677.0</ele><time>2026-05-02T09:39:27.985Z</time></trkpt><trkpt lat="44.143649926149955" lon="10.433759530385153"><ele>677.0</ele><time>2026-05-02T09:39:28.985Z</time></trkpt><trkpt lat="44.14373140791023" lon="10.43380120865546"><ele>677.0</ele><time>2026-05-02T09:39:29.985Z</time></trkpt><trkpt lat="44.14381501333436" lon="10.433845552927007"><ele>677.0</ele><time>2026-05-02T09:39:30.985Z</time></trkpt><trkpt lat="44.143893989199555" lon="10.43388622711054"><ele>677.0</ele><time>2026-05-02T09:39:31.985Z</time></trkpt><trkpt lat="44.14396799995512" lon="10.433894115357274"><ele>677.0</ele><time>2026-05-02T09:39:32.985Z</time></trkpt><trkpt lat="44.144041051735684" lon="10.433841742835607"><ele>676.8</ele><time>2026-05-02T09:39:33.985Z</time></trkpt><trkpt lat="44.14410664076264" lon="10.433772986846465"><ele>676.6</ele><time>2026-05-02T09:39:34.985Z</time></trkpt><trkpt lat="44.14417416472185" lon="10.433714853173566"><ele>676.4</ele><time>2026-05-02T09:39:35.985Z</time></trkpt><trkpt lat="44.14430249306182" lon="10.433717212636681"><ele>676.1999999999999</ele><time>2026-05-02T09:39:37.985Z</time></trkpt><trkpt lat="44.14437572160825" lon="10.433809089522882"><ele>676.0</ele><time>2026-05-02T09:39:38.985Z</time></trkpt><trkpt lat="44.14443825479139" lon="10.433901455602204"><ele>680.8</ele><time>2026-05-02T09:39:39.984Z</time></trkpt><trkpt lat="44.144497940843884" lon="10.433993509183699"><ele>685.5999999999999</ele><time>2026-05-02T09:39:40.984Z</time></trkpt><trkpt lat="44.14455180066881" lon="10.434090297137459"><ele>690.4</ele><time>2026-05-02T09:39:41.984Z</time></trkpt><trkpt lat="44.144590104944854" lon="10.434215053551469"><ele>695.2</ele><time>2026-05-02T09:39:42.984Z</time></trkpt><trkpt lat="44.14463196465156" lon="10.434330186121088"><ele>700.0</ele><time>2026-05-02T09:39:43.984Z</time></trkpt><trkpt lat="44.1446604401409" lon="10.434453372884478"><ele>700.0</ele><time>2026-05-02T09:39:44.984Z</time></trkpt><trkpt lat="44.144681811805185" lon="10.434585176934593"><ele>700.0</ele><time>2026-05-02T09:39:45.984Z</time></trkpt><trkpt lat="44.144704791533265" lon="10.434703074263233"><ele>700.0</ele><time>2026-05-02T09:39:46.984Z</time></trkpt><trkpt lat="44.1447431227205" lon="10.434797891477022"><ele>700.0</ele><time>2026-05-02T09:39:47.984Z</time></trkpt><trkpt lat="44.14480239384175" lon="10.434851085597979"><ele>700.0</ele><time>2026-05-02T09:39:48.983Z</time></trkpt><trkpt lat="44.14490039742048" lon="10.434839933519195"><ele>700.0</ele><time>2026-05-02T09:39:49.983Z</time></trkpt><trkpt lat="44.14499086562217" lon="10.43482854899071"><ele>703.2</ele><time>2026-05-02T09:39:50.983Z</time></trkpt><trkpt lat="44.14508196230817" lon="10.434824030560533"><ele>706.4</ele><time>2026-05-02T09:39:51.983Z</time></trkpt><trkpt lat="44.14517600459774" lon="10.434841457028318"><ele>709.5999999999999</ele><time>2026-05-02T09:39:52.983Z</time></trkpt><trkpt lat="44.14526137101122" lon="10.434893703127916"><ele>712.8</ele><time>2026-05-02T09:39:53.983Z</time></trkpt><trkpt lat="44.14534310233808" lon="10.434975497122602"><ele>716.0</ele><time>2026-05-02T09:39:54.983Z</time></trkpt><trkpt lat="44.145419977215894" lon="10.435042197860238"><ele>716.0</ele><time>2026-05-02T09:39:55.983Z</time></trkpt><trkpt lat="44.145488305705115" lon="10.435109898321716"><ele>716.0</ele><time>2026-05-02T09:39:56.983Z</time></trkpt><trkpt lat="44.145564220748355" lon="10.435168853933394"><ele>716.0</ele><time>2026-05-02T09:39:57.983Z</time></trkpt><trkpt lat="44.14563718928667" lon="10.435223544209522"><ele>716.0</ele><time>2026-05-02T09:39:58.983Z</time></trkpt><trkpt lat="44.14571008867204" lon="10.435296867543837"><ele>716.0</ele><time>2026-05-02T09:39:59.983Z</time></trkpt><trkpt lat="44.14576976348523" lon="10.43538495463485"><ele>716.0</ele><time>2026-05-02T09:40:00.983Z</time></trkpt><trkpt lat="44.14579879275542" lon="10.435485074151082"><ele>716.8333333333333</ele><time>2026-05-02T09:40:01.983Z</time></trkpt><trkpt lat="44.145821673405116" lon="10.43560250168787"><ele>717.6666666666666</ele><time>2026-05-02T09:40:02.983Z</time></trkpt><trkpt lat="44.145821894140454" lon="10.435720558942215"><ele>718.5</ele><time>2026-05-02T09:40:03.983Z</time></trkpt><trkpt lat="44.145830567362964" lon="10.435837289896371"><ele>719.3333333333334</ele><time>2026-05-02T09:40:04.983Z</time></trkpt><trkpt lat="44.14584250091903" lon="10.435950536453795"><ele>720.1666666666667</ele><time>2026-05-02T09:40:05.983Z</time></trkpt><trkpt lat="44.14587823858902" lon="10.436067652607798"><ele>721.0</ele><time>2026-05-02T09:40:06.983Z</time></trkpt><trkpt lat="44.14589452279677" lon="10.436195365933775"><ele>724.8</ele><time>2026-05-02T09:40:07.983Z</time></trkpt><trkpt lat="44.145935494515676" lon="10.436322170505447"><ele>728.5999999999999</ele><time>2026-05-02T09:40:08.983Z</time></trkpt><trkpt lat="44.14600439647928" lon="10.4364278249403"><ele>732.4</ele><time>2026-05-02T09:40:09.983Z</time></trkpt><trkpt lat="44.146060839328534" lon="10.436531467187024"><ele>736.2</ele><time>2026-05-02T09:40:10.983Z</time></trkpt><trkpt lat="44.146119712828366" lon="10.43663613977308"><ele>740.0</ele><time>2026-05-02T09:40:11.983Z</time></trkpt><trkpt lat="44.146172889152815" lon="10.43675285180716"><ele>740.0</ele><time>2026-05-02T09:40:12.983Z</time></trkpt><trkpt lat="44.146232953116126" lon="10.436858276039896"><ele>740.0</ele><time>2026-05-02T09:40:13.983Z</time></trkpt><trkpt lat="44.146293882625486" lon="10.43696116174264"><ele>740.0</ele><time>2026-05-02T09:40:14.983Z</time></trkpt><trkpt lat="44.14635830011301" lon="10.437057408291961"><ele>740.0</ele><time>2026-05-02T09:40:15.983Z</time></trkpt><trkpt lat="44.14644194661111" lon="10.437120935010487"><ele>740.0</ele><time>2026-05-02T09:40:16.983Z</time></trkpt><trkpt lat="44.14653460450994" lon="10.4371510515267"><ele>739.8333333333333</ele><time>2026-05-02T09:40:17.983Z</time></trkpt><trkpt lat="44.14661846848603" lon="10.437175215966963"><ele>739.6666666666666</ele><time>2026-05-02T09:40:18.983Z</time></trkpt><trkpt lat="44.1466787894621" lon="10.437242029114154"><ele>739.5</ele><time>2026-05-02T09:40:19.983Z</time></trkpt><trkpt lat="44.1467199020893" lon="10.43730974528389"><ele>739.3333333333334</ele><time>2026-05-02T09:40:20.983Z</time></trkpt><trkpt lat="44.146742660972265" lon="10.437398588531494"><ele>739.1666666666667</ele><time>2026-05-02T09:40:21.983Z</time></trkpt><trkpt lat="44.14675404552366" lon="10.43750441640707"><ele>739.0</ele><time>2026-05-02T09:40:22.983Z</time></trkpt><trkpt lat="44.146763123571084" lon="10.437614272349157"><ele>739.0</ele><time>2026-05-02T09:40:23.983Z</time></trkpt><trkpt lat="44.14674020546178" lon="10.437741775182129"><ele>739.0</ele><time>2026-05-02T09:40:24.983Z</time></trkpt><trkpt lat="44.14675599971139" lon="10.437867756281284"><ele>739.0</ele><time>2026-05-02T09:40:25.983Z</time></trkpt><trkpt lat="44.14680631411288" lon="10.437974378597113"><ele>739.0</ele><time>2026-05-02T09:40:26.983Z</time></trkpt><trkpt lat="44.14685639793077" lon="10.438072291745497"><ele>739.0</ele><time>2026-05-02T09:40:27.983Z</time></trkpt><trkpt lat="44.14692204258177" lon="10.438185478924963"><ele>742.8000000000001</ele><time>2026-05-02T09:40:28.983Z</time></trkpt><trkpt lat="44.14701124621412" lon="10.438262248294008"><ele>746.6</ele><time>2026-05-02T09:40:29.983Z</time></trkpt><trkpt lat="44.147109122267814" lon="10.438280178231455"><ele>750.4</ele><time>2026-05-02T09:40:30.983Z</time></trkpt><trkpt lat="44.147208130942026" lon="10.438270073314062"><ele>754.2</ele><time>2026-05-02T09:40:31.983Z</time></trkpt><trkpt lat="44.14728658067302" lon="10.43827514392372"><ele>758.0</ele><time>2026-05-02T09:40:32.983Z</time></trkpt><trkpt lat="44.147361004610104" lon="10.438317592149783"><ele>754.5999999999999</ele><time>2026-05-02T09:40:33.983Z</time></trkpt><trkpt lat="44.14743017784245" lon="10.43838481404261"><ele>751.1999999999999</ele><time>2026-05-02T09:40:34.983Z</time></trkpt><trkpt lat="44.14750081555066" lon="10.43845761122316"><ele>747.8</ele><time>2026-05-02T09:40:35.983Z</time></trkpt><trkpt lat="44.1475807113749" lon="10.438539658059058"><ele>744.4</ele><time>2026-05-02T09:40:36.983Z</time></trkpt><trkpt lat="44.147674915672724" lon="10.438584821668467"><ele>741.0</ele><time>2026-05-02T09:40:37.983Z</time></trkpt><trkpt lat="44.14774891899846" lon="10.438670295865023"><ele>741.0</ele><time>2026-05-02T09:40:38.983Z</time></trkpt><trkpt lat="44.14782256698141" lon="10.43875138168162"><ele>741.0</ele><time>2026-05-02T09:40:39.983Z</time></trkpt><trkpt lat="44.1478880613146" lon="10.438839391956032"><ele>741.0</ele><time>2026-05-02T09:40:40.983Z</time></trkpt><trkpt lat="44.147930423835874" lon="10.438976803165563"><ele>741.0</ele><time>2026-05-02T09:40:41.983Z</time></trkpt><trkpt lat="44.14798065098073" lon="10.43905486122633"><ele>741.0</ele><time>2026-05-02T09:40:42.983Z</time></trkpt><trkpt lat="44.14802787166749" lon="10.439121811831276"><ele>741.0</ele><time>2026-05-02T09:40:43.983Z</time></trkpt><trkpt lat="44.1480508493611" lon="10.439241786422716"><ele>746.5</ele><time>2026-05-02T09:40:45.983Z</time></trkpt><trkpt lat="44.147973245822634" lon="10.43929848725528"><ele>752.0</ele><time>2026-05-02T09:40:46.983Z</time></trkpt><trkpt lat="44.14785568785285" lon="10.439329820168705"><ele>757.5</ele><time>2026-05-02T09:40:47.983Z</time></trkpt><trkpt lat="44.1477621413125" lon="10.439204551157193"><ele>763.0</ele><time>2026-05-02T09:40:48.983Z</time></trkpt><trkpt lat="44.14791436733672" lon="10.439285301064244"><ele>763.0</ele><time>2026-05-02T09:40:49.983Z</time></trkpt><trkpt lat="44.14785579063921" lon="10.439237758768824"><ele>763.0</ele><time>2026-05-02T09:40:50.983Z</time></trkpt><trkpt lat="44.1477710239688" lon="10.439198156758549"><ele>763.0</ele><time>2026-05-02T09:40:51.983Z</time></trkpt><trkpt lat="44.14769239956887" lon="10.439164004707854"><ele>763.0</ele><time>2026-05-02T09:40:52.983Z</time></trkpt><trkpt lat="44.147609354174264" lon="10.439122232766715"><ele>763.0</ele><time>2026-05-02T09:40:53.983Z</time></trkpt><trkpt lat="44.14752119974866" lon="10.43907901090939"><ele>763.0</ele><time>2026-05-02T09:40:54.983Z</time></trkpt><trkpt lat="44.14743628385279" lon="10.439023645677059"><ele>762.0</ele><time>2026-05-02T09:40:55.983Z</time></trkpt><trkpt lat="44.147355632097636" lon="10.438974562111964"><ele>761.0</ele><time>2026-05-02T09:40:56.983Z</time></trkpt><trkpt lat="44.147266438056654" lon="10.438920904810583"><ele>760.0</ele><time>2026-05-02T09:40:57.983Z</time></trkpt><trkpt lat="44.14717739667176" lon="10.438863569303335"><ele>759.0</ele><time>2026-05-02T09:40:58.983Z</time></trkpt><trkpt lat="44.147092270579" lon="10.438805070114086"><ele>758.0</ele><time>2026-05-02T09:40:59.983Z</time></trkpt><trkpt lat="44.14700144040119" lon="10.438745441166354"><ele>758.0</ele><time>2026-05-02T09:41:00.983Z</time></trkpt><trkpt lat="44.14690578946703" lon="10.438713403905181"><ele>758.0</ele><time>2026-05-02T09:41:01.983Z</time></trkpt><trkpt lat="44.1468153893791" lon="10.43869112381739"><ele>758.0</ele><time>2026-05-02T09:41:02.983Z</time></trkpt><trkpt lat="44.14673251262904" lon="10.43866654035199"><ele>758.0</ele><time>2026-05-02T09:41:03.983Z</time></trkpt><trkpt lat="44.14666872963074" lon="10.438648125313478"><ele>758.0</ele><time>2026-05-02T09:41:04.983Z</time></trkpt><trkpt lat="44.146572894925406" lon="10.43868595922608"><ele>758.0</ele><time>2026-05-02T09:41:06.983Z</time></trkpt><trkpt lat="44.14654801052356" lon="10.43882953575418"><ele>760.2</ele><time>2026-05-02T09:41:08.983Z</time></trkpt><trkpt lat="44.14663050834458" lon="10.43890251263007"><ele>762.4</ele><time>2026-05-02T09:41:09.983Z</time></trkpt><trkpt lat="44.14672437485608" lon="10.438926409526601"><ele>764.6</ele><time>2026-05-02T09:41:10.983Z</time></trkpt><trkpt lat="44.14680881207531" lon="10.43895355437077"><ele>766.8000000000001</ele><time>2026-05-02T09:41:11.983Z</time></trkpt><trkpt lat="44.146917932750235" lon="10.439054400425507"><ele>769.0</ele><time>2026-05-02T09:41:12.983Z</time></trkpt><trkpt lat="44.14699410881545" lon="10.439147717004184"><ele>769.0</ele><time>2026-05-02T09:41:13.983Z</time></trkpt><trkpt lat="44.14707429991325" lon="10.439248669264575"><ele>769.0</ele><time>2026-05-02T09:41:14.983Z</time></trkpt><trkpt lat="44.14716041570055" lon="10.43935940572596"><ele>769.0</ele><time>2026-05-02T09:41:15.983Z</time></trkpt><trkpt lat="44.14725059179838" lon="10.439460864928572"><ele>769.0</ele><time>2026-05-02T09:41:16.983Z</time></trkpt><trkpt lat="44.147331055261816" lon="10.439558276524288"><ele>769.0</ele><time>2026-05-02T09:41:17.983Z</time></trkpt><trkpt lat="44.14741224475133" lon="10.439652183621925"><ele>768.4999999999999</ele><time>2026-05-02T09:41:18.983Z</time></trkpt><trkpt lat="44.14748613994632" lon="10.439736210257408"><ele>768.0</ele><time>2026-05-02T09:41:19.983Z</time></trkpt><trkpt lat="44.147559000574795" lon="10.43979655971647"><ele>767.5</ele><time>2026-05-02T09:41:20.983Z</time></trkpt><trkpt lat="44.147621653207786" lon="10.43987265808038"><ele>767.0</ele><time>2026-05-02T09:41:21.983Z</time></trkpt><trkpt lat="44.147689703580745" lon="10.439947460111"><ele>766.5</ele><time>2026-05-02T09:41:22.983Z</time></trkpt><trkpt lat="44.147757000208024" lon="10.44000347061397"><ele>766.0</ele><time>2026-05-02T09:41:23.983Z</time></trkpt><trkpt lat="44.147852338770214" lon="10.440039474821196"><ele>766.0</ele><time>2026-05-02T09:41:24.983Z</time></trkpt><trkpt lat="44.14794909825817" lon="10.440062775855026"><ele>766.0</ele><time>2026-05-02T09:41:25.983Z</time></trkpt><trkpt lat="44.14804848496947" lon="10.440087970150772"><ele>766.0</ele><time>2026-05-02T09:41:26.983Z</time></trkpt><trkpt lat="44.148150791870854" lon="10.440110082172039"><ele>766.0</ele><time>2026-05-02T09:41:27.983Z</time></trkpt><trkpt lat="44.1482526437047" lon="10.440133352136478"><ele>766.0</ele><time>2026-05-02T09:41:28.983Z</time></trkpt><trkpt lat="44.14835233764209" lon="10.440159922062964"><ele>766.1999999999999</ele><time>2026-05-02T09:41:29.983Z</time></trkpt><trkpt lat="44.14845045416703" lon="10.440187760027392"><ele>766.4</ele><time>2026-05-02T09:41:30.983Z</time></trkpt><trkpt lat="44.14854853519232" lon="10.440213080497672"><ele>766.6</ele><time>2026-05-02T09:41:31.983Z</time></trkpt><trkpt lat="44.14864581642491" lon="10.440229836027893"><ele>766.8</ele><time>2026-05-02T09:41:32.983Z</time></trkpt><trkpt lat="44.14874199063876" lon="10.44026496956849"><ele>767.0</ele><time>2026-05-02T09:41:33.983Z</time></trkpt><trkpt lat="44.14884475072154" lon="10.440265950530163"><ele>767.0</ele><time>2026-05-02T09:41:34.983Z</time></trkpt><trkpt lat="44.14893423985004" lon="10.440264395555156"><ele>767.0</ele><time>2026-05-02T09:41:35.983Z</time></trkpt><trkpt lat="44.14902382142081" lon="10.440265681286656"><ele>767.0</ele><time>2026-05-02T09:41:36.983Z</time></trkpt><trkpt lat="44.14911625495315" lon="10.440271316150428"><ele>767.0</ele><time>2026-05-02T09:41:37.983Z</time></trkpt><trkpt lat="44.14920694915298" lon="10.440274074150524"><ele>767.0</ele><time>2026-05-02T09:41:38.983Z</time></trkpt><trkpt lat="44.14928792234408" lon="10.440281817601846"><ele>767.0</ele><time>2026-05-02T09:41:39.983Z</time></trkpt><trkpt lat="44.14937146005473" lon="10.440340776215708"><ele>767.2</ele><time>2026-05-02T09:41:40.983Z</time></trkpt><trkpt lat="44.14945937037797" lon="10.440410973366278"><ele>767.4000000000001</ele><time>2026-05-02T09:41:41.983Z</time></trkpt><trkpt lat="44.149550807207525" lon="10.44048787508583"><ele>767.5999999999999</ele><time>2026-05-02T09:41:42.983Z</time></trkpt><trkpt lat="44.149643028001215" lon="10.440567272556626"><ele>767.8</ele><time>2026-05-02T09:41:43.983Z</time></trkpt><trkpt lat="44.149737095706435" lon="10.440636208225657"><ele>768.0</ele><time>2026-05-02T09:41:44.983Z</time></trkpt><trkpt lat="44.14982823009322" lon="10.440705367404178"><ele>771.2</ele><time>2026-05-02T09:41:45.981Z</time></trkpt><trkpt lat="44.14992052880939" lon="10.440783215699641"><ele>774.4</ele><time>2026-05-02T09:41:46.982Z</time></trkpt><trkpt lat="44.15000985659573" lon="10.440860337990184"><ele>777.6</ele><time>2026-05-02T09:41:47.982Z</time></trkpt><trkpt lat="44.15009945327501" lon="10.440937542103937"><ele>780.8000000000001</ele><time>2026-05-02T09:41:48.982Z</time></trkpt><trkpt lat="44.15018134886399" lon="10.441018193299792"><ele>784.0</ele><time>2026-05-02T09:41:49.982Z</time></trkpt><trkpt lat="44.15026306640892" lon="10.441073551683738"><ele>784.0</ele><time>2026-05-02T09:41:50.982Z</time></trkpt><trkpt lat="44.150352509655484" lon="10.441092786487287"><ele>784.0</ele><time>2026-05-02T09:41:51.982Z</time></trkpt><trkpt lat="44.15044723611191" lon="10.441078319297032"><ele>784.0</ele><time>2026-05-02T09:41:52.982Z</time></trkpt><trkpt lat="44.15054826772826" lon="10.44107392288625"><ele>784.0</ele><time>2026-05-02T09:41:53.982Z</time></trkpt><trkpt lat="44.150645766991474" lon="10.441051854303677"><ele>784.0</ele><time>2026-05-02T09:41:54.982Z</time></trkpt><trkpt lat="44.15073868194857" lon="10.441033528274698"><ele>784.6</ele><time>2026-05-02T09:41:55.982Z</time></trkpt><trkpt lat="44.15082115725462" lon="10.441034327280896"><ele>785.2</ele><time>2026-05-02T09:41:56.982Z</time></trkpt><trkpt lat="44.15091035300885" lon="10.44105053228205"><ele>785.8000000000001</ele><time>2026-05-02T09:41:57.982Z</time></trkpt><trkpt lat="44.15098566167464" lon="10.441130006090674"><ele>786.4000000000001</ele><time>2026-05-02T09:41:58.982Z</time></trkpt><trkpt lat="44.15104501079589" lon="10.44123369089938"><ele>787.0</ele><time>2026-05-02T09:41:59.982Z</time></trkpt><trkpt lat="44.151103415728386" lon="10.44133459809095"><ele>785.6666666666666</ele><time>2026-05-02T09:42:00.982Z</time></trkpt><trkpt lat="44.15115938370655" lon="10.441442348315565"><ele>784.3333333333333</ele><time>2026-05-02T09:42:01.982Z</time></trkpt><trkpt lat="44.151217251717455" lon="10.441530834333351"><ele>783.0</ele><time>2026-05-02T09:42:02.982Z</time></trkpt><trkpt lat="44.15127915130331" lon="10.441610669697244"><ele>781.6666666666667</ele><time>2026-05-02T09:42:03.982Z</time></trkpt><trkpt lat="44.15134904808323" lon="10.441674736874191"><ele>780.3333333333334</ele><time>2026-05-02T09:42:04.982Z</time></trkpt><trkpt lat="44.15140929443118" lon="10.441749504428532"><ele>779.0</ele><time>2026-05-02T09:42:05.982Z</time></trkpt><trkpt lat="44.151477146381836" lon="10.441827051717539"><ele>780.3333333333334</ele><time>2026-05-02T09:42:06.982Z</time></trkpt><trkpt lat="44.1515406857658" lon="10.441911102242678"><ele>781.6666666666667</ele><time>2026-05-02T09:42:07.982Z</time></trkpt><trkpt lat="44.151578908476" lon="10.442013246467804"><ele>783.0</ele><time>2026-05-02T09:42:08.982Z</time></trkpt><trkpt lat="44.151632515440895" lon="10.442115058489323"><ele>784.3333333333333</ele><time>2026-05-02T09:42:09.982Z</time></trkpt><trkpt lat="44.15168596529134" lon="10.442204786021517"><ele>785.6666666666666</ele><time>2026-05-02T09:42:10.982Z</time></trkpt><trkpt lat="44.1517462159927" lon="10.442294294525471"><ele>787.0</ele><time>2026-05-02T09:42:11.982Z</time></trkpt><trkpt lat="44.151809310009554" lon="10.442388237985558"><ele>786.9999999999999</ele><time>2026-05-02T09:42:12.982Z</time></trkpt><trkpt lat="44.15187165929147" lon="10.442480795062751"><ele>787.0</ele><time>2026-05-02T09:42:13.982Z</time></trkpt><trkpt lat="44.1519321392422" lon="10.442567661567304"><ele>787.0</ele><time>2026-05-02T09:42:14.982Z</time></trkpt><trkpt lat="44.15200108213009" lon="10.442634777630584"><ele>787.0</ele><time>2026-05-02T09:42:15.982Z</time></trkpt><trkpt lat="44.15208379582112" lon="10.442677639704105"><ele>786.9999999999999</ele><time>2026-05-02T09:42:16.982Z</time></trkpt><trkpt lat="44.15217946974796" lon="10.442690425771668"><ele>787.0</ele><time>2026-05-02T09:42:17.982Z</time></trkpt><trkpt lat="44.1522628543726" lon="10.44270017195411"><ele>786.9999999999999</ele><time>2026-05-02T09:42:18.982Z</time></trkpt><trkpt lat="44.1523522333771" lon="10.442715343342492"><ele>787.0</ele><time>2026-05-02T09:42:19.982Z</time></trkpt><trkpt lat="44.152439564516314" lon="10.442745394504362"><ele>787.0</ele><time>2026-05-02T09:42:20.982Z</time></trkpt><trkpt lat="44.152522130896784" lon="10.442788943019591"><ele>787.0</ele><time>2026-05-02T09:42:21.982Z</time></trkpt><trkpt lat="44.15257091390668" lon="10.442850824096713"><ele>786.9999999999999</ele><time>2026-05-02T09:42:22.982Z</time></trkpt><trkpt lat="44.15263055268978" lon="10.442925769236213"><ele>787.0</ele><time>2026-05-02T09:42:23.982Z</time></trkpt><trkpt lat="44.1526951607813" lon="10.443029390506888"><ele>788.0</ele><time>2026-05-02T09:42:25.982Z</time></trkpt><trkpt lat="44.152767836855574" lon="10.443144586922452"><ele>789.0</ele><time>2026-05-02T09:42:28.982Z</time></trkpt><trkpt lat="44.15284407340999" lon="10.443260974833592"><ele>790.0</ele><time>2026-05-02T09:42:30.982Z</time></trkpt><trkpt lat="44.15294484700432" lon="10.443329495748143"><ele>791.0</ele><time>2026-05-02T09:42:32.982Z</time></trkpt><trkpt lat="44.15301175150755" lon="10.443237693394472"><ele>792.0</ele><time>2026-05-02T09:42:34.982Z</time></trkpt><trkpt lat="44.15296471626658" lon="10.443299649538645"><ele>792.0</ele><time>2026-05-02T09:45:36.981Z</time></trkpt><trkpt lat="44.15290758308534" lon="10.44304057288765"><ele>792.0</ele><time>2026-05-02T09:45:55.981Z</time></trkpt><trkpt lat="44.15283921497552" lon="10.442947146719689"><ele>792.0</ele><time>2026-05-02T09:45:57.98Z</time></trkpt><trkpt lat="44.15274394010573" lon="10.442818972256203"><ele>792.0</ele><time>2026-05-02T09:45:59.981Z</time></trkpt><trkpt lat="44.15269310293951" lon="10.442714411826026"><ele>791.1666666666666</ele><time>2026-05-02T09:46:00.98Z</time></trkpt><trkpt lat="44.15263267697629" lon="10.442628474964145"><ele>790.3333333333333</ele><time>2026-05-02T09:46:01.98Z</time></trkpt><trkpt lat="44.152568604031266" lon="10.44255049495069"><ele>789.5</ele><time>2026-05-02T09:46:02.98Z</time></trkpt><trkpt lat="44.15249707693826" lon="10.442479244259287"><ele>788.6666666666666</ele><time>2026-05-02T09:46:03.98Z</time></trkpt><trkpt lat="44.15241318189159" lon="10.442422172633702"><ele>787.8333333333333</ele><time>2026-05-02T09:46:04.98Z</time></trkpt><trkpt lat="44.15232582645468" lon="10.442377865713592"><ele>787.0</ele><time>2026-05-02T09:46:05.98Z</time></trkpt><trkpt lat="44.15224881112561" lon="10.442326955753325"><ele>786.9999999999999</ele><time>2026-05-02T09:46:06.98Z</time></trkpt><trkpt lat="44.15217154439043" lon="10.442272695332901"><ele>787.0</ele><time>2026-05-02T09:46:07.98Z</time></trkpt><trkpt lat="44.15209984014341" lon="10.44218506906426"><ele>787.0</ele><time>2026-05-02T09:46:08.98Z</time></trkpt><trkpt lat="44.152042717304234" lon="10.44209429363948"><ele>787.0</ele><time>2026-05-02T09:46:09.98Z</time></trkpt><trkpt lat="44.1520332181561" lon="10.441975956170511"><ele>786.9999999999999</ele><time>2026-05-02T09:46:10.98Z</time></trkpt><trkpt lat="44.15200387326544" lon="10.441857092998749"><ele>787.0</ele><time>2026-05-02T09:46:11.98Z</time></trkpt><trkpt lat="44.151976642389265" lon="10.441736763546858"><ele>790.7142857142857</ele><time>2026-05-02T09:46:12.98Z</time></trkpt><trkpt lat="44.1519442450783" lon="10.441632141710219"><ele>794.4285714285713</ele><time>2026-05-02T09:46:13.98Z</time></trkpt><trkpt lat="44.151947460386765" lon="10.441540705968368"><ele>798.1428571428571</ele><time>2026-05-02T09:46:14.98Z</time></trkpt><trkpt lat="44.15197415197293" lon="10.441458257705468"><ele>801.8571428571429</ele><time>2026-05-02T09:46:15.98Z</time></trkpt><trkpt lat="44.15200716453614" lon="10.44137024860272"><ele>805.5714285714286</ele><time>2026-05-02T09:46:16.98Z</time></trkpt><trkpt lat="44.152075218914575" lon="10.441317015788387"><ele>809.2857142857143</ele><time>2026-05-02T09:46:17.98Z</time></trkpt><trkpt lat="44.1521546850114" lon="10.441322107555798"><ele>813.0</ele><time>2026-05-02T09:46:18.98Z</time></trkpt><trkpt lat="44.152235103253496" lon="10.44130076606931"><ele>813.0</ele><time>2026-05-02T09:46:19.98Z</time></trkpt><trkpt lat="44.15232035682387" lon="10.441324560601897"><ele>813.0</ele><time>2026-05-02T09:46:21.98Z</time></trkpt><trkpt lat="44.15240158021155" lon="10.441325763241487"><ele>813.0</ele><time>2026-05-02T09:46:22.98Z</time></trkpt><trkpt lat="44.15249406295489" lon="10.441326671886014"><ele>813.0</ele><time>2026-05-02T09:46:23.98Z</time></trkpt><trkpt lat="44.152583488063776" lon="10.44132510404649"><ele>813.0</ele><time>2026-05-02T09:46:24.98Z</time></trkpt><trkpt lat="44.15267565463587" lon="10.441318344826776"><ele>813.0</ele><time>2026-05-02T09:46:25.98Z</time></trkpt><trkpt lat="44.152763715244745" lon="10.441274638712803"><ele>812.5999999999999</ele><time>2026-05-02T09:46:26.98Z</time></trkpt><trkpt lat="44.15285789139467" lon="10.441255403921678"><ele>812.1999999999999</ele><time>2026-05-02T09:46:27.98Z</time></trkpt><trkpt lat="44.152957046453885" lon="10.441261294013556"><ele>811.8</ele><time>2026-05-02T09:46:28.98Z</time></trkpt><trkpt lat="44.15304605039088" lon="10.441269970114705"><ele>811.4</ele><time>2026-05-02T09:46:29.98Z</time></trkpt><trkpt lat="44.15313545681494" lon="10.441302286136446"><ele>811.0</ele><time>2026-05-02T09:46:30.98Z</time></trkpt><trkpt lat="44.15322688910522" lon="10.441343516430077"><ele>819.1999999999999</ele><time>2026-05-02T09:46:31.98Z</time></trkpt><trkpt lat="44.15331190322866" lon="10.44140056545452"><ele>827.4</ele><time>2026-05-02T09:46:32.98Z</time></trkpt><trkpt lat="44.15339840004561" lon="10.441465888120643"><ele>835.6</ele><time>2026-05-02T09:46:33.98Z</time></trkpt><trkpt lat="44.153480815470495" lon="10.441528319910717"><ele>843.8</ele><time>2026-05-02T09:46:34.98Z</time></trkpt><trkpt lat="44.15356537441042" lon="10.441592375671787"><ele>852.0</ele><time>2026-05-02T09:46:35.98Z</time></trkpt><trkpt lat="44.153657593906125" lon="10.44162361274111"><ele>852.0</ele><time>2026-05-02T09:46:36.98Z</time></trkpt><trkpt lat="44.15374597723102" lon="10.441687589030792"><ele>852.0</ele><time>2026-05-02T09:46:37.98Z</time></trkpt><trkpt lat="44.153833957538" lon="10.441719838590592"><ele>852.0</ele><time>2026-05-02T09:46:38.98Z</time></trkpt><trkpt lat="44.1539297430767" lon="10.441744132458695"><ele>852.0</ele><time>2026-05-02T09:46:39.98Z</time></trkpt><trkpt lat="44.15402439203377" lon="10.441785207790751"><ele>852.0</ele><time>2026-05-02T09:46:40.98Z</time></trkpt><trkpt lat="44.154118259414915" lon="10.441802723897379"><ele>853.6</ele><time>2026-05-02T09:46:41.98Z</time></trkpt><trkpt lat="44.15421225391204" lon="10.441793519782722"><ele>855.2</ele><time>2026-05-02T09:46:42.98Z</time></trkpt><trkpt lat="44.15428451014933" lon="10.441729342602672"><ele>856.8</ele><time>2026-05-02T09:46:43.98Z</time></trkpt><trkpt lat="44.15437105198667" lon="10.441700219021033"><ele>858.4</ele><time>2026-05-02T09:46:44.98Z</time></trkpt><trkpt lat="44.15447178578584" lon="10.441655868892726"><ele>860.0</ele><time>2026-05-02T09:46:45.98Z</time></trkpt><trkpt lat="44.15458259750342" lon="10.441637173918034"><ele>860.0000000000001</ele><time>2026-05-02T09:46:46.98Z</time></trkpt><trkpt lat="44.154664498882454" lon="10.44164832898393"><ele>860.0</ele><time>2026-05-02T09:46:47.98Z</time></trkpt><trkpt lat="44.154733704200616" lon="10.44164233092902"><ele>860.0</ele><time>2026-05-02T09:46:48.98Z</time></trkpt><trkpt lat="44.15480785282073" lon="10.441696764983773"><ele>860.0</ele><time>2026-05-02T09:46:49.98Z</time></trkpt><trkpt lat="44.15486331213867" lon="10.441780418451135"><ele>860.0000000000001</ele><time>2026-05-02T09:46:50.98Z</time></trkpt><trkpt lat="44.15495675320609" lon="10.441764458752276"><ele>860.0</ele><time>2026-05-02T09:46:51.98Z</time></trkpt><trkpt lat="44.15504807647517" lon="10.44179015260909"><ele>861.0000000000001</ele><time>2026-05-02T09:46:52.98Z</time></trkpt><trkpt lat="44.155111523223624" lon="10.441812271600602"><ele>862.0</ele><time>2026-05-02T09:46:53.98Z</time></trkpt><trkpt lat="44.155236793995485" lon="10.4418563556463"><ele>863.0</ele><time>2026-05-02T09:46:55.98Z</time></trkpt><trkpt lat="44.15531804300092" lon="10.44185123875116"><ele>864.0</ele><time>2026-05-02T09:46:56.98Z</time></trkpt><trkpt lat="44.155400864829154" lon="10.441860461184792"><ele>865.0000000000001</ele><time>2026-05-02T09:46:57.98Z</time></trkpt><trkpt lat="44.1554794303713" lon="10.441885573691621"><ele>866.0</ele><time>2026-05-02T09:46:58.98Z</time></trkpt><trkpt lat="44.15554258347598" lon="10.441892565042092"><ele>866.0000000000001</ele><time>2026-05-02T09:46:59.98Z</time></trkpt><trkpt lat="44.15561124553491" lon="10.441876865085042"><ele>866.0</ele><time>2026-05-02T09:47:00.98Z</time></trkpt><trkpt lat="44.155691285640856" lon="10.441790817506403"><ele>866.0</ele><time>2026-05-02T09:47:01.98Z</time></trkpt><trkpt lat="44.15574390174738" lon="10.441652303250029"><ele>866.0</ele><time>2026-05-02T09:47:02.98Z</time></trkpt><trkpt lat="44.15577939259214" lon="10.441555679528944"><ele>866.0000000000001</ele><time>2026-05-02T09:47:03.98Z</time></trkpt><trkpt lat="44.15580790211971" lon="10.441476147588123"><ele>866.0</ele><time>2026-05-02T09:47:04.98Z</time></trkpt><trkpt lat="44.155875348123345" lon="10.441343473404858"><ele>868.0000000000001</ele><time>2026-05-02T09:47:06.98Z</time></trkpt><trkpt lat="44.155931014175195" lon="10.441279388519442"><ele>870.0</ele><time>2026-05-02T09:47:07.98Z</time></trkpt><trkpt lat="44.15599688553249" lon="10.441240871394863"><ele>872.0</ele><time>2026-05-02T09:47:08.98Z</time></trkpt><trkpt lat="44.15607159409945" lon="10.441186277562483"><ele>874.0</ele><time>2026-05-02T09:47:09.98Z</time></trkpt><trkpt lat="44.15614632786633" lon="10.44113186953183"><ele>876.0000000000001</ele><time>2026-05-02T09:47:10.98Z</time></trkpt><trkpt lat="44.156221628575395" lon="10.44107475346614"><ele>878.0</ele><time>2026-05-02T09:47:11.98Z</time></trkpt><trkpt lat="44.15629504810587" lon="10.441011730239465"><ele>878.0000000000001</ele><time>2026-05-02T09:47:12.98Z</time></trkpt><trkpt lat="44.15636357719531" lon="10.440922207934133"><ele>878.0</ele><time>2026-05-02T09:47:13.98Z</time></trkpt><trkpt lat="44.15642438244976" lon="10.440826143522823"><ele>878.0</ele><time>2026-05-02T09:47:14.98Z</time></trkpt><trkpt lat="44.156476049092234" lon="10.440741957802391"><ele>878.0</ele><time>2026-05-02T09:47:15.98Z</time></trkpt><trkpt lat="44.156517456228016" lon="10.440674488988565"><ele>878.0000000000001</ele><time>2026-05-02T09:47:16.98Z</time></trkpt><trkpt lat="44.15659038015581" lon="10.44057675099319"><ele>878.0</ele><time>2026-05-02T09:47:18.98Z</time></trkpt><trkpt lat="44.15668998534278" lon="10.440485623496764"><ele>881.8333333333334</ele><time>2026-05-02T09:47:20.98Z</time></trkpt><trkpt lat="44.15675135950508" lon="10.440448382089219"><ele>885.6666666666667</ele><time>2026-05-02T09:47:21.98Z</time></trkpt><trkpt lat="44.15681592046481" lon="10.440405377519895"><ele>889.5</ele><time>2026-05-02T09:47:22.98Z</time></trkpt><trkpt lat="44.156909592478485" lon="10.440298165518364"><ele>893.3333333333333</ele><time>2026-05-02T09:47:24.98Z</time></trkpt><trkpt lat="44.156929319323865" lon="10.440181914878465"><ele>897.1666666666666</ele><time>2026-05-02T09:47:25.98Z</time></trkpt><trkpt lat="44.15691612670053" lon="10.440054730253335"><ele>901.0</ele><time>2026-05-02T09:47:26.98Z</time></trkpt><trkpt lat="44.156856064733894" lon="10.439963579466523"><ele>900.9999999999999</ele><time>2026-05-02T09:47:27.98Z</time></trkpt><trkpt lat="44.15676064068658" lon="10.439848428245961"><ele>901.0</ele><time>2026-05-02T09:47:29.98Z</time></trkpt><trkpt lat="44.15669630678733" lon="10.43982816690273"><ele>901.0</ele><time>2026-05-02T09:47:30.98Z</time></trkpt><trkpt lat="44.15661588299777" lon="10.439828968609445"><ele>901.0</ele><time>2026-05-02T09:47:31.98Z</time></trkpt><trkpt lat="44.156537236580064" lon="10.43982912199551"><ele>900.9999999999999</ele><time>2026-05-02T09:47:32.98Z</time></trkpt><trkpt lat="44.15645229232027" lon="10.43986050066282"><ele>901.0</ele><time>2026-05-02T09:47:33.98Z</time></trkpt><trkpt lat="44.15637910733838" lon="10.439848748879388"><ele>899.3333333333333</ele><time>2026-05-02T09:47:34.98Z</time></trkpt><trkpt lat="44.1563095782133" lon="10.439855206601646"><ele>897.6666666666666</ele><time>2026-05-02T09:47:35.98Z</time></trkpt><trkpt lat="44.15619632946397" lon="10.439878029377077"><ele>896.0</ele><time>2026-05-02T09:47:37.98Z</time></trkpt><trkpt lat="44.156133377058374" lon="10.439869360836884"><ele>894.3333333333333</ele><time>2026-05-02T09:47:38.98Z</time></trkpt><trkpt lat="44.156007816136025" lon="10.43984480408708"><ele>892.6666666666666</ele><time>2026-05-02T09:47:40.98Z</time></trkpt><trkpt lat="44.15593843349029" lon="10.439825520986968"><ele>891.0</ele><time>2026-05-02T09:47:41.98Z</time></trkpt><trkpt lat="44.155866537187485" lon="10.439798304383217"><ele>891.0</ele><time>2026-05-02T09:47:42.98Z</time></trkpt><trkpt lat="44.1557897444437" lon="10.439767652597952"><ele>891.0</ele><time>2026-05-02T09:47:43.98Z</time></trkpt><trkpt lat="44.1557110031555" lon="10.439759609373956"><ele>891.0</ele><time>2026-05-02T09:47:44.98Z</time></trkpt><trkpt lat="44.15563647403383" lon="10.43969956999259"><ele>891.0</ele><time>2026-05-02T09:47:45.98Z</time></trkpt><trkpt lat="44.15556815086001" lon="10.439648095899221"><ele>891.0</ele><time>2026-05-02T09:47:46.98Z</time></trkpt><trkpt lat="44.15552438530471" lon="10.439572971775805"><ele>891.0</ele><time>2026-05-02T09:47:47.98Z</time></trkpt><trkpt lat="44.155483385401325" lon="10.439476675530454"><ele>892.3333333333334</ele><time>2026-05-02T09:47:48.98Z</time></trkpt><trkpt lat="44.1554694960851" lon="10.439380566626463"><ele>893.6666666666667</ele><time>2026-05-02T09:47:49.98Z</time></trkpt><trkpt lat="44.15545963906913" lon="10.43925732456233"><ele>895.0</ele><time>2026-05-02T09:47:50.98Z</time></trkpt><trkpt lat="44.15547062857762" lon="10.439130876062231"><ele>896.3333333333334</ele><time>2026-05-02T09:47:51.98Z</time></trkpt><trkpt lat="44.15548024732937" lon="10.439007334380596"><ele>897.6666666666667</ele><time>2026-05-02T09:47:52.98Z</time></trkpt><trkpt lat="44.1554901294559" lon="10.438878336197876"><ele>899.0</ele><time>2026-05-02T09:47:53.98Z</time></trkpt><trkpt lat="44.155484092171776" lon="10.438741311431595"><ele>900.3333333333334</ele><time>2026-05-02T09:47:54.98Z</time></trkpt><trkpt lat="44.15549377412541" lon="10.438612739003151"><ele>901.6666666666667</ele><time>2026-05-02T09:47:55.98Z</time></trkpt><trkpt lat="44.15550205109532" lon="10.43851657482783"><ele>903.0</ele><time>2026-05-02T09:47:56.98Z</time></trkpt><trkpt lat="44.155526062718025" lon="10.438390009300093"><ele>904.3333333333333</ele><time>2026-05-02T09:47:58.98Z</time></trkpt><trkpt lat="44.155593204127655" lon="10.438372983089769"><ele>905.6666666666666</ele><time>2026-05-02T09:48:00.98Z</time></trkpt><trkpt lat="44.15564096034154" lon="10.43847948069823"><ele>907.0</ele><time>2026-05-02T09:48:03.979Z</time></trkpt><trkpt lat="44.155649512218936" lon="10.438663192508995"><ele>907.0</ele><time>2026-05-02T09:48:05.978Z</time></trkpt><trkpt lat="44.15565436276823" lon="10.43876739249189"><ele>907.0</ele><time>2026-05-02T09:48:06.978Z</time></trkpt><trkpt lat="44.155660608102735" lon="10.43890155515627"><ele>899.0</ele><time>2026-05-02T09:48:08.978Z</time></trkpt></trkseg><trkseg><trkpt lat="44.155701330339866" lon="10.43884637251034"><ele>900.3333333333334</ele><time>2026-05-02T11:33:55.904Z</time></trkpt><trkpt lat="44.155678864264075" lon="10.438710290771297"><ele>901.6666666666667</ele><time>2026-05-02T11:33:58.904Z</time></trkpt><trkpt lat="44.15567344134023" lon="10.438613371029568"><ele>903.0</ele><time>2026-05-02T11:34:00.904Z</time></trkpt><trkpt lat="44.15567688010855" lon="10.438489023738882"><ele>904.3333333333333</ele><time>2026-05-02T11:34:03.904Z</time></trkpt><trkpt lat="44.15563008491896" lon="10.43841392879721"><ele>905.6666666666666</ele><time>2026-05-02T11:34:06.904Z</time></trkpt><trkpt lat="44.15558894606512" lon="10.438340808971322"><ele>907.0</ele><time>2026-05-02T11:34:09.904Z</time></trkpt><trkpt lat="44.15554123221919" lon="10.438270844086581"><ele>907.0</ele><time>2026-05-02T11:34:12.904Z</time></trkpt><trkpt lat="44.155502405207564" lon="10.43816205776924"><ele>907.0</ele><time>2026-05-02T11:35:13.902Z</time></trkpt><trkpt lat="44.15553749268845" lon="10.43800465366246"><ele>907.0</ele><time>2026-05-02T11:35:15.902Z</time></trkpt><trkpt lat="44.15555868315485" lon="10.437908978669995"><ele>907.0</ele><time>2026-05-02T11:35:16.902Z</time></trkpt><trkpt lat="44.15560558922832" lon="10.437836441444533"><ele>907.0</ele><time>2026-05-02T11:35:17.902Z</time></trkpt><trkpt lat="44.15571611068777" lon="10.437902027673498"><ele>909.8333333333333</ele><time>2026-05-02T11:35:19.902Z</time></trkpt><trkpt lat="44.155795974397435" lon="10.43796307202931"><ele>912.6666666666666</ele><time>2026-05-02T11:35:20.902Z</time></trkpt><trkpt lat="44.15587394773417" lon="10.438010181300028"><ele>915.5</ele><time>2026-05-02T11:35:21.902Z</time></trkpt><trkpt lat="44.15594216757289" lon="10.43806342397461"><ele>918.3333333333333</ele><time>2026-05-02T11:35:22.902Z</time></trkpt><trkpt lat="44.15600454728962" lon="10.438128884836583"><ele>921.1666666666666</ele><time>2026-05-02T11:35:23.902Z</time></trkpt><trkpt lat="44.156080971586825" lon="10.438187454914528"><ele>924.0</ele><time>2026-05-02T11:35:24.902Z</time></trkpt><trkpt lat="44.15615712973939" lon="10.438258965113683"><ele>924.0</ele><time>2026-05-02T11:35:25.902Z</time></trkpt><trkpt lat="44.1562189220351" lon="10.438335140393782"><ele>924.0</ele><time>2026-05-02T11:35:26.902Z</time></trkpt><trkpt lat="44.156270048810924" lon="10.4384270321421"><ele>924.0</ele><time>2026-05-02T11:35:27.902Z</time></trkpt><trkpt lat="44.15630519062535" lon="10.438518638252619"><ele>924.0</ele><time>2026-05-02T11:35:28.902Z</time></trkpt><trkpt lat="44.1563371235492" lon="10.438610321223313"><ele>924.0</ele><time>2026-05-02T11:35:29.902Z</time></trkpt><trkpt lat="44.15637689792528" lon="10.438697065050485"><ele>924.0</ele><time>2026-05-02T11:35:30.902Z</time></trkpt><trkpt lat="44.1564746579158" lon="10.438800139928912"><ele>923.8333333333334</ele><time>2026-05-02T11:35:32.902Z</time></trkpt><trkpt lat="44.15654525310733" lon="10.438833549420506"><ele>923.6666666666667</ele><time>2026-05-02T11:35:33.902Z</time></trkpt><trkpt lat="44.156619989424215" lon="10.438852329830008"><ele>923.5</ele><time>2026-05-02T11:35:34.902Z</time></trkpt><trkpt lat="44.1567027497754" lon="10.438867103191546"><ele>923.3333333333334</ele><time>2026-05-02T11:35:35.902Z</time></trkpt><trkpt lat="44.15678873916651" lon="10.43888177684658"><ele>923.1666666666667</ele><time>2026-05-02T11:35:36.902Z</time></trkpt><trkpt lat="44.156870028313406" lon="10.438903147096129"><ele>923.0</ele><time>2026-05-02T11:35:37.902Z</time></trkpt><trkpt lat="44.156948747133114" lon="10.438920413767088"><ele>923.0</ele><time>2026-05-02T11:35:38.902Z</time></trkpt><trkpt lat="44.15702445788691" lon="10.438940302938123"><ele>923.0</ele><time>2026-05-02T11:35:39.902Z</time></trkpt><trkpt lat="44.1570952492737" lon="10.43895211850749"><ele>923.0</ele><time>2026-05-02T11:35:40.902Z</time></trkpt><trkpt lat="44.157164999552116" lon="10.43896896307762"><ele>923.0</ele><time>2026-05-02T11:35:41.902Z</time></trkpt><trkpt lat="44.15723661679216" lon="10.438992284639077"><ele>923.0</ele><time>2026-05-02T11:35:42.902Z</time></trkpt><trkpt lat="44.15730635687755" lon="10.439021196269255"><ele>923.0</ele><time>2026-05-02T11:35:43.902Z</time></trkpt><trkpt lat="44.15737338218082" lon="10.439048360336127"><ele>923.0</ele><time>2026-05-02T11:35:44.902Z</time></trkpt><trkpt lat="44.157439824817125" lon="10.439077968390812"><ele>925.7142857142857</ele><time>2026-05-02T11:35:45.902Z</time></trkpt><trkpt lat="44.15750974339717" lon="10.439100818783237"><ele>928.4285714285716</ele><time>2026-05-02T11:35:46.902Z</time></trkpt><trkpt lat="44.15757647909749" lon="10.439127522945421"><ele>931.1428571428572</ele><time>2026-05-02T11:35:47.902Z</time></trkpt><trkpt lat="44.157644303418316" lon="10.439150807028971"><ele>933.8571428571429</ele><time>2026-05-02T11:35:48.902Z</time></trkpt><trkpt lat="44.15770907410707" lon="10.43918305501752"><ele>936.5714285714287</ele><time>2026-05-02T11:35:49.902Z</time></trkpt><trkpt lat="44.15778636689324" lon="10.439205845609745"><ele>939.2857142857144</ele><time>2026-05-02T11:35:50.902Z</time></trkpt><trkpt lat="44.157856940774934" lon="10.439213755164301"><ele>942.0000000000001</ele><time>2026-05-02T11:35:51.902Z</time></trkpt><trkpt lat="44.15792203015507" lon="10.439196038471257"><ele>942.0000000000001</ele><time>2026-05-02T11:35:52.902Z</time></trkpt><trkpt lat="44.15798989066585" lon="10.439168044046323"><ele>942.0</ele><time>2026-05-02T11:35:53.902Z</time></trkpt><trkpt lat="44.15805653196649" lon="10.43912865149489"><ele>942.0000000000001</ele><time>2026-05-02T11:35:54.902Z</time></trkpt><trkpt lat="44.15811997173928" lon="10.439153188431346"><ele>942.0000000000001</ele><time>2026-05-02T11:35:55.902Z</time></trkpt><trkpt lat="44.15819563438279" lon="10.4391850515592"><ele>942.0</ele><time>2026-05-02T11:35:56.902Z</time></trkpt><trkpt lat="44.158269356054106" lon="10.43919935241481"><ele>942.0000000000001</ele><time>2026-05-02T11:35:57.902Z</time></trkpt><trkpt lat="44.158339185649005" lon="10.439188170782609"><ele>942.0000000000001</ele><time>2026-05-02T11:35:58.902Z</time></trkpt><trkpt lat="44.158421424099565" lon="10.439192418843692"><ele>944.0</ele><time>2026-05-02T11:35:59.902Z</time></trkpt><trkpt lat="44.15850577541558" lon="10.439238588079892"><ele>946.0</ele><time>2026-05-02T11:36:00.902Z</time></trkpt><trkpt lat="44.15858794272523" lon="10.439269142526033"><ele>948.0</ele><time>2026-05-02T11:36:01.902Z</time></trkpt><trkpt lat="44.15866477678724" lon="10.439300939349405"><ele>950.0</ele><time>2026-05-02T11:36:02.902Z</time></trkpt><trkpt lat="44.158748123288674" lon="10.439331182060032"><ele>952.0</ele><time>2026-05-02T11:36:03.902Z</time></trkpt><trkpt lat="44.158823558521476" lon="10.43935483479503"><ele>954.0</ele><time>2026-05-02T11:36:04.902Z</time></trkpt><trkpt lat="44.15889918431019" lon="10.439386088383753"><ele>954.0</ele><time>2026-05-02T11:36:05.902Z</time></trkpt><trkpt lat="44.15897607272459" lon="10.439435752354711"><ele>954.0</ele><time>2026-05-02T11:36:06.902Z</time></trkpt><trkpt lat="44.15904721326804" lon="10.439503494627075"><ele>954.0</ele><time>2026-05-02T11:36:07.902Z</time></trkpt><trkpt lat="44.15910986143859" lon="10.439584036118084"><ele>954.0</ele><time>2026-05-02T11:36:08.902Z</time></trkpt><trkpt lat="44.15917579391798" lon="10.439660005508172"><ele>954.0</ele><time>2026-05-02T11:36:09.902Z</time></trkpt><trkpt lat="44.15923649013549" lon="10.439729645935977"><ele>954.0</ele><time>2026-05-02T11:36:10.902Z</time></trkpt><trkpt lat="44.15930341370197" lon="10.439782320400386"><ele>955.1666666666666</ele><time>2026-05-02T11:36:11.902Z</time></trkpt><trkpt lat="44.159375992998" lon="10.439823313890956"><ele>956.3333333333333</ele><time>2026-05-02T11:36:12.902Z</time></trkpt><trkpt lat="44.15944563682867" lon="10.439850473105547"><ele>957.5</ele><time>2026-05-02T11:36:13.902Z</time></trkpt><trkpt lat="44.159517624281925" lon="10.439895774488248"><ele>958.6666666666666</ele><time>2026-05-02T11:36:14.902Z</time></trkpt><trkpt lat="44.15959278672878" lon="10.439939218577123"><ele>959.8333333333333</ele><time>2026-05-02T11:36:15.902Z</time></trkpt><trkpt lat="44.15967548596577" lon="10.439969651934058"><ele>961.0</ele><time>2026-05-02T11:36:16.902Z</time></trkpt><trkpt lat="44.15975303524862" lon="10.44000023981723"><ele>960.9999999999999</ele><time>2026-05-02T11:36:17.902Z</time></trkpt><trkpt lat="44.15983485061363" lon="10.440037173219892"><ele>961.0</ele><time>2026-05-02T11:36:18.902Z</time></trkpt><trkpt lat="44.15991306251854" lon="10.440086547409306"><ele>961.0</ele><time>2026-05-02T11:36:19.902Z</time></trkpt><trkpt lat="44.15998134969044" lon="10.440163295924014"><ele>961.0</ele><time>2026-05-02T11:36:20.902Z</time></trkpt><trkpt lat="44.160040003708225" lon="10.440245160700943"><ele>960.9999999999999</ele><time>2026-05-02T11:36:21.902Z</time></trkpt><trkpt lat="44.160095308467284" lon="10.440326280106481"><ele>961.0</ele><time>2026-05-02T11:36:22.902Z</time></trkpt><trkpt lat="44.160138435470444" lon="10.440411846272038"><ele>962.1666666666666</ele><time>2026-05-02T11:36:23.902Z</time></trkpt><trkpt lat="44.160181322507796" lon="10.440501807533927"><ele>963.3333333333333</ele><time>2026-05-02T11:36:24.903Z</time></trkpt><trkpt lat="44.160230937632875" lon="10.440585417878667"><ele>964.5</ele><time>2026-05-02T11:36:25.903Z</time></trkpt><trkpt lat="44.16028293716029" lon="10.440668648017539"><ele>965.6666666666667</ele><time>2026-05-02T11:36:26.903Z</time></trkpt><trkpt lat="44.16034526028186" lon="10.440744230060117"><ele>966.8333333333334</ele><time>2026-05-02T11:36:27.903Z</time></trkpt><trkpt lat="44.16041261905382" lon="10.440809030936549"><ele>968.0</ele><time>2026-05-02T11:36:28.903Z</time></trkpt><trkpt lat="44.1604847950687" lon="10.440871805505578"><ele>968.0</ele><time>2026-05-02T11:36:29.903Z</time></trkpt><trkpt lat="44.160570705974145" lon="10.440928588805873"><ele>968.0</ele><time>2026-05-02T11:36:30.903Z</time></trkpt><trkpt lat="44.16065897941493" lon="10.440981473414462"><ele>968.0</ele><time>2026-05-02T11:36:31.903Z</time></trkpt><trkpt lat="44.1607638995526" lon="10.441020826929956"><ele>968.0</ele><time>2026-05-02T11:36:32.903Z</time></trkpt><trkpt lat="44.1608583121816" lon="10.441067714576434"><ele>968.0</ele><time>2026-05-02T11:36:33.903Z</time></trkpt><trkpt lat="44.1609596902685" lon="10.441114159774068"><ele>966.0000000000001</ele><time>2026-05-02T11:36:34.903Z</time></trkpt><trkpt lat="44.16105168777049" lon="10.441159143169417"><ele>964.0</ele><time>2026-05-02T11:36:35.901Z</time></trkpt><trkpt lat="44.1611402056969" lon="10.441193135911899"><ele>962.0</ele><time>2026-05-02T11:36:36.901Z</time></trkpt><trkpt lat="44.16121608278476" lon="10.44123237411075"><ele>960.0</ele><time>2026-05-02T11:36:37.901Z</time></trkpt><trkpt lat="44.16129006167111" lon="10.441268454331828"><ele>958.0000000000001</ele><time>2026-05-02T11:36:38.9Z</time></trkpt><trkpt lat="44.16137356799366" lon="10.441309201196114"><ele>956.0</ele><time>2026-05-02T11:36:39.901Z</time></trkpt><trkpt lat="44.161459829412486" lon="10.44135194291431"><ele>959.1999999999999</ele><time>2026-05-02T11:36:40.901Z</time></trkpt><trkpt lat="44.16154984942734" lon="10.441399311510208"><ele>962.3999999999999</ele><time>2026-05-02T11:36:41.901Z</time></trkpt><trkpt lat="44.16164241258325" lon="10.441449249439907"><ele>965.6</ele><time>2026-05-02T11:36:42.901Z</time></trkpt><trkpt lat="44.161726773826125" lon="10.441457798880108"><ele>968.8</ele><time>2026-05-02T11:36:43.901Z</time></trkpt><trkpt lat="44.1618131868864" lon="10.441475168995987"><ele>972.0</ele><time>2026-05-02T11:36:44.9Z</time></trkpt><trkpt lat="44.16190570043278" lon="10.441494978028427"><ele>972.0</ele><time>2026-05-02T11:36:45.901Z</time></trkpt><trkpt lat="44.16201022791507" lon="10.441508978157943"><ele>972.0</ele><time>2026-05-02T11:36:46.901Z</time></trkpt><trkpt lat="44.16211459621746" lon="10.441519924957355"><ele>972.0</ele><time>2026-05-02T11:36:47.901Z</time></trkpt><trkpt lat="44.16221394563111" lon="10.441543719006264"><ele>972.0</ele><time>2026-05-02T11:36:48.901Z</time></trkpt><trkpt lat="44.16231042088546" lon="10.441595102439676"><ele>972.0</ele><time>2026-05-02T11:36:49.901Z</time></trkpt><trkpt lat="44.16239498689914" lon="10.441653921221477"><ele>974.1666666666666</ele><time>2026-05-02T11:36:50.901Z</time></trkpt><trkpt lat="44.1624731694896" lon="10.441714866388269"><ele>976.3333333333333</ele><time>2026-05-02T11:36:51.901Z</time></trkpt><trkpt lat="44.16254903450746" lon="10.441783196094695"><ele>978.5</ele><time>2026-05-02T11:36:52.901Z</time></trkpt><trkpt lat="44.162615822162046" lon="10.441842660682072"><ele>980.6666666666666</ele><time>2026-05-02T11:36:53.901Z</time></trkpt><trkpt lat="44.16267798122617" lon="10.44189994749241"><ele>982.8333333333333</ele><time>2026-05-02T11:36:54.901Z</time></trkpt><trkpt lat="44.16274650461394" lon="10.441944884024695"><ele>985.0</ele><time>2026-05-02T11:36:55.901Z</time></trkpt><trkpt lat="44.16281509228572" lon="10.441984459624654"><ele>984.9999999999999</ele><time>2026-05-02T11:36:56.901Z</time></trkpt><trkpt lat="44.162888783613006" lon="10.44202246967016"><ele>985.0</ele><time>2026-05-02T11:36:57.901Z</time></trkpt><trkpt lat="44.16296407396775" lon="10.442046163106916"><ele>985.0</ele><time>2026-05-02T11:36:58.901Z</time></trkpt><trkpt lat="44.16304083208645" lon="10.44204866505638"><ele>985.0</ele><time>2026-05-02T11:36:59.901Z</time></trkpt><trkpt lat="44.16311752893792" lon="10.44204498517598"><ele>984.9999999999999</ele><time>2026-05-02T11:37:00.901Z</time></trkpt><trkpt lat="44.16319775905769" lon="10.442038448681172"><ele>985.0</ele><time>2026-05-02T11:37:01.901Z</time></trkpt><trkpt lat="44.16327608215184" lon="10.442040476418663"><ele>985.4999999999999</ele><time>2026-05-02T11:37:02.901Z</time></trkpt><trkpt lat="44.163355480604395" lon="10.442053154117028"><ele>986.0</ele><time>2026-05-02T11:37:03.901Z</time></trkpt><trkpt lat="44.163428985384044" lon="10.442049408561235"><ele>986.5</ele><time>2026-05-02T11:37:04.901Z</time></trkpt><trkpt lat="44.1635081136611" lon="10.442044538560841"><ele>987.0</ele><time>2026-05-02T11:37:05.901Z</time></trkpt><trkpt lat="44.16359200642426" lon="10.442051539011892"><ele>987.4999999999999</ele><time>2026-05-02T11:37:06.901Z</time></trkpt><trkpt lat="44.16367244244611" lon="10.442048688186825"><ele>988.0</ele><time>2026-05-02T11:37:07.901Z</time></trkpt><trkpt lat="44.16375133101715" lon="10.442032403713847"><ele>987.9999999999999</ele><time>2026-05-02T11:37:08.901Z</time></trkpt><trkpt lat="44.16382825839431" lon="10.442007684533785"><ele>988.0</ele><time>2026-05-02T11:37:09.901Z</time></trkpt><trkpt lat="44.16390566729989" lon="10.44197562138439"><ele>988.0</ele><time>2026-05-02T11:37:10.901Z</time></trkpt><trkpt lat="44.163990848418756" lon="10.441952898412085"><ele>988.0</ele><time>2026-05-02T11:37:11.901Z</time></trkpt><trkpt lat="44.1640709449699" lon="10.441977164655272"><ele>987.9999999999999</ele><time>2026-05-02T11:37:12.901Z</time></trkpt><trkpt lat="44.16414659670146" lon="10.442026669924191"><ele>988.0</ele><time>2026-05-02T11:37:13.901Z</time></trkpt><trkpt lat="44.16421929554781" lon="10.442085187208471"><ele>997.1666666666666</ele><time>2026-05-02T11:37:14.901Z</time></trkpt><trkpt lat="44.16429378272949" lon="10.442147287250638"><ele>1006.3333333333333</ele><time>2026-05-02T11:37:15.901Z</time></trkpt><trkpt lat="44.16436959214505" lon="10.442204538347323"><ele>1015.5</ele><time>2026-05-02T11:37:16.901Z</time></trkpt><trkpt lat="44.164446767683835" lon="10.442259433923585"><ele>1024.6666666666667</ele><time>2026-05-02T11:37:17.901Z</time></trkpt><trkpt lat="44.16451977519363" lon="10.44231075464259"><ele>1033.8333333333335</ele><time>2026-05-02T11:37:18.901Z</time></trkpt><trkpt lat="44.164588955050654" lon="10.442369206460821"><ele>1043.0</ele><time>2026-05-02T11:37:19.901Z</time></trkpt><trkpt lat="44.1646677612967" lon="10.442371030392412"><ele>1043.0</ele><time>2026-05-02T11:37:20.901Z</time></trkpt><trkpt lat="44.164743934234146" lon="10.442343798794479"><ele>1043.0</ele><time>2026-05-02T11:37:21.901Z</time></trkpt><trkpt lat="44.16481799475984" lon="10.44230140535742"><ele>1043.0</ele><time>2026-05-02T11:37:22.901Z</time></trkpt><trkpt lat="44.164888672740446" lon="10.442253904395976"><ele>1043.0</ele><time>2026-05-02T11:37:23.901Z</time></trkpt><trkpt lat="44.16495937928331" lon="10.442213683858483"><ele>1043.0</ele><time>2026-05-02T11:37:24.901Z</time></trkpt><trkpt lat="44.165024967743115" lon="10.442209908626353"><ele>1043.0</ele><time>2026-05-02T11:37:25.901Z</time></trkpt><trkpt lat="44.16509764363507" lon="10.442215905851905"><ele>1042.5714285714287</ele><time>2026-05-02T11:37:26.901Z</time></trkpt><trkpt lat="44.16516585294496" lon="10.442222500392173"><ele>1042.142857142857</ele><time>2026-05-02T11:37:27.901Z</time></trkpt><trkpt lat="44.165236524977644" lon="10.442227549282881"><ele>1041.7142857142858</ele><time>2026-05-02T11:37:28.901Z</time></trkpt><trkpt lat="44.16530399754744" lon="10.442202298236854"><ele>1041.2857142857142</ele><time>2026-05-02T11:37:29.901Z</time></trkpt><trkpt lat="44.16537452480141" lon="10.442222279746634"><ele>1040.857142857143</ele><time>2026-05-02T11:37:30.901Z</time></trkpt><trkpt lat="44.165441696997945" lon="10.442215682927747"><ele>1040.4285714285716</ele><time>2026-05-02T11:37:31.901Z</time></trkpt><trkpt lat="44.165513384378485" lon="10.442214317586618"><ele>1040.0</ele><time>2026-05-02T11:37:32.901Z</time></trkpt><trkpt lat="44.16557804600086" lon="10.442220036395383"><ele>1040.0000000000002</ele><time>2026-05-02T11:37:33.901Z</time></trkpt><trkpt lat="44.16563842065425" lon="10.442268265308373"><ele>1040.0</ele><time>2026-05-02T11:37:34.901Z</time></trkpt><trkpt lat="44.165690946813086" lon="10.442353862686344"><ele>1040.0</ele><time>2026-05-02T11:37:35.901Z</time></trkpt><trkpt lat="44.16571535301159" lon="10.442451362522203"><ele>1040.0</ele><time>2026-05-02T11:37:36.901Z</time></trkpt><trkpt lat="44.16570733152644" lon="10.442542493601339"><ele>1040.0</ele><time>2026-05-02T11:37:37.901Z</time></trkpt><trkpt lat="44.165669800419515" lon="10.442631367653878"><ele>1040.0000000000002</ele><time>2026-05-02T11:37:38.901Z</time></trkpt><trkpt lat="44.16563876939377" lon="10.442724806557663"><ele>1040.0</ele><time>2026-05-02T11:37:39.901Z</time></trkpt><trkpt lat="44.165607482093954" lon="10.44282646366516"><ele>1040.0</ele><time>2026-05-02T11:37:40.901Z</time></trkpt><trkpt lat="44.165567069464856" lon="10.44291968630353"><ele>1040.0</ele><time>2026-05-02T11:37:41.901Z</time></trkpt><trkpt lat="44.1655285077155" lon="10.4430199710003"><ele>1040.0</ele><time>2026-05-02T11:37:42.901Z</time></trkpt><trkpt lat="44.16549065101774" lon="10.443125702675292"><ele>1040.0</ele><time>2026-05-02T11:37:43.901Z</time></trkpt><trkpt lat="44.16545293011885" lon="10.44323796607299"><ele>1040.0</ele><time>2026-05-02T11:37:44.901Z</time></trkpt><trkpt lat="44.16541432695612" lon="10.443351710628367"><ele>1040.0</ele><time>2026-05-02T11:37:45.901Z</time></trkpt><trkpt lat="44.16538690834014" lon="10.443466801914816"><ele>1044.6666666666667</ele><time>2026-05-02T11:37:46.901Z</time></trkpt><trkpt lat="44.16536045811206" lon="10.443582270183542"><ele>1049.3333333333335</ele><time>2026-05-02T11:37:47.901Z</time></trkpt><trkpt lat="44.16535815336863" lon="10.443701923628886"><ele>1054.0</ele><time>2026-05-02T11:37:48.901Z</time></trkpt><trkpt lat="44.16535815337014" lon="10.44381122952237"><ele>1058.6666666666667</ele><time>2026-05-02T11:37:49.901Z</time></trkpt><trkpt lat="44.16536132722394" lon="10.443921121748625"><ele>1063.3333333333333</ele><time>2026-05-02T11:37:50.901Z</time></trkpt><trkpt lat="44.16536508551245" lon="10.44404026422442"><ele>1068.0</ele><time>2026-05-02T11:37:51.901Z</time></trkpt><trkpt lat="44.1653749830319" lon="10.444158632534327"><ele>1069.3333333333333</ele><time>2026-05-02T11:37:52.901Z</time></trkpt><trkpt lat="44.16537887874724" lon="10.444283960420982"><ele>1070.6666666666667</ele><time>2026-05-02T11:37:53.901Z</time></trkpt><trkpt lat="44.16538124604153" lon="10.444409414840141"><ele>1072.0</ele><time>2026-05-02T11:37:54.901Z</time></trkpt><trkpt lat="44.165385098279714" lon="10.444533458539407"><ele>1073.3333333333335</ele><time>2026-05-02T11:37:55.901Z</time></trkpt><trkpt lat="44.165392782819545" lon="10.444649837021913"><ele>1074.6666666666667</ele><time>2026-05-02T11:37:56.901Z</time></trkpt><trkpt lat="44.16539434178095" lon="10.444766788191547"><ele>1076.0</ele><time>2026-05-02T11:37:57.901Z</time></trkpt><trkpt lat="44.165398866851156" lon="10.44488121214502"><ele>1076.1666666666667</ele><time>2026-05-02T11:37:58.901Z</time></trkpt><trkpt lat="44.165401588201966" lon="10.444993911159019"><ele>1076.3333333333335</ele><time>2026-05-02T11:37:59.901Z</time></trkpt><trkpt lat="44.16540042928799" lon="10.445109706510815"><ele>1076.5</ele><time>2026-05-02T11:38:00.901Z</time></trkpt><trkpt lat="44.16540104359079" lon="10.445228017440364"><ele>1076.6666666666667</ele><time>2026-05-02T11:38:01.901Z</time></trkpt><trkpt lat="44.16540478254001" lon="10.445343419621397"><ele>1076.8333333333333</ele><time>2026-05-02T11:38:02.901Z</time></trkpt><trkpt lat="44.16540744015267" lon="10.445456800548351"><ele>1077.0</ele><time>2026-05-02T11:38:03.901Z</time></trkpt><trkpt lat="44.16541085308344" lon="10.445564072503236"><ele>1078.1666666666667</ele><time>2026-05-02T11:38:04.901Z</time></trkpt><trkpt lat="44.16541281299711" lon="10.445669951833171"><ele>1079.3333333333333</ele><time>2026-05-02T11:38:05.901Z</time></trkpt><trkpt lat="44.1654035280567" lon="10.445776299825882"><ele>1080.5</ele><time>2026-05-02T11:38:06.901Z</time></trkpt><trkpt lat="44.16539674116067" lon="10.445876938088292"><ele>1081.6666666666665</ele><time>2026-05-02T11:38:07.901Z</time></trkpt><trkpt lat="44.16539284572671" lon="10.445980903278357"><ele>1082.8333333333333</ele><time>2026-05-02T11:38:08.901Z</time></trkpt><trkpt lat="44.165383165191024" lon="10.446088642660847"><ele>1084.0</ele><time>2026-05-02T11:38:09.901Z</time></trkpt><trkpt lat="44.16538417667701" lon="10.446196204989908"><ele>1083.3333333333333</ele><time>2026-05-02T11:38:10.901Z</time></trkpt><trkpt lat="44.16536910869067" lon="10.446311973332962"><ele>1082.6666666666665</ele><time>2026-05-02T11:38:11.901Z</time></trkpt><trkpt lat="44.1653501634918" lon="10.446427859422892"><ele>1082.0</ele><time>2026-05-02T11:38:12.901Z</time></trkpt><trkpt lat="44.165330750716855" lon="10.446545942936728"><ele>1081.3333333333333</ele><time>2026-05-02T11:38:13.901Z</time></trkpt><trkpt lat="44.16530688984044" lon="10.446658120662542"><ele>1080.6666666666667</ele><time>2026-05-02T11:38:14.901Z</time></trkpt><trkpt lat="44.16528804027075" lon="10.44677415248066"><ele>1080.0</ele><time>2026-05-02T11:38:15.901Z</time></trkpt><trkpt lat="44.16526114783259" lon="10.446894890536823"><ele>1080.0</ele><time>2026-05-02T11:38:16.901Z</time></trkpt><trkpt lat="44.16524833253043" lon="10.447017299340422"><ele>1080.0</ele><time>2026-05-02T11:38:17.901Z</time></trkpt><trkpt lat="44.16521462607872" lon="10.447137062231498"><ele>1080.0</ele><time>2026-05-02T11:38:18.901Z</time></trkpt><trkpt lat="44.16519962716984" lon="10.447260525176176"><ele>1080.0</ele><time>2026-05-02T11:38:19.901Z</time></trkpt><trkpt lat="44.165186319488825" lon="10.447391741999366"><ele>1080.0</ele><time>2026-05-02T11:38:20.901Z</time></trkpt><trkpt lat="44.165178647759056" lon="10.44752354575604"><ele>1080.3333333333333</ele><time>2026-05-02T11:38:21.901Z</time></trkpt><trkpt lat="44.16517407734861" lon="10.447653499270448"><ele>1080.6666666666667</ele><time>2026-05-02T11:38:22.901Z</time></trkpt><trkpt lat="44.16517209388736" lon="10.447777912690837"><ele>1081.0</ele><time>2026-05-02T11:38:23.901Z</time></trkpt><trkpt lat="44.16516105909989" lon="10.44790441453353"><ele>1081.3333333333335</ele><time>2026-05-02T11:38:24.901Z</time></trkpt><trkpt lat="44.16516898636143" lon="10.44802283987972"><ele>1081.6666666666667</ele><time>2026-05-02T11:38:25.901Z</time></trkpt><trkpt lat="44.16517615446364" lon="10.448135635644002"><ele>1082.0</ele><time>2026-05-02T11:38:26.901Z</time></trkpt><trkpt lat="44.16517983012607" lon="10.448249201802945"><ele>1081.8333333333335</ele><time>2026-05-02T11:38:27.901Z</time></trkpt><trkpt lat="44.16518093865347" lon="10.448362433718735"><ele>1081.6666666666667</ele><time>2026-05-02T11:38:28.901Z</time></trkpt><trkpt lat="44.16518562701375" lon="10.448475250433376"><ele>1081.5</ele><time>2026-05-02T11:38:29.901Z</time></trkpt><trkpt lat="44.16519466395504" lon="10.448587053649252"><ele>1081.3333333333333</ele><time>2026-05-02T11:38:30.901Z</time></trkpt><trkpt lat="44.16520291730187" lon="10.448698170551713"><ele>1081.1666666666665</ele><time>2026-05-02T11:38:31.901Z</time></trkpt><trkpt lat="44.165211106033034" lon="10.448809456816733"><ele>1081.0</ele><time>2026-05-02T11:38:32.901Z</time></trkpt><trkpt lat="44.165216057438016" lon="10.44891920409244"><ele>1081.0</ele><time>2026-05-02T11:38:33.901Z</time></trkpt><trkpt lat="44.165218623780106" lon="10.449029163037244"><ele>1081.0</ele><time>2026-05-02T11:38:34.901Z</time></trkpt><trkpt lat="44.165220396450664" lon="10.44913720633272"><ele>1081.0</ele><time>2026-05-02T11:38:35.901Z</time></trkpt><trkpt lat="44.16522537392658" lon="10.44924567926984"><ele>1081.0</ele><time>2026-05-02T11:38:36.901Z</time></trkpt><trkpt lat="44.16523443378076" lon="10.449357829134861"><ele>1081.0</ele><time>2026-05-02T11:38:37.901Z</time></trkpt><trkpt lat="44.16524398618211" lon="10.44946797386928"><ele>1081.0</ele><time>2026-05-02T11:38:38.901Z</time></trkpt><trkpt lat="44.16526018834596" lon="10.449581852138117"><ele>1081.5</ele><time>2026-05-02T11:38:39.901Z</time></trkpt><trkpt lat="44.16526151958254" lon="10.449698029510223"><ele>1082.0</ele><time>2026-05-02T11:38:40.901Z</time></trkpt><trkpt lat="44.16528780673196" lon="10.449811012843867"><ele>1082.5</ele><time>2026-05-02T11:38:41.9Z</time></trkpt><trkpt lat="44.16531673582436" lon="10.44992262104207"><ele>1083.0</ele><time>2026-05-02T11:38:42.899Z</time></trkpt><trkpt lat="44.165347232446244" lon="10.45003254581525"><ele>1083.5</ele><time>2026-05-02T11:38:43.899Z</time></trkpt><trkpt lat="44.1653795548141" lon="10.450145166408724"><ele>1084.0</ele><time>2026-05-02T11:38:44.899Z</time></trkpt><trkpt lat="44.16541065740387" lon="10.450253615839047"><ele>1084.0</ele><time>2026-05-02T11:38:45.899Z</time></trkpt><trkpt lat="44.165435146061604" lon="10.450359801729222"><ele>1084.0</ele><time>2026-05-02T11:38:46.899Z</time></trkpt><trkpt lat="44.165460637663934" lon="10.450469541267712"><ele>1084.0</ele><time>2026-05-02T11:38:47.899Z</time></trkpt><trkpt lat="44.16547979949125" lon="10.450578389799375"><ele>1084.0</ele><time>2026-05-02T11:38:48.898Z</time></trkpt><trkpt lat="44.16550183672628" lon="10.450687571043515"><ele>1084.0</ele><time>2026-05-02T11:38:49.898Z</time></trkpt><trkpt lat="44.16552127685863" lon="10.450800709525623"><ele>1084.0</ele><time>2026-05-02T11:38:50.899Z</time></trkpt><trkpt lat="44.165542472219535" lon="10.450914369683884"><ele>1084.8333333333333</ele><time>2026-05-02T11:38:51.899Z</time></trkpt><trkpt lat="44.165564252727386" lon="10.451025778084482"><ele>1085.6666666666665</ele><time>2026-05-02T11:38:52.899Z</time></trkpt><trkpt lat="44.16558676016821" lon="10.451133959217286"><ele>1086.5</ele><time>2026-05-02T11:38:53.899Z</time></trkpt><trkpt lat="44.165589177257786" lon="10.451249147388294"><ele>1087.3333333333333</ele><time>2026-05-02T11:38:54.899Z</time></trkpt><trkpt lat="44.165606208313356" lon="10.451360173711365"><ele>1088.1666666666667</ele><time>2026-05-02T11:38:55.899Z</time></trkpt><trkpt lat="44.165626975977496" lon="10.45147117807712"><ele>1089.0</ele><time>2026-05-02T11:38:56.899Z</time></trkpt><trkpt lat="44.16564354358652" lon="10.451581492062322"><ele>1089.0</ele><time>2026-05-02T11:38:57.899Z</time></trkpt><trkpt lat="44.1656605051522" lon="10.451694469681321"><ele>1089.0</ele><time>2026-05-02T11:38:58.899Z</time></trkpt><trkpt lat="44.165674853154755" lon="10.451810562834293"><ele>1089.0</ele><time>2026-05-02T11:38:59.899Z</time></trkpt><trkpt lat="44.16567968430792" lon="10.451925211261486"><ele>1089.0</ele><time>2026-05-02T11:39:00.899Z</time></trkpt><trkpt lat="44.16570245232353" lon="10.45203698919845"><ele>1089.0</ele><time>2026-05-02T11:39:01.899Z</time></trkpt><trkpt lat="44.16573337073295" lon="10.452145875166499"><ele>1089.0</ele><time>2026-05-02T11:39:02.899Z</time></trkpt><trkpt lat="44.16577270394211" lon="10.452246864630142"><ele>1093.6000000000001</ele><time>2026-05-02T11:39:03.899Z</time></trkpt><trkpt lat="44.16581852384336" lon="10.45235579196636"><ele>1098.2</ele><time>2026-05-02T11:39:04.899Z</time></trkpt><trkpt lat="44.16585016021364" lon="10.452477941562705"><ele>1102.8000000000002</ele><time>2026-05-02T11:39:05.899Z</time></trkpt><trkpt lat="44.16589249966593" lon="10.452593781040788"><ele>1107.4</ele><time>2026-05-02T11:39:06.899Z</time></trkpt><trkpt lat="44.16593303892119" lon="10.452703554572523"><ele>1112.0</ele><time>2026-05-02T11:39:07.899Z</time></trkpt><trkpt lat="44.1659770465115" lon="10.452816673379855"><ele>1112.0</ele><time>2026-05-02T11:39:08.899Z</time></trkpt><trkpt lat="44.166036642236016" lon="10.452925053619177"><ele>1112.0</ele><time>2026-05-02T11:39:09.899Z</time></trkpt><trkpt lat="44.16611839492702" lon="10.453003976058008"><ele>1112.0</ele><time>2026-05-02T11:39:10.899Z</time></trkpt><trkpt lat="44.16620387468211" lon="10.453050022195814"><ele>1112.0</ele><time>2026-05-02T11:39:11.899Z</time></trkpt><trkpt lat="44.16630440425217" lon="10.453053478308501"><ele>1112.0</ele><time>2026-05-02T11:39:12.899Z</time></trkpt><trkpt lat="44.16639433626934" lon="10.453022847445641"><ele>1113.2</ele><time>2026-05-02T11:39:13.899Z</time></trkpt><trkpt lat="44.166484265616305" lon="10.45299023396269"><ele>1114.4</ele><time>2026-05-02T11:39:14.899Z</time></trkpt><trkpt lat="44.16657376081725" lon="10.452957227367463"><ele>1115.6</ele><time>2026-05-02T11:39:15.899Z</time></trkpt><trkpt lat="44.166665860041135" lon="10.45292344435699"><ele>1116.8</ele><time>2026-05-02T11:39:16.899Z</time></trkpt><trkpt lat="44.166752155441685" lon="10.452892832617339"><ele>1118.0</ele><time>2026-05-02T11:39:17.899Z</time></trkpt><trkpt lat="44.16683671269325" lon="10.452864699088819"><ele>1118.0</ele><time>2026-05-02T11:39:18.899Z</time></trkpt><trkpt lat="44.16692560605871" lon="10.452841170705609"><ele>1118.0</ele><time>2026-05-02T11:39:19.899Z</time></trkpt><trkpt lat="44.167010585062414" lon="10.452843193644421"><ele>1118.0</ele><time>2026-05-02T11:39:20.899Z</time></trkpt><trkpt lat="44.16709670339167" lon="10.452854973114563"><ele>1118.0</ele><time>2026-05-02T11:39:21.899Z</time></trkpt><trkpt lat="44.167183188267934" lon="10.452868145274088"><ele>1118.0</ele><time>2026-05-02T11:39:22.899Z</time></trkpt><trkpt lat="44.167270299135545" lon="10.45288141273639"><ele>1118.0</ele><time>2026-05-02T11:39:23.899Z</time></trkpt><trkpt lat="44.167358390349804" lon="10.452896190411998"><ele>1118.8</ele><time>2026-05-02T11:39:24.899Z</time></trkpt><trkpt lat="44.167445220610865" lon="10.452911152422766"><ele>1119.6</ele><time>2026-05-02T11:39:25.899Z</time></trkpt><trkpt lat="44.167532439921686" lon="10.452929354167932"><ele>1120.4</ele><time>2026-05-02T11:39:26.899Z</time></trkpt><trkpt lat="44.16761977755437" lon="10.452957445432373"><ele>1121.2</ele><time>2026-05-02T11:39:27.899Z</time></trkpt><trkpt lat="44.16771197368055" lon="10.452997631890646"><ele>1122.0</ele><time>2026-05-02T11:39:28.899Z</time></trkpt><trkpt lat="44.16779987272805" lon="10.453042630241569"><ele>1124.2</ele><time>2026-05-02T11:39:29.899Z</time></trkpt><trkpt lat="44.16788878066366" lon="10.453072460299582"><ele>1126.4</ele><time>2026-05-02T11:39:30.899Z</time></trkpt><trkpt lat="44.16796740449145" lon="10.453126389736386"><ele>1128.6</ele><time>2026-05-02T11:39:31.899Z</time></trkpt><trkpt lat="44.16805332460635" lon="10.453177809529913"><ele>1130.8</ele><time>2026-05-02T11:39:32.899Z</time></trkpt><trkpt lat="44.16813957174912" lon="10.453227578205263"><ele>1133.0</ele><time>2026-05-02T11:39:33.899Z</time></trkpt><trkpt lat="44.168227026492346" lon="10.453281103767829"><ele>1133.0</ele><time>2026-05-02T11:39:34.899Z</time></trkpt><trkpt lat="44.168311601409414" lon="10.453337914061736"><ele>1133.0</ele><time>2026-05-02T11:39:35.899Z</time></trkpt><trkpt lat="44.1684009183008" lon="10.45338485681085"><ele>1133.0</ele><time>2026-05-02T11:39:36.899Z</time></trkpt><trkpt lat="44.16848791482646" lon="10.453445426889848"><ele>1133.0</ele><time>2026-05-02T11:39:37.899Z</time></trkpt><trkpt lat="44.1685794730288" lon="10.45350181265299"><ele>1133.0</ele><time>2026-05-02T11:39:38.899Z</time></trkpt><trkpt lat="44.16866559033818" lon="10.453573447562276"><ele>1133.0</ele><time>2026-05-02T11:39:39.899Z</time></trkpt><trkpt lat="44.16874915617761" lon="10.453657005226898"><ele>1133.0</ele><time>2026-05-02T11:39:40.899Z</time></trkpt><trkpt lat="44.168820144007455" lon="10.453734543580168"><ele>1133.0</ele><time>2026-05-02T11:39:41.899Z</time></trkpt><trkpt lat="44.16888769531599" lon="10.453807397255964"><ele>1133.0</ele><time>2026-05-02T11:39:42.899Z</time></trkpt><trkpt lat="44.168949110048786" lon="10.453887504440027"><ele>1133.0</ele><time>2026-05-02T11:39:43.899Z</time></trkpt><trkpt lat="44.169006856700015" lon="10.45396092650655"><ele>1133.0</ele><time>2026-05-02T11:39:44.899Z</time></trkpt><trkpt lat="44.1690660916497" lon="10.454029207509379"><ele>1134.1666666666667</ele><time>2026-05-02T11:39:45.899Z</time></trkpt><trkpt lat="44.16911863675556" lon="10.454104690342716"><ele>1135.3333333333335</ele><time>2026-05-02T11:39:46.899Z</time></trkpt><trkpt lat="44.169191753709505" lon="10.454154815164708"><ele>1136.5</ele><time>2026-05-02T11:39:47.899Z</time></trkpt><trkpt lat="44.16926146833293" lon="10.454222881227434"><ele>1137.6666666666667</ele><time>2026-05-02T11:39:48.899Z</time></trkpt><trkpt lat="44.16934020120794" lon="10.454270390997781"><ele>1138.8333333333333</ele><time>2026-05-02T11:39:49.899Z</time></trkpt><trkpt lat="44.1694133896744" lon="10.45431957183961"><ele>1140.0</ele><time>2026-05-02T11:39:50.899Z</time></trkpt><trkpt lat="44.16949522499129" lon="10.454366929293702"><ele>1140.0</ele><time>2026-05-02T11:39:51.899Z</time></trkpt><trkpt lat="44.169560966464786" lon="10.454444139627032"><ele>1140.0</ele><time>2026-05-02T11:39:52.899Z</time></trkpt><trkpt lat="44.16964004251042" lon="10.454500557428213"><ele>1140.0</ele><time>2026-05-02T11:39:53.899Z</time></trkpt><trkpt lat="44.16972343234145" lon="10.454530478783104"><ele>1140.0</ele><time>2026-05-02T11:39:54.899Z</time></trkpt><trkpt lat="44.169806126677" lon="10.454545549101542"><ele>1140.0</ele><time>2026-05-02T11:39:55.899Z</time></trkpt><trkpt lat="44.1698880869253" lon="10.454562739020695"><ele>1140.0</ele><time>2026-05-02T11:39:56.899Z</time></trkpt><trkpt lat="44.16997920257231" lon="10.454569794002794"><ele>1139.2</ele><time>2026-05-02T11:39:57.899Z</time></trkpt><trkpt lat="44.17005686006432" lon="10.454637426547446"><ele>1138.4</ele><time>2026-05-02T11:39:58.9Z</time></trkpt><trkpt lat="44.17013930676007" lon="10.45469177471486"><ele>1137.6</ele><time>2026-05-02T11:39:59.9Z</time></trkpt><trkpt lat="44.17023315859134" lon="10.454729275130545"><ele>1136.8</ele><time>2026-05-02T11:40:00.9Z</time></trkpt><trkpt lat="44.17031543379028" lon="10.454784386402789"><ele>1136.0</ele><time>2026-05-02T11:40:01.9Z</time></trkpt><trkpt lat="44.170403318389745" lon="10.454830536277512"><ele>1136.0</ele><time>2026-05-02T11:40:02.9Z</time></trkpt><trkpt lat="44.170486784494415" lon="10.454881226202758"><ele>1136.0</ele><time>2026-05-02T11:40:03.9Z</time></trkpt><trkpt lat="44.17057775949698" lon="10.454890170221997"><ele>1136.0</ele><time>2026-05-02T11:40:04.9Z</time></trkpt><trkpt lat="44.17066324184402" lon="10.454887215949052"><ele>1136.0</ele><time>2026-05-02T11:40:05.9Z</time></trkpt><trkpt lat="44.17074755033886" lon="10.454866045422042"><ele>1136.0</ele><time>2026-05-02T11:40:06.9Z</time></trkpt><trkpt lat="44.17083064377979" lon="10.454874019437554"><ele>1136.0</ele><time>2026-05-02T11:40:07.9Z</time></trkpt><trkpt lat="44.17091051511212" lon="10.45489291384997"><ele>1139.6666666666667</ele><time>2026-05-02T11:40:08.9Z</time></trkpt><trkpt lat="44.17097977697781" lon="10.454934657891183"><ele>1143.3333333333335</ele><time>2026-05-02T11:40:09.9Z</time></trkpt><trkpt lat="44.17106025783747" lon="10.45495511500447"><ele>1147.0</ele><time>2026-05-02T11:40:10.9Z</time></trkpt><trkpt lat="44.171148979151624" lon="10.454954119396886"><ele>1150.6666666666667</ele><time>2026-05-02T11:40:11.9Z</time></trkpt><trkpt lat="44.17122787812737" lon="10.454922543752062"><ele>1154.3333333333333</ele><time>2026-05-02T11:40:12.9Z</time></trkpt><trkpt lat="44.171297002791725" lon="10.454894361299537"><ele>1158.0</ele><time>2026-05-02T11:40:13.9Z</time></trkpt><trkpt lat="44.17136315327969" lon="10.454850384427887"><ele>1158.0</ele><time>2026-05-02T11:40:14.9Z</time></trkpt><trkpt lat="44.171434001224355" lon="10.454844458596954"><ele>1158.0</ele><time>2026-05-02T11:40:15.9Z</time></trkpt><trkpt lat="44.17150458264774" lon="10.454860883358847"><ele>1158.0</ele><time>2026-05-02T11:40:16.9Z</time></trkpt><trkpt lat="44.171586162446566" lon="10.454903491847752"><ele>1158.0</ele><time>2026-05-02T11:40:17.9Z</time></trkpt><trkpt lat="44.1716599134894" lon="10.454952884353924"><ele>1158.0</ele><time>2026-05-02T11:40:18.9Z</time></trkpt><trkpt lat="44.17172741759639" lon="10.455011115121014"><ele>1158.0</ele><time>2026-05-02T11:40:19.9Z</time></trkpt><trkpt lat="44.17180174980725" lon="10.455071594285174"><ele>1161.0</ele><time>2026-05-02T11:40:20.9Z</time></trkpt><trkpt lat="44.17187224255551" lon="10.455133646910104"><ele>1164.0</ele><time>2026-05-02T11:40:21.9Z</time></trkpt><trkpt lat="44.17194408289019" lon="10.455193214662561"><ele>1167.0</ele><time>2026-05-02T11:40:22.9Z</time></trkpt><trkpt lat="44.172017933604614" lon="10.455248770517551"><ele>1170.0</ele><time>2026-05-02T11:40:23.9Z</time></trkpt><trkpt lat="44.17208762102777" lon="10.455304834907803"><ele>1173.0</ele><time>2026-05-02T11:40:24.9Z</time></trkpt><trkpt lat="44.17215833314607" lon="10.455360459087677"><ele>1176.0</ele><time>2026-05-02T11:40:25.9Z</time></trkpt><trkpt lat="44.17222121104145" lon="10.455414164867896"><ele>1175.3333333333333</ele><time>2026-05-02T11:40:26.9Z</time></trkpt><trkpt lat="44.17228660119741" lon="10.455475422868345"><ele>1174.6666666666667</ele><time>2026-05-02T11:40:27.9Z</time></trkpt><trkpt lat="44.172357302393074" lon="10.455536838169241"><ele>1174.0</ele><time>2026-05-02T11:40:28.9Z</time></trkpt><trkpt lat="44.172430801810954" lon="10.455597548604388"><ele>1173.3333333333335</ele><time>2026-05-02T11:40:29.9Z</time></trkpt><trkpt lat="44.17250516057779" lon="10.455655520643388"><ele>1172.6666666666667</ele><time>2026-05-02T11:40:30.9Z</time></trkpt><trkpt lat="44.172580372476055" lon="10.45570243282742"><ele>1172.0</ele><time>2026-05-02T11:40:31.9Z</time></trkpt><trkpt lat="44.17266087384031" lon="10.455738594821392"><ele>1172.0</ele><time>2026-05-02T11:40:32.9Z</time></trkpt><trkpt lat="44.17274258457058" lon="10.45576529033141"><ele>1172.0</ele><time>2026-05-02T11:40:33.9Z</time></trkpt><trkpt lat="44.17282356700646" lon="10.45579678083576"><ele>1172.0</ele><time>2026-05-02T11:40:34.9Z</time></trkpt><trkpt lat="44.172909649877404" lon="10.455826477582763"><ele>1172.0</ele><time>2026-05-02T11:40:35.9Z</time></trkpt><trkpt lat="44.17299385975364" lon="10.455865925279829"><ele>1172.0</ele><time>2026-05-02T11:40:36.9Z</time></trkpt><trkpt lat="44.173089524899254" lon="10.455892726172888"><ele>1172.0</ele><time>2026-05-02T11:40:37.9Z</time></trkpt><trkpt lat="44.173182601380226" lon="10.455935447202753"><ele>1171.2</ele><time>2026-05-02T11:40:38.9Z</time></trkpt><trkpt lat="44.17326986963772" lon="10.456010832817014"><ele>1170.4</ele><time>2026-05-02T11:40:39.9Z</time></trkpt><trkpt lat="44.17335457674526" lon="10.45609069137616"><ele>1169.6</ele><time>2026-05-02T11:40:40.9Z</time></trkpt><trkpt lat="44.173441610956395" lon="10.456162258920047"><ele>1168.8</ele><time>2026-05-02T11:40:41.9Z</time></trkpt><trkpt lat="44.17352601520388" lon="10.456241504178378"><ele>1168.0</ele><time>2026-05-02T11:40:42.9Z</time></trkpt><trkpt lat="44.17360773174944" lon="10.456312969235485"><ele>1168.0</ele><time>2026-05-02T11:40:43.9Z</time></trkpt><trkpt lat="44.17369591957712" lon="10.456386813358828"><ele>1168.0</ele><time>2026-05-02T11:40:44.9Z</time></trkpt><trkpt lat="44.173774896318996" lon="10.456460035276212"><ele>1168.0</ele><time>2026-05-02T11:40:45.9Z</time></trkpt><trkpt lat="44.173853353136685" lon="10.456547491646804"><ele>1168.0</ele><time>2026-05-02T11:40:46.9Z</time></trkpt><trkpt lat="44.17392529398518" lon="10.45665964514676"><ele>1168.0</ele><time>2026-05-02T11:40:47.898Z</time></trkpt><trkpt lat="44.17399915139983" lon="10.456759794279584"><ele>1171.4</ele><time>2026-05-02T11:40:48.899Z</time></trkpt><trkpt lat="44.17407342229264" lon="10.456848565530281"><ele>1174.8</ele><time>2026-05-02T11:40:49.899Z</time></trkpt><trkpt lat="44.17414826451314" lon="10.456929681374323"><ele>1178.2</ele><time>2026-05-02T11:40:50.898Z</time></trkpt><trkpt lat="44.17422156942239" lon="10.457015644311062"><ele>1181.6</ele><time>2026-05-02T11:40:51.898Z</time></trkpt><trkpt lat="44.17429560713206" lon="10.457101265098137"><ele>1185.0</ele><time>2026-05-02T11:40:52.898Z</time></trkpt><trkpt lat="44.17436881060507" lon="10.457191552703303"><ele>1185.0</ele><time>2026-05-02T11:40:53.899Z</time></trkpt><trkpt lat="44.174436842619414" lon="10.457290437947899"><ele>1185.0</ele><time>2026-05-02T11:40:54.898Z</time></trkpt><trkpt lat="44.17449453921183" lon="10.457393757215712"><ele>1185.0</ele><time>2026-05-02T11:40:55.898Z</time></trkpt><trkpt lat="44.17454385806949" lon="10.457505248227468"><ele>1185.0</ele><time>2026-05-02T11:40:56.898Z</time></trkpt><trkpt lat="44.17459687499845" lon="10.457609968624695"><ele>1185.0</ele><time>2026-05-02T11:40:57.898Z</time></trkpt><trkpt lat="44.17464687493458" lon="10.457719441992902"><ele>1185.0</ele><time>2026-05-02T11:40:58.898Z</time></trkpt><trkpt lat="44.17469212878561" lon="10.457842222880124"><ele>1185.0</ele><time>2026-05-02T11:40:59.898Z</time></trkpt><trkpt lat="44.17473266311939" lon="10.457968083668282"><ele>1185.0</ele><time>2026-05-02T11:41:00.898Z</time></trkpt><trkpt lat="44.174771734506486" lon="10.45809099823574"><ele>1185.0</ele><time>2026-05-02T11:41:01.898Z</time></trkpt><trkpt lat="44.17480487004588" lon="10.458201221385131"><ele>1185.0</ele><time>2026-05-02T11:41:02.898Z</time></trkpt><trkpt lat="44.17482873715781" lon="10.458317074454405"><ele>1182.3333333333333</ele><time>2026-05-02T11:41:03.898Z</time></trkpt><trkpt lat="44.174852925126046" lon="10.45842894306473"><ele>1179.6666666666667</ele><time>2026-05-02T11:41:04.898Z</time></trkpt><trkpt lat="44.17487701074343" lon="10.458547798604672"><ele>1177.0</ele><time>2026-05-02T11:41:05.898Z</time></trkpt><trkpt lat="44.1748991875984" lon="10.458668068120263"><ele>1174.3333333333335</ele><time>2026-05-02T11:41:06.898Z</time></trkpt><trkpt lat="44.174932181195956" lon="10.458788192315428"><ele>1171.6666666666667</ele><time>2026-05-02T11:41:07.898Z</time></trkpt><trkpt lat="44.17497285738071" lon="10.458905525701763"><ele>1169.0</ele><time>2026-05-02T11:41:08.898Z</time></trkpt><trkpt lat="44.17503288329095" lon="10.459006867864924"><ele>1179.0</ele><time>2026-05-02T11:41:09.898Z</time></trkpt><trkpt lat="44.175100366321914" lon="10.45911038360774"><ele>1189.0</ele><time>2026-05-02T11:41:10.898Z</time></trkpt><trkpt lat="44.17517335372168" lon="10.45925146204245"><ele>1199.0</ele><time>2026-05-02T11:41:11.898Z</time></trkpt><trkpt lat="44.17522768576488" lon="10.459396574509633"><ele>1209.0</ele><time>2026-05-02T11:41:12.898Z</time></trkpt><trkpt lat="44.17527475922531" lon="10.459537556341298"><ele>1205.0</ele><time>2026-05-02T11:41:13.898Z</time></trkpt><trkpt lat="44.17531538218881" lon="10.459676429751232"><ele>1201.0</ele><time>2026-05-02T11:41:14.898Z</time></trkpt><trkpt lat="44.17535627111328" lon="10.459812645791933"><ele>1197.0</ele><time>2026-05-02T11:41:15.898Z</time></trkpt><trkpt lat="44.1753994233575" lon="10.459941232876735"><ele>1193.0</ele><time>2026-05-02T11:41:16.898Z</time></trkpt><trkpt lat="44.175439950850006" lon="10.460066389358527"><ele>1189.0</ele><time>2026-05-02T11:41:17.898Z</time></trkpt><trkpt lat="44.17546318105029" lon="10.460197833076426"><ele>1189.0</ele><time>2026-05-02T11:41:18.898Z</time></trkpt><trkpt lat="44.17546616325239" lon="10.460304766556126"><ele>1189.0</ele><time>2026-05-02T11:41:19.898Z</time></trkpt><trkpt lat="44.17544577369609" lon="10.460406746391103"><ele>1189.0</ele><time>2026-05-02T11:41:20.898Z</time></trkpt><trkpt lat="44.17541138581981" lon="10.460520435454931"><ele>1189.0</ele><time>2026-05-02T11:41:21.898Z</time></trkpt><trkpt lat="44.175383418834784" lon="10.46063502322124"><ele>1189.0</ele><time>2026-05-02T11:41:22.898Z</time></trkpt><trkpt lat="44.175351821311196" lon="10.46075235360084"><ele>1189.0</ele><time>2026-05-02T11:41:23.898Z</time></trkpt><trkpt lat="44.175330139304094" lon="10.460872469779266"><ele>1189.0</ele><time>2026-05-02T11:41:24.898Z</time></trkpt><trkpt lat="44.17531664853529" lon="10.461000574528283"><ele>1189.0</ele><time>2026-05-02T11:41:25.898Z</time></trkpt><trkpt lat="44.175329068186514" lon="10.461124918783225"><ele>1189.0</ele><time>2026-05-02T11:41:26.898Z</time></trkpt><trkpt lat="44.1753432897017" lon="10.461243930131282"><ele>1189.0</ele><time>2026-05-02T11:41:27.898Z</time></trkpt><trkpt lat="44.17535445684346" lon="10.461359865608085"><ele>1189.0</ele><time>2026-05-02T11:41:28.898Z</time></trkpt><trkpt lat="44.175385066731764" lon="10.46145418383994"><ele>1189.0</ele><time>2026-05-02T11:41:29.898Z</time></trkpt><trkpt lat="44.17544193527966" lon="10.461505169332083"><ele>1189.0</ele><time>2026-05-02T11:41:30.898Z</time></trkpt><trkpt lat="44.175520521505526" lon="10.46151591269366"><ele>1189.0</ele><time>2026-05-02T11:41:31.898Z</time></trkpt><trkpt lat="44.17561185079491" lon="10.461511634352524"><ele>1189.0</ele><time>2026-05-02T11:41:32.898Z</time></trkpt><trkpt lat="44.17570776112082" lon="10.461513955450172"><ele>1189.0</ele><time>2026-05-02T11:41:33.898Z</time></trkpt><trkpt lat="44.175806265870314" lon="10.461542363409635"><ele>1189.0</ele><time>2026-05-02T11:41:34.898Z</time></trkpt><trkpt lat="44.17590578871303" lon="10.46155098716652"><ele>1191.4</ele><time>2026-05-02T11:41:35.898Z</time></trkpt><trkpt lat="44.17600991975675" lon="10.461553760277846"><ele>1193.8000000000002</ele><time>2026-05-02T11:41:36.898Z</time></trkpt><trkpt lat="44.17611477084347" lon="10.461555212993126"><ele>1196.1999999999998</ele><time>2026-05-02T11:41:37.898Z</time></trkpt><trkpt lat="44.17621914870046" lon="10.461540342911206"><ele>1198.6</ele><time>2026-05-02T11:41:38.898Z</time></trkpt><trkpt lat="44.1763176817035" lon="10.46152420633033"><ele>1201.0</ele><time>2026-05-02T11:41:39.898Z</time></trkpt><trkpt lat="44.176417840479935" lon="10.46150297119955"><ele>1201.0</ele><time>2026-05-02T11:41:40.899Z</time></trkpt><trkpt lat="44.17651636410794" lon="10.461488287143872"><ele>1201.0</ele><time>2026-05-02T11:41:41.899Z</time></trkpt><trkpt lat="44.176614271831816" lon="10.461484523709547"><ele>1201.0</ele><time>2026-05-02T11:41:42.899Z</time></trkpt><trkpt lat="44.176708525181596" lon="10.461477721850656"><ele>1201.0</ele><time>2026-05-02T11:41:43.899Z</time></trkpt><trkpt lat="44.17679180156087" lon="10.461474208535767"><ele>1201.0</ele><time>2026-05-02T11:41:44.899Z</time></trkpt><trkpt lat="44.17688415094633" lon="10.461472910610803"><ele>1200.8</ele><time>2026-05-02T11:41:45.899Z</time></trkpt><trkpt lat="44.17698199691569" lon="10.461470465256982"><ele>1200.6</ele><time>2026-05-02T11:41:46.899Z</time></trkpt><trkpt lat="44.177081823762315" lon="10.461462967334434"><ele>1200.4</ele><time>2026-05-02T11:41:47.899Z</time></trkpt><trkpt lat="44.1771864068874" lon="10.461451278885608"><ele>1200.2</ele><time>2026-05-02T11:41:48.899Z</time></trkpt><trkpt lat="44.17728512976064" lon="10.4614604957383"><ele>1200.0</ele><time>2026-05-02T11:41:49.899Z</time></trkpt><trkpt lat="44.17738529854925" lon="10.461493742574485"><ele>1197.4</ele><time>2026-05-02T11:41:50.899Z</time></trkpt><trkpt lat="44.17748751846919" lon="10.461540634854392"><ele>1194.8</ele><time>2026-05-02T11:41:51.899Z</time></trkpt><trkpt lat="44.177586989937076" lon="10.461595285067515"><ele>1192.2</ele><time>2026-05-02T11:41:52.899Z</time></trkpt><trkpt lat="44.17768622451296" lon="10.461654077815224"><ele>1189.6</ele><time>2026-05-02T11:41:53.899Z</time></trkpt><trkpt lat="44.17778381321997" lon="10.461701946473434"><ele>1187.0</ele><time>2026-05-02T11:41:54.899Z</time></trkpt><trkpt lat="44.177883451423746" lon="10.461752345605591"><ele>1187.0</ele><time>2026-05-02T11:41:55.899Z</time></trkpt><trkpt lat="44.17797768895274" lon="10.461806403889867"><ele>1187.0</ele><time>2026-05-02T11:41:56.899Z</time></trkpt><trkpt lat="44.178069560855754" lon="10.461854679432326"><ele>1187.0</ele><time>2026-05-02T11:41:57.899Z</time></trkpt><trkpt lat="44.17815947606881" lon="10.461913539125268"><ele>1187.0</ele><time>2026-05-02T11:41:58.899Z</time></trkpt><trkpt lat="44.17824809791844" lon="10.461974009219366"><ele>1187.0</ele><time>2026-05-02T11:41:59.899Z</time></trkpt><trkpt lat="44.17833638227787" lon="10.462040024311833"><ele>1186.8</ele><time>2026-05-02T11:42:00.899Z</time></trkpt><trkpt lat="44.178417233135015" lon="10.462105251134902"><ele>1186.6</ele><time>2026-05-02T11:42:01.899Z</time></trkpt><trkpt lat="44.178485824098935" lon="10.462187938646803"><ele>1186.3999999999999</ele><time>2026-05-02T11:42:02.899Z</time></trkpt><trkpt lat="44.1785411054094" lon="10.462294973722944"><ele>1186.2</ele><time>2026-05-02T11:42:03.899Z</time></trkpt><trkpt lat="44.17858069871197" lon="10.462412796932554"><ele>1186.0</ele><time>2026-05-02T11:42:04.899Z</time></trkpt><trkpt lat="44.17861115799407" lon="10.462530075311697"><ele>1184.3999999999999</ele><time>2026-05-02T11:42:05.899Z</time></trkpt><trkpt lat="44.17864144166502" lon="10.462642307778884"><ele>1182.8</ele><time>2026-05-02T11:42:06.899Z</time></trkpt><trkpt lat="44.17868748086306" lon="10.46274266028105"><ele>1181.1999999999998</ele><time>2026-05-02T11:42:07.899Z</time></trkpt><trkpt lat="44.17874945945109" lon="10.462835716718978"><ele>1179.6</ele><time>2026-05-02T11:42:08.899Z</time></trkpt><trkpt lat="44.17881938431262" lon="10.462923204284408"><ele>1178.0</ele><time>2026-05-02T11:42:09.899Z</time></trkpt><trkpt lat="44.17889354387373" lon="10.463005649745504"><ele>1181.8</ele><time>2026-05-02T11:42:10.899Z</time></trkpt><trkpt lat="44.17897002257323" lon="10.463087705852777"><ele>1185.6</ele><time>2026-05-02T11:42:11.899Z</time></trkpt><trkpt lat="44.17904251190007" lon="10.463170819709008"><ele>1189.4</ele><time>2026-05-02T11:42:12.899Z</time></trkpt><trkpt lat="44.179119771985015" lon="10.46325779784293"><ele>1193.2</ele><time>2026-05-02T11:42:13.899Z</time></trkpt><trkpt lat="44.179196960049055" lon="10.463349967753945"><ele>1197.0</ele><time>2026-05-02T11:42:14.899Z</time></trkpt><trkpt lat="44.17924865641628" lon="10.46346914717062"><ele>1197.0</ele><time>2026-05-02T11:42:15.899Z</time></trkpt><trkpt lat="44.179282303452645" lon="10.463585881547512"><ele>1197.0</ele><time>2026-05-02T11:42:16.899Z</time></trkpt><trkpt lat="44.17931332201956" lon="10.463709956828646"><ele>1197.0</ele><time>2026-05-02T11:42:17.899Z</time></trkpt><trkpt lat="44.17934466636358" lon="10.463838648729821"><ele>1197.0</ele><time>2026-05-02T11:42:18.899Z</time></trkpt><trkpt lat="44.179374932273554" lon="10.46396287349726"><ele>1197.0</ele><time>2026-05-02T11:42:19.899Z</time></trkpt><trkpt lat="44.179403313999785" lon="10.464079765624469"><ele>1195.3333333333333</ele><time>2026-05-02T11:42:20.899Z</time></trkpt><trkpt lat="44.179420240828335" lon="10.464198506843875"><ele>1193.6666666666667</ele><time>2026-05-02T11:42:21.899Z</time></trkpt><trkpt lat="44.17941934020423" lon="10.464316443772137"><ele>1192.0</ele><time>2026-05-02T11:42:22.899Z</time></trkpt><trkpt lat="44.17939863544557" lon="10.464429033141947"><ele>1190.3333333333335</ele><time>2026-05-02T11:42:23.899Z</time></trkpt><trkpt lat="44.17937036845171" lon="10.464539094307103"><ele>1188.6666666666667</ele><time>2026-05-02T11:42:24.899Z</time></trkpt><trkpt lat="44.179346000824125" lon="10.464650554109312"><ele>1187.0</ele><time>2026-05-02T11:42:25.899Z</time></trkpt><trkpt lat="44.179331713875435" lon="10.464763437217558"><ele>1187.0</ele><time>2026-05-02T11:42:26.899Z</time></trkpt><trkpt lat="44.179347964398865" lon="10.46489727220156"><ele>1187.0</ele><time>2026-05-02T11:42:27.899Z</time></trkpt><trkpt lat="44.17940490150224" lon="10.465020074812532"><ele>1187.0</ele><time>2026-05-02T11:42:28.899Z</time></trkpt><trkpt lat="44.179488910980645" lon="10.465097926754924"><ele>1187.0</ele><time>2026-05-02T11:42:29.899Z</time></trkpt><trkpt lat="44.179555124150184" lon="10.465196537216759"><ele>1187.0</ele><time>2026-05-02T11:42:30.899Z</time></trkpt><trkpt lat="44.179630212662715" lon="10.465277765912948"><ele>1187.0000000000002</ele><time>2026-05-02T11:42:31.899Z</time></trkpt><trkpt lat="44.17968283623628" lon="10.465371425333025"><ele>1187.0</ele><time>2026-05-02T11:42:32.899Z</time></trkpt><trkpt lat="44.1797291574386" lon="10.465464169221118"><ele>1187.0</ele><time>2026-05-02T11:42:33.899Z</time></trkpt><trkpt lat="44.17977014839241" lon="10.46555601373907"><ele>1187.0</ele><time>2026-05-02T11:42:34.899Z</time></trkpt><trkpt lat="44.17979861260138" lon="10.4656365225147"><ele>1187.0</ele><time>2026-05-02T11:42:35.899Z</time></trkpt><trkpt lat="44.179821297983636" lon="10.465721321291216"><ele>1187.0000000000002</ele><time>2026-05-02T11:42:36.899Z</time></trkpt><trkpt lat="44.179855873932475" lon="10.465809519437874"><ele>1187.0</ele><time>2026-05-02T11:42:37.899Z</time></trkpt><trkpt lat="44.179865073219084" lon="10.465909963038587"><ele>1192.5714285714287</ele><time>2026-05-02T11:42:38.899Z</time></trkpt><trkpt lat="44.17987883775953" lon="10.466010184087198"><ele>1198.142857142857</ele><time>2026-05-02T11:42:39.899Z</time></trkpt><trkpt lat="44.17989252212602" lon="10.466117117601389"><ele>1203.7142857142858</ele><time>2026-05-02T11:42:40.899Z</time></trkpt><trkpt lat="44.17990218374445" lon="10.466222409245225"><ele>1209.2857142857142</ele><time>2026-05-02T11:42:41.899Z</time></trkpt><trkpt lat="44.17990849050692" lon="10.46632855946969"><ele>1214.857142857143</ele><time>2026-05-02T11:42:42.899Z</time></trkpt><trkpt lat="44.17991676702037" lon="10.466428826684297"><ele>1220.4285714285716</ele><time>2026-05-02T11:42:43.899Z</time></trkpt><trkpt lat="44.17991284443889" lon="10.46652713331032"><ele>1226.0</ele><time>2026-05-02T11:42:44.899Z</time></trkpt><trkpt lat="44.179898319057145" lon="10.466624413364563"><ele>1227.0</ele><time>2026-05-02T11:42:45.899Z</time></trkpt><trkpt lat="44.179871794215614" lon="10.466719681209135"><ele>1228.0</ele><time>2026-05-02T11:42:46.899Z</time></trkpt><trkpt lat="44.1798457738748" lon="10.46681804259791"><ele>1229.0</ele><time>2026-05-02T11:42:47.899Z</time></trkpt><trkpt lat="44.17980649120646" lon="10.466909219523432"><ele>1230.0</ele><time>2026-05-02T11:42:48.899Z</time></trkpt><trkpt lat="44.17977067658486" lon="10.467007159111414"><ele>1231.0</ele><time>2026-05-02T11:42:49.899Z</time></trkpt><trkpt lat="44.17973489458793" lon="10.467101343039698"><ele>1232.0</ele><time>2026-05-02T11:42:50.899Z</time></trkpt><trkpt lat="44.17971217137181" lon="10.467211903305431"><ele>1223.4</ele><time>2026-05-02T11:42:51.899Z</time></trkpt><trkpt lat="44.179704955874705" lon="10.467329872170449"><ele>1214.8000000000002</ele><time>2026-05-02T11:42:52.899Z</time></trkpt><trkpt lat="44.17970603041223" lon="10.46745654738124"><ele>1206.2</ele><time>2026-05-02T11:42:53.898Z</time></trkpt><trkpt lat="44.179704658770405" lon="10.4675840884145"><ele>1197.6000000000001</ele><time>2026-05-02T11:42:54.898Z</time></trkpt><trkpt lat="44.17971135219473" lon="10.467712424994682"><ele>1189.0</ele><time>2026-05-02T11:42:55.898Z</time></trkpt><trkpt lat="44.17973752818984" lon="10.467835188665937"><ele>1189.0</ele><time>2026-05-02T11:42:56.897Z</time></trkpt><trkpt lat="44.179776818459686" lon="10.467955099562797"><ele>1189.0</ele><time>2026-05-02T11:42:57.897Z</time></trkpt><trkpt lat="44.17984514234358" lon="10.468058781414287"><ele>1189.0</ele><time>2026-05-02T11:42:58.897Z</time></trkpt><trkpt lat="44.17991446514902" lon="10.468159374509284"><ele>1189.0</ele><time>2026-05-02T11:42:59.897Z</time></trkpt><trkpt lat="44.17998627524644" lon="10.468262862180973"><ele>1189.0</ele><time>2026-05-02T11:43:00.898Z</time></trkpt><trkpt lat="44.180067764667434" lon="10.468348384642253"><ele>1196.0</ele><time>2026-05-02T11:43:01.898Z</time></trkpt><trkpt lat="44.1801341149975" lon="10.468455688251883"><ele>1203.0</ele><time>2026-05-02T11:43:02.898Z</time></trkpt><trkpt lat="44.18020773484965" lon="10.468555022864695"><ele>1210.0</ele><time>2026-05-02T11:43:03.897Z</time></trkpt><trkpt lat="44.180268129317625" lon="10.468661944459754"><ele>1217.0</ele><time>2026-05-02T11:43:04.897Z</time></trkpt><trkpt lat="44.18029583075258" lon="10.468786665183238"><ele>1224.0</ele><time>2026-05-02T11:43:05.897Z</time></trkpt><trkpt lat="44.1803308396729" lon="10.468897328215366"><ele>1224.0</ele><time>2026-05-02T11:43:06.898Z</time></trkpt><trkpt lat="44.18037583838299" lon="10.468994513709735"><ele>1224.0</ele><time>2026-05-02T11:43:07.898Z</time></trkpt><trkpt lat="44.1804077130556" lon="10.469109894755462"><ele>1224.0</ele><time>2026-05-02T11:43:08.898Z</time></trkpt><trkpt lat="44.18043774513544" lon="10.469227503448703"><ele>1224.0</ele><time>2026-05-02T11:43:09.898Z</time></trkpt><trkpt lat="44.180468551511694" lon="10.46934184522608"><ele>1224.0</ele><time>2026-05-02T11:43:10.898Z</time></trkpt><trkpt lat="44.18050251296404" lon="10.469450703688095"><ele>1224.0</ele><time>2026-05-02T11:43:11.898Z</time></trkpt><trkpt lat="44.18055882997287" lon="10.469536368948189"><ele>1224.0</ele><time>2026-05-02T11:43:12.898Z</time></trkpt><trkpt lat="44.18063197313058" lon="10.469595015168206"><ele>1224.0</ele><time>2026-05-02T11:43:13.898Z</time></trkpt><trkpt lat="44.18071383757746" lon="10.469637197695759"><ele>1224.0</ele><time>2026-05-02T11:43:14.898Z</time></trkpt><trkpt lat="44.18080623851385" lon="10.469657840194222"><ele>1224.0</ele><time>2026-05-02T11:43:15.898Z</time></trkpt><trkpt lat="44.180896757923236" lon="10.469681233920193"><ele>1224.0</ele><time>2026-05-02T11:43:16.898Z</time></trkpt><trkpt lat="44.18099006942979" lon="10.46971817041466"><ele>1227.0</ele><time>2026-05-02T11:43:17.898Z</time></trkpt><trkpt lat="44.181085585807324" lon="10.469765577602665"><ele>1230.0</ele><time>2026-05-02T11:43:18.898Z</time></trkpt><trkpt lat="44.18117933647936" lon="10.46982335000138"><ele>1233.0</ele><time>2026-05-02T11:43:19.898Z</time></trkpt><trkpt lat="44.18127468728385" lon="10.469890194021316"><ele>1236.0</ele><time>2026-05-02T11:43:20.898Z</time></trkpt><trkpt lat="44.18136883030919" lon="10.469966626808395"><ele>1239.0</ele><time>2026-05-02T11:43:21.898Z</time></trkpt><trkpt lat="44.18143996869661" lon="10.470071073188002"><ele>1239.0</ele><time>2026-05-02T11:43:22.898Z</time></trkpt><trkpt lat="44.181514776420094" lon="10.47016418825935"><ele>1239.0</ele><time>2026-05-02T11:43:23.898Z</time></trkpt><trkpt lat="44.18157296089333" lon="10.470257885547664"><ele>1239.0</ele><time>2026-05-02T11:43:24.898Z</time></trkpt><trkpt lat="44.181612352329296" lon="10.470357719503749"><ele>1239.0</ele><time>2026-05-02T11:43:25.898Z</time></trkpt><trkpt lat="44.18165058664027" lon="10.470464313352007"><ele>1239.0</ele><time>2026-05-02T11:43:26.898Z</time></trkpt><trkpt lat="44.181694019429045" lon="10.47056775547106"><ele>1239.0</ele><time>2026-05-02T11:43:27.898Z</time></trkpt><trkpt lat="44.18172957133924" lon="10.47067392714956"><ele>1242.6666666666667</ele><time>2026-05-02T11:43:28.898Z</time></trkpt><trkpt lat="44.18176404095666" lon="10.470781111166874"><ele>1246.3333333333333</ele><time>2026-05-02T11:43:29.898Z</time></trkpt><trkpt lat="44.181794132938386" lon="10.470885519218367"><ele>1250.0</ele><time>2026-05-02T11:43:30.898Z</time></trkpt><trkpt lat="44.181809823910285" lon="10.470997034298017"><ele>1253.6666666666665</ele><time>2026-05-02T11:43:31.898Z</time></trkpt><trkpt lat="44.18180824581716" lon="10.471108589630813"><ele>1257.3333333333333</ele><time>2026-05-02T11:43:32.898Z</time></trkpt><trkpt lat="44.18178944387461" lon="10.471213294792253"><ele>1261.0</ele><time>2026-05-02T11:43:33.898Z</time></trkpt><trkpt lat="44.18176227371111" lon="10.471306928673256"><ele>1260.0</ele><time>2026-05-02T11:43:34.898Z</time></trkpt><trkpt lat="44.18173402477062" lon="10.471397601386686"><ele>1259.0</ele><time>2026-05-02T11:43:35.898Z</time></trkpt><trkpt lat="44.18170126749357" lon="10.471481194345971"><ele>1258.0</ele><time>2026-05-02T11:43:36.898Z</time></trkpt><trkpt lat="44.18166347128539" lon="10.471553780256587"><ele>1257.0</ele><time>2026-05-02T11:43:37.898Z</time></trkpt><trkpt lat="44.1816188740711" lon="10.471617381760748"><ele>1256.0</ele><time>2026-05-02T11:43:38.898Z</time></trkpt><trkpt lat="44.18152516662102" lon="10.471730205782386"><ele>1255.0</ele><time>2026-05-02T11:43:40.898Z</time></trkpt><trkpt lat="44.18142814100577" lon="10.471832511532112"><ele>1255.0</ele><time>2026-05-02T11:43:42.898Z</time></trkpt><trkpt lat="44.181342226257485" lon="10.471938506952572"><ele>1255.0</ele><time>2026-05-02T11:43:44.898Z</time></trkpt><trkpt lat="44.181264137722366" lon="10.472050894222757"><ele>1255.0</ele><time>2026-05-02T11:43:46.898Z</time></trkpt><trkpt lat="44.181176174051785" lon="10.472177824917045"><ele>1255.0</ele><time>2026-05-02T11:43:48.898Z</time></trkpt><trkpt lat="44.18113999948312" lon="10.472256143909608"><ele>1255.0</ele><time>2026-05-02T11:43:49.898Z</time></trkpt><trkpt lat="44.18107718487183" lon="10.472400628951878"><ele>1261.6</ele><time>2026-05-02T11:43:51.898Z</time></trkpt><trkpt lat="44.18104246880415" lon="10.472480482458339"><ele>1268.2</ele><time>2026-05-02T11:43:52.898Z</time></trkpt><trkpt lat="44.18102172837144" lon="10.472575863473915"><ele>1274.8000000000002</ele><time>2026-05-02T11:43:53.898Z</time></trkpt><trkpt lat="44.18097306614286" lon="10.472643389297687"><ele>1281.4</ele><time>2026-05-02T11:43:54.898Z</time></trkpt><trkpt lat="44.18090260951844" lon="10.472778604006747"><ele>1288.0</ele><time>2026-05-02T11:43:56.898Z</time></trkpt><trkpt lat="44.180852671749285" lon="10.472941809523071"><ele>1284.6000000000001</ele><time>2026-05-02T11:43:58.898Z</time></trkpt><trkpt lat="44.18079910068131" lon="10.473060245225664"><ele>1281.2</ele><time>2026-05-02T11:44:00.898Z</time></trkpt><trkpt lat="44.18075349148707" lon="10.473173119277565"><ele>1277.8</ele><time>2026-05-02T11:44:02.898Z</time></trkpt><trkpt lat="44.180721199111225" lon="10.473299548443743"><ele>1274.4</ele><time>2026-05-02T11:44:04.898Z</time></trkpt><trkpt lat="44.1806702428613" lon="10.473411318247141"><ele>1271.0</ele><time>2026-05-02T11:44:06.898Z</time></trkpt><trkpt lat="44.180666641513916" lon="10.473505960967781"><ele>1275.5</ele><time>2026-05-02T11:44:07.898Z</time></trkpt><trkpt lat="44.180703430358086" lon="10.473585557101861"><ele>1280.0</ele><time>2026-05-02T11:44:08.898Z</time></trkpt><trkpt lat="44.18077333318221" lon="10.473654069369331"><ele>1284.5</ele><time>2026-05-02T11:44:10.898Z</time></trkpt><trkpt lat="44.18083884214553" lon="10.473702505893293"><ele>1289.0</ele><time>2026-05-02T11:44:13.898Z</time></trkpt><trkpt lat="44.18089964471999" lon="10.473745921831044"><ele>1293.5</ele><time>2026-05-02T11:44:17.898Z</time></trkpt><trkpt lat="44.180961387157275" lon="10.473791168318122"><ele>1298.0</ele><time>2026-05-02T11:44:19.898Z</time></trkpt><trkpt lat="44.18103560626735" lon="10.473850381778252"><ele>1297.9999999999998</ele><time>2026-05-02T11:44:21.898Z</time></trkpt><trkpt lat="44.181096077021444" lon="10.473903992839748"><ele>1298.0</ele><time>2026-05-02T11:44:24.898Z</time></trkpt><trkpt lat="44.18114746042583" lon="10.473956410559017"><ele>1298.0</ele><time>2026-05-02T11:44:27.898Z</time></trkpt><trkpt lat="44.181201640524016" lon="10.474017667552495"><ele>1298.0</ele><time>2026-05-02T11:44:31.898Z</time></trkpt><trkpt lat="44.181253531197825" lon="10.474081327439357"><ele>1298.0</ele><time>2026-05-02T11:44:40.898Z</time></trkpt><trkpt lat="44.181304172792096" lon="10.47415007388296"><ele>1297.9999999999998</ele><time>2026-05-02T11:44:47.898Z</time></trkpt><trkpt lat="44.18135190645589" lon="10.474214943611903"><ele>1298.0</ele><time>2026-05-02T11:44:49.899Z</time></trkpt><trkpt lat="44.181405801596966" lon="10.47428930063147"><ele>1298.0</ele><time>2026-05-02T11:44:51.899Z</time></trkpt><trkpt lat="44.18145964284378" lon="10.474359744595276"><ele>1298.0</ele><time>2026-05-02T11:44:53.899Z</time></trkpt><trkpt lat="44.18151164553554" lon="10.474425013235008"><ele>1298.0</ele><time>2026-05-02T11:44:55.899Z</time></trkpt><trkpt lat="44.18156525806596" lon="10.474490733638048"><ele>1298.0</ele><time>2026-05-02T11:44:57.899Z</time></trkpt><trkpt lat="44.181625517180954" lon="10.474562962125969"><ele>1298.0</ele><time>2026-05-02T11:44:59.897Z</time></trkpt><trkpt lat="44.18169156751851" lon="10.474641182270648"><ele>1298.0</ele><time>2026-05-02T11:45:01.897Z</time></trkpt><trkpt lat="44.18176971086961" lon="10.474733723684315"><ele>1301.142857142857</ele><time>2026-05-02T11:45:03.897Z</time></trkpt><trkpt lat="44.18181838561353" lon="10.474791366567862"><ele>1304.2857142857142</ele><time>2026-05-02T11:45:04.897Z</time></trkpt><trkpt lat="44.181869798457065" lon="10.474852252519668"><ele>1307.4285714285716</ele><time>2026-05-02T11:45:05.897Z</time></trkpt><trkpt lat="44.18192428149488" lon="10.474916772899652"><ele>1310.5714285714284</ele><time>2026-05-02T11:45:06.897Z</time></trkpt><trkpt lat="44.18197839727943" lon="10.474984728309593"><ele>1313.7142857142858</ele><time>2026-05-02T11:45:07.897Z</time></trkpt><trkpt lat="44.18203299966085" lon="10.475056389881853"><ele>1316.857142857143</ele><time>2026-05-02T11:45:08.896Z</time></trkpt><trkpt lat="44.18208538342774" lon="10.475133079792561"><ele>1320.0</ele><time>2026-05-02T11:45:09.897Z</time></trkpt><trkpt lat="44.18213518333791" lon="10.475214849243043"><ele>1320.0</ele><time>2026-05-02T11:45:10.897Z</time></trkpt><trkpt lat="44.182180838721365" lon="10.47530138611069"><ele>1320.0</ele><time>2026-05-02T11:45:11.897Z</time></trkpt><trkpt lat="44.18222020101893" lon="10.475398695962097"><ele>1320.0</ele><time>2026-05-02T11:45:12.897Z</time></trkpt><trkpt lat="44.18225713565028" lon="10.475494606151827"><ele>1320.0</ele><time>2026-05-02T11:45:13.897Z</time></trkpt><trkpt lat="44.18228608640277" lon="10.47559418670593"><ele>1320.0</ele><time>2026-05-02T11:45:14.897Z</time></trkpt><trkpt lat="44.18231538469847" lon="10.47569495818539"><ele>1320.0</ele><time>2026-05-02T11:45:15.897Z</time></trkpt><trkpt lat="44.18234459037391" lon="10.47579542380187"><ele>1321.6666666666667</ele><time>2026-05-02T11:45:16.897Z</time></trkpt><trkpt lat="44.18237609664293" lon="10.475891562073016"><ele>1323.3333333333333</ele><time>2026-05-02T11:45:17.897Z</time></trkpt><trkpt lat="44.18240893811881" lon="10.47598583954159"><ele>1325.0</ele><time>2026-05-02T11:45:18.897Z</time></trkpt><trkpt lat="44.18244086933581" lon="10.476077232231527"><ele>1326.6666666666665</ele><time>2026-05-02T11:45:19.897Z</time></trkpt><trkpt lat="44.18247774626692" lon="10.476170312955688"><ele>1328.3333333333333</ele><time>2026-05-02T11:45:20.897Z</time></trkpt><trkpt lat="44.182514062736" lon="10.476262017620211"><ele>1330.0</ele><time>2026-05-02T11:45:21.897Z</time></trkpt><trkpt lat="44.18255015990753" lon="10.476352540066276"><ele>1330.0</ele><time>2026-05-02T11:45:22.897Z</time></trkpt><trkpt lat="44.18258704572175" lon="10.476445040584283"><ele>1330.0</ele><time>2026-05-02T11:45:23.897Z</time></trkpt><trkpt lat="44.18262594897233" lon="10.476533822601692"><ele>1330.0</ele><time>2026-05-02T11:45:24.897Z</time></trkpt><trkpt lat="44.18269707327364" lon="10.476599011929887"><ele>1330.0</ele><time>2026-05-02T11:45:25.897Z</time></trkpt><trkpt lat="44.1827443179727" lon="10.476688773360943"><ele>1330.0</ele><time>2026-05-02T11:45:26.897Z</time></trkpt><trkpt lat="44.18279938626179" lon="10.47677953733397"><ele>1330.0</ele><time>2026-05-02T11:45:27.897Z</time></trkpt><trkpt lat="44.18285421445576" lon="10.476869121542604"><ele>1330.0</ele><time>2026-05-02T11:45:28.897Z</time></trkpt><trkpt lat="44.1828837103283" lon="10.476986361129349"><ele>1330.0</ele><time>2026-05-02T11:45:29.897Z</time></trkpt><trkpt lat="44.18294954041564" lon="10.477069921407182"><ele>1330.0</ele><time>2026-05-02T11:45:30.897Z</time></trkpt><trkpt lat="44.18303754136133" lon="10.477125439159622"><ele>1330.0</ele><time>2026-05-02T11:45:31.897Z</time></trkpt><trkpt lat="44.183119025189534" lon="10.477162286003045"><ele>1330.0</ele><time>2026-05-02T11:45:32.897Z</time></trkpt><trkpt lat="44.18320216751182" lon="10.477199732156576"><ele>1330.0</ele><time>2026-05-02T11:45:33.897Z</time></trkpt><trkpt lat="44.18329093197933" lon="10.477239710454075"><ele>1336.6</ele><time>2026-05-02T11:45:34.897Z</time></trkpt><trkpt lat="44.18338081014027" lon="10.477280442597731"><ele>1343.2</ele><time>2026-05-02T11:45:35.897Z</time></trkpt><trkpt lat="44.1834734319975" lon="10.477326397330115"><ele>1349.8000000000002</ele><time>2026-05-02T11:45:36.897Z</time></trkpt><trkpt lat="44.183580335752204" lon="10.477350670199579"><ele>1356.4</ele><time>2026-05-02T11:45:37.897Z</time></trkpt><trkpt lat="44.1836789785758" lon="10.477329509367882"><ele>1363.0</ele><time>2026-05-02T11:45:38.897Z</time></trkpt><trkpt lat="44.18377824780406" lon="10.47734903629523"><ele>1363.0</ele><time>2026-05-02T11:45:39.897Z</time></trkpt><trkpt lat="44.1838676534394" lon="10.477345132898963"><ele>1363.0</ele><time>2026-05-02T11:45:40.897Z</time></trkpt><trkpt lat="44.18394801911254" lon="10.477342277984308"><ele>1363.0</ele><time>2026-05-02T11:45:41.897Z</time></trkpt><trkpt lat="44.184028371217266" lon="10.477348881339568"><ele>1363.0</ele><time>2026-05-02T11:45:42.897Z</time></trkpt><trkpt lat="44.184102386669856" lon="10.47736199572574"><ele>1363.0</ele><time>2026-05-02T11:45:43.897Z</time></trkpt><trkpt lat="44.18417631444793" lon="10.477362909187915"><ele>1363.0</ele><time>2026-05-02T11:45:44.897Z</time></trkpt><trkpt lat="44.184240591786065" lon="10.477393877934535"><ele>1366.0</ele><time>2026-05-02T11:45:45.897Z</time></trkpt><trkpt lat="44.18429921781162" lon="10.477436066902412"><ele>1369.0</ele><time>2026-05-02T11:45:46.897Z</time></trkpt><trkpt lat="44.18439748630458" lon="10.477539202384191"><ele>1372.0</ele><time>2026-05-02T11:45:48.897Z</time></trkpt><trkpt lat="44.18448157201332" lon="10.477670572006256"><ele>1375.0</ele><time>2026-05-02T11:45:50.897Z</time></trkpt><trkpt lat="44.18456519898305" lon="10.477848214928926"><ele>1377.0</ele><time>2026-05-02T11:45:52.897Z</time></trkpt><trkpt lat="44.18462734965374" lon="10.47796089074169"><ele>1379.0</ele><time>2026-05-02T11:45:53.897Z</time></trkpt><trkpt lat="44.184691152065305" lon="10.478055723153867"><ele>1381.0</ele><time>2026-05-02T11:45:54.897Z</time></trkpt><trkpt lat="44.18475758058749" lon="10.47816098792313"><ele>1383.0</ele><time>2026-05-02T11:45:55.897Z</time></trkpt><trkpt lat="44.184822398843956" lon="10.478253068969257"><ele>1385.0</ele><time>2026-05-02T11:45:56.897Z</time></trkpt><trkpt lat="44.18489939051258" lon="10.47833446041335"><ele>1385.3333333333335</ele><time>2026-05-02T11:45:57.897Z</time></trkpt><trkpt lat="44.18496378085311" lon="10.47842424558113"><ele>1385.6666666666667</ele><time>2026-05-02T11:45:58.897Z</time></trkpt><trkpt lat="44.18503889206131" lon="10.478501165245586"><ele>1386.0</ele><time>2026-05-02T11:45:59.897Z</time></trkpt><trkpt lat="44.18513613006058" lon="10.478523595214943"><ele>1386.3333333333333</ele><time>2026-05-02T11:46:00.897Z</time></trkpt><trkpt lat="44.185207054435764" lon="10.47854031120568"><ele>1386.6666666666665</ele><time>2026-05-02T11:46:01.897Z</time></trkpt><trkpt lat="44.185283699147824" lon="10.478554251987546"><ele>1387.0</ele><time>2026-05-02T11:46:02.897Z</time></trkpt><trkpt lat="44.185361265676455" lon="10.478568073957774"><ele>1387.0</ele><time>2026-05-02T11:46:03.897Z</time></trkpt><trkpt lat="44.185433676710375" lon="10.478581115317256"><ele>1387.0</ele><time>2026-05-02T11:46:04.897Z</time></trkpt><trkpt lat="44.1855028338317" lon="10.478596384293967"><ele>1387.0</ele><time>2026-05-02T11:46:05.897Z</time></trkpt><trkpt lat="44.18557299967729" lon="10.478611875986939"><ele>1387.0</ele><time>2026-05-02T11:46:06.897Z</time></trkpt><trkpt lat="44.185641278458476" lon="10.478627596425957"><ele>1387.0</ele><time>2026-05-02T11:46:07.897Z</time></trkpt><trkpt lat="44.18570630597701" lon="10.478642980235893"><ele>1387.0</ele><time>2026-05-02T11:46:08.897Z</time></trkpt><trkpt lat="44.185778778008284" lon="10.478660561442217"><ele>1387.0</ele><time>2026-05-02T11:46:09.897Z</time></trkpt><trkpt lat="44.18584450063646" lon="10.478677021280962"><ele>1387.857142857143</ele><time>2026-05-02T11:46:10.897Z</time></trkpt><trkpt lat="44.18591444167461" lon="10.478754092944973"><ele>1388.7142857142858</ele><time>2026-05-02T11:46:12.897Z</time></trkpt><trkpt lat="44.18589952608618" lon="10.478847128274221"><ele>1389.5714285714284</ele><time>2026-05-02T11:46:13.897Z</time></trkpt><trkpt lat="44.18587777605749" lon="10.47893217031388"><ele>1390.4285714285716</ele><time>2026-05-02T11:46:14.897Z</time></trkpt><trkpt lat="44.18588351470688" lon="10.479025489020469"><ele>1391.2857142857142</ele><time>2026-05-02T11:46:15.897Z</time></trkpt><trkpt lat="44.18592562728972" lon="10.479103620913518"><ele>1392.142857142857</ele><time>2026-05-02T11:46:16.897Z</time></trkpt><trkpt lat="44.18597969014653" lon="10.479203130111866"><ele>1393.0</ele><time>2026-05-02T11:46:18.897Z</time></trkpt><trkpt lat="44.18604236205647" lon="10.479288106532994"><ele>1393.1666666666665</ele><time>2026-05-02T11:46:20.897Z</time></trkpt><trkpt lat="44.18611815235119" lon="10.479362374924493"><ele>1393.3333333333333</ele><time>2026-05-02T11:46:22.897Z</time></trkpt><trkpt lat="44.18616190176503" lon="10.479469896906036"><ele>1393.5</ele><time>2026-05-02T11:46:25.897Z</time></trkpt><trkpt lat="44.186199283839144" lon="10.479541222543382"><ele>1393.6666666666667</ele><time>2026-05-02T11:46:28.897Z</time></trkpt><trkpt lat="44.18625136037643" lon="10.479627127904983"><ele>1393.8333333333335</ele><time>2026-05-02T11:46:33.897Z</time></trkpt><trkpt lat="44.1862966057635" lon="10.479709967212704"><ele>1394.0</ele><time>2026-05-02T11:46:35.897Z</time></trkpt><trkpt lat="44.18634672877524" lon="10.479800412366174"><ele>1394.0</ele><time>2026-05-02T11:46:37.897Z</time></trkpt><trkpt lat="44.18639520199897" lon="10.47987612455538"><ele>1394.0</ele><time>2026-05-02T11:46:39.897Z</time></trkpt><trkpt lat="44.186444693231785" lon="10.479938263025554"><ele>1394.0</ele><time>2026-05-02T11:46:42.897Z</time></trkpt><trkpt lat="44.1865092297771" lon="10.479997319876107"><ele>1394.0</ele><time>2026-05-02T11:46:45.897Z</time></trkpt><trkpt lat="44.18656643164181" lon="10.480041498448848"><ele>1394.0</ele><time>2026-05-02T11:46:48.897Z</time></trkpt><trkpt lat="44.18662385695815" lon="10.480079541643313"><ele>1394.0</ele><time>2026-05-02T11:46:51.897Z</time></trkpt><trkpt lat="44.18671536445513" lon="10.480058344149642"><ele>1394.0</ele><time>2026-05-02T11:46:54.898Z</time></trkpt><trkpt lat="44.186781531879596" lon="10.480083333465569"><ele>1400.3333333333335</ele><time>2026-05-02T11:46:57.898Z</time></trkpt><trkpt lat="44.18685943777735" lon="10.480091907716567"><ele>1406.6666666666667</ele><time>2026-05-02T11:47:00.898Z</time></trkpt><trkpt lat="44.18694789696689" lon="10.480097885722962"><ele>1413.0</ele><time>2026-05-02T11:47:03.898Z</time></trkpt><trkpt lat="44.18703893246823" lon="10.48012554811725"><ele>1419.3333333333333</ele><time>2026-05-02T11:47:06.896Z</time></trkpt><trkpt lat="44.187126572120775" lon="10.480147865077237"><ele>1425.6666666666665</ele><time>2026-05-02T11:47:09.897Z</time></trkpt><trkpt lat="44.187210635519605" lon="10.480194544331459"><ele>1432.0</ele><time>2026-05-02T11:47:12.897Z</time></trkpt><trkpt lat="44.18727719639576" lon="10.480208910730562"><ele>1432.0</ele><time>2026-05-02T11:47:14.897Z</time></trkpt><trkpt lat="44.18730212767781" lon="10.480127837784163"><ele>1432.0</ele><time>2026-05-02T11:47:16.897Z</time></trkpt><trkpt lat="44.18725371311746" lon="10.480050461560186"><ele>1432.0</ele><time>2026-05-02T11:47:18.896Z</time></trkpt><trkpt lat="44.187158440032746" lon="10.47997202601878"><ele>1432.0</ele><time>2026-05-02T11:47:20.896Z</time></trkpt><trkpt lat="44.18710548588408" lon="10.479917957153754"><ele>1432.0</ele><time>2026-05-02T11:47:21.896Z</time></trkpt><trkpt lat="44.18701238828076" lon="10.479833708464426"><ele>1432.0</ele><time>2026-05-02T11:47:23.896Z</time></trkpt><trkpt lat="44.18694908081746" lon="10.479737560866228"><ele>1432.0</ele><time>2026-05-02T11:47:25.896Z</time></trkpt><trkpt lat="44.18696585050281" lon="10.479610000373338"><ele>1432.0</ele><time>2026-05-02T11:47:27.896Z</time></trkpt><trkpt lat="44.187038994846276" lon="10.479496139527727"><ele>1432.0</ele><time>2026-05-02T11:47:29.897Z</time></trkpt><trkpt lat="44.18715466788907" lon="10.479544287244517"><ele>1432.0</ele><time>2026-05-02T11:47:31.897Z</time></trkpt><trkpt lat="44.18721535606642" lon="10.479663131460018"><ele>1432.0</ele><time>2026-05-02T11:47:33.897Z</time></trkpt><trkpt lat="44.18729183728425" lon="10.479710807059353"><ele>1436.3333333333333</ele><time>2026-05-02T11:47:47.897Z</time></trkpt><trkpt lat="44.187356043312946" lon="10.4797683743882"><ele>1440.6666666666665</ele><time>2026-05-02T11:47:50.897Z</time></trkpt><trkpt lat="44.18742935862008" lon="10.479820767615525"><ele>1445.0</ele><time>2026-05-02T11:47:52.897Z</time></trkpt><trkpt lat="44.187498988229045" lon="10.47982812205356"><ele>1449.3333333333333</ele><time>2026-05-02T11:47:54.897Z</time></trkpt><trkpt lat="44.18756500574336" lon="10.479836369467867"><ele>1453.6666666666667</ele><time>2026-05-02T11:47:56.897Z</time></trkpt><trkpt lat="44.187647674624685" lon="10.47986063457457"><ele>1458.0</ele><time>2026-05-02T11:48:00.897Z</time></trkpt><trkpt lat="44.187729268433955" lon="10.479878062619374"><ele>1458.0</ele><time>2026-05-02T11:48:04.897Z</time></trkpt><trkpt lat="44.187799378889004" lon="10.4798982319469"><ele>1458.0</ele><time>2026-05-02T11:48:07.897Z</time></trkpt><trkpt lat="44.18788901190662" lon="10.479925652990095"><ele>1458.0</ele><time>2026-05-02T11:48:10.897Z</time></trkpt><trkpt lat="44.18795103076218" lon="10.47995948592607"><ele>1458.0</ele><time>2026-05-02T11:48:12.897Z</time></trkpt><trkpt lat="44.18802321157072" lon="10.479993175037094"><ele>1458.0</ele><time>2026-05-02T11:48:14.897Z</time></trkpt><trkpt lat="44.18809554817755" lon="10.479968135691847"><ele>1458.0</ele><time>2026-05-02T11:48:16.897Z</time></trkpt><trkpt lat="44.18809756728801" lon="10.479866929365546"><ele>1458.0</ele><time>2026-05-02T11:48:18.897Z</time></trkpt><trkpt lat="44.187978089560225" lon="10.479789068957833"><ele>1458.0</ele><time>2026-05-02T11:48:20.897Z</time></trkpt><trkpt lat="44.187915003999514" lon="10.479763983004073"><ele>1458.0</ele><time>2026-05-02T11:48:21.897Z</time></trkpt><trkpt lat="44.187876599531656" lon="10.479687434496567"><ele>1458.0</ele><time>2026-05-02T11:48:22.897Z</time></trkpt><trkpt lat="44.187929456004184" lon="10.479613233854211"><ele>1458.0</ele><time>2026-05-02T11:48:25.897Z</time></trkpt><trkpt lat="44.18801854629967" lon="10.479642305993718"><ele>1458.0</ele><time>2026-05-02T11:48:27.897Z</time></trkpt><trkpt lat="44.18809546269413" lon="10.479651541832549"><ele>1458.0</ele><time>2026-05-02T11:48:29.897Z</time></trkpt><trkpt lat="44.18815936428766" lon="10.479648964883813"><ele>1458.0</ele><time>2026-05-02T11:48:31.897Z</time></trkpt><trkpt lat="44.1882299843864" lon="10.4796409148796"><ele>1458.0</ele><time>2026-05-02T11:48:34.897Z</time></trkpt><trkpt lat="44.188309629165396" lon="10.479640982184533"><ele>1458.0</ele><time>2026-05-02T11:48:37.897Z</time></trkpt><trkpt lat="44.18835171628501" lon="10.479709311516364"><ele>1458.0</ele><time>2026-05-02T11:48:41.897Z</time></trkpt><trkpt lat="44.18842537189913" lon="10.479726372065201"><ele>1458.0</ele><time>2026-05-02T11:48:52.897Z</time></trkpt><trkpt lat="44.188502023298476" lon="10.479806166860476"><ele>1458.0</ele><time>2026-05-02T11:48:55.897Z</time></trkpt><trkpt lat="44.188549734616295" lon="10.479865647670684"><ele>1461.3333333333333</ele><time>2026-05-02T11:48:57.897Z</time></trkpt><trkpt lat="44.188594557505056" lon="10.479957778031784"><ele>1464.6666666666667</ele><time>2026-05-02T11:49:00.897Z</time></trkpt><trkpt lat="44.18865078179729" lon="10.480037388648817"><ele>1468.0</ele><time>2026-05-02T11:49:03.897Z</time></trkpt><trkpt lat="44.188696713921935" lon="10.480109760268865"><ele>1471.3333333333335</ele><time>2026-05-02T11:49:05.897Z</time></trkpt><trkpt lat="44.18876605281982" lon="10.4802058230237"><ele>1474.6666666666667</ele><time>2026-05-02T11:49:08.897Z</time></trkpt><trkpt lat="44.18881203481636" lon="10.48027466165527"><ele>1478.0</ele><time>2026-05-02T11:49:10.896Z</time></trkpt><trkpt lat="44.18888929707022" lon="10.480354719300568"><ele>1478.0</ele><time>2026-05-02T11:49:13.896Z</time></trkpt><trkpt lat="44.188935795215706" lon="10.480431001304302"><ele>1478.0</ele><time>2026-05-02T11:49:15.897Z</time></trkpt><trkpt lat="44.18900705093544" lon="10.480529808305517"><ele>1478.0</ele><time>2026-05-02T11:49:17.897Z</time></trkpt><trkpt lat="44.1890558301373" lon="10.480587630627307"><ele>1478.0</ele><time>2026-05-02T11:49:18.897Z</time></trkpt><trkpt lat="44.189155118143795" lon="10.480709203133536"><ele>1478.0</ele><time>2026-05-02T11:49:20.896Z</time></trkpt><trkpt lat="44.18921073099153" lon="10.480775047628246"><ele>1478.0</ele><time>2026-05-02T11:49:21.896Z</time></trkpt><trkpt lat="44.18926631608513" lon="10.480841961531285"><ele>1481.5</ele><time>2026-05-02T11:49:22.896Z</time></trkpt><trkpt lat="44.18932442939676" lon="10.480907587272139"><ele>1485.0</ele><time>2026-05-02T11:49:23.897Z</time></trkpt><trkpt lat="44.18938613687677" lon="10.480963594129186"><ele>1488.5</ele><time>2026-05-02T11:49:24.897Z</time></trkpt><trkpt lat="44.189446109108246" lon="10.481003007222874"><ele>1492.0</ele><time>2026-05-02T11:49:25.897Z</time></trkpt><trkpt lat="44.18950713104336" lon="10.481041198785661"><ele>1495.5</ele><time>2026-05-02T11:49:26.897Z</time></trkpt><trkpt lat="44.189618312837176" lon="10.481111375160202"><ele>1499.0</ele><time>2026-05-02T11:49:28.897Z</time></trkpt><trkpt lat="44.18972259570611" lon="10.48115951697456"><ele>1499.0</ele><time>2026-05-02T11:49:30.897Z</time></trkpt><trkpt lat="44.18978300914699" lon="10.481056962567418"><ele>1499.0</ele><time>2026-05-02T11:49:32.897Z</time></trkpt><trkpt lat="44.18977451635401" lon="10.480961714604367"><ele>1499.0</ele><time>2026-05-02T11:49:33.897Z</time></trkpt><trkpt lat="44.189753468274795" lon="10.4808776253547"><ele>1499.0</ele><time>2026-05-02T11:49:34.897Z</time></trkpt><trkpt lat="44.189751014262946" lon="10.48073139730416"><ele>1499.0</ele><time>2026-05-02T11:49:36.897Z</time></trkpt><trkpt lat="44.189873080616785" lon="10.480655255673383"><ele>1502.1666666666667</ele><time>2026-05-02T11:49:38.897Z</time></trkpt><trkpt lat="44.18994704359993" lon="10.480658913642058"><ele>1505.3333333333335</ele><time>2026-05-02T11:49:39.897Z</time></trkpt><trkpt lat="44.19001687635562" lon="10.48064022584766"><ele>1508.5</ele><time>2026-05-02T11:49:40.897Z</time></trkpt><trkpt lat="44.19010847349611" lon="10.480633045160566"><ele>1511.6666666666667</ele><time>2026-05-02T11:49:41.897Z</time></trkpt><trkpt lat="44.19020685027104" lon="10.48062506157683"><ele>1514.8333333333333</ele><time>2026-05-02T11:49:42.897Z</time></trkpt><trkpt lat="44.19029363861582" lon="10.480623006893982"><ele>1518.0</ele><time>2026-05-02T11:49:43.897Z</time></trkpt><trkpt lat="44.19037701328634" lon="10.480655350381003"><ele>1518.0</ele><time>2026-05-02T11:49:44.897Z</time></trkpt><trkpt lat="44.19045378549971" lon="10.480683730681443"><ele>1518.0</ele><time>2026-05-02T11:49:45.897Z</time></trkpt><trkpt lat="44.1905201661216" lon="10.48070789769274"><ele>1518.0</ele><time>2026-05-02T11:49:46.897Z</time></trkpt><trkpt lat="44.19059298766413" lon="10.480731447396327"><ele>1518.0</ele><time>2026-05-02T11:49:48.897Z</time></trkpt><trkpt lat="44.19066009977066" lon="10.48076294749748"><ele>1518.0</ele><time>2026-05-02T11:49:51.897Z</time></trkpt><trkpt lat="44.1907397822293" lon="10.480782434097906"><ele>1518.0</ele><time>2026-05-02T11:49:53.897Z</time></trkpt><trkpt lat="44.190829056111866" lon="10.480805463927927"><ele>1519.0</ele><time>2026-05-02T11:49:55.897Z</time></trkpt><trkpt lat="44.190894103589066" lon="10.48085317779412"><ele>1520.0</ele><time>2026-05-02T11:49:57.897Z</time></trkpt><trkpt lat="44.19095938306103" lon="10.480853586339325"><ele>1521.0</ele><time>2026-05-02T11:56:10.952Z</time></trkpt><trkpt lat="44.191018175323066" lon="10.480886204341314"><ele>1522.0</ele><time>2026-05-02T11:56:17.953Z</time></trkpt><trkpt lat="44.19108407019021" lon="10.480904937169674"><ele>1523.0</ele><time>2026-05-02T11:56:33.953Z</time></trkpt><trkpt lat="44.19116629923182" lon="10.480925638297391"><ele>1524.0</ele><time>2026-05-02T11:56:38.953Z</time></trkpt><trkpt lat="44.191235104398146" lon="10.480950817248608"><ele>1525.0</ele><time>2026-05-02T11:56:40.953Z</time></trkpt><trkpt lat="44.191313965919726" lon="10.480966417773343"><ele>1525.0</ele><time>2026-05-02T11:56:42.953Z</time></trkpt><trkpt lat="44.191400601256426" lon="10.480993545426886"><ele>1525.0</ele><time>2026-05-02T11:56:45.953Z</time></trkpt><trkpt lat="44.19149750917504" lon="10.481018812168697"><ele>1525.0</ele><time>2026-05-02T11:56:48.953Z</time></trkpt><trkpt lat="44.19156836837316" lon="10.481039716051264"><ele>1525.0</ele><time>2026-05-02T11:56:50.953Z</time></trkpt><trkpt lat="44.1916408347223" lon="10.481060358058551"><ele>1525.0</ele><time>2026-05-02T11:56:52.953Z</time></trkpt><trkpt lat="44.191703273714076" lon="10.481077387415755"><ele>1525.0</ele><time>2026-05-02T11:56:54.953Z</time></trkpt><trkpt lat="44.191779903552344" lon="10.481103283721248"><ele>1527.1666666666665</ele><time>2026-05-02T11:56:57.953Z</time></trkpt><trkpt lat="44.19185911941067" lon="10.48112073264437"><ele>1529.3333333333333</ele><time>2026-05-02T11:57:00.953Z</time></trkpt><trkpt lat="44.19193998265801" lon="10.481120240817457"><ele>1531.5</ele><time>2026-05-02T11:57:03.953Z</time></trkpt><trkpt lat="44.192024508684916" lon="10.481140326495668"><ele>1533.6666666666665</ele><time>2026-05-02T11:57:06.953Z</time></trkpt><trkpt lat="44.19211164359047" lon="10.481147741509272"><ele>1535.8333333333333</ele><time>2026-05-02T11:57:09.953Z</time></trkpt><trkpt lat="44.19217697633273" lon="10.48116679756015"><ele>1538.0</ele><time>2026-05-02T11:57:11.953Z</time></trkpt><trkpt lat="44.1922391103561" lon="10.48118186191116"><ele>1537.9999999999998</ele><time>2026-05-02T11:57:14.953Z</time></trkpt><trkpt lat="44.19232679169981" lon="10.48121849514006"><ele>1538.0</ele><time>2026-05-02T11:57:17.954Z</time></trkpt><trkpt lat="44.19239226891597" lon="10.481218788401042"><ele>1538.0</ele><time>2026-05-02T11:57:20.954Z</time></trkpt><trkpt lat="44.192480174963684" lon="10.481203811493263"><ele>1538.0</ele><time>2026-05-02T11:57:23.954Z</time></trkpt><trkpt lat="44.19256455868463" lon="10.481208465415547"><ele>1537.9999999999998</ele><time>2026-05-02T11:57:26.954Z</time></trkpt><trkpt lat="44.19262911538983" lon="10.481190519685311"><ele>1538.0</ele><time>2026-05-02T11:57:28.954Z</time></trkpt><trkpt lat="44.192719069735624" lon="10.481180481031451"><ele>1539.6666666666665</ele><time>2026-05-02T11:57:31.954Z</time></trkpt><trkpt lat="44.19280187830162" lon="10.481167123645156"><ele>1541.3333333333333</ele><time>2026-05-02T11:57:34.953Z</time></trkpt><trkpt lat="44.19288728008128" lon="10.481165283372547"><ele>1543.0</ele><time>2026-05-02T11:57:37.953Z</time></trkpt><trkpt lat="44.192963292265595" lon="10.481166878243059"><ele>1544.6666666666665</ele><time>2026-05-02T11:57:40.953Z</time></trkpt><trkpt lat="44.1930586363927" lon="10.48114072259298"><ele>1546.3333333333333</ele><time>2026-05-02T11:57:43.953Z</time></trkpt><trkpt lat="44.193124051226185" lon="10.481105181253083"><ele>1548.0</ele><time>2026-05-02T11:57:45.953Z</time></trkpt><trkpt lat="44.19319287399975" lon="10.48114472405424"><ele>1548.0</ele><time>2026-05-02T11:57:47.953Z</time></trkpt><trkpt lat="44.19325162759066" lon="10.481208108858084"><ele>1548.0</ele><time>2026-05-02T11:57:49.953Z</time></trkpt><trkpt lat="44.19328891917582" lon="10.48131319422539"><ele>1548.0</ele><time>2026-05-02T11:57:51.953Z</time></trkpt><trkpt lat="44.193313996147765" lon="10.481443125829959"><ele>1548.0</ele><time>2026-05-02T11:57:53.953Z</time></trkpt><trkpt lat="44.1933439938976" lon="10.481615810102994"><ele>1548.0</ele><time>2026-05-02T11:57:55.953Z</time></trkpt><trkpt lat="44.19335753663632" lon="10.481716793286369"><ele>1551.5</ele><time>2026-05-02T11:57:56.953Z</time></trkpt><trkpt lat="44.193366816267556" lon="10.481824477502588"><ele>1555.0</ele><time>2026-05-02T11:57:57.953Z</time></trkpt><trkpt lat="44.19338411832184" lon="10.48193126855097"><ele>1558.5</ele><time>2026-05-02T11:57:58.953Z</time></trkpt><trkpt lat="44.19342635115873" lon="10.482016162395363"><ele>1562.0</ele><time>2026-05-02T11:57:59.953Z</time></trkpt><trkpt lat="44.19349472262174" lon="10.48210334196094"><ele>1565.5</ele><time>2026-05-02T11:58:00.953Z</time></trkpt><trkpt lat="44.193566019421525" lon="10.482140619451329"><ele>1569.0</ele><time>2026-05-02T11:58:01.953Z</time></trkpt><trkpt lat="44.19364716621251" lon="10.482144874907043"><ele>1569.4</ele><time>2026-05-02T11:58:02.953Z</time></trkpt><trkpt lat="44.193743031281855" lon="10.482203861500222"><ele>1569.8000000000002</ele><time>2026-05-02T11:58:03.953Z</time></trkpt><trkpt lat="44.19383336318377" lon="10.482290531973087"><ele>1570.1999999999998</ele><time>2026-05-02T11:58:04.953Z</time></trkpt><trkpt lat="44.19392996655129" lon="10.482364931269284"><ele>1570.6</ele><time>2026-05-02T11:58:05.953Z</time></trkpt><trkpt lat="44.194026638496375" lon="10.482432015051149"><ele>1571.0</ele><time>2026-05-02T11:58:06.953Z</time></trkpt><trkpt lat="44.1941105088516" lon="10.482511438970493"><ele>1571.0</ele><time>2026-05-02T11:58:07.953Z</time></trkpt><trkpt lat="44.1942089181235" lon="10.482583036503618"><ele>1571.0</ele><time>2026-05-02T11:58:08.953Z</time></trkpt><trkpt lat="44.19430351138664" lon="10.482640756906772"><ele>1571.0</ele><time>2026-05-02T11:58:09.953Z</time></trkpt><trkpt lat="44.19440119794759" lon="10.482690132741507"><ele>1571.0</ele><time>2026-05-02T11:58:10.953Z</time></trkpt><trkpt lat="44.19448636047289" lon="10.482750266950509"><ele>1571.0</ele><time>2026-05-02T11:58:11.953Z</time></trkpt><trkpt lat="44.1945764067385" lon="10.482801331040307"><ele>1570.9999999999998</ele><time>2026-05-02T11:58:12.953Z</time></trkpt><trkpt lat="44.19465343752015" lon="10.482868334725163"><ele>1571.0</ele><time>2026-05-02T11:58:13.953Z</time></trkpt><trkpt lat="44.19471123432768" lon="10.482954237817419"><ele>1571.0</ele><time>2026-05-02T11:58:14.953Z</time></trkpt><trkpt lat="44.19476581963935" lon="10.48304937733027"><ele>1571.0</ele><time>2026-05-02T11:58:15.953Z</time></trkpt><trkpt lat="44.19479817075035" lon="10.483169280266397"><ele>1570.9999999999998</ele><time>2026-05-02T11:58:16.953Z</time></trkpt><trkpt lat="44.194817119708524" lon="10.483280659466827"><ele>1571.0</ele><time>2026-05-02T11:58:17.953Z</time></trkpt><trkpt lat="44.194828061885715" lon="10.483392415259505"><ele>1570.8333333333333</ele><time>2026-05-02T11:58:18.953Z</time></trkpt><trkpt lat="44.19484039561224" lon="10.483503676636753"><ele>1570.6666666666665</ele><time>2026-05-02T11:58:19.953Z</time></trkpt><trkpt lat="44.19485230837519" lon="10.483609543656074"><ele>1570.5</ele><time>2026-05-02T11:58:20.953Z</time></trkpt><trkpt lat="44.19488822360536" lon="10.483727507882273"><ele>1570.3333333333335</ele><time>2026-05-02T11:58:21.953Z</time></trkpt><trkpt lat="44.194925183791185" lon="10.483833708743086"><ele>1570.1666666666667</ele><time>2026-05-02T11:58:22.953Z</time></trkpt><trkpt lat="44.194981768010926" lon="10.483922933851616"><ele>1570.0</ele><time>2026-05-02T11:58:23.953Z</time></trkpt><trkpt lat="44.195022700176715" lon="10.484027847295083"><ele>1573.3333333333335</ele><time>2026-05-02T11:58:24.953Z</time></trkpt><trkpt lat="44.19509441257265" lon="10.48410296692468"><ele>1576.6666666666667</ele><time>2026-05-02T11:58:25.953Z</time></trkpt><trkpt lat="44.195147410307975" lon="10.484186186841688"><ele>1580.0</ele><time>2026-05-02T11:58:26.953Z</time></trkpt><trkpt lat="44.19521114040231" lon="10.484259680116397"><ele>1583.3333333333335</ele><time>2026-05-02T11:58:27.953Z</time></trkpt><trkpt lat="44.1952633823948" lon="10.4843303899045"><ele>1586.6666666666667</ele><time>2026-05-02T11:58:28.953Z</time></trkpt><trkpt lat="44.195316821062654" lon="10.484395660021704"><ele>1590.0</ele><time>2026-05-02T11:58:29.953Z</time></trkpt><trkpt lat="44.19538343229573" lon="10.48445421149115"><ele>1590.0</ele><time>2026-05-02T11:58:30.953Z</time></trkpt><trkpt lat="44.19545572259946" lon="10.48450959114023"><ele>1590.0</ele><time>2026-05-02T11:58:31.953Z</time></trkpt><trkpt lat="44.19553212711919" lon="10.484562044227832"><ele>1590.0</ele><time>2026-05-02T11:58:32.953Z</time></trkpt><trkpt lat="44.19559715427816" lon="10.484605759167714"><ele>1590.0</ele><time>2026-05-02T11:58:33.953Z</time></trkpt><trkpt lat="44.195668846242775" lon="10.48463799256877"><ele>1590.0</ele><time>2026-05-02T11:58:34.953Z</time></trkpt><trkpt lat="44.19574104236513" lon="10.484663290089168"><ele>1590.0</ele><time>2026-05-02T11:58:35.953Z</time></trkpt><trkpt lat="44.19581159316121" lon="10.48468236732883"><ele>1592.5</ele><time>2026-05-02T11:58:36.953Z</time></trkpt><trkpt lat="44.195892986179935" lon="10.484688610606261"><ele>1595.0</ele><time>2026-05-02T11:58:37.953Z</time></trkpt><trkpt lat="44.19597684443215" lon="10.48467506703796"><ele>1597.5</ele><time>2026-05-02T11:58:38.953Z</time></trkpt><trkpt lat="44.19605435376354" lon="10.484644050890779"><ele>1600.0</ele><time>2026-05-02T11:58:39.953Z</time></trkpt><trkpt lat="44.196140058750494" lon="10.48462876473791"><ele>1602.5</ele><time>2026-05-02T11:58:40.953Z</time></trkpt><trkpt lat="44.1962199685006" lon="10.48462125687946"><ele>1605.0</ele><time>2026-05-02T11:58:41.954Z</time></trkpt><trkpt lat="44.19629854681789" lon="10.484620922487531"><ele>1605.0</ele><time>2026-05-02T11:58:42.954Z</time></trkpt><trkpt lat="44.19638053853891" lon="10.484636646137616"><ele>1605.0</ele><time>2026-05-02T11:58:43.954Z</time></trkpt><trkpt lat="44.19646166260397" lon="10.484684231992716"><ele>1605.0</ele><time>2026-05-02T11:58:44.954Z</time></trkpt><trkpt lat="44.196530983658576" lon="10.48475417915989"><ele>1605.0</ele><time>2026-05-02T11:58:45.954Z</time></trkpt><trkpt lat="44.19659915400472" lon="10.484812900381142"><ele>1605.0</ele><time>2026-05-02T11:58:46.954Z</time></trkpt><trkpt lat="44.196662890217276" lon="10.484871516478957"><ele>1605.0</ele><time>2026-05-02T11:58:47.954Z</time></trkpt><trkpt lat="44.19672916381218" lon="10.484942090310925"><ele>1604.4285714285716</ele><time>2026-05-02T11:58:48.954Z</time></trkpt><trkpt lat="44.196795472709034" lon="10.485003561982948"><ele>1603.8571428571427</ele><time>2026-05-02T11:58:49.954Z</time></trkpt><trkpt lat="44.19682670653782" lon="10.485097692450617"><ele>1603.2857142857142</ele><time>2026-05-02T11:58:50.954Z</time></trkpt><trkpt lat="44.19687620401335" lon="10.485169743442784"><ele>1602.7142857142858</ele><time>2026-05-02T11:58:51.954Z</time></trkpt><trkpt lat="44.196926474853306" lon="10.48523745001054"><ele>1602.1428571428573</ele><time>2026-05-02T11:58:52.954Z</time></trkpt><trkpt lat="44.19698185773212" lon="10.485302939998391"><ele>1601.5714285714284</ele><time>2026-05-02T11:58:53.954Z</time></trkpt><trkpt lat="44.19703553999326" lon="10.485365350684894"><ele>1601.0</ele><time>2026-05-02T11:58:54.954Z</time></trkpt><trkpt lat="44.197126174514736" lon="10.485466373896955"><ele>1622.0</ele><time>2026-05-02T11:58:56.954Z</time></trkpt><trkpt lat="44.197196343332344" lon="10.485539141711481"><ele>1622.0</ele><time>2026-05-02T11:58:58.954Z</time></trkpt><trkpt lat="44.19724620221032" lon="10.485613537410739"><ele>1622.0</ele><time>2026-05-02T11:59:01.954Z</time></trkpt></trkseg><trkseg><trkpt lat="44.1973341943875" lon="10.485753915511445"><ele>1620.4999999999998</ele><time>2026-05-02T12:11:45.963Z</time></trkpt><trkpt lat="44.19738579823361" lon="10.485807230885065"><ele>1619.0</ele><time>2026-05-02T12:11:47.963Z</time></trkpt><trkpt lat="44.19744239456843" lon="10.485857452215248"><ele>1617.5</ele><time>2026-05-02T12:11:49.963Z</time></trkpt><trkpt lat="44.19750583392604" lon="10.485909901027984"><ele>1616.0</ele><time>2026-05-02T12:11:51.963Z</time></trkpt><trkpt lat="44.19759728194631" lon="10.485971306717069"><ele>1614.4999999999998</ele><time>2026-05-02T12:11:53.963Z</time></trkpt><trkpt lat="44.19767405787082" lon="10.486000053908931"><ele>1613.0</ele><time>2026-05-02T12:11:54.963Z</time></trkpt><trkpt lat="44.197745684675034" lon="10.485996045908317"><ele>1612.9999999999998</ele><time>2026-05-02T12:11:55.963Z</time></trkpt><trkpt lat="44.19781519780005" lon="10.486015752818696"><ele>1613.0</ele><time>2026-05-02T12:11:56.963Z</time></trkpt><trkpt lat="44.19788362539209" lon="10.486029881218306"><ele>1613.0</ele><time>2026-05-02T12:11:57.963Z</time></trkpt><trkpt lat="44.19794868849304" lon="10.486039894973104"><ele>1613.0</ele><time>2026-05-02T12:11:58.963Z</time></trkpt><trkpt lat="44.19806445689216" lon="10.486072021403519"><ele>1612.9999999999998</ele><time>2026-05-02T12:12:00.963Z</time></trkpt><trkpt lat="44.19815995746523" lon="10.486149842624343"><ele>1613.0</ele><time>2026-05-02T12:12:02.963Z</time></trkpt><trkpt lat="44.198244790033925" lon="10.486221317919185"><ele>1614.3333333333333</ele><time>2026-05-02T12:12:04.963Z</time></trkpt><trkpt lat="44.198340491042316" lon="10.486301387212155"><ele>1615.6666666666665</ele><time>2026-05-02T12:12:06.964Z</time></trkpt><trkpt lat="44.198397520361496" lon="10.486346549674506"><ele>1617.0</ele><time>2026-05-02T12:12:07.964Z</time></trkpt><trkpt lat="44.19845368853176" lon="10.486391454767068"><ele>1618.3333333333335</ele><time>2026-05-02T12:12:08.964Z</time></trkpt><trkpt lat="44.19851493826819" lon="10.486437502075718"><ele>1619.6666666666667</ele><time>2026-05-02T12:12:09.964Z</time></trkpt><trkpt lat="44.19857118204098" lon="10.486497108076817"><ele>1621.0</ele><time>2026-05-02T12:12:10.964Z</time></trkpt><trkpt lat="44.19863636540787" lon="10.48654911273007"><ele>1621.0000000000002</ele><time>2026-05-02T12:12:11.964Z</time></trkpt><trkpt lat="44.19870325765419" lon="10.486602652457632"><ele>1621.0</ele><time>2026-05-02T12:12:12.964Z</time></trkpt><trkpt lat="44.19877191176009" lon="10.486656391808678"><ele>1621.0</ele><time>2026-05-02T12:12:13.964Z</time></trkpt><trkpt lat="44.1988346490132" lon="10.486718366739941"><ele>1621.0</ele><time>2026-05-02T12:12:14.964Z</time></trkpt><trkpt lat="44.1988942951252" lon="10.486781168203349"><ele>1621.0000000000002</ele><time>2026-05-02T12:12:15.964Z</time></trkpt><trkpt lat="44.198954234046234" lon="10.486857368032831"><ele>1621.0</ele><time>2026-05-02T12:12:16.963Z</time></trkpt><trkpt lat="44.199008247644926" lon="10.486947899862885"><ele>1622.1999999999998</ele><time>2026-05-02T12:12:17.963Z</time></trkpt><trkpt lat="44.199059016992706" lon="10.487035094678617"><ele>1623.3999999999999</ele><time>2026-05-02T12:12:18.963Z</time></trkpt><trkpt lat="44.19912080142104" lon="10.487131465095805"><ele>1624.6</ele><time>2026-05-02T12:12:19.963Z</time></trkpt><trkpt lat="44.19920487951862" lon="10.487234259116198"><ele>1625.8</ele><time>2026-05-02T12:12:20.963Z</time></trkpt><trkpt lat="44.199295634337126" lon="10.487323585423438"><ele>1627.0</ele><time>2026-05-02T12:12:21.963Z</time></trkpt><trkpt lat="44.19937476320063" lon="10.48739440371933"><ele>1627.0000000000002</ele><time>2026-05-02T12:12:22.963Z</time></trkpt><trkpt lat="44.19944920586249" lon="10.487457427971021"><ele>1627.0</ele><time>2026-05-02T12:12:23.963Z</time></trkpt><trkpt lat="44.199524244066055" lon="10.487520956296454"><ele>1627.0</ele><time>2026-05-02T12:12:24.963Z</time></trkpt><trkpt lat="44.1995943151006" lon="10.487580281285918"><ele>1627.0</ele><time>2026-05-02T12:12:25.963Z</time></trkpt><trkpt lat="44.19966665755826" lon="10.487642467473224"><ele>1627.0000000000002</ele><time>2026-05-02T12:12:26.963Z</time></trkpt><trkpt lat="44.19973448624683" lon="10.48770190118659"><ele>1627.0</ele><time>2026-05-02T12:12:27.963Z</time></trkpt><trkpt lat="44.19980397018489" lon="10.487770211108712"><ele>1628.6</ele><time>2026-05-02T12:12:28.963Z</time></trkpt><trkpt lat="44.19987777782937" lon="10.487847029864728"><ele>1630.1999999999998</ele><time>2026-05-02T12:12:29.962Z</time></trkpt><trkpt lat="44.19995713964181" lon="10.48791810546097"><ele>1631.8</ele><time>2026-05-02T12:12:30.962Z</time></trkpt><trkpt lat="44.200047671508784" lon="10.487983748996834"><ele>1633.4</ele><time>2026-05-02T12:12:31.962Z</time></trkpt><trkpt lat="44.20013740053711" lon="10.48803571413788"><ele>1635.0</ele><time>2026-05-02T12:12:32.962Z</time></trkpt><trkpt lat="44.20023266879913" lon="10.48807451528581"><ele>1635.0</ele><time>2026-05-02T12:12:33.962Z</time></trkpt><trkpt lat="44.20032880076993" lon="10.48809232179676"><ele>1635.0</ele><time>2026-05-02T12:12:34.962Z</time></trkpt><trkpt lat="44.20041878052891" lon="10.488096121999806"><ele>1635.0</ele><time>2026-05-02T12:12:35.962Z</time></trkpt><trkpt lat="44.200507627138784" lon="10.48809070954893"><ele>1635.0</ele><time>2026-05-02T12:12:36.962Z</time></trkpt><trkpt lat="44.200585660463304" lon="10.488078583091152"><ele>1635.0</ele><time>2026-05-02T12:12:37.963Z</time></trkpt><trkpt lat="44.20069249306739" lon="10.488058672106904"><ele>1633.0</ele><time>2026-05-02T12:12:39.963Z</time></trkpt><trkpt lat="44.20080918367458" lon="10.488034481939929"><ele>1631.0</ele><time>2026-05-02T12:12:41.963Z</time></trkpt><trkpt lat="44.20088617795024" lon="10.488022959280052"><ele>1629.0</ele><time>2026-05-02T12:12:42.963Z</time></trkpt><trkpt lat="44.20098371799437" lon="10.488016990480954"><ele>1627.0</ele><time>2026-05-02T12:12:43.963Z</time></trkpt><trkpt lat="44.20108456684977" lon="10.48802324649378"><ele>1625.0</ele><time>2026-05-02T12:12:44.963Z</time></trkpt><trkpt lat="44.201199128721456" lon="10.487993596085166"><ele>1625.0</ele><time>2026-05-02T12:12:45.963Z</time></trkpt><trkpt lat="44.2012969127223" lon="10.487933068886294"><ele>1625.0</ele><time>2026-05-02T12:12:46.963Z</time></trkpt><trkpt lat="44.20137914390893" lon="10.48786600177368"><ele>1625.0</ele><time>2026-05-02T12:12:47.963Z</time></trkpt><trkpt lat="44.20145920979102" lon="10.487797466795142"><ele>1625.0</ele><time>2026-05-02T12:12:48.963Z</time></trkpt><trkpt lat="44.201537041747464" lon="10.487729204774876"><ele>1625.0</ele><time>2026-05-02T12:12:49.963Z</time></trkpt><trkpt lat="44.20161349420296" lon="10.487665861400904"><ele>1622.6666666666665</ele><time>2026-05-02T12:12:50.963Z</time></trkpt><trkpt lat="44.20168487725534" lon="10.487610310033464"><ele>1620.3333333333333</ele><time>2026-05-02T12:12:51.963Z</time></trkpt><trkpt lat="44.201760589339095" lon="10.487555531827091"><ele>1618.0</ele><time>2026-05-02T12:12:52.963Z</time></trkpt><trkpt lat="44.201839413843395" lon="10.487501220697334"><ele>1615.6666666666665</ele><time>2026-05-02T12:12:53.963Z</time></trkpt><trkpt lat="44.201904649963105" lon="10.487456396978311"><ele>1613.3333333333333</ele><time>2026-05-02T12:12:54.963Z</time></trkpt><trkpt lat="44.2019791356841" lon="10.487405217883524"><ele>1611.0</ele><time>2026-05-02T12:12:55.963Z</time></trkpt><trkpt lat="44.20203792509112" lon="10.487364823679364"><ele>1611.0</ele><time>2026-05-02T12:12:56.963Z</time></trkpt><trkpt lat="44.2021032990214" lon="10.487319905644968"><ele>1611.0</ele><time>2026-05-02T12:12:57.963Z</time></trkpt><trkpt lat="44.202178002577696" lon="10.487270088249543"><ele>1611.0</ele><time>2026-05-02T12:12:58.963Z</time></trkpt><trkpt lat="44.202255773760506" lon="10.487220861467845"><ele>1611.0</ele><time>2026-05-02T12:12:59.963Z</time></trkpt><trkpt lat="44.20234121282842" lon="10.48717353042025"><ele>1611.0</ele><time>2026-05-02T12:13:00.963Z</time></trkpt><trkpt lat="44.20243969308641" lon="10.487152982054193"><ele>1611.0</ele><time>2026-05-02T12:13:01.963Z</time></trkpt><trkpt lat="44.202544543837135" lon="10.487128453485463"><ele>1609.6</ele><time>2026-05-02T12:13:02.963Z</time></trkpt><trkpt lat="44.202647211407026" lon="10.487158086585648"><ele>1608.1999999999998</ele><time>2026-05-02T12:13:03.963Z</time></trkpt><trkpt lat="44.202751551397135" lon="10.487169281991557"><ele>1606.8000000000002</ele><time>2026-05-02T12:13:04.963Z</time></trkpt><trkpt lat="44.202853858599795" lon="10.487183478582965"><ele>1605.4</ele><time>2026-05-02T12:13:05.963Z</time></trkpt><trkpt lat="44.20295027295231" lon="10.487200126649594"><ele>1604.0</ele><time>2026-05-02T12:13:06.963Z</time></trkpt><trkpt lat="44.20304967925734" lon="10.487208960333371"><ele>1603.9999999999998</ele><time>2026-05-02T12:13:07.963Z</time></trkpt><trkpt lat="44.2031359145997" lon="10.487236189165507"><ele>1604.0</ele><time>2026-05-02T12:13:08.963Z</time></trkpt><trkpt lat="44.203221328680975" lon="10.487263776888978"><ele>1604.0</ele><time>2026-05-02T12:13:09.963Z</time></trkpt><trkpt lat="44.20330178204571" lon="10.487302904924155"><ele>1604.0</ele><time>2026-05-02T12:13:10.963Z</time></trkpt><trkpt lat="44.20337669614197" lon="10.487367779611843"><ele>1603.9999999999998</ele><time>2026-05-02T12:13:11.963Z</time></trkpt><trkpt lat="44.20345823614725" lon="10.487437378320859"><ele>1604.0</ele><time>2026-05-02T12:13:12.963Z</time></trkpt><trkpt lat="44.203538522712435" lon="10.487510033149507"><ele>1604.2</ele><time>2026-05-02T12:13:13.963Z</time></trkpt><trkpt lat="44.20362991882996" lon="10.487578139020265"><ele>1604.4</ele><time>2026-05-02T12:13:14.963Z</time></trkpt><trkpt lat="44.20371723825341" lon="10.487627458084269"><ele>1604.6</ele><time>2026-05-02T12:13:15.963Z</time></trkpt><trkpt lat="44.20380383358735" lon="10.487673131577454"><ele>1604.8</ele><time>2026-05-02T12:13:16.963Z</time></trkpt><trkpt lat="44.20388953931718" lon="10.487704281820443"><ele>1605.0</ele><time>2026-05-02T12:13:17.963Z</time></trkpt><trkpt lat="44.20399064457441" lon="10.487713984060765"><ele>1605.3333333333333</ele><time>2026-05-02T12:13:18.963Z</time></trkpt><trkpt lat="44.204090615050774" lon="10.487721518474805"><ele>1605.6666666666665</ele><time>2026-05-02T12:13:19.963Z</time></trkpt><trkpt lat="44.2041742259931" lon="10.48772490539082"><ele>1606.0</ele><time>2026-05-02T12:13:20.963Z</time></trkpt><trkpt lat="44.20426092923537" lon="10.48772850387539"><ele>1606.3333333333333</ele><time>2026-05-02T12:13:21.963Z</time></trkpt><trkpt lat="44.20434516590302" lon="10.487721556299038"><ele>1606.6666666666665</ele><time>2026-05-02T12:13:22.963Z</time></trkpt><trkpt lat="44.20443662751149" lon="10.487702083778151"><ele>1607.0</ele><time>2026-05-02T12:13:23.963Z</time></trkpt><trkpt lat="44.204522704894245" lon="10.487672478635716"><ele>1606.9999999999998</ele><time>2026-05-02T12:13:24.963Z</time></trkpt><trkpt lat="44.20460091102684" lon="10.487646896017633"><ele>1607.0</ele><time>2026-05-02T12:13:25.963Z</time></trkpt><trkpt lat="44.20467334424589" lon="10.487637938468099"><ele>1607.0</ele><time>2026-05-02T12:13:26.963Z</time></trkpt><trkpt lat="44.20474171830023" lon="10.487636399959825"><ele>1607.0</ele><time>2026-05-02T12:13:27.963Z</time></trkpt><trkpt lat="44.20482495187005" lon="10.487629342474937"><ele>1606.9999999999998</ele><time>2026-05-02T12:13:28.963Z</time></trkpt><trkpt lat="44.20490766328844" lon="10.487602488207525"><ele>1607.0</ele><time>2026-05-02T12:13:29.963Z</time></trkpt><trkpt lat="44.20499448551059" lon="10.48754648481535"><ele>1603.8</ele><time>2026-05-02T12:13:30.963Z</time></trkpt><trkpt lat="44.20507024011203" lon="10.487480663522891"><ele>1600.6</ele><time>2026-05-02T12:13:31.963Z</time></trkpt><trkpt lat="44.20514404711751" lon="10.487406471903364"><ele>1597.3999999999999</ele><time>2026-05-02T12:13:32.963Z</time></trkpt><trkpt lat="44.2052100782978" lon="10.487341863601394"><ele>1594.1999999999998</ele><time>2026-05-02T12:13:33.963Z</time></trkpt><trkpt lat="44.205281969734315" lon="10.487278072006255"><ele>1591.0</ele><time>2026-05-02T12:13:34.963Z</time></trkpt><trkpt lat="44.20538338748614" lon="10.487231118022423"><ele>1591.0000000000002</ele><time>2026-05-02T12:13:36.963Z</time></trkpt><trkpt lat="44.20545516049238" lon="10.48725266191132"><ele>1591.0</ele><time>2026-05-02T12:13:37.963Z</time></trkpt><trkpt lat="44.20553870320232" lon="10.487286394624276"><ele>1591.0</ele><time>2026-05-02T12:13:38.964Z</time></trkpt><trkpt lat="44.205603859177394" lon="10.487353595474051"><ele>1591.0</ele><time>2026-05-02T12:13:39.964Z</time></trkpt><trkpt lat="44.205686081970164" lon="10.487387109832635"><ele>1591.0000000000002</ele><time>2026-05-02T12:13:40.964Z</time></trkpt><trkpt lat="44.205783301864784" lon="10.487411540102535"><ele>1591.0</ele><time>2026-05-02T12:13:41.964Z</time></trkpt><trkpt lat="44.20587651291754" lon="10.487407968647577"><ele>1588.3333333333335</ele><time>2026-05-02T12:13:42.964Z</time></trkpt><trkpt lat="44.205968702265935" lon="10.487404184535938"><ele>1585.6666666666667</ele><time>2026-05-02T12:13:43.964Z</time></trkpt><trkpt lat="44.20606840875621" lon="10.487408667395735"><ele>1583.0</ele><time>2026-05-02T12:13:44.964Z</time></trkpt><trkpt lat="44.206152902956795" lon="10.487438140254095"><ele>1580.3333333333335</ele><time>2026-05-02T12:13:45.964Z</time></trkpt><trkpt lat="44.20623041684578" lon="10.487475825921598"><ele>1577.6666666666667</ele><time>2026-05-02T12:13:46.964Z</time></trkpt><trkpt lat="44.2063059120282" lon="10.48751475271879"><ele>1575.0</ele><time>2026-05-02T12:13:47.964Z</time></trkpt><trkpt lat="44.206398506762156" lon="10.487562888396813"><ele>1573.2</ele><time>2026-05-02T12:13:48.964Z</time></trkpt><trkpt lat="44.20649888681385" lon="10.487589274763517"><ele>1571.4</ele><time>2026-05-02T12:13:49.964Z</time></trkpt><trkpt lat="44.206592207562586" lon="10.487623112137912"><ele>1569.6</ele><time>2026-05-02T12:13:50.964Z</time></trkpt><trkpt lat="44.20668439461231" lon="10.487651391237932"><ele>1567.8</ele><time>2026-05-02T12:13:51.964Z</time></trkpt><trkpt lat="44.20677417111857" lon="10.487666965545085"><ele>1566.0</ele><time>2026-05-02T12:13:52.964Z</time></trkpt><trkpt lat="44.206868321391475" lon="10.48766507549033"><ele>1566.0</ele><time>2026-05-02T12:13:53.964Z</time></trkpt><trkpt lat="44.206957945343184" lon="10.487673843709894"><ele>1566.0</ele><time>2026-05-02T12:13:54.964Z</time></trkpt><trkpt lat="44.207035537110265" lon="10.487664004502657"><ele>1566.0</ele><time>2026-05-02T12:13:55.964Z</time></trkpt><trkpt lat="44.20711264635579" lon="10.487655253971113"><ele>1566.0</ele><time>2026-05-02T12:13:56.964Z</time></trkpt><trkpt lat="44.20719586000155" lon="10.487648639361469"><ele>1566.0</ele><time>2026-05-02T12:13:57.964Z</time></trkpt><trkpt lat="44.20727601623586" lon="10.487658355863088"><ele>1566.0</ele><time>2026-05-02T12:13:58.964Z</time></trkpt><trkpt lat="44.20735467721259" lon="10.48770132787661"><ele>1563.8</ele><time>2026-05-02T12:13:59.964Z</time></trkpt><trkpt lat="44.207428132511104" lon="10.487783862297992"><ele>1561.6</ele><time>2026-05-02T12:14:00.964Z</time></trkpt><trkpt lat="44.20750735680839" lon="10.487856192490524"><ele>1559.4</ele><time>2026-05-02T12:14:01.964Z</time></trkpt><trkpt lat="44.20757096402519" lon="10.487949630894587"><ele>1557.2</ele><time>2026-05-02T12:14:02.964Z</time></trkpt><trkpt lat="44.20764691174528" lon="10.488036572054767"><ele>1555.0</ele><time>2026-05-02T12:14:03.964Z</time></trkpt><trkpt lat="44.20770911848403" lon="10.488113930745167"><ele>1551.6</ele><time>2026-05-02T12:14:04.964Z</time></trkpt><trkpt lat="44.20776747761626" lon="10.488179664979905"><ele>1548.2</ele><time>2026-05-02T12:14:05.964Z</time></trkpt><trkpt lat="44.20783440428499" lon="10.488231573383011"><ele>1544.8000000000002</ele><time>2026-05-02T12:14:06.964Z</time></trkpt><trkpt lat="44.20795706031105" lon="10.488300032852417"><ele>1541.4</ele><time>2026-05-02T12:14:08.964Z</time></trkpt><trkpt lat="44.20804785869538" lon="10.488283379149046"><ele>1538.0</ele><time>2026-05-02T12:14:09.964Z</time></trkpt><trkpt lat="44.2081482173757" lon="10.488258527264465"><ele>1537.2</ele><time>2026-05-02T12:14:10.964Z</time></trkpt><trkpt lat="44.20824142446101" lon="10.48827026960537"><ele>1536.4</ele><time>2026-05-02T12:14:11.964Z</time></trkpt><trkpt lat="44.208319596212306" lon="10.488330670114589"><ele>1535.6000000000001</ele><time>2026-05-02T12:14:12.964Z</time></trkpt><trkpt lat="44.20840568477512" lon="10.488363033849941"><ele>1534.8000000000002</ele><time>2026-05-02T12:14:13.964Z</time></trkpt><trkpt lat="44.20849317587141" lon="10.488408352587511"><ele>1534.0</ele><time>2026-05-02T12:14:14.964Z</time></trkpt><trkpt lat="44.20858123693894" lon="10.488459953428396"><ele>1534.0</ele><time>2026-05-02T12:14:15.964Z</time></trkpt><trkpt lat="44.20867211193203" lon="10.488496563307937"><ele>1534.0</ele><time>2026-05-02T12:14:16.964Z</time></trkpt><trkpt lat="44.2087675237349" lon="10.48852966819806"><ele>1534.0</ele><time>2026-05-02T12:14:17.964Z</time></trkpt><trkpt lat="44.20886038969907" lon="10.48855798653066"><ele>1534.0</ele><time>2026-05-02T12:14:18.964Z</time></trkpt><trkpt lat="44.20893225200049" lon="10.48859088278142"><ele>1534.0</ele><time>2026-05-02T12:14:19.964Z</time></trkpt><trkpt lat="44.2090310749078" lon="10.488626579580492"><ele>1532.6666666666665</ele><time>2026-05-02T12:14:21.964Z</time></trkpt><trkpt lat="44.209119679651735" lon="10.488664186603758"><ele>1531.3333333333333</ele><time>2026-05-02T12:14:23.964Z</time></trkpt><trkpt lat="44.209184894558774" lon="10.48870320850725"><ele>1530.0</ele><time>2026-05-02T12:14:25.963Z</time></trkpt><trkpt lat="44.20918844198425" lon="10.488813502069465"><ele>1528.6666666666667</ele><time>2026-05-02T12:14:28.964Z</time></trkpt><trkpt lat="44.2091327399528" lon="10.488862590055849"><ele>1527.3333333333335</ele><time>2026-05-02T12:14:29.964Z</time></trkpt><trkpt lat="44.20906767328847" lon="10.488879349968766"><ele>1526.0</ele><time>2026-05-02T12:14:30.964Z</time></trkpt><trkpt lat="44.208945666524684" lon="10.488960056947521"><ele>1523.3333333333335</ele><time>2026-05-02T12:14:32.964Z</time></trkpt><trkpt lat="44.208861985802436" lon="10.48897511064299"><ele>1520.6666666666667</ele><time>2026-05-02T12:14:33.964Z</time></trkpt><trkpt lat="44.20877654312754" lon="10.488958891970741"><ele>1518.0</ele><time>2026-05-02T12:14:34.963Z</time></trkpt><trkpt lat="44.208692483131045" lon="10.488912692944075"><ele>1515.3333333333333</ele><time>2026-05-02T12:14:35.963Z</time></trkpt><trkpt lat="44.20862022164226" lon="10.488858260993174"><ele>1512.6666666666665</ele><time>2026-05-02T12:14:36.963Z</time></trkpt><trkpt lat="44.2085407960677" lon="10.488814348500828"><ele>1510.0</ele><time>2026-05-02T12:14:37.963Z</time></trkpt><trkpt lat="44.20844901167014" lon="10.4887898896238"><ele>1510.0</ele><time>2026-05-02T12:14:38.964Z</time></trkpt><trkpt lat="44.20834906023491" lon="10.488771974753943"><ele>1510.0</ele><time>2026-05-02T12:14:39.964Z</time></trkpt><trkpt lat="44.2082545263746" lon="10.488759080324584"><ele>1510.0</ele><time>2026-05-02T12:14:40.964Z</time></trkpt><trkpt lat="44.208160315340564" lon="10.488750601596319"><ele>1510.0</ele><time>2026-05-02T12:14:41.964Z</time></trkpt><trkpt lat="44.20806581501674" lon="10.488760793634865"><ele>1510.0</ele><time>2026-05-02T12:14:42.964Z</time></trkpt><trkpt lat="44.20797798048391" lon="10.48877942854312"><ele>1510.6666666666665</ele><time>2026-05-02T12:14:43.964Z</time></trkpt><trkpt lat="44.20789969071372" lon="10.48881093741718"><ele>1511.3333333333333</ele><time>2026-05-02T12:14:44.964Z</time></trkpt><trkpt lat="44.207827568377155" lon="10.48885553492171"><ele>1512.0</ele><time>2026-05-02T12:14:45.964Z</time></trkpt><trkpt lat="44.20775287467152" lon="10.488920723246201"><ele>1512.6666666666667</ele><time>2026-05-02T12:14:46.964Z</time></trkpt><trkpt lat="44.20767428343118" lon="10.4889702459712"><ele>1513.3333333333335</ele><time>2026-05-02T12:14:47.964Z</time></trkpt><trkpt lat="44.207600193040285" lon="10.489023294442712"><ele>1514.0</ele><time>2026-05-02T12:14:48.964Z</time></trkpt><trkpt lat="44.20752896393931" lon="10.489067646054194"><ele>1514.0</ele><time>2026-05-02T12:14:49.964Z</time></trkpt><trkpt lat="44.20745605023597" lon="10.489104010359295"><ele>1514.0</ele><time>2026-05-02T12:14:50.964Z</time></trkpt><trkpt lat="44.20736962417279" lon="10.489152334203485"><ele>1514.0</ele><time>2026-05-02T12:14:51.964Z</time></trkpt><trkpt lat="44.20728414854626" lon="10.489251720296304"><ele>1514.0</ele><time>2026-05-02T12:14:52.964Z</time></trkpt><trkpt lat="44.20724412953412" lon="10.489381674994076"><ele>1514.0</ele><time>2026-05-02T12:14:53.964Z</time></trkpt><trkpt lat="44.207196495776714" lon="10.489482996003954"><ele>1512.1666666666667</ele><time>2026-05-02T12:14:54.964Z</time></trkpt><trkpt lat="44.20713776357602" lon="10.489556154682125"><ele>1510.3333333333335</ele><time>2026-05-02T12:14:55.964Z</time></trkpt><trkpt lat="44.20708956383995" lon="10.489644858004965"><ele>1508.5</ele><time>2026-05-02T12:14:56.964Z</time></trkpt><trkpt lat="44.20702206654073" lon="10.48970440128553"><ele>1506.6666666666667</ele><time>2026-05-02T12:14:57.964Z</time></trkpt><trkpt lat="44.20694449673635" lon="10.489740893597306"><ele>1504.8333333333333</ele><time>2026-05-02T12:14:58.964Z</time></trkpt><trkpt lat="44.20687135490352" lon="10.489762228564791"><ele>1503.0</ele><time>2026-05-02T12:14:59.964Z</time></trkpt><trkpt lat="44.20675704910651" lon="10.48975323436424"><ele>1503.0</ele><time>2026-05-02T12:15:01.964Z</time></trkpt><trkpt lat="44.20669339701745" lon="10.489754071284715"><ele>1503.0</ele><time>2026-05-02T12:15:02.964Z</time></trkpt><trkpt lat="44.206625955618456" lon="10.489784288378242"><ele>1503.0</ele><time>2026-05-02T12:15:03.964Z</time></trkpt><trkpt lat="44.20652080393436" lon="10.48982430593895"><ele>1503.0</ele><time>2026-05-02T12:15:04.964Z</time></trkpt><trkpt lat="44.20635963235339" lon="10.489965527095842"><ele>1503.0</ele><time>2026-05-02T12:15:05.964Z</time></trkpt><trkpt lat="44.206298812757296" lon="10.490131875903119"><ele>1502.0</ele><time>2026-05-02T12:15:06.964Z</time></trkpt><trkpt lat="44.20625412041803" lon="10.490240934093213"><ele>1501.0</ele><time>2026-05-02T12:15:07.964Z</time></trkpt><trkpt lat="44.20620245243656" lon="10.490322435883893"><ele>1500.0</ele><time>2026-05-02T12:15:08.964Z</time></trkpt><trkpt lat="44.20612043701686" lon="10.49038585695439"><ele>1499.0</ele><time>2026-05-02T12:15:09.964Z</time></trkpt><trkpt lat="44.20602024092024" lon="10.490442154420087"><ele>1498.0</ele><time>2026-05-02T12:15:10.964Z</time></trkpt><trkpt lat="44.205906288079774" lon="10.490517401387406"><ele>1498.0</ele><time>2026-05-02T12:15:11.964Z</time></trkpt><trkpt lat="44.20582156583089" lon="10.490646045197554"><ele>1498.0</ele><time>2026-05-02T12:15:12.964Z</time></trkpt><trkpt lat="44.205773825641295" lon="10.490782382271695"><ele>1498.0</ele><time>2026-05-02T12:15:13.964Z</time></trkpt><trkpt lat="44.20573337915337" lon="10.490914694781662"><ele>1498.0</ele><time>2026-05-02T12:15:14.964Z</time></trkpt><trkpt lat="44.205692586824505" lon="10.49104845737209"><ele>1498.0</ele><time>2026-05-02T12:15:15.964Z</time></trkpt><trkpt lat="44.20565054842071" lon="10.491184871457122"><ele>1497.6666666666665</ele><time>2026-05-02T12:15:16.964Z</time></trkpt><trkpt lat="44.205606329167736" lon="10.491323252095146"><ele>1497.3333333333333</ele><time>2026-05-02T12:15:17.964Z</time></trkpt><trkpt lat="44.20556615366086" lon="10.491429632341006"><ele>1497.0</ele><time>2026-05-02T12:15:18.964Z</time></trkpt><trkpt lat="44.205529894024984" lon="10.491520522704782"><ele>1496.6666666666667</ele><time>2026-05-02T12:15:19.964Z</time></trkpt><trkpt lat="44.205493661296565" lon="10.491609979270747"><ele>1496.3333333333335</ele><time>2026-05-02T12:15:20.964Z</time></trkpt><trkpt lat="44.20545077287655" lon="10.49171005249877"><ele>1496.0</ele><time>2026-05-02T12:15:21.964Z</time></trkpt><trkpt lat="44.20541520162617" lon="10.49181446299708"><ele>1496.0</ele><time>2026-05-02T12:15:22.964Z</time></trkpt><trkpt lat="44.205396730571586" lon="10.491937397023458"><ele>1496.0</ele><time>2026-05-02T12:15:23.964Z</time></trkpt><trkpt lat="44.20538950016117" lon="10.492045412666895"><ele>1496.0</ele><time>2026-05-02T12:15:24.964Z</time></trkpt><trkpt lat="44.20539045465665" lon="10.4921364589851"><ele>1496.0</ele><time>2026-05-02T12:15:25.964Z</time></trkpt><trkpt lat="44.205400728546095" lon="10.492309039920217"><ele>1496.0</ele><time>2026-05-02T12:15:27.964Z</time></trkpt><trkpt lat="44.205425988825155" lon="10.492432631537184"><ele>1496.0</ele><time>2026-05-02T12:15:28.964Z</time></trkpt><trkpt lat="44.205476532658885" lon="10.492534715201788"><ele>1494.8333333333335</ele><time>2026-05-02T12:15:29.964Z</time></trkpt><trkpt lat="44.20557096222656" lon="10.492593157302156"><ele>1493.6666666666667</ele><time>2026-05-02T12:15:30.964Z</time></trkpt><trkpt lat="44.20565445204351" lon="10.492610014592506"><ele>1492.5</ele><time>2026-05-02T12:15:31.964Z</time></trkpt><trkpt lat="44.2057226608665" lon="10.49261822543064"><ele>1491.3333333333333</ele><time>2026-05-02T12:15:32.964Z</time></trkpt><trkpt lat="44.2057872760195" lon="10.492624822626855"><ele>1490.1666666666665</ele><time>2026-05-02T12:15:33.964Z</time></trkpt><trkpt lat="44.20590805809755" lon="10.492670213492593"><ele>1489.0</ele><time>2026-05-02T12:15:35.964Z</time></trkpt><trkpt lat="44.205978803693306" lon="10.492718171710566"><ele>1487.3333333333333</ele><time>2026-05-02T12:15:36.964Z</time></trkpt><trkpt lat="44.20604434946433" lon="10.492780534769672"><ele>1485.6666666666665</ele><time>2026-05-02T12:15:37.964Z</time></trkpt><trkpt lat="44.20612130423073" lon="10.492864637840967"><ele>1484.0</ele><time>2026-05-02T12:15:38.964Z</time></trkpt><trkpt lat="44.20618767639021" lon="10.492945632140893"><ele>1482.3333333333333</ele><time>2026-05-02T12:15:39.965Z</time></trkpt><trkpt lat="44.20625205382903" lon="10.49303608692789"><ele>1480.6666666666667</ele><time>2026-05-02T12:15:40.965Z</time></trkpt><trkpt lat="44.20631344443494" lon="10.493130862115303"><ele>1479.0</ele><time>2026-05-02T12:15:41.965Z</time></trkpt><trkpt lat="44.206315766274734" lon="10.493225927922504"><ele>1479.0</ele><time>2026-05-02T12:15:42.965Z</time></trkpt><trkpt lat="44.20623273584604" lon="10.49335553830966"><ele>1479.0</ele><time>2026-05-02T12:15:44.965Z</time></trkpt><trkpt lat="44.206159113389646" lon="10.493393288282569"><ele>1479.0</ele><time>2026-05-02T12:15:45.965Z</time></trkpt><trkpt lat="44.20608290386387" lon="10.493427110272638"><ele>1479.0</ele><time>2026-05-02T12:15:46.965Z</time></trkpt><trkpt lat="44.20601069207966" lon="10.493456234583903"><ele>1479.0</ele><time>2026-05-02T12:15:47.965Z</time></trkpt><trkpt lat="44.205938677803026" lon="10.493493933648082"><ele>1479.0</ele><time>2026-05-02T12:15:48.965Z</time></trkpt><trkpt lat="44.205862017413885" lon="10.493556558602421"><ele>1479.0</ele><time>2026-05-02T12:15:49.965Z</time></trkpt><trkpt lat="44.205784352311305" lon="10.493641156393988"><ele>1479.0</ele><time>2026-05-02T12:15:50.965Z</time></trkpt><trkpt lat="44.20571512100337" lon="10.493730631679515"><ele>1479.0</ele><time>2026-05-02T12:15:51.965Z</time></trkpt><trkpt lat="44.20565365046984" lon="10.493824443211205"><ele>1479.0</ele><time>2026-05-02T12:15:52.965Z</time></trkpt><trkpt lat="44.20558546653372" lon="10.493899109335146"><ele>1479.0</ele><time>2026-05-02T12:15:53.965Z</time></trkpt><trkpt lat="44.2055205467546" lon="10.493943912364898"><ele>1479.0</ele><time>2026-05-02T12:15:54.965Z</time></trkpt><trkpt lat="44.205448937584244" lon="10.493954283695446"><ele>1474.1666666666667</ele><time>2026-05-02T12:15:55.965Z</time></trkpt><trkpt lat="44.20538220552086" lon="10.493918674366938"><ele>1469.3333333333333</ele><time>2026-05-02T12:15:56.965Z</time></trkpt><trkpt lat="44.20531140891917" lon="10.493871894552209"><ele>1464.5</ele><time>2026-05-02T12:15:57.965Z</time></trkpt><trkpt lat="44.205242576748326" lon="10.493827349971001"><ele>1459.6666666666665</ele><time>2026-05-02T12:15:58.965Z</time></trkpt><trkpt lat="44.20515687689681" lon="10.49381699698342"><ele>1454.8333333333333</ele><time>2026-05-02T12:15:59.965Z</time></trkpt><trkpt lat="44.20506963271982" lon="10.493827339786941"><ele>1450.0</ele><time>2026-05-02T12:16:00.965Z</time></trkpt><trkpt lat="44.20498417756006" lon="10.493862855831587"><ele>1450.0</ele><time>2026-05-02T12:16:01.965Z</time></trkpt><trkpt lat="44.20489747685224" lon="10.4939000394557"><ele>1450.0</ele><time>2026-05-02T12:16:02.965Z</time></trkpt><trkpt lat="44.20480912374539" lon="10.493940128551452"><ele>1450.0</ele><time>2026-05-02T12:16:03.965Z</time></trkpt><trkpt lat="44.2047179316973" lon="10.49395309706268"><ele>1450.0</ele><time>2026-05-02T12:16:04.965Z</time></trkpt><trkpt lat="44.20462324883126" lon="10.49397698575086"><ele>1450.0</ele><time>2026-05-02T12:16:05.965Z</time></trkpt><trkpt lat="44.20453220698773" lon="10.493955688960572"><ele>1448.2</ele><time>2026-05-02T12:16:06.965Z</time></trkpt><trkpt lat="44.20445853088506" lon="10.49388569940156"><ele>1446.4</ele><time>2026-05-02T12:16:07.965Z</time></trkpt><trkpt lat="44.204382616840526" lon="10.493823236784385"><ele>1444.6</ele><time>2026-05-02T12:16:08.965Z</time></trkpt><trkpt lat="44.204304152979404" lon="10.493760171443057"><ele>1442.8</ele><time>2026-05-02T12:16:09.965Z</time></trkpt><trkpt lat="44.20422057534277" lon="10.493709596361182"><ele>1441.0</ele><time>2026-05-02T12:16:10.965Z</time></trkpt><trkpt lat="44.204130291932344" lon="10.493677593109876"><ele>1443.6666666666665</ele><time>2026-05-02T12:16:11.965Z</time></trkpt><trkpt lat="44.20404921490146" lon="10.493702709141076"><ele>1446.3333333333333</ele><time>2026-05-02T12:16:12.965Z</time></trkpt><trkpt lat="44.20398178466429" lon="10.493735126847396"><ele>1449.0</ele><time>2026-05-02T12:16:13.965Z</time></trkpt><trkpt lat="44.20392750717014" lon="10.493826755755448"><ele>1451.6666666666667</ele><time>2026-05-02T12:16:14.965Z</time></trkpt><trkpt lat="44.20388613077672" lon="10.49391920306468"><ele>1454.3333333333335</ele><time>2026-05-02T12:16:15.965Z</time></trkpt><trkpt lat="44.20383295660278" lon="10.494011766540181"><ele>1457.0</ele><time>2026-05-02T12:16:16.965Z</time></trkpt><trkpt lat="44.203760140309534" lon="10.494099395224188"><ele>1457.0</ele><time>2026-05-02T12:16:17.965Z</time></trkpt><trkpt lat="44.203671938112684" lon="10.494168090368579"><ele>1457.0</ele><time>2026-05-02T12:16:18.965Z</time></trkpt><trkpt lat="44.20358635146461" lon="10.494234298184018"><ele>1457.0</ele><time>2026-05-02T12:16:19.965Z</time></trkpt><trkpt lat="44.20350798633744" lon="10.494313622817074"><ele>1457.0</ele><time>2026-05-02T12:16:20.965Z</time></trkpt><trkpt lat="44.203424249890205" lon="10.49437738897032"><ele>1457.0</ele><time>2026-05-02T12:16:21.965Z</time></trkpt><trkpt lat="44.203350547740435" lon="10.494482059719115"><ele>1459.1999999999998</ele><time>2026-05-02T12:16:22.965Z</time></trkpt><trkpt lat="44.20329135537627" lon="10.494590463903599"><ele>1461.4</ele><time>2026-05-02T12:16:23.965Z</time></trkpt><trkpt lat="44.203235796673916" lon="10.494694089642495"><ele>1463.6</ele><time>2026-05-02T12:16:24.965Z</time></trkpt><trkpt lat="44.20316974950762" lon="10.494804524169387"><ele>1465.8000000000002</ele><time>2026-05-02T12:16:25.965Z</time></trkpt><trkpt lat="44.203126698373495" lon="10.494932882465196"><ele>1468.0</ele><time>2026-05-02T12:16:26.965Z</time></trkpt><trkpt lat="44.20309038443753" lon="10.495042370982377"><ele>1468.0</ele><time>2026-05-02T12:16:27.965Z</time></trkpt><trkpt lat="44.20306982348673" lon="10.49515543119735"><ele>1468.0</ele><time>2026-05-02T12:16:28.964Z</time></trkpt><trkpt lat="44.2030322488623" lon="10.495256376123367"><ele>1468.0</ele><time>2026-05-02T12:16:29.965Z</time></trkpt><trkpt lat="44.20298280585076" lon="10.495351887005775"><ele>1468.0</ele><time>2026-05-02T12:16:30.965Z</time></trkpt><trkpt lat="44.20292121473374" lon="10.495441240362322"><ele>1468.0</ele><time>2026-05-02T12:16:31.965Z</time></trkpt><trkpt lat="44.20285575987752" lon="10.495545217875529"><ele>1468.0</ele><time>2026-05-02T12:16:32.964Z</time></trkpt><trkpt lat="44.20278817951232" lon="10.495642608660177"><ele>1460.4</ele><time>2026-05-02T12:16:33.964Z</time></trkpt><trkpt lat="44.202710149678566" lon="10.49572372331408"><ele>1452.8000000000002</ele><time>2026-05-02T12:16:34.965Z</time></trkpt><trkpt lat="44.20261954482538" lon="10.495778415690578"><ele>1445.2</ele><time>2026-05-02T12:16:35.965Z</time></trkpt><trkpt lat="44.20253813923457" lon="10.495827260708745"><ele>1437.6</ele><time>2026-05-02T12:16:36.965Z</time></trkpt><trkpt lat="44.20245329296604" lon="10.495880977738063"><ele>1430.0</ele><time>2026-05-02T12:16:37.964Z</time></trkpt><trkpt lat="44.20237628792088" lon="10.495944875525009"><ele>1432.6666666666667</ele><time>2026-05-02T12:16:38.965Z</time></trkpt><trkpt lat="44.20232446365857" lon="10.496051569985472"><ele>1435.3333333333335</ele><time>2026-05-02T12:16:39.965Z</time></trkpt><trkpt lat="44.20229272477829" lon="10.496164245575137"><ele>1438.0</ele><time>2026-05-02T12:16:40.964Z</time></trkpt><trkpt lat="44.20226885757473" lon="10.496287583031975"><ele>1440.6666666666667</ele><time>2026-05-02T12:16:41.965Z</time></trkpt><trkpt lat="44.2022754078978" lon="10.496411993824555"><ele>1443.3333333333333</ele><time>2026-05-02T12:16:42.965Z</time></trkpt><trkpt lat="44.202301113541154" lon="10.496515660599567"><ele>1446.0</ele><time>2026-05-02T12:16:43.965Z</time></trkpt><trkpt lat="44.20231240554328" lon="10.49662166479414"><ele>1446.0</ele><time>2026-05-02T12:16:44.965Z</time></trkpt><trkpt lat="44.202304467535086" lon="10.496735159637188"><ele>1446.0</ele><time>2026-05-02T12:16:45.965Z</time></trkpt><trkpt lat="44.202284619788166" lon="10.496851444702159"><ele>1446.0</ele><time>2026-05-02T12:16:46.965Z</time></trkpt><trkpt lat="44.20223234328921" lon="10.496951674393284"><ele>1446.0</ele><time>2026-05-02T12:16:47.965Z</time></trkpt><trkpt lat="44.20216215442686" lon="10.497035097611256"><ele>1446.0</ele><time>2026-05-02T12:16:48.965Z</time></trkpt><trkpt lat="44.202084139830255" lon="10.497119260421407"><ele>1446.0</ele><time>2026-05-02T12:16:49.965Z</time></trkpt><trkpt lat="44.20199247645041" lon="10.497188759256222"><ele>1440.6</ele><time>2026-05-02T12:16:50.965Z</time></trkpt><trkpt lat="44.20188909213358" lon="10.497222815153911"><ele>1435.1999999999998</ele><time>2026-05-02T12:16:51.965Z</time></trkpt><trkpt lat="44.20179934962392" lon="10.497266461761255"><ele>1429.8000000000002</ele><time>2026-05-02T12:16:52.965Z</time></trkpt><trkpt lat="44.201691229529736" lon="10.497322632473471"><ele>1424.4</ele><time>2026-05-02T12:16:53.965Z</time></trkpt><trkpt lat="44.201594917768126" lon="10.497422054708467"><ele>1419.0</ele><time>2026-05-02T12:16:54.965Z</time></trkpt><trkpt lat="44.20153385631146" lon="10.497534389415204"><ele>1419.4</ele><time>2026-05-02T12:16:55.965Z</time></trkpt><trkpt lat="44.20149616180879" lon="10.497645007121791"><ele>1419.8000000000002</ele><time>2026-05-02T12:16:56.965Z</time></trkpt><trkpt lat="44.20145870170439" lon="10.49775071143432"><ele>1420.1999999999998</ele><time>2026-05-02T12:16:57.965Z</time></trkpt><trkpt lat="44.2013903496828" lon="10.497924318081399"><ele>1420.6</ele><time>2026-05-02T12:16:59.965Z</time></trkpt><trkpt lat="44.20132711251162" lon="10.498009938709748"><ele>1421.0</ele><time>2026-05-02T12:17:00.965Z</time></trkpt><trkpt lat="44.20127381308571" lon="10.498092682075786"><ele>1421.0</ele><time>2026-05-02T12:17:01.965Z</time></trkpt><trkpt lat="44.20120480016111" lon="10.498178185463338"><ele>1421.0</ele><time>2026-05-02T12:17:02.965Z</time></trkpt><trkpt lat="44.20113074629641" lon="10.498270134226514"><ele>1421.0</ele><time>2026-05-02T12:17:03.965Z</time></trkpt><trkpt lat="44.201050824105884" lon="10.498364542656743"><ele>1421.0</ele><time>2026-05-02T12:17:04.965Z</time></trkpt><trkpt lat="44.20094493001102" lon="10.498419198488682"><ele>1421.0</ele><time>2026-05-02T12:17:05.965Z</time></trkpt><trkpt lat="44.2008433774379" lon="10.498485064494984"><ele>1421.0</ele><time>2026-05-02T12:17:06.965Z</time></trkpt><trkpt lat="44.20075448048486" lon="10.49856577623829"><ele>1421.0</ele><time>2026-05-02T12:17:07.965Z</time></trkpt><trkpt lat="44.20066261695851" lon="10.498622171574635"><ele>1421.0</ele><time>2026-05-02T12:17:08.965Z</time></trkpt><trkpt lat="44.2005655775433" lon="10.49866942143263"><ele>1421.0</ele><time>2026-05-02T12:17:09.965Z</time></trkpt><trkpt lat="44.20047491956317" lon="10.498694721494159"><ele>1421.0</ele><time>2026-05-02T12:17:10.965Z</time></trkpt><trkpt lat="44.20039055337759" lon="10.498728627357613"><ele>1419.0</ele><time>2026-05-02T12:17:11.965Z</time></trkpt><trkpt lat="44.20030996022948" lon="10.498770504685158"><ele>1417.0</ele><time>2026-05-02T12:17:12.965Z</time></trkpt><trkpt lat="44.20023614042264" lon="10.498827412677791"><ele>1415.0</ele><time>2026-05-02T12:17:13.965Z</time></trkpt><trkpt lat="44.200161107892406" lon="10.498903727034996"><ele>1413.0</ele><time>2026-05-02T12:17:14.965Z</time></trkpt><trkpt lat="44.20010044511409" lon="10.499034867971819"><ele>1411.0</ele><time>2026-05-02T12:17:15.965Z</time></trkpt><trkpt lat="44.2000418099452" lon="10.499143359549253"><ele>1411.0</ele><time>2026-05-02T12:17:16.965Z</time></trkpt><trkpt lat="44.19996988619687" lon="10.499235564500692"><ele>1411.0</ele><time>2026-05-02T12:17:17.965Z</time></trkpt><trkpt lat="44.19988635015791" lon="10.499308673591754"><ele>1411.0</ele><time>2026-05-02T12:17:18.965Z</time></trkpt><trkpt lat="44.199797540623486" lon="10.49938135250244"><ele>1411.0</ele><time>2026-05-02T12:17:19.965Z</time></trkpt><trkpt lat="44.19972646606837" lon="10.49947581907035"><ele>1411.0</ele><time>2026-05-02T12:17:20.965Z</time></trkpt><trkpt lat="44.19965263796718" lon="10.499608634018573"><ele>1410.5</ele><time>2026-05-02T12:17:21.965Z</time></trkpt><trkpt lat="44.19956299261026" lon="10.499728004949473"><ele>1410.0</ele><time>2026-05-02T12:17:22.965Z</time></trkpt><trkpt lat="44.19949308862781" lon="10.499858176877872"><ele>1409.5</ele><time>2026-05-02T12:17:23.965Z</time></trkpt><trkpt lat="44.199437144953755" lon="10.49999005953392"><ele>1409.0</ele><time>2026-05-02T12:17:24.965Z</time></trkpt><trkpt lat="44.19938879000614" lon="10.500159868033178"><ele>1409.0</ele><time>2026-05-02T12:17:25.965Z</time></trkpt><trkpt lat="44.19936036093589" lon="10.500299112415481"><ele>1409.0</ele><time>2026-05-02T12:17:26.965Z</time></trkpt><trkpt lat="44.199323735112515" lon="10.500451491810965"><ele>1409.0</ele><time>2026-05-02T12:17:27.965Z</time></trkpt><trkpt lat="44.19926193162286" lon="10.500586601099094"><ele>1409.0</ele><time>2026-05-02T12:17:28.965Z</time></trkpt><trkpt lat="44.19918355712882" lon="10.50069688856167"><ele>1409.0</ele><time>2026-05-02T12:17:29.965Z</time></trkpt><trkpt lat="44.199090654834535" lon="10.50077417926189"><ele>1408.8000000000002</ele><time>2026-05-02T12:17:30.965Z</time></trkpt><trkpt lat="44.198992772612016" lon="10.50082303619296"><ele>1408.6000000000001</ele><time>2026-05-02T12:17:31.965Z</time></trkpt><trkpt lat="44.19889937053128" lon="10.500887791010282"><ele>1408.4</ele><time>2026-05-02T12:17:32.965Z</time></trkpt><trkpt lat="44.19882009036277" lon="10.500971030369186"><ele>1408.2</ele><time>2026-05-02T12:17:33.965Z</time></trkpt><trkpt lat="44.198754567083256" lon="10.50106513441846"><ele>1408.0</ele><time>2026-05-02T12:17:34.965Z</time></trkpt><trkpt lat="44.19870273419245" lon="10.50117638735185"><ele>1402.2</ele><time>2026-05-02T12:17:35.966Z</time></trkpt><trkpt lat="44.19864834747124" lon="10.50128329821495"><ele>1396.4</ele><time>2026-05-02T12:17:36.966Z</time></trkpt><trkpt lat="44.198569781881595" lon="10.501352279753235"><ele>1390.6000000000001</ele><time>2026-05-02T12:17:37.966Z</time></trkpt><trkpt lat="44.19848988253063" lon="10.501420198065606"><ele>1384.8000000000002</ele><time>2026-05-02T12:17:38.966Z</time></trkpt><trkpt lat="44.19840459048455" lon="10.501476330885726"><ele>1379.0</ele><time>2026-05-02T12:17:39.966Z</time></trkpt><trkpt lat="44.19831143609281" lon="10.501531621725483"><ele>1379.0</ele><time>2026-05-02T12:17:40.966Z</time></trkpt><trkpt lat="44.19821502321006" lon="10.501583099814743"><ele>1379.0</ele><time>2026-05-02T12:17:41.966Z</time></trkpt><trkpt lat="44.19812441077206" lon="10.50163339780054"><ele>1379.0</ele><time>2026-05-02T12:17:42.966Z</time></trkpt><trkpt lat="44.19804079365235" lon="10.501683815256161"><ele>1379.0</ele><time>2026-05-02T12:17:43.966Z</time></trkpt><trkpt lat="44.19798224247698" lon="10.501775285080663"><ele>1379.0</ele><time>2026-05-02T12:17:44.966Z</time></trkpt><trkpt lat="44.19795181094614" lon="10.50188179410875"><ele>1380.1666666666667</ele><time>2026-05-02T12:17:45.966Z</time></trkpt><trkpt lat="44.19793359437502" lon="10.501986809036023"><ele>1381.3333333333335</ele><time>2026-05-02T12:17:46.966Z</time></trkpt><trkpt lat="44.19792263125236" lon="10.502106068657802"><ele>1382.5</ele><time>2026-05-02T12:17:47.966Z</time></trkpt><trkpt lat="44.19791315069401" lon="10.502233417254796"><ele>1383.6666666666667</ele><time>2026-05-02T12:17:48.966Z</time></trkpt><trkpt lat="44.19790003131578" lon="10.502350773194847"><ele>1384.8333333333333</ele><time>2026-05-02T12:17:49.966Z</time></trkpt><trkpt lat="44.19787417795798" lon="10.502457741600145"><ele>1386.0</ele><time>2026-05-02T12:17:50.966Z</time></trkpt><trkpt lat="44.1978332597681" lon="10.502555080896418"><ele>1386.0</ele><time>2026-05-02T12:17:51.966Z</time></trkpt><trkpt lat="44.19775769576964" lon="10.502598774111375"><ele>1386.0</ele><time>2026-05-02T12:17:52.966Z</time></trkpt><trkpt lat="44.19768438209383" lon="10.502626127773953"><ele>1386.0</ele><time>2026-05-02T12:17:53.966Z</time></trkpt><trkpt lat="44.19763419708773" lon="10.502703825854951"><ele>1386.0</ele><time>2026-05-02T12:17:54.966Z</time></trkpt><trkpt lat="44.19760302535138" lon="10.50281074967733"><ele>1386.0</ele><time>2026-05-02T12:17:55.966Z</time></trkpt><trkpt lat="44.19763242188408" lon="10.502939794501707"><ele>1386.0</ele><time>2026-05-02T12:17:56.966Z</time></trkpt><trkpt lat="44.197671853190876" lon="10.503025052781785"><ele>1383.5</ele><time>2026-05-02T12:17:57.966Z</time></trkpt><trkpt lat="44.197709058914924" lon="10.503119020426471"><ele>1381.0</ele><time>2026-05-02T12:17:58.966Z</time></trkpt><trkpt lat="44.19773425890385" lon="10.503220944494078"><ele>1378.5</ele><time>2026-05-02T12:17:59.966Z</time></trkpt><trkpt lat="44.1977425239083" lon="10.503329703477274"><ele>1376.0</ele><time>2026-05-02T12:18:00.966Z</time></trkpt><trkpt lat="44.19774252420281" lon="10.503433867561638"><ele>1373.5</ele><time>2026-05-02T12:18:01.966Z</time></trkpt><trkpt lat="44.197686361374664" lon="10.503510237969643"><ele>1371.0</ele><time>2026-05-02T12:18:02.966Z</time></trkpt><trkpt lat="44.19760519938273" lon="10.503562773940176"><ele>1371.0</ele><time>2026-05-02T12:18:03.966Z</time></trkpt><trkpt lat="44.19753014507857" lon="10.503595560155613"><ele>1371.0</ele><time>2026-05-02T12:18:04.966Z</time></trkpt><trkpt lat="44.19745249069546" lon="10.503634503707303"><ele>1371.0</ele><time>2026-05-02T12:18:05.966Z</time></trkpt><trkpt lat="44.19737305805233" lon="10.503675628739073"><ele>1371.0</ele><time>2026-05-02T12:18:06.966Z</time></trkpt><trkpt lat="44.19729112538067" lon="10.503723947695303"><ele>1371.0</ele><time>2026-05-02T12:18:07.966Z</time></trkpt><trkpt lat="44.19721146223654" lon="10.503782561656186"><ele>1371.0</ele><time>2026-05-02T12:18:08.966Z</time></trkpt><trkpt lat="44.197132270557226" lon="10.503852016438227"><ele>1374.0</ele><time>2026-05-02T12:18:09.966Z</time></trkpt><trkpt lat="44.197078365401275" lon="10.503975546306402"><ele>1377.0</ele><time>2026-05-02T12:18:10.966Z</time></trkpt><trkpt lat="44.19704760733596" lon="10.504111032187902"><ele>1380.0</ele><time>2026-05-02T12:18:11.966Z</time></trkpt><trkpt lat="44.197033337246125" lon="10.504240904857918"><ele>1383.0</ele><time>2026-05-02T12:18:12.966Z</time></trkpt><trkpt lat="44.197016389094664" lon="10.50437253105579"><ele>1386.0</ele><time>2026-05-02T12:18:13.966Z</time></trkpt><trkpt lat="44.196995777780856" lon="10.504509585744202"><ele>1383.0</ele><time>2026-05-02T12:18:14.966Z</time></trkpt><trkpt lat="44.19697158821347" lon="10.504661107988326"><ele>1380.0</ele><time>2026-05-02T12:18:15.966Z</time></trkpt><trkpt lat="44.19694399287869" lon="10.504817282233429"><ele>1377.0</ele><time>2026-05-02T12:18:16.966Z</time></trkpt><trkpt lat="44.19692483908105" lon="10.50497678603983"><ele>1374.0</ele><time>2026-05-02T12:18:17.966Z</time></trkpt><trkpt lat="44.19690171435028" lon="10.505131982392998"><ele>1374.0</ele><time>2026-05-02T12:18:18.966Z</time></trkpt><trkpt lat="44.19687915163574" lon="10.505283147261201"><ele>1374.0</ele><time>2026-05-02T12:18:19.966Z</time></trkpt><trkpt lat="44.19685867894641" lon="10.505425256009639"><ele>1374.0</ele><time>2026-05-02T12:18:20.966Z</time></trkpt><trkpt lat="44.196829584778705" lon="10.505545604707605"><ele>1374.0</ele><time>2026-05-02T12:18:21.966Z</time></trkpt><trkpt lat="44.19681802176703" lon="10.505677350145408"><ele>1374.0</ele><time>2026-05-02T12:18:22.966Z</time></trkpt><trkpt lat="44.196806780691745" lon="10.505807171057109"><ele>1372.0</ele><time>2026-05-02T12:18:23.966Z</time></trkpt><trkpt lat="44.196793023803664" lon="10.505928433456534"><ele>1370.0</ele><time>2026-05-02T12:18:24.966Z</time></trkpt><trkpt lat="44.19676597000566" lon="10.506046279540653"><ele>1368.0</ele><time>2026-05-02T12:18:25.966Z</time></trkpt><trkpt lat="44.19675033172305" lon="10.506172998946997"><ele>1366.0</ele><time>2026-05-02T12:18:26.966Z</time></trkpt><trkpt lat="44.196719907696206" lon="10.506300598028378"><ele>1364.0</ele><time>2026-05-02T12:18:27.966Z</time></trkpt><trkpt lat="44.19668309124589" lon="10.506424521724965"><ele>1362.2</ele><time>2026-05-02T12:18:28.966Z</time></trkpt><trkpt lat="44.19662917329028" lon="10.506537409354785"><ele>1360.4</ele><time>2026-05-02T12:18:29.966Z</time></trkpt><trkpt lat="44.19658454859773" lon="10.506650452112202"><ele>1358.6</ele><time>2026-05-02T12:18:30.966Z</time></trkpt><trkpt lat="44.19653637232694" lon="10.506777775033047"><ele>1356.8</ele><time>2026-05-02T12:18:31.966Z</time></trkpt><trkpt lat="44.19651700384569" lon="10.506913171534265"><ele>1355.0</ele><time>2026-05-02T12:18:32.966Z</time></trkpt><trkpt lat="44.196521659313916" lon="10.507057225597096"><ele>1353.0</ele><time>2026-05-02T12:18:33.966Z</time></trkpt><trkpt lat="44.19653285272849" lon="10.507190113118993"><ele>1351.0</ele><time>2026-05-02T12:18:34.966Z</time></trkpt><trkpt lat="44.19654173342316" lon="10.507309441239023"><ele>1349.0</ele><time>2026-05-02T12:18:35.966Z</time></trkpt><trkpt lat="44.19654430003931" lon="10.507402354753276"><ele>1347.0</ele><time>2026-05-02T12:18:36.966Z</time></trkpt><trkpt lat="44.19652489654213" lon="10.507500023810408"><ele>1345.0</ele><time>2026-05-02T12:18:37.966Z</time></trkpt><trkpt lat="44.19647139202865" lon="10.507590099091175"><ele>1343.0</ele><time>2026-05-02T12:18:38.966Z</time></trkpt><trkpt lat="44.19641935465782" lon="10.507685560611755"><ele>1345.8000000000002</ele><time>2026-05-02T12:18:39.966Z</time></trkpt><trkpt lat="44.196366059700786" lon="10.5077706042059"><ele>1348.6</ele><time>2026-05-02T12:18:40.966Z</time></trkpt><trkpt lat="44.19631129289861" lon="10.507872010557437"><ele>1351.4</ele><time>2026-05-02T12:18:41.966Z</time></trkpt><trkpt lat="44.196256251353184" lon="10.507983153049366"><ele>1354.1999999999998</ele><time>2026-05-02T12:18:42.966Z</time></trkpt><trkpt lat="44.19623622095218" lon="10.50812294073197"><ele>1357.0</ele><time>2026-05-02T12:18:43.966Z</time></trkpt><trkpt lat="44.19619479460236" lon="10.50824783249159"><ele>1357.0</ele><time>2026-05-02T12:18:44.966Z</time></trkpt><trkpt lat="44.196133915230746" lon="10.50834820609077"><ele>1357.0</ele><time>2026-05-02T12:18:45.966Z</time></trkpt><trkpt lat="44.19608690325166" lon="10.508467652707877"><ele>1357.0</ele><time>2026-05-02T12:18:46.966Z</time></trkpt><trkpt lat="44.19605083252698" lon="10.508578658385032"><ele>1357.0</ele><time>2026-05-02T12:18:47.967Z</time></trkpt><trkpt lat="44.19600327872355" lon="10.508682251277746"><ele>1357.0</ele><time>2026-05-02T12:18:48.967Z</time></trkpt><trkpt lat="44.19597120877954" lon="10.508819363826854"><ele>1353.3999999999999</ele><time>2026-05-02T12:18:49.967Z</time></trkpt><trkpt lat="44.19590280442796" lon="10.508949479070179"><ele>1349.8</ele><time>2026-05-02T12:18:50.967Z</time></trkpt><trkpt lat="44.19582805605214" lon="10.509043555389022"><ele>1346.2</ele><time>2026-05-02T12:18:51.967Z</time></trkpt><trkpt lat="44.19575337708258" lon="10.50913445643243"><ele>1342.6</ele><time>2026-05-02T12:18:52.967Z</time></trkpt><trkpt lat="44.19570048923718" lon="10.509248142062047"><ele>1339.0</ele><time>2026-05-02T12:18:53.967Z</time></trkpt><trkpt lat="44.19567568572204" lon="10.509396992197432"><ele>1340.75</ele><time>2026-05-02T12:18:54.967Z</time></trkpt><trkpt lat="44.195654216345886" lon="10.509559370728928"><ele>1342.5</ele><time>2026-05-02T12:18:55.967Z</time></trkpt><trkpt lat="44.19564670516147" lon="10.509736002272415"><ele>1344.25</ele><time>2026-05-02T12:18:56.967Z</time></trkpt><trkpt lat="44.195639122594514" lon="10.50990177977406"><ele>1346.0</ele><time>2026-05-02T12:18:57.967Z</time></trkpt><trkpt lat="44.195631016508976" lon="10.510067314813316"><ele>1346.0</ele><time>2026-05-02T12:18:58.967Z</time></trkpt><trkpt lat="44.19562428042048" lon="10.510226312599011"><ele>1346.0</ele><time>2026-05-02T12:18:59.967Z</time></trkpt><trkpt lat="44.19561757697347" lon="10.51037779165624"><ele>1346.0</ele><time>2026-05-02T12:19:00.967Z</time></trkpt><trkpt lat="44.1956148102773" lon="10.510489094290493"><ele>1346.0</ele><time>2026-05-02T12:19:01.967Z</time></trkpt><trkpt lat="44.19561235419677" lon="10.510622084484007"><ele>1346.0</ele><time>2026-05-02T12:19:02.967Z</time></trkpt><trkpt lat="44.19561929015959" lon="10.510821031342699"><ele>1344.6</ele><time>2026-05-02T12:19:04.967Z</time></trkpt><trkpt lat="44.19563734826968" lon="10.51096201038009"><ele>1343.1999999999998</ele><time>2026-05-02T12:19:05.967Z</time></trkpt><trkpt lat="44.19565960685529" lon="10.511094142141173"><ele>1341.8000000000002</ele><time>2026-05-02T12:19:06.967Z</time></trkpt><trkpt lat="44.19568261547794" lon="10.51123072610968"><ele>1340.4</ele><time>2026-05-02T12:19:07.967Z</time></trkpt><trkpt lat="44.195718707546796" lon="10.511366413662177"><ele>1339.0</ele><time>2026-05-02T12:19:08.967Z</time></trkpt><trkpt lat="44.195732658285735" lon="10.511506589864823"><ele>1336.4</ele><time>2026-05-02T12:19:09.967Z</time></trkpt><trkpt lat="44.19576001168254" lon="10.511640780009051"><ele>1333.8000000000002</ele><time>2026-05-02T12:19:10.967Z</time></trkpt><trkpt lat="44.19578528297457" lon="10.511773384532022"><ele>1331.1999999999998</ele><time>2026-05-02T12:19:11.967Z</time></trkpt><trkpt lat="44.19581294014373" lon="10.51191435509387"><ele>1328.6</ele><time>2026-05-02T12:19:12.967Z</time></trkpt><trkpt lat="44.195836694563965" lon="10.51204524424934"><ele>1326.0</ele><time>2026-05-02T12:19:13.967Z</time></trkpt><trkpt lat="44.19586951695419" lon="10.512175579514635"><ele>1326.0</ele><time>2026-05-02T12:19:14.967Z</time></trkpt><trkpt lat="44.19592518968371" lon="10.512289321774805"><ele>1326.0</ele><time>2026-05-02T12:19:15.967Z</time></trkpt><trkpt lat="44.195997236547875" lon="10.51240140051492"><ele>1326.0</ele><time>2026-05-02T12:19:16.967Z</time></trkpt><trkpt lat="44.19608130867555" lon="10.512488384111682"><ele>1326.0</ele><time>2026-05-02T12:19:17.967Z</time></trkpt><trkpt lat="44.196174522588905" lon="10.512558663660243"><ele>1326.0</ele><time>2026-05-02T12:19:18.967Z</time></trkpt><trkpt lat="44.196271499534696" lon="10.512621544593014"><ele>1326.0</ele><time>2026-05-02T12:19:19.967Z</time></trkpt><trkpt lat="44.19637709010948" lon="10.512688704672547"><ele>1326.0</ele><time>2026-05-02T12:19:20.967Z</time></trkpt><trkpt lat="44.19648730448873" lon="10.51273225446274"><ele>1326.0</ele><time>2026-05-02T12:19:21.967Z</time></trkpt><trkpt lat="44.19657864528805" lon="10.512805635874123"><ele>1326.0</ele><time>2026-05-02T12:19:22.967Z</time></trkpt><trkpt lat="44.19667684579763" lon="10.512864844751798"><ele>1326.0</ele><time>2026-05-02T12:19:23.967Z</time></trkpt><trkpt lat="44.19677007246504" lon="10.51292395411093"><ele>1325.8</ele><time>2026-05-02T12:19:24.967Z</time></trkpt><trkpt lat="44.19685867762551" lon="10.512982964463678"><ele>1325.6</ele><time>2026-05-02T12:19:25.967Z</time></trkpt><trkpt lat="44.19694910659487" lon="10.513020804112047"><ele>1325.4</ele><time>2026-05-02T12:19:26.967Z</time></trkpt><trkpt lat="44.197040544291326" lon="10.513029020448682"><ele>1325.2</ele><time>2026-05-02T12:19:27.967Z</time></trkpt><trkpt lat="44.19713593234214" lon="10.513038212362577"><ele>1325.0</ele><time>2026-05-02T12:19:28.967Z</time></trkpt><trkpt lat="44.19722897365588" lon="10.512998081077496"><ele>1325.0</ele><time>2026-05-02T12:19:29.967Z</time></trkpt><trkpt lat="44.197319253565816" lon="10.512924806366108"><ele>1325.0</ele><time>2026-05-02T12:19:30.967Z</time></trkpt><trkpt lat="44.19739829416236" lon="10.512841360154358"><ele>1325.0</ele><time>2026-05-02T12:19:31.967Z</time></trkpt><trkpt lat="44.19747229748042" lon="10.512751019770024"><ele>1325.0</ele><time>2026-05-02T12:19:32.967Z</time></trkpt><trkpt lat="44.197547479672245" lon="10.512655323893576"><ele>1325.0</ele><time>2026-05-02T12:19:33.967Z</time></trkpt><trkpt lat="44.19761505156908" lon="10.512539915089741"><ele>1323.4</ele><time>2026-05-02T12:19:34.967Z</time></trkpt><trkpt lat="44.197706219772805" lon="10.512457101343784"><ele>1321.8</ele><time>2026-05-02T12:19:35.967Z</time></trkpt><trkpt lat="44.19778472234646" lon="10.512392019776529"><ele>1320.1999999999998</ele><time>2026-05-02T12:19:36.967Z</time></trkpt><trkpt lat="44.197853136862946" lon="10.512347152857238"><ele>1318.6</ele><time>2026-05-02T12:19:37.967Z</time></trkpt><trkpt lat="44.197924227975506" lon="10.512309738239146"><ele>1317.0</ele><time>2026-05-02T12:19:38.967Z</time></trkpt><trkpt lat="44.19802538182878" lon="10.5123698491189"><ele>1317.0</ele><time>2026-05-02T12:19:40.967Z</time></trkpt><trkpt lat="44.19806935768332" lon="10.512449975725627"><ele>1317.0</ele><time>2026-05-02T12:19:41.967Z</time></trkpt><trkpt lat="44.19809589020371" lon="10.51253984361136"><ele>1317.0</ele><time>2026-05-02T12:19:42.967Z</time></trkpt><trkpt lat="44.198117244936014" lon="10.512653884027516"><ele>1317.0</ele><time>2026-05-02T12:19:43.967Z</time></trkpt><trkpt lat="44.19813707356251" lon="10.512790118304677"><ele>1317.0</ele><time>2026-05-02T12:19:44.967Z</time></trkpt><trkpt lat="44.19815493291024" lon="10.512929671596737"><ele>1317.0</ele><time>2026-05-02T12:19:45.967Z</time></trkpt><trkpt lat="44.19815121795356" lon="10.513086777024581"><ele>1317.1666666666667</ele><time>2026-05-02T12:19:46.967Z</time></trkpt><trkpt lat="44.19813171225926" lon="10.513242565535027"><ele>1317.3333333333333</ele><time>2026-05-02T12:19:47.967Z</time></trkpt><trkpt lat="44.1981018673508" lon="10.513361228677972"><ele>1317.5</ele><time>2026-05-02T12:19:48.968Z</time></trkpt><trkpt lat="44.19806860632259" lon="10.513459732626456"><ele>1317.6666666666665</ele><time>2026-05-02T12:19:49.968Z</time></trkpt><trkpt lat="44.19806455961605" lon="10.513563713364265"><ele>1317.8333333333333</ele><time>2026-05-02T12:19:50.968Z</time></trkpt><trkpt lat="44.19808784574557" lon="10.51364794999739"><ele>1318.0</ele><time>2026-05-02T12:19:51.968Z</time></trkpt><trkpt lat="44.198124543607186" lon="10.51375042422761"><ele>1315.2</ele><time>2026-05-02T12:19:52.968Z</time></trkpt><trkpt lat="44.19817893193965" lon="10.5138363900284"><ele>1312.4</ele><time>2026-05-02T12:19:53.968Z</time></trkpt><trkpt lat="44.198242528674626" lon="10.513915572559464"><ele>1309.6000000000001</ele><time>2026-05-02T12:19:54.968Z</time></trkpt><trkpt lat="44.198293298778495" lon="10.514027773021713"><ele>1306.8000000000002</ele><time>2026-05-02T12:19:56.968Z</time></trkpt><trkpt lat="44.198328219974066" lon="10.514183642766156"><ele>1304.0</ele><time>2026-05-02T12:19:57.968Z</time></trkpt><trkpt lat="44.19826028089213" lon="10.514313435000822"><ele>1304.0</ele><time>2026-05-02T12:19:58.968Z</time></trkpt><trkpt lat="44.19820111421094" lon="10.514403968471004"><ele>1304.0</ele><time>2026-05-02T12:19:59.968Z</time></trkpt><trkpt lat="44.198131153801434" lon="10.514511017787886"><ele>1304.0</ele><time>2026-05-02T12:20:00.968Z</time></trkpt><trkpt lat="44.19805815807759" lon="10.51459844282866"><ele>1304.0</ele><time>2026-05-02T12:20:01.968Z</time></trkpt><trkpt lat="44.19799360698782" lon="10.514711302815765"><ele>1304.0</ele><time>2026-05-02T12:20:02.968Z</time></trkpt><trkpt lat="44.197958598327844" lon="10.514846636022028"><ele>1304.8000000000002</ele><time>2026-05-02T12:20:03.968Z</time></trkpt><trkpt lat="44.19791129671743" lon="10.514971130523906"><ele>1305.6000000000001</ele><time>2026-05-02T12:20:04.968Z</time></trkpt><trkpt lat="44.197862430873585" lon="10.515084123317667"><ele>1306.4</ele><time>2026-05-02T12:20:05.968Z</time></trkpt><trkpt lat="44.1978095281562" lon="10.515178872454772"><ele>1307.2</ele><time>2026-05-02T12:20:06.968Z</time></trkpt><trkpt lat="44.19775131767006" lon="10.515295050023713"><ele>1308.0</ele><time>2026-05-02T12:20:07.968Z</time></trkpt><trkpt lat="44.19771428037812" lon="10.515398573234778"><ele>1303.5</ele><time>2026-05-02T12:20:08.968Z</time></trkpt><trkpt lat="44.197646880280274" lon="10.515491715389627"><ele>1299.0</ele><time>2026-05-02T12:20:09.968Z</time></trkpt><trkpt lat="44.19758328313418" lon="10.515548392432423"><ele>1294.5</ele><time>2026-05-02T12:20:10.968Z</time></trkpt><trkpt lat="44.19746876020444" lon="10.51561516378148"><ele>1290.0</ele><time>2026-05-02T12:20:11.968Z</time></trkpt><trkpt lat="44.19735106062253" lon="10.515800447140046"><ele>1291.8</ele><time>2026-05-02T12:20:12.968Z</time></trkpt><trkpt lat="44.19724737630321" lon="10.515941582816275"><ele>1293.6</ele><time>2026-05-02T12:20:15.968Z</time></trkpt><trkpt lat="44.1971639571918" lon="10.515996767198851"><ele>1295.4</ele><time>2026-05-02T12:20:16.968Z</time></trkpt><trkpt lat="44.1970835184876" lon="10.51601288066211"><ele>1297.2</ele><time>2026-05-02T12:20:17.968Z</time></trkpt><trkpt lat="44.19700063833567" lon="10.516032890590639"><ele>1299.0</ele><time>2026-05-02T12:20:18.968Z</time></trkpt><trkpt lat="44.196911671576764" lon="10.516065628089068"><ele>1299.0</ele><time>2026-05-02T12:20:19.968Z</time></trkpt><trkpt lat="44.196825509960284" lon="10.516119387678488"><ele>1299.0</ele><time>2026-05-02T12:20:20.968Z</time></trkpt><trkpt lat="44.19676012090113" lon="10.516200049441654"><ele>1299.0</ele><time>2026-05-02T12:20:21.968Z</time></trkpt><trkpt lat="44.19667889673684" lon="10.516286320496917"><ele>1299.0</ele><time>2026-05-02T12:20:22.968Z</time></trkpt><trkpt lat="44.19659626349963" lon="10.51637596841637"><ele>1299.0</ele><time>2026-05-02T12:20:23.968Z</time></trkpt><trkpt lat="44.19651795946513" lon="10.516460919510406"><ele>1297.0</ele><time>2026-05-02T12:20:24.968Z</time></trkpt><trkpt lat="44.19644031319434" lon="10.516565581782498"><ele>1295.0</ele><time>2026-05-02T12:20:25.968Z</time></trkpt><trkpt lat="44.196373605659204" lon="10.51663825090297"><ele>1293.0</ele><time>2026-05-02T12:20:26.968Z</time></trkpt><trkpt lat="44.1963042553826" lon="10.516732955908422"><ele>1291.0</ele><time>2026-05-02T12:20:27.968Z</time></trkpt><trkpt lat="44.19624878758978" lon="10.51682135276089"><ele>1289.0</ele><time>2026-05-02T12:20:28.968Z</time></trkpt><trkpt lat="44.196222240566705" lon="10.51695497776422"><ele>1288.4</ele><time>2026-05-02T12:20:29.968Z</time></trkpt><trkpt lat="44.19622763185364" lon="10.517074818408515"><ele>1287.8000000000002</ele><time>2026-05-02T12:20:30.968Z</time></trkpt><trkpt lat="44.196258389729046" lon="10.517181915393593"><ele>1287.1999999999998</ele><time>2026-05-02T12:20:31.968Z</time></trkpt><trkpt lat="44.196309311116615" lon="10.517283774789288"><ele>1286.6</ele><time>2026-05-02T12:20:32.968Z</time></trkpt><trkpt lat="44.196384199229065" lon="10.517370252134427"><ele>1286.0</ele><time>2026-05-02T12:20:33.968Z</time></trkpt><trkpt lat="44.196476684887884" lon="10.517432240244927"><ele>1284.3999999999999</ele><time>2026-05-02T12:20:34.968Z</time></trkpt><trkpt lat="44.196567160093416" lon="10.517475578959475"><ele>1282.8</ele><time>2026-05-02T12:20:35.968Z</time></trkpt><trkpt lat="44.19665331752042" lon="10.517520042317575"><ele>1281.1999999999998</ele><time>2026-05-02T12:20:36.968Z</time></trkpt><trkpt lat="44.1967757371988" lon="10.51755283842723"><ele>1279.6</ele><time>2026-05-02T12:20:37.968Z</time></trkpt><trkpt lat="44.19686151111231" lon="10.517605971656257"><ele>1278.0</ele><time>2026-05-02T12:20:38.968Z</time></trkpt><trkpt lat="44.19693899285843" lon="10.517664218463617"><ele>1278.0</ele><time>2026-05-02T12:20:39.967Z</time></trkpt><trkpt lat="44.197005565034694" lon="10.517724663804337"><ele>1278.0</ele><time>2026-05-02T12:20:40.968Z</time></trkpt><trkpt lat="44.197074466363546" lon="10.517809182603136"><ele>1278.0</ele><time>2026-05-02T12:20:41.968Z</time></trkpt><trkpt lat="44.197124665867776" lon="10.517896244536146"><ele>1278.0</ele><time>2026-05-02T12:20:42.968Z</time></trkpt><trkpt lat="44.19718418804242" lon="10.517987548829907"><ele>1278.0</ele><time>2026-05-02T12:20:43.967Z</time></trkpt><trkpt lat="44.197241404735024" lon="10.518095227310111"><ele>1278.0</ele><time>2026-05-02T12:20:44.967Z</time></trkpt><trkpt lat="44.19729887149461" lon="10.518203368143354"><ele>1278.2</ele><time>2026-05-02T12:20:45.967Z</time></trkpt><trkpt lat="44.197369658543494" lon="10.518318030899001"><ele>1278.4</ele><time>2026-05-02T12:20:46.967Z</time></trkpt><trkpt lat="44.197421043293375" lon="10.518427623456558"><ele>1278.6000000000001</ele><time>2026-05-02T12:20:47.967Z</time></trkpt><trkpt lat="44.197478071896114" lon="10.518530006525182"><ele>1278.8</ele><time>2026-05-02T12:20:48.967Z</time></trkpt><trkpt lat="44.197545592337846" lon="10.518650250870524"><ele>1279.0</ele><time>2026-05-02T12:20:49.967Z</time></trkpt><trkpt lat="44.197605428233544" lon="10.518790344649844"><ele>1279.0</ele><time>2026-05-02T12:20:50.967Z</time></trkpt><trkpt lat="44.19766063965271" lon="10.518926514000002"><ele>1279.0</ele><time>2026-05-02T12:20:51.967Z</time></trkpt><trkpt lat="44.19771978920013" lon="10.519052379982897"><ele>1279.0</ele><time>2026-05-02T12:20:52.967Z</time></trkpt><trkpt lat="44.19774475901977" lon="10.519172439976044"><ele>1279.0</ele><time>2026-05-02T12:20:53.967Z</time></trkpt><trkpt lat="44.19779101724495" lon="10.51928754768566"><ele>1279.0</ele><time>2026-05-02T12:20:54.967Z</time></trkpt><trkpt lat="44.19783116992873" lon="10.519405151931439"><ele>1279.0</ele><time>2026-05-02T12:20:55.967Z</time></trkpt><trkpt lat="44.19786150191326" lon="10.519520795357675"><ele>1279.0</ele><time>2026-05-02T12:20:56.967Z</time></trkpt><trkpt lat="44.19789421492668" lon="10.51964116046631"><ele>1279.0</ele><time>2026-05-02T12:20:57.967Z</time></trkpt><trkpt lat="44.197928818121945" lon="10.519751590841986"><ele>1279.0</ele><time>2026-05-02T12:20:58.967Z</time></trkpt><trkpt lat="44.19794497631304" lon="10.519871680334086"><ele>1279.0</ele><time>2026-05-02T12:20:59.967Z</time></trkpt><trkpt lat="44.19791279406955" lon="10.519990361694163"><ele>1279.0</ele><time>2026-05-02T12:21:00.967Z</time></trkpt><trkpt lat="44.19787521901876" lon="10.520109305071104"><ele>1279.0</ele><time>2026-05-02T12:21:01.967Z</time></trkpt><trkpt lat="44.19780665941176" lon="10.520199335409643"><ele>1279.0</ele><time>2026-05-02T12:21:02.967Z</time></trkpt><trkpt lat="44.19773724332588" lon="10.520278381089371"><ele>1279.0</ele><time>2026-05-02T12:21:03.967Z</time></trkpt><trkpt lat="44.19766928368578" lon="10.520373386290856"><ele>1279.0</ele><time>2026-05-02T12:21:04.967Z</time></trkpt><trkpt lat="44.197599021499" lon="10.520490626370302"><ele>1279.0</ele><time>2026-05-02T12:21:05.967Z</time></trkpt><trkpt lat="44.197543966893775" lon="10.52058431460625"><ele>1278.2</ele><time>2026-05-02T12:21:06.967Z</time></trkpt><trkpt lat="44.19750784247266" lon="10.520706707799413"><ele>1277.4</ele><time>2026-05-02T12:21:07.967Z</time></trkpt><trkpt lat="44.19748622659084" lon="10.520827241248009"><ele>1276.6</ele><time>2026-05-02T12:21:08.967Z</time></trkpt><trkpt lat="44.197479593173355" lon="10.520959520039426"><ele>1275.8</ele><time>2026-05-02T12:21:09.967Z</time></trkpt><trkpt lat="44.197471155870126" lon="10.521092727145732"><ele>1275.0</ele><time>2026-05-02T12:21:10.967Z</time></trkpt><trkpt lat="44.19746860174616" lon="10.521228503834434"><ele>1274.4</ele><time>2026-05-02T12:21:11.967Z</time></trkpt><trkpt lat="44.19747236945092" lon="10.521374287343225"><ele>1273.8</ele><time>2026-05-02T12:21:12.968Z</time></trkpt><trkpt lat="44.19749295286556" lon="10.521514012561722"><ele>1273.2</ele><time>2026-05-02T12:21:13.968Z</time></trkpt><trkpt lat="44.19754728059143" lon="10.521640343894527"><ele>1272.6</ele><time>2026-05-02T12:21:14.968Z</time></trkpt><trkpt lat="44.1976018067688" lon="10.52176374100431"><ele>1272.0</ele><time>2026-05-02T12:21:15.968Z</time></trkpt><trkpt lat="44.197649794079226" lon="10.521894967818653"><ele>1272.0</ele><time>2026-05-02T12:21:16.968Z</time></trkpt><trkpt lat="44.19769652592455" lon="10.522019715742603"><ele>1272.0</ele><time>2026-05-02T12:21:17.968Z</time></trkpt><trkpt lat="44.19773563693075" lon="10.522138295524714"><ele>1272.0</ele><time>2026-05-02T12:21:18.968Z</time></trkpt><trkpt lat="44.1977936136473" lon="10.522264775851937"><ele>1272.0</ele><time>2026-05-02T12:21:19.968Z</time></trkpt><trkpt lat="44.19781376658016" lon="10.522378829826874"><ele>1272.0</ele><time>2026-05-02T12:21:20.968Z</time></trkpt><trkpt lat="44.19785028713912" lon="10.522492451962457"><ele>1272.5</ele><time>2026-05-02T12:21:21.968Z</time></trkpt><trkpt lat="44.19789352542429" lon="10.522602403473893"><ele>1273.0</ele><time>2026-05-02T12:21:22.968Z</time></trkpt><trkpt lat="44.19792122903565" lon="10.522712283232783"><ele>1273.5</ele><time>2026-05-02T12:21:23.968Z</time></trkpt><trkpt lat="44.19794128649442" lon="10.52282549116574"><ele>1274.0</ele><time>2026-05-02T12:21:24.968Z</time></trkpt><trkpt lat="44.19795867159958" lon="10.522925172399404"><ele>1274.5</ele><time>2026-05-02T12:21:25.968Z</time></trkpt><trkpt lat="44.197975107673884" lon="10.52302925998354"><ele>1275.0</ele><time>2026-05-02T12:21:26.968Z</time></trkpt><trkpt lat="44.19796277487354" lon="10.52315475601596"><ele>1275.0</ele><time>2026-05-02T12:21:27.968Z</time></trkpt><trkpt lat="44.19794735892204" lon="10.523283414556794"><ele>1275.0</ele><time>2026-05-02T12:21:28.968Z</time></trkpt><trkpt lat="44.197922904626836" lon="10.523403049462056"><ele>1275.0</ele><time>2026-05-02T12:21:29.968Z</time></trkpt><trkpt lat="44.197891114100436" lon="10.52354923382092"><ele>1275.0</ele><time>2026-05-02T12:21:30.968Z</time></trkpt><trkpt lat="44.19787693118151" lon="10.523707801414043"><ele>1275.0</ele><time>2026-05-02T12:21:31.968Z</time></trkpt><trkpt lat="44.197864036844315" lon="10.523858541101015"><ele>1273.6</ele><time>2026-05-02T12:21:32.968Z</time></trkpt><trkpt lat="44.1978551169328" lon="10.524001389871755"><ele>1272.2</ele><time>2026-05-02T12:21:33.968Z</time></trkpt><trkpt lat="44.19781528259569" lon="10.524133860831956"><ele>1270.8</ele><time>2026-05-02T12:21:34.968Z</time></trkpt><trkpt lat="44.19780897347268" lon="10.524269037691305"><ele>1269.4</ele><time>2026-05-02T12:21:35.968Z</time></trkpt><trkpt lat="44.19780183191134" lon="10.524395240071197"><ele>1268.0</ele><time>2026-05-02T12:21:36.968Z</time></trkpt><trkpt lat="44.19781593670653" lon="10.524498934895337"><ele>1267.3333333333335</ele><time>2026-05-02T12:21:37.968Z</time></trkpt><trkpt lat="44.19784640823914" lon="10.524607997578128"><ele>1266.6666666666667</ele><time>2026-05-02T12:21:38.968Z</time></trkpt><trkpt lat="44.19788638886077" lon="10.524709749470437"><ele>1266.0</ele><time>2026-05-02T12:21:39.968Z</time></trkpt><trkpt lat="44.19790854272525" lon="10.524792777918185"><ele>1265.3333333333333</ele><time>2026-05-02T12:21:40.968Z</time></trkpt><trkpt lat="44.197869903652794" lon="10.52487995506467"><ele>1264.6666666666665</ele><time>2026-05-02T12:21:41.968Z</time></trkpt><trkpt lat="44.197805090841555" lon="10.524961093041172"><ele>1264.0</ele><time>2026-05-02T12:21:42.968Z</time></trkpt><trkpt lat="44.19772964689334" lon="10.525040427382866"><ele>1264.0</ele><time>2026-05-02T12:21:43.968Z</time></trkpt><trkpt lat="44.19766714007696" lon="10.525126134340717"><ele>1264.0</ele><time>2026-05-02T12:21:44.968Z</time></trkpt><trkpt lat="44.1975952590691" lon="10.525217765832005"><ele>1264.0</ele><time>2026-05-02T12:21:45.968Z</time></trkpt><trkpt lat="44.19753432165882" lon="10.525332697004002"><ele>1264.0</ele><time>2026-05-02T12:21:46.968Z</time></trkpt><trkpt lat="44.19749217647845" lon="10.525453363820791"><ele>1264.0</ele><time>2026-05-02T12:21:47.968Z</time></trkpt><trkpt lat="44.1974601257802" lon="10.525572968509982"><ele>1262.3333333333333</ele><time>2026-05-02T12:21:48.968Z</time></trkpt><trkpt lat="44.19743708311591" lon="10.525687415869038"><ele>1260.6666666666665</ele><time>2026-05-02T12:21:49.968Z</time></trkpt><trkpt lat="44.19745131139516" lon="10.525800257843912"><ele>1259.0</ele><time>2026-05-02T12:21:50.968Z</time></trkpt><trkpt lat="44.19745413596076" lon="10.52590896036633"><ele>1257.3333333333333</ele><time>2026-05-02T12:21:51.968Z</time></trkpt><trkpt lat="44.19744371137666" lon="10.526016167280359"><ele>1255.6666666666667</ele><time>2026-05-02T12:21:52.968Z</time></trkpt><trkpt lat="44.197447216826845" lon="10.526122647356674"><ele>1254.0</ele><time>2026-05-02T12:21:53.968Z</time></trkpt><trkpt lat="44.19743127450737" lon="10.526230044710477"><ele>1253.3333333333333</ele><time>2026-05-02T12:21:54.968Z</time></trkpt><trkpt lat="44.19740076153277" lon="10.526332285490348"><ele>1252.6666666666667</ele><time>2026-05-02T12:21:55.968Z</time></trkpt><trkpt lat="44.19737836672581" lon="10.526451669786082"><ele>1252.0</ele><time>2026-05-02T12:21:56.968Z</time></trkpt><trkpt lat="44.19734114705245" lon="10.526574172927726"><ele>1251.3333333333335</ele><time>2026-05-02T12:21:57.968Z</time></trkpt><trkpt lat="44.197339143707175" lon="10.5266964928327"><ele>1250.6666666666667</ele><time>2026-05-02T12:21:58.968Z</time></trkpt><trkpt lat="44.19735855533007" lon="10.526827937324816"><ele>1250.0</ele><time>2026-05-02T12:21:59.968Z</time></trkpt><trkpt lat="44.19737781093795" lon="10.526953369043651"><ele>1250.0</ele><time>2026-05-02T12:22:00.968Z</time></trkpt><trkpt lat="44.197413263299666" lon="10.527058791545215"><ele>1250.0</ele><time>2026-05-02T12:22:01.968Z</time></trkpt><trkpt lat="44.19741562853131" lon="10.527169117740678"><ele>1250.0</ele><time>2026-05-02T12:22:02.968Z</time></trkpt><trkpt lat="44.197428966156934" lon="10.527391803796354"><ele>1250.0</ele><time>2026-05-02T12:22:04.968Z</time></trkpt><trkpt lat="44.197458912124915" lon="10.527489118665672"><ele>1250.0</ele><time>2026-05-02T12:22:05.968Z</time></trkpt><trkpt lat="44.19750342339657" lon="10.527599523191823"><ele>1250.2</ele><time>2026-05-02T12:22:06.968Z</time></trkpt><trkpt lat="44.197575788813865" lon="10.527695127406089"><ele>1250.4</ele><time>2026-05-02T12:22:07.968Z</time></trkpt><trkpt lat="44.19765274250987" lon="10.527781489915904"><ele>1250.6</ele><time>2026-05-02T12:22:08.968Z</time></trkpt><trkpt lat="44.197722672435674" lon="10.527865254413665"><ele>1250.8</ele><time>2026-05-02T12:22:09.968Z</time></trkpt><trkpt lat="44.19779521242425" lon="10.527951498982105"><ele>1251.0</ele><time>2026-05-02T12:22:10.968Z</time></trkpt><trkpt lat="44.1978725670427" lon="10.528055101052717"><ele>1251.2</ele><time>2026-05-02T12:22:11.968Z</time></trkpt><trkpt lat="44.19794720243552" lon="10.528159344777082"><ele>1251.3999999999999</ele><time>2026-05-02T12:22:12.968Z</time></trkpt><trkpt lat="44.19803664289549" lon="10.528247661640762"><ele>1251.6</ele><time>2026-05-02T12:22:13.968Z</time></trkpt><trkpt lat="44.198106997101114" lon="10.528352450310232"><ele>1251.8</ele><time>2026-05-02T12:22:14.969Z</time></trkpt><trkpt lat="44.19819166580082" lon="10.52842655850285"><ele>1252.0</ele><time>2026-05-02T12:22:15.969Z</time></trkpt><trkpt lat="44.19827954813272" lon="10.528488024867988"><ele>1250.6666666666665</ele><time>2026-05-02T12:22:16.969Z</time></trkpt><trkpt lat="44.19835797695411" lon="10.528540855393597"><ele>1249.3333333333333</ele><time>2026-05-02T12:22:17.969Z</time></trkpt><trkpt lat="44.198448962642544" lon="10.528575824548833"><ele>1248.0</ele><time>2026-05-02T12:22:18.969Z</time></trkpt><trkpt lat="44.19853485666204" lon="10.528623284043976"><ele>1246.6666666666667</ele><time>2026-05-02T12:22:19.969Z</time></trkpt><trkpt lat="44.1986064658211" lon="10.528690513508865"><ele>1245.3333333333335</ele><time>2026-05-02T12:22:20.969Z</time></trkpt><trkpt lat="44.1986677263921" lon="10.528779196902727"><ele>1244.0</ele><time>2026-05-02T12:22:21.969Z</time></trkpt><trkpt lat="44.19870808399429" lon="10.528883401951704"><ele>1243.5</ele><time>2026-05-02T12:22:22.969Z</time></trkpt><trkpt lat="44.19872084553185" lon="10.528989308603625"><ele>1243.0</ele><time>2026-05-02T12:22:23.969Z</time></trkpt><trkpt lat="44.19870881048111" lon="10.529130886065158"><ele>1242.5</ele><time>2026-05-02T12:22:25.969Z</time></trkpt><trkpt lat="44.19868184445592" lon="10.529223357520005"><ele>1242.0</ele><time>2026-05-02T12:22:27.969Z</time></trkpt><trkpt lat="44.19873906895227" lon="10.529331122119434"><ele>1241.5</ele><time>2026-05-02T12:22:29.969Z</time></trkpt><trkpt lat="44.19877268619106" lon="10.529411348453669"><ele>1241.0</ele><time>2026-05-02T12:22:31.969Z</time></trkpt><trkpt lat="44.198818601427035" lon="10.529487680302816"><ele>1241.0</ele><time>2026-05-02T12:22:34.969Z</time></trkpt><trkpt lat="44.19885453038067" lon="10.529564719538728"><ele>1241.0</ele><time>2026-05-02T12:22:55.969Z</time></trkpt><trkpt lat="44.19892348284675" lon="10.529694259376642"><ele>1241.0</ele><time>2026-05-02T12:22:57.968Z</time></trkpt><trkpt lat="44.19896362809505" lon="10.529780865917377"><ele>1241.0</ele><time>2026-05-02T12:22:58.968Z</time></trkpt><trkpt lat="44.19900987664309" lon="10.529871885555556"><ele>1241.0</ele><time>2026-05-02T12:22:59.968Z</time></trkpt><trkpt lat="44.19905024719558" lon="10.529948266753987"><ele>1241.0</ele><time>2026-05-02T12:23:00.968Z</time></trkpt><trkpt lat="44.19909107839306" lon="10.530027701480172"><ele>1241.0</ele><time>2026-05-02T12:23:01.968Z</time></trkpt><trkpt lat="44.19915513500414" lon="10.530106265548307"><ele>1241.0</ele><time>2026-05-02T12:23:02.968Z</time></trkpt><trkpt lat="44.19921585806436" lon="10.530182953218747"><ele>1241.0</ele><time>2026-05-02T12:23:03.968Z</time></trkpt><trkpt lat="44.19928891838994" lon="10.530243716241097"><ele>1241.0</ele><time>2026-05-02T12:23:04.968Z</time></trkpt><trkpt lat="44.19936763263691" lon="10.530296135413181"><ele>1241.0</ele><time>2026-05-02T12:23:05.968Z</time></trkpt><trkpt lat="44.1994530032432" lon="10.530335297031407"><ele>1241.0</ele><time>2026-05-02T12:23:06.968Z</time></trkpt><trkpt lat="44.19953667048573" lon="10.530357583215318"><ele>1241.0</ele><time>2026-05-02T12:23:07.968Z</time></trkpt><trkpt lat="44.19961804968368" lon="10.53038816593055"><ele>1241.0</ele><time>2026-05-02T12:23:08.968Z</time></trkpt><trkpt lat="44.19969606283199" lon="10.530425430226575"><ele>1241.0</ele><time>2026-05-02T12:23:09.968Z</time></trkpt><trkpt lat="44.19976886267187" lon="10.530479539565187"><ele>1241.0</ele><time>2026-05-02T12:23:10.968Z</time></trkpt><trkpt lat="44.19981574500618" lon="10.530573921037458"><ele>1241.0</ele><time>2026-05-02T12:23:11.968Z</time></trkpt><trkpt lat="44.1998803733886" lon="10.53064153973008"><ele>1241.0</ele><time>2026-05-02T12:23:12.968Z</time></trkpt><trkpt lat="44.19996525520132" lon="10.530689703485827"><ele>1239.6</ele><time>2026-05-02T12:23:13.968Z</time></trkpt><trkpt lat="44.20005342881218" lon="10.530741219032484"><ele>1238.1999999999998</ele><time>2026-05-02T12:23:14.969Z</time></trkpt><trkpt lat="44.200153735934315" lon="10.530772008318156"><ele>1236.8000000000002</ele><time>2026-05-02T12:23:15.969Z</time></trkpt><trkpt lat="44.200251047798815" lon="10.530782272123503"><ele>1235.4</ele><time>2026-05-02T12:23:16.969Z</time></trkpt><trkpt lat="44.20034652696237" lon="10.530790117062939"><ele>1234.0</ele><time>2026-05-02T12:23:17.969Z</time></trkpt><trkpt lat="44.20043685235827" lon="10.530829243792889"><ele>1234.0</ele><time>2026-05-02T12:23:18.969Z</time></trkpt><trkpt lat="44.200517582167194" lon="10.530888055180906"><ele>1234.0</ele><time>2026-05-02T12:23:19.969Z</time></trkpt><trkpt lat="44.200606099387315" lon="10.530914955954957"><ele>1234.0</ele><time>2026-05-02T12:23:20.969Z</time></trkpt><trkpt lat="44.20069899084076" lon="10.53095153321182"><ele>1234.0</ele><time>2026-05-02T12:23:21.969Z</time></trkpt><trkpt lat="44.200786757606316" lon="10.53098902787477"><ele>1234.0</ele><time>2026-05-02T12:23:22.969Z</time></trkpt><trkpt lat="44.20088672423418" lon="10.53102873815786"><ele>1233.6666666666665</ele><time>2026-05-02T12:23:23.969Z</time></trkpt><trkpt lat="44.20098076505749" lon="10.531068572625612"><ele>1233.3333333333333</ele><time>2026-05-02T12:23:24.969Z</time></trkpt><trkpt lat="44.2010718463965" lon="10.531105940508004"><ele>1233.0</ele><time>2026-05-02T12:23:25.969Z</time></trkpt><trkpt lat="44.20114775771845" lon="10.531141488592219"><ele>1232.6666666666667</ele><time>2026-05-02T12:23:26.969Z</time></trkpt><trkpt lat="44.201235952183204" lon="10.53118646413326"><ele>1232.3333333333335</ele><time>2026-05-02T12:23:27.969Z</time></trkpt><trkpt lat="44.201307616612006" lon="10.531237975018447"><ele>1232.0</ele><time>2026-05-02T12:23:28.969Z</time></trkpt><trkpt lat="44.20142302864268" lon="10.531338219845518"><ele>1231.0</ele><time>2026-05-02T12:23:30.969Z</time></trkpt><trkpt lat="44.20148205987831" lon="10.531416502732625"><ele>1230.0</ele><time>2026-05-02T12:23:31.969Z</time></trkpt><trkpt lat="44.20152501377928" lon="10.531506193289566"><ele>1229.0</ele><time>2026-05-02T12:23:32.969Z</time></trkpt><trkpt lat="44.201570022265365" lon="10.5315986705978"><ele>1228.0</ele><time>2026-05-02T12:23:33.969Z</time></trkpt><trkpt lat="44.2016288647296" lon="10.531693245108178"><ele>1227.0</ele><time>2026-05-02T12:23:34.969Z</time></trkpt><trkpt lat="44.20167982602922" lon="10.531790698987546"><ele>1226.0</ele><time>2026-05-02T12:23:35.969Z</time></trkpt><trkpt lat="44.201728128444216" lon="10.531894902127528"><ele>1226.0</ele><time>2026-05-02T12:23:36.969Z</time></trkpt><trkpt lat="44.20178624869713" lon="10.532016817803834"><ele>1226.0</ele><time>2026-05-02T12:23:37.969Z</time></trkpt><trkpt lat="44.201858608155284" lon="10.53214334565907"><ele>1226.0</ele><time>2026-05-02T12:23:38.969Z</time></trkpt><trkpt lat="44.20193681012414" lon="10.532275056210167"><ele>1226.0</ele><time>2026-05-02T12:23:39.969Z</time></trkpt><trkpt lat="44.202006233720155" lon="10.532393696495665"><ele>1224.25</ele><time>2026-05-02T12:23:40.969Z</time></trkpt><trkpt lat="44.20206069388167" lon="10.53253617353072"><ele>1222.5</ele><time>2026-05-02T12:23:41.969Z</time></trkpt><trkpt lat="44.202128728816845" lon="10.53267069211161"><ele>1220.75</ele><time>2026-05-02T12:23:42.969Z</time></trkpt><trkpt lat="44.202209896040436" lon="10.532794595046076"><ele>1219.0</ele><time>2026-05-02T12:23:43.969Z</time></trkpt><trkpt lat="44.20227986804605" lon="10.532914687642384"><ele>1219.8</ele><time>2026-05-02T12:23:44.969Z</time></trkpt><trkpt lat="44.20234502183717" lon="10.533037804768906"><ele>1220.6000000000001</ele><time>2026-05-02T12:23:45.969Z</time></trkpt><trkpt lat="44.202410042626155" lon="10.533158445467706"><ele>1221.4</ele><time>2026-05-02T12:23:46.969Z</time></trkpt><trkpt lat="44.20247665290846" lon="10.533269914244997"><ele>1222.2</ele><time>2026-05-02T12:23:47.969Z</time></trkpt><trkpt lat="44.20254040058397" lon="10.533385128940548"><ele>1223.0</ele><time>2026-05-02T12:23:48.969Z</time></trkpt><trkpt lat="44.202603643144684" lon="10.53349764993038"><ele>1223.0</ele><time>2026-05-02T12:23:49.969Z</time></trkpt><trkpt lat="44.20266364254786" lon="10.533612137156576"><ele>1223.0</ele><time>2026-05-02T12:23:50.969Z</time></trkpt><trkpt lat="44.20272001911193" lon="10.53372964679557"><ele>1223.0</ele><time>2026-05-02T12:23:51.969Z</time></trkpt><trkpt lat="44.20278045997863" lon="10.533848666648455"><ele>1223.0</ele><time>2026-05-02T12:23:52.969Z</time></trkpt><trkpt lat="44.2028381949751" lon="10.533968982784709"><ele>1223.0</ele><time>2026-05-02T12:23:53.969Z</time></trkpt><trkpt lat="44.202897838991916" lon="10.534098245499035"><ele>1223.0</ele><time>2026-05-02T12:23:54.969Z</time></trkpt><trkpt lat="44.20295586437717" lon="10.53422814824815"><ele>1223.0</ele><time>2026-05-02T12:23:55.969Z</time></trkpt><trkpt lat="44.203010510883395" lon="10.5343483574499"><ele>1223.0</ele><time>2026-05-02T12:23:56.969Z</time></trkpt><trkpt lat="44.203067978808726" lon="10.534481754919355"><ele>1223.0</ele><time>2026-05-02T12:23:57.969Z</time></trkpt><trkpt lat="44.203127480663476" lon="10.534600447690693"><ele>1223.0</ele><time>2026-05-02T12:23:58.969Z</time></trkpt><trkpt lat="44.203186578454236" lon="10.534724941743457"><ele>1222.6666666666667</ele><time>2026-05-02T12:23:59.969Z</time></trkpt><trkpt lat="44.20323653956998" lon="10.534827527455692"><ele>1222.3333333333335</ele><time>2026-05-02T12:24:00.969Z</time></trkpt><trkpt lat="44.20329239666898" lon="10.534928092015154"><ele>1222.0</ele><time>2026-05-02T12:24:01.969Z</time></trkpt><trkpt lat="44.20334679975562" lon="10.535026387023567"><ele>1221.6666666666667</ele><time>2026-05-02T12:24:02.969Z</time></trkpt><trkpt lat="44.20338941185214" lon="10.535111831910559"><ele>1221.3333333333333</ele><time>2026-05-02T12:24:03.969Z</time></trkpt><trkpt lat="44.203434000566304" lon="10.535207996884557"><ele>1221.0</ele><time>2026-05-02T12:24:04.969Z</time></trkpt><trkpt lat="44.20347538551401" lon="10.535306162598825"><ele>1220.1666666666667</ele><time>2026-05-02T12:24:05.969Z</time></trkpt><trkpt lat="44.20352760621576" lon="10.535401444218813"><ele>1219.3333333333333</ele><time>2026-05-02T12:24:06.969Z</time></trkpt><trkpt lat="44.20357128031303" lon="10.535496024198528"><ele>1218.5</ele><time>2026-05-02T12:24:07.969Z</time></trkpt><trkpt lat="44.203626169879236" lon="10.535596942259524"><ele>1217.6666666666665</ele><time>2026-05-02T12:24:08.969Z</time></trkpt><trkpt lat="44.20369302266856" lon="10.535691599760524"><ele>1216.8333333333333</ele><time>2026-05-02T12:24:09.969Z</time></trkpt><trkpt lat="44.20375986855175" lon="10.535765125416402"><ele>1216.0</ele><time>2026-05-02T12:24:10.969Z</time></trkpt><trkpt lat="44.20382889110876" lon="10.53583251127456"><ele>1216.0</ele><time>2026-05-02T12:24:11.969Z</time></trkpt><trkpt lat="44.203885444615544" lon="10.535914083136182"><ele>1216.0</ele><time>2026-05-02T12:24:12.969Z</time></trkpt><trkpt lat="44.20389858756521" lon="10.536018291583265"><ele>1216.0</ele><time>2026-05-02T12:24:13.969Z</time></trkpt><trkpt lat="44.20389967492665" lon="10.53610733569669"><ele>1216.0</ele><time>2026-05-02T12:24:14.969Z</time></trkpt><trkpt lat="44.20389440316569" lon="10.536212689047307"><ele>1216.0</ele><time>2026-05-02T12:24:15.969Z</time></trkpt><trkpt lat="44.203862152205716" lon="10.536328721890493"><ele>1216.0</ele><time>2026-05-02T12:24:16.97Z</time></trkpt><trkpt lat="44.203820313143794" lon="10.536433691645314"><ele>1215.1666666666665</ele><time>2026-05-02T12:24:17.97Z</time></trkpt><trkpt lat="44.20376040825964" lon="10.536520773506501"><ele>1214.3333333333333</ele><time>2026-05-02T12:24:18.97Z</time></trkpt><trkpt lat="44.20369697728473" lon="10.536602252998795"><ele>1213.5</ele><time>2026-05-02T12:24:19.97Z</time></trkpt><trkpt lat="44.20364775776701" lon="10.536696264622607"><ele>1212.6666666666667</ele><time>2026-05-02T12:24:20.97Z</time></trkpt><trkpt lat="44.20363979942898" lon="10.5368055412165"><ele>1211.8333333333335</ele><time>2026-05-02T12:24:21.97Z</time></trkpt><trkpt lat="44.20364884740354" lon="10.536911384070068"><ele>1211.0</ele><time>2026-05-02T12:24:22.97Z</time></trkpt><trkpt lat="44.20365776526596" lon="10.537019611152381"><ele>1209.3999999999999</ele><time>2026-05-02T12:24:23.97Z</time></trkpt><trkpt lat="44.2036998478559" lon="10.537135706114366"><ele>1207.8</ele><time>2026-05-02T12:24:24.97Z</time></trkpt><trkpt lat="44.20376942054127" lon="10.537236364459092"><ele>1206.1999999999998</ele><time>2026-05-02T12:24:25.97Z</time></trkpt><trkpt lat="44.203828475622025" lon="10.53733257626091"><ele>1204.6</ele><time>2026-05-02T12:24:26.97Z</time></trkpt><trkpt lat="44.203884930162054" lon="10.537442356227073"><ele>1203.0</ele><time>2026-05-02T12:24:27.97Z</time></trkpt><trkpt lat="44.20392120720321" lon="10.537553342479242"><ele>1203.0</ele><time>2026-05-02T12:24:28.97Z</time></trkpt><trkpt lat="44.20394377692572" lon="10.53768842079591"><ele>1203.0</ele><time>2026-05-02T12:24:29.97Z</time></trkpt><trkpt lat="44.20398517537356" lon="10.537795527518899"><ele>1203.0</ele><time>2026-05-02T12:24:30.97Z</time></trkpt><trkpt lat="44.20402742291985" lon="10.537905980725112"><ele>1203.0</ele><time>2026-05-02T12:24:31.97Z</time></trkpt><trkpt lat="44.20404749153783" lon="10.53801766369213"><ele>1203.0</ele><time>2026-05-02T12:24:32.97Z</time></trkpt><trkpt lat="44.204046487487275" lon="10.53811329043698"><ele>1203.0</ele><time>2026-05-02T12:24:33.97Z</time></trkpt><trkpt lat="44.20398336271573" lon="10.53818679598106"><ele>1204.0</ele><time>2026-05-02T12:24:34.97Z</time></trkpt><trkpt lat="44.20391029521467" lon="10.538252123245352"><ele>1205.0</ele><time>2026-05-02T12:24:35.97Z</time></trkpt><trkpt lat="44.20384178393381" lon="10.538327370333318"><ele>1206.0</ele><time>2026-05-02T12:24:36.97Z</time></trkpt><trkpt lat="44.20377516666975" lon="10.538414808239919"><ele>1207.0</ele><time>2026-05-02T12:24:37.97Z</time></trkpt><trkpt lat="44.20369863678841" lon="10.538497396526624"><ele>1208.0</ele><time>2026-05-02T12:24:38.97Z</time></trkpt><trkpt lat="44.20362730829279" lon="10.538579239614126"><ele>1208.0</ele><time>2026-05-02T12:24:39.97Z</time></trkpt><trkpt lat="44.20356415699687" lon="10.538648222703324"><ele>1208.0</ele><time>2026-05-02T12:24:40.97Z</time></trkpt><trkpt lat="44.20349067343441" lon="10.538752552034346"><ele>1208.0</ele><time>2026-05-02T12:24:42.97Z</time></trkpt><trkpt lat="44.20349356069576" lon="10.538924998795892"><ele>1208.0</ele><time>2026-05-02T12:24:44.97Z</time></trkpt><trkpt lat="44.20350126505642" lon="10.539057757602752"><ele>1208.0</ele><time>2026-05-02T12:24:45.97Z</time></trkpt><trkpt lat="44.20353066008456" lon="10.539176027191159"><ele>1208.2</ele><time>2026-05-02T12:24:46.97Z</time></trkpt><trkpt lat="44.20356887224363" lon="10.53930757960431"><ele>1208.4</ele><time>2026-05-02T12:24:47.97Z</time></trkpt><trkpt lat="44.203605127264645" lon="10.539429986970633"><ele>1208.6000000000001</ele><time>2026-05-02T12:24:48.97Z</time></trkpt><trkpt lat="44.2036442410129" lon="10.53956204632645"><ele>1208.8</ele><time>2026-05-02T12:24:49.97Z</time></trkpt><trkpt lat="44.20369100415197" lon="10.539677744229595"><ele>1209.0</ele><time>2026-05-02T12:24:50.97Z</time></trkpt><trkpt lat="44.20371464621438" lon="10.539809131996643"><ele>1207.6000000000001</ele><time>2026-05-02T12:24:51.97Z</time></trkpt><trkpt lat="44.20374706540505" lon="10.539932015225574"><ele>1206.2</ele><time>2026-05-02T12:24:52.969Z</time></trkpt><trkpt lat="44.20377882145055" lon="10.540057719669594"><ele>1204.8000000000002</ele><time>2026-05-02T12:24:53.969Z</time></trkpt><trkpt lat="44.203804374194675" lon="10.540171404216244"><ele>1203.4</ele><time>2026-05-02T12:24:54.97Z</time></trkpt><trkpt lat="44.20383009082081" lon="10.540286365101219"><ele>1202.0</ele><time>2026-05-02T12:24:55.969Z</time></trkpt><trkpt lat="44.20387316824257" lon="10.540398109123291"><ele>1201.4</ele><time>2026-05-02T12:24:56.969Z</time></trkpt><trkpt lat="44.203901776800805" lon="10.540527124148154"><ele>1200.8000000000002</ele><time>2026-05-02T12:24:57.97Z</time></trkpt><trkpt lat="44.20393105241241" lon="10.540657538901165"><ele>1200.2</ele><time>2026-05-02T12:24:58.97Z</time></trkpt><trkpt lat="44.203995929945144" lon="10.540765489687885"><ele>1199.6000000000001</ele><time>2026-05-02T12:24:59.97Z</time></trkpt><trkpt lat="44.20405667105009" lon="10.540884806314313"><ele>1199.0</ele><time>2026-05-02T12:25:00.969Z</time></trkpt><trkpt lat="44.20408810858757" lon="10.541024288014265"><ele>1198.6000000000001</ele><time>2026-05-02T12:25:01.969Z</time></trkpt><trkpt lat="44.2040761075481" lon="10.541172542051447"><ele>1198.2</ele><time>2026-05-02T12:25:02.969Z</time></trkpt><trkpt lat="44.204042388091146" lon="10.5413051665106"><ele>1197.8000000000002</ele><time>2026-05-02T12:25:03.969Z</time></trkpt><trkpt lat="44.204006324291804" lon="10.541404858563624"><ele>1197.4</ele><time>2026-05-02T12:25:04.969Z</time></trkpt><trkpt lat="44.20396939100844" lon="10.541511204712368"><ele>1197.0</ele><time>2026-05-02T12:25:05.969Z</time></trkpt><trkpt lat="44.20393290954638" lon="10.541610003819821"><ele>1197.0</ele><time>2026-05-02T12:25:06.969Z</time></trkpt><trkpt lat="44.20392300337853" lon="10.541700222451697"><ele>1197.0</ele><time>2026-05-02T12:25:07.969Z</time></trkpt><trkpt lat="44.20394444967139" lon="10.541810646308894"><ele>1197.0</ele><time>2026-05-02T12:25:08.969Z</time></trkpt><trkpt lat="44.203981894564784" lon="10.541931062020865"><ele>1197.0</ele><time>2026-05-02T12:25:09.969Z</time></trkpt><trkpt lat="44.20403119283924" lon="10.542045649992613"><ele>1197.0</ele><time>2026-05-02T12:25:10.969Z</time></trkpt><trkpt lat="44.20405371384387" lon="10.54217851161657"><ele>1197.0</ele><time>2026-05-02T12:25:11.969Z</time></trkpt><trkpt lat="44.20407688911195" lon="10.542306531977399"><ele>1202.0</ele><time>2026-05-02T12:25:12.969Z</time></trkpt><trkpt lat="44.204081677417555" lon="10.54243979884658"><ele>1207.0</ele><time>2026-05-02T12:25:13.969Z</time></trkpt><trkpt lat="44.20407371452182" lon="10.542577207313768"><ele>1212.0</ele><time>2026-05-02T12:25:14.969Z</time></trkpt><trkpt lat="44.20405598133853" lon="10.542705668476254"><ele>1217.0</ele><time>2026-05-02T12:25:15.969Z</time></trkpt><trkpt lat="44.204039018999964" lon="10.542852777682858"><ele>1222.0</ele><time>2026-05-02T12:25:16.969Z</time></trkpt><trkpt lat="44.20403906798151" lon="10.542991725558556"><ele>1222.0</ele><time>2026-05-02T12:25:17.969Z</time></trkpt><trkpt lat="44.20401886051926" lon="10.543132482693101"><ele>1222.0</ele><time>2026-05-02T12:25:18.969Z</time></trkpt><trkpt lat="44.20401782439923" lon="10.543277794927391"><ele>1222.0</ele><time>2026-05-02T12:25:19.969Z</time></trkpt><trkpt lat="44.203995527927525" lon="10.543407205412185"><ele>1222.0</ele><time>2026-05-02T12:25:20.969Z</time></trkpt><trkpt lat="44.20398576186321" lon="10.543541453282863"><ele>1222.0</ele><time>2026-05-02T12:25:21.97Z</time></trkpt><trkpt lat="44.203990569416845" lon="10.543691286067501"><ele>1218.0</ele><time>2026-05-02T12:25:22.97Z</time></trkpt><trkpt lat="44.20397207831759" lon="10.54384497109725"><ele>1214.0</ele><time>2026-05-02T12:25:23.97Z</time></trkpt><trkpt lat="44.20396818467634" lon="10.543995951093017"><ele>1210.0</ele><time>2026-05-02T12:25:24.97Z</time></trkpt><trkpt lat="44.203974428114044" lon="10.544138730475089"><ele>1206.0</ele><time>2026-05-02T12:25:25.97Z</time></trkpt><trkpt lat="44.20396988519873" lon="10.544281084866302"><ele>1202.0</ele><time>2026-05-02T12:25:26.97Z</time></trkpt><trkpt lat="44.20395858785789" lon="10.544410726773718"><ele>1202.0</ele><time>2026-05-02T12:25:27.97Z</time></trkpt><trkpt lat="44.203953077496635" lon="10.544532360708768"><ele>1202.0</ele><time>2026-05-02T12:25:28.97Z</time></trkpt><trkpt lat="44.20395720572806" lon="10.544677739941589"><ele>1202.0</ele><time>2026-05-02T12:25:29.97Z</time></trkpt><trkpt lat="44.20395400168047" lon="10.544829568893707"><ele>1202.0</ele><time>2026-05-02T12:25:30.97Z</time></trkpt><trkpt lat="44.20394709221609" lon="10.544983894776538"><ele>1202.0</ele><time>2026-05-02T12:25:31.97Z</time></trkpt><trkpt lat="44.20393063916642" lon="10.545131893817416"><ele>1202.4</ele><time>2026-05-02T12:25:32.97Z</time></trkpt><trkpt lat="44.203908744601684" lon="10.545273238743814"><ele>1202.8000000000002</ele><time>2026-05-02T12:25:33.97Z</time></trkpt><trkpt lat="44.203877889210546" lon="10.545409945216285"><ele>1203.2</ele><time>2026-05-02T12:25:34.97Z</time></trkpt><trkpt lat="44.203842913899585" lon="10.545538460667569"><ele>1203.6000000000001</ele><time>2026-05-02T12:25:35.97Z</time></trkpt><trkpt lat="44.203811326287315" lon="10.545683776957944"><ele>1204.0</ele><time>2026-05-02T12:25:36.97Z</time></trkpt><trkpt lat="44.20378969651084" lon="10.545832708670158"><ele>1204.6000000000001</ele><time>2026-05-02T12:25:37.97Z</time></trkpt><trkpt lat="44.20375322157693" lon="10.545974309817073"><ele>1205.2</ele><time>2026-05-02T12:25:38.97Z</time></trkpt><trkpt lat="44.20372576043271" lon="10.546119785945287"><ele>1205.8000000000002</ele><time>2026-05-02T12:25:39.97Z</time></trkpt><trkpt lat="44.20368530423076" lon="10.546254798291198"><ele>1206.4</ele><time>2026-05-02T12:25:40.97Z</time></trkpt><trkpt lat="44.20364552736049" lon="10.546360390352987"><ele>1207.0</ele><time>2026-05-02T12:25:41.97Z</time></trkpt><trkpt lat="44.20360542303477" lon="10.546480811934869"><ele>1208.6</ele><time>2026-05-02T12:25:42.97Z</time></trkpt><trkpt lat="44.2035695855129" lon="10.546569296749299"><ele>1210.2</ele><time>2026-05-02T12:25:43.97Z</time></trkpt><trkpt lat="44.20353491252434" lon="10.546650271447811"><ele>1211.8</ele><time>2026-05-02T12:25:44.97Z</time></trkpt><trkpt lat="44.203473160988274" lon="10.546833193044492"><ele>1213.4</ele><time>2026-05-02T12:25:46.97Z</time></trkpt><trkpt lat="44.203456045620904" lon="10.546960590904822"><ele>1215.0</ele><time>2026-05-02T12:25:47.97Z</time></trkpt><trkpt lat="44.20344553195334" lon="10.547091464295294"><ele>1215.0</ele><time>2026-05-02T12:25:48.97Z</time></trkpt><trkpt lat="44.20344170220899" lon="10.54723247548502"><ele>1215.0</ele><time>2026-05-02T12:25:49.97Z</time></trkpt><trkpt lat="44.20344254585563" lon="10.547375598838643"><ele>1215.0</ele><time>2026-05-02T12:25:50.97Z</time></trkpt><trkpt lat="44.203447652531764" lon="10.547522574476377"><ele>1215.0</ele><time>2026-05-02T12:25:51.97Z</time></trkpt><trkpt lat="44.20345960954275" lon="10.547667499952992"><ele>1215.0</ele><time>2026-05-02T12:25:52.97Z</time></trkpt><trkpt lat="44.203472650278506" lon="10.547808969007386"><ele>1214.6666666666667</ele><time>2026-05-02T12:25:53.97Z</time></trkpt><trkpt lat="44.20348569045368" lon="10.54795166038219"><ele>1214.3333333333333</ele><time>2026-05-02T12:25:54.97Z</time></trkpt><trkpt lat="44.20349091739573" lon="10.548074490215878"><ele>1214.0</ele><time>2026-05-02T12:25:55.97Z</time></trkpt><trkpt lat="44.20348609763704" lon="10.54819308323209"><ele>1213.6666666666665</ele><time>2026-05-02T12:25:56.97Z</time></trkpt><trkpt lat="44.20346900619948" lon="10.548298067459834"><ele>1213.3333333333333</ele><time>2026-05-02T12:25:57.97Z</time></trkpt><trkpt lat="44.203444038878814" lon="10.54838189862259"><ele>1213.0</ele><time>2026-05-02T12:25:58.97Z</time></trkpt><trkpt lat="44.20340856902436" lon="10.548490903080854"><ele>1213.0</ele><time>2026-05-02T12:25:59.97Z</time></trkpt><trkpt lat="44.203339777425484" lon="10.548647178430906"><ele>1213.0</ele><time>2026-05-02T12:26:00.97Z</time></trkpt><trkpt lat="44.203249660634675" lon="10.548818036646203"><ele>1213.0</ele><time>2026-05-02T12:26:01.97Z</time></trkpt><trkpt lat="44.20318646496586" lon="10.548996893551493"><ele>1213.0</ele><time>2026-05-02T12:26:02.97Z</time></trkpt><trkpt lat="44.20326355571565" lon="10.548900184146257"><ele>1213.3333333333333</ele><time>2026-05-02T12:26:03.97Z</time></trkpt><trkpt lat="44.20322207425953" lon="10.548997230311699"><ele>1213.6666666666665</ele><time>2026-05-02T12:26:04.97Z</time></trkpt><trkpt lat="44.2031649902738" lon="10.549085284359723"><ele>1214.0</ele><time>2026-05-02T12:26:05.97Z</time></trkpt><trkpt lat="44.20312941774612" lon="10.549213659778701"><ele>1214.3333333333333</ele><time>2026-05-02T12:26:06.97Z</time></trkpt><trkpt lat="44.2030902261599" lon="10.549329294342902"><ele>1214.6666666666667</ele><time>2026-05-02T12:26:07.97Z</time></trkpt><trkpt lat="44.203049086085436" lon="10.549437308269288"><ele>1215.0</ele><time>2026-05-02T12:26:08.97Z</time></trkpt><trkpt lat="44.20302294531607" lon="10.549566607363921"><ele>1214.6</ele><time>2026-05-02T12:26:09.97Z</time></trkpt><trkpt lat="44.20302253899748" lon="10.549693174965677"><ele>1214.2</ele><time>2026-05-02T12:26:10.97Z</time></trkpt><trkpt lat="44.20304033019767" lon="10.549810839441172"><ele>1213.8</ele><time>2026-05-02T12:26:11.97Z</time></trkpt><trkpt lat="44.2030892146079" lon="10.549931897784795"><ele>1213.4</ele><time>2026-05-02T12:26:12.97Z</time></trkpt><trkpt lat="44.20313105256455" lon="10.55004588614634"><ele>1213.0</ele><time>2026-05-02T12:26:13.97Z</time></trkpt><trkpt lat="44.203180644133774" lon="10.550180666442154"><ele>1213.0</ele><time>2026-05-02T12:26:14.97Z</time></trkpt><trkpt lat="44.203232923360794" lon="10.550315039941777"><ele>1213.0</ele><time>2026-05-02T12:26:15.97Z</time></trkpt><trkpt lat="44.20327664792931" lon="10.550444708756672"><ele>1213.0</ele><time>2026-05-02T12:26:16.97Z</time></trkpt><trkpt lat="44.20328056421774" lon="10.550587022978485"><ele>1213.0</ele><time>2026-05-02T12:26:17.97Z</time></trkpt><trkpt lat="44.20328939522501" lon="10.550720012210043"><ele>1213.0</ele><time>2026-05-02T12:26:18.97Z</time></trkpt><trkpt lat="44.20329141787079" lon="10.550859835873467"><ele>1213.0</ele><time>2026-05-02T12:26:19.97Z</time></trkpt><trkpt lat="44.20329322076786" lon="10.551002286911348"><ele>1213.0</ele><time>2026-05-02T12:26:20.97Z</time></trkpt><trkpt lat="44.20329869825608" lon="10.55114240853788"><ele>1213.0</ele><time>2026-05-02T12:26:21.97Z</time></trkpt><trkpt lat="44.203304329975154" lon="10.551286477799781"><ele>1213.0</ele><time>2026-05-02T12:26:22.97Z</time></trkpt><trkpt lat="44.20332965936223" lon="10.551425180846845"><ele>1213.0</ele><time>2026-05-02T12:26:23.971Z</time></trkpt><trkpt lat="44.20334774594449" lon="10.551564792217306"><ele>1212.6</ele><time>2026-05-02T12:26:24.971Z</time></trkpt><trkpt lat="44.203366974906686" lon="10.551706009411976"><ele>1212.1999999999998</ele><time>2026-05-02T12:26:25.971Z</time></trkpt><trkpt lat="44.203388195132604" lon="10.55184166626553"><ele>1211.8</ele><time>2026-05-02T12:26:26.971Z</time></trkpt><trkpt lat="44.20340893943864" lon="10.551962296788513"><ele>1211.3999999999999</ele><time>2026-05-02T12:26:27.971Z</time></trkpt><trkpt lat="44.20341950286996" lon="10.55205844927736"><ele>1211.0</ele><time>2026-05-02T12:26:28.971Z</time></trkpt><trkpt lat="44.20336129599" lon="10.55220742102609"><ele>1212.3333333333335</ele><time>2026-05-02T12:26:30.971Z</time></trkpt><trkpt lat="44.203304338375" lon="10.552277192626663"><ele>1213.6666666666667</ele><time>2026-05-02T12:26:31.971Z</time></trkpt><trkpt lat="44.203241875414356" lon="10.552349670205267"><ele>1215.0</ele><time>2026-05-02T12:26:32.971Z</time></trkpt><trkpt lat="44.203177067509166" lon="10.552421365150272"><ele>1216.3333333333333</ele><time>2026-05-02T12:26:33.971Z</time></trkpt><trkpt lat="44.203107444476124" lon="10.55249865674819"><ele>1217.6666666666665</ele><time>2026-05-02T12:26:34.971Z</time></trkpt><trkpt lat="44.20303325620325" lon="10.552580259094736"><ele>1219.0</ele><time>2026-05-02T12:26:35.971Z</time></trkpt><trkpt lat="44.20296216079084" lon="10.552667078801466"><ele>1217.6000000000001</ele><time>2026-05-02T12:26:36.971Z</time></trkpt><trkpt lat="44.20288341312641" lon="10.552743825291753"><ele>1216.2</ele><time>2026-05-02T12:26:37.971Z</time></trkpt><trkpt lat="44.20280777929935" lon="10.552830190280927"><ele>1214.8000000000002</ele><time>2026-05-02T12:26:38.971Z</time></trkpt><trkpt lat="44.20273115423855" lon="10.552908567976361"><ele>1213.4</ele><time>2026-05-02T12:26:39.971Z</time></trkpt><trkpt lat="44.2026634048839" lon="10.552991840482372"><ele>1212.0</ele><time>2026-05-02T12:26:40.971Z</time></trkpt><trkpt lat="44.20260639677885" lon="10.553093165152124"><ele>1212.0</ele><time>2026-05-02T12:26:41.971Z</time></trkpt><trkpt lat="44.202558275480015" lon="10.553213565144757"><ele>1212.0</ele><time>2026-05-02T12:26:42.971Z</time></trkpt><trkpt lat="44.20251018860035" lon="10.553336178356945"><ele>1212.0</ele><time>2026-05-02T12:26:43.971Z</time></trkpt><trkpt lat="44.20246055357085" lon="10.553459199709565"><ele>1212.0</ele><time>2026-05-02T12:26:44.971Z</time></trkpt><trkpt lat="44.202390616014306" lon="10.553556399916433"><ele>1212.0</ele><time>2026-05-02T12:26:45.971Z</time></trkpt><trkpt lat="44.20232713345763" lon="10.553673233789748"><ele>1209.6</ele><time>2026-05-02T12:26:46.971Z</time></trkpt><trkpt lat="44.20225613649456" lon="10.553766653205969"><ele>1207.2</ele><time>2026-05-02T12:26:47.971Z</time></trkpt><trkpt lat="44.20219605392196" lon="10.553887065432319"><ele>1204.8</ele><time>2026-05-02T12:26:48.971Z</time></trkpt><trkpt lat="44.202146492647145" lon="10.554008452113663"><ele>1202.4</ele><time>2026-05-02T12:26:49.971Z</time></trkpt><trkpt lat="44.202103336099334" lon="10.55413541927749"><ele>1200.0</ele><time>2026-05-02T12:26:50.971Z</time></trkpt><trkpt lat="44.20209274831327" lon="10.554267719397414"><ele>1200.0</ele><time>2026-05-02T12:26:51.971Z</time></trkpt><trkpt lat="44.20210687820054" lon="10.554395936092334"><ele>1200.0</ele><time>2026-05-02T12:26:52.971Z</time></trkpt><trkpt lat="44.20213723618991" lon="10.554525769316555"><ele>1200.0</ele><time>2026-05-02T12:26:53.971Z</time></trkpt><trkpt lat="44.20217482639246" lon="10.554654178388857"><ele>1200.0</ele><time>2026-05-02T12:26:54.971Z</time></trkpt><trkpt lat="44.20222126150542" lon="10.55478350763176"><ele>1200.0</ele><time>2026-05-02T12:26:55.971Z</time></trkpt><trkpt lat="44.202243686657184" lon="10.55491508160194"><ele>1199.8333333333333</ele><time>2026-05-02T12:26:56.971Z</time></trkpt><trkpt lat="44.20225736346119" lon="10.555049149107285"><ele>1199.6666666666667</ele><time>2026-05-02T12:26:57.971Z</time></trkpt><trkpt lat="44.20225311270648" lon="10.555166298344053"><ele>1199.5</ele><time>2026-05-02T12:26:58.971Z</time></trkpt><trkpt lat="44.2022460175077" lon="10.55530032995476"><ele>1199.3333333333335</ele><time>2026-05-02T12:26:59.971Z</time></trkpt><trkpt lat="44.202243962984255" lon="10.555413619455233"><ele>1199.1666666666667</ele><time>2026-05-02T12:27:00.97Z</time></trkpt><trkpt lat="44.20221471505446" lon="10.555531100830741"><ele>1199.0</ele><time>2026-05-02T12:27:01.971Z</time></trkpt><trkpt lat="44.20218014726383" lon="10.555647893766304"><ele>1200.6000000000001</ele><time>2026-05-02T12:27:02.971Z</time></trkpt><trkpt lat="44.20212896212961" lon="10.555754067182413"><ele>1202.2</ele><time>2026-05-02T12:27:03.97Z</time></trkpt><trkpt lat="44.202058992161035" lon="10.555871023720284"><ele>1203.8000000000002</ele><time>2026-05-02T12:27:04.971Z</time></trkpt><trkpt lat="44.20199618547961" lon="10.555980783470861"><ele>1205.4</ele><time>2026-05-02T12:27:05.971Z</time></trkpt><trkpt lat="44.201934486097784" lon="10.556097121163678"><ele>1207.0</ele><time>2026-05-02T12:27:06.971Z</time></trkpt><trkpt lat="44.20186737824237" lon="10.556190982759478"><ele>1205.4</ele><time>2026-05-02T12:27:07.971Z</time></trkpt><trkpt lat="44.201783003949146" lon="10.556279729601677"><ele>1203.8000000000002</ele><time>2026-05-02T12:27:08.971Z</time></trkpt><trkpt lat="44.20169421512855" lon="10.556343842929943"><ele>1202.2</ele><time>2026-05-02T12:27:09.971Z</time></trkpt><trkpt lat="44.20160098859559" lon="10.55640499349892"><ele>1200.6000000000001</ele><time>2026-05-02T12:27:10.971Z</time></trkpt><trkpt lat="44.20150440094324" lon="10.556457042000652"><ele>1199.0</ele><time>2026-05-02T12:27:11.971Z</time></trkpt><trkpt lat="44.20141355598323" lon="10.556502766515688"><ele>1199.0</ele><time>2026-05-02T12:27:12.971Z</time></trkpt><trkpt lat="44.201334303064634" lon="10.55654656258954"><ele>1199.0</ele><time>2026-05-02T12:27:13.971Z</time></trkpt><trkpt lat="44.201273363516975" lon="10.556623175351849"><ele>1199.0</ele><time>2026-05-02T12:27:14.971Z</time></trkpt><trkpt lat="44.20123050652741" lon="10.556717798929382"><ele>1199.0</ele><time>2026-05-02T12:27:15.971Z</time></trkpt><trkpt lat="44.201203494379506" lon="10.556822872008812"><ele>1199.0</ele><time>2026-05-02T12:27:16.971Z</time></trkpt><trkpt lat="44.201192293906566" lon="10.556932672612195"><ele>1199.0</ele><time>2026-05-02T12:27:17.971Z</time></trkpt><trkpt lat="44.20119762011761" lon="10.557037502585649"><ele>1199.0</ele><time>2026-05-02T12:27:18.971Z</time></trkpt><trkpt lat="44.201199959529404" lon="10.55713519559899"><ele>1199.0</ele><time>2026-05-02T12:27:19.971Z</time></trkpt><trkpt lat="44.201357372185974" lon="10.557249385933144"><ele>1199.0</ele><time>2026-05-02T12:27:21.97Z</time></trkpt><trkpt lat="44.20144889366317" lon="10.557234209288891"><ele>1199.0</ele><time>2026-05-02T12:27:22.97Z</time></trkpt><trkpt lat="44.201524679795696" lon="10.557222196771038"><ele>1199.0</ele><time>2026-05-02T12:27:23.97Z</time></trkpt><trkpt lat="44.20160423809277" lon="10.557224670150955"><ele>1201.8333333333335</ele><time>2026-05-02T12:27:24.97Z</time></trkpt><trkpt lat="44.201696015294566" lon="10.55726151078683"><ele>1204.6666666666667</ele><time>2026-05-02T12:27:25.97Z</time></trkpt><trkpt lat="44.20176819900885" lon="10.557354661135458"><ele>1207.5</ele><time>2026-05-02T12:27:26.97Z</time></trkpt><trkpt lat="44.20183567977151" lon="10.557439747910681"><ele>1210.3333333333333</ele><time>2026-05-02T12:27:27.97Z</time></trkpt><trkpt lat="44.201899693652706" lon="10.557526291462318"><ele>1213.1666666666665</ele><time>2026-05-02T12:27:28.97Z</time></trkpt><trkpt lat="44.20195597100506" lon="10.55758786907156"><ele>1216.0</ele><time>2026-05-02T12:27:29.97Z</time></trkpt><trkpt lat="44.20200489759452" lon="10.55767175393193"><ele>1216.0</ele><time>2026-05-02T12:27:30.97Z</time></trkpt><trkpt lat="44.20206269092961" lon="10.557760141521769"><ele>1216.0</ele><time>2026-05-02T12:27:31.97Z</time></trkpt><trkpt lat="44.20210341137919" lon="10.557856959016293"><ele>1216.0</ele><time>2026-05-02T12:27:32.969Z</time></trkpt><trkpt lat="44.20210073676714" lon="10.557971908140614"><ele>1216.0</ele><time>2026-05-02T12:27:33.969Z</time></trkpt><trkpt lat="44.20208872226168" lon="10.558074248294046"><ele>1216.0</ele><time>2026-05-02T12:27:34.969Z</time></trkpt><trkpt lat="44.202067392949296" lon="10.55818927581785"><ele>1216.0</ele><time>2026-05-02T12:27:35.969Z</time></trkpt><trkpt lat="44.202047164260506" lon="10.558306342343506"><ele>1215.6666666666665</ele><time>2026-05-02T12:27:36.969Z</time></trkpt><trkpt lat="44.20204244186507" lon="10.558428593481016"><ele>1215.3333333333333</ele><time>2026-05-02T12:27:37.969Z</time></trkpt><trkpt lat="44.20200527644483" lon="10.55853228178747"><ele>1215.0</ele><time>2026-05-02T12:27:38.969Z</time></trkpt><trkpt lat="44.20199695743596" lon="10.558640031121557"><ele>1214.6666666666667</ele><time>2026-05-02T12:27:39.969Z</time></trkpt><trkpt lat="44.20197652255853" lon="10.558740499699356"><ele>1214.3333333333335</ele><time>2026-05-02T12:27:40.969Z</time></trkpt><trkpt lat="44.20195359479806" lon="10.558829592811941"><ele>1214.0</ele><time>2026-05-02T12:27:41.969Z</time></trkpt><trkpt lat="44.20195416544033" lon="10.558942129350882"><ele>1215.0</ele><time>2026-05-02T12:27:42.969Z</time></trkpt><trkpt lat="44.20199796816495" lon="10.559064937205887"><ele>1216.0</ele><time>2026-05-02T12:27:43.969Z</time></trkpt><trkpt lat="44.20204994122937" lon="10.559169176247947"><ele>1217.0</ele><time>2026-05-02T12:27:44.969Z</time></trkpt><trkpt lat="44.20209523115515" lon="10.559267927710914"><ele>1218.0</ele><time>2026-05-02T12:27:45.969Z</time></trkpt><trkpt lat="44.20212107562435" lon="10.559367796726585"><ele>1219.0</ele><time>2026-05-02T12:27:46.969Z</time></trkpt><trkpt lat="44.20210484099722" lon="10.559477303589324"><ele>1220.0</ele><time>2026-05-02T12:27:47.969Z</time></trkpt><trkpt lat="44.20204938426775" lon="10.559548896130794"><ele>1221.2857142857144</ele><time>2026-05-02T12:27:48.969Z</time></trkpt><trkpt lat="44.20200108003674" lon="10.559631812391478"><ele>1222.5714285714284</ele><time>2026-05-02T12:27:49.969Z</time></trkpt><trkpt lat="44.20197576099477" lon="10.559726213519292"><ele>1223.857142857143</ele><time>2026-05-02T12:27:50.969Z</time></trkpt><trkpt lat="44.201952148652396" lon="10.55981626923285"><ele>1225.1428571428573</ele><time>2026-05-02T12:27:51.969Z</time></trkpt><trkpt lat="44.20192908366941" lon="10.559913441687428"><ele>1226.4285714285716</ele><time>2026-05-02T12:27:52.969Z</time></trkpt><trkpt lat="44.20195410084245" lon="10.560020509433906"><ele>1227.7142857142858</ele><time>2026-05-02T12:27:53.969Z</time></trkpt><trkpt lat="44.202003130462195" lon="10.560088159297376"><ele>1229.0</ele><time>2026-05-02T12:27:54.969Z</time></trkpt><trkpt lat="44.20206673179846" lon="10.560109416055377"><ele>1229.0</ele><time>2026-05-02T12:27:55.969Z</time></trkpt><trkpt lat="44.20217014632376" lon="10.560202709762201"><ele>1229.0</ele><time>2026-05-02T12:27:57.969Z</time></trkpt><trkpt lat="44.20224579211262" lon="10.56027630538362"><ele>1229.0</ele><time>2026-05-02T12:27:58.969Z</time></trkpt><trkpt lat="44.20229391429606" lon="10.560388269430076"><ele>1229.0</ele><time>2026-05-02T12:27:59.969Z</time></trkpt><trkpt lat="44.20233913386605" lon="10.560504555623382"><ele>1229.0</ele><time>2026-05-02T12:28:00.969Z</time></trkpt><trkpt lat="44.20239707642575" lon="10.560606130638547"><ele>1230.8333333333335</ele><time>2026-05-02T12:28:01.969Z</time></trkpt><trkpt lat="44.202433593249694" lon="10.560719075384082"><ele>1232.6666666666667</ele><time>2026-05-02T12:28:02.969Z</time></trkpt><trkpt lat="44.202485671944956" lon="10.560804530924766"><ele>1234.5</ele><time>2026-05-02T12:28:03.969Z</time></trkpt><trkpt lat="44.20254155483935" lon="10.560900193504953"><ele>1236.3333333333333</ele><time>2026-05-02T12:28:04.969Z</time></trkpt><trkpt lat="44.202612391605875" lon="10.560980172327563"><ele>1238.1666666666665</ele><time>2026-05-02T12:28:05.969Z</time></trkpt><trkpt lat="44.2026891885143" lon="10.561043553582952"><ele>1240.0</ele><time>2026-05-02T12:28:06.969Z</time></trkpt><trkpt lat="44.20275265744758" lon="10.561140198891957"><ele>1237.6</ele><time>2026-05-02T12:28:07.969Z</time></trkpt><trkpt lat="44.20283340369812" lon="10.561222958423263"><ele>1235.2</ele><time>2026-05-02T12:28:08.969Z</time></trkpt><trkpt lat="44.202917920027495" lon="10.56129560655999"><ele>1232.8</ele><time>2026-05-02T12:28:09.969Z</time></trkpt><trkpt lat="44.20299891439453" lon="10.561377409965031"><ele>1230.4</ele><time>2026-05-02T12:28:10.969Z</time></trkpt><trkpt lat="44.203078115565035" lon="10.561453303050655"><ele>1228.0</ele><time>2026-05-02T12:28:11.969Z</time></trkpt><trkpt lat="44.203159357326825" lon="10.561521811354666"><ele>1229.6666666666665</ele><time>2026-05-02T12:28:12.969Z</time></trkpt><trkpt lat="44.20324357685118" lon="10.561582626804963"><ele>1231.3333333333333</ele><time>2026-05-02T12:28:13.969Z</time></trkpt><trkpt lat="44.203326304832736" lon="10.561645255573687"><ele>1233.0</ele><time>2026-05-02T12:28:14.969Z</time></trkpt><trkpt lat="44.203403579676866" lon="10.561706795653098"><ele>1234.6666666666667</ele><time>2026-05-02T12:28:15.969Z</time></trkpt><trkpt lat="44.203457349231705" lon="10.561788361533322"><ele>1236.3333333333335</ele><time>2026-05-02T12:28:16.969Z</time></trkpt><trkpt lat="44.203512582945436" lon="10.561848481988385"><ele>1238.0</ele><time>2026-05-02T12:28:17.969Z</time></trkpt><trkpt lat="44.203618682485114" lon="10.561875241105366"><ele>1238.0</ele><time>2026-05-02T12:28:19.969Z</time></trkpt><trkpt lat="44.20373346147265" lon="10.56181908565445"><ele>1238.0</ele><time>2026-05-02T12:28:21.969Z</time></trkpt><trkpt lat="44.2038469414616" lon="10.561760546547772"><ele>1238.0</ele><time>2026-05-02T12:28:23.969Z</time></trkpt><trkpt lat="44.20395272669442" lon="10.56169309128045"><ele>1238.0</ele><time>2026-05-02T12:28:25.969Z</time></trkpt><trkpt lat="44.204012913189935" lon="10.561654230089843"><ele>1238.0</ele><time>2026-05-02T12:28:26.969Z</time></trkpt><trkpt lat="44.20408167963177" lon="10.561627748891063"><ele>1237.1666666666667</ele><time>2026-05-02T12:28:27.969Z</time></trkpt><trkpt lat="44.20415091198572" lon="10.561586711393728"><ele>1236.3333333333335</ele><time>2026-05-02T12:28:28.969Z</time></trkpt><trkpt lat="44.20423562798872" lon="10.561545870940432"><ele>1235.5</ele><time>2026-05-02T12:28:29.969Z</time></trkpt><trkpt lat="44.20432576571137" lon="10.561522705389347"><ele>1234.6666666666667</ele><time>2026-05-02T12:28:30.969Z</time></trkpt><trkpt lat="44.204404261483035" lon="10.561472943304345"><ele>1233.8333333333333</ele><time>2026-05-02T12:28:31.969Z</time></trkpt><trkpt lat="44.20448066534601" lon="10.561430452477483"><ele>1233.0</ele><time>2026-05-02T12:28:32.969Z</time></trkpt><trkpt lat="44.204566188244875" lon="10.561420415881322"><ele>1233.0</ele><time>2026-05-02T12:28:33.969Z</time></trkpt><trkpt lat="44.20464409984395" lon="10.561395750163179"><ele>1233.0</ele><time>2026-05-02T12:28:34.969Z</time></trkpt><trkpt lat="44.20472056953107" lon="10.561400107563442"><ele>1233.0</ele><time>2026-05-02T12:28:35.969Z</time></trkpt><trkpt lat="44.204772496600846" lon="10.561460721092788"><ele>1233.0</ele><time>2026-05-02T12:28:36.969Z</time></trkpt><trkpt lat="44.20480993752051" lon="10.561540723476984"><ele>1233.0</ele><time>2026-05-02T12:28:37.969Z</time></trkpt><trkpt lat="44.20484315873926" lon="10.561630114870125"><ele>1233.0</ele><time>2026-05-02T12:28:38.97Z</time></trkpt><trkpt lat="44.20488777636508" lon="10.561729169443938"><ele>1233.0</ele><time>2026-05-02T12:28:39.97Z</time></trkpt><trkpt lat="44.20493936750637" lon="10.561832688735148"><ele>1232.3333333333333</ele><time>2026-05-02T12:28:40.97Z</time></trkpt><trkpt lat="44.20498845844489" lon="10.5619202194404"><ele>1231.6666666666667</ele><time>2026-05-02T12:28:41.97Z</time></trkpt><trkpt lat="44.20505469446339" lon="10.562013836811525"><ele>1231.0</ele><time>2026-05-02T12:28:42.97Z</time></trkpt><trkpt lat="44.20510860742829" lon="10.562102162963852"><ele>1230.3333333333335</ele><time>2026-05-02T12:28:43.97Z</time></trkpt><trkpt lat="44.20517583904199" lon="10.562197363062943"><ele>1229.6666666666667</ele><time>2026-05-02T12:28:44.97Z</time></trkpt><trkpt lat="44.20523983774685" lon="10.562295636873088"><ele>1229.0</ele><time>2026-05-02T12:28:45.97Z</time></trkpt><trkpt lat="44.20529366666252" lon="10.56237941154425"><ele>1227.1666666666667</ele><time>2026-05-02T12:28:46.97Z</time></trkpt><trkpt lat="44.20536127140869" lon="10.562461715406837"><ele>1225.3333333333335</ele><time>2026-05-02T12:28:47.97Z</time></trkpt><trkpt lat="44.20543737909818" lon="10.562501271602514"><ele>1223.5</ele><time>2026-05-02T12:28:48.97Z</time></trkpt><trkpt lat="44.205531876708946" lon="10.56246739580306"><ele>1221.6666666666667</ele><time>2026-05-02T12:28:49.97Z</time></trkpt><trkpt lat="44.205590576245534" lon="10.562421185091871"><ele>1219.8333333333333</ele><time>2026-05-02T12:28:50.97Z</time></trkpt><trkpt lat="44.205658922877355" lon="10.56235758662088"><ele>1218.0</ele><time>2026-05-02T12:28:52.97Z</time></trkpt><trkpt lat="44.205930093664016" lon="10.56220857378724"><ele>1217.8</ele><time>2026-05-02T12:28:54.97Z</time></trkpt><trkpt lat="44.20601568530081" lon="10.562223638089314"><ele>1217.6</ele><time>2026-05-02T12:28:55.97Z</time></trkpt><trkpt lat="44.20610684116803" lon="10.562279273224776"><ele>1217.4</ele><time>2026-05-02T12:28:56.97Z</time></trkpt><trkpt lat="44.206209809687195" lon="10.562322724618943"><ele>1217.2</ele><time>2026-05-02T12:28:57.97Z</time></trkpt><trkpt lat="44.2063147871717" lon="10.562380821835367"><ele>1217.0</ele><time>2026-05-02T12:28:58.97Z</time></trkpt><trkpt lat="44.20638910995973" lon="10.562459925192465"><ele>1217.0</ele><time>2026-05-02T12:28:59.97Z</time></trkpt><trkpt lat="44.206443188991635" lon="10.562564530141122"><ele>1217.0</ele><time>2026-05-02T12:29:00.97Z</time></trkpt><trkpt lat="44.20649030452797" lon="10.562689512224416"><ele>1217.0</ele><time>2026-05-02T12:29:01.97Z</time></trkpt><trkpt lat="44.20653678778143" lon="10.56282593865668"><ele>1217.0</ele><time>2026-05-02T12:29:02.97Z</time></trkpt><trkpt lat="44.20659397514863" lon="10.562948018333646"><ele>1217.0</ele><time>2026-05-02T12:29:03.969Z</time></trkpt><trkpt lat="44.206628940940625" lon="10.563077190291171"><ele>1215.4</ele><time>2026-05-02T12:29:04.969Z</time></trkpt><trkpt lat="44.206689381085965" lon="10.563157931635807"><ele>1213.8000000000002</ele><time>2026-05-02T12:29:05.969Z</time></trkpt><trkpt lat="44.20676012231637" lon="10.563257004828522"><ele>1212.2</ele><time>2026-05-02T12:29:06.969Z</time></trkpt><trkpt lat="44.20683227494149" lon="10.563350449571017"><ele>1210.6000000000001</ele><time>2026-05-02T12:29:07.969Z</time></trkpt><trkpt lat="44.206883105249005" lon="10.563447305552973"><ele>1209.0</ele><time>2026-05-02T12:29:08.969Z</time></trkpt><trkpt lat="44.206949537282284" lon="10.56354049889032"><ele>1209.0</ele><time>2026-05-02T12:29:09.969Z</time></trkpt><trkpt lat="44.20701427503089" lon="10.563645714066398"><ele>1209.0</ele><time>2026-05-02T12:29:10.969Z</time></trkpt><trkpt lat="44.207043535181356" lon="10.56375741524063"><ele>1209.0</ele><time>2026-05-02T12:29:11.969Z</time></trkpt><trkpt lat="44.20705015228162" lon="10.563867256103686"><ele>1209.0</ele><time>2026-05-02T12:29:12.969Z</time></trkpt><trkpt lat="44.20705537888793" lon="10.563996125585325"><ele>1209.0</ele><time>2026-05-02T12:29:13.969Z</time></trkpt><trkpt lat="44.20705206672968" lon="10.564112432295532"><ele>1209.0</ele><time>2026-05-02T12:29:14.969Z</time></trkpt><trkpt lat="44.20704498349291" lon="10.56423588475545"><ele>1206.4</ele><time>2026-05-02T12:29:15.969Z</time></trkpt><trkpt lat="44.20703376555464" lon="10.564373778447798"><ele>1203.8000000000002</ele><time>2026-05-02T12:29:16.968Z</time></trkpt><trkpt lat="44.20701822098208" lon="10.564498546791913"><ele>1201.1999999999998</ele><time>2026-05-02T12:29:17.968Z</time></trkpt><trkpt lat="44.20699735562295" lon="10.564630825077648"><ele>1198.6</ele><time>2026-05-02T12:29:18.968Z</time></trkpt><trkpt lat="44.20697108170844" lon="10.564753587811111"><ele>1196.0</ele><time>2026-05-02T12:29:19.968Z</time></trkpt><trkpt lat="44.20692347309123" lon="10.564853205977583"><ele>1195.2</ele><time>2026-05-02T12:29:20.968Z</time></trkpt><trkpt lat="44.20686436341912" lon="10.564932498906474"><ele>1194.3999999999999</ele><time>2026-05-02T12:29:21.968Z</time></trkpt><trkpt lat="44.20680058542552" lon="10.565001324258075"><ele>1193.6</ele><time>2026-05-02T12:29:22.969Z</time></trkpt><trkpt lat="44.20672136754149" lon="10.565066941055383"><ele>1192.8</ele><time>2026-05-02T12:29:23.969Z</time></trkpt><trkpt lat="44.20664022470061" lon="10.565158127965963"><ele>1192.0</ele><time>2026-05-02T12:29:24.969Z</time></trkpt><trkpt lat="44.20655952441438" lon="10.565253218872476"><ele>1190.0</ele><time>2026-05-02T12:29:25.969Z</time></trkpt><trkpt lat="44.206468705995405" lon="10.565327690871415"><ele>1188.0</ele><time>2026-05-02T12:29:26.969Z</time></trkpt><trkpt lat="44.20638361333631" lon="10.565406065511532"><ele>1186.0</ele><time>2026-05-02T12:29:27.969Z</time></trkpt><trkpt lat="44.20630356922796" lon="10.565485063924637"><ele>1184.0</ele><time>2026-05-02T12:29:28.969Z</time></trkpt><trkpt lat="44.20626067917868" lon="10.565560705407533"><ele>1182.0</ele><time>2026-05-02T12:29:29.969Z</time></trkpt><trkpt lat="44.20623718576846" lon="10.565654227026569"><ele>1180.0</ele><time>2026-05-02T12:29:30.969Z</time></trkpt><trkpt lat="44.2062224698622" lon="10.565766497499602"><ele>1180.0</ele><time>2026-05-02T12:29:31.969Z</time></trkpt><trkpt lat="44.20621824373798" lon="10.565883205163972"><ele>1180.0</ele><time>2026-05-02T12:29:32.969Z</time></trkpt><trkpt lat="44.20621784376699" lon="10.565985859861147"><ele>1180.0</ele><time>2026-05-02T12:29:33.969Z</time></trkpt><trkpt lat="44.20623066343527" lon="10.566086802380772"><ele>1180.0</ele><time>2026-05-02T12:29:34.969Z</time></trkpt><trkpt lat="44.20624889211494" lon="10.566194380367497"><ele>1180.0</ele><time>2026-05-02T12:29:35.969Z</time></trkpt><trkpt lat="44.206317858371804" lon="10.566278690430849"><ele>1180.0</ele><time>2026-05-02T12:29:36.969Z</time></trkpt><trkpt lat="44.20637501382346" lon="10.56638634473401"><ele>1179.6</ele><time>2026-05-02T12:29:37.969Z</time></trkpt><trkpt lat="44.2064422791282" lon="10.56646931003593"><ele>1179.2</ele><time>2026-05-02T12:29:38.969Z</time></trkpt><trkpt lat="44.206514021504375" lon="10.566535984148073"><ele>1178.8</ele><time>2026-05-02T12:29:39.969Z</time></trkpt><trkpt lat="44.20655867139585" lon="10.566612462147127"><ele>1178.4</ele><time>2026-05-02T12:29:40.969Z</time></trkpt><trkpt lat="44.20658662821971" lon="10.566768453989619"><ele>1178.0</ele><time>2026-05-02T12:29:42.969Z</time></trkpt><trkpt lat="44.20660053460949" lon="10.566897867099106"><ele>1179.3333333333335</ele><time>2026-05-02T12:29:44.969Z</time></trkpt><trkpt lat="44.20653559886605" lon="10.56701431903858"><ele>1180.6666666666667</ele><time>2026-05-02T12:29:46.969Z</time></trkpt><trkpt lat="44.206472485119974" lon="10.567037482957856"><ele>1182.0</ele><time>2026-05-02T12:29:47.969Z</time></trkpt><trkpt lat="44.20639652125439" lon="10.567057580715442"><ele>1183.3333333333333</ele><time>2026-05-02T12:29:48.969Z</time></trkpt><trkpt lat="44.20632211930448" lon="10.567081744050848"><ele>1184.6666666666665</ele><time>2026-05-02T12:29:49.969Z</time></trkpt><trkpt lat="44.20623327483063" lon="10.567119129761519"><ele>1186.0</ele><time>2026-05-02T12:29:50.969Z</time></trkpt><trkpt lat="44.206143199790766" lon="10.567127795177987"><ele>1182.6</ele><time>2026-05-02T12:29:51.969Z</time></trkpt><trkpt lat="44.206049812456186" lon="10.567168777801609"><ele>1179.1999999999998</ele><time>2026-05-02T12:29:52.969Z</time></trkpt><trkpt lat="44.20595337214027" lon="10.567173418363604"><ele>1175.8000000000002</ele><time>2026-05-02T12:29:53.969Z</time></trkpt><trkpt lat="44.20585382949245" lon="10.567202968393362"><ele>1172.4</ele><time>2026-05-02T12:29:54.969Z</time></trkpt><trkpt lat="44.20574828473699" lon="10.567236768359365"><ele>1169.0</ele><time>2026-05-02T12:29:55.969Z</time></trkpt><trkpt lat="44.205654414107116" lon="10.56727019446445"><ele>1167.8</ele><time>2026-05-02T12:29:56.969Z</time></trkpt><trkpt lat="44.20555937194673" lon="10.567290076122712"><ele>1166.6000000000001</ele><time>2026-05-02T12:29:57.969Z</time></trkpt><trkpt lat="44.20546717350576" lon="10.567289068077665"><ele>1165.4</ele><time>2026-05-02T12:29:58.969Z</time></trkpt><trkpt lat="44.205377814561565" lon="10.567244230448821"><ele>1164.2</ele><time>2026-05-02T12:29:59.969Z</time></trkpt><trkpt lat="44.20528638778707" lon="10.567178871201557"><ele>1163.0</ele><time>2026-05-02T12:30:00.969Z</time></trkpt><trkpt lat="44.205200091980565" lon="10.56710952384812"><ele>1163.6666666666667</ele><time>2026-05-02T12:30:01.969Z</time></trkpt><trkpt lat="44.20511616350521" lon="10.567022678935565"><ele>1164.3333333333335</ele><time>2026-05-02T12:30:02.969Z</time></trkpt><trkpt lat="44.20506880979555" lon="10.566943996928932"><ele>1165.0</ele><time>2026-05-02T12:30:03.969Z</time></trkpt><trkpt lat="44.205026280565" lon="10.566848089988198"><ele>1165.6666666666667</ele><time>2026-05-02T12:30:04.969Z</time></trkpt><trkpt lat="44.20498282606407" lon="10.566735128874804"><ele>1166.3333333333333</ele><time>2026-05-02T12:30:05.969Z</time></trkpt><trkpt lat="44.2049486498367" lon="10.5666146314907"><ele>1167.0</ele><time>2026-05-02T12:30:06.969Z</time></trkpt><trkpt lat="44.2049261637975" lon="10.566482930873091"><ele>1167.0</ele><time>2026-05-02T12:30:07.969Z</time></trkpt><trkpt lat="44.20491062025892" lon="10.566348091064915"><ele>1167.0</ele><time>2026-05-02T12:30:08.969Z</time></trkpt><trkpt lat="44.204896469150775" lon="10.56620537328465"><ele>1167.0</ele><time>2026-05-02T12:30:09.969Z</time></trkpt><trkpt lat="44.20487571190201" lon="10.566062059318782"><ele>1167.0</ele><time>2026-05-02T12:30:10.969Z</time></trkpt><trkpt lat="44.20485691461256" lon="10.565924397161334"><ele>1167.0</ele><time>2026-05-02T12:30:11.969Z</time></trkpt><trkpt lat="44.204831996866574" lon="10.565787523790593"><ele>1164.5714285714287</ele><time>2026-05-02T12:30:12.969Z</time></trkpt><trkpt lat="44.20480826866798" lon="10.565682664790527"><ele>1162.1428571428573</ele><time>2026-05-02T12:30:13.969Z</time></trkpt><trkpt lat="44.204779030162726" lon="10.56560424344632"><ele>1159.7142857142858</ele><time>2026-05-02T12:30:14.969Z</time></trkpt><trkpt lat="44.20472433725573" lon="10.565539276736931"><ele>1157.2857142857142</ele><time>2026-05-02T12:30:15.969Z</time></trkpt><trkpt lat="44.20465639690045" lon="10.565513610096883"><ele>1154.8571428571427</ele><time>2026-05-02T12:30:16.969Z</time></trkpt><trkpt lat="44.204587981542346" lon="10.565496410052962"><ele>1152.4285714285713</ele><time>2026-05-02T12:30:17.969Z</time></trkpt><trkpt lat="44.20451844449028" lon="10.565566397440971"><ele>1150.0</ele><time>2026-05-02T12:30:18.969Z</time></trkpt><trkpt lat="44.204468389133154" lon="10.565648406275256"><ele>1150.0</ele><time>2026-05-02T12:30:19.969Z</time></trkpt><trkpt lat="44.20440707235186" lon="10.565724515554605"><ele>1150.0</ele><time>2026-05-02T12:30:20.969Z</time></trkpt><trkpt lat="44.20435329101252" lon="10.56582686036616"><ele>1150.0</ele><time>2026-05-02T12:30:21.969Z</time></trkpt><trkpt lat="44.20430387711612" lon="10.56592660146468"><ele>1150.0</ele><time>2026-05-02T12:30:22.969Z</time></trkpt><trkpt lat="44.20425842828605" lon="10.566044859428931"><ele>1150.0</ele><time>2026-05-02T12:30:23.969Z</time></trkpt><trkpt lat="44.20419609359433" lon="10.566145878169483"><ele>1150.6</ele><time>2026-05-02T12:30:24.969Z</time></trkpt><trkpt lat="44.20413836598321" lon="10.566248874322195"><ele>1151.2</ele><time>2026-05-02T12:30:25.969Z</time></trkpt><trkpt lat="44.204075737695796" lon="10.566356731104902"><ele>1151.8</ele><time>2026-05-02T12:30:26.97Z</time></trkpt><trkpt lat="44.204011487837334" lon="10.566468448801222"><ele>1152.4</ele><time>2026-05-02T12:30:27.97Z</time></trkpt><trkpt lat="44.20396773323018" lon="10.56658873932928"><ele>1153.0</ele><time>2026-05-02T12:30:28.97Z</time></trkpt><trkpt lat="44.20392828236042" lon="10.566719994018328"><ele>1149.2</ele><time>2026-05-02T12:30:29.97Z</time></trkpt><trkpt lat="44.20390525836063" lon="10.5668524841014"><ele>1145.4</ele><time>2026-05-02T12:30:30.97Z</time></trkpt><trkpt lat="44.20387767256922" lon="10.566984976640134"><ele>1141.6000000000001</ele><time>2026-05-02T12:30:31.97Z</time></trkpt><trkpt lat="44.20386819930077" lon="10.567127222045537"><ele>1137.8</ele><time>2026-05-02T12:30:32.97Z</time></trkpt><trkpt lat="44.20386288090538" lon="10.567271454074856"><ele>1134.0</ele><time>2026-05-02T12:30:33.97Z</time></trkpt><trkpt lat="44.203864965233855" lon="10.567411172248615"><ele>1133.2</ele><time>2026-05-02T12:30:34.97Z</time></trkpt><trkpt lat="44.20386001921204" lon="10.567551064962382"><ele>1132.4</ele><time>2026-05-02T12:30:35.97Z</time></trkpt><trkpt lat="44.203853436898726" lon="10.567672602527887"><ele>1131.6</ele><time>2026-05-02T12:30:36.97Z</time></trkpt><trkpt lat="44.203858775136425" lon="10.567812241730495"><ele>1130.8</ele><time>2026-05-02T12:30:37.97Z</time></trkpt><trkpt lat="44.20385644922828" lon="10.56793953977514"><ele>1130.0</ele><time>2026-05-02T12:30:38.97Z</time></trkpt><trkpt lat="44.20384910269464" lon="10.568076722324287"><ele>1129.4</ele><time>2026-05-02T12:30:39.97Z</time></trkpt><trkpt lat="44.20383886725128" lon="10.568213624308042"><ele>1128.8</ele><time>2026-05-02T12:30:40.97Z</time></trkpt><trkpt lat="44.20383227551504" lon="10.568346684200334"><ele>1128.2</ele><time>2026-05-02T12:30:41.97Z</time></trkpt><trkpt lat="44.203811805568215" lon="10.568476748443244"><ele>1127.6</ele><time>2026-05-02T12:30:42.97Z</time></trkpt><trkpt lat="44.20380655419722" lon="10.568612806260138"><ele>1127.0</ele><time>2026-05-02T12:30:43.97Z</time></trkpt><trkpt lat="44.2038172440673" lon="10.568788896835363"><ele>1126.2</ele><time>2026-05-02T12:30:44.97Z</time></trkpt><trkpt lat="44.2038545966083" lon="10.56890400707952"><ele>1125.4</ele><time>2026-05-02T12:30:45.97Z</time></trkpt><trkpt lat="44.20386304812453" lon="10.569076102537718"><ele>1124.6</ele><time>2026-05-02T12:30:47.97Z</time></trkpt><trkpt lat="44.20381624372487" lon="10.569215192715646"><ele>1123.8</ele><time>2026-05-02T12:30:48.97Z</time></trkpt><trkpt lat="44.20383590168836" lon="10.569301351515055"><ele>1123.0</ele><time>2026-05-02T12:30:49.97Z</time></trkpt><trkpt lat="44.2040110050322" lon="10.569392624463566"><ele>1124.0</ele><time>2026-05-02T12:30:50.97Z</time></trkpt><trkpt lat="44.204032211814585" lon="10.569509451507432"><ele>1125.0</ele><time>2026-05-02T12:30:51.97Z</time></trkpt><trkpt lat="44.20402385267014" lon="10.569634572480204"><ele>1126.0</ele><time>2026-05-02T12:30:52.97Z</time></trkpt><trkpt lat="44.204007704993444" lon="10.569766462883573"><ele>1127.0</ele><time>2026-05-02T12:30:53.97Z</time></trkpt><trkpt lat="44.20398883711265" lon="10.569891486854678"><ele>1128.0</ele><time>2026-05-02T12:30:54.97Z</time></trkpt><trkpt lat="44.203985957456474" lon="10.570004708395004"><ele>1129.0</ele><time>2026-05-02T12:30:55.97Z</time></trkpt><trkpt lat="44.204001256736014" lon="10.57009650235795"><ele>1129.0</ele><time>2026-05-02T12:30:56.97Z</time></trkpt><trkpt lat="44.204057680280904" lon="10.570251757603769"><ele>1129.0</ele><time>2026-05-02T12:30:58.97Z</time></trkpt><trkpt lat="44.20410615685343" lon="10.570323234417794"><ele>1129.0</ele><time>2026-05-02T12:30:59.97Z</time></trkpt><trkpt lat="44.204163525321256" lon="10.570405200386352"><ele>1129.0</ele><time>2026-05-02T12:31:00.97Z</time></trkpt><trkpt lat="44.20421820089496" lon="10.570488962554851"><ele>1129.0</ele><time>2026-05-02T12:31:01.97Z</time></trkpt><trkpt lat="44.204281760213114" lon="10.57056988417273"><ele>1129.0</ele><time>2026-05-02T12:31:02.97Z</time></trkpt><trkpt lat="44.20435176533967" lon="10.570651803943303"><ele>1126.8</ele><time>2026-05-02T12:31:03.97Z</time></trkpt><trkpt lat="44.20442539602632" lon="10.57073858292072"><ele>1124.6000000000001</ele><time>2026-05-02T12:31:04.97Z</time></trkpt><trkpt lat="44.20449664677852" lon="10.570824022430976"><ele>1122.4</ele><time>2026-05-02T12:31:05.97Z</time></trkpt><trkpt lat="44.204572012413465" lon="10.570920281487151"><ele>1120.2</ele><time>2026-05-02T12:31:06.97Z</time></trkpt><trkpt lat="44.20465083183846" lon="10.571014108397886"><ele>1118.0</ele><time>2026-05-02T12:31:07.97Z</time></trkpt><trkpt lat="44.204729283888085" lon="10.57110277776989"><ele>1118.0</ele><time>2026-05-02T12:31:08.97Z</time></trkpt><trkpt lat="44.20481157843087" lon="10.571181238966995"><ele>1118.0</ele><time>2026-05-02T12:31:09.97Z</time></trkpt><trkpt lat="44.204892497538935" lon="10.57125778792275"><ele>1118.0</ele><time>2026-05-02T12:31:10.97Z</time></trkpt><trkpt lat="44.20495812730784" lon="10.571320243768444"><ele>1118.0</ele><time>2026-05-02T12:31:11.97Z</time></trkpt><trkpt lat="44.20502613377578" lon="10.571371971331843"><ele>1118.0</ele><time>2026-05-02T12:31:12.97Z</time></trkpt><trkpt lat="44.20511070803303" lon="10.571423597132497"><ele>1118.0</ele><time>2026-05-02T12:31:13.97Z</time></trkpt><trkpt lat="44.205196837039566" lon="10.571471745266685"><ele>1116.6</ele><time>2026-05-02T12:31:14.97Z</time></trkpt><trkpt lat="44.20528015918756" lon="10.57150913036989"><ele>1115.1999999999998</ele><time>2026-05-02T12:31:15.97Z</time></trkpt><trkpt lat="44.2053664573877" lon="10.571551658156977"><ele>1113.8</ele><time>2026-05-02T12:31:16.97Z</time></trkpt><trkpt lat="44.20544727437889" lon="10.571592306982051"><ele>1112.3999999999999</ele><time>2026-05-02T12:31:17.97Z</time></trkpt><trkpt lat="44.20552393200036" lon="10.571624408743636"><ele>1111.0</ele><time>2026-05-02T12:31:18.969Z</time></trkpt><trkpt lat="44.205599602934726" lon="10.571783272568288"><ele>1111.0</ele><time>2026-05-02T12:31:20.97Z</time></trkpt><trkpt lat="44.20561280556709" lon="10.571884789089133"><ele>1111.0</ele><time>2026-05-02T12:31:21.97Z</time></trkpt><trkpt lat="44.20557177782398" lon="10.571984012586178"><ele>1111.0</ele><time>2026-05-02T12:31:22.97Z</time></trkpt><trkpt lat="44.20556761278649" lon="10.572091082314442"><ele>1111.0</ele><time>2026-05-02T12:31:23.97Z</time></trkpt><trkpt lat="44.205527779894204" lon="10.572195910209846"><ele>1111.0</ele><time>2026-05-02T12:31:24.97Z</time></trkpt><trkpt lat="44.20550967700426" lon="10.572307834478806"><ele>1111.0</ele><time>2026-05-02T12:31:25.97Z</time></trkpt><trkpt lat="44.2055047548682" lon="10.572412598993266"><ele>1109.8</ele><time>2026-05-02T12:31:26.97Z</time></trkpt><trkpt lat="44.20551672072807" lon="10.572530509472722"><ele>1108.6</ele><time>2026-05-02T12:31:27.97Z</time></trkpt><trkpt lat="44.20554447114078" lon="10.572639511399741"><ele>1107.4</ele><time>2026-05-02T12:31:28.97Z</time></trkpt><trkpt lat="44.205595222534676" lon="10.57276009576793"><ele>1106.2</ele><time>2026-05-02T12:31:29.97Z</time></trkpt><trkpt lat="44.20564906304882" lon="10.572878127298782"><ele>1105.0</ele><time>2026-05-02T12:31:30.97Z</time></trkpt><trkpt lat="44.205702130084255" lon="10.572988436607487"><ele>1105.0</ele><time>2026-05-02T12:31:31.97Z</time></trkpt><trkpt lat="44.20575216035703" lon="10.573095007669137"><ele>1105.0</ele><time>2026-05-02T12:31:32.97Z</time></trkpt><trkpt lat="44.20579508180899" lon="10.573209053330386"><ele>1105.0</ele><time>2026-05-02T12:31:33.97Z</time></trkpt><trkpt lat="44.20581052495662" lon="10.573311435718828"><ele>1105.0</ele><time>2026-05-02T12:31:34.97Z</time></trkpt><trkpt lat="44.20579918407491" lon="10.573405472364325"><ele>1105.0</ele><time>2026-05-02T12:31:35.97Z</time></trkpt><trkpt lat="44.20576710347746" lon="10.573496626969785"><ele>1105.0</ele><time>2026-05-02T12:31:36.97Z</time></trkpt><trkpt lat="44.20572673438665" lon="10.573582627694844"><ele>1105.0</ele><time>2026-05-02T12:31:37.97Z</time></trkpt><trkpt lat="44.20567338613938" lon="10.57365899858975"><ele>1105.0</ele><time>2026-05-02T12:31:38.97Z</time></trkpt><trkpt lat="44.20561086628815" lon="10.573746189187524"><ele>1105.0</ele><time>2026-05-02T12:31:39.97Z</time></trkpt><trkpt lat="44.20554882887102" lon="10.573839498687285"><ele>1105.0</ele><time>2026-05-02T12:31:40.97Z</time></trkpt><trkpt lat="44.205497373930086" lon="10.573946939431513"><ele>1105.0</ele><time>2026-05-02T12:31:41.97Z</time></trkpt><trkpt lat="44.20545047670987" lon="10.57406061370828"><ele>1105.0</ele><time>2026-05-02T12:31:42.97Z</time></trkpt><trkpt lat="44.20540488568993" lon="10.574176754038023"><ele>1101.2</ele><time>2026-05-02T12:31:43.97Z</time></trkpt><trkpt lat="44.205361644528004" lon="10.574298737022959"><ele>1097.4</ele><time>2026-05-02T12:31:44.97Z</time></trkpt><trkpt lat="44.205317514929156" lon="10.574411663852162"><ele>1093.6</ele><time>2026-05-02T12:31:45.97Z</time></trkpt><trkpt lat="44.20532449998389" lon="10.574546862593644"><ele>1089.8</ele><time>2026-05-02T12:31:46.97Z</time></trkpt><trkpt lat="44.2053144616065" lon="10.574674735603617"><ele>1086.0</ele><time>2026-05-02T12:31:47.97Z</time></trkpt><trkpt lat="44.20532099124699" lon="10.574806860828904"><ele>1084.8</ele><time>2026-05-02T12:31:48.97Z</time></trkpt><trkpt lat="44.20532639919609" lon="10.574938052737568"><ele>1083.6</ele><time>2026-05-02T12:31:49.97Z</time></trkpt><trkpt lat="44.20533368515856" lon="10.575066169185416"><ele>1082.4</ele><time>2026-05-02T12:31:50.97Z</time></trkpt><trkpt lat="44.205344444526844" lon="10.575200687230573"><ele>1081.2</ele><time>2026-05-02T12:31:51.97Z</time></trkpt><trkpt lat="44.20534099116941" lon="10.575339229019882"><ele>1080.0</ele><time>2026-05-02T12:31:52.97Z</time></trkpt><trkpt lat="44.20535361174642" lon="10.575474226066449"><ele>1079.2</ele><time>2026-05-02T12:31:53.97Z</time></trkpt><trkpt lat="44.20536784028538" lon="10.5756115221024"><ele>1078.4</ele><time>2026-05-02T12:31:54.97Z</time></trkpt><trkpt lat="44.205391670337924" lon="10.57575049029054"><ele>1077.6</ele><time>2026-05-02T12:31:55.97Z</time></trkpt><trkpt lat="44.20540490927082" lon="10.575895442844043"><ele>1076.8</ele><time>2026-05-02T12:31:56.97Z</time></trkpt><trkpt lat="44.205421351514154" lon="10.576049044765176"><ele>1076.0</ele><time>2026-05-02T12:31:57.97Z</time></trkpt><trkpt lat="44.20543679748178" lon="10.576180021729142"><ele>1076.1666666666667</ele><time>2026-05-02T12:31:58.97Z</time></trkpt><trkpt lat="44.20545071159797" lon="10.576306061290822"><ele>1076.3333333333335</ele><time>2026-05-02T12:31:59.97Z</time></trkpt><trkpt lat="44.20546278123801" lon="10.57642521489259"><ele>1076.5</ele><time>2026-05-02T12:32:00.97Z</time></trkpt><trkpt lat="44.20547881053022" lon="10.576549099567902"><ele>1076.6666666666667</ele><time>2026-05-02T12:32:01.97Z</time></trkpt><trkpt lat="44.205474883956015" lon="10.576653816872101"><ele>1076.8333333333333</ele><time>2026-05-02T12:32:02.97Z</time></trkpt><trkpt lat="44.205440349846235" lon="10.576753905580205"><ele>1077.0</ele><time>2026-05-02T12:32:03.97Z</time></trkpt><trkpt lat="44.20540145827385" lon="10.576836891126806"><ele>1077.0</ele><time>2026-05-02T12:32:04.97Z</time></trkpt><trkpt lat="44.2053346390286" lon="10.576892961264226"><ele>1077.0</ele><time>2026-05-02T12:32:05.97Z</time></trkpt><trkpt lat="44.205273139772125" lon="10.57698299056992"><ele>1077.0</ele><time>2026-05-02T12:32:06.97Z</time></trkpt><trkpt lat="44.205218247578856" lon="10.577072561844377"><ele>1077.0</ele><time>2026-05-02T12:32:07.97Z</time></trkpt><trkpt lat="44.20517581201482" lon="10.577199273066746"><ele>1077.0</ele><time>2026-05-02T12:32:08.97Z</time></trkpt><trkpt lat="44.205146045284216" lon="10.577308269154724"><ele>1077.0</ele><time>2026-05-02T12:32:09.97Z</time></trkpt><trkpt lat="44.20512781700093" lon="10.577424900665346"><ele>1078.6666666666667</ele><time>2026-05-02T12:32:10.97Z</time></trkpt><trkpt lat="44.20511581719537" lon="10.577530147049346"><ele>1080.3333333333333</ele><time>2026-05-02T12:32:11.97Z</time></trkpt><trkpt lat="44.20509497628639" lon="10.577649265937106"><ele>1082.0</ele><time>2026-05-02T12:32:12.97Z</time></trkpt><trkpt lat="44.20507073428853" lon="10.577748035101235"><ele>1083.6666666666665</ele><time>2026-05-02T12:32:13.97Z</time></trkpt><trkpt lat="44.20505149867527" lon="10.577860029315525"><ele>1085.3333333333333</ele><time>2026-05-02T12:32:14.97Z</time></trkpt><trkpt lat="44.20503330816768" lon="10.577970320658956"><ele>1087.0</ele><time>2026-05-02T12:32:15.971Z</time></trkpt><trkpt lat="44.204998935161726" lon="10.578090857763861"><ele>1089.0</ele><time>2026-05-02T12:32:16.971Z</time></trkpt><trkpt lat="44.20497720178061" lon="10.578216268716634"><ele>1091.0</ele><time>2026-05-02T12:32:17.971Z</time></trkpt><trkpt lat="44.204959430942836" lon="10.578347614112221"><ele>1093.0</ele><time>2026-05-02T12:32:18.971Z</time></trkpt><trkpt lat="44.204951594991066" lon="10.578474331897414"><ele>1095.0</ele><time>2026-05-02T12:32:19.971Z</time></trkpt><trkpt lat="44.20494762100663" lon="10.578601359482171"><ele>1097.0</ele><time>2026-05-02T12:32:20.971Z</time></trkpt><trkpt lat="44.204963911197" lon="10.578726084070173"><ele>1097.0</ele><time>2026-05-02T12:32:21.971Z</time></trkpt><trkpt lat="44.20500311271641" lon="10.578861917575793"><ele>1097.0</ele><time>2026-05-02T12:32:22.971Z</time></trkpt><trkpt lat="44.205060017930755" lon="10.57896912143307"><ele>1097.0</ele><time>2026-05-02T12:32:23.971Z</time></trkpt><trkpt lat="44.20511210226802" lon="10.579067643506283"><ele>1097.0</ele><time>2026-05-02T12:32:24.971Z</time></trkpt><trkpt lat="44.20516997840375" lon="10.579169812566013"><ele>1097.0</ele><time>2026-05-02T12:32:25.971Z</time></trkpt><trkpt lat="44.20522255973394" lon="10.579277819420046"><ele>1097.0</ele><time>2026-05-02T12:32:26.971Z</time></trkpt><trkpt lat="44.20525885446074" lon="10.579384292690387"><ele>1097.0</ele><time>2026-05-02T12:32:27.971Z</time></trkpt><trkpt lat="44.20528360339027" lon="10.579492244859775"><ele>1097.0</ele><time>2026-05-02T12:32:28.971Z</time></trkpt><trkpt lat="44.205302712522645" lon="10.579615811168276"><ele>1097.0</ele><time>2026-05-02T12:32:29.971Z</time></trkpt><trkpt lat="44.20530591676599" lon="10.579749107063757"><ele>1097.0</ele><time>2026-05-02T12:32:30.971Z</time></trkpt><trkpt lat="44.205302795540895" lon="10.579887599068229"><ele>1097.0</ele><time>2026-05-02T12:32:31.971Z</time></trkpt><trkpt lat="44.20527253838681" lon="10.58001047476866"><ele>1097.0</ele><time>2026-05-02T12:32:32.971Z</time></trkpt><trkpt lat="44.205237274649306" lon="10.580155007706695"><ele>1097.0</ele><time>2026-05-02T12:32:33.971Z</time></trkpt><trkpt lat="44.20522632780733" lon="10.580306450969415"><ele>1097.0</ele><time>2026-05-02T12:32:34.971Z</time></trkpt><trkpt lat="44.205262487926476" lon="10.580467918487674"><ele>1097.0</ele><time>2026-05-02T12:32:35.971Z</time></trkpt><trkpt lat="44.205247351858745" lon="10.580609341477142"><ele>1098.8333333333335</ele><time>2026-05-02T12:32:36.971Z</time></trkpt><trkpt lat="44.20523932823451" lon="10.580733913535505"><ele>1100.6666666666667</ele><time>2026-05-02T12:32:37.971Z</time></trkpt><trkpt lat="44.20517723353259" lon="10.5808074090696"><ele>1102.5</ele><time>2026-05-02T12:32:38.971Z</time></trkpt><trkpt lat="44.20509810905596" lon="10.580865046389638"><ele>1104.3333333333333</ele><time>2026-05-02T12:32:39.971Z</time></trkpt><trkpt lat="44.205029470414885" lon="10.580934115014708"><ele>1106.1666666666665</ele><time>2026-05-02T12:32:40.971Z</time></trkpt><trkpt lat="44.20495776306737" lon="10.58101123571653"><ele>1108.0</ele><time>2026-05-02T12:32:41.971Z</time></trkpt><trkpt lat="44.20491375345629" lon="10.581093158987127"><ele>1108.0</ele><time>2026-05-02T12:32:42.971Z</time></trkpt><trkpt lat="44.20485446058886" lon="10.581184787959515"><ele>1108.0</ele><time>2026-05-02T12:32:43.971Z</time></trkpt><trkpt lat="44.20479701032999" lon="10.581263111308441"><ele>1108.0</ele><time>2026-05-02T12:32:44.971Z</time></trkpt><trkpt lat="44.20473302381234" lon="10.581337557470823"><ele>1108.0</ele><time>2026-05-02T12:32:45.971Z</time></trkpt><trkpt lat="44.204655807304945" lon="10.581376410251593"><ele>1108.0</ele><time>2026-05-02T12:32:46.971Z</time></trkpt><trkpt lat="44.20457415292657" lon="10.581412754005031"><ele>1108.0</ele><time>2026-05-02T12:32:47.971Z</time></trkpt><trkpt lat="44.204486417018266" lon="10.581447082778217"><ele>1108.0</ele><time>2026-05-02T12:32:48.971Z</time></trkpt><trkpt lat="44.204390835662416" lon="10.581512721395677"><ele>1108.0</ele><time>2026-05-02T12:32:49.971Z</time></trkpt><trkpt lat="44.2042984013737" lon="10.581552971335757"><ele>1108.0</ele><time>2026-05-02T12:32:50.971Z</time></trkpt><trkpt lat="44.20422210018479" lon="10.581589607510823"><ele>1108.0</ele><time>2026-05-02T12:32:51.971Z</time></trkpt><trkpt lat="44.20415721541387" lon="10.581625334054275"><ele>1108.0</ele><time>2026-05-02T12:32:52.971Z</time></trkpt><trkpt lat="44.204048916218085" lon="10.581690942033905"><ele>1107.8333333333333</ele><time>2026-05-02T12:32:54.971Z</time></trkpt><trkpt lat="44.20398286441698" lon="10.581747802346644"><ele>1107.6666666666665</ele><time>2026-05-02T12:32:55.971Z</time></trkpt><trkpt lat="44.2039409539322" lon="10.581842117541147"><ele>1107.5</ele><time>2026-05-02T12:32:56.971Z</time></trkpt><trkpt lat="44.20390465798447" lon="10.581949005899368"><ele>1107.3333333333333</ele><time>2026-05-02T12:32:57.971Z</time></trkpt><trkpt lat="44.203864144984614" lon="10.58206752109095"><ele>1107.1666666666667</ele><time>2026-05-02T12:32:58.971Z</time></trkpt><trkpt lat="44.20382650129285" lon="10.58218752092349"><ele>1107.0</ele><time>2026-05-02T12:32:59.971Z</time></trkpt><trkpt lat="44.203784596025486" lon="10.582300689947058"><ele>1107.0</ele><time>2026-05-02T12:33:00.971Z</time></trkpt><trkpt lat="44.203732165969" lon="10.582392427906123"><ele>1107.0</ele><time>2026-05-02T12:33:01.971Z</time></trkpt><trkpt lat="44.203676194705515" lon="10.582473300588843"><ele>1107.0</ele><time>2026-05-02T12:33:02.971Z</time></trkpt><trkpt lat="44.20360650303839" lon="10.582520656743478"><ele>1107.0</ele><time>2026-05-02T12:33:03.971Z</time></trkpt><trkpt lat="44.20352593488394" lon="10.582558656438563"><ele>1107.0</ele><time>2026-05-02T12:33:04.971Z</time></trkpt><trkpt lat="44.20344804756048" lon="10.582586101234918"><ele>1107.0</ele><time>2026-05-02T12:33:05.971Z</time></trkpt><trkpt lat="44.20336319819611" lon="10.582610764341368"><ele>1107.0</ele><time>2026-05-02T12:33:06.971Z</time></trkpt><trkpt lat="44.203278303433265" lon="10.582618920094518"><ele>1107.0</ele><time>2026-05-02T12:33:07.971Z</time></trkpt><trkpt lat="44.203174493552616" lon="10.58264560269675"><ele>1107.0</ele><time>2026-05-02T12:33:08.971Z</time></trkpt><trkpt lat="44.203070308384966" lon="10.582683561198252"><ele>1107.0</ele><time>2026-05-02T12:33:09.971Z</time></trkpt><trkpt lat="44.20297155434005" lon="10.582746254637543"><ele>1107.0</ele><time>2026-05-02T12:33:10.971Z</time></trkpt><trkpt lat="44.202873572848496" lon="10.582785256309348"><ele>1109.0</ele><time>2026-05-02T12:33:11.971Z</time></trkpt><trkpt lat="44.20277455544638" lon="10.58281558236264"><ele>1111.0</ele><time>2026-05-02T12:33:12.971Z</time></trkpt><trkpt lat="44.20267422274548" lon="10.582859039524761"><ele>1113.0</ele><time>2026-05-02T12:33:13.971Z</time></trkpt><trkpt lat="44.202573339398036" lon="10.582897343943882"><ele>1115.0</ele><time>2026-05-02T12:33:14.971Z</time></trkpt><trkpt lat="44.202476046735214" lon="10.582941103524803"><ele>1117.0</ele><time>2026-05-02T12:33:15.971Z</time></trkpt><trkpt lat="44.202372832228356" lon="10.582968687221737"><ele>1113.2</ele><time>2026-05-02T12:33:16.97Z</time></trkpt><trkpt lat="44.20227963915528" lon="10.583012975686936"><ele>1109.4</ele><time>2026-05-02T12:33:17.971Z</time></trkpt><trkpt lat="44.2021895980462" lon="10.583050711256009"><ele>1105.6</ele><time>2026-05-02T12:33:18.971Z</time></trkpt><trkpt lat="44.20210491573943" lon="10.583075261757457"><ele>1101.8</ele><time>2026-05-02T12:33:19.97Z</time></trkpt><trkpt lat="44.20197552128764" lon="10.583173805583483"><ele>1098.0</ele><time>2026-05-02T12:33:21.971Z</time></trkpt><trkpt lat="44.201881488607434" lon="10.58325455079109"><ele>1098.0</ele><time>2026-05-02T12:33:22.971Z</time></trkpt><trkpt lat="44.20179850296912" lon="10.58337248256661"><ele>1098.0</ele><time>2026-05-02T12:33:23.971Z</time></trkpt><trkpt lat="44.20174999940224" lon="10.583487493011273"><ele>1098.0</ele><time>2026-05-02T12:33:24.971Z</time></trkpt><trkpt lat="44.20165107251527" lon="10.583623469590963"><ele>1098.0</ele><time>2026-05-02T12:33:26.971Z</time></trkpt><trkpt lat="44.20158937552923" lon="10.583731587758063"><ele>1099.6666666666667</ele><time>2026-05-02T12:33:27.971Z</time></trkpt><trkpt lat="44.20152787503941" lon="10.583837517421282"><ele>1101.3333333333333</ele><time>2026-05-02T12:33:28.971Z</time></trkpt><trkpt lat="44.20147512439557" lon="10.58393784618931"><ele>1103.0</ele><time>2026-05-02T12:33:29.971Z</time></trkpt><trkpt lat="44.20144611390757" lon="10.58404341493058"><ele>1104.6666666666665</ele><time>2026-05-02T12:33:30.971Z</time></trkpt><trkpt lat="44.201436345872594" lon="10.58416254927794"><ele>1106.3333333333333</ele><time>2026-05-02T12:33:31.971Z</time></trkpt><trkpt lat="44.201439446832005" lon="10.584295515157002"><ele>1108.0</ele><time>2026-05-02T12:33:32.971Z</time></trkpt><trkpt lat="44.201445017385474" lon="10.584438246587357"><ele>1101.4</ele><time>2026-05-02T12:33:33.971Z</time></trkpt><trkpt lat="44.2014472732312" lon="10.58458328962478"><ele>1094.8</ele><time>2026-05-02T12:33:34.971Z</time></trkpt><trkpt lat="44.20145338959513" lon="10.584720260564167"><ele>1088.2</ele><time>2026-05-02T12:33:35.971Z</time></trkpt><trkpt lat="44.201436365294256" lon="10.584847322175206"><ele>1081.6</ele><time>2026-05-02T12:33:36.971Z</time></trkpt><trkpt lat="44.20139542879233" lon="10.584975232264304"><ele>1075.0</ele><time>2026-05-02T12:33:37.971Z</time></trkpt><trkpt lat="44.201346321426044" lon="10.585101025705182"><ele>1075.0</ele><time>2026-05-02T12:33:38.971Z</time></trkpt><trkpt lat="44.20129528546669" lon="10.58522781958803"><ele>1075.0</ele><time>2026-05-02T12:33:39.971Z</time></trkpt><trkpt lat="44.20124670363868" lon="10.585352964345295"><ele>1075.0</ele><time>2026-05-02T12:33:40.971Z</time></trkpt><trkpt lat="44.20121117349907" lon="10.585493307366166"><ele>1075.0</ele><time>2026-05-02T12:33:41.971Z</time></trkpt><trkpt lat="44.20119950138413" lon="10.58563330265789"><ele>1075.0</ele><time>2026-05-02T12:33:42.971Z</time></trkpt><trkpt lat="44.20120820423274" lon="10.585767400598408"><ele>1075.8</ele><time>2026-05-02T12:33:43.971Z</time></trkpt><trkpt lat="44.2012376102588" lon="10.585896889880074"><ele>1076.6</ele><time>2026-05-02T12:33:44.971Z</time></trkpt><trkpt lat="44.201276272626245" lon="10.586025829965706"><ele>1077.4</ele><time>2026-05-02T12:33:45.971Z</time></trkpt><trkpt lat="44.20133581911489" lon="10.586122014648215"><ele>1078.2</ele><time>2026-05-02T12:33:46.971Z</time></trkpt><trkpt lat="44.20141107150419" lon="10.586209865825179"><ele>1079.0</ele><time>2026-05-02T12:33:47.971Z</time></trkpt><trkpt lat="44.2014877790024" lon="10.58627661713577"><ele>1080.4</ele><time>2026-05-02T12:33:48.971Z</time></trkpt><trkpt lat="44.201570282481086" lon="10.586346851906178"><ele>1081.8000000000002</ele><time>2026-05-02T12:33:49.971Z</time></trkpt><trkpt lat="44.20164991015828" lon="10.586418489339328"><ele>1083.1999999999998</ele><time>2026-05-02T12:33:50.971Z</time></trkpt><trkpt lat="44.20171849295796" lon="10.586485167939358"><ele>1084.6</ele><time>2026-05-02T12:33:51.971Z</time></trkpt><trkpt lat="44.20179529839005" lon="10.586571500968754"><ele>1086.0</ele><time>2026-05-02T12:33:52.971Z</time></trkpt><trkpt lat="44.20186931668203" lon="10.58665323460338"><ele>1086.0</ele><time>2026-05-02T12:33:53.971Z</time></trkpt><trkpt lat="44.20195239586356" lon="10.586719767998238"><ele>1086.0</ele><time>2026-05-02T12:33:54.971Z</time></trkpt><trkpt lat="44.20203818303678" lon="10.58678974544296"><ele>1086.0</ele><time>2026-05-02T12:33:55.971Z</time></trkpt><trkpt lat="44.202126679761506" lon="10.586845991020786"><ele>1086.0</ele><time>2026-05-02T12:33:56.971Z</time></trkpt><trkpt lat="44.20221619805367" lon="10.58686821931225"><ele>1086.0</ele><time>2026-05-02T12:33:57.971Z</time></trkpt><trkpt lat="44.20231395562795" lon="10.586903184779583"><ele>1085.0</ele><time>2026-05-02T12:33:58.971Z</time></trkpt><trkpt lat="44.202409139496794" lon="10.586916502445549"><ele>1084.0</ele><time>2026-05-02T12:33:59.971Z</time></trkpt><trkpt lat="44.20250354866605" lon="10.586931346938234"><ele>1083.0</ele><time>2026-05-02T12:34:00.971Z</time></trkpt><trkpt lat="44.20258806919085" lon="10.586959859891719"><ele>1082.0</ele><time>2026-05-02T12:34:01.971Z</time></trkpt><trkpt lat="44.20266327529086" lon="10.587018760725845"><ele>1081.0</ele><time>2026-05-02T12:34:02.971Z</time></trkpt><trkpt lat="44.20272127962253" lon="10.587108675918785"><ele>1081.0</ele><time>2026-05-02T12:34:03.971Z</time></trkpt><trkpt lat="44.202738747960844" lon="10.58721770834977"><ele>1081.0</ele><time>2026-05-02T12:34:04.971Z</time></trkpt><trkpt lat="44.202721152175364" lon="10.587324289709972"><ele>1081.0</ele><time>2026-05-02T12:34:05.971Z</time></trkpt><trkpt lat="44.20271356134842" lon="10.587445590968203"><ele>1081.0</ele><time>2026-05-02T12:34:06.971Z</time></trkpt><trkpt lat="44.20270136909735" lon="10.5875796506891"><ele>1081.0</ele><time>2026-05-02T12:34:07.971Z</time></trkpt><trkpt lat="44.202699826291074" lon="10.587713088449174"><ele>1081.0</ele><time>2026-05-02T12:34:08.971Z</time></trkpt><trkpt lat="44.20270126257555" lon="10.587859699029917"><ele>1080.0</ele><time>2026-05-02T12:34:09.971Z</time></trkpt><trkpt lat="44.20271239607717" lon="10.587988715541123"><ele>1079.0</ele><time>2026-05-02T12:34:10.971Z</time></trkpt><trkpt lat="44.20271559368387" lon="10.588112794563154"><ele>1078.0</ele><time>2026-05-02T12:34:11.971Z</time></trkpt><trkpt lat="44.20271165768631" lon="10.588234687534305"><ele>1077.0</ele><time>2026-05-02T12:34:12.971Z</time></trkpt><trkpt lat="44.20272251582071" lon="10.588353482261052"><ele>1076.0</ele><time>2026-05-02T12:34:13.971Z</time></trkpt><trkpt lat="44.202746671328214" lon="10.588449069042221"><ele>1075.0</ele><time>2026-05-02T12:34:14.971Z</time></trkpt><trkpt lat="44.20279675619871" lon="10.588520296821194"><ele>1075.0</ele><time>2026-05-02T12:34:15.971Z</time></trkpt><trkpt lat="44.20286307119365" lon="10.588594089921529"><ele>1075.0</ele><time>2026-05-02T12:34:16.971Z</time></trkpt><trkpt lat="44.20293907435083" lon="10.588652504761182"><ele>1075.0</ele><time>2026-05-02T12:34:17.971Z</time></trkpt><trkpt lat="44.203022295953375" lon="10.588748995359145"><ele>1075.0</ele><time>2026-05-02T12:34:18.971Z</time></trkpt><trkpt lat="44.2031131286263" lon="10.588812551643386"><ele>1075.0</ele><time>2026-05-02T12:34:19.971Z</time></trkpt><trkpt lat="44.203208191620014" lon="10.588887769564527"><ele>1075.8</ele><time>2026-05-02T12:34:20.971Z</time></trkpt><trkpt lat="44.203308181584" lon="10.588962753345445"><ele>1076.6</ele><time>2026-05-02T12:34:21.971Z</time></trkpt><trkpt lat="44.20341138077371" lon="10.588990176053828"><ele>1077.4</ele><time>2026-05-02T12:34:22.971Z</time></trkpt><trkpt lat="44.20352962765323" lon="10.58900798788519"><ele>1078.2</ele><time>2026-05-02T12:34:23.971Z</time></trkpt><trkpt lat="44.20363314107288" lon="10.589028970627535"><ele>1079.0</ele><time>2026-05-02T12:34:24.972Z</time></trkpt><trkpt lat="44.20372845134953" lon="10.589067930412776"><ele>1079.0</ele><time>2026-05-02T12:34:25.972Z</time></trkpt><trkpt lat="44.2038142175112" lon="10.589130040370655"><ele>1079.0</ele><time>2026-05-02T12:34:26.972Z</time></trkpt><trkpt lat="44.20389163555381" lon="10.589175230133572"><ele>1079.0</ele><time>2026-05-02T12:34:27.972Z</time></trkpt><trkpt lat="44.203951557738925" lon="10.589245728405505"><ele>1079.0</ele><time>2026-05-02T12:34:28.972Z</time></trkpt><trkpt lat="44.20399972544458" lon="10.589336029677472"><ele>1079.0</ele><time>2026-05-02T12:34:29.972Z</time></trkpt><trkpt lat="44.204041420988716" lon="10.589429395173967"><ele>1079.0</ele><time>2026-05-02T12:34:30.972Z</time></trkpt><trkpt lat="44.20407538204487" lon="10.589530014764525"><ele>1080.0</ele><time>2026-05-02T12:34:31.972Z</time></trkpt><trkpt lat="44.20410052688451" lon="10.589645437355411"><ele>1081.0</ele><time>2026-05-02T12:34:32.972Z</time></trkpt><trkpt lat="44.2041039508057" lon="10.589764169915979"><ele>1082.0</ele><time>2026-05-02T12:34:33.972Z</time></trkpt><trkpt lat="44.204104823039835" lon="10.589885812933291"><ele>1083.0</ele><time>2026-05-02T12:34:34.972Z</time></trkpt><trkpt lat="44.2041024764505" lon="10.590007751153136"><ele>1084.0</ele><time>2026-05-02T12:34:35.972Z</time></trkpt><trkpt lat="44.20410588724495" lon="10.590121735988225"><ele>1085.0</ele><time>2026-05-02T12:34:36.972Z</time></trkpt><trkpt lat="44.20411641990088" lon="10.590263273182883"><ele>1083.2</ele><time>2026-05-02T12:34:37.972Z</time></trkpt><trkpt lat="44.20417720266772" lon="10.590378577285916"><ele>1081.4</ele><time>2026-05-02T12:34:38.972Z</time></trkpt><trkpt lat="44.20427353931649" lon="10.590506364633262"><ele>1079.6</ele><time>2026-05-02T12:34:40.972Z</time></trkpt><trkpt lat="44.20433048711339" lon="10.590596520956371"><ele>1077.8</ele><time>2026-05-02T12:34:41.972Z</time></trkpt><trkpt lat="44.20434208747877" lon="10.590706522809308"><ele>1076.0</ele><time>2026-05-02T12:34:42.972Z</time></trkpt><trkpt lat="44.204392519831494" lon="10.590863686516434"><ele>1076.0</ele><time>2026-05-02T12:34:44.972Z</time></trkpt><trkpt lat="44.20446560703236" lon="10.590985033836477"><ele>1076.0</ele><time>2026-05-02T12:34:46.972Z</time></trkpt><trkpt lat="44.20450643808117" lon="10.59105407937857"><ele>1076.0</ele><time>2026-05-02T12:34:47.972Z</time></trkpt><trkpt lat="44.20461444859435" lon="10.591165161730462"><ele>1076.0</ele><time>2026-05-02T12:34:49.972Z</time></trkpt><trkpt lat="44.20465850853334" lon="10.591300350033224"><ele>1076.0</ele><time>2026-05-02T12:34:51.972Z</time></trkpt><trkpt lat="44.20462933225964" lon="10.591450684101678"><ele>1076.6666666666667</ele><time>2026-05-02T12:34:53.972Z</time></trkpt><trkpt lat="44.20460858628581" lon="10.59154194827159"><ele>1077.3333333333335</ele><time>2026-05-02T12:34:54.972Z</time></trkpt><trkpt lat="44.20459357576633" lon="10.591634998477517"><ele>1078.0</ele><time>2026-05-02T12:34:55.972Z</time></trkpt><trkpt lat="44.20462576633093" lon="10.591793340128902"><ele>1078.6666666666667</ele><time>2026-05-02T12:34:57.972Z</time></trkpt><trkpt lat="44.204730596142106" lon="10.591879031068746"><ele>1079.3333333333333</ele><time>2026-05-02T12:34:59.972Z</time></trkpt><trkpt lat="44.20480101232448" lon="10.591892917679202"><ele>1080.0</ele><time>2026-05-02T12:35:00.972Z</time></trkpt><trkpt lat="44.204885119089845" lon="10.591909782997726"><ele>1080.6666666666667</ele><time>2026-05-02T12:35:01.972Z</time></trkpt><trkpt lat="44.204973229304464" lon="10.591939639395488"><ele>1081.3333333333333</ele><time>2026-05-02T12:35:02.972Z</time></trkpt><trkpt lat="44.20505801936581" lon="10.591975151786253"><ele>1082.0</ele><time>2026-05-02T12:35:03.972Z</time></trkpt><trkpt lat="44.20515107074929" lon="10.59201422908537"><ele>1082.6666666666665</ele><time>2026-05-02T12:35:04.972Z</time></trkpt><trkpt lat="44.2052345737637" lon="10.592056659822518"><ele>1083.3333333333333</ele><time>2026-05-02T12:35:05.972Z</time></trkpt><trkpt lat="44.20530808566581" lon="10.592094951729552"><ele>1084.0</ele><time>2026-05-02T12:35:06.972Z</time></trkpt><trkpt lat="44.20539066548854" lon="10.592137298549096"><ele>1084.5714285714284</ele><time>2026-05-02T12:35:07.972Z</time></trkpt><trkpt lat="44.20546446402368" lon="10.59217587425238"><ele>1085.142857142857</ele><time>2026-05-02T12:35:08.972Z</time></trkpt><trkpt lat="44.205531698124986" lon="10.592205548203617"><ele>1085.7142857142858</ele><time>2026-05-02T12:35:09.972Z</time></trkpt><trkpt lat="44.20559261498895" lon="10.59224763760233"><ele>1086.2857142857142</ele><time>2026-05-02T12:35:10.972Z</time></trkpt><trkpt lat="44.205631653669556" lon="10.592334785240173"><ele>1086.857142857143</ele><time>2026-05-02T12:35:11.972Z</time></trkpt><trkpt lat="44.20566069652411" lon="10.592425028393565"><ele>1087.4285714285713</ele><time>2026-05-02T12:35:12.972Z</time></trkpt><trkpt lat="44.20568511471459" lon="10.592532945407706"><ele>1088.0</ele><time>2026-05-02T12:35:13.972Z</time></trkpt><trkpt lat="44.20566241302046" lon="10.592649839562306"><ele>1084.2</ele><time>2026-05-02T12:35:14.972Z</time></trkpt><trkpt lat="44.20561296641657" lon="10.592772878191973"><ele>1080.4</ele><time>2026-05-02T12:35:15.972Z</time></trkpt><trkpt lat="44.20556167478792" lon="10.592897386196638"><ele>1076.6000000000001</ele><time>2026-05-02T12:35:16.972Z</time></trkpt><trkpt lat="44.20553190916477" lon="10.593025140874893"><ele>1072.8</ele><time>2026-05-02T12:35:17.972Z</time></trkpt><trkpt lat="44.205499006619036" lon="10.59314825386629"><ele>1069.0</ele><time>2026-05-02T12:35:18.972Z</time></trkpt><trkpt lat="44.20547577482193" lon="10.593271017987641"><ele>1066.0</ele><time>2026-05-02T12:35:19.972Z</time></trkpt><trkpt lat="44.20545213137586" lon="10.593390232470378"><ele>1063.0</ele><time>2026-05-02T12:35:20.972Z</time></trkpt><trkpt lat="44.205460107381654" lon="10.593512898657668"><ele>1060.0</ele><time>2026-05-02T12:35:21.971Z</time></trkpt><trkpt lat="44.2054934682044" lon="10.593623010743409"><ele>1057.0</ele><time>2026-05-02T12:35:22.971Z</time></trkpt><trkpt lat="44.20552060845146" lon="10.593751451792096"><ele>1054.0</ele><time>2026-05-02T12:35:23.971Z</time></trkpt><trkpt lat="44.20555775593844" lon="10.593866591855639"><ele>1051.0</ele><time>2026-05-02T12:35:24.971Z</time></trkpt><trkpt lat="44.20560056627142" lon="10.593993160896563"><ele>1049.2</ele><time>2026-05-02T12:35:25.971Z</time></trkpt><trkpt lat="44.20563031293726" lon="10.59410210824029"><ele>1047.3999999999999</ele><time>2026-05-02T12:35:26.971Z</time></trkpt><trkpt lat="44.20565408881801" lon="10.594231475819992"><ele>1045.6</ele><time>2026-05-02T12:35:27.972Z</time></trkpt><trkpt lat="44.20566630574568" lon="10.594355000680968"><ele>1043.8</ele><time>2026-05-02T12:35:28.971Z</time></trkpt><trkpt lat="44.205649676287756" lon="10.594485054056147"><ele>1042.0</ele><time>2026-05-02T12:35:29.971Z</time></trkpt><trkpt lat="44.20566742808003" lon="10.594603835101431"><ele>1044.7142857142858</ele><time>2026-05-02T12:35:30.972Z</time></trkpt><trkpt lat="44.20567500054646" lon="10.594714882595632"><ele>1047.4285714285716</ele><time>2026-05-02T12:35:31.972Z</time></trkpt><trkpt lat="44.20571351466922" lon="10.5948134519901"><ele>1050.1428571428573</ele><time>2026-05-02T12:35:32.972Z</time></trkpt><trkpt lat="44.205771153253" lon="10.594890558657559"><ele>1052.857142857143</ele><time>2026-05-02T12:35:33.971Z</time></trkpt><trkpt lat="44.20583778935526" lon="10.594946240683633"><ele>1055.5714285714287</ele><time>2026-05-02T12:35:34.971Z</time></trkpt><trkpt lat="44.205875821105366" lon="10.5950191186863"><ele>1058.2857142857144</ele><time>2026-05-02T12:35:35.971Z</time></trkpt><trkpt lat="44.205884084105925" lon="10.59510952092616"><ele>1061.0</ele><time>2026-05-02T12:35:36.971Z</time></trkpt><trkpt lat="44.20588785793791" lon="10.595207097284916"><ele>1061.0</ele><time>2026-05-02T12:35:37.971Z</time></trkpt><trkpt lat="44.20587951714653" lon="10.595303977509051"><ele>1061.0</ele><time>2026-05-02T12:35:38.971Z</time></trkpt><trkpt lat="44.20583520035923" lon="10.595380732129598"><ele>1061.0</ele><time>2026-05-02T12:35:39.971Z</time></trkpt><trkpt lat="44.205771646662164" lon="10.595460306483785"><ele>1061.0</ele><time>2026-05-02T12:35:40.971Z</time></trkpt><trkpt lat="44.20568799658403" lon="10.59552124514263"><ele>1061.0</ele><time>2026-05-02T12:35:41.971Z</time></trkpt><trkpt lat="44.20560541292262" lon="10.595564981005325"><ele>1061.0</ele><time>2026-05-02T12:35:42.971Z</time></trkpt><trkpt lat="44.205537480386084" lon="10.595633307008006"><ele>1056.1666666666667</ele><time>2026-05-02T12:35:43.971Z</time></trkpt><trkpt lat="44.20547118736333" lon="10.59571223762943"><ele>1051.3333333333335</ele><time>2026-05-02T12:35:44.971Z</time></trkpt><trkpt lat="44.2054672943983" lon="10.595829037426169"><ele>1046.5</ele><time>2026-05-02T12:35:45.971Z</time></trkpt><trkpt lat="44.20547489449101" lon="10.595935001949163"><ele>1041.6666666666667</ele><time>2026-05-02T12:35:46.971Z</time></trkpt><trkpt lat="44.20553007827537" lon="10.596035741148654"><ele>1036.8333333333333</ele><time>2026-05-02T12:35:47.971Z</time></trkpt><trkpt lat="44.20557205508344" lon="10.596162988709958"><ele>1032.0</ele><time>2026-05-02T12:35:48.971Z</time></trkpt><trkpt lat="44.205612981841185" lon="10.596282512761169"><ele>1035.4</ele><time>2026-05-02T12:35:49.971Z</time></trkpt><trkpt lat="44.20567966703088" lon="10.596408941998787"><ele>1038.8000000000002</ele><time>2026-05-02T12:35:50.971Z</time></trkpt><trkpt lat="44.20573299715723" lon="10.596545596995332"><ele>1042.2</ele><time>2026-05-02T12:35:51.971Z</time></trkpt><trkpt lat="44.20579839150699" lon="10.596690928636832"><ele>1045.6000000000001</ele><time>2026-05-02T12:35:52.971Z</time></trkpt><trkpt lat="44.20584226763238" lon="10.596815521645235"><ele>1049.0</ele><time>2026-05-02T12:35:53.972Z</time></trkpt><trkpt lat="44.20588235770549" lon="10.59692660456081"><ele>1047.0</ele><time>2026-05-02T12:35:54.972Z</time></trkpt><trkpt lat="44.20593028790712" lon="10.597033040291581"><ele>1045.0</ele><time>2026-05-02T12:35:55.972Z</time></trkpt><trkpt lat="44.20596636869979" lon="10.597157857712544"><ele>1043.0</ele><time>2026-05-02T12:35:56.972Z</time></trkpt><trkpt lat="44.206009294014116" lon="10.59729637653389"><ele>1041.0</ele><time>2026-05-02T12:35:57.972Z</time></trkpt><trkpt lat="44.206018570403316" lon="10.597394045338385"><ele>1039.0</ele><time>2026-05-02T12:35:58.972Z</time></trkpt><trkpt lat="44.20605590581993" lon="10.597503055662413"><ele>1039.0</ele><time>2026-05-02T12:35:59.972Z</time></trkpt><trkpt lat="44.206107839617694" lon="10.597616194170834"><ele>1039.0</ele><time>2026-05-02T12:36:00.972Z</time></trkpt><trkpt lat="44.20614666911323" lon="10.597714996576315"><ele>1039.0</ele><time>2026-05-02T12:36:01.972Z</time></trkpt><trkpt lat="44.206195862872285" lon="10.59784012650372"><ele>1039.0</ele><time>2026-05-02T12:36:02.972Z</time></trkpt><trkpt lat="44.206286876770385" lon="10.597912345107373"><ele>1039.0</ele><time>2026-05-02T12:36:03.972Z</time></trkpt><trkpt lat="44.2063536680872" lon="10.597990495258403"><ele>1037.6666666666665</ele><time>2026-05-02T12:36:04.972Z</time></trkpt><trkpt lat="44.20643214682803" lon="10.59802082844494"><ele>1036.3333333333333</ele><time>2026-05-02T12:36:05.972Z</time></trkpt><trkpt lat="44.20650699748217" lon="10.598017328377322"><ele>1035.0</ele><time>2026-05-02T12:36:06.972Z</time></trkpt><trkpt lat="44.20658024887041" lon="10.597998750684265"><ele>1033.6666666666667</ele><time>2026-05-02T12:36:07.972Z</time></trkpt><trkpt lat="44.20669143580327" lon="10.597981521363673"><ele>1032.3333333333335</ele><time>2026-05-02T12:36:09.972Z</time></trkpt><trkpt lat="44.20678638149613" lon="10.59800074815397"><ele>1031.0</ele><time>2026-05-02T12:36:11.972Z</time></trkpt><trkpt lat="44.20675703022143" lon="10.598139149526782"><ele>1031.0</ele><time>2026-05-02T12:36:13.972Z</time></trkpt><trkpt lat="44.206696947783456" lon="10.598166004811358"><ele>1031.0</ele><time>2026-05-02T12:36:14.972Z</time></trkpt><trkpt lat="44.20656748282468" lon="10.598163979490987"><ele>1031.0</ele><time>2026-05-02T12:36:16.972Z</time></trkpt><trkpt lat="44.20647433600773" lon="10.598162972087923"><ele>1031.0</ele><time>2026-05-02T12:36:18.972Z</time></trkpt><trkpt lat="44.20628171633613" lon="10.598263569325189"><ele>1030.5</ele><time>2026-05-02T12:36:20.972Z</time></trkpt><trkpt lat="44.206183653746386" lon="10.598308539150349"><ele>1030.0</ele><time>2026-05-02T12:36:21.972Z</time></trkpt><trkpt lat="44.20609855192884" lon="10.598327808311215"><ele>1029.5</ele><time>2026-05-02T12:36:22.972Z</time></trkpt><trkpt lat="44.206013750872245" lon="10.59833636395307"><ele>1029.0</ele><time>2026-05-02T12:36:23.972Z</time></trkpt><trkpt lat="44.20593387466498" lon="10.598354659603753"><ele>1028.5</ele><time>2026-05-02T12:36:24.972Z</time></trkpt><trkpt lat="44.20584501486632" lon="10.598373071548869"><ele>1028.0</ele><time>2026-05-02T12:36:25.972Z</time></trkpt><trkpt lat="44.20575802344655" lon="10.598388158676714"><ele>1028.0</ele><time>2026-05-02T12:36:26.972Z</time></trkpt><trkpt lat="44.20566967649828" lon="10.598405483749385"><ele>1028.0</ele><time>2026-05-02T12:36:27.972Z</time></trkpt><trkpt lat="44.205590649822305" lon="10.598436275538438"><ele>1028.0</ele><time>2026-05-02T12:36:28.972Z</time></trkpt><trkpt lat="44.20552260752872" lon="10.598478493055135"><ele>1028.0</ele><time>2026-05-02T12:36:29.972Z</time></trkpt><trkpt lat="44.20546815987756" lon="10.598542680027283"><ele>1028.0</ele><time>2026-05-02T12:36:30.972Z</time></trkpt><trkpt lat="44.205442387048095" lon="10.598629405940692"><ele>1028.0</ele><time>2026-05-02T12:36:31.972Z</time></trkpt><trkpt lat="44.205456622075694" lon="10.598724367380049"><ele>1025.5</ele><time>2026-05-02T12:36:32.972Z</time></trkpt><trkpt lat="44.205488332621535" lon="10.598811567800444"><ele>1023.0</ele><time>2026-05-02T12:36:33.972Z</time></trkpt><trkpt lat="44.20552365274658" lon="10.598900759983128"><ele>1020.5</ele><time>2026-05-02T12:36:34.972Z</time></trkpt><trkpt lat="44.20560168942311" lon="10.598971012649478"><ele>1018.0</ele><time>2026-05-02T12:36:35.972Z</time></trkpt><trkpt lat="44.205689169370125" lon="10.59898413012683"><ele>1015.5000000000001</ele><time>2026-05-02T12:36:36.972Z</time></trkpt><trkpt lat="44.20578866581574" lon="10.59899176976113"><ele>1013.0</ele><time>2026-05-02T12:36:37.972Z</time></trkpt><trkpt lat="44.20587097431185" lon="10.599001487682395"><ele>1013.0000000000001</ele><time>2026-05-02T12:36:38.972Z</time></trkpt><trkpt lat="44.20595709723922" lon="10.59901078474324"><ele>1013.0</ele><time>2026-05-02T12:36:39.972Z</time></trkpt><trkpt lat="44.206046043267925" lon="10.59901005820123"><ele>1013.0</ele><time>2026-05-02T12:36:40.972Z</time></trkpt><trkpt lat="44.20613267889743" lon="10.598996846469603"><ele>1013.0</ele><time>2026-05-02T12:36:41.972Z</time></trkpt><trkpt lat="44.206211027645296" lon="10.598981518522232"><ele>1013.0000000000001</ele><time>2026-05-02T12:36:42.972Z</time></trkpt><trkpt lat="44.20630296548506" lon="10.598954586062598"><ele>1013.0</ele><time>2026-05-02T12:36:43.972Z</time></trkpt><trkpt lat="44.2063883987984" lon="10.598916367940157"><ele>1013.0</ele><time>2026-05-02T12:36:44.972Z</time></trkpt><trkpt lat="44.20645455355939" lon="10.598874093409844"><ele>1013.0</ele><time>2026-05-02T12:36:45.972Z</time></trkpt><trkpt lat="44.20654603597443" lon="10.598781654422924"><ele>1013.0</ele><time>2026-05-02T12:36:46.972Z</time></trkpt><trkpt lat="44.20662372662284" lon="10.598717397364851"><ele>1013.0</ele><time>2026-05-02T12:36:47.972Z</time></trkpt><trkpt lat="44.20671402023264" lon="10.598655257768703"><ele>1013.0</ele><time>2026-05-02T12:36:49.972Z</time></trkpt><trkpt lat="44.206772173527625" lon="10.598779362796872"><ele>1013.0</ele><time>2026-05-02T12:36:52.972Z</time></trkpt><trkpt lat="44.20670379323772" lon="10.598843002797482"><ele>1013.0000000000001</ele><time>2026-05-02T12:36:53.972Z</time></trkpt><trkpt lat="44.206645039893296" lon="10.598886518231176"><ele>1013.0</ele><time>2026-05-02T12:36:54.972Z</time></trkpt><trkpt lat="44.206581934763015" lon="10.598939627600464"><ele>1013.0</ele><time>2026-05-02T12:36:55.972Z</time></trkpt><trkpt lat="44.20652630988151" lon="10.598990542464474"><ele>1013.0000000000001</ele><time>2026-05-02T12:36:56.972Z</time></trkpt><trkpt lat="44.206477260489606" lon="10.599050407695078"><ele>1013.0</ele><time>2026-05-02T12:36:57.973Z</time></trkpt><trkpt lat="44.20642454076779" lon="10.599123608339532"><ele>1013.0</ele><time>2026-05-02T12:36:58.973Z</time></trkpt><trkpt lat="44.20636674548569" lon="10.599198988086666"><ele>1013.0000000000001</ele><time>2026-05-02T12:36:59.973Z</time></trkpt><trkpt lat="44.20629664527442" lon="10.599276688968432"><ele>1013.0</ele><time>2026-05-02T12:37:00.973Z</time></trkpt><trkpt lat="44.20622167870191" lon="10.59933624295046"><ele>1013.0</ele><time>2026-05-02T12:37:01.973Z</time></trkpt><trkpt lat="44.2061436133426" lon="10.599394519244242"><ele>1013.0</ele><time>2026-05-02T12:37:02.973Z</time></trkpt><trkpt lat="44.206070338506244" lon="10.599460063242464"><ele>1013.0000000000001</ele><time>2026-05-02T12:37:03.973Z</time></trkpt><trkpt lat="44.20600992989127" lon="10.599537642244078"><ele>1013.0</ele><time>2026-05-02T12:37:04.973Z</time></trkpt><trkpt lat="44.205951774976754" lon="10.59960695368706"><ele>1008.8</ele><time>2026-05-02T12:37:05.973Z</time></trkpt><trkpt lat="44.205949838897205" lon="10.599767827615409"><ele>1004.5999999999999</ele><time>2026-05-02T12:37:07.973Z</time></trkpt><trkpt lat="44.20600058539546" lon="10.59985229112474"><ele>1000.4000000000001</ele><time>2026-05-02T12:37:08.973Z</time></trkpt><trkpt lat="44.206076131872045" lon="10.599916340459586"><ele>996.2</ele><time>2026-05-02T12:37:09.973Z</time></trkpt><trkpt lat="44.206165374134386" lon="10.599965853797336"><ele>992.0</ele><time>2026-05-02T12:37:10.973Z</time></trkpt><trkpt lat="44.206254973039606" lon="10.600007798320444"><ele>992.0</ele><time>2026-05-02T12:37:11.973Z</time></trkpt><trkpt lat="44.20634374433291" lon="10.600026102005968"><ele>992.0</ele><time>2026-05-02T12:37:12.973Z</time></trkpt><trkpt lat="44.206436991983054" lon="10.600000977161969"><ele>992.0</ele><time>2026-05-02T12:37:13.973Z</time></trkpt><trkpt lat="44.20652887859812" lon="10.59998592155325"><ele>992.0</ele><time>2026-05-02T12:37:14.973Z</time></trkpt><trkpt lat="44.20661126604346" lon="10.599933541346811"><ele>992.0</ele><time>2026-05-02T12:37:15.973Z</time></trkpt><trkpt lat="44.20668653650784" lon="10.599879857272485"><ele>991.8333333333334</ele><time>2026-05-02T12:37:16.973Z</time></trkpt><trkpt lat="44.206739579222095" lon="10.599758756406825"><ele>991.6666666666667</ele><time>2026-05-02T12:37:17.973Z</time></trkpt><trkpt lat="44.20679302889262" lon="10.59968215688868"><ele>991.5</ele><time>2026-05-02T12:37:18.973Z</time></trkpt><trkpt lat="44.20686423948637" lon="10.599592700021015"><ele>991.3333333333333</ele><time>2026-05-02T12:37:19.973Z</time></trkpt><trkpt lat="44.20691944668622" lon="10.599513136429152"><ele>991.1666666666666</ele><time>2026-05-02T12:37:20.973Z</time></trkpt><trkpt lat="44.20696951109866" lon="10.599451849583303"><ele>991.0</ele><time>2026-05-02T12:37:21.973Z</time></trkpt><trkpt lat="44.20704977028546" lon="10.599395678874066"><ele>990.0</ele><time>2026-05-02T12:37:23.973Z</time></trkpt><trkpt lat="44.207180640557226" lon="10.599364832523307"><ele>988.9999999999999</ele><time>2026-05-02T12:37:25.973Z</time></trkpt><trkpt lat="44.2072539702184" lon="10.599432562549268"><ele>987.9999999999999</ele><time>2026-05-02T12:37:26.973Z</time></trkpt><trkpt lat="44.20733107301905" lon="10.599489551553399"><ele>987.0</ele><time>2026-05-02T12:37:27.972Z</time></trkpt><trkpt lat="44.20740723558886" lon="10.599567095033379"><ele>986.0</ele><time>2026-05-02T12:37:28.972Z</time></trkpt><trkpt lat="44.207516552756985" lon="10.59963073091133"><ele>986.0</ele><time>2026-05-02T12:37:29.972Z</time></trkpt><trkpt lat="44.207594780785996" lon="10.59973172579102"><ele>985.9999999999999</ele><time>2026-05-02T12:37:30.972Z</time></trkpt><trkpt lat="44.20768647727068" lon="10.59981584331296"><ele>985.9999999999999</ele><time>2026-05-02T12:37:31.972Z</time></trkpt><trkpt lat="44.2077514123871" lon="10.5999003502489"><ele>986.0</ele><time>2026-05-02T12:37:32.972Z</time></trkpt><trkpt lat="44.2078307513179" lon="10.599988880631052"><ele>986.0</ele><time>2026-05-02T12:37:33.972Z</time></trkpt><trkpt lat="44.207899620344506" lon="10.600078448173988"><ele>986.0</ele><time>2026-05-02T12:37:34.972Z</time></trkpt><trkpt lat="44.207952651092285" lon="10.600148571741055"><ele>985.9999999999999</ele><time>2026-05-02T12:37:35.972Z</time></trkpt><trkpt lat="44.208039800178526" lon="10.600257983351689"><ele>985.9999999999999</ele><time>2026-05-02T12:37:37.972Z</time></trkpt><trkpt lat="44.208116461246775" lon="10.600335655773058"><ele>986.0</ele><time>2026-05-02T12:37:38.972Z</time></trkpt><trkpt lat="44.20817676246414" lon="10.600396882704581"><ele>986.0</ele><time>2026-05-02T12:37:39.972Z</time></trkpt><trkpt lat="44.2083381755435" lon="10.600489348777367"><ele>984.6666666666667</ele><time>2026-05-02T12:37:40.972Z</time></trkpt><trkpt lat="44.20841438788087" lon="10.600526849758415"><ele>983.3333333333334</ele><time>2026-05-02T12:37:41.972Z</time></trkpt><trkpt lat="44.20849215423176" lon="10.600560808591348"><ele>982.0</ele><time>2026-05-02T12:37:42.972Z</time></trkpt><trkpt lat="44.20856917644709" lon="10.600603798464233"><ele>980.6666666666667</ele><time>2026-05-02T12:37:43.972Z</time></trkpt><trkpt lat="44.208640429060566" lon="10.600654594664128"><ele>979.3333333333334</ele><time>2026-05-02T12:37:44.972Z</time></trkpt><trkpt lat="44.208717325760205" lon="10.600739820183518"><ele>978.0</ele><time>2026-05-02T12:37:45.972Z</time></trkpt><trkpt lat="44.20876868871586" lon="10.600843196062716"><ele>978.0</ele><time>2026-05-02T12:37:46.972Z</time></trkpt><trkpt lat="44.208788974330076" lon="10.600969750532755"><ele>978.0</ele><time>2026-05-02T12:37:47.972Z</time></trkpt><trkpt lat="44.208782526226514" lon="10.601091254650886"><ele>978.0</ele><time>2026-05-02T12:37:48.972Z</time></trkpt><trkpt lat="44.208700205836145" lon="10.601171264578742"><ele>978.0</ele><time>2026-05-02T12:37:49.972Z</time></trkpt><trkpt lat="44.20865715263865" lon="10.601291950518254"><ele>978.0</ele><time>2026-05-02T12:37:50.972Z</time></trkpt><trkpt lat="44.20861411849989" lon="10.601408507861349"><ele>976.2</ele><time>2026-05-02T12:37:51.972Z</time></trkpt><trkpt lat="44.2085719264768" lon="10.60153542001439"><ele>974.4</ele><time>2026-05-02T12:37:52.972Z</time></trkpt><trkpt lat="44.20853545013208" lon="10.601678655729984"><ele>972.6000000000001</ele><time>2026-05-02T12:37:53.972Z</time></trkpt><trkpt lat="44.20850688032608" lon="10.601816254160966"><ele>970.8000000000001</ele><time>2026-05-02T12:37:54.972Z</time></trkpt><trkpt lat="44.20848489685538" lon="10.601957204466236"><ele>969.0</ele><time>2026-05-02T12:37:55.972Z</time></trkpt><trkpt lat="44.20848396906174" lon="10.602107598525546"><ele>967.8000000000001</ele><time>2026-05-02T12:37:56.972Z</time></trkpt><trkpt lat="44.20847707198819" lon="10.602248341308545"><ele>966.6000000000001</ele><time>2026-05-02T12:37:57.972Z</time></trkpt><trkpt lat="44.20848756575593" lon="10.602379147600653"><ele>965.4</ele><time>2026-05-02T12:37:58.972Z</time></trkpt><trkpt lat="44.208497415287034" lon="10.602514049463798"><ele>964.2</ele><time>2026-05-02T12:37:59.972Z</time></trkpt><trkpt lat="44.20852719700071" lon="10.602644314659553"><ele>963.0</ele><time>2026-05-02T12:38:00.972Z</time></trkpt><trkpt lat="44.20855570575176" lon="10.602792435848825"><ele>961.1666666666666</ele><time>2026-05-02T12:38:01.972Z</time></trkpt><trkpt lat="44.208585508632666" lon="10.60292801405052"><ele>959.3333333333333</ele><time>2026-05-02T12:38:02.972Z</time></trkpt><trkpt lat="44.20861196546206" lon="10.603080184350757"><ele>957.5</ele><time>2026-05-02T12:38:03.972Z</time></trkpt><trkpt lat="44.20864791105509" lon="10.603187253661854"><ele>955.6666666666666</ele><time>2026-05-02T12:38:04.972Z</time></trkpt><trkpt lat="44.20870838266371" lon="10.603255975224053"><ele>953.8333333333333</ele><time>2026-05-02T12:38:05.972Z</time></trkpt><trkpt lat="44.20876703500573" lon="10.603290080207936"><ele>952.0</ele><time>2026-05-02T12:38:06.972Z</time></trkpt><trkpt lat="44.208828278915696" lon="10.60331744676183"><ele>951.9999999999999</ele><time>2026-05-02T12:38:07.972Z</time></trkpt><trkpt lat="44.20890634132938" lon="10.603378780242448"><ele>952.0</ele><time>2026-05-02T12:38:08.972Z</time></trkpt><trkpt lat="44.2089762501788" lon="10.60338216671454"><ele>952.0</ele><time>2026-05-02T12:38:09.972Z</time></trkpt><trkpt lat="44.209059962334095" lon="10.603402056263933"><ele>952.0</ele><time>2026-05-02T12:38:10.972Z</time></trkpt><trkpt lat="44.20914427728432" lon="10.603423210354663"><ele>951.9999999999999</ele><time>2026-05-02T12:38:11.972Z</time></trkpt><trkpt lat="44.209219586807414" lon="10.603481255546441"><ele>952.0</ele><time>2026-05-02T12:38:12.972Z</time></trkpt><trkpt lat="44.20928283878744" lon="10.603564554992847"><ele>951.4000000000001</ele><time>2026-05-02T12:38:13.972Z</time></trkpt><trkpt lat="44.2093434391407" lon="10.603660512883321"><ele>950.8000000000001</ele><time>2026-05-02T12:38:14.972Z</time></trkpt><trkpt lat="44.20940948102337" lon="10.603738655437217"><ele>950.2</ele><time>2026-05-02T12:38:15.972Z</time></trkpt><trkpt lat="44.20950377725198" lon="10.603773509027432"><ele>949.6</ele><time>2026-05-02T12:38:16.972Z</time></trkpt><trkpt lat="44.20960174129463" lon="10.603748236930608"><ele>949.0</ele><time>2026-05-02T12:38:17.972Z</time></trkpt><trkpt lat="44.20968554397854" lon="10.60374340428968"><ele>948.9999999999999</ele><time>2026-05-02T12:38:18.972Z</time></trkpt><trkpt lat="44.20977646839037" lon="10.603707844727728"><ele>949.0</ele><time>2026-05-02T12:38:19.972Z</time></trkpt><trkpt lat="44.209849966460794" lon="10.603674088922489"><ele>949.0</ele><time>2026-05-02T12:38:20.972Z</time></trkpt><trkpt lat="44.20992977492387" lon="10.603640204254477"><ele>949.0</ele><time>2026-05-02T12:38:21.972Z</time></trkpt><trkpt lat="44.21001418878687" lon="10.60359816529612"><ele>948.9999999999999</ele><time>2026-05-02T12:38:22.972Z</time></trkpt><trkpt lat="44.210103911352014" lon="10.603624955060086"><ele>949.0</ele><time>2026-05-02T12:38:23.972Z</time></trkpt><trkpt lat="44.21019680900117" lon="10.603657235574826"><ele>947.6666666666666</ele><time>2026-05-02T12:38:24.973Z</time></trkpt><trkpt lat="44.21025454988119" lon="10.603704563089785"><ele>946.3333333333333</ele><time>2026-05-02T12:38:25.973Z</time></trkpt><trkpt lat="44.21027734537798" lon="10.603798342696022"><ele>945.0</ele><time>2026-05-02T12:38:26.973Z</time></trkpt><trkpt lat="44.210197678149996" lon="10.603953705448522"><ele>943.6666666666667</ele><time>2026-05-02T12:38:28.973Z</time></trkpt><trkpt lat="44.210112540643614" lon="10.60391571848192"><ele>942.3333333333334</ele><time>2026-05-02T12:38:29.973Z</time></trkpt><trkpt lat="44.21006015709754" lon="10.603862508850545"><ele>941.0</ele><time>2026-05-02T12:38:30.973Z</time></trkpt><trkpt lat="44.210002959527564" lon="10.60381926858261"><ele>941.0000000000001</ele><time>2026-05-02T12:38:31.973Z</time></trkpt><trkpt lat="44.20992746350566" lon="10.603809106884542"><ele>941.0</ele><time>2026-05-02T12:38:32.973Z</time></trkpt><trkpt lat="44.20984712412787" lon="10.603929798461364"><ele>941.0</ele><time>2026-05-02T12:38:34.973Z</time></trkpt><trkpt lat="44.20985271625049" lon="10.604036315681874"><ele>941.0</ele><time>2026-05-02T12:38:35.973Z</time></trkpt><trkpt lat="44.20987377997388" lon="10.604137785796224"><ele>941.0000000000001</ele><time>2026-05-02T12:38:36.973Z</time></trkpt><trkpt lat="44.20995277287012" lon="10.604186390316585"><ele>941.0</ele><time>2026-05-02T12:38:37.973Z</time></trkpt><trkpt lat="44.210025166131665" lon="10.604216201086501"><ele>941.0000000000001</ele><time>2026-05-02T12:38:38.973Z</time></trkpt><trkpt lat="44.210103960224004" lon="10.604201989107287"><ele>941.0</ele><time>2026-05-02T12:38:39.973Z</time></trkpt><trkpt lat="44.21017105951774" lon="10.604184756212305"><ele>941.0</ele><time>2026-05-02T12:38:40.973Z</time></trkpt><trkpt lat="44.21026398601101" lon="10.604145804091607"><ele>941.0</ele><time>2026-05-02T12:38:41.973Z</time></trkpt><trkpt lat="44.21035689629093" lon="10.604138620157661"><ele>941.0000000000001</ele><time>2026-05-02T12:38:42.973Z</time></trkpt><trkpt lat="44.210442754377546" lon="10.604108549644536"><ele>941.0</ele><time>2026-05-02T12:38:43.973Z</time></trkpt><trkpt lat="44.21053430283242" lon="10.6040737137864"><ele>941.0000000000001</ele><time>2026-05-02T12:38:44.973Z</time></trkpt><trkpt lat="44.210612261504174" lon="10.604032084819448"><ele>941.0</ele><time>2026-05-02T12:38:45.973Z</time></trkpt><trkpt lat="44.21067622309661" lon="10.60398152523216"><ele>941.0</ele><time>2026-05-02T12:38:46.973Z</time></trkpt><trkpt lat="44.21073665993467" lon="10.603912168160184"><ele>941.0</ele><time>2026-05-02T12:38:47.973Z</time></trkpt><trkpt lat="44.21080455125611" lon="10.603811844183243"><ele>941.0000000000001</ele><time>2026-05-02T12:38:48.973Z</time></trkpt><trkpt lat="44.21085724116755" lon="10.603729295038757"><ele>941.0</ele><time>2026-05-02T12:38:49.973Z</time></trkpt><trkpt lat="44.21091330005535" lon="10.603642317388461"><ele>941.5999999999999</ele><time>2026-05-02T12:38:50.973Z</time></trkpt><trkpt lat="44.21096104885858" lon="10.603572793826075"><ele>942.1999999999999</ele><time>2026-05-02T12:38:51.973Z</time></trkpt><trkpt lat="44.21106917840569" lon="10.603466617327761"><ele>942.8000000000001</ele><time>2026-05-02T12:38:53.973Z</time></trkpt><trkpt lat="44.21116610257366" lon="10.603412157974823"><ele>943.4000000000001</ele><time>2026-05-02T12:38:55.973Z</time></trkpt><trkpt lat="44.21123105601051" lon="10.603470337066954"><ele>944.0</ele><time>2026-05-02T12:38:56.973Z</time></trkpt><trkpt lat="44.211289702121455" lon="10.603520270307234"><ele>944.0</ele><time>2026-05-02T12:38:57.973Z</time></trkpt><trkpt lat="44.21133734998865" lon="10.603586405651232"><ele>944.0000000000001</ele><time>2026-05-02T12:38:58.973Z</time></trkpt><trkpt lat="44.211425523524426" lon="10.603615895597802"><ele>944.0000000000001</ele><time>2026-05-02T12:38:59.973Z</time></trkpt><trkpt lat="44.211504880236724" lon="10.603647572795705"><ele>944.0</ele><time>2026-05-02T12:39:00.973Z</time></trkpt><trkpt lat="44.21161006350565" lon="10.60366555804723"><ele>944.0</ele><time>2026-05-02T12:39:01.973Z</time></trkpt><trkpt lat="44.21171611719905" lon="10.603677486511849"><ele>938.0</ele><time>2026-05-02T12:39:02.973Z</time></trkpt><trkpt lat="44.21182315853565" lon="10.603686227359946"><ele>932.0000000000001</ele><time>2026-05-02T12:39:03.973Z</time></trkpt><trkpt lat="44.211913621675585" lon="10.603750347102485"><ele>926.0000000000001</ele><time>2026-05-02T12:39:04.973Z</time></trkpt><trkpt lat="44.21200067479527" lon="10.603827474679507"><ele>920.0</ele><time>2026-05-02T12:39:05.973Z</time></trkpt><trkpt lat="44.21207957221357" lon="10.603889840947273"><ele>914.0</ele><time>2026-05-02T12:39:06.973Z</time></trkpt><trkpt lat="44.212144400907924" lon="10.60394458592183"><ele>914.0000000000001</ele><time>2026-05-02T12:39:07.973Z</time></trkpt><trkpt lat="44.212221743849064" lon="10.603996841936384"><ele>914.0</ele><time>2026-05-02T12:39:08.973Z</time></trkpt><trkpt lat="44.21230192156688" lon="10.604037979554704"><ele>914.0</ele><time>2026-05-02T12:39:09.973Z</time></trkpt><trkpt lat="44.21237368906718" lon="10.604076397102917"><ele>914.0</ele><time>2026-05-02T12:39:10.973Z</time></trkpt><trkpt lat="44.21243996605554" lon="10.60410723721501"><ele>914.0000000000001</ele><time>2026-05-02T12:39:11.973Z</time></trkpt><trkpt lat="44.21250142833649" lon="10.60414025028605"><ele>914.0</ele><time>2026-05-02T12:39:12.973Z</time></trkpt><trkpt lat="44.21251369758952" lon="10.604293478104056"><ele>914.0</ele><time>2026-05-02T12:39:14.973Z</time></trkpt><trkpt lat="44.21238208478266" lon="10.604300830176854"><ele>914.0</ele><time>2026-05-02T12:39:16.973Z</time></trkpt><trkpt lat="44.21231860982778" lon="10.604203920126576"><ele>914.0</ele><time>2026-05-02T12:39:18.973Z</time></trkpt><trkpt lat="44.21221844338659" lon="10.60410429803261"><ele>914.0</ele><time>2026-05-02T12:39:20.973Z</time></trkpt><trkpt lat="44.2120818232062" lon="10.604016865614145"><ele>914.0</ele><time>2026-05-02T12:39:22.973Z</time></trkpt><trkpt lat="44.21196866287972" lon="10.603996518480463"><ele>914.0000000000001</ele><time>2026-05-02T12:39:23.973Z</time></trkpt><trkpt lat="44.2118626895686" lon="10.604007855811371"><ele>914.0000000000001</ele><time>2026-05-02T12:39:24.973Z</time></trkpt><trkpt lat="44.21176156908651" lon="10.604023406102684"><ele>914.0</ele><time>2026-05-02T12:39:25.973Z</time></trkpt><trkpt lat="44.211671874286644" lon="10.604041437599335"><ele>914.0</ele><time>2026-05-02T12:39:26.973Z</time></trkpt><trkpt lat="44.21155447730849" lon="10.60407400956444"><ele>916.0000000000001</ele><time>2026-05-02T12:39:27.973Z</time></trkpt><trkpt lat="44.211458734121265" lon="10.60411832239169"><ele>918.0</ele><time>2026-05-02T12:39:28.974Z</time></trkpt><trkpt lat="44.21138564333889" lon="10.604168669170237"><ele>920.0</ele><time>2026-05-02T12:39:29.974Z</time></trkpt><trkpt lat="44.21132611934193" lon="10.604260567848772"><ele>922.0</ele><time>2026-05-02T12:39:30.974Z</time></trkpt><trkpt lat="44.21127807464734" lon="10.604343589798676"><ele>924.0000000000001</ele><time>2026-05-02T12:39:31.974Z</time></trkpt><trkpt lat="44.21122552884771" lon="10.604411364572021"><ele>926.0</ele><time>2026-05-02T12:39:32.974Z</time></trkpt><trkpt lat="44.21115603147585" lon="10.604467845439034"><ele>919.8</ele><time>2026-05-02T12:39:33.973Z</time></trkpt><trkpt lat="44.211075034021" lon="10.604519564330081"><ele>913.5999999999999</ele><time>2026-05-02T12:39:34.972Z</time></trkpt><trkpt lat="44.21098782019219" lon="10.60457733912694"><ele>907.4</ele><time>2026-05-02T12:39:35.972Z</time></trkpt><trkpt lat="44.21090467898403" lon="10.604667494651123"><ele>901.2</ele><time>2026-05-02T12:39:36.973Z</time></trkpt><trkpt lat="44.210811580394484" lon="10.60472699948378"><ele>895.0</ele><time>2026-05-02T12:39:37.973Z</time></trkpt><trkpt lat="44.21072416602298" lon="10.604793072563702"><ele>898.6</ele><time>2026-05-02T12:39:38.973Z</time></trkpt><trkpt lat="44.21061915185509" lon="10.604877271226576"><ele>902.2</ele><time>2026-05-02T12:39:39.972Z</time></trkpt><trkpt lat="44.21051470050814" lon="10.604932839512344"><ele>905.8</ele><time>2026-05-02T12:39:40.972Z</time></trkpt><trkpt lat="44.21041441995996" lon="10.604990304214443"><ele>909.4</ele><time>2026-05-02T12:39:41.972Z</time></trkpt><trkpt lat="44.21032310705984" lon="10.605057114810153"><ele>913.0</ele><time>2026-05-02T12:39:42.972Z</time></trkpt><trkpt lat="44.21024227835855" lon="10.60514203798713"><ele>913.0</ele><time>2026-05-02T12:39:43.972Z</time></trkpt><trkpt lat="44.210157464468736" lon="10.605225553621533"><ele>913.0</ele><time>2026-05-02T12:39:44.972Z</time></trkpt><trkpt lat="44.21011092237197" lon="10.605366145286629"><ele>913.0</ele><time>2026-05-02T12:39:45.972Z</time></trkpt><trkpt lat="44.21006863129394" lon="10.605470907681442"><ele>913.0</ele><time>2026-05-02T12:39:46.972Z</time></trkpt><trkpt lat="44.21001375239958" lon="10.605605585590832"><ele>913.0</ele><time>2026-05-02T12:39:47.972Z</time></trkpt><trkpt lat="44.20995565758787" lon="10.605705837507502"><ele>912.0</ele><time>2026-05-02T12:39:48.972Z</time></trkpt><trkpt lat="44.20991179381905" lon="10.605824684882375"><ele>911.0</ele><time>2026-05-02T12:39:49.972Z</time></trkpt><trkpt lat="44.209845693168454" lon="10.60592547968916"><ele>910.0</ele><time>2026-05-02T12:39:50.972Z</time></trkpt><trkpt lat="44.20976536715475" lon="10.606010621167277"><ele>909.0</ele><time>2026-05-02T12:39:51.972Z</time></trkpt><trkpt lat="44.20968905817874" lon="10.60608158398401"><ele>908.0</ele><time>2026-05-02T12:39:52.972Z</time></trkpt><trkpt lat="44.20961846977508" lon="10.606116819957338"><ele>904.0000000000001</ele><time>2026-05-02T12:39:53.972Z</time></trkpt><trkpt lat="44.20954172748778" lon="10.606171161233565"><ele>900.0</ele><time>2026-05-02T12:39:54.972Z</time></trkpt><trkpt lat="44.209460072202006" lon="10.60624906366497"><ele>896.0</ele><time>2026-05-02T12:39:55.972Z</time></trkpt><trkpt lat="44.20939972893371" lon="10.606302973469896"><ele>892.0</ele><time>2026-05-02T12:39:56.972Z</time></trkpt><trkpt lat="44.20934568944056" lon="10.60639377688257"><ele>888.0000000000001</ele><time>2026-05-02T12:39:57.972Z</time></trkpt><trkpt lat="44.20927532506816" lon="10.606497943269304"><ele>884.0</ele><time>2026-05-02T12:39:58.972Z</time></trkpt><trkpt lat="44.209239256388926" lon="10.606596160731838"><ele>884.0000000000001</ele><time>2026-05-02T12:39:59.972Z</time></trkpt><trkpt lat="44.20919437117443" lon="10.606708017347769"><ele>884.0</ele><time>2026-05-02T12:40:00.972Z</time></trkpt><trkpt lat="44.20914440528286" lon="10.606807510461095"><ele>884.0</ele><time>2026-05-02T12:40:01.972Z</time></trkpt><trkpt lat="44.20907073809566" lon="10.60684145706604"><ele>884.0</ele><time>2026-05-02T12:40:02.972Z</time></trkpt><trkpt lat="44.20897379848661" lon="10.606816322538384"><ele>884.0000000000001</ele><time>2026-05-02T12:40:03.972Z</time></trkpt><trkpt lat="44.20888733859811" lon="10.606790578534751"><ele>884.0</ele><time>2026-05-02T12:40:04.972Z</time></trkpt><trkpt lat="44.208810955178386" lon="10.60678730063436"><ele>883.8000000000001</ele><time>2026-05-02T12:40:05.972Z</time></trkpt><trkpt lat="44.20873292755108" lon="10.606773020697407"><ele>883.6000000000001</ele><time>2026-05-02T12:40:06.973Z</time></trkpt><trkpt lat="44.208627635024" lon="10.606796466979873"><ele>883.4</ele><time>2026-05-02T12:40:07.973Z</time></trkpt><trkpt lat="44.20852135490646" lon="10.606829155159048"><ele>883.2</ele><time>2026-05-02T12:40:08.973Z</time></trkpt><trkpt lat="44.208424819991045" lon="10.606872123738013"><ele>883.0</ele><time>2026-05-02T12:40:09.973Z</time></trkpt><trkpt lat="44.208321792403446" lon="10.606852209134757"><ele>883.0</ele><time>2026-05-02T12:40:10.973Z</time></trkpt><trkpt lat="44.208212841113095" lon="10.606876501635242"><ele>883.0</ele><time>2026-05-02T12:40:11.973Z</time></trkpt><trkpt lat="44.208114080000286" lon="10.606939450211128"><ele>883.0</ele><time>2026-05-02T12:40:12.973Z</time></trkpt><trkpt lat="44.2080730579442" lon="10.607040480036334"><ele>883.0</ele><time>2026-05-02T12:40:14.973Z</time></trkpt><trkpt lat="44.2080654517556" lon="10.607155109685085"><ele>883.0</ele><time>2026-05-02T12:40:15.973Z</time></trkpt><trkpt lat="44.20806161346735" lon="10.607252866933548"><ele>880.8333333333333</ele><time>2026-05-02T12:40:16.973Z</time></trkpt><trkpt lat="44.208077091652854" lon="10.607351966906691"><ele>878.6666666666666</ele><time>2026-05-02T12:40:17.973Z</time></trkpt><trkpt lat="44.208115003610544" lon="10.60742994977942"><ele>876.5</ele><time>2026-05-02T12:40:18.973Z</time></trkpt><trkpt lat="44.2081730231477" lon="10.607470111306984"><ele>874.3333333333333</ele><time>2026-05-02T12:40:19.973Z</time></trkpt><trkpt lat="44.208289396709965" lon="10.60741523907689"><ele>872.1666666666666</ele><time>2026-05-02T12:40:21.973Z</time></trkpt><trkpt lat="44.208344832652706" lon="10.607340366551323"><ele>870.0</ele><time>2026-05-02T12:40:22.973Z</time></trkpt><trkpt lat="44.20841167458961" lon="10.607281353408366"><ele>869.2</ele><time>2026-05-02T12:40:23.973Z</time></trkpt><trkpt lat="44.20847747215913" lon="10.607209969799245"><ele>868.4</ele><time>2026-05-02T12:40:24.973Z</time></trkpt><trkpt lat="44.2085516240244" lon="10.607175057545168"><ele>867.5999999999999</ele><time>2026-05-02T12:40:25.973Z</time></trkpt><trkpt lat="44.208639944152196" lon="10.607292027468693"><ele>866.8</ele><time>2026-05-02T12:40:27.973Z</time></trkpt><trkpt lat="44.208633684515625" lon="10.607387544208324"><ele>866.0</ele><time>2026-05-02T12:40:28.973Z</time></trkpt><trkpt lat="44.208510898012904" lon="10.607494946277276"><ele>866.0</ele><time>2026-05-02T12:40:30.973Z</time></trkpt><trkpt lat="44.20844068114997" lon="10.607548794157582"><ele>865.9999999999999</ele><time>2026-05-02T12:40:31.973Z</time></trkpt><trkpt lat="44.20836333346681" lon="10.607602906744424"><ele>865.9999999999999</ele><time>2026-05-02T12:40:32.973Z</time></trkpt><trkpt lat="44.20828809176489" lon="10.607665844530988"><ele>866.0</ele><time>2026-05-02T12:40:33.973Z</time></trkpt><trkpt lat="44.20819918102163" lon="10.607741718181162"><ele>866.0</ele><time>2026-05-02T12:40:34.973Z</time></trkpt><trkpt lat="44.20810627088519" lon="10.607816180322512"><ele>864.5999999999999</ele><time>2026-05-02T12:40:35.973Z</time></trkpt><trkpt lat="44.20798032445574" lon="10.607890572408543"><ele>863.1999999999999</ele><time>2026-05-02T12:40:36.973Z</time></trkpt><trkpt lat="44.207893693279686" lon="10.607966612820316"><ele>861.8000000000001</ele><time>2026-05-02T12:40:37.973Z</time></trkpt><trkpt lat="44.20781246774734" lon="10.60804460577871"><ele>860.4000000000001</ele><time>2026-05-02T12:40:38.973Z</time></trkpt><trkpt lat="44.20773507269423" lon="10.608078942504864"><ele>859.0</ele><time>2026-05-02T12:40:39.973Z</time></trkpt><trkpt lat="44.207639845796024" lon="10.608159383931612"><ele>858.9999999999999</ele><time>2026-05-02T12:40:41.973Z</time></trkpt><trkpt lat="44.20756587135157" lon="10.608288384200915"><ele>859.0</ele><time>2026-05-02T12:40:43.973Z</time></trkpt><trkpt lat="44.20758476489999" lon="10.608385483778383"><ele>859.0</ele><time>2026-05-02T12:40:44.973Z</time></trkpt><trkpt lat="44.207623255732145" lon="10.60846036004112"><ele>859.0</ele><time>2026-05-02T12:40:45.973Z</time></trkpt><trkpt lat="44.20769137731507" lon="10.608511743844051"><ele>858.9999999999999</ele><time>2026-05-02T12:40:46.973Z</time></trkpt><trkpt lat="44.207778726609114" lon="10.60843434127366"><ele>859.0</ele><time>2026-05-02T12:40:47.973Z</time></trkpt><trkpt lat="44.2078407917412" lon="10.608366356097234"><ele>859.0</ele><time>2026-05-02T12:40:48.973Z</time></trkpt><trkpt lat="44.20791374448381" lon="10.608313524558925"><ele>859.0000000000001</ele><time>2026-05-02T12:40:49.973Z</time></trkpt><trkpt lat="44.20797828584993" lon="10.60825787035512"><ele>859.0000000000001</ele><time>2026-05-02T12:40:50.973Z</time></trkpt><trkpt lat="44.20804891255609" lon="10.608203892883145"><ele>859.0</ele><time>2026-05-02T12:40:51.973Z</time></trkpt><trkpt lat="44.20815897653684" lon="10.608157096738791"><ele>859.0</ele><time>2026-05-02T12:40:53.973Z</time></trkpt><trkpt lat="44.20828141849599" lon="10.608191187164154"><ele>857.1666666666666</ele><time>2026-05-02T12:40:54.973Z</time></trkpt><trkpt lat="44.208370202045444" lon="10.60822664976066"><ele>855.3333333333333</ele><time>2026-05-02T12:40:55.973Z</time></trkpt><trkpt lat="44.208458971667945" lon="10.608252707051465"><ele>853.5</ele><time>2026-05-02T12:40:56.973Z</time></trkpt><trkpt lat="44.20852560641458" lon="10.608277960677944"><ele>851.6666666666667</ele><time>2026-05-02T12:40:57.973Z</time></trkpt><trkpt lat="44.208642501156014" lon="10.608307426977325"><ele>849.8333333333334</ele><time>2026-05-02T12:40:59.973Z</time></trkpt><trkpt lat="44.208718183277426" lon="10.608299202683765"><ele>848.0</ele><time>2026-05-02T12:41:00.973Z</time></trkpt><trkpt lat="44.2087864256179" lon="10.608237965676501"><ele>848.0</ele><time>2026-05-02T12:41:01.973Z</time></trkpt><trkpt lat="44.20884526248714" lon="10.608177812897027"><ele>848.0</ele><time>2026-05-02T12:41:02.973Z</time></trkpt><trkpt lat="44.20888648547913" lon="10.60809812705004"><ele>848.0</ele><time>2026-05-02T12:41:03.973Z</time></trkpt><trkpt lat="44.208938682721694" lon="10.608033967396153"><ele>848.0</ele><time>2026-05-02T12:41:04.973Z</time></trkpt><trkpt lat="44.208991848782155" lon="10.60797826811085"><ele>848.0</ele><time>2026-05-02T12:41:05.973Z</time></trkpt><trkpt lat="44.20907265706473" lon="10.608009043873768"><ele>848.0</ele><time>2026-05-02T12:41:06.973Z</time></trkpt><trkpt lat="44.20914095112225" lon="10.608027585213721"><ele>848.0</ele><time>2026-05-02T12:41:07.973Z</time></trkpt><trkpt lat="44.20921442436832" lon="10.608047832819489"><ele>847.3333333333334</ele><time>2026-05-02T12:41:08.973Z</time></trkpt><trkpt lat="44.20928299179054" lon="10.608067583171257"><ele>846.6666666666667</ele><time>2026-05-02T12:41:09.974Z</time></trkpt><trkpt lat="44.20936273931492" lon="10.60808202694383"><ele>846.0</ele><time>2026-05-02T12:41:10.974Z</time></trkpt><trkpt lat="44.209428968763135" lon="10.608114503160317"><ele>845.3333333333333</ele><time>2026-05-02T12:41:11.974Z</time></trkpt><trkpt lat="44.209484997345704" lon="10.608182096879766"><ele>844.6666666666666</ele><time>2026-05-02T12:41:12.974Z</time></trkpt><trkpt lat="44.209538671647664" lon="10.608257985379696"><ele>844.0</ele><time>2026-05-02T12:41:13.974Z</time></trkpt><trkpt lat="44.20958146658757" lon="10.608367041436567"><ele>843.9999999999999</ele><time>2026-05-02T12:41:14.974Z</time></trkpt><trkpt lat="44.209599712788155" lon="10.608458983471353"><ele>844.0</ele><time>2026-05-02T12:41:15.974Z</time></trkpt><trkpt lat="44.20957763301229" lon="10.608636897633694"><ele>844.0</ele><time>2026-05-02T12:41:17.974Z</time></trkpt><trkpt lat="44.20956407510232" lon="10.60872670031478"><ele>844.0</ele><time>2026-05-02T12:41:19.974Z</time></trkpt><trkpt lat="44.20955865522222" lon="10.60881423521612"><ele>843.9999999999999</ele><time>2026-05-02T12:41:22.974Z</time></trkpt><trkpt lat="44.209533567382024" lon="10.608926532952893"><ele>844.0</ele><time>2026-05-02T12:41:25.974Z</time></trkpt><trkpt lat="44.20943055717366" lon="10.609030101366157"><ele>842.6</ele><time>2026-05-02T12:41:27.974Z</time></trkpt><trkpt lat="44.20935972980003" lon="10.609071859429573"><ele>841.2</ele><time>2026-05-02T12:41:28.974Z</time></trkpt><trkpt lat="44.209289579509594" lon="10.609135317895957"><ele>839.8000000000001</ele><time>2026-05-02T12:41:29.974Z</time></trkpt><trkpt lat="44.20922464777035" lon="10.60922826925126"><ele>838.4000000000001</ele><time>2026-05-02T12:41:30.974Z</time></trkpt><trkpt lat="44.209105340416215" lon="10.609323331310055"><ele>837.0</ele><time>2026-05-02T12:41:31.974Z</time></trkpt><trkpt lat="44.20897776751746" lon="10.60946768848376"><ele>837.0</ele><time>2026-05-02T12:41:32.974Z</time></trkpt><trkpt lat="44.20888830807788" lon="10.609614620970722"><ele>837.0</ele><time>2026-05-02T12:41:33.974Z</time></trkpt><trkpt lat="44.208935658068484" lon="10.609513000652816"><ele>837.0</ele><time>2026-05-02T12:41:34.974Z</time></trkpt><trkpt lat="44.20887242099231" lon="10.609530198020053"><ele>837.0</ele><time>2026-05-02T12:41:36.974Z</time></trkpt><trkpt lat="44.20884884206062" lon="10.609634533346037"><ele>837.0</ele><time>2026-05-02T12:41:37.974Z</time></trkpt><trkpt lat="44.20878157581633" lon="10.609736227912178"><ele>837.0</ele><time>2026-05-02T12:41:38.974Z</time></trkpt><trkpt lat="44.20875538485834" lon="10.609831948296007"><ele>837.0</ele><time>2026-05-02T12:41:39.973Z</time></trkpt><trkpt lat="44.208694975040814" lon="10.610013274902524"><ele>837.0</ele><time>2026-05-02T12:41:40.973Z</time></trkpt><trkpt lat="44.208682752722865" lon="10.610238902633395"><ele>837.0</ele><time>2026-05-02T12:41:41.973Z</time></trkpt><trkpt lat="44.208654403300486" lon="10.610381324094295"><ele>836.8</ele><time>2026-05-02T12:41:42.974Z</time></trkpt><trkpt lat="44.20860015750439" lon="10.610499700512424"><ele>836.6</ele><time>2026-05-02T12:41:43.974Z</time></trkpt><trkpt lat="44.20856160607836" lon="10.61061796942257"><ele>836.4</ele><time>2026-05-02T12:41:44.974Z</time></trkpt><trkpt lat="44.208534641004654" lon="10.610756551090263"><ele>836.1999999999999</ele><time>2026-05-02T12:41:45.974Z</time></trkpt><trkpt lat="44.20849258380539" lon="10.61088616875913"><ele>836.0</ele><time>2026-05-02T12:41:46.972Z</time></trkpt><trkpt lat="44.20846395526379" lon="10.611030802645185"><ele>833.75</ele><time>2026-05-02T12:41:47.972Z</time></trkpt><trkpt lat="44.20844309750003" lon="10.611185186369296"><ele>831.5</ele><time>2026-05-02T12:41:48.973Z</time></trkpt><trkpt lat="44.208429937487175" lon="10.611342213535876"><ele>829.25</ele><time>2026-05-02T12:41:49.972Z</time></trkpt><trkpt lat="44.208434063876815" lon="10.611516458253014"><ele>827.0</ele><time>2026-05-02T12:41:50.972Z</time></trkpt><trkpt lat="44.20842736887435" lon="10.6116910439089"><ele>827.0</ele><time>2026-05-02T12:41:51.973Z</time></trkpt><trkpt lat="44.208422943804166" lon="10.61185876329792"><ele>827.0</ele><time>2026-05-02T12:41:52.973Z</time></trkpt><trkpt lat="44.208412199450706" lon="10.612026305109952"><ele>827.0</ele><time>2026-05-02T12:41:53.973Z</time></trkpt><trkpt lat="44.208391359242086" lon="10.612193343346618"><ele>827.0</ele><time>2026-05-02T12:41:54.973Z</time></trkpt><trkpt lat="44.20834980804698" lon="10.61234987951978"><ele>823.75</ele><time>2026-05-02T12:41:55.973Z</time></trkpt><trkpt lat="44.208297153815806" lon="10.61246947737572"><ele>820.5</ele><time>2026-05-02T12:41:56.973Z</time></trkpt><trkpt lat="44.20824498759569" lon="10.61262251069441"><ele>817.25</ele><time>2026-05-02T12:41:57.973Z</time></trkpt><trkpt lat="44.20817997347841" lon="10.612760122876299"><ele>814.0</ele><time>2026-05-02T12:41:58.973Z</time></trkpt><trkpt lat="44.208114974974706" lon="10.612889787625582"><ele>814.0</ele><time>2026-05-02T12:41:59.973Z</time></trkpt><trkpt lat="44.20805703751382" lon="10.613016380282728"><ele>814.0</ele><time>2026-05-02T12:42:00.973Z</time></trkpt><trkpt lat="44.20799657682914" lon="10.613147128505483"><ele>814.0</ele><time>2026-05-02T12:42:01.973Z</time></trkpt><trkpt lat="44.20794518359619" lon="10.61328106687551"><ele>814.0</ele><time>2026-05-02T12:42:02.973Z</time></trkpt><trkpt lat="44.20789729202184" lon="10.613418609789134"><ele>814.0</ele><time>2026-05-02T12:42:03.973Z</time></trkpt><trkpt lat="44.20785201206073" lon="10.613545001625537"><ele>811.9999999999999</ele><time>2026-05-02T12:42:04.973Z</time></trkpt><trkpt lat="44.20781766881171" lon="10.613665028578684"><ele>810.0</ele><time>2026-05-02T12:42:05.973Z</time></trkpt><trkpt lat="44.20778002606836" lon="10.613764067621194"><ele>808.0</ele><time>2026-05-02T12:42:06.973Z</time></trkpt><trkpt lat="44.2077451822245" lon="10.613878974585528"><ele>806.0</ele><time>2026-05-02T12:42:07.973Z</time></trkpt><trkpt lat="44.20772189590717" lon="10.614003717299061"><ele>803.9999999999999</ele><time>2026-05-02T12:42:08.973Z</time></trkpt><trkpt lat="44.20769803880572" lon="10.61413036943577"><ele>802.0</ele><time>2026-05-02T12:42:09.973Z</time></trkpt><trkpt lat="44.20767777774748" lon="10.614257714072554"><ele>802.0</ele><time>2026-05-02T12:42:10.973Z</time></trkpt><trkpt lat="44.20765171741747" lon="10.614385935391226"><ele>802.0</ele><time>2026-05-02T12:42:11.973Z</time></trkpt><trkpt lat="44.20762193235208" lon="10.614507635711742"><ele>802.0</ele><time>2026-05-02T12:42:12.973Z</time></trkpt><trkpt lat="44.2075948689812" lon="10.614631718429457"><ele>802.0</ele><time>2026-05-02T12:42:13.973Z</time></trkpt><trkpt lat="44.20756138017908" lon="10.614755062139958"><ele>802.0</ele><time>2026-05-02T12:42:14.973Z</time></trkpt><trkpt lat="44.20752377915683" lon="10.614873712004512"><ele>801.1666666666666</ele><time>2026-05-02T12:42:15.973Z</time></trkpt><trkpt lat="44.20746185444878" lon="10.614972969634783"><ele>800.3333333333333</ele><time>2026-05-02T12:42:16.973Z</time></trkpt><trkpt lat="44.207408883980136" lon="10.615074388914763"><ele>799.5</ele><time>2026-05-02T12:42:17.973Z</time></trkpt><trkpt lat="44.20736590421314" lon="10.615180224153514"><ele>798.6666666666667</ele><time>2026-05-02T12:42:18.973Z</time></trkpt><trkpt lat="44.207311601611586" lon="10.615270393831842"><ele>797.8333333333334</ele><time>2026-05-02T12:42:19.973Z</time></trkpt><trkpt lat="44.20724266070329" lon="10.615350134700675"><ele>797.0</ele><time>2026-05-02T12:42:20.973Z</time></trkpt><trkpt lat="44.20719630433646" lon="10.615439361892557"><ele>794.6</ele><time>2026-05-02T12:42:21.973Z</time></trkpt><trkpt lat="44.20712501734312" lon="10.615501222473563"><ele>792.2</ele><time>2026-05-02T12:42:22.973Z</time></trkpt><trkpt lat="44.207061121968515" lon="10.615588549644537"><ele>789.8</ele><time>2026-05-02T12:42:23.973Z</time></trkpt><trkpt lat="44.2069774176972" lon="10.61566634825145"><ele>787.4</ele><time>2026-05-02T12:42:24.973Z</time></trkpt><trkpt lat="44.20687594462487" lon="10.615719730956663"><ele>785.0</ele><time>2026-05-02T12:42:25.973Z</time></trkpt><trkpt lat="44.20679540156474" lon="10.615814723163746"><ele>785.0</ele><time>2026-05-02T12:42:26.973Z</time></trkpt><trkpt lat="44.206708447295476" lon="10.615913781496065"><ele>785.0</ele><time>2026-05-02T12:42:27.973Z</time></trkpt><trkpt lat="44.20662469536165" lon="10.61601017455248"><ele>785.0</ele><time>2026-05-02T12:42:28.973Z</time></trkpt><trkpt lat="44.2065466756563" lon="10.616107411402053"><ele>785.0</ele><time>2026-05-02T12:42:29.973Z</time></trkpt><trkpt lat="44.20647811914715" lon="10.616215143950502"><ele>785.0</ele><time>2026-05-02T12:42:30.973Z</time></trkpt><trkpt lat="44.20639723822551" lon="10.616306266795332"><ele>784.8333333333334</ele><time>2026-05-02T12:42:31.973Z</time></trkpt><trkpt lat="44.206336810070034" lon="10.61640592568696"><ele>784.6666666666667</ele><time>2026-05-02T12:42:32.974Z</time></trkpt><trkpt lat="44.20626785294911" lon="10.61650047601509"><ele>784.5</ele><time>2026-05-02T12:42:33.974Z</time></trkpt><trkpt lat="44.20620515560512" lon="10.61657933920905"><ele>784.3333333333333</ele><time>2026-05-02T12:42:34.974Z</time></trkpt><trkpt lat="44.206143841102595" lon="10.616643067165876"><ele>784.1666666666666</ele><time>2026-05-02T12:42:35.974Z</time></trkpt><trkpt lat="44.2060882482924" lon="10.61671051926495"><ele>784.0</ele><time>2026-05-02T12:42:36.974Z</time></trkpt><trkpt lat="44.206006671406435" lon="10.616796054237561"><ele>784.0</ele><time>2026-05-02T12:42:38.974Z</time></trkpt><trkpt lat="44.205945444263826" lon="10.6168650899961"><ele>784.0</ele><time>2026-05-02T12:42:40.974Z</time></trkpt><trkpt lat="44.205968833536716" lon="10.61701658917581"><ele>784.0</ele><time>2026-05-02T12:42:43.974Z</time></trkpt><trkpt lat="44.20603261576311" lon="10.61708108844762"><ele>784.0</ele><time>2026-05-02T12:42:44.974Z</time></trkpt><trkpt lat="44.206093898632595" lon="10.617171811583194"><ele>784.0</ele><time>2026-05-02T12:42:45.974Z</time></trkpt><trkpt lat="44.20618285093007" lon="10.61727296581265"><ele>782.8000000000001</ele><time>2026-05-02T12:42:46.974Z</time></trkpt><trkpt lat="44.20626717516509" lon="10.617368014604253"><ele>781.6</ele><time>2026-05-02T12:42:47.974Z</time></trkpt><trkpt lat="44.206362117488176" lon="10.617448139251346"><ele>780.4</ele><time>2026-05-02T12:42:48.974Z</time></trkpt><trkpt lat="44.20644835778006" lon="10.617560833201185"><ele>779.2</ele><time>2026-05-02T12:42:49.974Z</time></trkpt><trkpt lat="44.20653640530383" lon="10.6176480445074"><ele>778.0</ele><time>2026-05-02T12:42:50.974Z</time></trkpt><trkpt lat="44.206623842349096" lon="10.617740976137139"><ele>776.0</ele><time>2026-05-02T12:42:51.974Z</time></trkpt><trkpt lat="44.20670900064911" lon="10.61782433556146"><ele>774.0</ele><time>2026-05-02T12:42:52.974Z</time></trkpt><trkpt lat="44.206783956106285" lon="10.617912024101726"><ele>772.0</ele><time>2026-05-02T12:42:53.974Z</time></trkpt><trkpt lat="44.206857758209274" lon="10.617993709655982"><ele>770.0</ele><time>2026-05-02T12:42:54.974Z</time></trkpt><trkpt lat="44.20694091489105" lon="10.61807022434467"><ele>768.0</ele><time>2026-05-02T12:42:55.974Z</time></trkpt><trkpt lat="44.20701608325785" lon="10.618145245612338"><ele>768.0</ele><time>2026-05-02T12:42:56.974Z</time></trkpt><trkpt lat="44.20711584791478" lon="10.61822365647047"><ele>768.0</ele><time>2026-05-02T12:42:57.974Z</time></trkpt><trkpt lat="44.207206933640435" lon="10.618289780409482"><ele>768.0</ele><time>2026-05-02T12:42:58.974Z</time></trkpt><trkpt lat="44.20730417618459" lon="10.618352372430891"><ele>768.0</ele><time>2026-05-02T12:42:59.974Z</time></trkpt><trkpt lat="44.20740305894595" lon="10.61839902740838"><ele>768.0</ele><time>2026-05-02T12:43:00.974Z</time></trkpt><trkpt lat="44.20749853486984" lon="10.61840110918847"><ele>768.6666666666666</ele><time>2026-05-02T12:43:01.974Z</time></trkpt><trkpt lat="44.20758628285838" lon="10.618446392617818"><ele>769.3333333333333</ele><time>2026-05-02T12:43:02.974Z</time></trkpt><trkpt lat="44.20767259066033" lon="10.618490611827593"><ele>770.0</ele><time>2026-05-02T12:43:03.974Z</time></trkpt><trkpt lat="44.20773996217355" lon="10.618552110243842"><ele>770.6666666666666</ele><time>2026-05-02T12:43:04.974Z</time></trkpt><trkpt lat="44.2077795312971" lon="10.618634539266347"><ele>771.3333333333333</ele><time>2026-05-02T12:43:05.974Z</time></trkpt><trkpt lat="44.20783781578372" lon="10.618712006334418"><ele>772.0</ele><time>2026-05-02T12:43:06.974Z</time></trkpt><trkpt lat="44.20786597756829" lon="10.618799879198397"><ele>770.2</ele><time>2026-05-02T12:43:07.974Z</time></trkpt><trkpt lat="44.207911163276115" lon="10.61891462587887"><ele>768.4000000000001</ele><time>2026-05-02T12:43:08.974Z</time></trkpt><trkpt lat="44.207981046856055" lon="10.619042954354917"><ele>766.5999999999999</ele><time>2026-05-02T12:43:09.974Z</time></trkpt><trkpt lat="44.208053325654774" lon="10.61914473649881"><ele>764.8</ele><time>2026-05-02T12:43:10.974Z</time></trkpt><trkpt lat="44.20813847025187" lon="10.61924238474403"><ele>763.0</ele><time>2026-05-02T12:43:11.974Z</time></trkpt><trkpt lat="44.208234311264476" lon="10.619319824321865"><ele>763.0</ele><time>2026-05-02T12:43:12.974Z</time></trkpt><trkpt lat="44.208305518148315" lon="10.61941517293175"><ele>763.0</ele><time>2026-05-02T12:43:13.974Z</time></trkpt><trkpt lat="44.20839329015433" lon="10.619510252691176"><ele>763.0</ele><time>2026-05-02T12:43:14.974Z</time></trkpt><trkpt lat="44.20848323753193" lon="10.619609037558003"><ele>763.0</ele><time>2026-05-02T12:43:15.974Z</time></trkpt><trkpt lat="44.20857633481854" lon="10.619706655475348"><ele>763.0</ele><time>2026-05-02T12:43:16.974Z</time></trkpt><trkpt lat="44.20866762280347" lon="10.619798760439684"><ele>761.5999999999999</ele><time>2026-05-02T12:43:17.974Z</time></trkpt><trkpt lat="44.2087518839683" lon="10.619890329622615"><ele>760.1999999999999</ele><time>2026-05-02T12:43:18.974Z</time></trkpt><trkpt lat="44.20883642204619" lon="10.61997747155936"><ele>758.8</ele><time>2026-05-02T12:43:19.974Z</time></trkpt><trkpt lat="44.20891155232719" lon="10.620083343596454"><ele>757.4</ele><time>2026-05-02T12:43:20.974Z</time></trkpt><trkpt lat="44.20899190078469" lon="10.620171334744285"><ele>756.0</ele><time>2026-05-02T12:43:21.974Z</time></trkpt><trkpt lat="44.20906923531888" lon="10.620256382677828"><ele>754.0</ele><time>2026-05-02T12:43:22.974Z</time></trkpt><trkpt lat="44.209149594063554" lon="10.62034472216972"><ele>752.0</ele><time>2026-05-02T12:43:23.974Z</time></trkpt><trkpt lat="44.209228916134926" lon="10.620431922018051"><ele>750.0</ele><time>2026-05-02T12:43:24.973Z</time></trkpt><trkpt lat="44.209306413164825" lon="10.620515492590803"><ele>748.0</ele><time>2026-05-02T12:43:25.973Z</time></trkpt><trkpt lat="44.20938831439554" lon="10.620572769742502"><ele>746.0</ele><time>2026-05-02T12:43:26.973Z</time></trkpt><trkpt lat="44.20945710582663" lon="10.62066398245627"><ele>746.0</ele><time>2026-05-02T12:43:27.973Z</time></trkpt><trkpt lat="44.20953278131236" lon="10.620746427688184"><ele>746.0</ele><time>2026-05-02T12:43:28.973Z</time></trkpt><trkpt lat="44.20961379222319" lon="10.620834754306246"><ele>746.0</ele><time>2026-05-02T12:43:29.973Z</time></trkpt><trkpt lat="44.20969650732991" lon="10.620924043391168"><ele>746.0</ele><time>2026-05-02T12:43:30.973Z</time></trkpt><trkpt lat="44.20977957924629" lon="10.621013633704042"><ele>746.0</ele><time>2026-05-02T12:43:31.973Z</time></trkpt><trkpt lat="44.209863365011806" lon="10.621108473764298"><ele>746.0</ele><time>2026-05-02T12:43:32.973Z</time></trkpt><trkpt lat="44.20994830108854" lon="10.6212041385571"><ele>746.0</ele><time>2026-05-02T12:43:33.973Z</time></trkpt><trkpt lat="44.210034954510505" lon="10.621292407899524"><ele>746.0</ele><time>2026-05-02T12:43:34.973Z</time></trkpt><trkpt lat="44.210118779478144" lon="10.621378858190843"><ele>746.0</ele><time>2026-05-02T12:43:35.973Z</time></trkpt><trkpt lat="44.21020130034975" lon="10.621464367464183"><ele>746.0</ele><time>2026-05-02T12:43:36.973Z</time></trkpt><trkpt lat="44.210280229762496" lon="10.621546425346239"><ele>746.0</ele><time>2026-05-02T12:43:37.973Z</time></trkpt><trkpt lat="44.21035767779313" lon="10.621632788227929"><ele>746.0</ele><time>2026-05-02T12:43:38.973Z</time></trkpt><trkpt lat="44.21043107887972" lon="10.621718244542622"><ele>746.0</ele><time>2026-05-02T12:43:39.973Z</time></trkpt><trkpt lat="44.2104887940828" lon="10.6218288262807"><ele>746.0</ele><time>2026-05-02T12:43:40.973Z</time></trkpt><trkpt lat="44.21055153214365" lon="10.621930474426723"><ele>746.0</ele><time>2026-05-02T12:43:41.973Z</time></trkpt><trkpt lat="44.21062744600822" lon="10.622021276482684"><ele>746.5999999999999</ele><time>2026-05-02T12:43:42.973Z</time></trkpt><trkpt lat="44.21067549848729" lon="10.622137706374463"><ele>747.2</ele><time>2026-05-02T12:43:43.973Z</time></trkpt><trkpt lat="44.210738124180985" lon="10.62224682318048"><ele>747.8</ele><time>2026-05-02T12:43:44.973Z</time></trkpt><trkpt lat="44.21080119738114" lon="10.62236297903503"><ele>748.4000000000001</ele><time>2026-05-02T12:43:45.972Z</time></trkpt><trkpt lat="44.21086114396243" lon="10.622472170598014"><ele>749.0</ele><time>2026-05-02T12:43:46.972Z</time></trkpt><trkpt lat="44.21091732386634" lon="10.622591338625316"><ele>749.0</ele><time>2026-05-02T12:43:47.972Z</time></trkpt><trkpt lat="44.210972524091524" lon="10.622703808836569"><ele>749.0</ele><time>2026-05-02T12:43:48.971Z</time></trkpt><trkpt lat="44.21101906185976" lon="10.62282071567768"><ele>749.0</ele><time>2026-05-02T12:43:49.971Z</time></trkpt><trkpt lat="44.21107072252455" lon="10.62293082109114"><ele>749.0</ele><time>2026-05-02T12:43:50.971Z</time></trkpt><trkpt lat="44.2111208487326" lon="10.623026076961223"><ele>749.0</ele><time>2026-05-02T12:43:51.971Z</time></trkpt><trkpt lat="44.211177614820166" lon="10.623109980835103"><ele>746.6666666666666</ele><time>2026-05-02T12:43:52.971Z</time></trkpt><trkpt lat="44.211245824838315" lon="10.623187423805227"><ele>744.3333333333333</ele><time>2026-05-02T12:43:53.971Z</time></trkpt><trkpt lat="44.211327117464364" lon="10.623249281627238"><ele>742.0</ele><time>2026-05-02T12:43:54.971Z</time></trkpt><trkpt lat="44.211398976859094" lon="10.623320129466585"><ele>739.6666666666666</ele><time>2026-05-02T12:43:55.971Z</time></trkpt><trkpt lat="44.21147093196932" lon="10.623367682431052"><ele>737.3333333333334</ele><time>2026-05-02T12:43:56.971Z</time></trkpt><trkpt lat="44.21155575006366" lon="10.623438473944645"><ele>735.0</ele><time>2026-05-02T12:43:57.972Z</time></trkpt><trkpt lat="44.21169790796981" lon="10.623546477573145"><ele>736.0</ele><time>2026-05-02T12:43:59.972Z</time></trkpt><trkpt lat="44.21176777543325" lon="10.623613405993217"><ele>737.0</ele><time>2026-05-02T12:44:00.972Z</time></trkpt><trkpt lat="44.21184554345508" lon="10.623720928398535"><ele>738.0</ele><time>2026-05-02T12:44:02.972Z</time></trkpt><trkpt lat="44.211847223826396" lon="10.623885301296998"><ele>739.0</ele><time>2026-05-02T12:44:04.972Z</time></trkpt><trkpt lat="44.211800694456976" lon="10.623986094712679"><ele>740.0</ele><time>2026-05-02T12:44:05.972Z</time></trkpt><trkpt lat="44.21175790740703" lon="10.624088944271767"><ele>740.0</ele><time>2026-05-02T12:44:06.972Z</time></trkpt><trkpt lat="44.21175776888046" lon="10.624218283137909"><ele>740.0</ele><time>2026-05-02T12:44:07.972Z</time></trkpt><trkpt lat="44.21179958639092" lon="10.624332916403539"><ele>740.0</ele><time>2026-05-02T12:44:08.972Z</time></trkpt><trkpt lat="44.211867875498854" lon="10.624412433906999"><ele>740.0</ele><time>2026-05-02T12:44:09.972Z</time></trkpt><trkpt lat="44.21193820018062" lon="10.624452050721887"><ele>740.0</ele><time>2026-05-02T12:44:10.972Z</time></trkpt><trkpt lat="44.21202238869821" lon="10.62445628071738"><ele>740.0</ele><time>2026-05-02T12:44:11.972Z</time></trkpt><trkpt lat="44.21208593975324" lon="10.624482723782869"><ele>738.4</ele><time>2026-05-02T12:44:12.972Z</time></trkpt><trkpt lat="44.21213920220244" lon="10.624568335833247"><ele>736.8</ele><time>2026-05-02T12:44:13.972Z</time></trkpt><trkpt lat="44.21220270582368" lon="10.624713005019728"><ele>735.2</ele><time>2026-05-02T12:44:14.972Z</time></trkpt><trkpt lat="44.21223668434241" lon="10.624868323926965"><ele>733.6</ele><time>2026-05-02T12:44:15.972Z</time></trkpt><trkpt lat="44.212254272777656" lon="10.625031349056034"><ele>732.0</ele><time>2026-05-02T12:44:16.972Z</time></trkpt><trkpt lat="44.21227307718705" lon="10.625183349205184"><ele>732.2</ele><time>2026-05-02T12:44:17.972Z</time></trkpt><trkpt lat="44.21227947607754" lon="10.625324952259657"><ele>732.4000000000001</ele><time>2026-05-02T12:44:18.972Z</time></trkpt><trkpt lat="44.21228372944105" lon="10.625460230781131"><ele>732.5999999999999</ele><time>2026-05-02T12:44:19.972Z</time></trkpt><trkpt lat="44.21227197019247" lon="10.625595631147409"><ele>732.8</ele><time>2026-05-02T12:44:20.972Z</time></trkpt><trkpt lat="44.21225777280542" lon="10.625719154439794"><ele>733.0</ele><time>2026-05-02T12:44:21.972Z</time></trkpt><trkpt lat="44.21223411092906" lon="10.625842291538977"><ele>733.0</ele><time>2026-05-02T12:44:22.972Z</time></trkpt><trkpt lat="44.21220970598096" lon="10.625965212150643"><ele>733.0</ele><time>2026-05-02T12:44:23.972Z</time></trkpt><trkpt lat="44.21218753832792" lon="10.626089242606108"><ele>733.0</ele><time>2026-05-02T12:44:24.972Z</time></trkpt><trkpt lat="44.21215844540428" lon="10.626217461070311"><ele>733.0</ele><time>2026-05-02T12:44:25.972Z</time></trkpt><trkpt lat="44.21213720166933" lon="10.626362239378825"><ele>733.0</ele><time>2026-05-02T12:44:26.972Z</time></trkpt><trkpt lat="44.21211067620777" lon="10.62651003437292"><ele>734.4</ele><time>2026-05-02T12:44:27.972Z</time></trkpt><trkpt lat="44.212100113348086" lon="10.626647206717305"><ele>735.8</ele><time>2026-05-02T12:44:28.972Z</time></trkpt><trkpt lat="44.212095716161365" lon="10.626801405590102"><ele>737.2</ele><time>2026-05-02T12:44:29.972Z</time></trkpt><trkpt lat="44.212098252739914" lon="10.626948241646037"><ele>738.6</ele><time>2026-05-02T12:44:30.972Z</time></trkpt><trkpt lat="44.21211246226048" lon="10.627091013779605"><ele>740.0</ele><time>2026-05-02T12:44:31.972Z</time></trkpt><trkpt lat="44.21214178439024" lon="10.627226745611042"><ele>742.0</ele><time>2026-05-02T12:44:32.972Z</time></trkpt><trkpt lat="44.212192590456404" lon="10.627347502050647"><ele>744.0</ele><time>2026-05-02T12:44:33.972Z</time></trkpt><trkpt lat="44.21224699391638" lon="10.627466869736386"><ele>746.0</ele><time>2026-05-02T12:44:34.972Z</time></trkpt><trkpt lat="44.212299646202" lon="10.62759458804295"><ele>748.0</ele><time>2026-05-02T12:44:35.972Z</time></trkpt><trkpt lat="44.21235053293063" lon="10.627728519617918"><ele>750.0</ele><time>2026-05-02T12:44:36.972Z</time></trkpt><trkpt lat="44.212404264467" lon="10.62786142588005"><ele>750.0</ele><time>2026-05-02T12:44:37.972Z</time></trkpt><trkpt lat="44.21244985640097" lon="10.627998251522408"><ele>750.0</ele><time>2026-05-02T12:44:38.972Z</time></trkpt><trkpt lat="44.212504576922974" lon="10.628139771191847"><ele>750.0</ele><time>2026-05-02T12:44:39.972Z</time></trkpt><trkpt lat="44.21254686615137" lon="10.628274966326131"><ele>750.0</ele><time>2026-05-02T12:44:40.972Z</time></trkpt><trkpt lat="44.212593891885945" lon="10.62839924520824"><ele>750.0</ele><time>2026-05-02T12:44:41.972Z</time></trkpt><trkpt lat="44.212642907176324" lon="10.628530599467618"><ele>748.4</ele><time>2026-05-02T12:44:42.972Z</time></trkpt><trkpt lat="44.21269030734669" lon="10.628662423062446"><ele>746.8</ele><time>2026-05-02T12:44:43.972Z</time></trkpt><trkpt lat="44.21273796371801" lon="10.628781623760307"><ele>745.2</ele><time>2026-05-02T12:44:44.972Z</time></trkpt><trkpt lat="44.21278120731163" lon="10.628916201440106"><ele>743.6</ele><time>2026-05-02T12:44:45.972Z</time></trkpt><trkpt lat="44.21283384536096" lon="10.629040663913372"><ele>742.0</ele><time>2026-05-02T12:44:46.972Z</time></trkpt><trkpt lat="44.21287938625737" lon="10.629166372572232"><ele>742.0</ele><time>2026-05-02T12:44:47.972Z</time></trkpt><trkpt lat="44.21292056871486" lon="10.629290190525538"><ele>742.0</ele><time>2026-05-02T12:44:48.972Z</time></trkpt><trkpt lat="44.212966288283056" lon="10.629396405528027"><ele>742.0</ele><time>2026-05-02T12:44:49.972Z</time></trkpt><trkpt lat="44.213021235521396" lon="10.629504212653941"><ele>742.0</ele><time>2026-05-02T12:44:50.972Z</time></trkpt><trkpt lat="44.2130864521237" lon="10.629594490070193"><ele>742.0</ele><time>2026-05-02T12:44:51.972Z</time></trkpt><trkpt lat="44.21316307497885" lon="10.62966524273878"><ele>739.8</ele><time>2026-05-02T12:44:52.972Z</time></trkpt><trkpt lat="44.21324463717175" lon="10.629715621627195"><ele>737.6</ele><time>2026-05-02T12:44:53.972Z</time></trkpt><trkpt lat="44.21333362314155" lon="10.629731140480123"><ele>735.4</ele><time>2026-05-02T12:44:54.972Z</time></trkpt><trkpt lat="44.21342120737785" lon="10.629705126703568"><ele>733.1999999999999</ele><time>2026-05-02T12:44:55.972Z</time></trkpt><trkpt lat="44.2135142214069" lon="10.62967027804496"><ele>731.0</ele><time>2026-05-02T12:44:56.972Z</time></trkpt><trkpt lat="44.21360882796598" lon="10.629628411218222"><ele>731.0</ele><time>2026-05-02T12:44:57.972Z</time></trkpt><trkpt lat="44.213708723426464" lon="10.629596494152997"><ele>731.0</ele><time>2026-05-02T12:44:58.972Z</time></trkpt><trkpt lat="44.21381510255799" lon="10.629543146778156"><ele>731.0</ele><time>2026-05-02T12:44:59.972Z</time></trkpt><trkpt lat="44.21392257349118" lon="10.629511308099758"><ele>731.0</ele><time>2026-05-02T12:45:00.972Z</time></trkpt><trkpt lat="44.21402717517801" lon="10.62948029885462"><ele>731.0</ele><time>2026-05-02T12:45:01.972Z</time></trkpt><trkpt lat="44.21412569555462" lon="10.629449464530511"><ele>734.4</ele><time>2026-05-02T12:45:02.973Z</time></trkpt><trkpt lat="44.214230950069826" lon="10.629413165376919"><ele>737.8</ele><time>2026-05-02T12:45:03.973Z</time></trkpt><trkpt lat="44.214326525787364" lon="10.629390090321513"><ele>741.1999999999999</ele><time>2026-05-02T12:45:04.973Z</time></trkpt><trkpt lat="44.21441801281878" lon="10.629355355215173"><ele>744.5999999999999</ele><time>2026-05-02T12:45:05.973Z</time></trkpt><trkpt lat="44.2145109085209" lon="10.629338972759445"><ele>748.0</ele><time>2026-05-02T12:45:06.973Z</time></trkpt><trkpt lat="44.21459303774908" lon="10.629306907107424"><ele>748.0</ele><time>2026-05-02T12:45:07.973Z</time></trkpt><trkpt lat="44.21467998051382" lon="10.629297438598371"><ele>748.0</ele><time>2026-05-02T12:45:08.973Z</time></trkpt><trkpt lat="44.21476905751899" lon="10.62930177373793"><ele>748.0</ele><time>2026-05-02T12:45:09.973Z</time></trkpt><trkpt lat="44.214861338213026" lon="10.629326778159342"><ele>748.0</ele><time>2026-05-02T12:45:10.973Z</time></trkpt><trkpt lat="44.21495154194361" lon="10.629345215297533"><ele>748.0</ele><time>2026-05-02T12:45:11.973Z</time></trkpt><trkpt lat="44.21504378644844" lon="10.629408970390607"><ele>744.2</ele><time>2026-05-02T12:45:12.973Z</time></trkpt><trkpt lat="44.21514548741695" lon="10.629505785815471"><ele>740.4</ele><time>2026-05-02T12:45:13.973Z</time></trkpt><trkpt lat="44.21521994204109" lon="10.629622807081304"><ele>736.6</ele><time>2026-05-02T12:45:14.973Z</time></trkpt><trkpt lat="44.215285634525586" lon="10.629745943065934"><ele>732.8000000000001</ele><time>2026-05-02T12:45:15.973Z</time></trkpt><trkpt lat="44.21529235612603" lon="10.629879896781388"><ele>729.0</ele><time>2026-05-02T12:45:16.973Z</time></trkpt><trkpt lat="44.215275945712584" lon="10.629984086363288"><ele>729.0</ele><time>2026-05-02T12:45:17.973Z</time></trkpt><trkpt lat="44.21526981645015" lon="10.630114379682182"><ele>729.0</ele><time>2026-05-02T12:45:18.973Z</time></trkpt><trkpt lat="44.215263592291016" lon="10.630230772283788"><ele>729.0</ele><time>2026-05-02T12:45:19.973Z</time></trkpt><trkpt lat="44.21525426423521" lon="10.630358179797902"><ele>729.0</ele><time>2026-05-02T12:45:20.973Z</time></trkpt><trkpt lat="44.21524626485275" lon="10.630481099621345"><ele>729.0</ele><time>2026-05-02T12:45:21.973Z</time></trkpt><trkpt lat="44.21524117333112" lon="10.63057904442014"><ele>729.0</ele><time>2026-05-02T12:45:22.973Z</time></trkpt><trkpt lat="44.21524096209973" lon="10.630672912998813"><ele>730.1666666666666</ele><time>2026-05-02T12:45:23.973Z</time></trkpt><trkpt lat="44.21529310933417" lon="10.630784082564919"><ele>731.3333333333334</ele><time>2026-05-02T12:45:25.973Z</time></trkpt><trkpt lat="44.215368363539106" lon="10.630812698271956"><ele>732.5</ele><time>2026-05-02T12:45:26.973Z</time></trkpt><trkpt lat="44.215436032339994" lon="10.630819200830672"><ele>733.6666666666667</ele><time>2026-05-02T12:45:27.973Z</time></trkpt><trkpt lat="44.21554632992657" lon="10.63083264853408"><ele>734.8333333333334</ele><time>2026-05-02T12:45:28.973Z</time></trkpt><trkpt lat="44.21563881787596" lon="10.630852651509976"><ele>736.0</ele><time>2026-05-02T12:45:29.973Z</time></trkpt><trkpt lat="44.21573755204365" lon="10.630875474759025"><ele>736.5999999999999</ele><time>2026-05-02T12:45:30.973Z</time></trkpt><trkpt lat="44.21582429804378" lon="10.630929225726696"><ele>737.2</ele><time>2026-05-02T12:45:31.973Z</time></trkpt><trkpt lat="44.21591162286136" lon="10.630964768936506"><ele>737.8</ele><time>2026-05-02T12:45:32.973Z</time></trkpt><trkpt lat="44.21595929043336" lon="10.631070236679506"><ele>738.4000000000001</ele><time>2026-05-02T12:45:33.973Z</time></trkpt><trkpt lat="44.216033667033315" lon="10.631157303459796"><ele>739.0</ele><time>2026-05-02T12:45:34.973Z</time></trkpt><trkpt lat="44.21609756568944" lon="10.631230239197398"><ele>740.2</ele><time>2026-05-02T12:45:35.973Z</time></trkpt><trkpt lat="44.216184057453084" lon="10.631295623763327"><ele>741.4000000000001</ele><time>2026-05-02T12:45:36.973Z</time></trkpt><trkpt lat="44.21624478567158" lon="10.631392703123254"><ele>742.6</ele><time>2026-05-02T12:45:37.973Z</time></trkpt><trkpt lat="44.21634351841082" lon="10.631457524393435"><ele>743.8</ele><time>2026-05-02T12:45:38.973Z</time></trkpt><trkpt lat="44.216446484160905" lon="10.631522793679919"><ele>745.0</ele><time>2026-05-02T12:45:39.973Z</time></trkpt><trkpt lat="44.2165296466209" lon="10.631615803850282"><ele>745.0</ele><time>2026-05-02T12:45:40.973Z</time></trkpt><trkpt lat="44.21662380135779" lon="10.63168785026251"><ele>745.0</ele><time>2026-05-02T12:45:41.973Z</time></trkpt><trkpt lat="44.21671283718655" lon="10.631751397264466"><ele>745.0</ele><time>2026-05-02T12:45:42.973Z</time></trkpt><trkpt lat="44.21678487887486" lon="10.631818502645972"><ele>745.0</ele><time>2026-05-02T12:45:43.973Z</time></trkpt><trkpt lat="44.21686634771326" lon="10.63190360964554"><ele>745.0</ele><time>2026-05-02T12:45:44.973Z</time></trkpt><trkpt lat="44.21691827940825" lon="10.632014759852481"><ele>751.8</ele><time>2026-05-02T12:45:45.973Z</time></trkpt><trkpt lat="44.21696729615202" lon="10.632120257974554"><ele>758.6</ele><time>2026-05-02T12:45:46.973Z</time></trkpt><trkpt lat="44.21702424406483" lon="10.632237514158476"><ele>765.4000000000001</ele><time>2026-05-02T12:45:47.973Z</time></trkpt><trkpt lat="44.21706688285739" lon="10.632371836670197"><ele>772.2</ele><time>2026-05-02T12:45:48.973Z</time></trkpt><trkpt lat="44.21708972604846" lon="10.632508873651863"><ele>779.0</ele><time>2026-05-02T12:45:49.973Z</time></trkpt><trkpt lat="44.217094108255274" lon="10.632642725898602"><ele>779.0</ele><time>2026-05-02T12:45:50.973Z</time></trkpt><trkpt lat="44.21711086355828" lon="10.632763763014415"><ele>779.0</ele><time>2026-05-02T12:45:51.971Z</time></trkpt><trkpt lat="44.21716411640427" lon="10.632877039020165"><ele>779.0</ele><time>2026-05-02T12:45:52.971Z</time></trkpt><trkpt lat="44.21721148266456" lon="10.632990852075231"><ele>779.0</ele><time>2026-05-02T12:45:53.971Z</time></trkpt><trkpt lat="44.21729118433951" lon="10.633067508430996"><ele>779.0</ele><time>2026-05-02T12:45:54.971Z</time></trkpt><trkpt lat="44.21737193241159" lon="10.633106388762037"><ele>774.4000000000001</ele><time>2026-05-02T12:45:55.971Z</time></trkpt><trkpt lat="44.2174501306788" lon="10.633141723358875"><ele>769.8</ele><time>2026-05-02T12:45:56.971Z</time></trkpt><trkpt lat="44.2175238690374" lon="10.633218896229883"><ele>765.2</ele><time>2026-05-02T12:45:57.971Z</time></trkpt><trkpt lat="44.21759503682477" lon="10.633331977126813"><ele>760.5999999999999</ele><time>2026-05-02T12:45:58.971Z</time></trkpt><trkpt lat="44.21768044811751" lon="10.633467113501112"><ele>756.0</ele><time>2026-05-02T12:45:59.972Z</time></trkpt><trkpt lat="44.21774856629754" lon="10.633576084507931"><ele>761.5999999999999</ele><time>2026-05-02T12:46:00.971Z</time></trkpt><trkpt lat="44.217823200988775" lon="10.633695234244705"><ele>767.2</ele><time>2026-05-02T12:46:01.971Z</time></trkpt><trkpt lat="44.217899702342294" lon="10.633817039294664"><ele>772.8</ele><time>2026-05-02T12:46:02.971Z</time></trkpt><trkpt lat="44.21796789437558" lon="10.633925961044454"><ele>778.4000000000001</ele><time>2026-05-02T12:46:03.971Z</time></trkpt><trkpt lat="44.21804085224394" lon="10.63403880544191"><ele>784.0</ele><time>2026-05-02T12:46:04.971Z</time></trkpt><trkpt lat="44.218122614578675" lon="10.634140861545259"><ele>776.8000000000001</ele><time>2026-05-02T12:46:05.971Z</time></trkpt><trkpt lat="44.218213306980395" lon="10.634213052270695"><ele>769.6</ele><time>2026-05-02T12:46:06.971Z</time></trkpt><trkpt lat="44.218311256205745" lon="10.634261469637984"><ele>762.4</ele><time>2026-05-02T12:46:07.971Z</time></trkpt><trkpt lat="44.21840902828247" lon="10.634303832812337"><ele>755.2</ele><time>2026-05-02T12:46:08.971Z</time></trkpt><trkpt lat="44.218490235396814" lon="10.6343330318302"><ele>748.0</ele><time>2026-05-02T12:46:09.971Z</time></trkpt><trkpt lat="44.218578022005865" lon="10.634360401438963"><ele>748.0</ele><time>2026-05-02T12:46:10.971Z</time></trkpt><trkpt lat="44.218687355729166" lon="10.634339869559685"><ele>748.0</ele><time>2026-05-02T12:46:11.971Z</time></trkpt><trkpt lat="44.218798370375225" lon="10.634346567809134"><ele>748.0</ele><time>2026-05-02T12:46:12.971Z</time></trkpt><trkpt lat="44.21893336680634" lon="10.634341006622764"><ele>748.0</ele><time>2026-05-02T12:46:13.971Z</time></trkpt><trkpt lat="44.21904091041904" lon="10.634351140755868"><ele>744.4</ele><time>2026-05-02T12:46:14.971Z</time></trkpt><trkpt lat="44.21912690117368" lon="10.634365312333971"><ele>740.8</ele><time>2026-05-02T12:46:15.971Z</time></trkpt><trkpt lat="44.21921755529949" lon="10.634396218194505"><ele>737.2</ele><time>2026-05-02T12:46:16.971Z</time></trkpt><trkpt lat="44.219301274255336" lon="10.634440880665263"><ele>733.6</ele><time>2026-05-02T12:46:17.971Z</time></trkpt><trkpt lat="44.21939331545426" lon="10.634497405545003"><ele>730.0</ele><time>2026-05-02T12:46:18.971Z</time></trkpt><trkpt lat="44.21948192694577" lon="10.634555013902716"><ele>736.2</ele><time>2026-05-02T12:46:19.971Z</time></trkpt><trkpt lat="44.21957714321535" lon="10.63462218166826"><ele>742.4</ele><time>2026-05-02T12:46:20.971Z</time></trkpt><trkpt lat="44.21969210995855" lon="10.634650029390333"><ele>748.5999999999999</ele><time>2026-05-02T12:46:21.971Z</time></trkpt><trkpt lat="44.219789474707966" lon="10.634645541246128"><ele>754.8</ele><time>2026-05-02T12:46:22.971Z</time></trkpt><trkpt lat="44.219889878860265" lon="10.634625943917968"><ele>761.0</ele><time>2026-05-02T12:46:23.971Z</time></trkpt><trkpt lat="44.21999087532627" lon="10.634612136482117"><ele>761.0</ele><time>2026-05-02T12:46:24.971Z</time></trkpt><trkpt lat="44.22009303250533" lon="10.634614256427652"><ele>761.0</ele><time>2026-05-02T12:46:25.971Z</time></trkpt><trkpt lat="44.220188788080996" lon="10.634632696327715"><ele>761.0</ele><time>2026-05-02T12:46:26.971Z</time></trkpt><trkpt lat="44.22028004408623" lon="10.634660988237833"><ele>761.0</ele><time>2026-05-02T12:46:27.971Z</time></trkpt><trkpt lat="44.22036932825976" lon="10.634738697450127"><ele>761.0</ele><time>2026-05-02T12:46:28.971Z</time></trkpt><trkpt lat="44.22043235949081" lon="10.63482320211542"><ele>761.0</ele><time>2026-05-02T12:46:29.971Z</time></trkpt><trkpt lat="44.220471112182715" lon="10.634943567537098"><ele>761.0</ele><time>2026-05-02T12:46:30.971Z</time></trkpt><trkpt lat="44.2205076498254" lon="10.635064589383417"><ele>761.0</ele><time>2026-05-02T12:46:31.971Z</time></trkpt><trkpt lat="44.22054364474288" lon="10.635204802927984"><ele>761.0</ele><time>2026-05-02T12:46:32.971Z</time></trkpt><trkpt lat="44.2205802382975" lon="10.635345866371669"><ele>761.0</ele><time>2026-05-02T12:46:33.971Z</time></trkpt><trkpt lat="44.2206182903443" lon="10.635481548557133"><ele>761.25</ele><time>2026-05-02T12:46:34.971Z</time></trkpt><trkpt lat="44.22066111633693" lon="10.635621712501887"><ele>761.5</ele><time>2026-05-02T12:46:35.971Z</time></trkpt><trkpt lat="44.22072637894007" lon="10.63575366677884"><ele>761.75</ele><time>2026-05-02T12:46:36.971Z</time></trkpt><trkpt lat="44.22085481050421" lon="10.63583794331137"><ele>762.0</ele><time>2026-05-02T12:46:37.971Z</time></trkpt><trkpt lat="44.22094797021856" lon="10.635907161798999"><ele>762.0</ele><time>2026-05-02T12:46:38.971Z</time></trkpt><trkpt lat="44.22103120528406" lon="10.635988809208133"><ele>762.0</ele><time>2026-05-02T12:46:39.972Z</time></trkpt><trkpt lat="44.22110591339996" lon="10.636060763459923"><ele>762.0</ele><time>2026-05-02T12:46:40.972Z</time></trkpt><trkpt lat="44.221185978394956" lon="10.636142180426866"><ele>762.0</ele><time>2026-05-02T12:46:41.972Z</time></trkpt><trkpt lat="44.221265354612164" lon="10.636229673048712"><ele>762.0</ele><time>2026-05-02T12:46:42.972Z</time></trkpt><trkpt lat="44.221341103398004" lon="10.636308312162779"><ele>762.0</ele><time>2026-05-02T12:46:43.972Z</time></trkpt><trkpt lat="44.22142657122456" lon="10.636364088625287"><ele>762.0</ele><time>2026-05-02T12:46:44.972Z</time></trkpt><trkpt lat="44.221507084260566" lon="10.63642442600037"><ele>762.0</ele><time>2026-05-02T12:46:45.972Z</time></trkpt><trkpt lat="44.22159176990722" lon="10.636490274886981"><ele>762.0</ele><time>2026-05-02T12:46:46.972Z</time></trkpt><trkpt lat="44.22167826889201" lon="10.636538525593197"><ele>762.0</ele><time>2026-05-02T12:46:47.972Z</time></trkpt><trkpt lat="44.22177388864903" lon="10.63658782275317"><ele>762.0</ele><time>2026-05-02T12:46:48.972Z</time></trkpt><trkpt lat="44.22188084197427" lon="10.636633323129278"><ele>762.0</ele><time>2026-05-02T12:46:49.972Z</time></trkpt><trkpt lat="44.22198088914835" lon="10.636686750507812"><ele>762.0</ele><time>2026-05-02T12:46:50.972Z</time></trkpt><trkpt lat="44.222063664655025" lon="10.636767517093501"><ele>762.0</ele><time>2026-05-02T12:46:51.972Z</time></trkpt><trkpt lat="44.22216017844972" lon="10.636842288659137"><ele>762.0</ele><time>2026-05-02T12:46:52.972Z</time></trkpt><trkpt lat="44.22224572451866" lon="10.636928859091327"><ele>764.6</ele><time>2026-05-02T12:46:53.972Z</time></trkpt><trkpt lat="44.22232217804935" lon="10.637007155171704"><ele>767.2</ele><time>2026-05-02T12:46:54.972Z</time></trkpt><trkpt lat="44.2224096969133" lon="10.637078068672075"><ele>769.8</ele><time>2026-05-02T12:46:55.972Z</time></trkpt><trkpt lat="44.22247583939825" lon="10.637163314382667"><ele>772.4</ele><time>2026-05-02T12:46:56.972Z</time></trkpt><trkpt lat="44.22256708035004" lon="10.637232156906247"><ele>775.0</ele><time>2026-05-02T12:46:57.972Z</time></trkpt><trkpt lat="44.2226662211644" lon="10.637282301560301"><ele>775.0</ele><time>2026-05-02T12:46:58.972Z</time></trkpt><trkpt lat="44.22277707683029" lon="10.637301137482083"><ele>775.0</ele><time>2026-05-02T12:46:59.972Z</time></trkpt><trkpt lat="44.22287186363118" lon="10.637347814685743"><ele>775.0</ele><time>2026-05-02T12:47:00.972Z</time></trkpt><trkpt lat="44.22297246244318" lon="10.63737573428908"><ele>775.0</ele><time>2026-05-02T12:47:01.972Z</time></trkpt><trkpt lat="44.22308591565008" lon="10.637398417348148"><ele>775.0</ele><time>2026-05-02T12:47:02.972Z</time></trkpt><trkpt lat="44.223194414053445" lon="10.637422791203816"><ele>771.0</ele><time>2026-05-02T12:47:03.972Z</time></trkpt><trkpt lat="44.22330550732476" lon="10.637436708602321"><ele>767.0</ele><time>2026-05-02T12:47:04.972Z</time></trkpt><trkpt lat="44.22341653172934" lon="10.637452493266839"><ele>763.0</ele><time>2026-05-02T12:47:05.972Z</time></trkpt><trkpt lat="44.223524134844205" lon="10.637464999828065"><ele>759.0</ele><time>2026-05-02T12:47:06.972Z</time></trkpt><trkpt lat="44.223636053960064" lon="10.637475608036208"><ele>755.0</ele><time>2026-05-02T12:47:07.972Z</time></trkpt><trkpt lat="44.223756516031365" lon="10.637500910665066"><ele>755.0</ele><time>2026-05-02T12:47:08.972Z</time></trkpt><trkpt lat="44.22385834573518" lon="10.637502138772014"><ele>755.0</ele><time>2026-05-02T12:47:09.972Z</time></trkpt><trkpt lat="44.223968388668496" lon="10.63750710360262"><ele>755.0</ele><time>2026-05-02T12:47:10.972Z</time></trkpt><trkpt lat="44.224077470759674" lon="10.63750773469081"><ele>755.0</ele><time>2026-05-02T12:47:11.972Z</time></trkpt><trkpt lat="44.22418621829296" lon="10.637531323308906"><ele>755.0</ele><time>2026-05-02T12:47:12.972Z</time></trkpt><trkpt lat="44.224292452708895" lon="10.637558066783962"><ele>752.8</ele><time>2026-05-02T12:47:13.972Z</time></trkpt><trkpt lat="44.22439264789906" lon="10.637589882581361"><ele>750.6</ele><time>2026-05-02T12:47:14.972Z</time></trkpt><trkpt lat="44.22449135530546" lon="10.63764496287247"><ele>748.4000000000001</ele><time>2026-05-02T12:47:15.972Z</time></trkpt><trkpt lat="44.2245869797944" lon="10.6377181229511"><ele>746.2</ele><time>2026-05-02T12:47:16.972Z</time></trkpt><trkpt lat="44.22466920837953" lon="10.63781686169795"><ele>744.0</ele><time>2026-05-02T12:47:17.972Z</time></trkpt><trkpt lat="44.22474379790194" lon="10.63793670434688"><ele>746.2</ele><time>2026-05-02T12:47:18.972Z</time></trkpt><trkpt lat="44.224811371400016" lon="10.63806070030938"><ele>748.4000000000001</ele><time>2026-05-02T12:47:19.972Z</time></trkpt><trkpt lat="44.22488340264947" lon="10.638176890159395"><ele>750.6</ele><time>2026-05-02T12:47:20.972Z</time></trkpt><trkpt lat="44.22496874077413" lon="10.638280125435926"><ele>752.8</ele><time>2026-05-02T12:47:21.972Z</time></trkpt><trkpt lat="44.225063671640044" lon="10.638362576305962"><ele>755.0</ele><time>2026-05-02T12:47:22.972Z</time></trkpt><trkpt lat="44.225162391451626" lon="10.638441034883465"><ele>755.0</ele><time>2026-05-02T12:47:23.972Z</time></trkpt><trkpt lat="44.225254506147834" lon="10.638516261012713"><ele>755.0</ele><time>2026-05-02T12:47:24.972Z</time></trkpt><trkpt lat="44.22535017921229" lon="10.63860550540449"><ele>755.0</ele><time>2026-05-02T12:47:25.972Z</time></trkpt><trkpt lat="44.22543495307871" lon="10.63871889504253"><ele>755.0</ele><time>2026-05-02T12:47:26.972Z</time></trkpt><trkpt lat="44.225515082207664" lon="10.638841229744196"><ele>753.6</ele><time>2026-05-02T12:47:27.972Z</time></trkpt><trkpt lat="44.225599461516" lon="10.6389535218966"><ele>752.2</ele><time>2026-05-02T12:47:28.972Z</time></trkpt><trkpt lat="44.225681752833026" lon="10.639058247159493"><ele>750.8</ele><time>2026-05-02T12:47:29.972Z</time></trkpt><trkpt lat="44.2257707033748" lon="10.639143140408644"><ele>749.4</ele><time>2026-05-02T12:47:30.972Z</time></trkpt><trkpt lat="44.225842407682485" lon="10.639225138589255"><ele>748.0</ele><time>2026-05-02T12:47:31.972Z</time></trkpt><trkpt lat="44.225914780440654" lon="10.63930890035426"><ele>748.0</ele><time>2026-05-02T12:47:32.972Z</time></trkpt><trkpt lat="44.22594443108224" lon="10.639433566567075"><ele>748.0</ele><time>2026-05-02T12:47:33.972Z</time></trkpt><trkpt lat="44.22595810760249" lon="10.639554115784211"><ele>748.0</ele><time>2026-05-02T12:47:34.972Z</time></trkpt><trkpt lat="44.22592432510021" lon="10.63976111587811"><ele>748.0</ele><time>2026-05-02T12:47:35.972Z</time></trkpt><trkpt lat="44.22598079396" lon="10.639911022383291"><ele>751.4</ele><time>2026-05-02T12:47:36.972Z</time></trkpt><trkpt lat="44.226069418702295" lon="10.640060751900366"><ele>754.8</ele><time>2026-05-02T12:47:37.972Z</time></trkpt><trkpt lat="44.226156694822706" lon="10.640177989881497"><ele>758.2</ele><time>2026-05-02T12:47:38.972Z</time></trkpt><trkpt lat="44.22623337414395" lon="10.64028099206907"><ele>761.6</ele><time>2026-05-02T12:47:39.972Z</time></trkpt><trkpt lat="44.226257388330495" lon="10.640363041988724"><ele>765.0</ele><time>2026-05-02T12:47:40.972Z</time></trkpt><trkpt lat="44.226300705215344" lon="10.640471609035501"><ele>768.8</ele><time>2026-05-02T12:47:41.972Z</time></trkpt><trkpt lat="44.226340514912124" lon="10.64055036734686"><ele>772.6</ele><time>2026-05-02T12:47:42.972Z</time></trkpt><trkpt lat="44.22640068336016" lon="10.640671582469135"><ele>776.4000000000001</ele><time>2026-05-02T12:47:43.972Z</time></trkpt><trkpt lat="44.22640589485374" lon="10.6407730554914"><ele>780.2</ele><time>2026-05-02T12:47:44.973Z</time></trkpt><trkpt lat="44.22644114812009" lon="10.640941466179774"><ele>784.0</ele><time>2026-05-02T12:47:45.973Z</time></trkpt><trkpt lat="44.226481107532784" lon="10.641076411816169"><ele>778.0</ele><time>2026-05-02T12:47:46.973Z</time></trkpt><trkpt lat="44.226522820745316" lon="10.64122060490254"><ele>772.0</ele><time>2026-05-02T12:47:47.973Z</time></trkpt><trkpt lat="44.22655554024178" lon="10.641338360506355"><ele>766.0</ele><time>2026-05-02T12:47:48.973Z</time></trkpt><trkpt lat="44.22657585831158" lon="10.641438513376341"><ele>760.0</ele><time>2026-05-02T12:47:49.973Z</time></trkpt><trkpt lat="44.2265999996797" lon="10.641560192224125"><ele>754.0</ele><time>2026-05-02T12:47:50.973Z</time></trkpt><trkpt lat="44.22662864371584" lon="10.641680119084977"><ele>754.0</ele><time>2026-05-02T12:47:51.973Z</time></trkpt><trkpt lat="44.22674341464821" lon="10.641513873235127"><ele>754.0</ele><time>2026-05-02T12:47:55.973Z</time></trkpt><trkpt lat="44.226690183348666" lon="10.641393746785432"><ele>754.0</ele><time>2026-05-02T12:47:56.973Z</time></trkpt><trkpt lat="44.226616278131594" lon="10.641231271718882"><ele>754.0</ele><time>2026-05-02T12:47:57.971Z</time></trkpt><trkpt lat="44.22651941955708" lon="10.641049997357003"><ele>775.0</ele><time>2026-05-02T12:47:58.972Z</time></trkpt><trkpt lat="44.2272930824417" lon="10.64208394207906"><ele>766.4</ele><time>2026-05-02T12:47:59.972Z</time></trkpt><trkpt lat="44.22732534617549" lon="10.642218319428531"><ele>757.8</ele><time>2026-05-02T12:48:00.972Z</time></trkpt><trkpt lat="44.227366317044265" lon="10.642337109426313"><ele>749.2</ele><time>2026-05-02T12:48:01.971Z</time></trkpt><trkpt lat="44.22737890836587" lon="10.64245004890209"><ele>740.6</ele><time>2026-05-02T12:48:02.971Z</time></trkpt><trkpt lat="44.227384895501146" lon="10.642562676629971"><ele>732.0</ele><time>2026-05-02T12:48:03.971Z</time></trkpt><trkpt lat="44.227379395073044" lon="10.642692627849254"><ele>733.4000000000001</ele><time>2026-05-02T12:48:04.971Z</time></trkpt><trkpt lat="44.22738998680116" lon="10.642816055508634"><ele>734.8000000000001</ele><time>2026-05-02T12:48:05.971Z</time></trkpt><trkpt lat="44.227386625531516" lon="10.642949434749225"><ele>736.2</ele><time>2026-05-02T12:48:06.972Z</time></trkpt><trkpt lat="44.22739446171913" lon="10.643070566488435"><ele>737.6</ele><time>2026-05-02T12:48:07.971Z</time></trkpt><trkpt lat="44.22740964405379" lon="10.643209652960774"><ele>739.0</ele><time>2026-05-02T12:48:08.971Z</time></trkpt><trkpt lat="44.227388223275376" lon="10.643338389812131"><ele>739.0</ele><time>2026-05-02T12:48:09.971Z</time></trkpt><trkpt lat="44.22735560933615" lon="10.643459098086074"><ele>739.0</ele><time>2026-05-02T12:48:10.971Z</time></trkpt><trkpt lat="44.227323414284534" lon="10.643594917463243"><ele>739.0</ele><time>2026-05-02T12:48:11.971Z</time></trkpt><trkpt lat="44.22730588818759" lon="10.643731077067082"><ele>739.0</ele><time>2026-05-02T12:48:12.971Z</time></trkpt><trkpt lat="44.227328829419555" lon="10.643874276370715"><ele>739.0</ele><time>2026-05-02T12:48:13.971Z</time></trkpt><trkpt lat="44.22739303756612" lon="10.643987874575192"><ele>740.0</ele><time>2026-05-02T12:48:14.971Z</time></trkpt><trkpt lat="44.22745653145531" lon="10.64409464526677"><ele>741.0</ele><time>2026-05-02T12:48:15.971Z</time></trkpt><trkpt lat="44.22750375063545" lon="10.644221846185294"><ele>742.0</ele><time>2026-05-02T12:48:16.971Z</time></trkpt><trkpt lat="44.22756590118251" lon="10.644336931887658"><ele>743.0</ele><time>2026-05-02T12:48:17.971Z</time></trkpt><trkpt lat="44.227624913308055" lon="10.644461803064475"><ele>744.0</ele><time>2026-05-02T12:48:18.971Z</time></trkpt><trkpt lat="44.22768426423857" lon="10.64459031534158"><ele>746.0</ele><time>2026-05-02T12:48:19.971Z</time></trkpt><trkpt lat="44.227740421144034" lon="10.644735575910051"><ele>748.0</ele><time>2026-05-02T12:48:20.971Z</time></trkpt><trkpt lat="44.22779268888005" lon="10.644891402555727"><ele>750.0</ele><time>2026-05-02T12:48:21.971Z</time></trkpt><trkpt lat="44.22782146349559" lon="10.6450391380637"><ele>752.0</ele><time>2026-05-02T12:48:22.971Z</time></trkpt><trkpt lat="44.22785491593524" lon="10.645174431223216"><ele>752.8</ele><time>2026-05-02T12:48:23.971Z</time></trkpt><trkpt lat="44.227885081431126" lon="10.645301228195681"><ele>753.6</ele><time>2026-05-02T12:48:24.971Z</time></trkpt><trkpt lat="44.22791383812246" lon="10.645422102964934"><ele>754.4</ele><time>2026-05-02T12:48:25.972Z</time></trkpt><trkpt lat="44.22792592808119" lon="10.645508704706453"><ele>755.1999999999999</ele><time>2026-05-02T12:48:26.972Z</time></trkpt><trkpt lat="44.227916407371794" lon="10.645687529937305"><ele>756.0</ele><time>2026-05-02T12:48:28.972Z</time></trkpt><trkpt lat="44.22783801666515" lon="10.645750975493769"><ele>756.0</ele><time>2026-05-02T12:48:29.972Z</time></trkpt><trkpt lat="44.22778691612495" lon="10.64582435898025"><ele>756.0</ele><time>2026-05-02T12:48:30.972Z</time></trkpt><trkpt lat="44.22772441596629" lon="10.64590399054308"><ele>756.0</ele><time>2026-05-02T12:48:31.972Z</time></trkpt><trkpt lat="44.227660787758694" lon="10.646007825785672"><ele>756.0</ele><time>2026-05-02T12:48:32.972Z</time></trkpt><trkpt lat="44.227640422645685" lon="10.64612522453222"><ele>756.0</ele><time>2026-05-02T12:48:33.972Z</time></trkpt><trkpt lat="44.22767334235993" lon="10.646246027977968"><ele>756.0</ele><time>2026-05-02T12:48:34.972Z</time></trkpt><trkpt lat="44.22768970786786" lon="10.646359728817478"><ele>756.5999999999999</ele><time>2026-05-02T12:48:35.972Z</time></trkpt><trkpt lat="44.22775409379201" lon="10.646470360185814"><ele>757.2</ele><time>2026-05-02T12:48:36.972Z</time></trkpt><trkpt lat="44.227840514117766" lon="10.646540942597303"><ele>757.8</ele><time>2026-05-02T12:48:37.972Z</time></trkpt><trkpt lat="44.22792672195796" lon="10.646591262624943"><ele>758.4000000000001</ele><time>2026-05-02T12:48:38.972Z</time></trkpt><trkpt lat="44.22800541707485" lon="10.646632173345512"><ele>759.0</ele><time>2026-05-02T12:48:39.972Z</time></trkpt><trkpt lat="44.22809811224741" lon="10.646663304532474"><ele>755.4000000000001</ele><time>2026-05-02T12:48:40.972Z</time></trkpt><trkpt lat="44.22818362223924" lon="10.646721179335753"><ele>751.8</ele><time>2026-05-02T12:48:41.972Z</time></trkpt><trkpt lat="44.22824984488845" lon="10.646818454381634"><ele>748.2</ele><time>2026-05-02T12:48:42.972Z</time></trkpt><trkpt lat="44.228272642830014" lon="10.646939903169395"><ele>744.5999999999999</ele><time>2026-05-02T12:48:43.972Z</time></trkpt><trkpt lat="44.22831197443714" lon="10.647067118767968"><ele>741.0</ele><time>2026-05-02T12:48:44.972Z</time></trkpt><trkpt lat="44.22836395091798" lon="10.647174688023465"><ele>741.0</ele><time>2026-05-02T12:48:45.972Z</time></trkpt><trkpt lat="44.228436868616235" lon="10.647263881820097"><ele>741.0</ele><time>2026-05-02T12:48:46.972Z</time></trkpt><trkpt lat="44.22850538535314" lon="10.647370878083303"><ele>741.0</ele><time>2026-05-02T12:48:47.972Z</time></trkpt><trkpt lat="44.22856056042915" lon="10.64748040608763"><ele>741.0</ele><time>2026-05-02T12:48:48.972Z</time></trkpt><trkpt lat="44.228607625085324" lon="10.647578189295647"><ele>741.0</ele><time>2026-05-02T12:48:49.972Z</time></trkpt><trkpt lat="44.2286344162388" lon="10.647702679945139"><ele>743.8</ele><time>2026-05-02T12:48:50.972Z</time></trkpt><trkpt lat="44.228652565232785" lon="10.647823956445725"><ele>746.5999999999999</ele><time>2026-05-02T12:48:51.972Z</time></trkpt><trkpt lat="44.22864388959704" lon="10.647935150980377"><ele>749.4</ele><time>2026-05-02T12:48:52.972Z</time></trkpt><trkpt lat="44.228658662844985" lon="10.648055883138776"><ele>752.2</ele><time>2026-05-02T12:48:53.972Z</time></trkpt><trkpt lat="44.2286825048657" lon="10.648197423869867"><ele>755.0</ele><time>2026-05-02T12:48:54.972Z</time></trkpt><trkpt lat="44.228736147354304" lon="10.648333388863469"><ele>755.0</ele><time>2026-05-02T12:48:55.972Z</time></trkpt><trkpt lat="44.22877625356361" lon="10.648453521825882"><ele>755.0</ele><time>2026-05-02T12:48:56.972Z</time></trkpt><trkpt lat="44.22886498305936" lon="10.648569713317631"><ele>755.0</ele><time>2026-05-02T12:48:57.972Z</time></trkpt><trkpt lat="44.2289380657281" lon="10.648670680391682"><ele>755.0</ele><time>2026-05-02T12:48:58.972Z</time></trkpt><trkpt lat="44.22900793720884" lon="10.648738856744608"><ele>755.0</ele><time>2026-05-02T12:48:59.972Z</time></trkpt><trkpt lat="44.22909391152192" lon="10.64880120564034"><ele>752.4</ele><time>2026-05-02T12:49:00.972Z</time></trkpt><trkpt lat="44.22918153591194" lon="10.648835835523943"><ele>749.8</ele><time>2026-05-02T12:49:01.972Z</time></trkpt><trkpt lat="44.229268623727954" lon="10.648855243720174"><ele>747.2</ele><time>2026-05-02T12:49:02.972Z</time></trkpt><trkpt lat="44.229372759570296" lon="10.648855749913263"><ele>744.6</ele><time>2026-05-02T12:49:03.972Z</time></trkpt><trkpt lat="44.229459164372834" lon="10.64886147242674"><ele>742.0</ele><time>2026-05-02T12:49:04.972Z</time></trkpt><trkpt lat="44.229572692515944" lon="10.648864900169789"><ele>742.0</ele><time>2026-05-02T12:49:05.972Z</time></trkpt><trkpt lat="44.229679191587536" lon="10.648906784673622"><ele>742.0</ele><time>2026-05-02T12:49:06.972Z</time></trkpt><trkpt lat="44.229783152143106" lon="10.648955096950978"><ele>742.0</ele><time>2026-05-02T12:49:07.972Z</time></trkpt><trkpt lat="44.22989289642752" lon="10.649006162729243"><ele>742.0</ele><time>2026-05-02T12:49:08.972Z</time></trkpt><trkpt lat="44.2300064226466" lon="10.649029861312673"><ele>739.6</ele><time>2026-05-02T12:49:09.972Z</time></trkpt><trkpt lat="44.23011082577181" lon="10.64904722842974"><ele>737.2</ele><time>2026-05-02T12:49:10.972Z</time></trkpt><trkpt lat="44.23022129784834" lon="10.649035881673823"><ele>734.8</ele><time>2026-05-02T12:49:11.972Z</time></trkpt><trkpt lat="44.230321029669895" lon="10.649042080456441"><ele>732.4</ele><time>2026-05-02T12:49:12.972Z</time></trkpt><trkpt lat="44.23041963966533" lon="10.649070053266028"><ele>730.0</ele><time>2026-05-02T12:49:13.972Z</time></trkpt><trkpt lat="44.23051103469203" lon="10.649121253691806"><ele>730.0</ele><time>2026-05-02T12:49:14.972Z</time></trkpt><trkpt lat="44.23059505575785" lon="10.649199819120591"><ele>730.0</ele><time>2026-05-02T12:49:15.972Z</time></trkpt><trkpt lat="44.23064492321538" lon="10.649304883266877"><ele>730.0</ele><time>2026-05-02T12:49:16.972Z</time></trkpt><trkpt lat="44.230695253600615" lon="10.649417617091704"><ele>730.0</ele><time>2026-05-02T12:49:17.972Z</time></trkpt><trkpt lat="44.23073213026145" lon="10.64952477446648"><ele>730.0</ele><time>2026-05-02T12:49:18.972Z</time></trkpt><trkpt lat="44.23076467829952" lon="10.649636826040915"><ele>728.4</ele><time>2026-05-02T12:49:19.972Z</time></trkpt><trkpt lat="44.2307897405397" lon="10.649755631595006"><ele>726.8</ele><time>2026-05-02T12:49:20.972Z</time></trkpt><trkpt lat="44.23080358559716" lon="10.649884142332072"><ele>725.2</ele><time>2026-05-02T12:49:21.972Z</time></trkpt><trkpt lat="44.23081052025372" lon="10.650029539530738"><ele>723.6</ele><time>2026-05-02T12:49:22.972Z</time></trkpt><trkpt lat="44.2308013544448" lon="10.650177541037001"><ele>722.0</ele><time>2026-05-02T12:49:23.972Z</time></trkpt><trkpt lat="44.23077657482056" lon="10.650319378415194"><ele>721.4000000000001</ele><time>2026-05-02T12:49:24.972Z</time></trkpt><trkpt lat="44.2307435558867" lon="10.650456518316421"><ele>720.8000000000001</ele><time>2026-05-02T12:49:25.972Z</time></trkpt><trkpt lat="44.23071158209359" lon="10.650602528442473"><ele>720.2</ele><time>2026-05-02T12:49:26.972Z</time></trkpt><trkpt lat="44.23070167315814" lon="10.65074541891772"><ele>719.6</ele><time>2026-05-02T12:49:27.972Z</time></trkpt><trkpt lat="44.23069371931992" lon="10.6508766848213"><ele>719.0</ele><time>2026-05-02T12:49:28.972Z</time></trkpt><trkpt lat="44.23069499088453" lon="10.65100326561247"><ele>719.4000000000001</ele><time>2026-05-02T12:49:29.972Z</time></trkpt><trkpt lat="44.23070237919" lon="10.651127373648839"><ele>719.8</ele><time>2026-05-02T12:49:30.972Z</time></trkpt><trkpt lat="44.2307165922691" lon="10.651253345846596"><ele>720.2</ele><time>2026-05-02T12:49:31.973Z</time></trkpt><trkpt lat="44.230739372605335" lon="10.65138558905514"><ele>720.5999999999999</ele><time>2026-05-02T12:49:32.973Z</time></trkpt><trkpt lat="44.23076588891684" lon="10.651523913353142"><ele>721.0</ele><time>2026-05-02T12:49:33.973Z</time></trkpt><trkpt lat="44.23078686401537" lon="10.651666557149316"><ele>721.0</ele><time>2026-05-02T12:49:34.973Z</time></trkpt><trkpt lat="44.23080553641941" lon="10.651815431781952"><ele>721.0</ele><time>2026-05-02T12:49:35.973Z</time></trkpt><trkpt lat="44.23081381200709" lon="10.65197016634234"><ele>721.0</ele><time>2026-05-02T12:49:36.973Z</time></trkpt><trkpt lat="44.23085123452071" lon="10.6521244880296"><ele>721.0</ele><time>2026-05-02T12:49:37.973Z</time></trkpt><trkpt lat="44.23086212337312" lon="10.65227568879517"><ele>721.0</ele><time>2026-05-02T12:49:38.973Z</time></trkpt><trkpt lat="44.23088185386649" lon="10.652429332557158"><ele>721.1999999999999</ele><time>2026-05-02T12:49:39.973Z</time></trkpt><trkpt lat="44.23091046009797" lon="10.652594258236725"><ele>721.4</ele><time>2026-05-02T12:49:40.973Z</time></trkpt><trkpt lat="44.230938183571816" lon="10.652749344764745"><ele>721.6</ele><time>2026-05-02T12:49:41.973Z</time></trkpt><trkpt lat="44.23095793524884" lon="10.652887266833678"><ele>721.8</ele><time>2026-05-02T12:49:42.973Z</time></trkpt><trkpt lat="44.23095269720104" lon="10.653013966035493"><ele>722.0</ele><time>2026-05-02T12:49:43.973Z</time></trkpt><trkpt lat="44.230969108763155" lon="10.653117479276318"><ele>722.0</ele><time>2026-05-02T12:49:44.973Z</time></trkpt><trkpt lat="44.230930579830805" lon="10.653213771445767"><ele>722.0</ele><time>2026-05-02T12:49:45.973Z</time></trkpt><trkpt lat="44.23086929611973" lon="10.653297388402157"><ele>722.0</ele><time>2026-05-02T12:49:46.973Z</time></trkpt><trkpt lat="44.230788004141594" lon="10.653352867110069"><ele>722.0</ele><time>2026-05-02T12:49:47.973Z</time></trkpt><trkpt lat="44.230695766672405" lon="10.653402479872508"><ele>722.0</ele><time>2026-05-02T12:49:48.973Z</time></trkpt><trkpt lat="44.23061729610305" lon="10.65346548805357"><ele>722.0</ele><time>2026-05-02T12:49:49.973Z</time></trkpt><trkpt lat="44.230536529128834" lon="10.653556752787823"><ele>724.8</ele><time>2026-05-02T12:49:50.973Z</time></trkpt><trkpt lat="44.23046096977556" lon="10.653659586300149"><ele>727.6</ele><time>2026-05-02T12:49:51.973Z</time></trkpt><trkpt lat="44.23039680147174" lon="10.653773770955716"><ele>730.4</ele><time>2026-05-02T12:49:52.973Z</time></trkpt><trkpt lat="44.230346407400944" lon="10.653875634838453"><ele>733.1999999999999</ele><time>2026-05-02T12:49:53.973Z</time></trkpt><trkpt lat="44.230309824128184" lon="10.653972406765442"><ele>736.0</ele><time>2026-05-02T12:49:54.973Z</time></trkpt><trkpt lat="44.23028680629031" lon="10.654136303148727"><ele>736.0</ele><time>2026-05-02T12:49:56.973Z</time></trkpt><trkpt lat="44.230341184000764" lon="10.65427909145229"><ele>736.0</ele><time>2026-05-02T12:49:58.973Z</time></trkpt><trkpt lat="44.230403351507434" lon="10.654437748015736"><ele>736.0</ele><time>2026-05-02T12:50:00.973Z</time></trkpt><trkpt lat="44.230445039628464" lon="10.654634518908003"><ele>736.0</ele><time>2026-05-02T12:50:02.973Z</time></trkpt><trkpt lat="44.2304832367899" lon="10.65475521328899"><ele>736.1999999999999</ele><time>2026-05-02T12:50:03.972Z</time></trkpt><trkpt lat="44.23052888970654" lon="10.654889342783571"><ele>736.4</ele><time>2026-05-02T12:50:04.971Z</time></trkpt><trkpt lat="44.23056603163607" lon="10.655033930911879"><ele>736.6</ele><time>2026-05-02T12:50:05.971Z</time></trkpt><trkpt lat="44.23062057005856" lon="10.655177043293925"><ele>736.8</ele><time>2026-05-02T12:50:06.971Z</time></trkpt><trkpt lat="44.23068100397525" lon="10.655311305246938"><ele>737.0</ele><time>2026-05-02T12:50:07.971Z</time></trkpt><trkpt lat="44.230778476968176" lon="10.65541689363252"><ele>735.0</ele><time>2026-05-02T12:50:08.971Z</time></trkpt><trkpt lat="44.23089547618477" lon="10.65549170172291"><ele>733.0</ele><time>2026-05-02T12:50:09.972Z</time></trkpt><trkpt lat="44.23100577015928" lon="10.655543103092125"><ele>731.0</ele><time>2026-05-02T12:50:10.972Z</time></trkpt><trkpt lat="44.2311233564517" lon="10.655598947946476"><ele>729.0</ele><time>2026-05-02T12:50:11.972Z</time></trkpt><trkpt lat="44.231246851494554" lon="10.65566477505217"><ele>729.0</ele><time>2026-05-02T12:50:12.971Z</time></trkpt><trkpt lat="44.231365725110834" lon="10.655734577092902"><ele>729.0</ele><time>2026-05-02T12:50:13.971Z</time></trkpt><trkpt lat="44.231475625477856" lon="10.655821022262442"><ele>729.0</ele><time>2026-05-02T12:50:14.971Z</time></trkpt><trkpt lat="44.23158235128553" lon="10.65591001012071"><ele>729.0</ele><time>2026-05-02T12:50:15.972Z</time></trkpt><trkpt lat="44.23168550184858" lon="10.656005559752082"><ele>727.5</ele><time>2026-05-02T12:50:16.971Z</time></trkpt><trkpt lat="44.2317832767022" lon="10.656099407986492"><ele>726.0</ele><time>2026-05-02T12:50:17.971Z</time></trkpt><trkpt lat="44.23188120074867" lon="10.656197196676112"><ele>724.5</ele><time>2026-05-02T12:50:18.971Z</time></trkpt><trkpt lat="44.231975910878795" lon="10.656250711339704"><ele>723.0</ele><time>2026-05-02T12:50:19.971Z</time></trkpt><trkpt lat="44.232103825389075" lon="10.656243908984033"><ele>724.0</ele><time>2026-05-02T12:50:20.971Z</time></trkpt><trkpt lat="44.23222979241839" lon="10.656194698098655"><ele>725.0</ele><time>2026-05-02T12:50:21.971Z</time></trkpt><trkpt lat="44.23234512796615" lon="10.656104394825075"><ele>726.0</ele><time>2026-05-02T12:50:22.971Z</time></trkpt><trkpt lat="44.23243293468751" lon="10.655965777366411"><ele>727.0</ele><time>2026-05-02T12:50:23.971Z</time></trkpt><trkpt lat="44.23249835890463" lon="10.655802116414215"><ele>727.0</ele><time>2026-05-02T12:50:24.971Z</time></trkpt><trkpt lat="44.23256374054282" lon="10.655652832053793"><ele>727.0</ele><time>2026-05-02T12:50:25.972Z</time></trkpt><trkpt lat="44.23267275052766" lon="10.65553485837244"><ele>727.0</ele><time>2026-05-02T12:50:26.972Z</time></trkpt><trkpt lat="44.23280395619187" lon="10.655460808446865"><ele>727.0</ele><time>2026-05-02T12:50:27.972Z</time></trkpt><trkpt lat="44.232945230551664" lon="10.655438422970494"><ele>727.0</ele><time>2026-05-02T12:50:28.972Z</time></trkpt><trkpt lat="44.233073293077524" lon="10.65539701609867"><ele>727.0</ele><time>2026-05-02T12:50:29.972Z</time></trkpt><trkpt lat="44.23321041730327" lon="10.655385569388669"><ele>727.0</ele><time>2026-05-02T12:50:30.972Z</time></trkpt><trkpt lat="44.23334680015655" lon="10.655345243067396"><ele>727.0</ele><time>2026-05-02T12:50:31.972Z</time></trkpt><trkpt lat="44.233487154423436" lon="10.655311621902863"><ele>724.0</ele><time>2026-05-02T12:50:32.972Z</time></trkpt><trkpt lat="44.23363302907619" lon="10.655282408903352"><ele>721.0</ele><time>2026-05-02T12:50:33.972Z</time></trkpt><trkpt lat="44.23377941147302" lon="10.655220728547196"><ele>718.0</ele><time>2026-05-02T12:50:34.972Z</time></trkpt><trkpt lat="44.233920926012644" lon="10.655152390276855"><ele>718.6666666666667</ele><time>2026-05-02T12:50:35.972Z</time></trkpt><trkpt lat="44.234045467067226" lon="10.655013254357167"><ele>719.3333333333334</ele><time>2026-05-02T12:50:36.972Z</time></trkpt><trkpt lat="44.234169697288635" lon="10.654889723358169"><ele>720.0</ele><time>2026-05-02T12:50:37.972Z</time></trkpt><trkpt lat="44.2342937661631" lon="10.654759896093504"><ele>720.0</ele><time>2026-05-02T12:50:38.972Z</time></trkpt><trkpt lat="44.234405750474345" lon="10.654641602200247"><ele>720.0</ele><time>2026-05-02T12:50:39.972Z</time></trkpt><trkpt lat="44.23450057374098" lon="10.654549183331332"><ele>720.0</ele><time>2026-05-02T12:50:40.972Z</time></trkpt><trkpt lat="44.2346086930549" lon="10.654473137431342"><ele>720.0</ele><time>2026-05-02T12:50:41.972Z</time></trkpt><trkpt lat="44.23469439205885" lon="10.654411470951732"><ele>717.6</ele><time>2026-05-02T12:50:42.972Z</time></trkpt><trkpt lat="44.23476740270885" lon="10.654347495603892"><ele>715.2</ele><time>2026-05-02T12:50:43.972Z</time></trkpt><trkpt lat="44.23484342385097" lon="10.654286508444159"><ele>712.8</ele><time>2026-05-02T12:50:44.972Z</time></trkpt><trkpt lat="44.23491456444284" lon="10.654218892909439"><ele>710.4</ele><time>2026-05-02T12:50:45.972Z</time></trkpt><trkpt lat="44.23499853736437" lon="10.65413518414902"><ele>708.0</ele><time>2026-05-02T12:50:46.972Z</time></trkpt><trkpt lat="44.2350739164346" lon="10.654074979728717"><ele>708.0</ele><time>2026-05-02T12:50:47.972Z</time></trkpt><trkpt lat="44.235135982047275" lon="10.65402973045467"><ele>708.0</ele><time>2026-05-02T12:50:49.972Z</time></trkpt><trkpt lat="44.23500042823671" lon="10.65408310278369"><ele>708.0</ele><time>2026-05-02T12:50:52.972Z</time></trkpt><trkpt lat="44.23489801315495" lon="10.65411705132854"><ele>708.0</ele><time>2026-05-02T12:50:53.972Z</time></trkpt><trkpt lat="44.23564260701102" lon="10.653892749692567"><ele>714.0</ele><time>2026-05-02T12:50:54.972Z</time></trkpt><trkpt lat="44.23571993678042" lon="10.653902841414306"><ele>714.0</ele><time>2026-05-02T12:50:56.972Z</time></trkpt><trkpt lat="44.235789841779656" lon="10.653923218254135"><ele>714.0</ele><time>2026-05-02T12:50:59.972Z</time></trkpt></trkseg><trkseg><trkpt lat="44.23598935703998" lon="10.653837884749043"><ele>714.0</ele><time>2026-05-02T13:10:03.966Z</time></trkpt><trkpt lat="44.23605232619488" lon="10.65376960060167"><ele>714.0</ele><time>2026-05-02T13:10:35.966Z</time></trkpt><trkpt lat="44.236114325241616" lon="10.653741904348255"><ele>714.0</ele><time>2026-05-02T13:10:37.966Z</time></trkpt><trkpt lat="44.236229327403485" lon="10.653675568201248"><ele>714.0</ele><time>2026-05-02T13:10:39.966Z</time></trkpt><trkpt lat="44.23633631002821" lon="10.653621236992679"><ele>714.0</ele><time>2026-05-02T13:10:41.966Z</time></trkpt><trkpt lat="44.23641040537843" lon="10.653632280572282"><ele>709.8333333333334</ele><time>2026-05-02T13:10:42.966Z</time></trkpt><trkpt lat="44.23648377600841" lon="10.653594240059698"><ele>705.6666666666666</ele><time>2026-05-02T13:10:43.966Z</time></trkpt><trkpt lat="44.23655704412822" lon="10.653558876105606"><ele>701.5</ele><time>2026-05-02T13:10:44.966Z</time></trkpt><trkpt lat="44.23663699486283" lon="10.65352414337227"><ele>697.3333333333333</ele><time>2026-05-02T13:10:45.966Z</time></trkpt><trkpt lat="44.236717881794696" lon="10.653493697697108"><ele>693.1666666666666</ele><time>2026-05-02T13:10:46.966Z</time></trkpt><trkpt lat="44.236800314832756" lon="10.653468206016889"><ele>689.0</ele><time>2026-05-02T13:10:47.966Z</time></trkpt><trkpt lat="44.23688354472339" lon="10.65344848571091"><ele>689.0</ele><time>2026-05-02T13:10:48.966Z</time></trkpt><trkpt lat="44.23697331643744" lon="10.653431495051668"><ele>689.0</ele><time>2026-05-02T13:10:49.966Z</time></trkpt><trkpt lat="44.23707374168251" lon="10.653420164750257"><ele>689.0</ele><time>2026-05-02T13:10:50.966Z</time></trkpt><trkpt lat="44.23716510557643" lon="10.653416353715052"><ele>689.0</ele><time>2026-05-02T13:10:51.966Z</time></trkpt><trkpt lat="44.237261821441905" lon="10.65341859926096"><ele>689.0</ele><time>2026-05-02T13:10:52.966Z</time></trkpt><trkpt lat="44.237354091728804" lon="10.653434498309686"><ele>688.2</ele><time>2026-05-02T13:10:53.966Z</time></trkpt><trkpt lat="44.23744859847553" lon="10.653469143159416"><ele>687.4000000000001</ele><time>2026-05-02T13:10:54.966Z</time></trkpt><trkpt lat="44.23754315833245" lon="10.653506942995783"><ele>686.6</ele><time>2026-05-02T13:10:55.966Z</time></trkpt><trkpt lat="44.237628476378646" lon="10.653613800232351"><ele>685.8</ele><time>2026-05-02T13:10:56.966Z</time></trkpt><trkpt lat="44.237710759352396" lon="10.653726270346208"><ele>685.0</ele><time>2026-05-02T13:10:57.966Z</time></trkpt><trkpt lat="44.23777161820973" lon="10.653854233991373"><ele>693.25</ele><time>2026-05-02T13:10:58.966Z</time></trkpt><trkpt lat="44.23781229661014" lon="10.65399826210058"><ele>701.5</ele><time>2026-05-02T13:10:59.966Z</time></trkpt><trkpt lat="44.237817790265616" lon="10.654163766014305"><ele>709.75</ele><time>2026-05-02T13:11:00.966Z</time></trkpt><trkpt lat="44.23780894487745" lon="10.654325787583785"><ele>718.0</ele><time>2026-05-02T13:11:01.966Z</time></trkpt><trkpt lat="44.23779290893417" lon="10.654494627453895"><ele>720.2</ele><time>2026-05-02T13:11:02.966Z</time></trkpt><trkpt lat="44.237794017573194" lon="10.654644623129652"><ele>722.4</ele><time>2026-05-02T13:11:03.964Z</time></trkpt><trkpt lat="44.23780709305211" lon="10.654791583839915"><ele>724.6</ele><time>2026-05-02T13:11:04.963Z</time></trkpt><trkpt lat="44.23783270800572" lon="10.654942584361619"><ele>726.8000000000001</ele><time>2026-05-02T13:11:05.963Z</time></trkpt><trkpt lat="44.23787501157672" lon="10.65507556446078"><ele>729.0</ele><time>2026-05-02T13:11:06.963Z</time></trkpt><trkpt lat="44.23795428405294" lon="10.655193941138837"><ele>730.5</ele><time>2026-05-02T13:11:07.963Z</time></trkpt><trkpt lat="44.23804351820316" lon="10.65531906034448"><ele>732.0</ele><time>2026-05-02T13:11:08.963Z</time></trkpt><trkpt lat="44.238139835631614" lon="10.655405829117822"><ele>733.5</ele><time>2026-05-02T13:11:09.963Z</time></trkpt><trkpt lat="44.23825330740049" lon="10.655459648460715"><ele>735.0</ele><time>2026-05-02T13:11:10.963Z</time></trkpt><trkpt lat="44.238360131479105" lon="10.655511104701276"><ele>726.75</ele><time>2026-05-02T13:11:11.963Z</time></trkpt><trkpt lat="44.23848526915594" lon="10.65554640591204"><ele>718.5</ele><time>2026-05-02T13:11:12.964Z</time></trkpt><trkpt lat="44.23861611633367" lon="10.655554360881569"><ele>710.25</ele><time>2026-05-02T13:11:13.963Z</time></trkpt><trkpt lat="44.23872923013974" lon="10.655558596473295"><ele>702.0</ele><time>2026-05-02T13:11:14.963Z</time></trkpt><trkpt lat="44.238847386586436" lon="10.655545558950427"><ele>701.5</ele><time>2026-05-02T13:11:15.963Z</time></trkpt><trkpt lat="44.23898954647934" lon="10.655556549306949"><ele>701.0</ele><time>2026-05-02T13:11:16.963Z</time></trkpt><trkpt lat="44.23911555305297" lon="10.65553389720902"><ele>700.5</ele><time>2026-05-02T13:11:17.963Z</time></trkpt><trkpt lat="44.23925198039032" lon="10.655515933228696"><ele>700.0</ele><time>2026-05-02T13:11:18.963Z</time></trkpt><trkpt lat="44.23938120773128" lon="10.65550928432005"><ele>700.0</ele><time>2026-05-02T13:11:19.963Z</time></trkpt><trkpt lat="44.23951862986367" lon="10.6555190289293"><ele>700.0</ele><time>2026-05-02T13:11:20.963Z</time></trkpt><trkpt lat="44.239665730685964" lon="10.655548197563322"><ele>700.0</ele><time>2026-05-02T13:11:21.963Z</time></trkpt><trkpt lat="44.23981213473389" lon="10.65559515077493"><ele>700.0</ele><time>2026-05-02T13:11:22.963Z</time></trkpt><trkpt lat="44.23996254682346" lon="10.655636289838242"><ele>698.6666666666667</ele><time>2026-05-02T13:11:23.963Z</time></trkpt><trkpt lat="44.240108417711774" lon="10.65569217462316"><ele>697.3333333333334</ele><time>2026-05-02T13:11:24.963Z</time></trkpt><trkpt lat="44.24025901855121" lon="10.655753386442678"><ele>696.0</ele><time>2026-05-02T13:11:25.963Z</time></trkpt><trkpt lat="44.240412459495786" lon="10.655815563592817"><ele>696.0</ele><time>2026-05-02T13:11:26.963Z</time></trkpt><trkpt lat="44.24056620337801" lon="10.6558683944003"><ele>696.0</ele><time>2026-05-02T13:11:27.963Z</time></trkpt><trkpt lat="44.24072159670009" lon="10.655930131978522"><ele>696.0</ele><time>2026-05-02T13:11:28.963Z</time></trkpt><trkpt lat="44.24087553340287" lon="10.655997373506105"><ele>693.3333333333334</ele><time>2026-05-02T13:11:29.963Z</time></trkpt><trkpt lat="44.24103488381311" lon="10.656062449759684"><ele>690.6666666666667</ele><time>2026-05-02T13:11:30.963Z</time></trkpt><trkpt lat="44.241187273628015" lon="10.656144222200403"><ele>688.0</ele><time>2026-05-02T13:11:31.963Z</time></trkpt><trkpt lat="44.24132566432622" lon="10.656240740956903"><ele>690.3333333333334</ele><time>2026-05-02T13:11:32.963Z</time></trkpt><trkpt lat="44.24145634418877" lon="10.656362019865629"><ele>692.6666666666666</ele><time>2026-05-02T13:11:33.963Z</time></trkpt><trkpt lat="44.24160035010084" lon="10.656465628356091"><ele>695.0</ele><time>2026-05-02T13:11:34.963Z</time></trkpt><trkpt lat="44.24174705261378" lon="10.65655323966468"><ele>695.0</ele><time>2026-05-02T13:11:35.963Z</time></trkpt><trkpt lat="44.24189126686232" lon="10.656637625662617"><ele>695.0</ele><time>2026-05-02T13:11:36.963Z</time></trkpt><trkpt lat="44.24203599009131" lon="10.656709934446003"><ele>695.0</ele><time>2026-05-02T13:11:37.963Z</time></trkpt><trkpt lat="44.24218305283298" lon="10.656765261217748"><ele>688.3333333333333</ele><time>2026-05-02T13:11:38.963Z</time></trkpt><trkpt lat="44.24232896188138" lon="10.656811707698992"><ele>681.6666666666666</ele><time>2026-05-02T13:11:39.963Z</time></trkpt><trkpt lat="44.24247679033507" lon="10.65685580964237"><ele>675.0</ele><time>2026-05-02T13:11:40.963Z</time></trkpt><trkpt lat="44.24262654239845" lon="10.656889939366026"><ele>675.0</ele><time>2026-05-02T13:11:41.963Z</time></trkpt><trkpt lat="44.24277294598508" lon="10.656929154611149"><ele>675.0</ele><time>2026-05-02T13:11:42.963Z</time></trkpt><trkpt lat="44.24291481468348" lon="10.656962476612101"><ele>675.0</ele><time>2026-05-02T13:11:43.963Z</time></trkpt><trkpt lat="44.24305870073644" lon="10.657000699709485"><ele>675.0</ele><time>2026-05-02T13:11:44.963Z</time></trkpt><trkpt lat="44.24319805777767" lon="10.657046945352185"><ele>678.0</ele><time>2026-05-02T13:11:45.963Z</time></trkpt><trkpt lat="44.243325765007754" lon="10.657126467697346"><ele>681.0</ele><time>2026-05-02T13:11:46.963Z</time></trkpt><trkpt lat="44.243426189185655" lon="10.657224935895751"><ele>684.0</ele><time>2026-05-02T13:11:47.963Z</time></trkpt><trkpt lat="44.243513586221084" lon="10.65736048465277"><ele>687.0</ele><time>2026-05-02T13:11:48.963Z</time></trkpt><trkpt lat="44.24360259931202" lon="10.657495583421104"><ele>687.0</ele><time>2026-05-02T13:11:49.963Z</time></trkpt><trkpt lat="44.243696171173696" lon="10.657636405227514"><ele>687.0</ele><time>2026-05-02T13:11:50.963Z</time></trkpt><trkpt lat="44.24377062245318" lon="10.657793545989806"><ele>687.0</ele><time>2026-05-02T13:11:51.963Z</time></trkpt><trkpt lat="44.243823973377665" lon="10.657961301809497"><ele>687.0</ele><time>2026-05-02T13:11:52.963Z</time></trkpt><trkpt lat="44.24385372831365" lon="10.658143491431703"><ele>693.25</ele><time>2026-05-02T13:11:53.963Z</time></trkpt><trkpt lat="44.243879862840366" lon="10.658322042121467"><ele>699.5</ele><time>2026-05-02T13:11:54.963Z</time></trkpt><trkpt lat="44.24387556844922" lon="10.658512422986758"><ele>705.75</ele><time>2026-05-02T13:11:55.963Z</time></trkpt><trkpt lat="44.243889196503524" lon="10.658680969068634"><ele>712.0</ele><time>2026-05-02T13:11:56.963Z</time></trkpt><trkpt lat="44.243908664018015" lon="10.658865088929046"><ele>712.0</ele><time>2026-05-02T13:11:57.963Z</time></trkpt><trkpt lat="44.24391328959751" lon="10.659047538208064"><ele>712.0</ele><time>2026-05-02T13:11:58.963Z</time></trkpt><trkpt lat="44.243912448914585" lon="10.659227577946377"><ele>712.0</ele><time>2026-05-02T13:11:59.963Z</time></trkpt><trkpt lat="44.243896530240264" lon="10.659399492383567"><ele>712.0</ele><time>2026-05-02T13:12:00.963Z</time></trkpt><trkpt lat="44.24388237167223" lon="10.659567582093434"><ele>712.0</ele><time>2026-05-02T13:12:01.963Z</time></trkpt><trkpt lat="44.24387108872074" lon="10.659717544664618"><ele>712.0</ele><time>2026-05-02T13:12:02.963Z</time></trkpt><trkpt lat="44.24385440882239" lon="10.65984376752514"><ele>712.0</ele><time>2026-05-02T13:12:03.963Z</time></trkpt><trkpt lat="44.243829947472825" lon="10.65995201874072"><ele>712.0</ele><time>2026-05-02T13:12:04.963Z</time></trkpt><trkpt lat="44.243801620320134" lon="10.660066891826025"><ele>712.0</ele><time>2026-05-02T13:12:05.963Z</time></trkpt><trkpt lat="44.243755046518835" lon="10.660167597273855"><ele>712.0</ele><time>2026-05-02T13:12:06.963Z</time></trkpt><trkpt lat="44.243711305889235" lon="10.660271988395019"><ele>712.0</ele><time>2026-05-02T13:12:07.963Z</time></trkpt><trkpt lat="44.24367408212967" lon="10.66037857582437"><ele>712.0</ele><time>2026-05-02T13:12:08.964Z</time></trkpt><trkpt lat="44.24363206962382" lon="10.660484697309105"><ele>712.0</ele><time>2026-05-02T13:12:09.964Z</time></trkpt><trkpt lat="44.24359469839568" lon="10.660596091597084"><ele>712.0</ele><time>2026-05-02T13:12:10.964Z</time></trkpt><trkpt lat="44.24355383329986" lon="10.66071079315708"><ele>712.0</ele><time>2026-05-02T13:12:11.964Z</time></trkpt><trkpt lat="44.243517444208045" lon="10.660836355980875"><ele>709.4000000000001</ele><time>2026-05-02T13:12:12.964Z</time></trkpt><trkpt lat="44.24348232744306" lon="10.660965508907225"><ele>706.8000000000001</ele><time>2026-05-02T13:12:13.964Z</time></trkpt><trkpt lat="44.243459724374574" lon="10.661105870039236"><ele>704.2</ele><time>2026-05-02T13:12:14.964Z</time></trkpt><trkpt lat="44.24345428699336" lon="10.661248962354984"><ele>701.6</ele><time>2026-05-02T13:12:15.964Z</time></trkpt><trkpt lat="44.24346090807772" lon="10.661407169404063"><ele>699.0</ele><time>2026-05-02T13:12:16.964Z</time></trkpt><trkpt lat="44.24346541173603" lon="10.661568372157275"><ele>696.4000000000001</ele><time>2026-05-02T13:12:17.964Z</time></trkpt><trkpt lat="44.243469535824985" lon="10.661727544087976"><ele>693.8</ele><time>2026-05-02T13:12:18.964Z</time></trkpt><trkpt lat="44.24346499040578" lon="10.661882608211652"><ele>691.2</ele><time>2026-05-02T13:12:19.964Z</time></trkpt><trkpt lat="44.24346034433461" lon="10.662042930355868"><ele>688.5999999999999</ele><time>2026-05-02T13:12:20.964Z</time></trkpt><trkpt lat="44.243459437392545" lon="10.662194987970633"><ele>686.0</ele><time>2026-05-02T13:12:21.964Z</time></trkpt><trkpt lat="44.24347884174692" lon="10.66235592563341"><ele>684.75</ele><time>2026-05-02T13:12:22.964Z</time></trkpt><trkpt lat="44.24350070769507" lon="10.662521873588924"><ele>683.5</ele><time>2026-05-02T13:12:23.964Z</time></trkpt><trkpt lat="44.2435013133608" lon="10.662671910937355"><ele>682.25</ele><time>2026-05-02T13:12:24.964Z</time></trkpt><trkpt lat="44.24348544180342" lon="10.662834721580246"><ele>681.0</ele><time>2026-05-02T13:12:25.964Z</time></trkpt><trkpt lat="44.243454368781244" lon="10.662999008020774"><ele>679.5</ele><time>2026-05-02T13:12:26.964Z</time></trkpt><trkpt lat="44.243431679677684" lon="10.663166869094214"><ele>678.0</ele><time>2026-05-02T13:12:27.964Z</time></trkpt><trkpt lat="44.24340337804723" lon="10.663337846365755"><ele>676.5</ele><time>2026-05-02T13:12:28.964Z</time></trkpt><trkpt lat="44.24337026849879" lon="10.663507607503602"><ele>675.0</ele><time>2026-05-02T13:12:29.964Z</time></trkpt><trkpt lat="44.24333130188322" lon="10.663674463114056"><ele>673.25</ele><time>2026-05-02T13:12:30.964Z</time></trkpt><trkpt lat="44.243295843806955" lon="10.663850403616607"><ele>671.5</ele><time>2026-05-02T13:12:31.964Z</time></trkpt><trkpt lat="44.24326976612864" lon="10.664030342135483"><ele>669.75</ele><time>2026-05-02T13:12:32.964Z</time></trkpt><trkpt lat="44.24324615581698" lon="10.664206977370924"><ele>668.0</ele><time>2026-05-02T13:12:33.964Z</time></trkpt><trkpt lat="44.24323344920595" lon="10.664376614774234"><ele>669.75</ele><time>2026-05-02T13:12:34.964Z</time></trkpt><trkpt lat="44.24323521084623" lon="10.664546621971816"><ele>671.5</ele><time>2026-05-02T13:12:35.964Z</time></trkpt><trkpt lat="44.24324549811984" lon="10.664712696153645"><ele>673.25</ele><time>2026-05-02T13:12:36.964Z</time></trkpt><trkpt lat="44.24326411235855" lon="10.664877857392737"><ele>675.0</ele><time>2026-05-02T13:12:37.964Z</time></trkpt><trkpt lat="44.24329976011852" lon="10.665036137948515"><ele>675.0</ele><time>2026-05-02T13:12:38.964Z</time></trkpt><trkpt lat="44.24334267517401" lon="10.66520710791851"><ele>675.0</ele><time>2026-05-02T13:12:39.964Z</time></trkpt><trkpt lat="44.243386103946975" lon="10.66537009558607"><ele>675.0</ele><time>2026-05-02T13:12:40.964Z</time></trkpt><trkpt lat="44.2434318796606" lon="10.665543334856316"><ele>675.0</ele><time>2026-05-02T13:12:41.964Z</time></trkpt><trkpt lat="44.24347825644205" lon="10.66570607626328"><ele>677.75</ele><time>2026-05-02T13:12:42.964Z</time></trkpt><trkpt lat="44.24353044524423" lon="10.665878800491653"><ele>680.5</ele><time>2026-05-02T13:12:43.964Z</time></trkpt><trkpt lat="44.24356699062561" lon="10.666055872863595"><ele>683.25</ele><time>2026-05-02T13:12:44.964Z</time></trkpt><trkpt lat="44.24360947250653" lon="10.66621941405927"><ele>686.0</ele><time>2026-05-02T13:12:45.964Z</time></trkpt><trkpt lat="44.24362703525972" lon="10.66639144451719"><ele>687.4</ele><time>2026-05-02T13:12:46.964Z</time></trkpt><trkpt lat="44.24362000602955" lon="10.666557836893295"><ele>688.8</ele><time>2026-05-02T13:12:47.964Z</time></trkpt><trkpt lat="44.24359044213271" lon="10.666716650054298"><ele>690.1999999999999</ele><time>2026-05-02T13:12:48.964Z</time></trkpt><trkpt lat="44.24357654723684" lon="10.666844458487871"><ele>691.5999999999999</ele><time>2026-05-02T13:12:49.964Z</time></trkpt><trkpt lat="44.24357513447593" lon="10.666978054956223"><ele>693.0</ele><time>2026-05-02T13:12:50.964Z</time></trkpt><trkpt lat="44.24360363598356" lon="10.667100342889666"><ele>693.0</ele><time>2026-05-02T13:12:51.964Z</time></trkpt><trkpt lat="44.24366057698283" lon="10.667227731304179"><ele>693.0</ele><time>2026-05-02T13:12:52.964Z</time></trkpt><trkpt lat="44.24371135668116" lon="10.667371486226687"><ele>693.0</ele><time>2026-05-02T13:12:53.964Z</time></trkpt><trkpt lat="44.24373965355799" lon="10.667512271849914"><ele>693.0</ele><time>2026-05-02T13:12:54.964Z</time></trkpt><trkpt lat="44.24376822397565" lon="10.667660444156997"><ele>693.0</ele><time>2026-05-02T13:12:55.964Z</time></trkpt><trkpt lat="44.24378281557825" lon="10.66781914383084"><ele>697.0</ele><time>2026-05-02T13:12:56.964Z</time></trkpt><trkpt lat="44.243827372684216" lon="10.667986726218643"><ele>701.0</ele><time>2026-05-02T13:12:57.964Z</time></trkpt><trkpt lat="44.24387807017927" lon="10.668151061498456"><ele>705.0</ele><time>2026-05-02T13:12:58.964Z</time></trkpt><trkpt lat="44.243933153589666" lon="10.668309686398587"><ele>709.0</ele><time>2026-05-02T13:12:59.964Z</time></trkpt><trkpt lat="44.24397458980058" lon="10.66846852103136"><ele>702.0</ele><time>2026-05-02T13:13:00.964Z</time></trkpt><trkpt lat="44.24402357344733" lon="10.668620835535968"><ele>695.0</ele><time>2026-05-02T13:13:01.964Z</time></trkpt><trkpt lat="44.244088366035776" lon="10.668762708214041"><ele>688.0</ele><time>2026-05-02T13:13:02.964Z</time></trkpt><trkpt lat="44.244165743828155" lon="10.668890237196404"><ele>681.0</ele><time>2026-05-02T13:13:03.964Z</time></trkpt><trkpt lat="44.244254532693134" lon="10.66901035305357"><ele>681.0</ele><time>2026-05-02T13:13:04.964Z</time></trkpt><trkpt lat="44.24436273369039" lon="10.669088366537293"><ele>681.0</ele><time>2026-05-02T13:13:05.964Z</time></trkpt><trkpt lat="44.244482458174325" lon="10.669138096250647"><ele>681.0</ele><time>2026-05-02T13:13:06.964Z</time></trkpt><trkpt lat="44.244629186848094" lon="10.66916180177892"><ele>681.0</ele><time>2026-05-02T13:13:07.964Z</time></trkpt><trkpt lat="44.24478651787495" lon="10.669150315855276"><ele>674.75</ele><time>2026-05-02T13:13:08.964Z</time></trkpt><trkpt lat="44.244913560270994" lon="10.669134920336669"><ele>668.5</ele><time>2026-05-02T13:13:09.96Z</time></trkpt><trkpt lat="44.245058778069854" lon="10.669103077542553"><ele>662.25</ele><time>2026-05-02T13:13:10.96Z</time></trkpt><trkpt lat="44.245197229191696" lon="10.669119604050973"><ele>656.0</ele><time>2026-05-02T13:13:11.96Z</time></trkpt><trkpt lat="44.24532874184905" lon="10.66909094947208"><ele>656.0</ele><time>2026-05-02T13:13:12.961Z</time></trkpt><trkpt lat="44.24546361730745" lon="10.669041810367473"><ele>656.0</ele><time>2026-05-02T13:13:13.961Z</time></trkpt><trkpt lat="44.245592439078564" lon="10.668973552932663"><ele>656.0</ele><time>2026-05-02T13:13:14.961Z</time></trkpt><trkpt lat="44.24569338418862" lon="10.668918759403228"><ele>656.0</ele><time>2026-05-02T13:13:15.96Z</time></trkpt><trkpt lat="44.24579981102622" lon="10.668871594988333"><ele>655.1999999999999</ele><time>2026-05-02T13:13:16.96Z</time></trkpt><trkpt lat="44.24587753445454" lon="10.668831650662844"><ele>654.4</ele><time>2026-05-02T13:13:17.96Z</time></trkpt><trkpt lat="44.245972271374384" lon="10.668844751756003"><ele>653.6</ele><time>2026-05-02T13:13:18.96Z</time></trkpt><trkpt lat="44.246059322021" lon="10.668889020793612"><ele>652.8</ele><time>2026-05-02T13:13:19.96Z</time></trkpt><trkpt lat="44.246126935796134" lon="10.66898229672495"><ele>652.0</ele><time>2026-05-02T13:13:20.96Z</time></trkpt><trkpt lat="44.246179271822015" lon="10.669087469746936"><ele>652.0</ele><time>2026-05-02T13:13:21.96Z</time></trkpt><trkpt lat="44.2462285323341" lon="10.669199177393848"><ele>652.0</ele><time>2026-05-02T13:13:22.96Z</time></trkpt><trkpt lat="44.246280979118495" lon="10.669328362952758"><ele>652.0</ele><time>2026-05-02T13:13:23.96Z</time></trkpt><trkpt lat="44.24633939009857" lon="10.669448720838307"><ele>652.0</ele><time>2026-05-02T13:13:24.96Z</time></trkpt><trkpt lat="44.24639443402393" lon="10.669580946786711"><ele>652.0</ele><time>2026-05-02T13:13:25.96Z</time></trkpt><trkpt lat="44.24643749486308" lon="10.669725175600004"><ele>649.2</ele><time>2026-05-02T13:13:26.96Z</time></trkpt><trkpt lat="44.24646294020334" lon="10.669878344920757"><ele>646.4000000000001</ele><time>2026-05-02T13:13:27.96Z</time></trkpt><trkpt lat="44.2464642612212" lon="10.670028592491809"><ele>643.5999999999999</ele><time>2026-05-02T13:13:28.96Z</time></trkpt><trkpt lat="44.24644764979706" lon="10.670175799624596"><ele>640.8</ele><time>2026-05-02T13:13:29.96Z</time></trkpt><trkpt lat="44.246399054678704" lon="10.670308171454781"><ele>638.0</ele><time>2026-05-02T13:13:30.96Z</time></trkpt><trkpt lat="44.24632181241828" lon="10.670393807183912"><ele>644.5999999999999</ele><time>2026-05-02T13:13:31.96Z</time></trkpt><trkpt lat="44.24625460720225" lon="10.67049165238744"><ele>651.1999999999999</ele><time>2026-05-02T13:13:32.96Z</time></trkpt><trkpt lat="44.246187006386116" lon="10.670591823079056"><ele>657.8</ele><time>2026-05-02T13:13:33.96Z</time></trkpt><trkpt lat="44.24612125369451" lon="10.67069518565924"><ele>664.4</ele><time>2026-05-02T13:13:34.96Z</time></trkpt><trkpt lat="44.246058297032405" lon="10.670808051681664"><ele>671.0</ele><time>2026-05-02T13:13:35.961Z</time></trkpt><trkpt lat="44.246019377210686" lon="10.670949472394412"><ele>670.0</ele><time>2026-05-02T13:13:36.961Z</time></trkpt><trkpt lat="44.24602956534832" lon="10.671109544200682"><ele>669.0</ele><time>2026-05-02T13:13:37.961Z</time></trkpt><trkpt lat="44.2460452497426" lon="10.671246105835737"><ele>668.0</ele><time>2026-05-02T13:13:38.961Z</time></trkpt><trkpt lat="44.24606208994124" lon="10.671395008956406"><ele>667.0</ele><time>2026-05-02T13:13:39.961Z</time></trkpt><trkpt lat="44.24607331543387" lon="10.671553648401206"><ele>666.0</ele><time>2026-05-02T13:13:40.961Z</time></trkpt><trkpt lat="44.24606714888771" lon="10.67168959716969"><ele>666.0</ele><time>2026-05-02T13:13:41.961Z</time></trkpt><trkpt lat="44.246051981864376" lon="10.671857395116424"><ele>666.0</ele><time>2026-05-02T13:13:42.961Z</time></trkpt><trkpt lat="44.24600906653007" lon="10.672017484791525"><ele>666.0</ele><time>2026-05-02T13:13:43.961Z</time></trkpt><trkpt lat="44.24597261992655" lon="10.67218847205358"><ele>666.0</ele><time>2026-05-02T13:13:44.961Z</time></trkpt><trkpt lat="44.24594438499789" lon="10.672359869004417"><ele>663.75</ele><time>2026-05-02T13:13:45.961Z</time></trkpt><trkpt lat="44.245922933775546" lon="10.672547958736168"><ele>661.5</ele><time>2026-05-02T13:13:46.961Z</time></trkpt><trkpt lat="44.24591422230244" lon="10.672745482412001"><ele>659.25</ele><time>2026-05-02T13:13:47.961Z</time></trkpt><trkpt lat="44.245891195853254" lon="10.672935370549233"><ele>657.0</ele><time>2026-05-02T13:13:48.961Z</time></trkpt><trkpt lat="44.24585275593496" lon="10.673098943862753"><ele>655.1666666666666</ele><time>2026-05-02T13:13:49.961Z</time></trkpt><trkpt lat="44.24581881570923" lon="10.673233276319998"><ele>653.3333333333334</ele><time>2026-05-02T13:13:50.961Z</time></trkpt><trkpt lat="44.24579061560312" lon="10.673336227562805"><ele>651.5</ele><time>2026-05-02T13:13:51.961Z</time></trkpt><trkpt lat="44.24576138870411" lon="10.673447551637993"><ele>649.6666666666667</ele><time>2026-05-02T13:13:52.961Z</time></trkpt><trkpt lat="44.24571194485403" lon="10.673538792370973"><ele>647.8333333333334</ele><time>2026-05-02T13:13:53.961Z</time></trkpt><trkpt lat="44.245643417200945" lon="10.67362042726544"><ele>646.0</ele><time>2026-05-02T13:13:54.961Z</time></trkpt><trkpt lat="44.24557109023838" lon="10.673703929481869"><ele>646.0</ele><time>2026-05-02T13:13:55.961Z</time></trkpt><trkpt lat="44.245509305082116" lon="10.673794144146877"><ele>646.0</ele><time>2026-05-02T13:13:56.961Z</time></trkpt><trkpt lat="44.24544489928663" lon="10.673888671112632"><ele>646.0</ele><time>2026-05-02T13:13:57.961Z</time></trkpt><trkpt lat="44.24540441215402" lon="10.674005999792634"><ele>646.0</ele><time>2026-05-02T13:13:58.961Z</time></trkpt><trkpt lat="44.245392843028284" lon="10.674148225222657"><ele>646.0</ele><time>2026-05-02T13:13:59.961Z</time></trkpt><trkpt lat="44.24539404039496" lon="10.674303876113042"><ele>648.0</ele><time>2026-05-02T13:14:00.961Z</time></trkpt><trkpt lat="44.245403579001405" lon="10.674445964430397"><ele>650.0</ele><time>2026-05-02T13:14:01.961Z</time></trkpt><trkpt lat="44.245421705833664" lon="10.674583357966531"><ele>652.0</ele><time>2026-05-02T13:14:02.961Z</time></trkpt><trkpt lat="44.24547236231923" lon="10.674698508767223"><ele>654.0</ele><time>2026-05-02T13:14:03.961Z</time></trkpt><trkpt lat="44.24555310966299" lon="10.674778636453619"><ele>656.0</ele><time>2026-05-02T13:14:04.961Z</time></trkpt><trkpt lat="44.24563372209362" lon="10.674847757975723"><ele>657.5999999999999</ele><time>2026-05-02T13:14:05.961Z</time></trkpt><trkpt lat="44.24571257435303" lon="10.674929045657969"><ele>659.2</ele><time>2026-05-02T13:14:06.961Z</time></trkpt><trkpt lat="44.2457970526624" lon="10.675020139588417"><ele>660.8</ele><time>2026-05-02T13:14:07.961Z</time></trkpt><trkpt lat="44.24587359278703" lon="10.675117136320459"><ele>662.4000000000001</ele><time>2026-05-02T13:14:08.961Z</time></trkpt><trkpt lat="44.24594450774331" lon="10.675243582787159"><ele>664.0</ele><time>2026-05-02T13:14:09.961Z</time></trkpt><trkpt lat="44.2460042328002" lon="10.675372290160276"><ele>664.0</ele><time>2026-05-02T13:14:10.961Z</time></trkpt><trkpt lat="44.24607226053333" lon="10.675504912562674"><ele>664.0</ele><time>2026-05-02T13:14:11.961Z</time></trkpt><trkpt lat="44.246130122699" lon="10.675637351575574"><ele>664.0</ele><time>2026-05-02T13:14:12.961Z</time></trkpt><trkpt lat="44.2461741256028" lon="10.675778229375794"><ele>664.0</ele><time>2026-05-02T13:14:13.961Z</time></trkpt><trkpt lat="44.24621203031567" lon="10.675923649392022"><ele>664.0</ele><time>2026-05-02T13:14:14.961Z</time></trkpt><trkpt lat="44.246257611611156" lon="10.67607440304231"><ele>671.5</ele><time>2026-05-02T13:14:15.961Z</time></trkpt><trkpt lat="44.24628368528992" lon="10.676242197316531"><ele>679.0</ele><time>2026-05-02T13:14:16.961Z</time></trkpt><trkpt lat="44.246304999510734" lon="10.676408465196081"><ele>686.5</ele><time>2026-05-02T13:14:17.961Z</time></trkpt><trkpt lat="44.246334027888466" lon="10.67657901554166"><ele>694.0</ele><time>2026-05-02T13:14:18.961Z</time></trkpt><trkpt lat="44.24637896617946" lon="10.676728419842858"><ele>694.0</ele><time>2026-05-02T13:14:19.961Z</time></trkpt><trkpt lat="44.24644213528051" lon="10.676875998102293"><ele>694.0</ele><time>2026-05-02T13:14:20.961Z</time></trkpt><trkpt lat="44.24652698967631" lon="10.677016956890231"><ele>694.0</ele><time>2026-05-02T13:14:21.961Z</time></trkpt><trkpt lat="44.24660901556436" lon="10.677144369128275"><ele>694.0</ele><time>2026-05-02T13:14:22.961Z</time></trkpt><trkpt lat="44.24668732168034" lon="10.677281726056504"><ele>683.6</ele><time>2026-05-02T13:14:23.961Z</time></trkpt><trkpt lat="44.24676040808106" lon="10.677416695990134"><ele>673.2</ele><time>2026-05-02T13:14:24.961Z</time></trkpt><trkpt lat="44.24681172588863" lon="10.677556153352215"><ele>662.8000000000001</ele><time>2026-05-02T13:14:25.961Z</time></trkpt><trkpt lat="44.24685934490401" lon="10.677691324353903"><ele>652.4000000000001</ele><time>2026-05-02T13:14:26.961Z</time></trkpt><trkpt lat="44.246877697084685" lon="10.677823940631017"><ele>642.0</ele><time>2026-05-02T13:14:27.961Z</time></trkpt><trkpt lat="44.246862010449306" lon="10.677944038260375"><ele>640.5</ele><time>2026-05-02T13:14:28.961Z</time></trkpt><trkpt lat="44.24681671233064" lon="10.678052904175514"><ele>639.0</ele><time>2026-05-02T13:14:29.961Z</time></trkpt><trkpt lat="44.2467472116759" lon="10.678120778891389"><ele>637.5</ele><time>2026-05-02T13:14:30.961Z</time></trkpt><trkpt lat="44.246665329179386" lon="10.678175467856875"><ele>636.0</ele><time>2026-05-02T13:14:31.961Z</time></trkpt><trkpt lat="44.24658593687095" lon="10.678219137944385"><ele>634.5</ele><time>2026-05-02T13:14:32.961Z</time></trkpt><trkpt lat="44.24650041560728" lon="10.678275607964576"><ele>633.0</ele><time>2026-05-02T13:14:33.961Z</time></trkpt><trkpt lat="44.246410044314636" lon="10.678346343460698"><ele>636.25</ele><time>2026-05-02T13:14:34.961Z</time></trkpt><trkpt lat="44.2463134778788" lon="10.678423635169068"><ele>639.5</ele><time>2026-05-02T13:14:35.961Z</time></trkpt><trkpt lat="44.24622120765325" lon="10.678508574763029"><ele>642.75</ele><time>2026-05-02T13:14:36.961Z</time></trkpt><trkpt lat="44.246132087624865" lon="10.678608284011187"><ele>646.0</ele><time>2026-05-02T13:14:37.961Z</time></trkpt><trkpt lat="44.24604016273371" lon="10.678723279074756"><ele>646.0</ele><time>2026-05-02T13:14:38.961Z</time></trkpt><trkpt lat="44.24595050204901" lon="10.678846878964125"><ele>646.0</ele><time>2026-05-02T13:14:39.961Z</time></trkpt><trkpt lat="44.24586871838748" lon="10.67896912985471"><ele>646.0</ele><time>2026-05-02T13:14:40.961Z</time></trkpt><trkpt lat="44.24578778538173" lon="10.679079540533708"><ele>646.0</ele><time>2026-05-02T13:14:41.961Z</time></trkpt><trkpt lat="44.24571432117557" lon="10.679189646580141"><ele>646.0</ele><time>2026-05-02T13:14:42.962Z</time></trkpt><trkpt lat="44.245646739624576" lon="10.679301929434473"><ele>646.0</ele><time>2026-05-02T13:14:43.962Z</time></trkpt><trkpt lat="44.24559283017967" lon="10.67940968081706"><ele>646.0</ele><time>2026-05-02T13:14:44.962Z</time></trkpt><trkpt lat="44.245555382048984" lon="10.679518195782364"><ele>646.0</ele><time>2026-05-02T13:14:45.962Z</time></trkpt><trkpt lat="44.24553200337253" lon="10.679639859721332"><ele>646.0</ele><time>2026-05-02T13:14:46.962Z</time></trkpt><trkpt lat="44.24551406011704" lon="10.679750612733155"><ele>655.0</ele><time>2026-05-02T13:14:47.962Z</time></trkpt><trkpt lat="44.24550424626162" lon="10.679893735793328"><ele>664.0</ele><time>2026-05-02T13:14:48.962Z</time></trkpt><trkpt lat="44.24549117148107" lon="10.680045755144146"><ele>673.0</ele><time>2026-05-02T13:14:49.962Z</time></trkpt><trkpt lat="44.24547563319692" lon="10.680209650104702"><ele>682.0</ele><time>2026-05-02T13:14:50.962Z</time></trkpt><trkpt lat="44.245460028533365" lon="10.680353710525742"><ele>691.0</ele><time>2026-05-02T13:14:51.962Z</time></trkpt><trkpt lat="44.24545603588069" lon="10.680503530100008"><ele>691.5</ele><time>2026-05-02T13:14:52.962Z</time></trkpt><trkpt lat="44.24546997944191" lon="10.68065425298449"><ele>692.0</ele><time>2026-05-02T13:14:53.962Z</time></trkpt><trkpt lat="44.245510057446396" lon="10.680816528945382"><ele>692.5</ele><time>2026-05-02T13:14:54.962Z</time></trkpt><trkpt lat="44.24556479744658" lon="10.680970288118345"><ele>693.0</ele><time>2026-05-02T13:14:55.962Z</time></trkpt><trkpt lat="44.245637028379946" lon="10.68112274964845"><ele>682.5</ele><time>2026-05-02T13:14:56.962Z</time></trkpt><trkpt lat="44.24571898726384" lon="10.681242084516729"><ele>672.0</ele><time>2026-05-02T13:14:57.962Z</time></trkpt><trkpt lat="44.245810934082044" lon="10.681357571645362"><ele>661.5</ele><time>2026-05-02T13:14:58.962Z</time></trkpt><trkpt lat="44.24589722609483" lon="10.681469919685165"><ele>651.0</ele><time>2026-05-02T13:14:59.962Z</time></trkpt><trkpt lat="44.24598067387781" lon="10.681579064207542"><ele>651.0</ele><time>2026-05-02T13:15:00.962Z</time></trkpt><trkpt lat="44.246068957750886" lon="10.6816797519089"><ele>651.0</ele><time>2026-05-02T13:15:01.962Z</time></trkpt><trkpt lat="44.24612528867361" lon="10.681802310765725"><ele>651.0</ele><time>2026-05-02T13:15:02.962Z</time></trkpt><trkpt lat="44.2462187584656" lon="10.68190090754743"><ele>651.0</ele><time>2026-05-02T13:15:03.962Z</time></trkpt><trkpt lat="44.24630107847615" lon="10.68199146493768"><ele>651.0</ele><time>2026-05-02T13:15:04.962Z</time></trkpt><trkpt lat="44.2463709001658" lon="10.682070284866288"><ele>649.3333333333334</ele><time>2026-05-02T13:15:05.962Z</time></trkpt><trkpt lat="44.2464309138878" lon="10.682149171988602"><ele>647.6666666666666</ele><time>2026-05-02T13:15:06.962Z</time></trkpt><trkpt lat="44.24651947269459" lon="10.682205646974348"><ele>646.0</ele><time>2026-05-02T13:15:07.962Z</time></trkpt><trkpt lat="44.24656152795546" lon="10.682290719715652"><ele>644.3333333333333</ele><time>2026-05-02T13:15:08.962Z</time></trkpt><trkpt lat="44.246585877448986" lon="10.68239360269504"><ele>642.6666666666666</ele><time>2026-05-02T13:15:09.962Z</time></trkpt><trkpt lat="44.24661716977196" lon="10.68248370482807"><ele>641.0</ele><time>2026-05-02T13:15:10.962Z</time></trkpt><trkpt lat="44.246631479304774" lon="10.682579374237717"><ele>641.0</ele><time>2026-05-02T13:15:11.962Z</time></trkpt><trkpt lat="44.24664383553666" lon="10.68273956027062"><ele>641.0</ele><time>2026-05-02T13:15:13.962Z</time></trkpt><trkpt lat="44.24664651998311" lon="10.682879580915934"><ele>641.0</ele><time>2026-05-02T13:15:15.958Z</time></trkpt><trkpt lat="44.24667241395756" lon="10.683024483221617"><ele>641.0</ele><time>2026-05-02T13:15:17.958Z</time></trkpt><trkpt lat="44.24671320791677" lon="10.683098576153483"><ele>641.0</ele><time>2026-05-02T13:15:18.958Z</time></trkpt><trkpt lat="44.24676358650602" lon="10.683172955010614"><ele>642.8571428571429</ele><time>2026-05-02T13:15:19.958Z</time></trkpt><trkpt lat="44.246823353563514" lon="10.683244601031433"><ele>644.7142857142857</ele><time>2026-05-02T13:15:20.958Z</time></trkpt><trkpt lat="44.24689199693506" lon="10.683297688279715"><ele>646.5714285714286</ele><time>2026-05-02T13:15:21.957Z</time></trkpt><trkpt lat="44.24695848832777" lon="10.683341822125493"><ele>648.4285714285714</ele><time>2026-05-02T13:15:22.958Z</time></trkpt><trkpt lat="44.24703051216426" lon="10.68334937100848"><ele>650.2857142857143</ele><time>2026-05-02T13:15:23.958Z</time></trkpt><trkpt lat="44.247099161942934" lon="10.683333052501894"><ele>652.1428571428571</ele><time>2026-05-02T13:15:24.957Z</time></trkpt><trkpt lat="44.24716730570293" lon="10.683339095042472"><ele>654.0</ele><time>2026-05-02T13:15:25.958Z</time></trkpt><trkpt lat="44.24723487570055" lon="10.683366102218152"><ele>652.1666666666666</ele><time>2026-05-02T13:15:26.958Z</time></trkpt><trkpt lat="44.24731715184479" lon="10.683417533049749"><ele>650.3333333333334</ele><time>2026-05-02T13:15:27.958Z</time></trkpt><trkpt lat="44.2473988381018" lon="10.683474026364149"><ele>648.5</ele><time>2026-05-02T13:15:28.958Z</time></trkpt><trkpt lat="44.24748342143245" lon="10.683524553336627"><ele>646.6666666666667</ele><time>2026-05-02T13:15:29.958Z</time></trkpt><trkpt lat="44.24755453621559" lon="10.683562964048503"><ele>644.8333333333334</ele><time>2026-05-02T13:15:30.958Z</time></trkpt><trkpt lat="44.2476232802585" lon="10.68361314485895"><ele>643.0</ele><time>2026-05-02T13:15:31.958Z</time></trkpt><trkpt lat="44.247702222646375" lon="10.68366355201099"><ele>649.0</ele><time>2026-05-02T13:15:32.958Z</time></trkpt><trkpt lat="44.24779362167209" lon="10.68370948382323"><ele>655.0</ele><time>2026-05-02T13:15:33.958Z</time></trkpt><trkpt lat="44.24788054225635" lon="10.683780519083143"><ele>661.0</ele><time>2026-05-02T13:15:34.958Z</time></trkpt><trkpt lat="44.24797267023488" lon="10.683862383977418"><ele>667.0</ele><time>2026-05-02T13:15:35.958Z</time></trkpt><trkpt lat="44.24804219357007" lon="10.683957199479238"><ele>673.0</ele><time>2026-05-02T13:15:36.958Z</time></trkpt><trkpt lat="44.24809107249954" lon="10.684064975868985"><ele>674.0</ele><time>2026-05-02T13:15:37.959Z</time></trkpt><trkpt lat="44.248139135390744" lon="10.684179614973356"><ele>675.0</ele><time>2026-05-02T13:15:38.959Z</time></trkpt><trkpt lat="44.248202366240065" lon="10.684280460358563"><ele>676.0</ele><time>2026-05-02T13:15:39.959Z</time></trkpt><trkpt lat="44.24827689844271" lon="10.684371127205164"><ele>677.0</ele><time>2026-05-02T13:15:40.959Z</time></trkpt><trkpt lat="44.24835744577788" lon="10.684451680170673"><ele>678.0</ele><time>2026-05-02T13:15:41.959Z</time></trkpt><trkpt lat="44.248446772817886" lon="10.6845224620209"><ele>678.0</ele><time>2026-05-02T13:15:42.959Z</time></trkpt><trkpt lat="44.24855715966684" lon="10.684582988719866"><ele>678.0</ele><time>2026-05-02T13:15:43.959Z</time></trkpt><trkpt lat="44.248650441277" lon="10.68467114093443"><ele>678.0</ele><time>2026-05-02T13:15:44.959Z</time></trkpt><trkpt lat="44.24873169723397" lon="10.684786247739597"><ele>678.0</ele><time>2026-05-02T13:15:45.959Z</time></trkpt><trkpt lat="44.248809588513076" lon="10.684915607140386"><ele>678.0</ele><time>2026-05-02T13:15:46.959Z</time></trkpt><trkpt lat="44.24888153902442" lon="10.68504878278382"><ele>678.0</ele><time>2026-05-02T13:15:47.959Z</time></trkpt><trkpt lat="44.24893808760958" lon="10.68518353583175"><ele>678.0</ele><time>2026-05-02T13:15:48.959Z</time></trkpt><trkpt lat="44.24899135073692" lon="10.685316223899877"><ele>678.0</ele><time>2026-05-02T13:15:49.959Z</time></trkpt><trkpt lat="44.24905160042605" lon="10.685460286991173"><ele>677.75</ele><time>2026-05-02T13:15:50.959Z</time></trkpt><trkpt lat="44.24911209904468" lon="10.685601483444517"><ele>677.5</ele><time>2026-05-02T13:15:51.959Z</time></trkpt><trkpt lat="44.249190776712574" lon="10.685725536783087"><ele>677.25</ele><time>2026-05-02T13:15:52.959Z</time></trkpt><trkpt lat="44.24927324748569" lon="10.685833075215973"><ele>677.0</ele><time>2026-05-02T13:15:53.959Z</time></trkpt><trkpt lat="44.249360952887656" lon="10.685920119655654"><ele>677.0</ele><time>2026-05-02T13:15:54.959Z</time></trkpt><trkpt lat="44.24944114847609" lon="10.686004762652033"><ele>677.0</ele><time>2026-05-02T13:15:55.959Z</time></trkpt><trkpt lat="44.249500633733426" lon="10.686115653931484"><ele>677.0</ele><time>2026-05-02T13:15:56.959Z</time></trkpt><trkpt lat="44.249539712410524" lon="10.686230946479336"><ele>677.0</ele><time>2026-05-02T13:15:57.959Z</time></trkpt><trkpt lat="44.24955484909683" lon="10.686362224388764"><ele>677.0</ele><time>2026-05-02T13:15:58.959Z</time></trkpt><trkpt lat="44.249568150224725" lon="10.686494366796762"><ele>677.2</ele><time>2026-05-02T13:15:59.959Z</time></trkpt><trkpt lat="44.24958816274338" lon="10.686619103334847"><ele>677.4000000000001</ele><time>2026-05-02T13:16:00.959Z</time></trkpt><trkpt lat="44.24962193609166" lon="10.686741667586395"><ele>677.5999999999999</ele><time>2026-05-02T13:16:01.959Z</time></trkpt><trkpt lat="44.24964973114094" lon="10.686870648300586"><ele>677.8</ele><time>2026-05-02T13:16:02.959Z</time></trkpt><trkpt lat="44.249670331134375" lon="10.687001966820311"><ele>678.0</ele><time>2026-05-02T13:16:03.959Z</time></trkpt><trkpt lat="44.24981542517353" lon="10.687140049383531"><ele>678.0</ele><time>2026-05-02T13:16:05.959Z</time></trkpt><trkpt lat="44.249918034743665" lon="10.687184827045096"><ele>678.0</ele><time>2026-05-02T13:16:06.959Z</time></trkpt><trkpt lat="44.25001626413154" lon="10.68726153575337"><ele>678.0</ele><time>2026-05-02T13:16:07.959Z</time></trkpt><trkpt lat="44.25012254398328" lon="10.687347803523844"><ele>678.0</ele><time>2026-05-02T13:16:08.959Z</time></trkpt><trkpt lat="44.25020408468987" lon="10.687457195205251"><ele>678.0</ele><time>2026-05-02T13:16:09.959Z</time></trkpt><trkpt lat="44.25027878851766" lon="10.687557517321723"><ele>678.0</ele><time>2026-05-02T13:16:10.959Z</time></trkpt><trkpt lat="44.25034544016688" lon="10.687664584755293"><ele>678.0</ele><time>2026-05-02T13:16:11.959Z</time></trkpt><trkpt lat="44.25038786768167" lon="10.687772538184271"><ele>678.0</ele><time>2026-05-02T13:16:12.959Z</time></trkpt><trkpt lat="44.25039504159085" lon="10.687897104005298"><ele>678.0</ele><time>2026-05-02T13:16:13.959Z</time></trkpt><trkpt lat="44.25037058797484" lon="10.68802785178352"><ele>679.8</ele><time>2026-05-02T13:16:14.959Z</time></trkpt><trkpt lat="44.25034681863228" lon="10.688161766322203"><ele>681.5999999999999</ele><time>2026-05-02T13:16:15.959Z</time></trkpt><trkpt lat="44.25032379496753" lon="10.688298616508394"><ele>683.4000000000001</ele><time>2026-05-02T13:16:16.96Z</time></trkpt><trkpt lat="44.250313506081966" lon="10.68842140785117"><ele>685.2</ele><time>2026-05-02T13:16:17.96Z</time></trkpt><trkpt lat="44.25031739878262" lon="10.688544742674312"><ele>687.0</ele><time>2026-05-02T13:16:18.96Z</time></trkpt><trkpt lat="44.2503388528591" lon="10.688673305047017"><ele>687.8</ele><time>2026-05-02T13:16:19.96Z</time></trkpt><trkpt lat="44.2503638935426" lon="10.688790541103923"><ele>688.6</ele><time>2026-05-02T13:16:20.96Z</time></trkpt><trkpt lat="44.25040227138011" lon="10.688912786038317"><ele>689.4</ele><time>2026-05-02T13:16:21.96Z</time></trkpt><trkpt lat="44.250428055643084" lon="10.689049031939083"><ele>690.1999999999999</ele><time>2026-05-02T13:16:22.96Z</time></trkpt><trkpt lat="44.250437412706674" lon="10.689187375568267"><ele>691.0</ele><time>2026-05-02T13:16:23.96Z</time></trkpt><trkpt lat="44.25042840319453" lon="10.689334001072908"><ele>690.8</ele><time>2026-05-02T13:16:24.96Z</time></trkpt><trkpt lat="44.250400618341345" lon="10.689467269239534"><ele>690.5999999999999</ele><time>2026-05-02T13:16:25.96Z</time></trkpt><trkpt lat="44.25035493655995" lon="10.689569611367501"><ele>690.4</ele><time>2026-05-02T13:16:26.96Z</time></trkpt><trkpt lat="44.25030766821482" lon="10.689664179821984"><ele>690.2</ele><time>2026-05-02T13:16:27.96Z</time></trkpt><trkpt lat="44.250285544255426" lon="10.689749296933533"><ele>690.0</ele><time>2026-05-02T13:16:28.96Z</time></trkpt><trkpt lat="44.25032418435057" lon="10.68992877946506"><ele>690.0</ele><time>2026-05-02T13:16:30.96Z</time></trkpt><trkpt lat="44.250353790646464" lon="10.690034853444262"><ele>690.0</ele><time>2026-05-02T13:16:31.96Z</time></trkpt><trkpt lat="44.25039321852674" lon="10.690144654596109"><ele>690.0</ele><time>2026-05-02T13:16:32.96Z</time></trkpt><trkpt lat="44.250436221127174" lon="10.690262573003178"><ele>690.0</ele><time>2026-05-02T13:16:33.96Z</time></trkpt><trkpt lat="44.25048589083444" lon="10.690396691749001"><ele>690.0</ele><time>2026-05-02T13:16:34.96Z</time></trkpt><trkpt lat="44.250538408406285" lon="10.690536867095718"><ele>691.4</ele><time>2026-05-02T13:16:35.96Z</time></trkpt><trkpt lat="44.25059604966289" lon="10.690665285190128"><ele>692.8</ele><time>2026-05-02T13:16:36.96Z</time></trkpt><trkpt lat="44.25064754446117" lon="10.690796697861995"><ele>694.2</ele><time>2026-05-02T13:16:37.96Z</time></trkpt><trkpt lat="44.2506852159413" lon="10.69092720033671"><ele>695.6</ele><time>2026-05-02T13:16:38.96Z</time></trkpt><trkpt lat="44.25070162654801" lon="10.69107012096059"><ele>697.0</ele><time>2026-05-02T13:16:39.96Z</time></trkpt><trkpt lat="44.25070608873696" lon="10.691195163049636"><ele>697.4285714285714</ele><time>2026-05-02T13:16:40.96Z</time></trkpt><trkpt lat="44.25071170645197" lon="10.691302897013069"><ele>697.8571428571429</ele><time>2026-05-02T13:16:41.96Z</time></trkpt><trkpt lat="44.25074513944342" lon="10.691384686290746"><ele>698.2857142857142</ele><time>2026-05-02T13:16:42.96Z</time></trkpt><trkpt lat="44.25079941325269" lon="10.69143423887995"><ele>698.7142857142858</ele><time>2026-05-02T13:16:43.96Z</time></trkpt><trkpt lat="44.25086254723713" lon="10.691452725422284"><ele>699.1428571428571</ele><time>2026-05-02T13:16:44.96Z</time></trkpt><trkpt lat="44.2509294795366" lon="10.691469332029266"><ele>699.5714285714286</ele><time>2026-05-02T13:16:45.96Z</time></trkpt><trkpt lat="44.25100611029433" lon="10.691482737738417"><ele>700.0</ele><time>2026-05-02T13:16:46.96Z</time></trkpt><trkpt lat="44.251084255330504" lon="10.691499664002238"><ele>700.0</ele><time>2026-05-02T13:16:47.96Z</time></trkpt><trkpt lat="44.251152316091115" lon="10.691513238673943"><ele>700.0</ele><time>2026-05-02T13:16:48.96Z</time></trkpt><trkpt lat="44.25121994733535" lon="10.691531314635702"><ele>700.0</ele><time>2026-05-02T13:16:49.96Z</time></trkpt><trkpt lat="44.251277769073816" lon="10.69157405879982"><ele>700.0</ele><time>2026-05-02T13:16:50.96Z</time></trkpt><trkpt lat="44.25131318806546" lon="10.691659215963647"><ele>700.0</ele><time>2026-05-02T13:16:51.96Z</time></trkpt><trkpt lat="44.25132967885424" lon="10.69175347070716"><ele>700.0</ele><time>2026-05-02T13:16:52.96Z</time></trkpt><trkpt lat="44.25132234464607" lon="10.691844190120527"><ele>700.0</ele><time>2026-05-02T13:16:53.96Z</time></trkpt><trkpt lat="44.2513097478241" lon="10.691954400730065"><ele>702.6</ele><time>2026-05-02T13:16:54.96Z</time></trkpt><trkpt lat="44.25128648635362" lon="10.692079514509489"><ele>705.2</ele><time>2026-05-02T13:16:55.96Z</time></trkpt><trkpt lat="44.251261969657676" lon="10.69219946122883"><ele>707.8</ele><time>2026-05-02T13:16:56.96Z</time></trkpt><trkpt lat="44.251248075469206" lon="10.692332039996328"><ele>710.4</ele><time>2026-05-02T13:16:57.96Z</time></trkpt><trkpt lat="44.25125321040195" lon="10.692466315733661"><ele>713.0</ele><time>2026-05-02T13:16:58.96Z</time></trkpt><trkpt lat="44.25127292933367" lon="10.692603655253375"><ele>713.0</ele><time>2026-05-02T13:16:59.96Z</time></trkpt><trkpt lat="44.25130468410315" lon="10.692735206299849"><ele>713.0</ele><time>2026-05-02T13:17:00.96Z</time></trkpt><trkpt lat="44.25133451005336" lon="10.692858866864887"><ele>713.0</ele><time>2026-05-02T13:17:01.96Z</time></trkpt><trkpt lat="44.25136689815314" lon="10.692990360319882"><ele>713.0</ele><time>2026-05-02T13:17:02.96Z</time></trkpt><trkpt lat="44.251390738910544" lon="10.693133473956744"><ele>713.0</ele><time>2026-05-02T13:17:03.96Z</time></trkpt><trkpt lat="44.25140328914309" lon="10.6932658746272"><ele>712.5</ele><time>2026-05-02T13:17:04.96Z</time></trkpt><trkpt lat="44.25139597386525" lon="10.69338470550814"><ele>712.0</ele><time>2026-05-02T13:17:05.96Z</time></trkpt><trkpt lat="44.25137178803388" lon="10.693494780266317"><ele>711.5</ele><time>2026-05-02T13:17:06.96Z</time></trkpt><trkpt lat="44.25135586893409" lon="10.693607058106672"><ele>711.0</ele><time>2026-05-02T13:17:07.96Z</time></trkpt><trkpt lat="44.251375847080354" lon="10.693705388421893"><ele>710.5</ele><time>2026-05-02T13:17:08.96Z</time></trkpt><trkpt lat="44.25143077063639" lon="10.693773026604527"><ele>710.0</ele><time>2026-05-02T13:17:09.96Z</time></trkpt><trkpt lat="44.25149426993856" lon="10.693830272569597"><ele>710.0</ele><time>2026-05-02T13:17:10.96Z</time></trkpt><trkpt lat="44.25155457559293" lon="10.693885203431108"><ele>710.0</ele><time>2026-05-02T13:17:11.96Z</time></trkpt><trkpt lat="44.25163351848888" lon="10.693966229046792"><ele>710.0</ele><time>2026-05-02T13:17:12.96Z</time></trkpt><trkpt lat="44.25171077510565" lon="10.694058716618077"><ele>710.0</ele><time>2026-05-02T13:17:13.96Z</time></trkpt><trkpt lat="44.251781072487184" lon="10.694174146505146"><ele>710.0</ele><time>2026-05-02T13:17:14.96Z</time></trkpt><trkpt lat="44.25185728155799" lon="10.694292463736234"><ele>710.0</ele><time>2026-05-02T13:17:15.96Z</time></trkpt><trkpt lat="44.25191673286712" lon="10.69441581497433"><ele>710.0</ele><time>2026-05-02T13:17:16.96Z</time></trkpt><trkpt lat="44.25196566337516" lon="10.694536548726566"><ele>710.0</ele><time>2026-05-02T13:17:17.96Z</time></trkpt><trkpt lat="44.25198797113852" lon="10.694662815247167"><ele>710.0</ele><time>2026-05-02T13:17:18.96Z</time></trkpt><trkpt lat="44.25199270617849" lon="10.694787759004484"><ele>710.0</ele><time>2026-05-02T13:17:19.96Z</time></trkpt><trkpt lat="44.25198255326193" lon="10.694918090491802"><ele>713.1666666666666</ele><time>2026-05-02T13:17:20.961Z</time></trkpt><trkpt lat="44.25198509937066" lon="10.695048944435522"><ele>716.3333333333333</ele><time>2026-05-02T13:17:21.956Z</time></trkpt><trkpt lat="44.25200281638037" lon="10.695172858821689"><ele>719.5</ele><time>2026-05-02T13:17:22.956Z</time></trkpt><trkpt lat="44.2520367919777" lon="10.695296194897596"><ele>722.6666666666666</ele><time>2026-05-02T13:17:23.956Z</time></trkpt><trkpt lat="44.25207508787676" lon="10.695405080923177"><ele>725.8333333333334</ele><time>2026-05-02T13:17:24.956Z</time></trkpt><trkpt lat="44.2521164878034" lon="10.695498167617338"><ele>729.0</ele><time>2026-05-02T13:17:25.955Z</time></trkpt><trkpt lat="44.25215947573163" lon="10.695588994119348"><ele>730.3333333333334</ele><time>2026-05-02T13:17:26.955Z</time></trkpt><trkpt lat="44.25219238711073" lon="10.695692197361154"><ele>731.6666666666666</ele><time>2026-05-02T13:17:27.955Z</time></trkpt><trkpt lat="44.25222322442933" lon="10.69582411721755"><ele>733.0</ele><time>2026-05-02T13:17:29.955Z</time></trkpt><trkpt lat="44.252249773296136" lon="10.69592387678648"><ele>734.3333333333333</ele><time>2026-05-02T13:17:31.955Z</time></trkpt><trkpt lat="44.25225422083731" lon="10.696023361273731"><ele>735.6666666666666</ele><time>2026-05-02T13:17:34.955Z</time></trkpt><trkpt lat="44.25226365832228" lon="10.696113663572786"><ele>737.0</ele><time>2026-05-02T13:17:37.955Z</time></trkpt><trkpt lat="44.25226054526544" lon="10.696262740935888"><ele>737.2</ele><time>2026-05-02T13:17:40.955Z</time></trkpt><trkpt lat="44.252271679695156" lon="10.69640094911055"><ele>737.4000000000001</ele><time>2026-05-02T13:17:42.955Z</time></trkpt><trkpt lat="44.25228705997345" lon="10.696549940044259"><ele>737.5999999999999</ele><time>2026-05-02T13:17:44.955Z</time></trkpt><trkpt lat="44.25226722956001" lon="10.696703899949465"><ele>737.8</ele><time>2026-05-02T13:17:46.955Z</time></trkpt><trkpt lat="44.252193692160034" lon="10.69684826204462"><ele>738.0</ele><time>2026-05-02T13:17:48.955Z</time></trkpt><trkpt lat="44.25214759004532" lon="10.696919810218462"><ele>738.5999999999999</ele><time>2026-05-02T13:17:49.955Z</time></trkpt><trkpt lat="44.252099394623485" lon="10.696984528870141"><ele>739.1999999999999</ele><time>2026-05-02T13:17:50.955Z</time></trkpt><trkpt lat="44.25202285244637" lon="10.697109054291031"><ele>739.8</ele><time>2026-05-02T13:17:52.955Z</time></trkpt><trkpt lat="44.25203053240558" lon="10.697293159627119"><ele>740.4</ele><time>2026-05-02T13:17:54.955Z</time></trkpt><trkpt lat="44.25207568643458" lon="10.697381674045024"><ele>741.0</ele><time>2026-05-02T13:17:55.955Z</time></trkpt><trkpt lat="44.252126078894705" lon="10.69747573235598"><ele>741.0</ele><time>2026-05-02T13:17:56.955Z</time></trkpt><trkpt lat="44.25216799003726" lon="10.697574101834062"><ele>741.0</ele><time>2026-05-02T13:17:57.955Z</time></trkpt><trkpt lat="44.25218579739274" lon="10.697673098854887"><ele>741.0</ele><time>2026-05-02T13:17:58.955Z</time></trkpt><trkpt lat="44.25218958939706" lon="10.697784299770756"><ele>741.0</ele><time>2026-05-02T13:17:59.955Z</time></trkpt><trkpt lat="44.252203708228095" lon="10.697914947153127"><ele>741.0</ele><time>2026-05-02T13:18:00.955Z</time></trkpt><trkpt lat="44.25224711955546" lon="10.698038128554233"><ele>741.0</ele><time>2026-05-02T13:18:01.956Z</time></trkpt><trkpt lat="44.25228492197958" lon="10.698144438501089"><ele>743.3333333333334</ele><time>2026-05-02T13:18:02.956Z</time></trkpt><trkpt lat="44.25230618647858" lon="10.698247506968663"><ele>745.6666666666666</ele><time>2026-05-02T13:18:03.956Z</time></trkpt><trkpt lat="44.25232537151115" lon="10.698363680893454"><ele>748.0</ele><time>2026-05-02T13:18:04.956Z</time></trkpt><trkpt lat="44.252299509554874" lon="10.698477457248275"><ele>750.3333333333333</ele><time>2026-05-02T13:18:05.956Z</time></trkpt><trkpt lat="44.252267823944386" lon="10.698580879283378"><ele>752.6666666666666</ele><time>2026-05-02T13:18:06.956Z</time></trkpt><trkpt lat="44.252236352775206" lon="10.698696646796199"><ele>755.0</ele><time>2026-05-02T13:18:07.956Z</time></trkpt><trkpt lat="44.252257715116045" lon="10.698827781895595"><ele>749.4</ele><time>2026-05-02T13:18:08.956Z</time></trkpt><trkpt lat="44.252303625757165" lon="10.698945009135505"><ele>743.8</ele><time>2026-05-02T13:18:09.956Z</time></trkpt><trkpt lat="44.252362447177006" lon="10.699059094328089"><ele>738.2</ele><time>2026-05-02T13:18:10.956Z</time></trkpt><trkpt lat="44.25240997025906" lon="10.699175046378317"><ele>732.6</ele><time>2026-05-02T13:18:11.956Z</time></trkpt><trkpt lat="44.25243347044485" lon="10.69930032230365"><ele>727.0</ele><time>2026-05-02T13:18:12.956Z</time></trkpt><trkpt lat="44.25245685362548" lon="10.69943816886936"><ele>727.0</ele><time>2026-05-02T13:18:13.956Z</time></trkpt><trkpt lat="44.252498826624304" lon="10.699609834726033"><ele>727.0</ele><time>2026-05-02T13:18:14.956Z</time></trkpt><trkpt lat="44.252538861932" lon="10.69976493276525"><ele>727.0</ele><time>2026-05-02T13:18:15.956Z</time></trkpt><trkpt lat="44.25255400295778" lon="10.699900428700294"><ele>727.0</ele><time>2026-05-02T13:18:16.956Z</time></trkpt><trkpt lat="44.25254985455538" lon="10.700049092834384"><ele>727.0</ele><time>2026-05-02T13:18:17.956Z</time></trkpt><trkpt lat="44.252534155469" lon="10.700208900165835"><ele>727.0</ele><time>2026-05-02T13:18:18.956Z</time></trkpt><trkpt lat="44.25251737870129" lon="10.70036925092598"><ele>727.0</ele><time>2026-05-02T13:18:19.956Z</time></trkpt><trkpt lat="44.252515127903266" lon="10.700534274834805"><ele>727.0</ele><time>2026-05-02T13:18:20.956Z</time></trkpt><trkpt lat="44.252531996996765" lon="10.700699728231049"><ele>730.5</ele><time>2026-05-02T13:18:21.956Z</time></trkpt><trkpt lat="44.2525506681168" lon="10.70086195112732"><ele>734.0</ele><time>2026-05-02T13:18:22.956Z</time></trkpt><trkpt lat="44.25256871857471" lon="10.701018781466592"><ele>737.5</ele><time>2026-05-02T13:18:23.956Z</time></trkpt><trkpt lat="44.252585519977636" lon="10.701164759468567"><ele>741.0</ele><time>2026-05-02T13:18:24.956Z</time></trkpt><trkpt lat="44.25266571701981" lon="10.701304104654136"><ele>744.5999999999999</ele><time>2026-05-02T13:18:25.956Z</time></trkpt><trkpt lat="44.25271876576133" lon="10.70144196257893"><ele>748.2</ele><time>2026-05-02T13:18:26.956Z</time></trkpt><trkpt lat="44.25277618070186" lon="10.701576568293838"><ele>751.8</ele><time>2026-05-02T13:18:27.956Z</time></trkpt><trkpt lat="44.252830178786226" lon="10.701705697014045"><ele>755.4000000000001</ele><time>2026-05-02T13:18:28.956Z</time></trkpt><trkpt lat="44.252880525355565" lon="10.701836421481552"><ele>759.0</ele><time>2026-05-02T13:18:29.956Z</time></trkpt><trkpt lat="44.25292341579269" lon="10.701963646585918"><ele>763.2</ele><time>2026-05-02T13:18:30.956Z</time></trkpt><trkpt lat="44.25296868977292" lon="10.702093791560511"><ele>767.4000000000001</ele><time>2026-05-02T13:18:31.956Z</time></trkpt><trkpt lat="44.253019616607205" lon="10.70222810262935"><ele>771.6</ele><time>2026-05-02T13:18:32.956Z</time></trkpt><trkpt lat="44.25307190181516" lon="10.702358091134066"><ele>775.8</ele><time>2026-05-02T13:18:33.956Z</time></trkpt><trkpt lat="44.25312759290551" lon="10.702475663628006"><ele>780.0</ele><time>2026-05-02T13:18:34.956Z</time></trkpt><trkpt lat="44.253179479522316" lon="10.702597163741007"><ele>773.6</ele><time>2026-05-02T13:18:35.956Z</time></trkpt><trkpt lat="44.25322165689724" lon="10.702726501597686"><ele>767.2</ele><time>2026-05-02T13:18:36.956Z</time></trkpt><trkpt lat="44.25324122878318" lon="10.702863142374934"><ele>760.8</ele><time>2026-05-02T13:18:37.956Z</time></trkpt><trkpt lat="44.2532841728049" lon="10.702999144323709"><ele>754.4</ele><time>2026-05-02T13:18:38.956Z</time></trkpt><trkpt lat="44.25334161686589" lon="10.703135324246047"><ele>748.0</ele><time>2026-05-02T13:18:39.956Z</time></trkpt><trkpt lat="44.25339272897975" lon="10.703262818450142"><ele>748.0</ele><time>2026-05-02T13:18:40.956Z</time></trkpt><trkpt lat="44.253445479240995" lon="10.703393842983369"><ele>748.0</ele><time>2026-05-02T13:18:41.956Z</time></trkpt><trkpt lat="44.253500594949806" lon="10.70351617444991"><ele>748.0</ele><time>2026-05-02T13:18:42.956Z</time></trkpt><trkpt lat="44.2535552845378" lon="10.703639283124994"><ele>748.0</ele><time>2026-05-02T13:18:43.956Z</time></trkpt><trkpt lat="44.25361196784834" lon="10.70376573493391"><ele>748.0</ele><time>2026-05-02T13:18:44.956Z</time></trkpt><trkpt lat="44.25367545842891" lon="10.70389222400448"><ele>753.75</ele><time>2026-05-02T13:18:45.956Z</time></trkpt><trkpt lat="44.253742397048875" lon="10.704033260377866"><ele>759.5</ele><time>2026-05-02T13:18:46.956Z</time></trkpt><trkpt lat="44.25381713642596" lon="10.704170885715092"><ele>765.25</ele><time>2026-05-02T13:18:47.956Z</time></trkpt><trkpt lat="44.25388102466745" lon="10.70430583200652"><ele>771.0</ele><time>2026-05-02T13:18:48.956Z</time></trkpt><trkpt lat="44.2539427942855" lon="10.704440330854908"><ele>766.8</ele><time>2026-05-02T13:18:49.956Z</time></trkpt><trkpt lat="44.25399165320366" lon="10.704570073328869"><ele>762.5999999999999</ele><time>2026-05-02T13:18:50.956Z</time></trkpt><trkpt lat="44.25405693818917" lon="10.704705601819262"><ele>758.4</ele><time>2026-05-02T13:18:51.956Z</time></trkpt><trkpt lat="44.254121369611454" lon="10.704807557458903"><ele>754.2</ele><time>2026-05-02T13:18:52.956Z</time></trkpt><trkpt lat="44.25420019351895" lon="10.704891315991103"><ele>750.0</ele><time>2026-05-02T13:18:53.956Z</time></trkpt><trkpt lat="44.25429429772537" lon="10.704973168686731"><ele>750.0</ele><time>2026-05-02T13:18:54.956Z</time></trkpt><trkpt lat="44.25439348480077" lon="10.705046890761421"><ele>750.0</ele><time>2026-05-02T13:18:55.956Z</time></trkpt><trkpt lat="44.254485260303014" lon="10.705130969381798"><ele>750.0</ele><time>2026-05-02T13:18:56.956Z</time></trkpt><trkpt lat="44.25456587736267" lon="10.70522653367539"><ele>750.0</ele><time>2026-05-02T13:18:57.956Z</time></trkpt><trkpt lat="44.25464301563692" lon="10.705328842110797"><ele>750.0</ele><time>2026-05-02T13:18:58.956Z</time></trkpt><trkpt lat="44.25470537515965" lon="10.705446978100019"><ele>747.2</ele><time>2026-05-02T13:18:59.956Z</time></trkpt><trkpt lat="44.2547588717075" lon="10.705566335085015"><ele>744.4</ele><time>2026-05-02T13:19:00.956Z</time></trkpt><trkpt lat="44.25481415459783" lon="10.705689040234205"><ele>741.5999999999999</ele><time>2026-05-02T13:19:01.956Z</time></trkpt><trkpt lat="44.254874753147625" lon="10.705801328063073"><ele>738.8</ele><time>2026-05-02T13:19:02.956Z</time></trkpt><trkpt lat="44.254924540403834" lon="10.705912899347187"><ele>736.0</ele><time>2026-05-02T13:19:03.956Z</time></trkpt><trkpt lat="44.2549600803182" lon="10.706012491385955"><ele>737.8</ele><time>2026-05-02T13:19:04.956Z</time></trkpt><trkpt lat="44.25498750820944" lon="10.706143340758112"><ele>739.5999999999999</ele><time>2026-05-02T13:19:05.956Z</time></trkpt><trkpt lat="44.255003447086885" lon="10.706265925958522"><ele>741.4</ele><time>2026-05-02T13:19:06.956Z</time></trkpt><trkpt lat="44.255026134008034" lon="10.70640684951141"><ele>743.2</ele><time>2026-05-02T13:19:07.956Z</time></trkpt><trkpt lat="44.25503780888482" lon="10.706556563756651"><ele>745.0</ele><time>2026-05-02T13:19:08.957Z</time></trkpt><trkpt lat="44.25505334951168" lon="10.706712014410193"><ele>745.0</ele><time>2026-05-02T13:19:09.957Z</time></trkpt><trkpt lat="44.255076845556374" lon="10.706851040741984"><ele>745.0</ele><time>2026-05-02T13:19:10.957Z</time></trkpt><trkpt lat="44.2550916818081" lon="10.70696851073221"><ele>745.0</ele><time>2026-05-02T13:19:11.957Z</time></trkpt><trkpt lat="44.255112530862796" lon="10.707101296322207"><ele>745.0</ele><time>2026-05-02T13:19:12.957Z</time></trkpt><trkpt lat="44.255124102224165" lon="10.707213574655123"><ele>745.0</ele><time>2026-05-02T13:19:13.957Z</time></trkpt><trkpt lat="44.25510311530447" lon="10.707315318733801"><ele>745.0</ele><time>2026-05-02T13:19:14.957Z</time></trkpt><trkpt lat="44.255031824251425" lon="10.707395020443597"><ele>745.1666666666667</ele><time>2026-05-02T13:19:15.957Z</time></trkpt><trkpt lat="44.25496455475551" lon="10.707435530456044"><ele>745.3333333333334</ele><time>2026-05-02T13:19:16.957Z</time></trkpt><trkpt lat="44.25489663612489" lon="10.707457499176567"><ele>745.5</ele><time>2026-05-02T13:19:17.957Z</time></trkpt><trkpt lat="44.25482578088006" lon="10.707493883083156"><ele>745.6666666666666</ele><time>2026-05-02T13:19:18.957Z</time></trkpt><trkpt lat="44.254751947139134" lon="10.70754383214518"><ele>745.8333333333333</ele><time>2026-05-02T13:19:19.957Z</time></trkpt><trkpt lat="44.25467365486652" lon="10.70761493545806"><ele>746.0</ele><time>2026-05-02T13:19:20.957Z</time></trkpt><trkpt lat="44.25460538069514" lon="10.707697714250934"><ele>742.6666666666666</ele><time>2026-05-02T13:19:21.957Z</time></trkpt><trkpt lat="44.2545413058908" lon="10.707792982739436"><ele>739.3333333333333</ele><time>2026-05-02T13:19:22.957Z</time></trkpt><trkpt lat="44.25449271381383" lon="10.707911994965263"><ele>736.0</ele><time>2026-05-02T13:19:23.957Z</time></trkpt><trkpt lat="44.254459653146654" lon="10.708011482540728"><ele>732.6666666666666</ele><time>2026-05-02T13:19:24.957Z</time></trkpt><trkpt lat="44.25440644141704" lon="10.70809601448353"><ele>729.3333333333334</ele><time>2026-05-02T13:19:25.957Z</time></trkpt><trkpt lat="44.25433637635199" lon="10.708127363960203"><ele>726.0</ele><time>2026-05-02T13:19:26.957Z</time></trkpt><trkpt lat="44.254269940343185" lon="10.708111368022177"><ele>726.0</ele><time>2026-05-02T13:19:27.952Z</time></trkpt><trkpt lat="44.25420072287619" lon="10.708065161157625"><ele>726.0</ele><time>2026-05-02T13:19:28.952Z</time></trkpt><trkpt lat="44.254123354202164" lon="10.708021433506831"><ele>726.0</ele><time>2026-05-02T13:19:29.952Z</time></trkpt><trkpt lat="44.25405489549902" lon="10.707951586934616"><ele>726.0</ele><time>2026-05-02T13:19:30.953Z</time></trkpt><trkpt lat="44.25400307304372" lon="10.707843479994825"><ele>726.0</ele><time>2026-05-02T13:19:31.952Z</time></trkpt><trkpt lat="44.25395606286731" lon="10.707752895199105"><ele>726.0</ele><time>2026-05-02T13:19:32.952Z</time></trkpt><trkpt lat="44.25388374428491" lon="10.707676449219813"><ele>729.8333333333334</ele><time>2026-05-02T13:19:33.952Z</time></trkpt><trkpt lat="44.2538244507041" lon="10.707599913877154"><ele>733.6666666666666</ele><time>2026-05-02T13:19:34.952Z</time></trkpt><trkpt lat="44.25375771633759" lon="10.707542739157153"><ele>737.5</ele><time>2026-05-02T13:19:35.952Z</time></trkpt><trkpt lat="44.25368460968516" lon="10.707514721746149"><ele>741.3333333333333</ele><time>2026-05-02T13:19:36.953Z</time></trkpt><trkpt lat="44.25360802285562" lon="10.707521513328318"><ele>745.1666666666666</ele><time>2026-05-02T13:19:37.952Z</time></trkpt><trkpt lat="44.253526449128046" lon="10.707542444405282"><ele>749.0</ele><time>2026-05-02T13:19:38.952Z</time></trkpt><trkpt lat="44.25344596559046" lon="10.707559663866904"><ele>749.0</ele><time>2026-05-02T13:19:39.952Z</time></trkpt><trkpt lat="44.25336530862251" lon="10.707542837543658"><ele>749.0</ele><time>2026-05-02T13:19:40.952Z</time></trkpt><trkpt lat="44.25329491402575" lon="10.707474199212221"><ele>749.0</ele><time>2026-05-02T13:19:41.952Z</time></trkpt><trkpt lat="44.253230169012504" lon="10.707393522149685"><ele>749.0</ele><time>2026-05-02T13:19:42.952Z</time></trkpt><trkpt lat="44.253166444703616" lon="10.707299770729616"><ele>749.0</ele><time>2026-05-02T13:19:43.952Z</time></trkpt><trkpt lat="44.25310353316634" lon="10.707213281182323"><ele>749.0</ele><time>2026-05-02T13:19:44.952Z</time></trkpt><trkpt lat="44.25304542687761" lon="10.707136371032336"><ele>747.1666666666666</ele><time>2026-05-02T13:19:45.952Z</time></trkpt><trkpt lat="44.252981609185824" lon="10.70707828850797"><ele>745.3333333333333</ele><time>2026-05-02T13:19:46.952Z</time></trkpt><trkpt lat="44.252892129812516" lon="10.707078917692636"><ele>743.5</ele><time>2026-05-02T13:19:47.952Z</time></trkpt><trkpt lat="44.25281458596634" lon="10.707065105647496"><ele>741.6666666666666</ele><time>2026-05-02T13:19:48.952Z</time></trkpt><trkpt lat="44.25274335316226" lon="10.707035378222997"><ele>739.8333333333334</ele><time>2026-05-02T13:19:49.952Z</time></trkpt><trkpt lat="44.25267730742925" lon="10.706968620635129"><ele>738.0</ele><time>2026-05-02T13:19:50.952Z</time></trkpt><trkpt lat="44.25262207393071" lon="10.706901469130358"><ele>738.0</ele><time>2026-05-02T13:19:51.952Z</time></trkpt><trkpt lat="44.252561191048414" lon="10.706870024865697"><ele>738.0</ele><time>2026-05-02T13:19:52.952Z</time></trkpt><trkpt lat="44.25249555705568" lon="10.706885601486077"><ele>738.0</ele><time>2026-05-02T13:19:53.952Z</time></trkpt><trkpt lat="44.25243631788843" lon="10.706930916857344"><ele>738.0</ele><time>2026-05-02T13:19:54.952Z</time></trkpt><trkpt lat="44.252348748351714" lon="10.70697549673164"><ele>738.0</ele><time>2026-05-02T13:19:55.952Z</time></trkpt><trkpt lat="44.25228427982343" lon="10.706995796487403"><ele>738.0</ele><time>2026-05-02T13:19:56.952Z</time></trkpt><trkpt lat="44.25220745210469" lon="10.707025785805167"><ele>738.0</ele><time>2026-05-02T13:19:57.952Z</time></trkpt><trkpt lat="44.25213248253537" lon="10.707048100901469"><ele>739.1666666666666</ele><time>2026-05-02T13:19:58.952Z</time></trkpt><trkpt lat="44.25205353550851" lon="10.707055243941797"><ele>740.3333333333334</ele><time>2026-05-02T13:19:59.952Z</time></trkpt><trkpt lat="44.25196468356952" lon="10.707054390116884"><ele>741.5</ele><time>2026-05-02T13:20:00.952Z</time></trkpt><trkpt lat="44.251881704244624" lon="10.707050632742542"><ele>742.6666666666667</ele><time>2026-05-02T13:20:01.952Z</time></trkpt><trkpt lat="44.25178891644223" lon="10.707043621575481"><ele>743.8333333333334</ele><time>2026-05-02T13:20:02.952Z</time></trkpt><trkpt lat="44.25170602538548" lon="10.707017577337623"><ele>745.0</ele><time>2026-05-02T13:20:03.952Z</time></trkpt><trkpt lat="44.25162098003894" lon="10.70699877278857"><ele>745.0</ele><time>2026-05-02T13:20:04.952Z</time></trkpt><trkpt lat="44.25153647041528" lon="10.706984837936146"><ele>745.0</ele><time>2026-05-02T13:20:05.952Z</time></trkpt><trkpt lat="44.251463237599715" lon="10.7070111976204"><ele>745.0</ele><time>2026-05-02T13:20:06.952Z</time></trkpt><trkpt lat="44.25140382411021" lon="10.707100872849063"><ele>745.0</ele><time>2026-05-02T13:20:07.952Z</time></trkpt><trkpt lat="44.251372850006845" lon="10.707188971726726"><ele>745.0</ele><time>2026-05-02T13:20:08.952Z</time></trkpt><trkpt lat="44.25134100726015" lon="10.707294945092539"><ele>745.0</ele><time>2026-05-02T13:20:09.952Z</time></trkpt><trkpt lat="44.2512979695087" lon="10.707406146161153"><ele>744.5</ele><time>2026-05-02T13:20:10.952Z</time></trkpt><trkpt lat="44.251254030456586" lon="10.707501759852097"><ele>744.0</ele><time>2026-05-02T13:20:11.952Z</time></trkpt><trkpt lat="44.25119560499527" lon="10.707588971618264"><ele>743.5</ele><time>2026-05-02T13:20:12.952Z</time></trkpt><trkpt lat="44.2511224140372" lon="10.707647962916173"><ele>743.0</ele><time>2026-05-02T13:20:13.952Z</time></trkpt><trkpt lat="44.251034165387274" lon="10.70768499944725"><ele>742.5</ele><time>2026-05-02T13:20:14.952Z</time></trkpt><trkpt lat="44.25095421842798" lon="10.707740193126064"><ele>742.0</ele><time>2026-05-02T13:20:15.952Z</time></trkpt><trkpt lat="44.250884824117946" lon="10.707812077078946"><ele>742.0</ele><time>2026-05-02T13:20:16.952Z</time></trkpt><trkpt lat="44.25081969595255" lon="10.707880760373072"><ele>742.0</ele><time>2026-05-02T13:20:17.952Z</time></trkpt><trkpt lat="44.25075178286032" lon="10.707942820690507"><ele>742.0</ele><time>2026-05-02T13:20:18.952Z</time></trkpt><trkpt lat="44.25067960466923" lon="10.707952631091855"><ele>742.0</ele><time>2026-05-02T13:20:19.952Z</time></trkpt><trkpt lat="44.25061457633494" lon="10.707939598092153"><ele>742.0</ele><time>2026-05-02T13:20:20.952Z</time></trkpt><trkpt lat="44.25049201677076" lon="10.707872909236617"><ele>742.0</ele><time>2026-05-02T13:20:22.953Z</time></trkpt><trkpt lat="44.250424964736474" lon="10.70784018895955"><ele>746.8333333333334</ele><time>2026-05-02T13:20:23.953Z</time></trkpt><trkpt lat="44.25035491679626" lon="10.70781512426465"><ele>751.6666666666667</ele><time>2026-05-02T13:20:24.953Z</time></trkpt><trkpt lat="44.25028191638797" lon="10.70783564865446"><ele>756.5</ele><time>2026-05-02T13:20:25.953Z</time></trkpt><trkpt lat="44.250215559319415" lon="10.70789497559105"><ele>761.3333333333334</ele><time>2026-05-02T13:20:26.953Z</time></trkpt><trkpt lat="44.25016126868115" lon="10.707975627937206"><ele>766.1666666666666</ele><time>2026-05-02T13:20:27.953Z</time></trkpt><trkpt lat="44.25013260649084" lon="10.70809202087277"><ele>771.0</ele><time>2026-05-02T13:20:28.953Z</time></trkpt><trkpt lat="44.25010789109868" lon="10.708190028341987"><ele>771.0</ele><time>2026-05-02T13:20:29.953Z</time></trkpt><trkpt lat="44.25006414811712" lon="10.708301279244996"><ele>771.0</ele><time>2026-05-02T13:20:30.953Z</time></trkpt><trkpt lat="44.249999069532834" lon="10.708401702026663"><ele>771.0</ele><time>2026-05-02T13:20:31.953Z</time></trkpt><trkpt lat="44.249917955343804" lon="10.708484467412294"><ele>771.0</ele><time>2026-05-02T13:20:32.953Z</time></trkpt><trkpt lat="44.2498378225963" lon="10.708567430035442"><ele>771.0</ele><time>2026-05-02T13:20:33.953Z</time></trkpt><trkpt lat="44.24976643701358" lon="10.708673641247064"><ele>770.0</ele><time>2026-05-02T13:20:34.953Z</time></trkpt><trkpt lat="44.249697778062696" lon="10.708783752769131"><ele>769.0</ele><time>2026-05-02T13:20:35.953Z</time></trkpt><trkpt lat="44.24962720432083" lon="10.708862789269142"><ele>768.0</ele><time>2026-05-02T13:20:36.953Z</time></trkpt><trkpt lat="44.24954477678206" lon="10.708917951386114"><ele>767.0</ele><time>2026-05-02T13:20:37.953Z</time></trkpt><trkpt lat="44.249443005418065" lon="10.708965543581572"><ele>766.0</ele><time>2026-05-02T13:20:38.953Z</time></trkpt><trkpt lat="44.2493601799764" lon="10.70898071470227"><ele>766.0</ele><time>2026-05-02T13:20:39.953Z</time></trkpt><trkpt lat="44.24927992529075" lon="10.708975362963079"><ele>766.0</ele><time>2026-05-02T13:20:40.953Z</time></trkpt><trkpt lat="44.24919592361126" lon="10.708947043773914"><ele>766.0</ele><time>2026-05-02T13:20:41.953Z</time></trkpt><trkpt lat="44.24910302317824" lon="10.708911291531429"><ele>766.0</ele><time>2026-05-02T13:20:42.953Z</time></trkpt><trkpt lat="44.249015270459736" lon="10.708888063946615"><ele>766.0</ele><time>2026-05-02T13:20:43.953Z</time></trkpt><trkpt lat="44.2489293117991" lon="10.708907405782572"><ele>766.0</ele><time>2026-05-02T13:20:44.953Z</time></trkpt><trkpt lat="44.24886736171146" lon="10.708980023183614"><ele>769.2857142857142</ele><time>2026-05-02T13:20:45.953Z</time></trkpt><trkpt lat="44.248812618323726" lon="10.709055930867633"><ele>772.5714285714286</ele><time>2026-05-02T13:20:46.953Z</time></trkpt><trkpt lat="44.24875176001398" lon="10.709112962819162"><ele>775.8571428571429</ele><time>2026-05-02T13:20:47.953Z</time></trkpt><trkpt lat="44.24868692531724" lon="10.709140619729704"><ele>779.1428571428571</ele><time>2026-05-02T13:20:48.953Z</time></trkpt><trkpt lat="44.24861907253532" lon="10.709145095956874"><ele>782.4285714285714</ele><time>2026-05-02T13:20:49.953Z</time></trkpt><trkpt lat="44.248550697760926" lon="10.709139812954747"><ele>785.7142857142857</ele><time>2026-05-02T13:20:50.953Z</time></trkpt><trkpt lat="44.24847790786338" lon="10.709141788893664"><ele>789.0</ele><time>2026-05-02T13:20:51.953Z</time></trkpt><trkpt lat="44.24840682539916" lon="10.709152943845481"><ele>789.0</ele><time>2026-05-02T13:20:52.953Z</time></trkpt><trkpt lat="44.248325461861086" lon="10.709192550002136"><ele>789.0</ele><time>2026-05-02T13:20:53.953Z</time></trkpt><trkpt lat="44.24825055303879" lon="10.70926066998254"><ele>789.0</ele><time>2026-05-02T13:20:54.953Z</time></trkpt><trkpt lat="44.2481678798255" lon="10.709341339849706"><ele>789.0</ele><time>2026-05-02T13:20:55.953Z</time></trkpt><trkpt lat="44.24808670802323" lon="10.70942016653807"><ele>789.0</ele><time>2026-05-02T13:20:56.953Z</time></trkpt><trkpt lat="44.248000094628566" lon="10.709496763553497"><ele>788.1666666666666</ele><time>2026-05-02T13:20:57.953Z</time></trkpt><trkpt lat="44.24791893095046" lon="10.70957324310061"><ele>787.3333333333333</ele><time>2026-05-02T13:20:58.953Z</time></trkpt><trkpt lat="44.24783717460164" lon="10.709633573520755"><ele>786.5</ele><time>2026-05-02T13:20:59.953Z</time></trkpt><trkpt lat="44.24775700391588" lon="10.709669596988006"><ele>785.6666666666666</ele><time>2026-05-02T13:21:00.953Z</time></trkpt><trkpt lat="44.247678084107854" lon="10.70970470429285"><ele>784.8333333333333</ele><time>2026-05-02T13:21:01.953Z</time></trkpt><trkpt lat="44.24760551797091" lon="10.709765266016198"><ele>784.0</ele><time>2026-05-02T13:21:02.953Z</time></trkpt><trkpt lat="44.24754937192181" lon="10.709856283873899"><ele>783.9999999999999</ele><time>2026-05-02T13:21:03.953Z</time></trkpt><trkpt lat="44.24749892883254" lon="10.709957492967911"><ele>784.0</ele><time>2026-05-02T13:21:04.953Z</time></trkpt><trkpt lat="44.247473426617844" lon="10.710072818999837"><ele>784.0</ele><time>2026-05-02T13:21:05.953Z</time></trkpt><trkpt lat="44.24748666630705" lon="10.710186124811583"><ele>784.0</ele><time>2026-05-02T13:21:06.953Z</time></trkpt><trkpt lat="44.24750419419873" lon="10.710314928772917"><ele>783.9999999999999</ele><time>2026-05-02T13:21:07.953Z</time></trkpt><trkpt lat="44.247535309425906" lon="10.710431874958264"><ele>784.0</ele><time>2026-05-02T13:21:08.953Z</time></trkpt><trkpt lat="44.24758252244035" lon="10.710515798808485"><ele>786.4000000000001</ele><time>2026-05-02T13:21:09.953Z</time></trkpt><trkpt lat="44.24765606652187" lon="10.710577452988117"><ele>788.8</ele><time>2026-05-02T13:21:10.953Z</time></trkpt><trkpt lat="44.24773271348881" lon="10.71060849889924"><ele>791.2</ele><time>2026-05-02T13:21:11.953Z</time></trkpt><trkpt lat="44.24781553273279" lon="10.710667885809531"><ele>793.5999999999999</ele><time>2026-05-02T13:21:12.953Z</time></trkpt><trkpt lat="44.247887346981464" lon="10.710759377152828"><ele>796.0</ele><time>2026-05-02T13:21:13.953Z</time></trkpt><trkpt lat="44.24794184121159" lon="10.71087608412812"><ele>796.0</ele><time>2026-05-02T13:21:14.953Z</time></trkpt><trkpt lat="44.2479886469732" lon="10.711013462932431"><ele>796.0</ele><time>2026-05-02T13:21:15.953Z</time></trkpt><trkpt lat="44.248052860487235" lon="10.711146676337856"><ele>796.0</ele><time>2026-05-02T13:21:16.953Z</time></trkpt><trkpt lat="44.2480963452595" lon="10.711292266593096"><ele>796.0</ele><time>2026-05-02T13:21:17.953Z</time></trkpt><trkpt lat="44.24813564676303" lon="10.711442353645863"><ele>795.5</ele><time>2026-05-02T13:21:18.953Z</time></trkpt><trkpt lat="44.24816733189189" lon="10.711590679635808"><ele>795.0</ele><time>2026-05-02T13:21:19.953Z</time></trkpt><trkpt lat="44.24821340774573" lon="10.711735251215377"><ele>794.5</ele><time>2026-05-02T13:21:20.953Z</time></trkpt><trkpt lat="44.2482560771743" lon="10.71188162137908"><ele>794.0</ele><time>2026-05-02T13:21:21.953Z</time></trkpt><trkpt lat="44.24830634763164" lon="10.712028807026886"><ele>794.0</ele><time>2026-05-02T13:21:22.953Z</time></trkpt><trkpt lat="44.24836058449049" lon="10.712178848485081"><ele>794.0</ele><time>2026-05-02T13:21:23.953Z</time></trkpt><trkpt lat="44.248420755904114" lon="10.712336881013504"><ele>794.0</ele><time>2026-05-02T13:21:24.953Z</time></trkpt><trkpt lat="44.24849485906355" lon="10.712475829125689"><ele>794.0</ele><time>2026-05-02T13:21:25.953Z</time></trkpt><trkpt lat="44.24856533582312" lon="10.712597272535524"><ele>794.0</ele><time>2026-05-02T13:21:26.953Z</time></trkpt><trkpt lat="44.24862950253376" lon="10.712704450131325"><ele>794.0</ele><time>2026-05-02T13:21:27.953Z</time></trkpt><trkpt lat="44.248682732932686" lon="10.712813984094781"><ele>794.0</ele><time>2026-05-02T13:21:28.954Z</time></trkpt><trkpt lat="44.248722616454515" lon="10.712919984362903"><ele>794.0</ele><time>2026-05-02T13:21:29.954Z</time></trkpt><trkpt lat="44.24873682213213" lon="10.713021698235144"><ele>794.0</ele><time>2026-05-02T13:21:30.954Z</time></trkpt><trkpt lat="44.24865826740264" lon="10.713131711668936"><ele>794.0</ele><time>2026-05-02T13:21:32.954Z</time></trkpt><trkpt lat="44.2485748610438" lon="10.713044882973872"><ele>794.0</ele><time>2026-05-02T13:21:34.95Z</time></trkpt><trkpt lat="44.24852699417955" lon="10.712881650606365"><ele>794.0</ele><time>2026-05-02T13:21:36.95Z</time></trkpt><trkpt lat="44.248477836461355" lon="10.712772234335652"><ele>794.0</ele><time>2026-05-02T13:21:37.95Z</time></trkpt><trkpt lat="44.24842917626257" lon="10.7126606667529"><ele>794.0</ele><time>2026-05-02T13:21:38.95Z</time></trkpt><trkpt lat="44.24836998384141" lon="10.712547095221781"><ele>794.0</ele><time>2026-05-02T13:21:39.95Z</time></trkpt><trkpt lat="44.248316014471435" lon="10.712441136060253"><ele>794.0</ele><time>2026-05-02T13:21:40.95Z</time></trkpt><trkpt lat="44.248260107714906" lon="10.71233376739674"><ele>794.0</ele><time>2026-05-02T13:21:41.95Z</time></trkpt><trkpt lat="44.24820459329404" lon="10.712233301281186"><ele>794.0</ele><time>2026-05-02T13:21:42.95Z</time></trkpt><trkpt lat="44.248151867376826" lon="10.712131125902786"><ele>794.0</ele><time>2026-05-02T13:21:43.949Z</time></trkpt><trkpt lat="44.24808601468903" lon="10.712040623719892"><ele>799.1666666666667</ele><time>2026-05-02T13:21:44.949Z</time></trkpt><trkpt lat="44.24802357875638" lon="10.712011174256034"><ele>804.3333333333334</ele><time>2026-05-02T13:21:45.95Z</time></trkpt><trkpt lat="44.24791811133451" lon="10.712092301877433"><ele>809.5</ele><time>2026-05-02T13:21:47.95Z</time></trkpt><trkpt lat="44.24790982046534" lon="10.712191096599113"><ele>814.6666666666667</ele><time>2026-05-02T13:21:48.95Z</time></trkpt><trkpt lat="44.24794758262075" lon="10.712261769514784"><ele>819.8333333333334</ele><time>2026-05-02T13:21:49.95Z</time></trkpt><trkpt lat="44.24801292950986" lon="10.712326665225863"><ele>825.0</ele><time>2026-05-02T13:21:50.95Z</time></trkpt><trkpt lat="44.248078752362396" lon="10.712398037952292"><ele>821.4</ele><time>2026-05-02T13:21:51.95Z</time></trkpt><trkpt lat="44.248147856092714" lon="10.712495928042951"><ele>817.8</ele><time>2026-05-02T13:21:52.95Z</time></trkpt><trkpt lat="44.24821469692077" lon="10.712607683663837"><ele>814.2</ele><time>2026-05-02T13:21:53.95Z</time></trkpt><trkpt lat="44.248283704146694" lon="10.712733555706706"><ele>810.6</ele><time>2026-05-02T13:21:54.95Z</time></trkpt><trkpt lat="44.248340723835895" lon="10.71287582458067"><ele>807.0</ele><time>2026-05-02T13:21:55.95Z</time></trkpt><trkpt lat="44.248399709236274" lon="10.713012572991719"><ele>807.0</ele><time>2026-05-02T13:21:56.95Z</time></trkpt><trkpt lat="44.248465503498736" lon="10.713147267520084"><ele>807.0</ele><time>2026-05-02T13:21:57.95Z</time></trkpt><trkpt lat="44.24851669132115" lon="10.713277131936586"><ele>807.0</ele><time>2026-05-02T13:21:58.95Z</time></trkpt><trkpt lat="44.248565996606075" lon="10.713411012341428"><ele>807.0</ele><time>2026-05-02T13:21:59.95Z</time></trkpt><trkpt lat="44.2486051219937" lon="10.713552817275009"><ele>807.0</ele><time>2026-05-02T13:22:00.95Z</time></trkpt><trkpt lat="44.24864803246347" lon="10.713699211847386"><ele>806.0</ele><time>2026-05-02T13:22:01.95Z</time></trkpt><trkpt lat="44.24867909699491" lon="10.713838707163715"><ele>805.0</ele><time>2026-05-02T13:22:02.95Z</time></trkpt><trkpt lat="44.24872905124961" lon="10.713968206307833"><ele>804.0</ele><time>2026-05-02T13:22:03.95Z</time></trkpt><trkpt lat="44.24880242713748" lon="10.714071360104224"><ele>803.0</ele><time>2026-05-02T13:22:04.95Z</time></trkpt><trkpt lat="44.24888839235672" lon="10.71415065348104"><ele>802.0</ele><time>2026-05-02T13:22:05.95Z</time></trkpt><trkpt lat="44.24897317556643" lon="10.714212997272108"><ele>801.9999999999999</ele><time>2026-05-02T13:22:06.95Z</time></trkpt><trkpt lat="44.24902666912538" lon="10.714275858985678"><ele>802.0</ele><time>2026-05-02T13:22:07.95Z</time></trkpt><trkpt lat="44.24903852311723" lon="10.714416573888448"><ele>802.0</ele><time>2026-05-02T13:22:09.95Z</time></trkpt><trkpt lat="44.24894858482219" lon="10.71450362748358"><ele>802.0</ele><time>2026-05-02T13:22:11.95Z</time></trkpt><trkpt lat="44.24888099396268" lon="10.714475561845891"><ele>801.9999999999999</ele><time>2026-05-02T13:22:12.95Z</time></trkpt><trkpt lat="44.248815958078225" lon="10.714427059075371"><ele>802.0</ele><time>2026-05-02T13:22:13.95Z</time></trkpt><trkpt lat="44.2487412991597" lon="10.714367020129584"><ele>805.2</ele><time>2026-05-02T13:22:14.95Z</time></trkpt><trkpt lat="44.24866690374147" lon="10.71430376017433"><ele>808.4000000000001</ele><time>2026-05-02T13:22:15.95Z</time></trkpt><trkpt lat="44.248588457315215" lon="10.714236962271988"><ele>811.5999999999999</ele><time>2026-05-02T13:22:16.95Z</time></trkpt><trkpt lat="44.248509435194315" lon="10.714158231866726"><ele>814.8</ele><time>2026-05-02T13:22:17.95Z</time></trkpt><trkpt lat="44.24842885224112" lon="10.714079960817264"><ele>818.0</ele><time>2026-05-02T13:22:18.95Z</time></trkpt><trkpt lat="44.248364105485344" lon="10.713989397103434"><ele>818.0</ele><time>2026-05-02T13:22:19.95Z</time></trkpt><trkpt lat="44.24831694666575" lon="10.713882207158623"><ele>818.0</ele><time>2026-05-02T13:22:20.95Z</time></trkpt><trkpt lat="44.24827411715859" lon="10.713762295272616"><ele>818.0</ele><time>2026-05-02T13:22:21.95Z</time></trkpt><trkpt lat="44.2482548881606" lon="10.713639584677606"><ele>818.0</ele><time>2026-05-02T13:22:22.95Z</time></trkpt><trkpt lat="44.248228701577055" lon="10.713521568424513"><ele>818.0</ele><time>2026-05-02T13:22:23.95Z</time></trkpt><trkpt lat="44.24820136865893" lon="10.713407588542132"><ele>815.8</ele><time>2026-05-02T13:22:24.95Z</time></trkpt><trkpt lat="44.24817354934319" lon="10.713309535117325"><ele>813.5999999999999</ele><time>2026-05-02T13:22:25.95Z</time></trkpt><trkpt lat="44.24812120322728" lon="10.71314290261659"><ele>811.4000000000001</ele><time>2026-05-02T13:22:27.95Z</time></trkpt><trkpt lat="44.248031361468755" lon="10.713040409820744"><ele>809.2</ele><time>2026-05-02T13:22:29.95Z</time></trkpt><trkpt lat="44.24792413743955" lon="10.713050605579655"><ele>807.0</ele><time>2026-05-02T13:22:31.95Z</time></trkpt><trkpt lat="44.247883771671866" lon="10.71317266059554"><ele>812.1666666666666</ele><time>2026-05-02T13:22:33.95Z</time></trkpt><trkpt lat="44.24790170692285" lon="10.713258647500927"><ele>817.3333333333333</ele><time>2026-05-02T13:22:34.95Z</time></trkpt><trkpt lat="44.24793697436552" lon="10.713342481531324"><ele>822.5</ele><time>2026-05-02T13:22:35.95Z</time></trkpt><trkpt lat="44.24798350611765" lon="10.713430591531631"><ele>827.6666666666666</ele><time>2026-05-02T13:22:36.95Z</time></trkpt><trkpt lat="44.248015722168546" lon="10.713536351713703"><ele>832.8333333333333</ele><time>2026-05-02T13:22:37.95Z</time></trkpt><trkpt lat="44.24802843802721" lon="10.713641057299872"><ele>838.0</ele><time>2026-05-02T13:22:38.95Z</time></trkpt><trkpt lat="44.24802899397655" lon="10.713758650205522"><ele>837.1666666666666</ele><time>2026-05-02T13:22:39.951Z</time></trkpt><trkpt lat="44.248023124952354" lon="10.713878581094995"><ele>836.3333333333333</ele><time>2026-05-02T13:22:40.951Z</time></trkpt><trkpt lat="44.24803216203549" lon="10.713997346762222"><ele>835.5</ele><time>2026-05-02T13:22:41.951Z</time></trkpt><trkpt lat="44.2480526938775" lon="10.714122655731432"><ele>834.6666666666667</ele><time>2026-05-02T13:22:42.951Z</time></trkpt><trkpt lat="44.24808218880149" lon="10.714232505774287"><ele>833.8333333333334</ele><time>2026-05-02T13:22:43.951Z</time></trkpt><trkpt lat="44.24812340447578" lon="10.714337469901208"><ele>833.0</ele><time>2026-05-02T13:22:44.951Z</time></trkpt><trkpt lat="44.24815698911864" lon="10.714431447224925"><ele>833.0</ele><time>2026-05-02T13:22:45.951Z</time></trkpt><trkpt lat="44.24819926275715" lon="10.714532787942156"><ele>833.0</ele><time>2026-05-02T13:22:46.951Z</time></trkpt><trkpt lat="44.24825285527103" lon="10.71463132533571"><ele>833.0</ele><time>2026-05-02T13:22:47.951Z</time></trkpt><trkpt lat="44.248310027702" lon="10.714738526143446"><ele>833.0</ele><time>2026-05-02T13:22:48.951Z</time></trkpt><trkpt lat="44.24835359734298" lon="10.714861424593126"><ele>833.0</ele><time>2026-05-02T13:22:49.951Z</time></trkpt><trkpt lat="44.24840355037046" lon="10.714992458161785"><ele>833.0</ele><time>2026-05-02T13:22:50.951Z</time></trkpt><trkpt lat="44.24845359586072" lon="10.715120953092226"><ele>833.0</ele><time>2026-05-02T13:22:51.951Z</time></trkpt><trkpt lat="44.24851008256003" lon="10.715247531553949"><ele>833.0</ele><time>2026-05-02T13:22:52.951Z</time></trkpt><trkpt lat="44.24856400104054" lon="10.715372819522196"><ele>833.0</ele><time>2026-05-02T13:22:53.951Z</time></trkpt><trkpt lat="44.2486212048013" lon="10.71550467296946"><ele>833.0</ele><time>2026-05-02T13:22:54.951Z</time></trkpt><trkpt lat="44.24867237412941" lon="10.715628659841817"><ele>833.1666666666667</ele><time>2026-05-02T13:22:55.951Z</time></trkpt><trkpt lat="44.248725151618494" lon="10.715740752768005"><ele>833.3333333333334</ele><time>2026-05-02T13:22:56.951Z</time></trkpt><trkpt lat="44.24879119520884" lon="10.715832435844282"><ele>833.5</ele><time>2026-05-02T13:22:57.951Z</time></trkpt><trkpt lat="44.24887300936019" lon="10.715874168575978"><ele>833.6666666666667</ele><time>2026-05-02T13:22:58.951Z</time></trkpt><trkpt lat="44.248958246537704" lon="10.715848834273254"><ele>833.8333333333334</ele><time>2026-05-02T13:22:59.951Z</time></trkpt><trkpt lat="44.24903391480296" lon="10.71580394816573"><ele>834.0</ele><time>2026-05-02T13:23:00.951Z</time></trkpt><trkpt lat="44.249098565133224" lon="10.715729636706198"><ele>834.0</ele><time>2026-05-02T13:23:01.951Z</time></trkpt><trkpt lat="44.2491726366744" lon="10.71565351692253"><ele>834.0</ele><time>2026-05-02T13:23:02.951Z</time></trkpt><trkpt lat="44.24924620074171" lon="10.715566415783721"><ele>834.0</ele><time>2026-05-02T13:23:03.951Z</time></trkpt><trkpt lat="44.24932497157596" lon="10.71547893042331"><ele>834.0</ele><time>2026-05-02T13:23:04.951Z</time></trkpt><trkpt lat="44.24940207783916" lon="10.715386901559024"><ele>834.0</ele><time>2026-05-02T13:23:05.951Z</time></trkpt><trkpt lat="44.24948170594232" lon="10.715298252198497"><ele>834.0</ele><time>2026-05-02T13:23:06.951Z</time></trkpt><trkpt lat="44.249553142612406" lon="10.715227982083174"><ele>834.0</ele><time>2026-05-02T13:23:07.951Z</time></trkpt><trkpt lat="44.249622244824536" lon="10.715174846449242"><ele>834.0</ele><time>2026-05-02T13:23:08.951Z</time></trkpt><trkpt lat="44.249712147518" lon="10.715149423229887"><ele>834.0</ele><time>2026-05-02T13:23:10.951Z</time></trkpt><trkpt lat="44.249776033949985" lon="10.715200506106049"><ele>834.0</ele><time>2026-05-02T13:23:12.951Z</time></trkpt><trkpt lat="44.24977942493733" lon="10.715334820217166"><ele>834.0</ele><time>2026-05-02T13:23:14.951Z</time></trkpt><trkpt lat="44.24973134492938" lon="10.715406016453555"><ele>834.0</ele><time>2026-05-02T13:23:15.951Z</time></trkpt><trkpt lat="44.249662014096195" lon="10.715440400594257"><ele>834.0</ele><time>2026-05-02T13:23:16.951Z</time></trkpt><trkpt lat="44.24960321181224" lon="10.715493014412907"><ele>834.0</ele><time>2026-05-02T13:23:17.951Z</time></trkpt><trkpt lat="44.24954027724949" lon="10.715555191421199"><ele>834.0</ele><time>2026-05-02T13:23:18.951Z</time></trkpt><trkpt lat="44.249471668699904" lon="10.715626544228762"><ele>834.0</ele><time>2026-05-02T13:23:19.951Z</time></trkpt><trkpt lat="44.24940192080926" lon="10.715711490789298"><ele>834.0</ele><time>2026-05-02T13:23:20.951Z</time></trkpt><trkpt lat="44.249341177259" lon="10.715805936221344"><ele>834.0</ele><time>2026-05-02T13:23:21.951Z</time></trkpt><trkpt lat="44.249299409335606" lon="10.715909209049915"><ele>834.0</ele><time>2026-05-02T13:23:22.951Z</time></trkpt><trkpt lat="44.24926369270375" lon="10.716007981952538"><ele>834.0</ele><time>2026-05-02T13:23:23.951Z</time></trkpt><trkpt lat="44.249228976736994" lon="10.716107123208705"><ele>834.0</ele><time>2026-05-02T13:23:24.951Z</time></trkpt><trkpt lat="44.24918525747741" lon="10.716207471704447"><ele>834.0</ele><time>2026-05-02T13:23:25.951Z</time></trkpt><trkpt lat="44.24914236587211" lon="10.716315545553607"><ele>834.0</ele><time>2026-05-02T13:23:26.95Z</time></trkpt><trkpt lat="44.24909938598668" lon="10.71642946841541"><ele>836.8000000000001</ele><time>2026-05-02T13:23:27.95Z</time></trkpt><trkpt lat="44.24905960966798" lon="10.716533532354926"><ele>839.6</ele><time>2026-05-02T13:23:28.95Z</time></trkpt><trkpt lat="44.24901351591035" lon="10.716618668262319"><ele>842.4</ele><time>2026-05-02T13:23:29.95Z</time></trkpt><trkpt lat="44.248965180883445" lon="10.716679314201874"><ele>845.2</ele><time>2026-05-02T13:23:30.95Z</time></trkpt><trkpt lat="44.248851007893954" lon="10.716709737095409"><ele>848.0</ele><time>2026-05-02T13:23:32.95Z</time></trkpt><trkpt lat="44.24872400782613" lon="10.716660992860835"><ele>848.0000000000001</ele><time>2026-05-02T13:23:34.95Z</time></trkpt><trkpt lat="44.24865103611868" lon="10.716633416794474"><ele>848.0</ele><time>2026-05-02T13:23:35.95Z</time></trkpt><trkpt lat="44.24857608436783" lon="10.716605402571233"><ele>848.0</ele><time>2026-05-02T13:23:36.95Z</time></trkpt><trkpt lat="44.24850017712884" lon="10.71656254707347"><ele>848.0</ele><time>2026-05-02T13:23:37.95Z</time></trkpt><trkpt lat="44.248427754923185" lon="10.716510045094061"><ele>848.0000000000001</ele><time>2026-05-02T13:23:38.95Z</time></trkpt><trkpt lat="44.24836915109653" lon="10.716439910339826"><ele>848.0</ele><time>2026-05-02T13:23:39.946Z</time></trkpt><trkpt lat="44.24831525033279" lon="10.71635239957419"><ele>848.0000000000001</ele><time>2026-05-02T13:23:40.946Z</time></trkpt><trkpt lat="44.24828316208548" lon="10.71626990227781"><ele>848.0</ele><time>2026-05-02T13:23:41.946Z</time></trkpt><trkpt lat="44.24823943397235" lon="10.716181889280833"><ele>848.0</ele><time>2026-05-02T13:23:42.946Z</time></trkpt><trkpt lat="44.2481813019413" lon="10.71608011298367"><ele>848.0</ele><time>2026-05-02T13:23:43.946Z</time></trkpt><trkpt lat="44.24813011687462" lon="10.715978501225257"><ele>848.0000000000001</ele><time>2026-05-02T13:23:44.946Z</time></trkpt><trkpt lat="44.2480696685503" lon="10.71587064852227"><ele>848.0</ele><time>2026-05-02T13:23:45.945Z</time></trkpt><trkpt lat="44.248017650128226" lon="10.715772262826768"><ele>849.0</ele><time>2026-05-02T13:23:46.945Z</time></trkpt><trkpt lat="44.247972742305485" lon="10.715680542448517"><ele>850.0</ele><time>2026-05-02T13:23:47.945Z</time></trkpt><trkpt lat="44.247930583747646" lon="10.715587980916226"><ele>851.0</ele><time>2026-05-02T13:23:48.946Z</time></trkpt><trkpt lat="44.247878656495395" lon="10.715510334428695"><ele>852.0</ele><time>2026-05-02T13:23:49.946Z</time></trkpt><trkpt lat="44.247820253158125" lon="10.71546217359062"><ele>853.0</ele><time>2026-05-02T13:23:50.946Z</time></trkpt><trkpt lat="44.24775392095128" lon="10.715437918175558"><ele>854.0</ele><time>2026-05-02T13:23:51.946Z</time></trkpt><trkpt lat="44.247689208340546" lon="10.715436738501953"><ele>855.0</ele><time>2026-05-02T13:23:52.946Z</time></trkpt><trkpt lat="44.24762097120534" lon="10.71547348427313"><ele>855.0</ele><time>2026-05-02T13:23:53.946Z</time></trkpt><trkpt lat="44.247552271249425" lon="10.715528690357704"><ele>855.0</ele><time>2026-05-02T13:23:54.946Z</time></trkpt><trkpt lat="44.24748093666606" lon="10.715598958212668"><ele>855.0</ele><time>2026-05-02T13:23:55.946Z</time></trkpt><trkpt lat="44.247422770903505" lon="10.71566728650777"><ele>855.0</ele><time>2026-05-02T13:23:56.946Z</time></trkpt><trkpt lat="44.24737331781446" lon="10.715746951219352"><ele>855.0</ele><time>2026-05-02T13:23:57.946Z</time></trkpt><trkpt lat="44.24734761658393" lon="10.71585409306658"><ele>855.0</ele><time>2026-05-02T13:23:58.946Z</time></trkpt><trkpt lat="44.24734751567653" lon="10.715967248153085"><ele>855.0</ele><time>2026-05-02T13:23:59.946Z</time></trkpt><trkpt lat="44.24736540596671" lon="10.71606657786838"><ele>855.0</ele><time>2026-05-02T13:24:00.946Z</time></trkpt><trkpt lat="44.24738658791164" lon="10.716160555849289"><ele>855.0</ele><time>2026-05-02T13:24:01.946Z</time></trkpt><trkpt lat="44.24741183847568" lon="10.71625978427571"><ele>855.0</ele><time>2026-05-02T13:24:02.946Z</time></trkpt><trkpt lat="44.2474722674534" lon="10.716375600892704"><ele>855.0</ele><time>2026-05-02T13:24:04.946Z</time></trkpt><trkpt lat="44.24745406019293" lon="10.716480737291471"><ele>855.0</ele><time>2026-05-02T13:24:09.946Z</time></trkpt><trkpt lat="44.247380566546326" lon="10.71654440787215"><ele>855.8</ele><time>2026-05-02T13:24:12.946Z</time></trkpt><trkpt lat="44.24729827732691" lon="10.716486320876944"><ele>856.6</ele><time>2026-05-02T13:24:15.946Z</time></trkpt><trkpt lat="44.24724075913549" lon="10.716384045825068"><ele>857.4000000000001</ele><time>2026-05-02T13:24:17.946Z</time></trkpt><trkpt lat="44.247166034404465" lon="10.71625777772528"><ele>858.2</ele><time>2026-05-02T13:24:19.946Z</time></trkpt><trkpt lat="44.247130497684864" lon="10.716178452734049"><ele>859.0</ele><time>2026-05-02T13:24:20.946Z</time></trkpt><trkpt lat="44.24707467778111" lon="10.71605582888805"><ele>860.8333333333333</ele><time>2026-05-02T13:24:21.946Z</time></trkpt><trkpt lat="44.24703276387489" lon="10.715965461757078"><ele>862.6666666666666</ele><time>2026-05-02T13:24:22.946Z</time></trkpt><trkpt lat="44.24696974666622" lon="10.715819117668508"><ele>864.5</ele><time>2026-05-02T13:24:24.946Z</time></trkpt><trkpt lat="44.24692724389351" lon="10.715714728615236"><ele>866.3333333333333</ele><time>2026-05-02T13:24:25.946Z</time></trkpt><trkpt lat="44.24688651583464" lon="10.715627531384069"><ele>868.1666666666666</ele><time>2026-05-02T13:24:26.946Z</time></trkpt><trkpt lat="44.246836177914716" lon="10.715526715051524"><ele>870.0</ele><time>2026-05-02T13:24:27.946Z</time></trkpt><trkpt lat="44.24677696749687" lon="10.715422941677026"><ele>870.0</ele><time>2026-05-02T13:24:28.946Z</time></trkpt><trkpt lat="44.24672093789444" lon="10.71533269647759"><ele>870.0</ele><time>2026-05-02T13:24:29.946Z</time></trkpt><trkpt lat="44.246646042551454" lon="10.715211201563672"><ele>870.0</ele><time>2026-05-02T13:24:31.946Z</time></trkpt><trkpt lat="44.24657410254653" lon="10.715143742422175"><ele>870.0</ele><time>2026-05-02T13:24:33.946Z</time></trkpt><trkpt lat="44.246469429265176" lon="10.715125781682659"><ele>870.0</ele><time>2026-05-02T13:24:35.946Z</time></trkpt><trkpt lat="44.24638900990411" lon="10.715137004658065"><ele>870.2</ele><time>2026-05-02T13:24:36.946Z</time></trkpt><trkpt lat="44.246268659390886" lon="10.715095716378178"><ele>870.4</ele><time>2026-05-02T13:24:38.946Z</time></trkpt><trkpt lat="44.24617529780534" lon="10.71502299540469"><ele>870.5999999999999</ele><time>2026-05-02T13:24:40.946Z</time></trkpt><trkpt lat="44.24607922748003" lon="10.7149489859843"><ele>870.8</ele><time>2026-05-02T13:24:42.946Z</time></trkpt><trkpt lat="44.24602083382652" lon="10.714913492683252"><ele>871.0</ele><time>2026-05-02T13:24:43.946Z</time></trkpt><trkpt lat="44.245959355324835" lon="10.714879030568838"><ele>871.0</ele><time>2026-05-02T13:24:44.946Z</time></trkpt><trkpt lat="44.24586727661464" lon="10.714805612693477"><ele>870.9999999999999</ele><time>2026-05-02T13:24:46.946Z</time></trkpt><trkpt lat="44.245760971683026" lon="10.71479380989262"><ele>870.9999999999999</ele><time>2026-05-02T13:24:48.946Z</time></trkpt><trkpt lat="44.24565418952823" lon="10.714845119894065"><ele>871.0</ele><time>2026-05-02T13:24:50.946Z</time></trkpt><trkpt lat="44.24559901857081" lon="10.714888050942424"><ele>871.0</ele><time>2026-05-02T13:24:51.946Z</time></trkpt><trkpt lat="44.24554255251117" lon="10.71502292945556"><ele>871.5999999999999</ele><time>2026-05-02T13:24:53.947Z</time></trkpt><trkpt lat="44.24554460954365" lon="10.71514885071066"><ele>872.1999999999999</ele><time>2026-05-02T13:24:55.947Z</time></trkpt><trkpt lat="44.24555261728395" lon="10.715298761851317"><ele>872.8000000000001</ele><time>2026-05-02T13:24:57.947Z</time></trkpt><trkpt lat="44.24556568145607" lon="10.715424224906238"><ele>873.4000000000001</ele><time>2026-05-02T13:24:59.947Z</time></trkpt><trkpt lat="44.24555925955992" lon="10.715543031009332"><ele>874.0</ele><time>2026-05-02T13:25:01.947Z</time></trkpt><trkpt lat="44.2455710767932" lon="10.715686595395916"><ele>875.1666666666666</ele><time>2026-05-02T13:25:03.947Z</time></trkpt><trkpt lat="44.245580722611365" lon="10.715776468588775"><ele>876.3333333333333</ele><time>2026-05-02T13:25:04.947Z</time></trkpt><trkpt lat="44.24560236399639" lon="10.715874814838315"><ele>877.5</ele><time>2026-05-02T13:25:05.947Z</time></trkpt><trkpt lat="44.24564784345018" lon="10.715978887008927"><ele>878.6666666666667</ele><time>2026-05-02T13:25:06.947Z</time></trkpt><trkpt lat="44.2456962243102" lon="10.716087549601662"><ele>879.8333333333334</ele><time>2026-05-02T13:25:07.947Z</time></trkpt><trkpt lat="44.24575019771117" lon="10.716188626875041"><ele>881.0</ele><time>2026-05-02T13:25:08.947Z</time></trkpt><trkpt lat="44.24580080513902" lon="10.716289194987814"><ele>882.0</ele><time>2026-05-02T13:25:09.947Z</time></trkpt><trkpt lat="44.245851142953605" lon="10.716390192636501"><ele>882.9999999999999</ele><time>2026-05-02T13:25:10.947Z</time></trkpt><trkpt lat="44.2458982941297" lon="10.71649718783447"><ele>883.9999999999999</ele><time>2026-05-02T13:25:11.947Z</time></trkpt><trkpt lat="44.24595334582153" lon="10.716606604526131"><ele>885.0</ele><time>2026-05-02T13:25:12.947Z</time></trkpt><trkpt lat="44.246012408553796" lon="10.716716415040528"><ele>886.0</ele><time>2026-05-02T13:25:13.947Z</time></trkpt><trkpt lat="44.246068736930205" lon="10.71682132754394"><ele>887.5999999999999</ele><time>2026-05-02T13:25:14.947Z</time></trkpt><trkpt lat="44.24612562726193" lon="10.716940472888563"><ele>889.1999999999999</ele><time>2026-05-02T13:25:15.947Z</time></trkpt><trkpt lat="44.24618377536972" lon="10.717064899905195"><ele>890.8000000000001</ele><time>2026-05-02T13:25:16.947Z</time></trkpt><trkpt lat="44.24624604399151" lon="10.71718480424382"><ele>892.4000000000001</ele><time>2026-05-02T13:25:17.947Z</time></trkpt><trkpt lat="44.24630412066369" lon="10.717303038060637"><ele>894.0</ele><time>2026-05-02T13:25:18.947Z</time></trkpt><trkpt lat="44.24636237782038" lon="10.71742078220732"><ele>894.0</ele><time>2026-05-02T13:25:19.947Z</time></trkpt><trkpt lat="44.24641833254904" lon="10.717531123720448"><ele>894.0000000000001</ele><time>2026-05-02T13:25:20.947Z</time></trkpt><trkpt lat="44.246474924341655" lon="10.717634485249622"><ele>894.0000000000001</ele><time>2026-05-02T13:25:21.947Z</time></trkpt><trkpt lat="44.246536791336126" lon="10.71772918486858"><ele>894.0</ele><time>2026-05-02T13:25:22.947Z</time></trkpt><trkpt lat="44.24660514315834" lon="10.717806208869044"><ele>894.0</ele><time>2026-05-02T13:25:23.947Z</time></trkpt><trkpt lat="44.246676589134346" lon="10.717869698021206"><ele>895.0</ele><time>2026-05-02T13:25:24.947Z</time></trkpt><trkpt lat="44.24675559784538" lon="10.717924225850208"><ele>896.0</ele><time>2026-05-02T13:25:25.947Z</time></trkpt><trkpt lat="44.246834899155594" lon="10.717975639445259"><ele>897.0</ele><time>2026-05-02T13:25:26.947Z</time></trkpt><trkpt lat="44.24691086885662" lon="10.718021060627867"><ele>898.0</ele><time>2026-05-02T13:25:27.947Z</time></trkpt><trkpt lat="44.24698654860639" lon="10.718062389237478"><ele>899.0</ele><time>2026-05-02T13:25:28.947Z</time></trkpt><trkpt lat="44.24704991718418" lon="10.71810472262282"><ele>900.0</ele><time>2026-05-02T13:25:29.947Z</time></trkpt><trkpt lat="44.2471161303869" lon="10.718145751904423"><ele>900.0</ele><time>2026-05-02T13:25:30.947Z</time></trkpt><trkpt lat="44.24718876904393" lon="10.718194823021436"><ele>900.0</ele><time>2026-05-02T13:25:31.947Z</time></trkpt><trkpt lat="44.24725897462678" lon="10.718254664538346"><ele>900.0</ele><time>2026-05-02T13:25:32.947Z</time></trkpt><trkpt lat="44.2473211886232" lon="10.7183255364368"><ele>900.0</ele><time>2026-05-02T13:25:33.947Z</time></trkpt><trkpt lat="44.24735887125663" lon="10.718410174650005"><ele>900.0</ele><time>2026-05-02T13:25:34.947Z</time></trkpt><trkpt lat="44.247394039808036" lon="10.718502795538662"><ele>900.0</ele><time>2026-05-02T13:25:35.947Z</time></trkpt><trkpt lat="44.24742597558978" lon="10.718597089711393"><ele>898.5</ele><time>2026-05-02T13:25:36.947Z</time></trkpt><trkpt lat="44.24746075391892" lon="10.718694156094811"><ele>897.0</ele><time>2026-05-02T13:25:37.947Z</time></trkpt><trkpt lat="44.24749279263499" lon="10.718798756465159"><ele>895.5</ele><time>2026-05-02T13:25:38.947Z</time></trkpt><trkpt lat="44.24751916018716" lon="10.718899506005016"><ele>894.0</ele><time>2026-05-02T13:25:39.947Z</time></trkpt><trkpt lat="44.24753808886217" lon="10.719004651362559"><ele>892.5</ele><time>2026-05-02T13:25:40.947Z</time></trkpt><trkpt lat="44.247563323524915" lon="10.719110202388956"><ele>891.0</ele><time>2026-05-02T13:25:41.947Z</time></trkpt><trkpt lat="44.247585626841925" lon="10.719208090510406"><ele>891.0</ele><time>2026-05-02T13:25:42.947Z</time></trkpt><trkpt lat="44.2476055170821" lon="10.71929742546976"><ele>891.0</ele><time>2026-05-02T13:25:43.947Z</time></trkpt><trkpt lat="44.247642965232984" lon="10.719449280644914"><ele>891.0</ele><time>2026-05-02T13:25:45.942Z</time></trkpt><trkpt lat="44.24767651400703" lon="10.719620715481623"><ele>891.0</ele><time>2026-05-02T13:25:47.942Z</time></trkpt><trkpt lat="44.247692149737276" lon="10.719714561065723"><ele>891.0</ele><time>2026-05-02T13:25:48.942Z</time></trkpt><trkpt lat="44.24771452403009" lon="10.719803186596527"><ele>891.0</ele><time>2026-05-02T13:25:49.942Z</time></trkpt><trkpt lat="44.24775090533703" lon="10.719886335938245"><ele>892.0</ele><time>2026-05-02T13:25:50.942Z</time></trkpt><trkpt lat="44.247791070502444" lon="10.71996326265299"><ele>893.0</ele><time>2026-05-02T13:25:51.942Z</time></trkpt><trkpt lat="44.247839679838194" lon="10.720029387337142"><ele>894.0</ele><time>2026-05-02T13:25:52.942Z</time></trkpt><trkpt lat="44.24789765879752" lon="10.72006576885553"><ele>895.0</ele><time>2026-05-02T13:25:53.942Z</time></trkpt><trkpt lat="44.24796633660218" lon="10.720057543087863"><ele>895.9999999999999</ele><time>2026-05-02T13:25:54.942Z</time></trkpt><trkpt lat="44.24802638379785" lon="10.720026786533168"><ele>897.0</ele><time>2026-05-02T13:25:55.941Z</time></trkpt><trkpt lat="44.248087982575505" lon="10.719977227735457"><ele>898.0</ele><time>2026-05-02T13:25:56.941Z</time></trkpt><trkpt lat="44.248148630416374" lon="10.719939944036387"><ele>894.8</ele><time>2026-05-02T13:25:57.942Z</time></trkpt><trkpt lat="44.24824948426454" lon="10.719896551714694"><ele>891.5999999999999</ele><time>2026-05-02T13:25:59.942Z</time></trkpt><trkpt lat="44.24837139977474" lon="10.719880382053239"><ele>888.4000000000001</ele><time>2026-05-02T13:26:01.942Z</time></trkpt><trkpt lat="44.24844080131457" lon="10.719925844049031"><ele>885.2</ele><time>2026-05-02T13:26:02.942Z</time></trkpt><trkpt lat="44.24849743152796" lon="10.719989413123303"><ele>882.0</ele><time>2026-05-02T13:26:03.942Z</time></trkpt><trkpt lat="44.24855751765323" lon="10.720100784677165"><ele>882.5</ele><time>2026-05-02T13:26:05.942Z</time></trkpt><trkpt lat="44.24859034656593" lon="10.720248531085398"><ele>883.0</ele><time>2026-05-02T13:26:07.942Z</time></trkpt><trkpt lat="44.248563223560275" lon="10.720418126321908"><ele>883.5</ele><time>2026-05-02T13:26:09.942Z</time></trkpt><trkpt lat="44.24856208448384" lon="10.720512287215653"><ele>884.0</ele><time>2026-05-02T13:26:10.942Z</time></trkpt><trkpt lat="44.24857822435045" lon="10.720604065907716"><ele>884.5</ele><time>2026-05-02T13:26:11.942Z</time></trkpt><trkpt lat="44.24860653448156" lon="10.72069479603904"><ele>885.0</ele><time>2026-05-02T13:26:12.942Z</time></trkpt><trkpt lat="44.24863234007569" lon="10.72079321693201"><ele>885.0</ele><time>2026-05-02T13:26:13.942Z</time></trkpt><trkpt lat="44.24864824126721" lon="10.720898889966683"><ele>885.0</ele><time>2026-05-02T13:26:14.942Z</time></trkpt><trkpt lat="44.248653282804014" lon="10.721015469336812"><ele>885.0</ele><time>2026-05-02T13:26:15.942Z</time></trkpt><trkpt lat="44.24865651487451" lon="10.721135019628537"><ele>885.0</ele><time>2026-05-02T13:26:16.942Z</time></trkpt><trkpt lat="44.24866140472879" lon="10.721240692525527"><ele>885.0</ele><time>2026-05-02T13:26:17.942Z</time></trkpt><trkpt lat="44.248672341584815" lon="10.72138797288405"><ele>885.0</ele><time>2026-05-02T13:26:19.942Z</time></trkpt><trkpt lat="44.248687746893445" lon="10.721475252790421"><ele>885.0</ele><time>2026-05-02T13:26:21.942Z</time></trkpt><trkpt lat="44.24872738425258" lon="10.721559345957903"><ele>885.0</ele><time>2026-05-02T13:26:25.942Z</time></trkpt><trkpt lat="44.24875173857977" lon="10.721681645447614"><ele>885.0</ele><time>2026-05-02T13:26:28.942Z</time></trkpt><trkpt lat="44.248736337270266" lon="10.72182671933585"><ele>885.0</ele><time>2026-05-02T13:26:30.942Z</time></trkpt><trkpt lat="44.24873834814845" lon="10.721919910801999"><ele>885.0</ele><time>2026-05-02T13:26:31.942Z</time></trkpt><trkpt lat="44.24874268813439" lon="10.722026320392976"><ele>885.0</ele><time>2026-05-02T13:26:32.942Z</time></trkpt><trkpt lat="44.24875181580842" lon="10.722137480459448"><ele>885.0</ele><time>2026-05-02T13:26:33.942Z</time></trkpt><trkpt lat="44.24876079276337" lon="10.722257251022224"><ele>885.0</ele><time>2026-05-02T13:26:34.942Z</time></trkpt><trkpt lat="44.24877040977076" lon="10.722374147431553"><ele>885.0</ele><time>2026-05-02T13:26:35.942Z</time></trkpt><trkpt lat="44.24876330156198" lon="10.722491519074874"><ele>885.0</ele><time>2026-05-02T13:26:36.942Z</time></trkpt><trkpt lat="44.24874150920587" lon="10.722617472740865"><ele>885.0</ele><time>2026-05-02T13:26:37.942Z</time></trkpt><trkpt lat="44.248692998490945" lon="10.722728567970995"><ele>885.0</ele><time>2026-05-02T13:26:38.942Z</time></trkpt><trkpt lat="44.24862931514389" lon="10.722836808157373"><ele>881.75</ele><time>2026-05-02T13:26:39.942Z</time></trkpt><trkpt lat="44.24855239763559" lon="10.722942866656789"><ele>878.5</ele><time>2026-05-02T13:26:40.942Z</time></trkpt><trkpt lat="44.24847395696884" lon="10.723064203478348"><ele>875.25</ele><time>2026-05-02T13:26:41.942Z</time></trkpt><trkpt lat="44.248395045508495" lon="10.723196146864845"><ele>872.0</ele><time>2026-05-02T13:26:42.942Z</time></trkpt><trkpt lat="44.248313242910704" lon="10.723331198847477"><ele>872.0</ele><time>2026-05-02T13:26:43.942Z</time></trkpt><trkpt lat="44.248236036867425" lon="10.723487220758077"><ele>872.0</ele><time>2026-05-02T13:26:44.942Z</time></trkpt><trkpt lat="44.248162023518205" lon="10.72365314801103"><ele>872.0</ele><time>2026-05-02T13:26:45.942Z</time></trkpt><trkpt lat="44.24808585576168" lon="10.723811449009961"><ele>872.0</ele><time>2026-05-02T13:26:46.942Z</time></trkpt><trkpt lat="44.248009516806256" lon="10.72396418749152"><ele>875.5</ele><time>2026-05-02T13:26:47.942Z</time></trkpt><trkpt lat="44.24792587292402" lon="10.724106543027315"><ele>879.0</ele><time>2026-05-02T13:26:48.942Z</time></trkpt><trkpt lat="44.24784667753257" lon="10.724255642734551"><ele>882.5</ele><time>2026-05-02T13:26:49.942Z</time></trkpt><trkpt lat="44.24776978499882" lon="10.724398922620344"><ele>886.0</ele><time>2026-05-02T13:26:50.942Z</time></trkpt><trkpt lat="44.24769011119567" lon="10.724543285342252"><ele>886.0</ele><time>2026-05-02T13:26:51.943Z</time></trkpt><trkpt lat="44.24762084822737" lon="10.7246826431054"><ele>885.9999999999999</ele><time>2026-05-02T13:26:52.943Z</time></trkpt><trkpt lat="44.24755671266727" lon="10.724812214557613"><ele>885.9999999999999</ele><time>2026-05-02T13:26:53.943Z</time></trkpt><trkpt lat="44.247494690060456" lon="10.724927934865129"><ele>886.0</ele><time>2026-05-02T13:26:54.943Z</time></trkpt><trkpt lat="44.24744126657316" lon="10.72502957174816"><ele>886.0</ele><time>2026-05-02T13:26:55.943Z</time></trkpt><trkpt lat="44.24742375787332" lon="10.725147676896276"><ele>884.1666666666666</ele><time>2026-05-02T13:26:56.943Z</time></trkpt><trkpt lat="44.24742336660365" lon="10.72525211591942"><ele>882.3333333333333</ele><time>2026-05-02T13:26:57.943Z</time></trkpt><trkpt lat="44.24745499328362" lon="10.725369016498542"><ele>880.5</ele><time>2026-05-02T13:26:58.943Z</time></trkpt><trkpt lat="44.247505303814215" lon="10.725474272118312"><ele>878.6666666666667</ele><time>2026-05-02T13:26:59.943Z</time></trkpt><trkpt lat="44.247554365067955" lon="10.725578900393359"><ele>876.8333333333334</ele><time>2026-05-02T13:27:00.943Z</time></trkpt><trkpt lat="44.247586777632016" lon="10.725689754759221"><ele>875.0</ele><time>2026-05-02T13:27:01.943Z</time></trkpt><trkpt lat="44.24759623564567" lon="10.725812448574231"><ele>875.0000000000001</ele><time>2026-05-02T13:27:02.943Z</time></trkpt><trkpt lat="44.24757711685206" lon="10.725950597338539"><ele>875.0</ele><time>2026-05-02T13:27:03.943Z</time></trkpt><trkpt lat="44.24751735571047" lon="10.72604617152801"><ele>875.0</ele><time>2026-05-02T13:27:04.943Z</time></trkpt><trkpt lat="44.24744862032025" lon="10.726076094767995"><ele>875.0</ele><time>2026-05-02T13:27:05.943Z</time></trkpt><trkpt lat="44.2473623788873" lon="10.72613327104567"><ele>875.0000000000001</ele><time>2026-05-02T13:27:06.943Z</time></trkpt><trkpt lat="44.247282329890496" lon="10.726180051471653"><ele>875.0</ele><time>2026-05-02T13:27:07.943Z</time></trkpt><trkpt lat="44.247201202919875" lon="10.726221493805319"><ele>880.2</ele><time>2026-05-02T13:27:08.943Z</time></trkpt><trkpt lat="44.247131129365" lon="10.726318389977381"><ele>885.4</ele><time>2026-05-02T13:27:09.943Z</time></trkpt><trkpt lat="44.247081623909835" lon="10.726440614138356"><ele>890.5999999999999</ele><time>2026-05-02T13:27:10.943Z</time></trkpt><trkpt lat="44.24705652933931" lon="10.726562275710762"><ele>895.8</ele><time>2026-05-02T13:27:11.943Z</time></trkpt><trkpt lat="44.24704578491729" lon="10.726681883493677"><ele>901.0</ele><time>2026-05-02T13:27:12.943Z</time></trkpt><trkpt lat="44.24702954069901" lon="10.726826066120175"><ele>899.1999999999999</ele><time>2026-05-02T13:27:13.943Z</time></trkpt><trkpt lat="44.247021777554366" lon="10.72696100469386"><ele>897.3999999999999</ele><time>2026-05-02T13:27:14.943Z</time></trkpt><trkpt lat="44.24704222979805" lon="10.727107801937365"><ele>895.6</ele><time>2026-05-02T13:27:15.943Z</time></trkpt><trkpt lat="44.2470921382073" lon="10.727245738042697"><ele>893.8</ele><time>2026-05-02T13:27:16.943Z</time></trkpt><trkpt lat="44.24715932201553" lon="10.727366417487525"><ele>892.0</ele><time>2026-05-02T13:27:17.943Z</time></trkpt><trkpt lat="44.24722991186043" lon="10.727479157878907"><ele>888.25</ele><time>2026-05-02T13:27:18.943Z</time></trkpt><trkpt lat="44.247309144304026" lon="10.727593406225026"><ele>884.5</ele><time>2026-05-02T13:27:19.943Z</time></trkpt><trkpt lat="44.24738718774877" lon="10.72771534626969"><ele>880.75</ele><time>2026-05-02T13:27:20.943Z</time></trkpt><trkpt lat="44.247463661867265" lon="10.72784534830822"><ele>877.0</ele><time>2026-05-02T13:27:21.943Z</time></trkpt><trkpt lat="44.247547999804205" lon="10.72797026714263"><ele>877.0</ele><time>2026-05-02T13:27:22.943Z</time></trkpt><trkpt lat="44.24763410105101" lon="10.728085277950596"><ele>877.0</ele><time>2026-05-02T13:27:23.943Z</time></trkpt><trkpt lat="44.247712662843114" lon="10.728191571287887"><ele>877.0</ele><time>2026-05-02T13:27:24.943Z</time></trkpt><trkpt lat="44.24778170585702" lon="10.728306029419704"><ele>877.0</ele><time>2026-05-02T13:27:25.943Z</time></trkpt><trkpt lat="44.247825241610215" lon="10.728437788642248"><ele>877.0</ele><time>2026-05-02T13:27:26.943Z</time></trkpt><trkpt lat="44.247838150667775" lon="10.728576867722778"><ele>878.4000000000001</ele><time>2026-05-02T13:27:27.943Z</time></trkpt><trkpt lat="44.24780951326542" lon="10.728720476896974"><ele>879.8000000000001</ele><time>2026-05-02T13:27:28.943Z</time></trkpt><trkpt lat="44.24778578268158" lon="10.728866264100306"><ele>881.2</ele><time>2026-05-02T13:27:29.943Z</time></trkpt><trkpt lat="44.24779109415485" lon="10.729013550821563"><ele>882.6</ele><time>2026-05-02T13:27:30.943Z</time></trkpt><trkpt lat="44.247834148067" lon="10.72914543349665"><ele>884.0</ele><time>2026-05-02T13:27:31.943Z</time></trkpt><trkpt lat="44.2478926940223" lon="10.729267909132533"><ele>884.0</ele><time>2026-05-02T13:27:32.943Z</time></trkpt><trkpt lat="44.24794806262225" lon="10.729385508632879"><ele>884.0000000000001</ele><time>2026-05-02T13:27:33.943Z</time></trkpt><trkpt lat="44.24797958188608" lon="10.729518581653387"><ele>884.0000000000001</ele><time>2026-05-02T13:27:34.943Z</time></trkpt><trkpt lat="44.247998711239745" lon="10.72966151415549"><ele>884.0</ele><time>2026-05-02T13:27:35.943Z</time></trkpt><trkpt lat="44.24800191658657" lon="10.72978927654404"><ele>884.0</ele><time>2026-05-02T13:27:36.943Z</time></trkpt><trkpt lat="44.24797591279786" lon="10.729910439572263"><ele>883.1666666666667</ele><time>2026-05-02T13:27:37.943Z</time></trkpt><trkpt lat="44.24791738042183" lon="10.729986458634418"><ele>882.3333333333334</ele><time>2026-05-02T13:27:38.943Z</time></trkpt><trkpt lat="44.24784655173115" lon="10.73001599753866"><ele>881.5</ele><time>2026-05-02T13:27:39.943Z</time></trkpt><trkpt lat="44.24777411807557" lon="10.730022337994287"><ele>880.6666666666667</ele><time>2026-05-02T13:27:40.943Z</time></trkpt><trkpt lat="44.247692865066725" lon="10.73002053773255"><ele>879.8333333333334</ele><time>2026-05-02T13:27:41.943Z</time></trkpt><trkpt lat="44.24760613936026" lon="10.730016756750645"><ele>879.0</ele><time>2026-05-02T13:27:42.943Z</time></trkpt><trkpt lat="44.247522974908065" lon="10.729990939448598"><ele>879.0</ele><time>2026-05-02T13:27:43.943Z</time></trkpt><trkpt lat="44.24743924128901" lon="10.729943193158208"><ele>879.0000000000001</ele><time>2026-05-02T13:27:44.943Z</time></trkpt><trkpt lat="44.24736087215376" lon="10.729882806601736"><ele>879.0000000000001</ele><time>2026-05-02T13:27:45.943Z</time></trkpt><trkpt lat="44.24728219603326" lon="10.72984079668943"><ele>879.0</ele><time>2026-05-02T13:27:46.943Z</time></trkpt><trkpt lat="44.24719035535834" lon="10.7298145174957"><ele>879.0</ele><time>2026-05-02T13:27:47.943Z</time></trkpt><trkpt lat="44.247096628673035" lon="10.729809116443764"><ele>881.4000000000001</ele><time>2026-05-02T13:27:48.943Z</time></trkpt><trkpt lat="44.24699503456997" lon="10.72982095924002"><ele>883.8000000000001</ele><time>2026-05-02T13:27:49.943Z</time></trkpt><trkpt lat="44.24690579635769" lon="10.72984548114654"><ele>886.1999999999999</ele><time>2026-05-02T13:27:50.943Z</time></trkpt><trkpt lat="44.24682490887835" lon="10.729885585878035"><ele>888.5999999999999</ele><time>2026-05-02T13:27:51.939Z</time></trkpt><trkpt lat="44.246751689334715" lon="10.729967251910946"><ele>891.0</ele><time>2026-05-02T13:27:52.939Z</time></trkpt><trkpt lat="44.246683116371955" lon="10.730074751620897"><ele>891.0</ele><time>2026-05-02T13:27:53.939Z</time></trkpt><trkpt lat="44.246630068219" lon="10.730190597884567"><ele>890.9999999999999</ele><time>2026-05-02T13:27:54.938Z</time></trkpt><trkpt lat="44.24656148458128" lon="10.730310516021259"><ele>890.9999999999999</ele><time>2026-05-02T13:27:55.939Z</time></trkpt><trkpt lat="44.24648301373534" lon="10.73041435863037"><ele>891.0</ele><time>2026-05-02T13:27:56.939Z</time></trkpt><trkpt lat="44.24640879969358" lon="10.730518890083523"><ele>891.0</ele><time>2026-05-02T13:27:57.939Z</time></trkpt><trkpt lat="44.24633708931953" lon="10.73063459206404"><ele>891.5999999999999</ele><time>2026-05-02T13:27:58.938Z</time></trkpt><trkpt lat="44.24627913527146" lon="10.73077221779247"><ele>892.1999999999999</ele><time>2026-05-02T13:27:59.938Z</time></trkpt><trkpt lat="44.246230805831686" lon="10.730904083792632"><ele>892.8000000000001</ele><time>2026-05-02T13:28:00.938Z</time></trkpt><trkpt lat="44.2461730058155" lon="10.731021869023827"><ele>893.4000000000001</ele><time>2026-05-02T13:28:01.938Z</time></trkpt><trkpt lat="44.246101285878595" lon="10.731107539677318"><ele>894.0</ele><time>2026-05-02T13:28:02.938Z</time></trkpt><trkpt lat="44.24602066207678" lon="10.73120426802122"><ele>894.0</ele><time>2026-05-02T13:28:03.938Z</time></trkpt><trkpt lat="44.24594418385968" lon="10.731288880228968"><ele>894.0000000000001</ele><time>2026-05-02T13:28:04.938Z</time></trkpt><trkpt lat="44.24586350674445" lon="10.731382747463009"><ele>894.0000000000001</ele><time>2026-05-02T13:28:05.938Z</time></trkpt><trkpt lat="44.245782298670356" lon="10.731487251833936"><ele>894.0</ele><time>2026-05-02T13:28:06.938Z</time></trkpt><trkpt lat="44.2456994858169" lon="10.731600617022481"><ele>894.0</ele><time>2026-05-02T13:28:07.938Z</time></trkpt><trkpt lat="44.245619035765436" lon="10.731718355061894"><ele>899.0</ele><time>2026-05-02T13:28:08.938Z</time></trkpt><trkpt lat="44.2455315574281" lon="10.73183810497612"><ele>904.0</ele><time>2026-05-02T13:28:09.938Z</time></trkpt><trkpt lat="44.24544547175336" lon="10.731960340140354"><ele>909.0</ele><time>2026-05-02T13:28:10.938Z</time></trkpt><trkpt lat="44.24537059092032" lon="10.732100595545877"><ele>914.0</ele><time>2026-05-02T13:28:11.938Z</time></trkpt><trkpt lat="44.2453177189245" lon="10.732257055408821"><ele>914.0</ele><time>2026-05-02T13:28:12.938Z</time></trkpt><trkpt lat="44.24527875564553" lon="10.73241338922372"><ele>914.0</ele><time>2026-05-02T13:28:13.938Z</time></trkpt><trkpt lat="44.24525640210035" lon="10.73257262314308"><ele>914.0</ele><time>2026-05-02T13:28:14.938Z</time></trkpt><trkpt lat="44.24525290289442" lon="10.732720908626096"><ele>914.0</ele><time>2026-05-02T13:28:15.938Z</time></trkpt><trkpt lat="44.24526510721346" lon="10.732871431347293"><ele>914.5</ele><time>2026-05-02T13:28:16.938Z</time></trkpt><trkpt lat="44.245293965109056" lon="10.733024652404659"><ele>915.0</ele><time>2026-05-02T13:28:17.938Z</time></trkpt><trkpt lat="44.24534427289142" lon="10.733176342441919"><ele>915.5</ele><time>2026-05-02T13:28:18.938Z</time></trkpt><trkpt lat="44.2454077101893" lon="10.733326142013492"><ele>916.0</ele><time>2026-05-02T13:28:19.938Z</time></trkpt><trkpt lat="44.245480109496945" lon="10.733479099396426"><ele>916.0</ele><time>2026-05-02T13:28:20.938Z</time></trkpt><trkpt lat="44.24554908121377" lon="10.733616328535419"><ele>916.0</ele><time>2026-05-02T13:28:21.938Z</time></trkpt><trkpt lat="44.2456058548851" lon="10.733780079950614"><ele>916.0</ele><time>2026-05-02T13:28:22.938Z</time></trkpt><trkpt lat="44.24566391702464" lon="10.733937707743754"><ele>916.0</ele><time>2026-05-02T13:28:23.938Z</time></trkpt><trkpt lat="44.24571436481298" lon="10.734098932266031"><ele>913.75</ele><time>2026-05-02T13:28:24.938Z</time></trkpt><trkpt lat="44.245765486221714" lon="10.734265984507987"><ele>911.5</ele><time>2026-05-02T13:28:25.938Z</time></trkpt><trkpt lat="44.2458090924573" lon="10.734432122778113"><ele>909.25</ele><time>2026-05-02T13:28:26.938Z</time></trkpt><trkpt lat="44.24584501234835" lon="10.734598757592924"><ele>907.0</ele><time>2026-05-02T13:28:27.938Z</time></trkpt><trkpt lat="44.245851955998624" lon="10.734754647525692"><ele>907.0</ele><time>2026-05-02T13:28:28.938Z</time></trkpt><trkpt lat="44.245836932444405" lon="10.734909928079066"><ele>907.0</ele><time>2026-05-02T13:28:29.938Z</time></trkpt><trkpt lat="44.245821885507944" lon="10.735070691091638"><ele>907.0</ele><time>2026-05-02T13:28:30.938Z</time></trkpt><trkpt lat="44.245831309660865" lon="10.735232125386284"><ele>907.0</ele><time>2026-05-02T13:28:31.938Z</time></trkpt><trkpt lat="44.24586005261965" lon="10.735390841874565"><ele>909.5</ele><time>2026-05-02T13:28:32.938Z</time></trkpt><trkpt lat="44.24591158644938" lon="10.735531572018642"><ele>912.0</ele><time>2026-05-02T13:28:33.938Z</time></trkpt><trkpt lat="44.24598555543453" lon="10.73565549130917"><ele>914.5</ele><time>2026-05-02T13:28:34.938Z</time></trkpt><trkpt lat="44.246076423769864" lon="10.735755487647888"><ele>917.0</ele><time>2026-05-02T13:28:35.938Z</time></trkpt><trkpt lat="44.24618040700725" lon="10.735824522249137"><ele>917.0</ele><time>2026-05-02T13:28:36.938Z</time></trkpt><trkpt lat="44.24629105875242" lon="10.735864213155981"><ele>917.0</ele><time>2026-05-02T13:28:37.938Z</time></trkpt><trkpt lat="44.246406650921806" lon="10.735905160991994"><ele>917.0</ele><time>2026-05-02T13:28:38.938Z</time></trkpt><trkpt lat="44.24653285216555" lon="10.735948647461013"><ele>917.0</ele><time>2026-05-02T13:28:39.938Z</time></trkpt><trkpt lat="44.24665004302217" lon="10.735988122392742"><ele>916.8</ele><time>2026-05-02T13:28:40.938Z</time></trkpt><trkpt lat="44.24674601453958" lon="10.736048449018678"><ele>916.6</ele><time>2026-05-02T13:28:41.938Z</time></trkpt><trkpt lat="44.246831831775836" lon="10.7361537423668"><ele>916.3999999999999</ele><time>2026-05-02T13:28:42.938Z</time></trkpt><trkpt lat="44.24689053891249" lon="10.736278524437274"><ele>916.1999999999999</ele><time>2026-05-02T13:28:43.938Z</time></trkpt><trkpt lat="44.24692706654279" lon="10.736425358776426"><ele>916.0</ele><time>2026-05-02T13:28:44.938Z</time></trkpt><trkpt lat="44.24695876186037" lon="10.736571996174913"><ele>916.0</ele><time>2026-05-02T13:28:45.938Z</time></trkpt><trkpt lat="44.24698838688635" lon="10.736700209897817"><ele>915.9999999999999</ele><time>2026-05-02T13:28:46.938Z</time></trkpt><trkpt lat="44.247047037474765" lon="10.736807212445608"><ele>915.9999999999999</ele><time>2026-05-02T13:28:47.938Z</time></trkpt><trkpt lat="44.24711967051537" lon="10.73688588226846"><ele>916.0</ele><time>2026-05-02T13:28:48.938Z</time></trkpt><trkpt lat="44.24721293149762" lon="10.736933288223156"><ele>916.0</ele><time>2026-05-02T13:28:49.939Z</time></trkpt><trkpt lat="44.24731722326637" lon="10.736967136310524"><ele>916.5999999999999</ele><time>2026-05-02T13:28:50.939Z</time></trkpt><trkpt lat="44.24742912664459" lon="10.736996581008476"><ele>917.1999999999999</ele><time>2026-05-02T13:28:51.939Z</time></trkpt><trkpt lat="44.24753318759613" lon="10.737030176606924"><ele>917.8000000000001</ele><time>2026-05-02T13:28:52.939Z</time></trkpt><trkpt lat="44.24763997187674" lon="10.73707788284501"><ele>918.4000000000001</ele><time>2026-05-02T13:28:53.939Z</time></trkpt><trkpt lat="44.24773622954206" lon="10.737126168584837"><ele>919.0</ele><time>2026-05-02T13:28:54.939Z</time></trkpt><trkpt lat="44.247829386904364" lon="10.737180304538752"><ele>919.0</ele><time>2026-05-02T13:28:55.939Z</time></trkpt><trkpt lat="44.24790671003302" lon="10.737241889063867"><ele>919.0000000000001</ele><time>2026-05-02T13:28:56.939Z</time></trkpt><trkpt lat="44.247972767749914" lon="10.737326373057549"><ele>919.0000000000001</ele><time>2026-05-02T13:28:57.939Z</time></trkpt><trkpt lat="44.24801830995064" lon="10.73742901483859"><ele>919.0</ele><time>2026-05-02T13:28:58.939Z</time></trkpt><trkpt lat="44.24805628632599" lon="10.737547620615368"><ele>919.0</ele><time>2026-05-02T13:28:59.939Z</time></trkpt><trkpt lat="44.24808415751644" lon="10.737675626235914"><ele>919.4000000000001</ele><time>2026-05-02T13:29:00.939Z</time></trkpt><trkpt lat="44.24808580591247" lon="10.737808940620827"><ele>919.8000000000001</ele><time>2026-05-02T13:29:01.939Z</time></trkpt><trkpt lat="44.248067578708145" lon="10.737953487020178"><ele>920.1999999999999</ele><time>2026-05-02T13:29:02.939Z</time></trkpt><trkpt lat="44.248030133852076" lon="10.738101733657347"><ele>920.5999999999999</ele><time>2026-05-02T13:29:03.939Z</time></trkpt><trkpt lat="44.247985213553726" lon="10.738250697002352"><ele>921.0</ele><time>2026-05-02T13:29:04.939Z</time></trkpt><trkpt lat="44.24793834016124" lon="10.738409821621488"><ele>918.75</ele><time>2026-05-02T13:29:05.939Z</time></trkpt><trkpt lat="44.2478862037507" lon="10.73855619749519"><ele>916.5</ele><time>2026-05-02T13:29:06.939Z</time></trkpt><trkpt lat="44.247815067333754" lon="10.738678866691219"><ele>914.25</ele><time>2026-05-02T13:29:07.939Z</time></trkpt><trkpt lat="44.247725003065476" lon="10.738763411167337"><ele>912.0</ele><time>2026-05-02T13:29:08.939Z</time></trkpt><trkpt lat="44.24761516456612" lon="10.738803490361917"><ele>912.0</ele><time>2026-05-02T13:29:09.939Z</time></trkpt><trkpt lat="44.24751450641101" lon="10.738840698074428"><ele>912.0</ele><time>2026-05-02T13:29:10.939Z</time></trkpt><trkpt lat="44.247431281381736" lon="10.738922616484034"><ele>912.0</ele><time>2026-05-02T13:29:11.939Z</time></trkpt><trkpt lat="44.24737639802332" lon="10.739030122684689"><ele>912.0</ele><time>2026-05-02T13:29:12.939Z</time></trkpt><trkpt lat="44.24734266604136" lon="10.739155414358246"><ele>912.0</ele><time>2026-05-02T13:29:13.939Z</time></trkpt><trkpt lat="44.24731904436033" lon="10.739267100280921"><ele>913.2</ele><time>2026-05-02T13:29:14.939Z</time></trkpt><trkpt lat="44.24727938582374" lon="10.739367026577117"><ele>914.4000000000001</ele><time>2026-05-02T13:29:15.939Z</time></trkpt><trkpt lat="44.247218017936945" lon="10.739459910625664"><ele>915.5999999999999</ele><time>2026-05-02T13:29:16.939Z</time></trkpt><trkpt lat="44.247136648400314" lon="10.739537948497343"><ele>916.8</ele><time>2026-05-02T13:29:17.939Z</time></trkpt><trkpt lat="44.24705291632327" lon="10.739600397165301"><ele>918.0</ele><time>2026-05-02T13:29:18.939Z</time></trkpt><trkpt lat="44.24696462035329" lon="10.739677873884874"><ele>918.0</ele><time>2026-05-02T13:29:19.939Z</time></trkpt><trkpt lat="44.246881941818955" lon="10.739773375660409"><ele>918.0</ele><time>2026-05-02T13:29:20.939Z</time></trkpt><trkpt lat="44.24681327140794" lon="10.73986601741292"><ele>918.0</ele><time>2026-05-02T13:29:21.939Z</time></trkpt><trkpt lat="44.2467542688004" lon="10.739972568229929"><ele>918.0</ele><time>2026-05-02T13:29:22.939Z</time></trkpt><trkpt lat="44.24671362723513" lon="10.740101163571909"><ele>918.0</ele><time>2026-05-02T13:29:23.939Z</time></trkpt><trkpt lat="44.24670069583092" lon="10.740229682029769"><ele>917.5999999999999</ele><time>2026-05-02T13:29:24.939Z</time></trkpt><trkpt lat="44.24670456866217" lon="10.740366925774284"><ele>917.1999999999999</ele><time>2026-05-02T13:29:25.939Z</time></trkpt><trkpt lat="44.24673016784583" lon="10.740510624755746"><ele>916.8</ele><time>2026-05-02T13:29:26.939Z</time></trkpt><trkpt lat="44.246768389053194" lon="10.74065844283353"><ele>916.4</ele><time>2026-05-02T13:29:27.939Z</time></trkpt><trkpt lat="44.24682449132783" lon="10.74078809789731"><ele>916.0</ele><time>2026-05-02T13:29:28.939Z</time></trkpt><trkpt lat="44.24688240732603" lon="10.740917314504733"><ele>916.0</ele><time>2026-05-02T13:29:29.939Z</time></trkpt><trkpt lat="44.246946145612775" lon="10.741046906022397"><ele>915.9999999999999</ele><time>2026-05-02T13:29:30.939Z</time></trkpt><trkpt lat="44.24701485226689" lon="10.74117766307085"><ele>915.9999999999999</ele><time>2026-05-02T13:29:31.939Z</time></trkpt><trkpt lat="44.24707756608181" lon="10.741308416385772"><ele>916.0</ele><time>2026-05-02T13:29:32.939Z</time></trkpt><trkpt lat="44.24712408422073" lon="10.741444200549038"><ele>916.0</ele><time>2026-05-02T13:29:33.939Z</time></trkpt><trkpt lat="44.24715011694933" lon="10.741587758817218"><ele>916.1999999999999</ele><time>2026-05-02T13:29:34.939Z</time></trkpt><trkpt lat="44.24715162847599" lon="10.741735534373616"><ele>916.3999999999999</ele><time>2026-05-02T13:29:35.939Z</time></trkpt><trkpt lat="44.24712224682072" lon="10.74188001933192"><ele>916.6</ele><time>2026-05-02T13:29:36.939Z</time></trkpt><trkpt lat="44.24708781448614" lon="10.742022198880784"><ele>916.8</ele><time>2026-05-02T13:29:37.939Z</time></trkpt><trkpt lat="44.24706370701562" lon="10.742168870174899"><ele>917.0</ele><time>2026-05-02T13:29:38.939Z</time></trkpt><trkpt lat="44.24706009313617" lon="10.742326938995754"><ele>917.0</ele><time>2026-05-02T13:29:39.939Z</time></trkpt><trkpt lat="44.24707035882124" lon="10.742492516937347"><ele>917.0</ele><time>2026-05-02T13:29:40.939Z</time></trkpt><trkpt lat="44.24707559560175" lon="10.742647632821233"><ele>917.0</ele><time>2026-05-02T13:29:41.939Z</time></trkpt><trkpt lat="44.24706358151163" lon="10.742800975014719"><ele>917.0</ele><time>2026-05-02T13:29:42.939Z</time></trkpt><trkpt lat="44.24703084371861" lon="10.742941625794213"><ele>917.0</ele><time>2026-05-02T13:29:43.939Z</time></trkpt><trkpt lat="44.24699126247711" lon="10.743058577203477"><ele>916.2</ele><time>2026-05-02T13:29:44.939Z</time></trkpt><trkpt lat="44.24693754584813" lon="10.743169137511106"><ele>915.4000000000001</ele><time>2026-05-02T13:29:45.939Z</time></trkpt><trkpt lat="44.24688087275763" lon="10.743279470277297"><ele>914.5999999999999</ele><time>2026-05-02T13:29:46.939Z</time></trkpt><trkpt lat="44.246824585587426" lon="10.743393919605206"><ele>913.8</ele><time>2026-05-02T13:29:47.939Z</time></trkpt><trkpt lat="44.246772607882434" lon="10.743503918596724"><ele>913.0</ele><time>2026-05-02T13:29:48.939Z</time></trkpt><trkpt lat="44.246729233365194" lon="10.74360994856977"><ele>912.8333333333333</ele><time>2026-05-02T13:29:49.939Z</time></trkpt><trkpt lat="44.246687124544074" lon="10.743692843475937"><ele>912.6666666666666</ele><time>2026-05-02T13:29:50.939Z</time></trkpt><trkpt lat="44.2466297569086" lon="10.743744765855698"><ele>912.5</ele><time>2026-05-02T13:29:51.939Z</time></trkpt><trkpt lat="44.246532236953286" lon="10.743721421503132"><ele>912.3333333333333</ele><time>2026-05-02T13:29:53.939Z</time></trkpt><trkpt lat="44.24647500934835" lon="10.743646491687503"><ele>912.1666666666666</ele><time>2026-05-02T13:29:55.94Z</time></trkpt><trkpt lat="44.24643086534003" lon="10.74356646730464"><ele>912.0</ele><time>2026-05-02T13:29:58.935Z</time></trkpt><trkpt lat="44.24638827845114" lon="10.74349590830815"><ele>912.0</ele><time>2026-05-02T13:30:01.935Z</time></trkpt><trkpt lat="44.246344081544464" lon="10.743432535902919"><ele>912.0</ele><time>2026-05-02T13:30:04.935Z</time></trkpt><trkpt lat="44.246281830166126" lon="10.743365217291323"><ele>912.0</ele><time>2026-05-02T13:30:06.935Z</time></trkpt><trkpt lat="44.24617988399305" lon="10.74329430300574"><ele>912.0</ele><time>2026-05-02T13:30:08.935Z</time></trkpt><trkpt lat="44.24610815260079" lon="10.743249716770682"><ele>912.0</ele><time>2026-05-02T13:30:09.935Z</time></trkpt><trkpt lat="44.24602031950945" lon="10.743215433383721"><ele>912.0</ele><time>2026-05-02T13:30:10.934Z</time></trkpt><trkpt lat="44.24593616291783" lon="10.743204643087239"><ele>912.0</ele><time>2026-05-02T13:30:11.934Z</time></trkpt><trkpt lat="44.24584003263624" lon="10.74319875249451"><ele>912.0</ele><time>2026-05-02T13:30:12.934Z</time></trkpt><trkpt lat="44.24574143140542" lon="10.7432013076698"><ele>912.0</ele><time>2026-05-02T13:30:13.934Z</time></trkpt><trkpt lat="44.24563577291958" lon="10.743202579265382"><ele>912.0</ele><time>2026-05-02T13:30:14.934Z</time></trkpt><trkpt lat="44.24551915868886" lon="10.743205755395351"><ele>912.0</ele><time>2026-05-02T13:30:15.935Z</time></trkpt><trkpt lat="44.245409903205484" lon="10.74320394140407"><ele>912.0</ele><time>2026-05-02T13:30:16.935Z</time></trkpt><trkpt lat="44.245297984675716" lon="10.743221420534995"><ele>912.0</ele><time>2026-05-02T13:30:17.935Z</time></trkpt><trkpt lat="44.24518909869968" lon="10.743265220389262"><ele>912.0</ele><time>2026-05-02T13:30:18.935Z</time></trkpt><trkpt lat="44.24508742824065" lon="10.743348163584987"><ele>912.0</ele><time>2026-05-02T13:30:19.935Z</time></trkpt><trkpt lat="44.24500041006238" lon="10.743461240741723"><ele>913.25</ele><time>2026-05-02T13:30:20.935Z</time></trkpt><trkpt lat="44.24491523185499" lon="10.743597297944234"><ele>914.5</ele><time>2026-05-02T13:30:21.935Z</time></trkpt><trkpt lat="44.244826524077936" lon="10.743740149628618"><ele>915.75</ele><time>2026-05-02T13:30:22.935Z</time></trkpt><trkpt lat="44.244738362183476" lon="10.743890337230798"><ele>917.0</ele><time>2026-05-02T13:30:23.935Z</time></trkpt><trkpt lat="44.24464460599554" lon="10.744045610547348"><ele>917.0</ele><time>2026-05-02T13:30:24.935Z</time></trkpt><trkpt lat="44.24454495247538" lon="10.744202454345226"><ele>917.0</ele><time>2026-05-02T13:30:25.935Z</time></trkpt><trkpt lat="44.24444339032912" lon="10.744360847146028"><ele>917.0</ele><time>2026-05-02T13:30:26.935Z</time></trkpt><trkpt lat="44.244342716159146" lon="10.74451943693773"><ele>917.0</ele><time>2026-05-02T13:30:27.935Z</time></trkpt><trkpt lat="44.244246543308286" lon="10.74467150851493"><ele>917.0</ele><time>2026-05-02T13:30:28.935Z</time></trkpt><trkpt lat="44.244147939683714" lon="10.744824374462603"><ele>917.0</ele><time>2026-05-02T13:30:29.935Z</time></trkpt><trkpt lat="44.24404969708579" lon="10.744975562764333"><ele>917.0</ele><time>2026-05-02T13:30:30.935Z</time></trkpt><trkpt lat="44.24395793959015" lon="10.745109538577738"><ele>914.2</ele><time>2026-05-02T13:30:31.935Z</time></trkpt><trkpt lat="44.24387285842959" lon="10.745214830485592"><ele>911.4000000000001</ele><time>2026-05-02T13:30:32.935Z</time></trkpt><trkpt lat="44.24378268621473" lon="10.745297344926367"><ele>908.5999999999999</ele><time>2026-05-02T13:30:33.935Z</time></trkpt><trkpt lat="44.24369111128558" lon="10.745336309400923"><ele>905.8</ele><time>2026-05-02T13:30:34.935Z</time></trkpt><trkpt lat="44.24359542873443" lon="10.74535872336812"><ele>903.0</ele><time>2026-05-02T13:30:35.935Z</time></trkpt><trkpt lat="44.24349269690223" lon="10.745383642016746"><ele>903.0</ele><time>2026-05-02T13:30:36.935Z</time></trkpt><trkpt lat="44.24339015105281" lon="10.745403195181774"><ele>903.0</ele><time>2026-05-02T13:30:37.935Z</time></trkpt><trkpt lat="44.24328894230028" lon="10.74542187411108"><ele>903.0</ele><time>2026-05-02T13:30:38.935Z</time></trkpt><trkpt lat="44.24319413914394" lon="10.745465072851111"><ele>903.0</ele><time>2026-05-02T13:30:39.935Z</time></trkpt><trkpt lat="44.24310718060914" lon="10.745520233360496"><ele>903.0</ele><time>2026-05-02T13:30:40.935Z</time></trkpt><trkpt lat="44.243025447565614" lon="10.74561625296601"><ele>903.4</ele><time>2026-05-02T13:30:41.935Z</time></trkpt><trkpt lat="44.24295650459013" lon="10.745726952370124"><ele>903.8</ele><time>2026-05-02T13:30:42.935Z</time></trkpt><trkpt lat="44.24289852706754" lon="10.74582010803177"><ele>904.2</ele><time>2026-05-02T13:30:43.935Z</time></trkpt><trkpt lat="44.24283853276324" lon="10.745914650189949"><ele>904.6</ele><time>2026-05-02T13:30:44.935Z</time></trkpt><trkpt lat="44.24278182096665" lon="10.746006911352595"><ele>905.0</ele><time>2026-05-02T13:30:45.935Z</time></trkpt><trkpt lat="44.242726072739" lon="10.746097135680115"><ele>905.0</ele><time>2026-05-02T13:30:46.935Z</time></trkpt><trkpt lat="44.242659137767724" lon="10.746186163250199"><ele>905.0</ele><time>2026-05-02T13:30:47.935Z</time></trkpt><trkpt lat="44.24258983881533" lon="10.746264793100197"><ele>905.0</ele><time>2026-05-02T13:30:48.935Z</time></trkpt><trkpt lat="44.242520500560516" lon="10.746331850042624"><ele>905.0</ele><time>2026-05-02T13:30:49.935Z</time></trkpt><trkpt lat="44.24244324017844" lon="10.746392900014817"><ele>905.0</ele><time>2026-05-02T13:30:50.935Z</time></trkpt><trkpt lat="44.242353274784584" lon="10.746450551548083"><ele>905.0</ele><time>2026-05-02T13:30:51.935Z</time></trkpt><trkpt lat="44.2422714471532" lon="10.74649944846394"><ele>905.0</ele><time>2026-05-02T13:30:52.935Z</time></trkpt><trkpt lat="44.242184653187216" lon="10.746537714170552"><ele>905.0</ele><time>2026-05-02T13:30:53.935Z</time></trkpt><trkpt lat="44.24209275212112" lon="10.74656841987628"><ele>905.0</ele><time>2026-05-02T13:30:54.935Z</time></trkpt><trkpt lat="44.24199884701308" lon="10.7465845628167"><ele>905.0</ele><time>2026-05-02T13:30:55.935Z</time></trkpt><trkpt lat="44.24190841100486" lon="10.746591777791462"><ele>905.0</ele><time>2026-05-02T13:30:56.935Z</time></trkpt><trkpt lat="44.24181898871323" lon="10.746567252582933"><ele>905.0</ele><time>2026-05-02T13:30:57.935Z</time></trkpt><trkpt lat="44.24172372917917" lon="10.746514354715599"><ele>905.0</ele><time>2026-05-02T13:30:58.935Z</time></trkpt><trkpt lat="44.241623123694936" lon="10.7464687893658"><ele>905.0</ele><time>2026-05-02T13:30:59.935Z</time></trkpt><trkpt lat="44.24152494408531" lon="10.746418479509577"><ele>905.0</ele><time>2026-05-02T13:31:00.935Z</time></trkpt><trkpt lat="44.24142379383496" lon="10.74637503340503"><ele>904.6</ele><time>2026-05-02T13:31:01.935Z</time></trkpt><trkpt lat="44.24132134195811" lon="10.746326578629086"><ele>904.2</ele><time>2026-05-02T13:31:02.935Z</time></trkpt><trkpt lat="44.241229738538806" lon="10.746273090206333"><ele>903.8</ele><time>2026-05-02T13:31:03.935Z</time></trkpt><trkpt lat="44.241143008844006" lon="10.74621457090643"><ele>903.4</ele><time>2026-05-02T13:31:04.935Z</time></trkpt><trkpt lat="44.24105175887578" lon="10.746140687961567"><ele>903.0</ele><time>2026-05-02T13:31:05.935Z</time></trkpt><trkpt lat="44.240971525358674" lon="10.746059440684151"><ele>904.6666666666666</ele><time>2026-05-02T13:31:06.935Z</time></trkpt><trkpt lat="44.24089948645898" lon="10.74598359257578"><ele>906.3333333333333</ele><time>2026-05-02T13:31:07.935Z</time></trkpt><trkpt lat="44.240821323355554" lon="10.745925628616558"><ele>908.0</ele><time>2026-05-02T13:31:08.935Z</time></trkpt><trkpt lat="44.24074547700255" lon="10.74587921005103"><ele>909.6666666666666</ele><time>2026-05-02T13:31:09.935Z</time></trkpt><trkpt lat="44.24067743166078" lon="10.745855395446851"><ele>911.3333333333333</ele><time>2026-05-02T13:31:10.935Z</time></trkpt><trkpt lat="44.24060861858199" lon="10.745849962506703"><ele>913.0</ele><time>2026-05-02T13:31:11.935Z</time></trkpt><trkpt lat="44.24053894904783" lon="10.745838957296987"><ele>913.142857142857</ele><time>2026-05-02T13:31:12.935Z</time></trkpt><trkpt lat="44.24047343105366" lon="10.745833700347271"><ele>913.2857142857142</ele><time>2026-05-02T13:31:13.935Z</time></trkpt><trkpt lat="44.24040426038164" lon="10.74582162539658"><ele>913.4285714285714</ele><time>2026-05-02T13:31:15.935Z</time></trkpt><trkpt lat="44.240336524458606" lon="10.745806546156208"><ele>913.5714285714286</ele><time>2026-05-02T13:31:18.936Z</time></trkpt><trkpt lat="44.2402575678533" lon="10.745802888912328"><ele>913.7142857142858</ele><time>2026-05-02T13:31:20.936Z</time></trkpt><trkpt lat="44.24016334701306" lon="10.74581638342571"><ele>913.857142857143</ele><time>2026-05-02T13:31:22.937Z</time></trkpt><trkpt lat="44.24009800313284" lon="10.745820342814666"><ele>914.0000000000001</ele><time>2026-05-02T13:31:23.937Z</time></trkpt><trkpt lat="44.24002983273821" lon="10.745842042461609"><ele>914.0000000000001</ele><time>2026-05-02T13:31:24.938Z</time></trkpt><trkpt lat="44.23995098217113" lon="10.745875482744326"><ele>914.0</ele><time>2026-05-02T13:31:25.938Z</time></trkpt><trkpt lat="44.239859320659434" lon="10.745891884014513"><ele>914.0</ele><time>2026-05-02T13:31:26.938Z</time></trkpt><trkpt lat="44.239770474248864" lon="10.745905904652242"><ele>914.0</ele><time>2026-05-02T13:31:27.938Z</time></trkpt><trkpt lat="44.23968936155206" lon="10.745916982238754"><ele>914.0000000000001</ele><time>2026-05-02T13:31:28.939Z</time></trkpt><trkpt lat="44.23960853156587" lon="10.745901617452358"><ele>914.0</ele><time>2026-05-02T13:31:29.939Z</time></trkpt><trkpt lat="44.239531872209625" lon="10.745870332829766"><ele>916.0000000000001</ele><time>2026-05-02T13:31:30.939Z</time></trkpt><trkpt lat="44.23945310604955" lon="10.74584199106533"><ele>918.0</ele><time>2026-05-02T13:31:31.939Z</time></trkpt><trkpt lat="44.23936684077665" lon="10.74582117803479"><ele>920.0</ele><time>2026-05-02T13:31:32.94Z</time></trkpt><trkpt lat="44.23928164313334" lon="10.745833270117949"><ele>922.0</ele><time>2026-05-02T13:31:33.94Z</time></trkpt><trkpt lat="44.239198027321905" lon="10.745881757767117"><ele>924.0000000000001</ele><time>2026-05-02T13:31:34.94Z</time></trkpt><trkpt lat="44.23911089571027" lon="10.745947026704947"><ele>926.0</ele><time>2026-05-02T13:31:35.94Z</time></trkpt><trkpt lat="44.23903132331854" lon="10.746038049807963"><ele>930.25</ele><time>2026-05-02T13:31:36.94Z</time></trkpt><trkpt lat="44.23895370942689" lon="10.746143408731498"><ele>934.5</ele><time>2026-05-02T13:31:37.94Z</time></trkpt><trkpt lat="44.238871861991015" lon="10.746259006953363"><ele>938.75</ele><time>2026-05-02T13:31:38.94Z</time></trkpt><trkpt lat="44.23878312090496" lon="10.746393605078175"><ele>943.0</ele><time>2026-05-02T13:31:39.941Z</time></trkpt><trkpt lat="44.238698432009556" lon="10.746536946119104"><ele>943.0</ele><time>2026-05-02T13:31:40.941Z</time></trkpt><trkpt lat="44.23861287350356" lon="10.7466890149523"><ele>943.0</ele><time>2026-05-02T13:31:41.941Z</time></trkpt><trkpt lat="44.238527625370686" lon="10.746845920220109"><ele>943.0</ele><time>2026-05-02T13:31:42.941Z</time></trkpt><trkpt lat="44.23844411773265" lon="10.746996527028083"><ele>943.0</ele><time>2026-05-02T13:31:43.941Z</time></trkpt><trkpt lat="44.238351659621394" lon="10.747123830348905"><ele>941.0</ele><time>2026-05-02T13:31:44.941Z</time></trkpt><trkpt lat="44.238258655977745" lon="10.747224989177912"><ele>939.0</ele><time>2026-05-02T13:31:45.941Z</time></trkpt><trkpt lat="44.23816019718281" lon="10.747315061043953"><ele>937.0</ele><time>2026-05-02T13:31:46.941Z</time></trkpt><trkpt lat="44.23807591873724" lon="10.74740238498328"><ele>935.0</ele><time>2026-05-02T13:31:47.941Z</time></trkpt><trkpt lat="44.23801628837191" lon="10.747493764679284"><ele>933.0</ele><time>2026-05-02T13:31:48.941Z</time></trkpt><trkpt lat="44.2379629363623" lon="10.747573729952967"><ele>933.0</ele><time>2026-05-02T13:31:49.941Z</time></trkpt><trkpt lat="44.23789451393956" lon="10.747694922688979"><ele>933.0</ele><time>2026-05-02T13:31:51.942Z</time></trkpt><trkpt lat="44.237863265410034" lon="10.74777914679167"><ele>933.0</ele><time>2026-05-02T13:31:53.942Z</time></trkpt><trkpt lat="44.237820581641564" lon="10.747851454504188"><ele>933.0</ele><time>2026-05-02T13:31:58.942Z</time></trkpt><trkpt lat="44.23782104914482" lon="10.747950627116898"><ele>933.0</ele><time>2026-05-02T13:32:32.938Z</time></trkpt><trkpt lat="44.237794596897416" lon="10.748037012613594"><ele>933.0</ele><time>2026-05-02T13:32:36.938Z</time></trkpt><trkpt lat="44.2377451433891" lon="10.74812376260172"><ele>928.7142857142857</ele><time>2026-05-02T13:32:41.938Z</time></trkpt><trkpt lat="44.237683295322896" lon="10.748180255914104"><ele>924.4285714285713</ele><time>2026-05-02T13:32:47.938Z</time></trkpt><trkpt lat="44.237621683160164" lon="10.748210664735995"><ele>920.1428571428571</ele><time>2026-05-02T13:32:53.938Z</time></trkpt><trkpt lat="44.23758451129258" lon="10.748133791181672"><ele>915.8571428571429</ele><time>2026-05-02T13:40:07.938Z</time></trkpt><trkpt lat="44.237640051459195" lon="10.748183823554971"><ele>911.5714285714286</ele><time>2026-05-02T13:41:54.938Z</time></trkpt><trkpt lat="44.237595953976225" lon="10.74811994003842"><ele>907.2857142857142</ele><time>2026-05-02T13:42:41.937Z</time></trkpt><trkpt lat="44.237674843959795" lon="10.748151604508955"><ele>903.0</ele><time>2026-05-02T13:46:04.939Z</time></trkpt><trkpt lat="44.237738180818674" lon="10.748096105824581"><ele>903.0</ele><time>2026-05-02T13:46:10.939Z</time></trkpt><trkpt lat="44.237787083982624" lon="10.74802070480534"><ele>903.0</ele><time>2026-05-02T13:46:16.94Z</time></trkpt><trkpt lat="44.23779545034641" lon="10.747928710261533"><ele>903.0</ele><time>2026-05-02T13:46:21.94Z</time></trkpt><trkpt lat="44.23783545677942" lon="10.747848953711319"><ele>903.0</ele><time>2026-05-02T13:46:26.94Z</time></trkpt><trkpt lat="44.23780471224237" lon="10.74794383513911"><ele>903.0</ele><time>2026-05-02T13:46:50.938Z</time></trkpt><trkpt lat="44.23775856241855" lon="10.74802066701888"><ele>903.0</ele><time>2026-05-02T13:46:52.938Z</time></trkpt><trkpt lat="44.237701290202104" lon="10.74805939922829"><ele>903.0</ele><time>2026-05-02T13:46:54.938Z</time></trkpt><trkpt lat="44.23761411182052" lon="10.74805637575391"><ele>903.0</ele><time>2026-05-02T13:46:56.938Z</time></trkpt><trkpt lat="44.23752179893394" lon="10.747992896973484"><ele>903.0</ele><time>2026-05-02T13:46:58.939Z</time></trkpt><trkpt lat="44.23747533619754" lon="10.747849610709244"><ele>903.0</ele><time>2026-05-02T13:47:00.939Z</time></trkpt><trkpt lat="44.23745498473053" lon="10.747759201225783"><ele>903.0</ele><time>2026-05-02T13:47:01.939Z</time></trkpt><trkpt lat="44.23742572825512" lon="10.747664288211208"><ele>903.0</ele><time>2026-05-02T13:47:02.939Z</time></trkpt><trkpt lat="44.237390185189504" lon="10.747586131688124"><ele>903.0</ele><time>2026-05-02T13:47:03.939Z</time></trkpt><trkpt lat="44.237328925960355" lon="10.74744672768213"><ele>916.4</ele><time>2026-05-02T13:47:05.939Z</time></trkpt><trkpt lat="44.23725267849487" lon="10.747361426579804"><ele>929.8</ele><time>2026-05-02T13:47:07.939Z</time></trkpt><trkpt lat="44.237131922124846" lon="10.747424927199418"><ele>943.2</ele><time>2026-05-02T13:47:09.939Z</time></trkpt><trkpt lat="44.2370674295661" lon="10.74750441904773"><ele>956.6</ele><time>2026-05-02T13:47:10.939Z</time></trkpt><trkpt lat="44.237021919141874" lon="10.747587503868356"><ele>970.0</ele><time>2026-05-02T13:47:11.939Z</time></trkpt><trkpt lat="44.23700590959531" lon="10.747703458324995"><ele>967.2</ele><time>2026-05-02T13:47:12.939Z</time></trkpt><trkpt lat="44.236989622264375" lon="10.747832900768453"><ele>964.4</ele><time>2026-05-02T13:47:13.939Z</time></trkpt><trkpt lat="44.23695749424488" lon="10.7479710195658"><ele>961.5999999999999</ele><time>2026-05-02T13:47:14.939Z</time></trkpt><trkpt lat="44.236939724063795" lon="10.748067100419236"><ele>958.8</ele><time>2026-05-02T13:47:15.939Z</time></trkpt><trkpt lat="44.23685496021762" lon="10.748165773601205"><ele>956.0</ele><time>2026-05-02T13:47:16.939Z</time></trkpt><trkpt lat="44.23685374106352" lon="10.748288216131593"><ele>956.0</ele><time>2026-05-02T13:47:17.939Z</time></trkpt><trkpt lat="44.23685158802042" lon="10.748417874031317"><ele>955.9999999999999</ele><time>2026-05-02T13:47:18.939Z</time></trkpt><trkpt lat="44.236838558979784" lon="10.748536685890887"><ele>955.9999999999999</ele><time>2026-05-02T13:47:19.94Z</time></trkpt><trkpt lat="44.23681115792678" lon="10.748666660433583"><ele>956.0</ele><time>2026-05-02T13:47:20.94Z</time></trkpt><trkpt lat="44.236775456902095" lon="10.748801594559776"><ele>956.0</ele><time>2026-05-02T13:47:21.94Z</time></trkpt><trkpt lat="44.23674041081693" lon="10.748935729409302"><ele>958.0000000000001</ele><time>2026-05-02T13:47:22.941Z</time></trkpt><trkpt lat="44.2367074271023" lon="10.749057816669087"><ele>960.0</ele><time>2026-05-02T13:47:23.941Z</time></trkpt><trkpt lat="44.2366782012858" lon="10.749139330162704"><ele>962.0</ele><time>2026-05-02T13:47:24.942Z</time></trkpt><trkpt lat="44.236612733278484" lon="10.749220277441689"><ele>964.0</ele><time>2026-05-02T13:47:25.942Z</time></trkpt><trkpt lat="44.23654474903054" lon="10.749309878543722"><ele>966.0000000000001</ele><time>2026-05-02T13:47:26.942Z</time></trkpt><trkpt lat="44.236463037680714" lon="10.749355372966154"><ele>968.0</ele><time>2026-05-02T13:47:27.943Z</time></trkpt><trkpt lat="44.23637929411495" lon="10.749392163195255"><ele>959.5999999999999</ele><time>2026-05-02T13:47:28.943Z</time></trkpt><trkpt lat="44.236264098637534" lon="10.749408347783522"><ele>951.1999999999999</ele><time>2026-05-02T13:47:29.943Z</time></trkpt><trkpt lat="44.236151188262085" lon="10.749417847932358"><ele>942.8</ele><time>2026-05-02T13:47:30.943Z</time></trkpt><trkpt lat="44.23603967395626" lon="10.749424607503366"><ele>934.4</ele><time>2026-05-02T13:47:31.944Z</time></trkpt><trkpt lat="44.23593366611835" lon="10.74945082152298"><ele>926.0</ele><time>2026-05-02T13:47:32.944Z</time></trkpt><trkpt lat="44.235824882148705" lon="10.749493490746195"><ele>926.0</ele><time>2026-05-02T13:47:33.944Z</time></trkpt><trkpt lat="44.23571489404029" lon="10.749569504005727"><ele>926.0</ele><time>2026-05-02T13:47:34.944Z</time></trkpt><trkpt lat="44.23560531206749" lon="10.74964286207889"><ele>926.0</ele><time>2026-05-02T13:47:35.944Z</time></trkpt><trkpt lat="44.23549441642965" lon="10.749724737070105"><ele>926.0</ele><time>2026-05-02T13:47:36.945Z</time></trkpt><trkpt lat="44.23538634644648" lon="10.749810887887676"><ele>923.5999999999999</ele><time>2026-05-02T13:47:37.945Z</time></trkpt><trkpt lat="44.23527881179313" lon="10.749892495121841"><ele>921.1999999999999</ele><time>2026-05-02T13:47:38.945Z</time></trkpt><trkpt lat="44.23518553560072" lon="10.749972020567638"><ele>918.8000000000001</ele><time>2026-05-02T13:47:39.945Z</time></trkpt><trkpt lat="44.2350966287616" lon="10.750049212726264"><ele>916.4000000000001</ele><time>2026-05-02T13:47:40.945Z</time></trkpt><trkpt lat="44.235010222573806" lon="10.750142361439845"><ele>914.0</ele><time>2026-05-02T13:47:41.945Z</time></trkpt><trkpt lat="44.23494203824446" lon="10.75023389622254"><ele>914.0000000000001</ele><time>2026-05-02T13:47:42.945Z</time></trkpt><trkpt lat="44.234873401942835" lon="10.750326027276746"><ele>914.0</ele><time>2026-05-02T13:47:43.946Z</time></trkpt><trkpt lat="44.23480330925201" lon="10.750392516545153"><ele>914.0</ele><time>2026-05-02T13:47:44.946Z</time></trkpt><trkpt lat="44.234725048181765" lon="10.75042353901879"><ele>914.0</ele><time>2026-05-02T13:47:45.946Z</time></trkpt><trkpt lat="44.23463531520323" lon="10.750420304397222"><ele>914.0000000000001</ele><time>2026-05-02T13:47:46.946Z</time></trkpt><trkpt lat="44.23454813830682" lon="10.750395551287786"><ele>914.0</ele><time>2026-05-02T13:47:47.946Z</time></trkpt><trkpt lat="44.234462726462525" lon="10.750366477541402"><ele>918.2</ele><time>2026-05-02T13:47:48.946Z</time></trkpt><trkpt lat="44.234384875948116" lon="10.750314820387734"><ele>922.4000000000001</ele><time>2026-05-02T13:47:49.946Z</time></trkpt><trkpt lat="44.23431363464045" lon="10.750242871525264"><ele>926.6</ele><time>2026-05-02T13:47:50.946Z</time></trkpt><trkpt lat="44.2342442452882" lon="10.750153556401768"><ele>930.8</ele><time>2026-05-02T13:47:51.946Z</time></trkpt><trkpt lat="44.23417850869066" lon="10.750062885050218"><ele>935.0</ele><time>2026-05-02T13:47:52.946Z</time></trkpt><trkpt lat="44.234096975965834" lon="10.750008693324443"><ele>939.6</ele><time>2026-05-02T13:47:53.946Z</time></trkpt><trkpt lat="44.23401935043755" lon="10.749956452628567"><ele>944.2</ele><time>2026-05-02T13:47:54.947Z</time></trkpt><trkpt lat="44.233927735902355" lon="10.749912747029686"><ele>948.8</ele><time>2026-05-02T13:47:55.947Z</time></trkpt><trkpt lat="44.233829662726336" lon="10.749882085022252"><ele>953.4</ele><time>2026-05-02T13:47:56.947Z</time></trkpt><trkpt lat="44.23372623511515" lon="10.749876354000723"><ele>958.0</ele><time>2026-05-02T13:47:57.947Z</time></trkpt><trkpt lat="44.233608968499745" lon="10.749867126610141"><ele>958.0</ele><time>2026-05-02T13:47:58.947Z</time></trkpt><trkpt lat="44.233481910497936" lon="10.74985252221375"><ele>958.0</ele><time>2026-05-02T13:47:59.947Z</time></trkpt><trkpt lat="44.233357786935585" lon="10.749860269398953"><ele>958.0</ele><time>2026-05-02T13:48:00.947Z</time></trkpt><trkpt lat="44.23323412948812" lon="10.749883572441638"><ele>958.0</ele><time>2026-05-02T13:48:01.947Z</time></trkpt><trkpt lat="44.233118122921695" lon="10.74992413560346"><ele>959.4</ele><time>2026-05-02T13:48:02.947Z</time></trkpt><trkpt lat="44.232999944155935" lon="10.749978695112672"><ele>960.8</ele><time>2026-05-02T13:48:03.947Z</time></trkpt><trkpt lat="44.232892642432695" lon="10.750030197064294"><ele>962.2</ele><time>2026-05-02T13:48:04.947Z</time></trkpt><trkpt lat="44.23280057131664" lon="10.750072613292252"><ele>963.6</ele><time>2026-05-02T13:48:05.947Z</time></trkpt><trkpt lat="44.23270624663353" lon="10.75011801139346"><ele>965.0</ele><time>2026-05-02T13:48:06.947Z</time></trkpt><trkpt lat="44.2326152303875" lon="10.750154993006465"><ele>965.0</ele><time>2026-05-02T13:48:07.947Z</time></trkpt><trkpt lat="44.2325353076785" lon="10.750177563460456"><ele>965.0</ele><time>2026-05-02T13:48:08.947Z</time></trkpt><trkpt lat="44.23245013665625" lon="10.750202730439122"><ele>965.0</ele><time>2026-05-02T13:48:09.947Z</time></trkpt><trkpt lat="44.23235941466576" lon="10.75023170984488"><ele>965.0</ele><time>2026-05-02T13:48:10.947Z</time></trkpt><trkpt lat="44.23226051516016" lon="10.750239343119144"><ele>965.0</ele><time>2026-05-02T13:48:11.947Z</time></trkpt><trkpt lat="44.23216054240113" lon="10.750228601641693"><ele>965.2</ele><time>2026-05-02T13:48:12.947Z</time></trkpt><trkpt lat="44.232054614350076" lon="10.750216847253508"><ele>965.4</ele><time>2026-05-02T13:48:13.947Z</time></trkpt><trkpt lat="44.23195290681807" lon="10.750208725029653"><ele>965.5999999999999</ele><time>2026-05-02T13:48:14.947Z</time></trkpt><trkpt lat="44.2318589560699" lon="10.750206257619459"><ele>965.8</ele><time>2026-05-02T13:48:15.947Z</time></trkpt><trkpt lat="44.23176056520327" lon="10.750218734933089"><ele>966.0</ele><time>2026-05-02T13:48:16.948Z</time></trkpt><trkpt lat="44.23166697194688" lon="10.750266308170717"><ele>966.0</ele><time>2026-05-02T13:48:17.948Z</time></trkpt><trkpt lat="44.23158250868531" lon="10.750328881720739"><ele>965.9999999999999</ele><time>2026-05-02T13:48:18.948Z</time></trkpt><trkpt lat="44.2315060027167" lon="10.750424914234125"><ele>965.9999999999999</ele><time>2026-05-02T13:48:19.948Z</time></trkpt><trkpt lat="44.23145039652649" lon="10.750544756578305"><ele>966.0</ele><time>2026-05-02T13:48:20.948Z</time></trkpt><trkpt lat="44.23140324050421" lon="10.750677472277394"><ele>966.0</ele><time>2026-05-02T13:48:21.948Z</time></trkpt><trkpt lat="44.23141231329556" lon="10.750826581945601"><ele>971.75</ele><time>2026-05-02T13:48:22.948Z</time></trkpt><trkpt lat="44.23140500009771" lon="10.750981630155776"><ele>977.5</ele><time>2026-05-02T13:48:23.948Z</time></trkpt><trkpt lat="44.231378079675" lon="10.751149164544533"><ele>983.25</ele><time>2026-05-02T13:48:24.948Z</time></trkpt><trkpt lat="44.231383123782464" lon="10.751318891055478"><ele>989.0</ele><time>2026-05-02T13:48:25.948Z</time></trkpt><trkpt lat="44.23139459338905" lon="10.751497030206322"><ele>990.75</ele><time>2026-05-02T13:48:26.948Z</time></trkpt><trkpt lat="44.231418704716205" lon="10.751680713940077"><ele>992.5</ele><time>2026-05-02T13:48:27.948Z</time></trkpt><trkpt lat="44.231449585638366" lon="10.751864059799782"><ele>994.25</ele><time>2026-05-02T13:48:28.948Z</time></trkpt><trkpt lat="44.231491891139484" lon="10.752050994437923"><ele>996.0</ele><time>2026-05-02T13:48:29.948Z</time></trkpt><trkpt lat="44.23153147358786" lon="10.752230187383626"><ele>992.25</ele><time>2026-05-02T13:48:30.948Z</time></trkpt><trkpt lat="44.231576947212695" lon="10.752407471363568"><ele>988.5</ele><time>2026-05-02T13:48:31.948Z</time></trkpt><trkpt lat="44.23162309373883" lon="10.752596313771202"><ele>984.75</ele><time>2026-05-02T13:48:32.948Z</time></trkpt><trkpt lat="44.23166825562386" lon="10.752776224100861"><ele>981.0</ele><time>2026-05-02T13:48:33.948Z</time></trkpt><trkpt lat="44.23170395790208" lon="10.752948032523925"><ele>981.0</ele><time>2026-05-02T13:48:34.948Z</time></trkpt><trkpt lat="44.23171478438533" lon="10.753109890291903"><ele>980.9999999999999</ele><time>2026-05-02T13:48:35.948Z</time></trkpt><trkpt lat="44.23170181561159" lon="10.753278241703029"><ele>980.9999999999999</ele><time>2026-05-02T13:48:36.948Z</time></trkpt><trkpt lat="44.23167975977089" lon="10.75342826660657"><ele>981.0</ele><time>2026-05-02T13:48:37.948Z</time></trkpt><trkpt lat="44.23165063717756" lon="10.753542320645343"><ele>981.0</ele><time>2026-05-02T13:48:38.948Z</time></trkpt><trkpt lat="44.23162382386894" lon="10.753640967842687"><ele>980.3333333333334</ele><time>2026-05-02T13:48:39.948Z</time></trkpt><trkpt lat="44.23159945107167" lon="10.753733755841408"><ele>979.6666666666667</ele><time>2026-05-02T13:48:40.948Z</time></trkpt><trkpt lat="44.231578297691414" lon="10.753827325246446"><ele>979.0</ele><time>2026-05-02T13:48:41.948Z</time></trkpt><trkpt lat="44.231557778239754" lon="10.753923017748406"><ele>978.3333333333334</ele><time>2026-05-02T13:48:42.948Z</time></trkpt><trkpt lat="44.23152708684823" lon="10.754023954272677"><ele>977.6666666666667</ele><time>2026-05-02T13:48:43.948Z</time></trkpt><trkpt lat="44.23149524360001" lon="10.754120312448974"><ele>977.0</ele><time>2026-05-02T13:48:44.948Z</time></trkpt><trkpt lat="44.23145427506255" lon="10.754223603620588"><ele>982.4000000000001</ele><time>2026-05-02T13:48:45.948Z</time></trkpt><trkpt lat="44.23139894922878" lon="10.754312321683178"><ele>987.8000000000001</ele><time>2026-05-02T13:48:46.948Z</time></trkpt><trkpt lat="44.23133863867207" lon="10.754412663240506"><ele>993.2</ele><time>2026-05-02T13:48:47.948Z</time></trkpt><trkpt lat="44.23127183851483" lon="10.75452156665909"><ele>998.6</ele><time>2026-05-02T13:48:48.948Z</time></trkpt><trkpt lat="44.231203909023264" lon="10.75463760064225"><ele>1004.0</ele><time>2026-05-02T13:48:49.948Z</time></trkpt><trkpt lat="44.23114578869259" lon="10.754746306622385"><ele>1004.0</ele><time>2026-05-02T13:48:50.948Z</time></trkpt><trkpt lat="44.23108847570945" lon="10.754862486215762"><ele>1004.0000000000001</ele><time>2026-05-02T13:48:51.945Z</time></trkpt><trkpt lat="44.231036384249514" lon="10.754989560985408"><ele>1004.0000000000001</ele><time>2026-05-02T13:48:52.944Z</time></trkpt><trkpt lat="44.230987349954475" lon="10.755115688886852"><ele>1004.0</ele><time>2026-05-02T13:48:53.944Z</time></trkpt><trkpt lat="44.23095723171317" lon="10.75527535925582"><ele>1004.0</ele><time>2026-05-02T13:48:54.944Z</time></trkpt><trkpt lat="44.23094981945108" lon="10.75542377859415"><ele>1003.75</ele><time>2026-05-02T13:48:55.945Z</time></trkpt><trkpt lat="44.230946518394106" lon="10.755582270359087"><ele>1003.5</ele><time>2026-05-02T13:48:56.945Z</time></trkpt><trkpt lat="44.23094431947316" lon="10.755748816024155"><ele>1003.25</ele><time>2026-05-02T13:48:57.945Z</time></trkpt><trkpt lat="44.23094145994116" lon="10.755910351536999"><ele>1003.0</ele><time>2026-05-02T13:48:58.945Z</time></trkpt><trkpt lat="44.23092891353317" lon="10.756066010373605"><ele>1001.5</ele><time>2026-05-02T13:48:59.945Z</time></trkpt><trkpt lat="44.23089875305061" lon="10.756221676373091"><ele>1000.0</ele><time>2026-05-02T13:49:00.944Z</time></trkpt><trkpt lat="44.230860082978865" lon="10.75638464016122"><ele>998.5</ele><time>2026-05-02T13:49:01.944Z</time></trkpt><trkpt lat="44.230804152794946" lon="10.756537122293201"><ele>997.0</ele><time>2026-05-02T13:49:02.944Z</time></trkpt><trkpt lat="44.23073759006815" lon="10.75668069464039"><ele>997.0</ele><time>2026-05-02T13:49:03.944Z</time></trkpt><trkpt lat="44.23067487874018" lon="10.756850234996284"><ele>997.0</ele><time>2026-05-02T13:49:04.944Z</time></trkpt><trkpt lat="44.23062120401342" lon="10.757005898811917"><ele>997.0</ele><time>2026-05-02T13:49:05.944Z</time></trkpt><trkpt lat="44.23058612896781" lon="10.757163067581311"><ele>997.0</ele><time>2026-05-02T13:49:06.944Z</time></trkpt><trkpt lat="44.23056671468518" lon="10.757310922545868"><ele>999.0</ele><time>2026-05-02T13:49:07.944Z</time></trkpt><trkpt lat="44.230552590404194" lon="10.75745277254998"><ele>1001.0</ele><time>2026-05-02T13:49:08.944Z</time></trkpt><trkpt lat="44.23053528174756" lon="10.757579726004048"><ele>1003.0</ele><time>2026-05-02T13:49:09.944Z</time></trkpt><trkpt lat="44.23049979825963" lon="10.757680330642359"><ele>1005.0</ele><time>2026-05-02T13:49:10.944Z</time></trkpt><trkpt lat="44.230438598332235" lon="10.757736431601904"><ele>1007.0</ele><time>2026-05-02T13:49:11.944Z</time></trkpt><trkpt lat="44.23034071859949" lon="10.757791606749983"><ele>1007.0</ele><time>2026-05-02T13:49:12.944Z</time></trkpt><trkpt lat="44.230247231935714" lon="10.757791356590394"><ele>1007.0</ele><time>2026-05-02T13:49:13.944Z</time></trkpt><trkpt lat="44.23017402699413" lon="10.75779231643293"><ele>1007.0</ele><time>2026-05-02T13:49:14.944Z</time></trkpt><trkpt lat="44.23008348389446" lon="10.757821559263498"><ele>1007.0</ele><time>2026-05-02T13:49:15.944Z</time></trkpt><trkpt lat="44.2299818276822" lon="10.757871263614167"><ele>1007.0</ele><time>2026-05-02T13:49:16.944Z</time></trkpt><trkpt lat="44.229894261475664" lon="10.757917734237239"><ele>1011.1666666666667</ele><time>2026-05-02T13:49:17.945Z</time></trkpt><trkpt lat="44.22980787124742" lon="10.757959918562843"><ele>1015.3333333333334</ele><time>2026-05-02T13:49:18.945Z</time></trkpt><trkpt lat="44.229730900448985" lon="10.758014207769008"><ele>1019.5</ele><time>2026-05-02T13:49:19.945Z</time></trkpt><trkpt lat="44.22966026766397" lon="10.75806687626865"><ele>1023.6666666666667</ele><time>2026-05-02T13:49:20.945Z</time></trkpt><trkpt lat="44.2295878967753" lon="10.758131595294394"><ele>1027.8333333333333</ele><time>2026-05-02T13:49:21.945Z</time></trkpt><trkpt lat="44.229547835341656" lon="10.758240784405738"><ele>1032.0</ele><time>2026-05-02T13:49:22.945Z</time></trkpt><trkpt lat="44.22954267836686" lon="10.75838554796193"><ele>1032.0</ele><time>2026-05-02T13:49:23.945Z</time></trkpt><trkpt lat="44.22959467846731" lon="10.758520217504573"><ele>1032.0</ele><time>2026-05-02T13:49:24.945Z</time></trkpt><trkpt lat="44.229651307768194" lon="10.758643395292799"><ele>1032.0</ele><time>2026-05-02T13:49:25.945Z</time></trkpt><trkpt lat="44.22969003102622" lon="10.758763338865574"><ele>1032.0</ele><time>2026-05-02T13:49:26.945Z</time></trkpt><trkpt lat="44.22974047432975" lon="10.758874141003755"><ele>1032.0</ele><time>2026-05-02T13:49:27.945Z</time></trkpt><trkpt lat="44.229746884737665" lon="10.759016425607628"><ele>1033.6</ele><time>2026-05-02T13:49:28.945Z</time></trkpt><trkpt lat="44.22972884532627" lon="10.759176643408255"><ele>1035.2</ele><time>2026-05-02T13:49:29.945Z</time></trkpt><trkpt lat="44.22973311534272" lon="10.759328692603173"><ele>1036.8</ele><time>2026-05-02T13:49:30.945Z</time></trkpt><trkpt lat="44.229760580397325" lon="10.75947200109133"><ele>1038.4</ele><time>2026-05-02T13:49:31.945Z</time></trkpt><trkpt lat="44.22980348193732" lon="10.759603098553265"><ele>1040.0</ele><time>2026-05-02T13:49:32.945Z</time></trkpt><trkpt lat="44.22985420838044" lon="10.759721878236483"><ele>1034.8</ele><time>2026-05-02T13:49:33.945Z</time></trkpt><trkpt lat="44.22990314359443" lon="10.759825093313887"><ele>1029.6</ele><time>2026-05-02T13:49:34.945Z</time></trkpt><trkpt lat="44.229950386192414" lon="10.759928195967822"><ele>1024.4</ele><time>2026-05-02T13:49:35.945Z</time></trkpt><trkpt lat="44.22996856880687" lon="10.760055359105994"><ele>1019.2</ele><time>2026-05-02T13:49:36.945Z</time></trkpt><trkpt lat="44.22996661596325" lon="10.760172863336871"><ele>1014.0</ele><time>2026-05-02T13:49:37.945Z</time></trkpt><trkpt lat="44.229915956222264" lon="10.760307803219307"><ele>1014.0</ele><time>2026-05-02T13:49:38.945Z</time></trkpt><trkpt lat="44.22987341673809" lon="10.76043854115747"><ele>1014.0000000000001</ele><time>2026-05-02T13:49:39.945Z</time></trkpt><trkpt lat="44.22982196818239" lon="10.760574120845366"><ele>1014.0000000000001</ele><time>2026-05-02T13:49:40.945Z</time></trkpt><trkpt lat="44.22977236269599" lon="10.760716303555473"><ele>1014.0</ele><time>2026-05-02T13:49:41.945Z</time></trkpt><trkpt lat="44.22972780408385" lon="10.76086966105805"><ele>1014.0</ele><time>2026-05-02T13:49:42.945Z</time></trkpt><trkpt lat="44.22969001095191" lon="10.76101834686893"><ele>1022.2</ele><time>2026-05-02T13:49:43.945Z</time></trkpt><trkpt lat="44.22965434329732" lon="10.761157438251537"><ele>1030.4</ele><time>2026-05-02T13:49:44.945Z</time></trkpt><trkpt lat="44.22962605480689" lon="10.761279165617987"><ele>1038.6</ele><time>2026-05-02T13:49:45.945Z</time></trkpt><trkpt lat="44.22960672712472" lon="10.761409429761674"><ele>1046.8</ele><time>2026-05-02T13:49:46.945Z</time></trkpt><trkpt lat="44.22957129863432" lon="10.761538576144009"><ele>1055.0</ele><time>2026-05-02T13:49:47.945Z</time></trkpt><trkpt lat="44.22951751396469" lon="10.761670943171346"><ele>1055.0</ele><time>2026-05-02T13:49:48.945Z</time></trkpt><trkpt lat="44.229483598417396" lon="10.761834698989631"><ele>1055.0</ele><time>2026-05-02T13:49:49.945Z</time></trkpt><trkpt lat="44.22946075553869" lon="10.762006716135947"><ele>1055.0</ele><time>2026-05-02T13:49:50.945Z</time></trkpt><trkpt lat="44.22945965978019" lon="10.762159514076206"><ele>1055.0</ele><time>2026-05-02T13:49:51.945Z</time></trkpt><trkpt lat="44.2294906198134" lon="10.76231437712115"><ele>1054.4</ele><time>2026-05-02T13:49:52.945Z</time></trkpt><trkpt lat="44.22950761484426" lon="10.762459129545876"><ele>1053.8</ele><time>2026-05-02T13:49:53.945Z</time></trkpt><trkpt lat="44.229523913910505" lon="10.762617070933578"><ele>1053.2</ele><time>2026-05-02T13:49:54.945Z</time></trkpt><trkpt lat="44.22953078766476" lon="10.762778121861608"><ele>1052.6</ele><time>2026-05-02T13:49:55.945Z</time></trkpt><trkpt lat="44.22953912032314" lon="10.762907019682205"><ele>1052.0</ele><time>2026-05-02T13:49:56.945Z</time></trkpt><trkpt lat="44.229546835127856" lon="10.763060732857554"><ele>1052.0</ele><time>2026-05-02T13:49:57.945Z</time></trkpt><trkpt lat="44.2295486641432" lon="10.763220875363567"><ele>1052.0</ele><time>2026-05-02T13:49:58.945Z</time></trkpt><trkpt lat="44.229548873719985" lon="10.763391815432012"><ele>1052.0</ele><time>2026-05-02T13:49:59.945Z</time></trkpt><trkpt lat="44.22956794067205" lon="10.763563412810878"><ele>1052.0</ele><time>2026-05-02T13:50:00.945Z</time></trkpt><trkpt lat="44.22959307438236" lon="10.763744710810858"><ele>1052.2</ele><time>2026-05-02T13:50:01.945Z</time></trkpt><trkpt lat="44.229617293028824" lon="10.763906491920803"><ele>1052.4</ele><time>2026-05-02T13:50:02.945Z</time></trkpt><trkpt lat="44.22963099563409" lon="10.764063374352219"><ele>1052.6</ele><time>2026-05-02T13:50:03.945Z</time></trkpt><trkpt lat="44.22965029379414" lon="10.764205740344266"><ele>1052.8</ele><time>2026-05-02T13:50:04.945Z</time></trkpt><trkpt lat="44.22965934145254" lon="10.764351645047867"><ele>1053.0</ele><time>2026-05-02T13:50:05.945Z</time></trkpt><trkpt lat="44.22967174196824" lon="10.764482682993753"><ele>1053.0</ele><time>2026-05-02T13:50:06.945Z</time></trkpt><trkpt lat="44.229689495007136" lon="10.764614365921854"><ele>1053.0</ele><time>2026-05-02T13:50:07.945Z</time></trkpt><trkpt lat="44.22971079162839" lon="10.764736253066761"><ele>1053.0</ele><time>2026-05-02T13:50:08.945Z</time></trkpt><trkpt lat="44.229737252349466" lon="10.764860165600917"><ele>1053.0</ele><time>2026-05-02T13:50:09.945Z</time></trkpt><trkpt lat="44.22975978127472" lon="10.764982366930381"><ele>1053.0</ele><time>2026-05-02T13:50:10.945Z</time></trkpt><trkpt lat="44.22978048796241" lon="10.765100758201653"><ele>1052.0</ele><time>2026-05-02T13:50:11.945Z</time></trkpt><trkpt lat="44.2298007632655" lon="10.765212315380701"><ele>1051.0</ele><time>2026-05-02T13:50:12.945Z</time></trkpt><trkpt lat="44.22982866148099" lon="10.765327105263601"><ele>1050.0</ele><time>2026-05-02T13:50:13.945Z</time></trkpt><trkpt lat="44.229857883267066" lon="10.76544927464616"><ele>1049.0</ele><time>2026-05-02T13:50:14.946Z</time></trkpt><trkpt lat="44.22988472792606" lon="10.765577473447765"><ele>1048.0</ele><time>2026-05-02T13:50:15.946Z</time></trkpt><trkpt lat="44.22991780605695" lon="10.765711703701266"><ele>1044.0</ele><time>2026-05-02T13:50:16.946Z</time></trkpt><trkpt lat="44.22996942878754" lon="10.765826176589824"><ele>1040.0</ele><time>2026-05-02T13:50:17.946Z</time></trkpt><trkpt lat="44.23003110200304" lon="10.765931531115495"><ele>1036.0</ele><time>2026-05-02T13:50:18.946Z</time></trkpt><trkpt lat="44.23007865072067" lon="10.76601695122267"><ele>1032.0</ele><time>2026-05-02T13:50:19.946Z</time></trkpt><trkpt lat="44.230110266609096" lon="10.766093456229816"><ele>1028.0</ele><time>2026-05-02T13:50:20.946Z</time></trkpt><trkpt lat="44.23017115877355" lon="10.766232523881152"><ele>1028.0</ele><time>2026-05-02T13:50:22.946Z</time></trkpt><trkpt lat="44.23020504674727" lon="10.766342449161767"><ele>1028.0</ele><time>2026-05-02T13:50:24.946Z</time></trkpt><trkpt lat="44.23023523561446" lon="10.766436785315388"><ele>1028.0</ele><time>2026-05-02T13:50:26.946Z</time></trkpt><trkpt lat="44.23026300814124" lon="10.766523526929639"><ele>1028.0</ele><time>2026-05-02T13:50:28.946Z</time></trkpt><trkpt lat="44.23032329334692" lon="10.766584921715586"><ele>1028.0</ele><time>2026-05-02T13:50:30.946Z</time></trkpt><trkpt lat="44.23040317146246" lon="10.76653445219183"><ele>1028.0</ele><time>2026-05-02T13:50:32.946Z</time></trkpt><trkpt lat="44.230493501868395" lon="10.766464222324613"><ele>1028.0</ele><time>2026-05-02T13:50:34.946Z</time></trkpt><trkpt lat="44.23055662365288" lon="10.76646782567948"><ele>1028.0</ele><time>2026-05-02T13:50:35.946Z</time></trkpt><trkpt lat="44.23062314381502" lon="10.766481953182636"><ele>1028.0</ele><time>2026-05-02T13:50:36.946Z</time></trkpt><trkpt lat="44.230685079151755" lon="10.766517746177342"><ele>1028.0</ele><time>2026-05-02T13:50:37.946Z</time></trkpt><trkpt lat="44.23073144678845" lon="10.766584937830526"><ele>1028.0</ele><time>2026-05-02T13:50:38.946Z</time></trkpt><trkpt lat="44.23076273200257" lon="10.766684674391431"><ele>1028.0</ele><time>2026-05-02T13:50:39.946Z</time></trkpt><trkpt lat="44.23077496101457" lon="10.766788983355951"><ele>1028.0</ele><time>2026-05-02T13:50:40.946Z</time></trkpt><trkpt lat="44.23077422664182" lon="10.766905922835312"><ele>1027.0</ele><time>2026-05-02T13:50:41.946Z</time></trkpt><trkpt lat="44.230765187143355" lon="10.767032489285866"><ele>1026.0</ele><time>2026-05-02T13:50:42.946Z</time></trkpt><trkpt lat="44.23076024248358" lon="10.767163671971561"><ele>1025.0</ele><time>2026-05-02T13:50:43.946Z</time></trkpt><trkpt lat="44.23075166746169" lon="10.767274329444152"><ele>1024.0</ele><time>2026-05-02T13:50:44.946Z</time></trkpt><trkpt lat="44.23071388326618" lon="10.767378751361955"><ele>1023.0000000000001</ele><time>2026-05-02T13:50:45.946Z</time></trkpt><trkpt lat="44.23066334427087" lon="10.767463306942053"><ele>1022.0</ele><time>2026-05-02T13:50:46.946Z</time></trkpt><trkpt lat="44.23061363804523" lon="10.767524906129308"><ele>1022.0</ele><time>2026-05-02T13:50:47.946Z</time></trkpt><trkpt lat="44.23054322897494" lon="10.76761027561259"><ele>1022.0</ele><time>2026-05-02T13:50:49.946Z</time></trkpt><trkpt lat="44.23046490682886" lon="10.76770807986392"><ele>1022.0</ele><time>2026-05-02T13:50:51.946Z</time></trkpt><trkpt lat="44.23037473129469" lon="10.767832296306512"><ele>1022.0</ele><time>2026-05-02T13:50:53.946Z</time></trkpt><trkpt lat="44.23032288258774" lon="10.767906349475751"><ele>1022.0</ele><time>2026-05-02T13:50:54.946Z</time></trkpt><trkpt lat="44.23026934021788" lon="10.767981161316698"><ele>1021.1666666666667</ele><time>2026-05-02T13:50:55.946Z</time></trkpt><trkpt lat="44.230216418048876" lon="10.768058688537414"><ele>1020.3333333333334</ele><time>2026-05-02T13:50:56.946Z</time></trkpt><trkpt lat="44.23017596176068" lon="10.768158943866563"><ele>1019.5</ele><time>2026-05-02T13:50:57.943Z</time></trkpt><trkpt lat="44.23015046794788" lon="10.768270791975127"><ele>1018.6666666666667</ele><time>2026-05-02T13:50:58.942Z</time></trkpt><trkpt lat="44.230153694809914" lon="10.7683941786356"><ele>1017.8333333333334</ele><time>2026-05-02T13:50:59.942Z</time></trkpt><trkpt lat="44.230163145709675" lon="10.76851972471849"><ele>1017.0</ele><time>2026-05-02T13:51:00.943Z</time></trkpt><trkpt lat="44.23017112289827" lon="10.768644916204938"><ele>1017.0</ele><time>2026-05-02T13:51:01.942Z</time></trkpt><trkpt lat="44.230181844065406" lon="10.768747981074153"><ele>1017.0</ele><time>2026-05-02T13:51:02.942Z</time></trkpt><trkpt lat="44.23020322781449" lon="10.768836838870943"><ele>1017.0</ele><time>2026-05-02T13:51:03.943Z</time></trkpt><trkpt lat="44.230272354415575" lon="10.768987085312894"><ele>1017.0</ele><time>2026-05-02T13:51:05.943Z</time></trkpt><trkpt lat="44.23035913403527" lon="10.769070841784936"><ele>1017.0</ele><time>2026-05-02T13:51:07.942Z</time></trkpt><trkpt lat="44.23047615421265" lon="10.76913531512637"><ele>1017.0</ele><time>2026-05-02T13:51:09.943Z</time></trkpt><trkpt lat="44.230541351069945" lon="10.769182202765979"><ele>1017.0</ele><time>2026-05-02T13:51:10.942Z</time></trkpt><trkpt lat="44.23062381646507" lon="10.769237595362801"><ele>1017.0</ele><time>2026-05-02T13:51:11.942Z</time></trkpt><trkpt lat="44.23071732143789" lon="10.769306841211506"><ele>1017.0</ele><time>2026-05-02T13:51:12.942Z</time></trkpt><trkpt lat="44.230821826944194" lon="10.769375054549704"><ele>1017.0</ele><time>2026-05-02T13:51:13.942Z</time></trkpt><trkpt lat="44.23092499154432" lon="10.769437300976962"><ele>1014.8</ele><time>2026-05-02T13:51:14.942Z</time></trkpt><trkpt lat="44.23101553401371" lon="10.769496690487394"><ele>1012.6</ele><time>2026-05-02T13:51:15.942Z</time></trkpt><trkpt lat="44.23111204697594" lon="10.769549794806917"><ele>1010.3999999999999</ele><time>2026-05-02T13:51:16.942Z</time></trkpt><trkpt lat="44.23120051359283" lon="10.769607140827915"><ele>1008.1999999999999</ele><time>2026-05-02T13:51:17.942Z</time></trkpt><trkpt lat="44.231302612045795" lon="10.769670525408477"><ele>1006.0</ele><time>2026-05-02T13:51:18.942Z</time></trkpt><trkpt lat="44.23138190975945" lon="10.7697231427517"><ele>1005.9999999999999</ele><time>2026-05-02T13:51:19.943Z</time></trkpt><trkpt lat="44.23144323175121" lon="10.769765098160669"><ele>1006.0</ele><time>2026-05-02T13:51:20.943Z</time></trkpt><trkpt lat="44.23152133337288" lon="10.76981297669006"><ele>1006.0</ele><time>2026-05-02T13:51:21.943Z</time></trkpt><trkpt lat="44.23160184584135" lon="10.769835891214253"><ele>1006.0</ele><time>2026-05-02T13:51:22.943Z</time></trkpt><trkpt lat="44.23168828259225" lon="10.76985597316012"><ele>1005.9999999999999</ele><time>2026-05-02T13:51:23.943Z</time></trkpt><trkpt lat="44.231772119927975" lon="10.769836485098807"><ele>1006.0</ele><time>2026-05-02T13:51:24.943Z</time></trkpt><trkpt lat="44.23185856270312" lon="10.769771505033185"><ele>1004.8333333333333</ele><time>2026-05-02T13:51:25.943Z</time></trkpt><trkpt lat="44.23192635927882" lon="10.769709999702597"><ele>1003.6666666666666</ele><time>2026-05-02T13:51:26.943Z</time></trkpt><trkpt lat="44.232002713728754" lon="10.769641161532684"><ele>1002.5</ele><time>2026-05-02T13:51:27.943Z</time></trkpt><trkpt lat="44.23207739828129" lon="10.769573828886854"><ele>1001.3333333333333</ele><time>2026-05-02T13:51:28.943Z</time></trkpt><trkpt lat="44.23210662561664" lon="10.76944217286152"><ele>1000.1666666666666</ele><time>2026-05-02T13:51:29.943Z</time></trkpt><trkpt lat="44.232174295684615" lon="10.769428895135054"><ele>999.0</ele><time>2026-05-02T13:51:30.943Z</time></trkpt><trkpt lat="44.23224154866058" lon="10.769439487348697"><ele>999.0</ele><time>2026-05-02T13:51:31.943Z</time></trkpt><trkpt lat="44.23229983901291" lon="10.769489686779963"><ele>999.0</ele><time>2026-05-02T13:51:32.943Z</time></trkpt><trkpt lat="44.23235265908804" lon="10.769574331171055"><ele>999.0</ele><time>2026-05-02T13:51:33.943Z</time></trkpt><trkpt lat="44.23239950047162" lon="10.769685734279703"><ele>999.0</ele><time>2026-05-02T13:51:34.943Z</time></trkpt><trkpt lat="44.232442026756246" lon="10.769812923674902"><ele>999.0</ele><time>2026-05-02T13:51:35.943Z</time></trkpt><trkpt lat="44.23248013918496" lon="10.769947001262144"><ele>999.0</ele><time>2026-05-02T13:51:36.943Z</time></trkpt><trkpt lat="44.23251559474696" lon="10.770096507060181"><ele>997.25</ele><time>2026-05-02T13:51:37.943Z</time></trkpt><trkpt lat="44.23255125918302" lon="10.770240347074493"><ele>995.5</ele><time>2026-05-02T13:51:38.943Z</time></trkpt><trkpt lat="44.23259255063401" lon="10.770390211288252"><ele>993.75</ele><time>2026-05-02T13:51:39.943Z</time></trkpt><trkpt lat="44.23263020708257" lon="10.77054390305147"><ele>992.0</ele><time>2026-05-02T13:51:40.943Z</time></trkpt><trkpt lat="44.23267031212499" lon="10.770702180135869"><ele>992.0</ele><time>2026-05-02T13:51:41.943Z</time></trkpt><trkpt lat="44.23271603297274" lon="10.770856397297083"><ele>992.0</ele><time>2026-05-02T13:51:42.943Z</time></trkpt><trkpt lat="44.23276532644862" lon="10.771009801054618"><ele>992.0</ele><time>2026-05-02T13:51:43.943Z</time></trkpt><trkpt lat="44.23281944829489" lon="10.771165509633459"><ele>992.0</ele><time>2026-05-02T13:51:44.943Z</time></trkpt><trkpt lat="44.23286351765625" lon="10.771320291134936"><ele>989.0</ele><time>2026-05-02T13:51:45.943Z</time></trkpt><trkpt lat="44.23291655057615" lon="10.771462467195859"><ele>986.0</ele><time>2026-05-02T13:51:46.943Z</time></trkpt><trkpt lat="44.23298979163934" lon="10.771594466351463"><ele>983.0</ele><time>2026-05-02T13:51:47.943Z</time></trkpt><trkpt lat="44.23307865613068" lon="10.771697319766126"><ele>980.0</ele><time>2026-05-02T13:51:48.943Z</time></trkpt><trkpt lat="44.233187388256674" lon="10.77175676299722"><ele>980.0</ele><time>2026-05-02T13:51:49.943Z</time></trkpt><trkpt lat="44.23328340645506" lon="10.771838451944815"><ele>980.0</ele><time>2026-05-02T13:51:50.943Z</time></trkpt><trkpt lat="44.233373347436164" lon="10.77192330048873"><ele>980.0</ele><time>2026-05-02T13:51:51.943Z</time></trkpt><trkpt lat="44.233476608763354" lon="10.772001328828768"><ele>980.0</ele><time>2026-05-02T13:51:52.943Z</time></trkpt><trkpt lat="44.23359756671433" lon="10.77209652077321"><ele>979.75</ele><time>2026-05-02T13:51:53.943Z</time></trkpt><trkpt lat="44.233715066915174" lon="10.772180230523492"><ele>979.5</ele><time>2026-05-02T13:51:54.943Z</time></trkpt><trkpt lat="44.23382618648021" lon="10.77226302277211"><ele>979.25</ele><time>2026-05-02T13:51:55.943Z</time></trkpt><trkpt lat="44.23391778911316" lon="10.772314926727011"><ele>979.0</ele><time>2026-05-02T13:51:56.943Z</time></trkpt><trkpt lat="44.234023530764055" lon="10.772367270228449"><ele>979.0</ele><time>2026-05-02T13:51:57.943Z</time></trkpt><trkpt lat="44.23414313272244" lon="10.772390609595979"><ele>979.0</ele><time>2026-05-02T13:51:58.943Z</time></trkpt><trkpt lat="44.23428670810258" lon="10.772399709575032"><ele>979.0</ele><time>2026-05-02T13:51:59.943Z</time></trkpt><trkpt lat="44.2344134319661" lon="10.772408961696097"><ele>979.0</ele><time>2026-05-02T13:52:00.943Z</time></trkpt><trkpt lat="44.23452525224091" lon="10.772417075581355"><ele>979.0</ele><time>2026-05-02T13:52:01.943Z</time></trkpt><trkpt lat="44.23459849110219" lon="10.772450509196128"><ele>979.0000000000001</ele><time>2026-05-02T13:52:02.943Z</time></trkpt><trkpt lat="44.23469425119903" lon="10.77250241614193"><ele>979.0000000000001</ele><time>2026-05-02T13:52:03.943Z</time></trkpt><trkpt lat="44.23478231602784" lon="10.772577729767484"><ele>979.0</ele><time>2026-05-02T13:52:04.943Z</time></trkpt><trkpt lat="44.23485039025716" lon="10.772685647234683"><ele>979.0</ele><time>2026-05-02T13:52:05.943Z</time></trkpt><trkpt lat="44.23492605459986" lon="10.772792036826269"><ele>977.2</ele><time>2026-05-02T13:52:06.943Z</time></trkpt><trkpt lat="44.235001848812594" lon="10.772889746570858"><ele>975.4000000000001</ele><time>2026-05-02T13:52:07.943Z</time></trkpt><trkpt lat="44.23508011959253" lon="10.773000418755963"><ele>973.6</ele><time>2026-05-02T13:52:08.943Z</time></trkpt><trkpt lat="44.235153034866244" lon="10.773121405637566"><ele>971.8</ele><time>2026-05-02T13:52:09.943Z</time></trkpt><trkpt lat="44.235211987559744" lon="10.77326787067364"><ele>970.0</ele><time>2026-05-02T13:52:10.943Z</time></trkpt><trkpt lat="44.23525135284301" lon="10.773436815121611"><ele>970.5</ele><time>2026-05-02T13:52:11.943Z</time></trkpt><trkpt lat="44.23527777910536" lon="10.773601501189317"><ele>971.0</ele><time>2026-05-02T13:52:12.943Z</time></trkpt><trkpt lat="44.23532863630982" lon="10.773763460646821"><ele>971.5</ele><time>2026-05-02T13:52:13.943Z</time></trkpt><trkpt lat="44.23537868595327" lon="10.773925940143432"><ele>972.0</ele><time>2026-05-02T13:52:14.943Z</time></trkpt><trkpt lat="44.2354277434669" lon="10.774082341721629"><ele>972.0</ele><time>2026-05-02T13:52:15.943Z</time></trkpt><trkpt lat="44.235504914938666" lon="10.774232600317283"><ele>972.0</ele><time>2026-05-02T13:52:16.944Z</time></trkpt><trkpt lat="44.23559239634935" lon="10.774376640358055"><ele>972.0</ele><time>2026-05-02T13:52:17.944Z</time></trkpt><trkpt lat="44.23568610128342" lon="10.774498433695749"><ele>972.0</ele><time>2026-05-02T13:52:18.944Z</time></trkpt><trkpt lat="44.235753933665855" lon="10.774592125591298"><ele>968.6666666666666</ele><time>2026-05-02T13:52:19.944Z</time></trkpt><trkpt lat="44.235804244385605" lon="10.774671408775419"><ele>965.3333333333333</ele><time>2026-05-02T13:52:20.944Z</time></trkpt><trkpt lat="44.23583145250641" lon="10.774751192670065"><ele>962.0</ele><time>2026-05-02T13:52:21.944Z</time></trkpt><trkpt lat="44.235819702606435" lon="10.774849264965836"><ele>958.6666666666666</ele><time>2026-05-02T13:52:22.944Z</time></trkpt><trkpt lat="44.235805964024195" lon="10.7749673532276"><ele>955.3333333333333</ele><time>2026-05-02T13:52:23.944Z</time></trkpt><trkpt lat="44.235773738974736" lon="10.775098997743838"><ele>952.0</ele><time>2026-05-02T13:52:24.944Z</time></trkpt><trkpt lat="44.23572440241201" lon="10.7751919394261"><ele>952.8</ele><time>2026-05-02T13:52:25.944Z</time></trkpt><trkpt lat="44.235646956585306" lon="10.77525162404208"><ele>953.6</ele><time>2026-05-02T13:52:26.944Z</time></trkpt><trkpt lat="44.23556011476189" lon="10.775276742990952"><ele>954.3999999999999</ele><time>2026-05-02T13:52:27.944Z</time></trkpt><trkpt lat="44.23546801033249" lon="10.775290231793697"><ele>955.1999999999999</ele><time>2026-05-02T13:52:28.944Z</time></trkpt><trkpt lat="44.235377563556085" lon="10.775332062460217"><ele>956.0</ele><time>2026-05-02T13:52:29.944Z</time></trkpt><trkpt lat="44.23529199528598" lon="10.775390795006325"><ele>956.0</ele><time>2026-05-02T13:52:30.944Z</time></trkpt><trkpt lat="44.23521943875856" lon="10.775481571592058"><ele>955.9999999999999</ele><time>2026-05-02T13:52:31.944Z</time></trkpt><trkpt lat="44.23515006980291" lon="10.77559191372127"><ele>955.9999999999999</ele><time>2026-05-02T13:52:32.944Z</time></trkpt><trkpt lat="44.235093240836186" lon="10.775712295890308"><ele>956.0</ele><time>2026-05-02T13:52:33.944Z</time></trkpt><trkpt lat="44.23503808891541" lon="10.775820999247081"><ele>956.0</ele><time>2026-05-02T13:52:34.944Z</time></trkpt><trkpt lat="44.23497252575067" lon="10.775933644672149"><ele>958.1999999999999</ele><time>2026-05-02T13:52:35.944Z</time></trkpt><trkpt lat="44.23489562695993" lon="10.776053082286637"><ele>960.3999999999999</ele><time>2026-05-02T13:52:36.944Z</time></trkpt><trkpt lat="44.23481129912148" lon="10.776168705470175"><ele>962.6</ele><time>2026-05-02T13:52:37.944Z</time></trkpt><trkpt lat="44.234729639627865" lon="10.776281938050897"><ele>964.8</ele><time>2026-05-02T13:52:38.944Z</time></trkpt><trkpt lat="44.234663449570476" lon="10.776379609307318"><ele>967.0</ele><time>2026-05-02T13:52:39.944Z</time></trkpt><trkpt lat="44.23462110850656" lon="10.776482025905183"><ele>966.9999999999999</ele><time>2026-05-02T13:52:40.944Z</time></trkpt><trkpt lat="44.23457577379599" lon="10.776606102246364"><ele>967.0</ele><time>2026-05-02T13:52:41.944Z</time></trkpt><trkpt lat="44.23455562340566" lon="10.776755476566173"><ele>967.0</ele><time>2026-05-02T13:52:42.944Z</time></trkpt><trkpt lat="44.23455756203037" lon="10.776870320927824"><ele>967.0</ele><time>2026-05-02T13:52:43.944Z</time></trkpt><trkpt lat="44.234598000534476" lon="10.776960312212742"><ele>966.9999999999999</ele><time>2026-05-02T13:52:44.944Z</time></trkpt><trkpt lat="44.234619893918605" lon="10.777059716785196"><ele>967.0</ele><time>2026-05-02T13:52:45.944Z</time></trkpt><trkpt lat="44.23464364616533" lon="10.777219751669518"><ele>966.4000000000001</ele><time>2026-05-02T13:52:47.944Z</time></trkpt><trkpt lat="44.23466544094954" lon="10.777366424500794"><ele>965.8000000000001</ele><time>2026-05-02T13:52:49.944Z</time></trkpt><trkpt lat="44.234748391580524" lon="10.777454383537577"><ele>965.2</ele><time>2026-05-02T13:52:51.944Z</time></trkpt><trkpt lat="44.23483034288384" lon="10.777444166653973"><ele>964.6</ele><time>2026-05-02T13:52:53.944Z</time></trkpt><trkpt lat="44.23487540493968" lon="10.777578745984398"><ele>964.0</ele><time>2026-05-02T13:52:54.944Z</time></trkpt><trkpt lat="44.23490802502006" lon="10.777724771673888"><ele>962.9999999999999</ele><time>2026-05-02T13:52:56.944Z</time></trkpt><trkpt lat="44.234909856799035" lon="10.777857098149386"><ele>962.0</ele><time>2026-05-02T13:52:58.944Z</time></trkpt><trkpt lat="44.23486283379726" lon="10.778011031641217"><ele>961.0</ele><time>2026-05-02T13:53:00.944Z</time></trkpt><trkpt lat="44.234834428014786" lon="10.778090965263107"><ele>960.0</ele><time>2026-05-02T13:53:01.944Z</time></trkpt><trkpt lat="44.23480091039359" lon="10.778190214247077"><ele>958.9999999999999</ele><time>2026-05-02T13:53:02.944Z</time></trkpt><trkpt lat="44.2347792668163" lon="10.778301051651306"><ele>958.0</ele><time>2026-05-02T13:53:03.941Z</time></trkpt><trkpt lat="44.23474693749076" lon="10.778432393261854"><ele>953.8</ele><time>2026-05-02T13:53:04.941Z</time></trkpt><trkpt lat="44.23473140414848" lon="10.7785529826625"><ele>949.5999999999999</ele><time>2026-05-02T13:53:05.941Z</time></trkpt><trkpt lat="44.23472348572786" lon="10.77867924721605"><ele>945.4000000000001</ele><time>2026-05-02T13:53:06.942Z</time></trkpt><trkpt lat="44.234707980221174" lon="10.778819147448209"><ele>941.2</ele><time>2026-05-02T13:53:07.941Z</time></trkpt><trkpt lat="44.23470028446658" lon="10.778959928237647"><ele>937.0</ele><time>2026-05-02T13:53:08.941Z</time></trkpt><trkpt lat="44.23470555357576" lon="10.779101769250625"><ele>937.0</ele><time>2026-05-02T13:53:09.941Z</time></trkpt><trkpt lat="44.234692510158425" lon="10.779236665957447"><ele>937.0</ele><time>2026-05-02T13:53:10.941Z</time></trkpt><trkpt lat="44.23470455425559" lon="10.779351671164253"><ele>937.0</ele><time>2026-05-02T13:53:11.941Z</time></trkpt><trkpt lat="44.23472553858262" lon="10.779472463476454"><ele>937.0</ele><time>2026-05-02T13:53:12.941Z</time></trkpt><trkpt lat="44.234756454835015" lon="10.779589372208612"><ele>937.0</ele><time>2026-05-02T13:53:13.941Z</time></trkpt><trkpt lat="44.2347946785012" lon="10.77971376504187"><ele>934.4285714285713</ele><time>2026-05-02T13:53:14.941Z</time></trkpt><trkpt lat="44.23484231018018" lon="10.779812402831064"><ele>931.8571428571429</ele><time>2026-05-02T13:53:15.94Z</time></trkpt><trkpt lat="44.234848897533894" lon="10.779917933672204"><ele>929.2857142857142</ele><time>2026-05-02T13:53:16.941Z</time></trkpt><trkpt lat="44.23485644155401" lon="10.780017869662748"><ele>926.7142857142857</ele><time>2026-05-02T13:53:17.941Z</time></trkpt><trkpt lat="44.234852950091096" lon="10.78011085692128"><ele>924.1428571428571</ele><time>2026-05-02T13:53:18.941Z</time></trkpt><trkpt lat="44.23484452633186" lon="10.780203004819725"><ele>921.5714285714286</ele><time>2026-05-02T13:53:19.941Z</time></trkpt><trkpt lat="44.234850829043616" lon="10.780292762528289"><ele>919.0</ele><time>2026-05-02T13:53:20.941Z</time></trkpt><trkpt lat="44.23494101869721" lon="10.780406700808832"><ele>918.2</ele><time>2026-05-02T13:53:22.941Z</time></trkpt><trkpt lat="44.23505197723785" lon="10.780417274894633"><ele>917.4000000000001</ele><time>2026-05-02T13:53:24.941Z</time></trkpt><trkpt lat="44.23514280701855" lon="10.78047339990403"><ele>916.6</ele><time>2026-05-02T13:53:26.941Z</time></trkpt><trkpt lat="44.235232519213575" lon="10.780621664694392"><ele>915.8</ele><time>2026-05-02T13:53:28.941Z</time></trkpt><trkpt lat="44.235282379027765" lon="10.780710793613414"><ele>915.0</ele><time>2026-05-02T13:53:29.941Z</time></trkpt><trkpt lat="44.23533500922146" lon="10.780804027031428"><ele>915.0</ele><time>2026-05-02T13:53:30.941Z</time></trkpt><trkpt lat="44.23539272984842" lon="10.78090443730512"><ele>915.0</ele><time>2026-05-02T13:53:31.941Z</time></trkpt><trkpt lat="44.23545181646744" lon="10.78100932636085"><ele>915.0</ele><time>2026-05-02T13:53:32.941Z</time></trkpt><trkpt lat="44.23551129543131" lon="10.78111323198027"><ele>915.0</ele><time>2026-05-02T13:53:33.941Z</time></trkpt><trkpt lat="44.235575029733575" lon="10.781236316996475"><ele>915.0</ele><time>2026-05-02T13:53:34.941Z</time></trkpt><trkpt lat="44.235640761910275" lon="10.781359859537789"><ele>912.25</ele><time>2026-05-02T13:53:35.941Z</time></trkpt><trkpt lat="44.23570804548762" lon="10.781482616250907"><ele>909.5</ele><time>2026-05-02T13:53:36.941Z</time></trkpt><trkpt lat="44.23577147653924" lon="10.781619005373514"><ele>906.75</ele><time>2026-05-02T13:53:37.941Z</time></trkpt><trkpt lat="44.235834938425036" lon="10.781767560668701"><ele>904.0</ele><time>2026-05-02T13:53:38.942Z</time></trkpt><trkpt lat="44.23589027948133" lon="10.781927948903167"><ele>904.0</ele><time>2026-05-02T13:53:39.942Z</time></trkpt><trkpt lat="44.23591771801274" lon="10.78209553556929"><ele>904.0</ele><time>2026-05-02T13:53:40.942Z</time></trkpt><trkpt lat="44.23593757723343" lon="10.782264152356918"><ele>904.0</ele><time>2026-05-02T13:53:41.942Z</time></trkpt><trkpt lat="44.23594840562488" lon="10.782444402372551"><ele>904.0</ele><time>2026-05-02T13:53:42.942Z</time></trkpt><trkpt lat="44.235960829678646" lon="10.782621551567127"><ele>903.25</ele><time>2026-05-02T13:53:43.942Z</time></trkpt><trkpt lat="44.235980518680115" lon="10.782810172469489"><ele>902.5</ele><time>2026-05-02T13:53:44.942Z</time></trkpt><trkpt lat="44.23599492529766" lon="10.783000317618995"><ele>901.75</ele><time>2026-05-02T13:53:45.942Z</time></trkpt><trkpt lat="44.2360186095075" lon="10.783197774414264"><ele>901.0</ele><time>2026-05-02T13:53:46.942Z</time></trkpt><trkpt lat="44.23604059837082" lon="10.783392029668878"><ele>900.5</ele><time>2026-05-02T13:53:47.942Z</time></trkpt><trkpt lat="44.236064105753165" lon="10.783589571093424"><ele>900.0</ele><time>2026-05-02T13:53:48.942Z</time></trkpt><trkpt lat="44.23609191769865" lon="10.783786745424548"><ele>899.5</ele><time>2026-05-02T13:53:49.942Z</time></trkpt><trkpt lat="44.236123107779925" lon="10.783982251449595"><ele>899.0</ele><time>2026-05-02T13:53:50.942Z</time></trkpt><trkpt lat="44.23615751532413" lon="10.784178919273728"><ele>899.0</ele><time>2026-05-02T13:53:51.942Z</time></trkpt><trkpt lat="44.23620287082601" lon="10.78437531726332"><ele>899.0</ele><time>2026-05-02T13:53:52.942Z</time></trkpt><trkpt lat="44.23625798708887" lon="10.7845715098883"><ele>899.0</ele><time>2026-05-02T13:53:53.942Z</time></trkpt><trkpt lat="44.23631929046368" lon="10.784758238019359"><ele>899.0</ele><time>2026-05-02T13:53:54.942Z</time></trkpt><trkpt lat="44.236377844054026" lon="10.784947142107686"><ele>899.0</ele><time>2026-05-02T13:53:55.942Z</time></trkpt><trkpt lat="44.23643614037663" lon="10.785142880364043"><ele>899.0</ele><time>2026-05-02T13:53:56.942Z</time></trkpt><trkpt lat="44.23649548856336" lon="10.785337650387842"><ele>899.0</ele><time>2026-05-02T13:53:57.942Z</time></trkpt><trkpt lat="44.23655361843599" lon="10.785519516474272"><ele>899.0</ele><time>2026-05-02T13:53:58.942Z</time></trkpt><trkpt lat="44.23661499670506" lon="10.785697449712119"><ele>898.25</ele><time>2026-05-02T13:53:59.942Z</time></trkpt><trkpt lat="44.23668903316303" lon="10.785861104414543"><ele>897.5</ele><time>2026-05-02T13:54:00.942Z</time></trkpt><trkpt lat="44.236786577000835" lon="10.786019874128186"><ele>896.75</ele><time>2026-05-02T13:54:01.942Z</time></trkpt><trkpt lat="44.23689139619861" lon="10.78615734469548"><ele>896.0</ele><time>2026-05-02T13:54:02.942Z</time></trkpt><trkpt lat="44.23700235829082" lon="10.78629479943844"><ele>896.0</ele><time>2026-05-02T13:54:03.942Z</time></trkpt><trkpt lat="44.23710301787409" lon="10.786410766048466"><ele>896.0</ele><time>2026-05-02T13:54:04.942Z</time></trkpt><trkpt lat="44.23719392110806" lon="10.78652792074679"><ele>896.0</ele><time>2026-05-02T13:54:05.942Z</time></trkpt><trkpt lat="44.23727758557489" lon="10.786650685157118"><ele>896.0</ele><time>2026-05-02T13:54:06.942Z</time></trkpt><trkpt lat="44.23736017750579" lon="10.786786187589176"><ele>894.5</ele><time>2026-05-02T13:54:07.942Z</time></trkpt><trkpt lat="44.237434583494675" lon="10.786926410139623"><ele>893.0</ele><time>2026-05-02T13:54:08.942Z</time></trkpt><trkpt lat="44.23749902161506" lon="10.787067133210957"><ele>891.5</ele><time>2026-05-02T13:54:09.942Z</time></trkpt><trkpt lat="44.237564017833435" lon="10.787213485115771"><ele>890.0</ele><time>2026-05-02T13:54:10.942Z</time></trkpt><trkpt lat="44.237622265488156" lon="10.78735644570964"><ele>890.0</ele><time>2026-05-02T13:54:11.942Z</time></trkpt><trkpt lat="44.23768450488284" lon="10.7875020902175"><ele>890.0</ele><time>2026-05-02T13:54:12.942Z</time></trkpt><trkpt lat="44.23774656669801" lon="10.787642876274928"><ele>890.0</ele><time>2026-05-02T13:54:13.942Z</time></trkpt><trkpt lat="44.23781273310501" lon="10.787784799343934"><ele>890.0</ele><time>2026-05-02T13:54:14.942Z</time></trkpt><trkpt lat="44.23788635397607" lon="10.787914270269379"><ele>890.75</ele><time>2026-05-02T13:54:15.942Z</time></trkpt><trkpt lat="44.23797470257328" lon="10.788044576078875"><ele>891.5</ele><time>2026-05-02T13:54:16.942Z</time></trkpt><trkpt lat="44.23808346060045" lon="10.788154441262133"><ele>892.25</ele><time>2026-05-02T13:54:17.942Z</time></trkpt><trkpt lat="44.23820010590625" lon="10.788252668431735"><ele>893.0</ele><time>2026-05-02T13:54:18.942Z</time></trkpt><trkpt lat="44.23831930610329" lon="10.788346250741004"><ele>892.5</ele><time>2026-05-02T13:54:19.942Z</time></trkpt><trkpt lat="44.2384395033933" lon="10.78844046558412"><ele>892.0</ele><time>2026-05-02T13:54:20.942Z</time></trkpt><trkpt lat="44.23855854483537" lon="10.78853612885053"><ele>891.5</ele><time>2026-05-02T13:54:21.942Z</time></trkpt><trkpt lat="44.23867371196973" lon="10.788636441212633"><ele>891.0</ele><time>2026-05-02T13:54:22.942Z</time></trkpt><trkpt lat="44.23879000309156" lon="10.788746061094626"><ele>891.0</ele><time>2026-05-02T13:54:23.942Z</time></trkpt><trkpt lat="44.23889396581173" lon="10.788873197376473"><ele>891.0</ele><time>2026-05-02T13:54:24.942Z</time></trkpt><trkpt lat="44.23898758702463" lon="10.78901034772112"><ele>891.0</ele><time>2026-05-02T13:54:25.942Z</time></trkpt><trkpt lat="44.23907349915811" lon="10.789151583326493"><ele>891.0</ele><time>2026-05-02T13:54:26.942Z</time></trkpt><trkpt lat="44.23915864361828" lon="10.78929875136272"><ele>889.0</ele><time>2026-05-02T13:54:27.942Z</time></trkpt><trkpt lat="44.23924717176244" lon="10.789447621148998"><ele>887.0</ele><time>2026-05-02T13:54:28.942Z</time></trkpt><trkpt lat="44.23933487879549" lon="10.78958809674888"><ele>885.0</ele><time>2026-05-02T13:54:29.942Z</time></trkpt><trkpt lat="44.23942982893695" lon="10.789717155555572"><ele>883.0</ele><time>2026-05-02T13:54:30.942Z</time></trkpt><trkpt lat="44.239532498565524" lon="10.789830997112892"><ele>883.0</ele><time>2026-05-02T13:54:31.942Z</time></trkpt><trkpt lat="44.239640615621106" lon="10.789911055782026"><ele>883.0</ele><time>2026-05-02T13:54:32.942Z</time></trkpt><trkpt lat="44.23976478469939" lon="10.789959419854734"><ele>883.0</ele><time>2026-05-02T13:54:33.942Z</time></trkpt><trkpt lat="44.23989611625195" lon="10.78999294768217"><ele>883.0</ele><time>2026-05-02T13:54:34.943Z</time></trkpt><trkpt lat="44.2400196724965" lon="10.79001028775116"><ele>880.5</ele><time>2026-05-02T13:54:35.943Z</time></trkpt><trkpt lat="44.2401488938375" lon="10.79004602717114"><ele>878.0</ele><time>2026-05-02T13:54:36.943Z</time></trkpt><trkpt lat="44.240288768626584" lon="10.790077844974592"><ele>875.5</ele><time>2026-05-02T13:54:37.943Z</time></trkpt><trkpt lat="44.24042228072021" lon="10.790111509201544"><ele>873.0</ele><time>2026-05-02T13:54:38.943Z</time></trkpt><trkpt lat="44.24055056293241" lon="10.79014401111274"><ele>873.5</ele><time>2026-05-02T13:54:39.943Z</time></trkpt><trkpt lat="44.24068727921719" lon="10.79018313913557"><ele>874.0</ele><time>2026-05-02T13:54:40.943Z</time></trkpt><trkpt lat="44.24081860414947" lon="10.790227959648812"><ele>874.5</ele><time>2026-05-02T13:54:41.943Z</time></trkpt><trkpt lat="44.24095010659154" lon="10.790278864183865"><ele>875.0</ele><time>2026-05-02T13:54:42.943Z</time></trkpt><trkpt lat="44.24108458901056" lon="10.790343009617382"><ele>875.0</ele><time>2026-05-02T13:54:43.943Z</time></trkpt><trkpt lat="44.24120637881124" lon="10.790399914698822"><ele>875.0</ele><time>2026-05-02T13:54:44.943Z</time></trkpt><trkpt lat="44.241312939973355" lon="10.790453968444252"><ele>875.0</ele><time>2026-05-02T13:54:45.943Z</time></trkpt><trkpt lat="44.2414038495866" lon="10.790505519208917"><ele>875.0</ele><time>2026-05-02T13:54:46.943Z</time></trkpt><trkpt lat="44.24149413198888" lon="10.790562997545134"><ele>875.0</ele><time>2026-05-02T13:54:47.943Z</time></trkpt><trkpt lat="44.2415741866339" lon="10.790635980460008"><ele>874.2</ele><time>2026-05-02T13:54:48.943Z</time></trkpt><trkpt lat="44.24164988904686" lon="10.790734247919602"><ele>873.4</ele><time>2026-05-02T13:54:49.943Z</time></trkpt><trkpt lat="44.24171540422215" lon="10.790848361628333"><ele>872.5999999999999</ele><time>2026-05-02T13:54:50.943Z</time></trkpt><trkpt lat="44.24177805028803" lon="10.790969107811078"><ele>871.8</ele><time>2026-05-02T13:54:51.943Z</time></trkpt><trkpt lat="44.24184083344832" lon="10.791090414022975"><ele>871.0</ele><time>2026-05-02T13:54:52.943Z</time></trkpt><trkpt lat="44.241882445328876" lon="10.791234545855936"><ele>871.0</ele><time>2026-05-02T13:54:53.943Z</time></trkpt><trkpt lat="44.24194672317304" lon="10.791361369562892"><ele>871.0</ele><time>2026-05-02T13:54:54.943Z</time></trkpt><trkpt lat="44.242009614524775" lon="10.791492466478074"><ele>871.0</ele><time>2026-05-02T13:54:55.943Z</time></trkpt><trkpt lat="44.24208023752194" lon="10.791618837271534"><ele>871.0</ele><time>2026-05-02T13:54:56.943Z</time></trkpt><trkpt lat="44.24211423116656" lon="10.791783272783862"><ele>870.75</ele><time>2026-05-02T13:54:57.943Z</time></trkpt><trkpt lat="44.24215282260869" lon="10.791941009500832"><ele>870.5</ele><time>2026-05-02T13:54:58.943Z</time></trkpt><trkpt lat="44.24219000999657" lon="10.792112774898829"><ele>870.25</ele><time>2026-05-02T13:54:59.943Z</time></trkpt><trkpt lat="44.24223135630818" lon="10.79229050189628"><ele>870.0</ele><time>2026-05-02T13:55:00.943Z</time></trkpt><trkpt lat="44.24227320308366" lon="10.792462701078392"><ele>869.25</ele><time>2026-05-02T13:55:01.943Z</time></trkpt><trkpt lat="44.24231931292179" lon="10.792629475448978"><ele>868.5</ele><time>2026-05-02T13:55:02.943Z</time></trkpt><trkpt lat="44.24235624023308" lon="10.792790711044292"><ele>867.75</ele><time>2026-05-02T13:55:03.943Z</time></trkpt><trkpt lat="44.24239145788793" lon="10.792944214691028"><ele>867.0</ele><time>2026-05-02T13:55:04.943Z</time></trkpt><trkpt lat="44.242425088874356" lon="10.793091556421468"><ele>867.0</ele><time>2026-05-02T13:55:05.943Z</time></trkpt><trkpt lat="44.24245409749477" lon="10.793227492688757"><ele>867.0</ele><time>2026-05-02T13:55:06.943Z</time></trkpt><trkpt lat="44.24248619613015" lon="10.793365230602403"><ele>867.0</ele><time>2026-05-02T13:55:07.943Z</time></trkpt><trkpt lat="44.242520998477175" lon="10.793503914485253"><ele>867.0</ele><time>2026-05-02T13:55:08.943Z</time></trkpt><trkpt lat="44.24255484975453" lon="10.793640412519487"><ele>867.0</ele><time>2026-05-02T13:55:09.939Z</time></trkpt><trkpt lat="44.24258655069062" lon="10.793787252471715"><ele>867.4000000000001</ele><time>2026-05-02T13:55:10.939Z</time></trkpt><trkpt lat="44.24261567280108" lon="10.793940608908875"><ele>867.8000000000001</ele><time>2026-05-02T13:55:11.939Z</time></trkpt><trkpt lat="44.24262732826081" lon="10.794092512869753"><ele>868.2</ele><time>2026-05-02T13:55:12.94Z</time></trkpt><trkpt lat="44.24261361219042" lon="10.794248487689444"><ele>868.6</ele><time>2026-05-02T13:55:13.94Z</time></trkpt><trkpt lat="44.24258171257513" lon="10.794398234389416"><ele>869.0</ele><time>2026-05-02T13:55:14.94Z</time></trkpt><trkpt lat="44.24253801484847" lon="10.794563037493134"><ele>868.0</ele><time>2026-05-02T13:55:15.939Z</time></trkpt><trkpt lat="44.242523202407895" lon="10.794725500012596"><ele>867.0</ele><time>2026-05-02T13:55:16.94Z</time></trkpt><trkpt lat="44.24252947309541" lon="10.794891002597062"><ele>866.0</ele><time>2026-05-02T13:55:17.94Z</time></trkpt><trkpt lat="44.24257180741965" lon="10.79502684470285"><ele>865.0</ele><time>2026-05-02T13:55:18.939Z</time></trkpt><trkpt lat="44.24263118099816" lon="10.795167229713977"><ele>863.5</ele><time>2026-05-02T13:55:19.939Z</time></trkpt><trkpt lat="44.242694419648494" lon="10.795305980603972"><ele>862.0</ele><time>2026-05-02T13:55:20.939Z</time></trkpt><trkpt lat="44.24274083150878" lon="10.795448167276643"><ele>860.5</ele><time>2026-05-02T13:55:21.939Z</time></trkpt><trkpt lat="44.24276294996535" lon="10.79560457603959"><ele>859.0</ele><time>2026-05-02T13:55:22.939Z</time></trkpt><trkpt lat="44.242766911783235" lon="10.79576447928091"><ele>859.0</ele><time>2026-05-02T13:55:23.939Z</time></trkpt><trkpt lat="44.24276732782596" lon="10.795922668494557"><ele>859.0</ele><time>2026-05-02T13:55:24.939Z</time></trkpt><trkpt lat="44.24276817630807" lon="10.796086503634658"><ele>859.0</ele><time>2026-05-02T13:55:25.939Z</time></trkpt><trkpt lat="44.242767847341774" lon="10.79623988001326"><ele>859.0</ele><time>2026-05-02T13:55:26.939Z</time></trkpt><trkpt lat="44.24277256162596" lon="10.796403914056777"><ele>859.0</ele><time>2026-05-02T13:55:27.939Z</time></trkpt><trkpt lat="44.242775223242965" lon="10.796575847084362"><ele>859.0</ele><time>2026-05-02T13:55:28.939Z</time></trkpt><trkpt lat="44.24277842744794" lon="10.796747455316646"><ele>859.0</ele><time>2026-05-02T13:55:29.94Z</time></trkpt><trkpt lat="44.24278521452563" lon="10.79689846020675"><ele>859.0</ele><time>2026-05-02T13:55:30.94Z</time></trkpt><trkpt lat="44.24276796045412" lon="10.797059838642456"><ele>859.2</ele><time>2026-05-02T13:55:31.94Z</time></trkpt><trkpt lat="44.24272170831065" lon="10.797201565547825"><ele>859.4000000000001</ele><time>2026-05-02T13:55:32.94Z</time></trkpt><trkpt lat="44.242655965664454" lon="10.797321449009821"><ele>859.6</ele><time>2026-05-02T13:55:33.94Z</time></trkpt><trkpt lat="44.242576895992336" lon="10.797420932307832"><ele>859.8</ele><time>2026-05-02T13:55:34.94Z</time></trkpt><trkpt lat="44.24249716440604" lon="10.797501709766841"><ele>860.0</ele><time>2026-05-02T13:55:35.94Z</time></trkpt><trkpt lat="44.24242381431401" lon="10.797588392555785"><ele>859.8</ele><time>2026-05-02T13:55:36.94Z</time></trkpt><trkpt lat="44.24235955720624" lon="10.797704819621783"><ele>859.6</ele><time>2026-05-02T13:55:37.94Z</time></trkpt><trkpt lat="44.24231584556287" lon="10.797854264511464"><ele>859.4000000000001</ele><time>2026-05-02T13:55:38.94Z</time></trkpt><trkpt lat="44.242295273746635" lon="10.79801134606086"><ele>859.2</ele><time>2026-05-02T13:55:39.94Z</time></trkpt><trkpt lat="44.242296510738484" lon="10.798166845802614"><ele>859.0</ele><time>2026-05-02T13:55:40.94Z</time></trkpt><trkpt lat="44.24227947596617" lon="10.798328587349134"><ele>853.75</ele><time>2026-05-02T13:55:41.94Z</time></trkpt><trkpt lat="44.24229316404028" lon="10.798503797977908"><ele>848.5</ele><time>2026-05-02T13:55:42.94Z</time></trkpt><trkpt lat="44.242278270882686" lon="10.79867785044198"><ele>843.25</ele><time>2026-05-02T13:55:43.94Z</time></trkpt><trkpt lat="44.24227472213389" lon="10.798850568411023"><ele>838.0</ele><time>2026-05-02T13:55:44.94Z</time></trkpt><trkpt lat="44.24227331494661" lon="10.79902289976496"><ele>838.0</ele><time>2026-05-02T13:55:45.94Z</time></trkpt><trkpt lat="44.242268521626656" lon="10.79919863966078"><ele>838.0</ele><time>2026-05-02T13:55:46.94Z</time></trkpt><trkpt lat="44.24226295490697" lon="10.799379916065082"><ele>838.0</ele><time>2026-05-02T13:55:47.94Z</time></trkpt><trkpt lat="44.242264609210245" lon="10.799556426862626"><ele>838.0</ele><time>2026-05-02T13:55:48.94Z</time></trkpt><trkpt lat="44.24225773548812" lon="10.799732596105757"><ele>837.0</ele><time>2026-05-02T13:55:49.94Z</time></trkpt><trkpt lat="44.242240027450386" lon="10.79991016823653"><ele>836.0</ele><time>2026-05-02T13:55:50.94Z</time></trkpt><trkpt lat="44.24220733767667" lon="10.80009223060568"><ele>835.0</ele><time>2026-05-02T13:55:51.94Z</time></trkpt><trkpt lat="44.24217315835748" lon="10.800248199305987"><ele>834.0</ele><time>2026-05-02T13:55:52.94Z</time></trkpt><trkpt lat="44.24213568657518" lon="10.800400892271107"><ele>833.8000000000001</ele><time>2026-05-02T13:55:53.94Z</time></trkpt><trkpt lat="44.242107523378706" lon="10.80056215966162"><ele>833.6</ele><time>2026-05-02T13:55:54.94Z</time></trkpt><trkpt lat="44.24209263503698" lon="10.80071266551785"><ele>833.4</ele><time>2026-05-02T13:55:55.94Z</time></trkpt><trkpt lat="44.24208276157024" lon="10.800860535168196"><ele>833.2</ele><time>2026-05-02T13:55:56.94Z</time></trkpt><trkpt lat="44.24209011076664" lon="10.801013106136361"><ele>833.0</ele><time>2026-05-02T13:55:57.94Z</time></trkpt><trkpt lat="44.2421178171302" lon="10.801152440048156"><ele>831.25</ele><time>2026-05-02T13:55:58.94Z</time></trkpt><trkpt lat="44.24215582368094" lon="10.801296202830558"><ele>829.5</ele><time>2026-05-02T13:55:59.94Z</time></trkpt><trkpt lat="44.24220365649431" lon="10.801446588450096"><ele>827.75</ele><time>2026-05-02T13:56:00.94Z</time></trkpt><trkpt lat="44.242258646389004" lon="10.801593650030531"><ele>826.0</ele><time>2026-05-02T13:56:01.94Z</time></trkpt><trkpt lat="44.24230632576999" lon="10.801754681435277"><ele>829.0</ele><time>2026-05-02T13:56:02.94Z</time></trkpt><trkpt lat="44.24234321169356" lon="10.801921531623085"><ele>832.0</ele><time>2026-05-02T13:56:03.94Z</time></trkpt><trkpt lat="44.242369168258165" lon="10.802103923032352"><ele>835.0</ele><time>2026-05-02T13:56:04.94Z</time></trkpt><trkpt lat="44.242394119224166" lon="10.80228274901786"><ele>838.0</ele><time>2026-05-02T13:56:05.94Z</time></trkpt><trkpt lat="44.24240511204247" lon="10.802479462742156"><ele>837.25</ele><time>2026-05-02T13:56:06.94Z</time></trkpt><trkpt lat="44.24240979205852" lon="10.802682251655769"><ele>836.5</ele><time>2026-05-02T13:56:07.94Z</time></trkpt><trkpt lat="44.24240150262561" lon="10.802876347090303"><ele>835.75</ele><time>2026-05-02T13:56:08.94Z</time></trkpt><trkpt lat="44.242382777612754" lon="10.803062237481521"><ele>835.0</ele><time>2026-05-02T13:56:09.94Z</time></trkpt><trkpt lat="44.242351191349734" lon="10.803259262485389"><ele>835.0</ele><time>2026-05-02T13:56:10.94Z</time></trkpt><trkpt lat="44.24230570500197" lon="10.803445710934515"><ele>835.0</ele><time>2026-05-02T13:56:11.94Z</time></trkpt><trkpt lat="44.242250589555226" lon="10.803622928800062"><ele>835.0</ele><time>2026-05-02T13:56:12.94Z</time></trkpt><trkpt lat="44.24218795104928" lon="10.80379368123581"><ele>835.0</ele><time>2026-05-02T13:56:13.94Z</time></trkpt><trkpt lat="44.24211674862881" lon="10.803962016922723"><ele>832.5</ele><time>2026-05-02T13:56:14.94Z</time></trkpt><trkpt lat="44.24203979477566" lon="10.804123910610643"><ele>830.0</ele><time>2026-05-02T13:56:15.94Z</time></trkpt><trkpt lat="44.2419369766937" lon="10.804259275057342"><ele>827.5</ele><time>2026-05-02T13:56:16.94Z</time></trkpt><trkpt lat="44.24185296110524" lon="10.804415448138863"><ele>825.0</ele><time>2026-05-02T13:56:17.94Z</time></trkpt><trkpt lat="44.241780556352566" lon="10.80457543924794"><ele>825.0</ele><time>2026-05-02T13:56:18.94Z</time></trkpt><trkpt lat="44.24169603217501" lon="10.804724009709437"><ele>825.0</ele><time>2026-05-02T13:56:19.94Z</time></trkpt><trkpt lat="44.24161491519369" lon="10.804877004123501"><ele>825.0</ele><time>2026-05-02T13:56:20.94Z</time></trkpt><trkpt lat="44.241534107444636" lon="10.805027467964367"><ele>825.0</ele><time>2026-05-02T13:56:21.94Z</time></trkpt><trkpt lat="44.24144898423246" lon="10.805175599810653"><ele>822.25</ele><time>2026-05-02T13:56:22.94Z</time></trkpt><trkpt lat="44.24137176437097" lon="10.805318955924207"><ele>819.5</ele><time>2026-05-02T13:56:23.94Z</time></trkpt><trkpt lat="44.24129336259861" lon="10.805452354708548"><ele>816.75</ele><time>2026-05-02T13:56:24.94Z</time></trkpt><trkpt lat="44.24121763334756" lon="10.805591921019944"><ele>814.0</ele><time>2026-05-02T13:56:25.94Z</time></trkpt><trkpt lat="44.24115671391999" lon="10.805737012976662"><ele>814.0</ele><time>2026-05-02T13:56:26.941Z</time></trkpt><trkpt lat="44.24110776876173" lon="10.805892282260706"><ele>814.0</ele><time>2026-05-02T13:56:27.941Z</time></trkpt><trkpt lat="44.24107226211458" lon="10.806048460021906"><ele>814.0</ele><time>2026-05-02T13:56:28.941Z</time></trkpt><trkpt lat="44.241033104167514" lon="10.806203375970354"><ele>814.0</ele><time>2026-05-02T13:56:29.941Z</time></trkpt><trkpt lat="44.24099056682149" lon="10.806369398799495"><ele>815.0</ele><time>2026-05-02T13:56:30.941Z</time></trkpt><trkpt lat="44.24092032626623" lon="10.806519443578392"><ele>816.0</ele><time>2026-05-02T13:56:31.941Z</time></trkpt><trkpt lat="44.24088155755125" lon="10.806684518091998"><ele>817.0</ele><time>2026-05-02T13:56:32.941Z</time></trkpt><trkpt lat="44.24085547251395" lon="10.806852695933804"><ele>818.0</ele><time>2026-05-02T13:56:33.941Z</time></trkpt><trkpt lat="44.24083152870306" lon="10.807024351324056"><ele>818.75</ele><time>2026-05-02T13:56:34.941Z</time></trkpt><trkpt lat="44.240812317013955" lon="10.807201163477243"><ele>819.5</ele><time>2026-05-02T13:56:35.941Z</time></trkpt><trkpt lat="44.24077925823171" lon="10.807374388775418"><ele>820.25</ele><time>2026-05-02T13:56:36.941Z</time></trkpt><trkpt lat="44.24073012032769" lon="10.80754093261439"><ele>821.0</ele><time>2026-05-02T13:56:37.941Z</time></trkpt><trkpt lat="44.24067501931867" lon="10.807694664703495"><ele>813.5</ele><time>2026-05-02T13:56:38.941Z</time></trkpt><trkpt lat="44.24062043086309" lon="10.807852026429767"><ele>806.0</ele><time>2026-05-02T13:56:39.941Z</time></trkpt><trkpt lat="44.24057069500229" lon="10.808012251683387"><ele>798.5</ele><time>2026-05-02T13:56:40.941Z</time></trkpt><trkpt lat="44.24053059252347" lon="10.808182393986607"><ele>791.0</ele><time>2026-05-02T13:56:41.941Z</time></trkpt><trkpt lat="44.24050492386346" lon="10.808354014710849"><ele>791.25</ele><time>2026-05-02T13:56:42.941Z</time></trkpt><trkpt lat="44.24048556004495" lon="10.808527101140298"><ele>791.5</ele><time>2026-05-02T13:56:43.941Z</time></trkpt><trkpt lat="44.240460785872145" lon="10.808712365078254"><ele>791.75</ele><time>2026-05-02T13:56:44.941Z</time></trkpt><trkpt lat="44.24042556360553" lon="10.808898898181694"><ele>792.0</ele><time>2026-05-02T13:56:45.941Z</time></trkpt><trkpt lat="44.24037294306098" lon="10.809080744992398"><ele>792.0</ele><time>2026-05-02T13:56:46.941Z</time></trkpt><trkpt lat="44.24030978074204" lon="10.80926425329224"><ele>792.0</ele><time>2026-05-02T13:56:47.941Z</time></trkpt><trkpt lat="44.24024331746043" lon="10.809435668876494"><ele>792.0</ele><time>2026-05-02T13:56:48.941Z</time></trkpt><trkpt lat="44.24017301258234" lon="10.80958532111329"><ele>792.0</ele><time>2026-05-02T13:56:49.941Z</time></trkpt><trkpt lat="44.240097073902604" lon="10.809700381456542"><ele>793.0</ele><time>2026-05-02T13:56:50.941Z</time></trkpt><trkpt lat="44.2400075738884" lon="10.809798003246481"><ele>794.0</ele><time>2026-05-02T13:56:51.941Z</time></trkpt><trkpt lat="44.23990983738433" lon="10.809884721275072"><ele>795.0</ele><time>2026-05-02T13:56:52.941Z</time></trkpt><trkpt lat="44.239803512247846" lon="10.80996955995926"><ele>796.0</ele><time>2026-05-02T13:56:53.941Z</time></trkpt><trkpt lat="44.23970986018078" lon="10.810068919431291"><ele>791.5</ele><time>2026-05-02T13:56:54.941Z</time></trkpt><trkpt lat="44.239636691402644" lon="10.810190621973351"><ele>787.0</ele><time>2026-05-02T13:56:55.941Z</time></trkpt><trkpt lat="44.23958291206876" lon="10.810338359682717"><ele>782.5</ele><time>2026-05-02T13:56:56.941Z</time></trkpt><trkpt lat="44.239535599670255" lon="10.810494816002022"><ele>778.0</ele><time>2026-05-02T13:56:57.941Z</time></trkpt><trkpt lat="44.23950474740868" lon="10.810668119803827"><ele>778.0</ele><time>2026-05-02T13:56:58.941Z</time></trkpt><trkpt lat="44.239498460234564" lon="10.810848193253205"><ele>778.0</ele><time>2026-05-02T13:56:59.941Z</time></trkpt><trkpt lat="44.23950413549665" lon="10.811021759096851"><ele>778.0</ele><time>2026-05-02T13:57:00.941Z</time></trkpt><trkpt lat="44.2395064045307" lon="10.811171535175935"><ele>778.0</ele><time>2026-05-02T13:57:01.941Z</time></trkpt><trkpt lat="44.2394874067762" lon="10.811300777880083"><ele>777.4</ele><time>2026-05-02T13:57:02.941Z</time></trkpt><trkpt lat="44.23944403447615" lon="10.811419539821685"><ele>776.8</ele><time>2026-05-02T13:57:03.941Z</time></trkpt><trkpt lat="44.23936447583949" lon="10.811498209104442"><ele>776.2</ele><time>2026-05-02T13:57:04.941Z</time></trkpt><trkpt lat="44.23927470799024" lon="10.811577479521397"><ele>775.6</ele><time>2026-05-02T13:57:05.941Z</time></trkpt><trkpt lat="44.23915946947158" lon="10.811627768203106"><ele>775.0</ele><time>2026-05-02T13:57:06.941Z</time></trkpt><trkpt lat="44.239044575372816" lon="10.811679516799048"><ele>773.25</ele><time>2026-05-02T13:57:07.941Z</time></trkpt><trkpt lat="44.23892838274416" lon="10.811747759328624"><ele>771.5</ele><time>2026-05-02T13:57:08.941Z</time></trkpt><trkpt lat="44.238812719822995" lon="10.811833956535597"><ele>769.75</ele><time>2026-05-02T13:57:09.941Z</time></trkpt><trkpt lat="44.23870628591703" lon="10.811944583148192"><ele>768.0</ele><time>2026-05-02T13:57:10.941Z</time></trkpt><trkpt lat="44.238597342728504" lon="10.812069112517054"><ele>767.5</ele><time>2026-05-02T13:57:11.941Z</time></trkpt><trkpt lat="44.23849871491402" lon="10.81220959938892"><ele>767.0</ele><time>2026-05-02T13:57:12.941Z</time></trkpt><trkpt lat="44.23840045628247" lon="10.81236464398754"><ele>766.5</ele><time>2026-05-02T13:57:13.941Z</time></trkpt><trkpt lat="44.23829548339799" lon="10.81250164136582"><ele>766.0</ele><time>2026-05-02T13:57:14.941Z</time></trkpt><trkpt lat="44.23818835597576" lon="10.812624817856017"><ele>762.8</ele><time>2026-05-02T13:57:15.938Z</time></trkpt><trkpt lat="44.23809108475898" lon="10.812736466898256"><ele>759.5999999999999</ele><time>2026-05-02T13:57:16.938Z</time></trkpt><trkpt lat="44.2380156072905" lon="10.812844904298798"><ele>756.4</ele><time>2026-05-02T13:57:17.938Z</time></trkpt><trkpt lat="44.23795388126509" lon="10.812964836805746"><ele>753.2</ele><time>2026-05-02T13:57:18.939Z</time></trkpt><trkpt lat="44.23791308828899" lon="10.813096594793292"><ele>750.0</ele><time>2026-05-02T13:57:19.939Z</time></trkpt><trkpt lat="44.23790087842091" lon="10.813258608436763"><ele>750.0</ele><time>2026-05-02T13:57:20.939Z</time></trkpt><trkpt lat="44.2378974410704" lon="10.813415795564904"><ele>750.0</ele><time>2026-05-02T13:57:21.938Z</time></trkpt><trkpt lat="44.23788577191548" lon="10.813567408303824"><ele>750.0</ele><time>2026-05-02T13:57:22.938Z</time></trkpt><trkpt lat="44.23786228924006" lon="10.813732914393515"><ele>750.0</ele><time>2026-05-02T13:57:23.938Z</time></trkpt><trkpt lat="44.237830858002596" lon="10.813894230385698"><ele>750.25</ele><time>2026-05-02T13:57:24.938Z</time></trkpt><trkpt lat="44.23779414527572" lon="10.814060079185312"><ele>750.5</ele><time>2026-05-02T13:57:25.938Z</time></trkpt><trkpt lat="44.23775836034139" lon="10.814231864181247"><ele>750.75</ele><time>2026-05-02T13:57:26.938Z</time></trkpt><trkpt lat="44.237699582738834" lon="10.814398472261912"><ele>751.0</ele><time>2026-05-02T13:57:27.939Z</time></trkpt><trkpt lat="44.23766764849887" lon="10.81457700148792"><ele>751.0</ele><time>2026-05-02T13:57:28.938Z</time></trkpt><trkpt lat="44.23763739423441" lon="10.814770682215393"><ele>751.0</ele><time>2026-05-02T13:57:29.938Z</time></trkpt><trkpt lat="44.23761267783604" lon="10.814936432656912"><ele>751.0</ele><time>2026-05-02T13:57:30.938Z</time></trkpt><trkpt lat="44.23758864164469" lon="10.815098348126595"><ele>751.0</ele><time>2026-05-02T13:57:31.938Z</time></trkpt><trkpt lat="44.23756319492453" lon="10.8152741466081"><ele>750.25</ele><time>2026-05-02T13:57:32.938Z</time></trkpt><trkpt lat="44.23753317427696" lon="10.815454323386117"><ele>749.5</ele><time>2026-05-02T13:57:33.938Z</time></trkpt><trkpt lat="44.23750133770686" lon="10.815632893026931"><ele>748.75</ele><time>2026-05-02T13:57:34.938Z</time></trkpt><trkpt lat="44.23747262948939" lon="10.815818587032531"><ele>748.0</ele><time>2026-05-02T13:57:35.938Z</time></trkpt><trkpt lat="44.23743746947203" lon="10.81599191708706"><ele>746.4</ele><time>2026-05-02T13:57:36.938Z</time></trkpt><trkpt lat="44.2374092475074" lon="10.816141891409973"><ele>744.8</ele><time>2026-05-02T13:57:37.938Z</time></trkpt><trkpt lat="44.23738497193902" lon="10.816282837996514"><ele>743.2</ele><time>2026-05-02T13:57:38.938Z</time></trkpt><trkpt lat="44.237361107494266" lon="10.816422508713645"><ele>741.6</ele><time>2026-05-02T13:57:39.938Z</time></trkpt><trkpt lat="44.23735542552204" lon="10.81656882000807"><ele>740.0</ele><time>2026-05-02T13:57:40.938Z</time></trkpt><trkpt lat="44.23737635401721" lon="10.816727470747981"><ele>737.5</ele><time>2026-05-02T13:57:41.938Z</time></trkpt><trkpt lat="44.237408060235595" lon="10.816896685204526"><ele>735.0</ele><time>2026-05-02T13:57:42.938Z</time></trkpt><trkpt lat="44.237446473706996" lon="10.817056515217962"><ele>732.5</ele><time>2026-05-02T13:57:43.938Z</time></trkpt><trkpt lat="44.2374894102272" lon="10.81722534092164"><ele>730.0</ele><time>2026-05-02T13:57:44.938Z</time></trkpt><trkpt lat="44.23755359114531" lon="10.81738948102961"><ele>730.0</ele><time>2026-05-02T13:57:45.938Z</time></trkpt><trkpt lat="44.237621087308675" lon="10.81754888726129"><ele>730.0</ele><time>2026-05-02T13:57:46.938Z</time></trkpt><trkpt lat="44.237710930671646" lon="10.817695971887415"><ele>730.0</ele><time>2026-05-02T13:57:47.938Z</time></trkpt><trkpt lat="44.23779779998882" lon="10.817842623629062"><ele>730.0</ele><time>2026-05-02T13:57:48.938Z</time></trkpt><trkpt lat="44.23787222693798" lon="10.817984841794928"><ele>726.8</ele><time>2026-05-02T13:57:49.938Z</time></trkpt><trkpt lat="44.23792996078219" lon="10.818111215301602"><ele>723.6</ele><time>2026-05-02T13:57:50.938Z</time></trkpt><trkpt lat="44.23796990322823" lon="10.818264295448227"><ele>720.4000000000001</ele><time>2026-05-02T13:57:51.938Z</time></trkpt><trkpt lat="44.23799563967656" lon="10.818419484657126"><ele>717.2</ele><time>2026-05-02T13:57:52.938Z</time></trkpt><trkpt lat="44.23801109154685" lon="10.8185729050521"><ele>714.0</ele><time>2026-05-02T13:57:53.938Z</time></trkpt><trkpt lat="44.23800949647564" lon="10.81871145158521"><ele>714.4000000000001</ele><time>2026-05-02T13:57:54.938Z</time></trkpt><trkpt lat="44.23802470293859" lon="10.818843388617221"><ele>714.8</ele><time>2026-05-02T13:57:55.938Z</time></trkpt><trkpt lat="44.23805026456405" lon="10.818973665218087"><ele>715.2</ele><time>2026-05-02T13:57:56.938Z</time></trkpt><trkpt lat="44.238070147422334" lon="10.819110726115412"><ele>715.5999999999999</ele><time>2026-05-02T13:57:57.938Z</time></trkpt><trkpt lat="44.238108812984535" lon="10.819256246801215"><ele>716.0</ele><time>2026-05-02T13:57:58.938Z</time></trkpt><trkpt lat="44.23814497147937" lon="10.819403327256682"><ele>716.0</ele><time>2026-05-02T13:57:59.938Z</time></trkpt><trkpt lat="44.23815802444822" lon="10.819558401503482"><ele>716.0</ele><time>2026-05-02T13:58:00.938Z</time></trkpt><trkpt lat="44.23815593200433" lon="10.819702275940843"><ele>716.0</ele><time>2026-05-02T13:58:01.938Z</time></trkpt><trkpt lat="44.23813806231713" lon="10.819842415312378"><ele>716.0</ele><time>2026-05-02T13:58:02.938Z</time></trkpt><trkpt lat="44.23813258471817" lon="10.819937766301415"><ele>716.0</ele><time>2026-05-02T13:58:03.938Z</time></trkpt><trkpt lat="44.238142368389575" lon="10.820085560272538"><ele>715.1999999999999</ele><time>2026-05-02T13:58:05.938Z</time></trkpt><trkpt lat="44.238154497924235" lon="10.820189074621116"><ele>714.4</ele><time>2026-05-02T13:58:07.938Z</time></trkpt><trkpt lat="44.23830552810483" lon="10.820286317747275"><ele>713.6</ele><time>2026-05-02T13:58:20.938Z</time></trkpt><trkpt lat="44.2383967737802" lon="10.820376546140329"><ele>712.8</ele><time>2026-05-02T13:58:22.939Z</time></trkpt><trkpt lat="44.238448892554736" lon="10.820435604713559"><ele>712.0</ele><time>2026-05-02T13:58:23.939Z</time></trkpt><trkpt lat="44.23849688951705" lon="10.820502644628393"><ele>712.0</ele><time>2026-05-02T13:58:24.939Z</time></trkpt><trkpt lat="44.23854534342524" lon="10.820577846628682"><ele>712.0</ele><time>2026-05-02T13:58:25.939Z</time></trkpt><trkpt lat="44.238581333043626" lon="10.820679352019537"><ele>712.0</ele><time>2026-05-02T13:58:26.939Z</time></trkpt><trkpt lat="44.238616663084905" lon="10.820787263714065"><ele>712.0</ele><time>2026-05-02T13:58:27.939Z</time></trkpt><trkpt lat="44.238629725373315" lon="10.820905720697533"><ele>712.0</ele><time>2026-05-02T13:58:28.939Z</time></trkpt><trkpt lat="44.23866670461711" lon="10.821007101956944"><ele>712.0</ele><time>2026-05-02T13:58:29.939Z</time></trkpt><trkpt lat="44.2386896025113" lon="10.821118025051561"><ele>711.6</ele><time>2026-05-02T13:58:30.939Z</time></trkpt><trkpt lat="44.238706464558284" lon="10.821220915108112"><ele>711.2</ele><time>2026-05-02T13:58:31.939Z</time></trkpt><trkpt lat="44.23869695188458" lon="10.821330514016562"><ele>710.8</ele><time>2026-05-02T13:58:32.939Z</time></trkpt><trkpt lat="44.23871044959843" lon="10.821427522664628"><ele>710.4</ele><time>2026-05-02T13:58:33.939Z</time></trkpt><trkpt lat="44.23870456722106" lon="10.821586395047568"><ele>710.0</ele><time>2026-05-02T13:58:35.939Z</time></trkpt><trkpt lat="44.23869145061844" lon="10.821741407095347"><ele>709.1666666666666</ele><time>2026-05-02T13:58:37.939Z</time></trkpt><trkpt lat="44.23876351671369" lon="10.821887695317516"><ele>708.3333333333333</ele><time>2026-05-02T13:58:39.939Z</time></trkpt><trkpt lat="44.23881727148487" lon="10.821954930135036"><ele>707.5</ele><time>2026-05-02T13:58:40.939Z</time></trkpt><trkpt lat="44.238880380694276" lon="10.822010285515189"><ele>706.6666666666666</ele><time>2026-05-02T13:58:41.939Z</time></trkpt><trkpt lat="44.23895199865787" lon="10.822053646490856"><ele>705.8333333333334</ele><time>2026-05-02T13:58:42.939Z</time></trkpt><trkpt lat="44.2390224024878" lon="10.822084396167671"><ele>705.0</ele><time>2026-05-02T13:58:43.939Z</time></trkpt><trkpt lat="44.23909776276001" lon="10.82210313104524"><ele>707.6666666666666</ele><time>2026-05-02T13:58:44.939Z</time></trkpt><trkpt lat="44.239178872235996" lon="10.82212451948073"><ele>710.3333333333334</ele><time>2026-05-02T13:58:45.939Z</time></trkpt><trkpt lat="44.23925888243613" lon="10.822170855339536"><ele>713.0</ele><time>2026-05-02T13:58:46.939Z</time></trkpt><trkpt lat="44.2393444158757" lon="10.822183006007856"><ele>715.6666666666667</ele><time>2026-05-02T13:58:47.939Z</time></trkpt><trkpt lat="44.239427851851175" lon="10.822192020770997"><ele>718.3333333333334</ele><time>2026-05-02T13:58:48.939Z</time></trkpt><trkpt lat="44.23950762612556" lon="10.822205775253234"><ele>721.0</ele><time>2026-05-02T13:58:49.939Z</time></trkpt><trkpt lat="44.2395889592542" lon="10.822220821018734"><ele>721.0</ele><time>2026-05-02T13:58:50.939Z</time></trkpt><trkpt lat="44.23966693231318" lon="10.822245284956425"><ele>721.0</ele><time>2026-05-02T13:58:51.939Z</time></trkpt><trkpt lat="44.23974218328688" lon="10.822270237107475"><ele>721.0</ele><time>2026-05-02T13:58:52.939Z</time></trkpt><trkpt lat="44.23980639338145" lon="10.822313302901504"><ele>721.0</ele><time>2026-05-02T13:58:53.939Z</time></trkpt><trkpt lat="44.239871434989695" lon="10.822357981006899"><ele>721.0</ele><time>2026-05-02T13:58:54.939Z</time></trkpt><trkpt lat="44.23997758426579" lon="10.82243927083193"><ele>721.0</ele><time>2026-05-02T13:58:56.939Z</time></trkpt><trkpt lat="44.240083197943775" lon="10.822500873213727"><ele>721.8333333333334</ele><time>2026-05-02T13:58:58.939Z</time></trkpt><trkpt lat="44.24014570133791" lon="10.822561977146938"><ele>722.6666666666667</ele><time>2026-05-02T13:59:00.939Z</time></trkpt><trkpt lat="44.24020448871368" lon="10.822612275374297"><ele>723.5</ele><time>2026-05-02T13:59:02.939Z</time></trkpt><trkpt lat="44.2402884877414" lon="10.822657343551091"><ele>724.3333333333334</ele><time>2026-05-02T13:59:17.939Z</time></trkpt><trkpt lat="44.24035853065654" lon="10.822735858195797"><ele>725.1666666666666</ele><time>2026-05-02T13:59:20.94Z</time></trkpt><trkpt lat="44.240463754162064" lon="10.82278045047068"><ele>726.0</ele><time>2026-05-02T13:59:22.936Z</time></trkpt><trkpt lat="44.24053753980571" lon="10.822863956745794"><ele>726.0</ele><time>2026-05-02T13:59:24.937Z</time></trkpt><trkpt lat="44.240593908017225" lon="10.822977798162613"><ele>726.0</ele><time>2026-05-02T13:59:26.937Z</time></trkpt><trkpt lat="44.2406537717514" lon="10.82302299780018"><ele>726.0</ele><time>2026-05-02T13:59:27.937Z</time></trkpt><trkpt lat="44.24071679982749" lon="10.823042455406513"><ele>726.0</ele><time>2026-05-02T13:59:28.937Z</time></trkpt><trkpt lat="44.24079501686693" lon="10.823017321587079"><ele>726.0</ele><time>2026-05-02T13:59:30.937Z</time></trkpt><trkpt lat="44.24085296763312" lon="10.82297700836558"><ele>726.0</ele><time>2026-05-02T13:59:49.937Z</time></trkpt><trkpt lat="44.24086872288436" lon="10.822860671557107"><ele>728.3333333333334</ele><time>2026-05-02T13:59:52.937Z</time></trkpt><trkpt lat="44.24089618663664" lon="10.822764032050845"><ele>730.6666666666666</ele><time>2026-05-02T13:59:58.937Z</time></trkpt><trkpt lat="44.24094636178756" lon="10.822704182564543"><ele>733.0</ele><time>2026-05-02T14:00:00.937Z</time></trkpt><trkpt lat="44.241050362455184" lon="10.822694037181797"><ele>735.3333333333333</ele><time>2026-05-02T14:00:02.937Z</time></trkpt><trkpt lat="44.24111070491556" lon="10.822728739117153"><ele>737.6666666666666</ele><time>2026-05-02T14:00:03.937Z</time></trkpt><trkpt lat="44.24118194535526" lon="10.8227685791801"><ele>740.0</ele><time>2026-05-02T14:00:04.937Z</time></trkpt><trkpt lat="44.241251596669365" lon="10.822812224175372"><ele>740.0</ele><time>2026-05-02T14:00:05.937Z</time></trkpt><trkpt lat="44.241324683180544" lon="10.822856712608406"><ele>740.0</ele><time>2026-05-02T14:00:06.937Z</time></trkpt><trkpt lat="44.24141062393443" lon="10.822833391622812"><ele>740.0</ele><time>2026-05-02T14:00:07.937Z</time></trkpt><trkpt lat="44.24148906674176" lon="10.822807291445935"><ele>740.0</ele><time>2026-05-02T14:00:08.937Z</time></trkpt><trkpt lat="44.241556454021094" lon="10.822781385875851"><ele>740.0</ele><time>2026-05-02T14:00:09.937Z</time></trkpt><trkpt lat="44.241679358904854" lon="10.822719858919852"><ele>740.0</ele><time>2026-05-02T14:00:11.937Z</time></trkpt><trkpt lat="44.24174922287464" lon="10.822697620323675"><ele>739.0</ele><time>2026-05-02T14:00:12.937Z</time></trkpt><trkpt lat="44.24181614699845" lon="10.822704448550978"><ele>738.0</ele><time>2026-05-02T14:00:13.937Z</time></trkpt><trkpt lat="44.24188276142933" lon="10.822724398916696"><ele>737.0</ele><time>2026-05-02T14:00:14.938Z</time></trkpt><trkpt lat="44.24196268483424" lon="10.822764072451971"><ele>736.0</ele><time>2026-05-02T14:00:15.938Z</time></trkpt><trkpt lat="44.2420265436102" lon="10.8228084561797"><ele>735.0</ele><time>2026-05-02T14:00:16.938Z</time></trkpt><trkpt lat="44.242135051691506" lon="10.822874440070674"><ele>734.0</ele><time>2026-05-02T14:00:18.938Z</time></trkpt><trkpt lat="44.24226409156489" lon="10.822902426921722"><ele>734.5</ele><time>2026-05-02T14:00:20.938Z</time></trkpt><trkpt lat="44.242337180531244" lon="10.82290305793881"><ele>735.0</ele><time>2026-05-02T14:00:21.938Z</time></trkpt><trkpt lat="44.242414043768555" lon="10.822910717430481"><ele>735.5</ele><time>2026-05-02T14:00:22.938Z</time></trkpt><trkpt lat="44.24249300160616" lon="10.822926285520117"><ele>736.0</ele><time>2026-05-02T14:00:23.938Z</time></trkpt><trkpt lat="44.24257582054632" lon="10.822964478199317"><ele>736.5</ele><time>2026-05-02T14:00:24.938Z</time></trkpt><trkpt lat="44.24265465364076" lon="10.823010286071957"><ele>737.0</ele><time>2026-05-02T14:00:25.938Z</time></trkpt><trkpt lat="44.24272674070864" lon="10.8230552244119"><ele>737.0</ele><time>2026-05-02T14:00:26.938Z</time></trkpt><trkpt lat="44.242797586184864" lon="10.823105640491274"><ele>737.0</ele><time>2026-05-02T14:00:27.938Z</time></trkpt><trkpt lat="44.24286584018186" lon="10.823136214944135"><ele>737.0</ele><time>2026-05-02T14:00:28.938Z</time></trkpt><trkpt lat="44.242937915060764" lon="10.823145758578573"><ele>737.0</ele><time>2026-05-02T14:00:29.938Z</time></trkpt><trkpt lat="44.243016774251025" lon="10.82312770124111"><ele>737.0</ele><time>2026-05-02T14:00:30.938Z</time></trkpt><trkpt lat="44.24309627468584" lon="10.823104136093747"><ele>737.0</ele><time>2026-05-02T14:00:31.938Z</time></trkpt><trkpt lat="44.24317030941559" lon="10.823088097723247"><ele>738.0</ele><time>2026-05-02T14:00:32.938Z</time></trkpt><trkpt lat="44.243243863562775" lon="10.823096821963958"><ele>739.0</ele><time>2026-05-02T14:00:33.938Z</time></trkpt><trkpt lat="44.243308535321724" lon="10.82312430891429"><ele>740.0</ele><time>2026-05-02T14:00:34.938Z</time></trkpt><trkpt lat="44.24336676152089" lon="10.823189101770831"><ele>741.0</ele><time>2026-05-02T14:00:35.938Z</time></trkpt><trkpt lat="44.24341453852109" lon="10.823246518391269"><ele>742.0</ele><time>2026-05-02T14:00:36.938Z</time></trkpt><trkpt lat="44.24353052097425" lon="10.823304091646015"><ele>743.0</ele><time>2026-05-02T14:00:38.938Z</time></trkpt><trkpt lat="44.243650961461576" lon="10.82333470567045"><ele>743.0</ele><time>2026-05-02T14:00:40.938Z</time></trkpt><trkpt lat="44.243740278144976" lon="10.823339978644986"><ele>743.0</ele><time>2026-05-02T14:00:41.938Z</time></trkpt><trkpt lat="44.24381747458585" lon="10.823363588851295"><ele>743.0</ele><time>2026-05-02T14:00:42.938Z</time></trkpt><trkpt lat="44.24390535751896" lon="10.82337434671545"><ele>743.0</ele><time>2026-05-02T14:00:43.938Z</time></trkpt><trkpt lat="44.24399462222747" lon="10.823396192353831"><ele>743.0</ele><time>2026-05-02T14:00:44.938Z</time></trkpt><trkpt lat="44.244077129681386" lon="10.823461173611204"><ele>743.0</ele><time>2026-05-02T14:00:45.938Z</time></trkpt><trkpt lat="44.24413217421014" lon="10.823547936605328"><ele>741.2</ele><time>2026-05-02T14:00:46.938Z</time></trkpt><trkpt lat="44.244179671463236" lon="10.823630094475858"><ele>739.4</ele><time>2026-05-02T14:00:47.938Z</time></trkpt><trkpt lat="44.24424607544987" lon="10.823714160786013"><ele>737.6</ele><time>2026-05-02T14:00:48.938Z</time></trkpt><trkpt lat="44.24432828765855" lon="10.823786315348096"><ele>735.8000000000001</ele><time>2026-05-02T14:00:49.938Z</time></trkpt><trkpt lat="44.2444181691514" lon="10.823824641271875"><ele>734.0</ele><time>2026-05-02T14:00:50.938Z</time></trkpt><trkpt lat="44.244507162773765" lon="10.823864090172297"><ele>734.0</ele><time>2026-05-02T14:00:51.938Z</time></trkpt><trkpt lat="44.24459622807055" lon="10.82387266683911"><ele>734.0</ele><time>2026-05-02T14:00:52.938Z</time></trkpt><trkpt lat="44.24469068677217" lon="10.823874057363167"><ele>734.0</ele><time>2026-05-02T14:00:54.938Z</time></trkpt><trkpt lat="44.24478357598155" lon="10.823867979537821"><ele>734.0</ele><time>2026-05-02T14:00:56.938Z</time></trkpt><trkpt lat="44.24485707825824" lon="10.823851959667676"><ele>734.0</ele><time>2026-05-02T14:00:58.938Z</time></trkpt><trkpt lat="44.244958180891615" lon="10.82387927992071"><ele>734.8000000000001</ele><time>2026-05-02T14:01:01.938Z</time></trkpt><trkpt lat="44.24497213531228" lon="10.823968081157902"><ele>735.6</ele><time>2026-05-02T14:01:02.938Z</time></trkpt><trkpt lat="44.244936952178804" lon="10.82405091612853"><ele>736.4</ele><time>2026-05-02T14:01:03.938Z</time></trkpt><trkpt lat="44.244886454744794" lon="10.82417169268483"><ele>737.2</ele><time>2026-05-02T14:01:05.938Z</time></trkpt><trkpt lat="44.244835751958995" lon="10.824280990352548"><ele>738.0</ele><time>2026-05-02T14:01:07.938Z</time></trkpt><trkpt lat="44.24490224373375" lon="10.82442993628676"><ele>738.0</ele><time>2026-05-02T14:01:09.938Z</time></trkpt><trkpt lat="44.24492666646415" lon="10.824534981983126"><ele>738.0</ele><time>2026-05-02T14:01:10.938Z</time></trkpt><trkpt lat="44.24497447350638" lon="10.824626840937714"><ele>738.0</ele><time>2026-05-02T14:01:11.939Z</time></trkpt><trkpt lat="44.24502993491671" lon="10.824723275910243"><ele>738.0</ele><time>2026-05-02T14:01:12.939Z</time></trkpt><trkpt lat="44.24508839871239" lon="10.82482545957986"><ele>738.0</ele><time>2026-05-02T14:01:13.939Z</time></trkpt><trkpt lat="44.24515873268765" lon="10.82491497929769"><ele>738.0</ele><time>2026-05-02T14:01:14.939Z</time></trkpt><trkpt lat="44.24519473312574" lon="10.82502825107751"><ele>737.8</ele><time>2026-05-02T14:01:15.939Z</time></trkpt><trkpt lat="44.24523976869412" lon="10.825145891065318"><ele>737.5999999999999</ele><time>2026-05-02T14:01:16.939Z</time></trkpt><trkpt lat="44.24527718943909" lon="10.825280962708653"><ele>737.4000000000001</ele><time>2026-05-02T14:01:17.939Z</time></trkpt><trkpt lat="44.245305852594555" lon="10.82540929804852"><ele>737.2</ele><time>2026-05-02T14:01:18.939Z</time></trkpt><trkpt lat="44.24533109719459" lon="10.82553977046931"><ele>737.0</ele><time>2026-05-02T14:01:19.939Z</time></trkpt><trkpt lat="44.245366900172094" lon="10.825659970081544"><ele>737.0</ele><time>2026-05-02T14:01:20.939Z</time></trkpt><trkpt lat="44.24541521395873" lon="10.825772238027653"><ele>737.0</ele><time>2026-05-02T14:01:21.939Z</time></trkpt><trkpt lat="44.24546392697459" lon="10.825872773575894"><ele>737.0</ele><time>2026-05-02T14:01:22.939Z</time></trkpt><trkpt lat="44.24552076723188" lon="10.825968613575645"><ele>737.0</ele><time>2026-05-02T14:01:23.939Z</time></trkpt><trkpt lat="44.2455901939683" lon="10.826055990708861"><ele>737.0</ele><time>2026-05-02T14:01:24.939Z</time></trkpt><trkpt lat="44.245667024619486" lon="10.826148362134942"><ele>737.8</ele><time>2026-05-02T14:01:25.939Z</time></trkpt><trkpt lat="44.245744784827885" lon="10.826248067169232"><ele>738.6</ele><time>2026-05-02T14:01:26.939Z</time></trkpt><trkpt lat="44.24579880331488" lon="10.826361067388268"><ele>739.4</ele><time>2026-05-02T14:01:27.936Z</time></trkpt><trkpt lat="44.24585344607167" lon="10.82648443232924"><ele>740.1999999999999</ele><time>2026-05-02T14:01:28.936Z</time></trkpt><trkpt lat="44.24590740719321" lon="10.826612504577573"><ele>741.0</ele><time>2026-05-02T14:01:29.936Z</time></trkpt><trkpt lat="44.24598212495122" lon="10.826718683011093"><ele>739.8</ele><time>2026-05-02T14:01:30.936Z</time></trkpt><trkpt lat="44.24605998225838" lon="10.826823859747812"><ele>738.5999999999999</ele><time>2026-05-02T14:01:31.936Z</time></trkpt><trkpt lat="44.24612350455477" lon="10.826945932891002"><ele>737.4</ele><time>2026-05-02T14:01:32.936Z</time></trkpt><trkpt lat="44.246174655546604" lon="10.827086841851212"><ele>736.2</ele><time>2026-05-02T14:01:33.936Z</time></trkpt><trkpt lat="44.24625878356445" lon="10.827202029775872"><ele>735.0</ele><time>2026-05-02T14:01:34.936Z</time></trkpt><trkpt lat="44.24633633952512" lon="10.827306240150957"><ele>735.0</ele><time>2026-05-02T14:01:35.936Z</time></trkpt><trkpt lat="44.246408669829464" lon="10.827423440970959"><ele>735.0</ele><time>2026-05-02T14:01:36.936Z</time></trkpt><trkpt lat="44.246454260172186" lon="10.82755933784031"><ele>735.0</ele><time>2026-05-02T14:01:37.936Z</time></trkpt><trkpt lat="44.246508301763576" lon="10.827679076586744"><ele>735.0</ele><time>2026-05-02T14:01:38.936Z</time></trkpt><trkpt lat="44.24656042071924" lon="10.827793189074912"><ele>735.0</ele><time>2026-05-02T14:01:39.936Z</time></trkpt><trkpt lat="44.24661039944196" lon="10.827904369619075"><ele>738.3333333333334</ele><time>2026-05-02T14:01:40.936Z</time></trkpt><trkpt lat="44.24666354811764" lon="10.828012004311747"><ele>741.6666666666666</ele><time>2026-05-02T14:01:41.936Z</time></trkpt><trkpt lat="44.24671940979988" lon="10.82811604049254"><ele>745.0</ele><time>2026-05-02T14:01:42.936Z</time></trkpt><trkpt lat="44.24677203596801" lon="10.82821206574638"><ele>748.3333333333333</ele><time>2026-05-02T14:01:43.936Z</time></trkpt><trkpt lat="44.246820758196286" lon="10.828300848649066"><ele>751.6666666666666</ele><time>2026-05-02T14:01:44.936Z</time></trkpt><trkpt lat="44.24686491437019" lon="10.828379103561854"><ele>755.0</ele><time>2026-05-02T14:01:45.936Z</time></trkpt><trkpt lat="44.246948416777734" lon="10.828466613878277"><ele>755.5</ele><time>2026-05-02T14:01:47.936Z</time></trkpt><trkpt lat="44.24702048679112" lon="10.828516872519927"><ele>756.0</ele><time>2026-05-02T14:01:49.936Z</time></trkpt><trkpt lat="44.24708127391942" lon="10.828554882218663"><ele>756.5</ele><time>2026-05-02T14:01:51.936Z</time></trkpt><trkpt lat="44.24713458144078" lon="10.828627365761312"><ele>757.0</ele><time>2026-05-02T14:01:53.936Z</time></trkpt><trkpt lat="44.24716967465724" lon="10.828773755876627"><ele>757.5</ele><time>2026-05-02T14:01:55.936Z</time></trkpt><trkpt lat="44.24720402934012" lon="10.828920145151283"><ele>758.0</ele><time>2026-05-02T14:01:57.936Z</time></trkpt><trkpt lat="44.24724379243987" lon="10.829047551841896"><ele>761.5</ele><time>2026-05-02T14:01:59.936Z</time></trkpt><trkpt lat="44.24732697338708" lon="10.829178927426554"><ele>765.0</ele><time>2026-05-02T14:02:01.936Z</time></trkpt><trkpt lat="44.24739165965639" lon="10.829237205601613"><ele>768.5</ele><time>2026-05-02T14:02:02.936Z</time></trkpt><trkpt lat="44.247426758114905" lon="10.829338868413755"><ele>772.0</ele><time>2026-05-02T14:02:03.936Z</time></trkpt><trkpt lat="44.247457916288504" lon="10.829437987114915"><ele>775.5000000000001</ele><time>2026-05-02T14:02:04.936Z</time></trkpt><trkpt lat="44.24748918594317" lon="10.829544633773121"><ele>779.0</ele><time>2026-05-02T14:02:05.936Z</time></trkpt><trkpt lat="44.24752129660005" lon="10.829633712286602"><ele>779.0000000000001</ele><time>2026-05-02T14:02:06.936Z</time></trkpt><trkpt lat="44.24756512027069" lon="10.829717408956633"><ele>779.0</ele><time>2026-05-02T14:02:07.936Z</time></trkpt><trkpt lat="44.24760499835097" lon="10.829823041465206"><ele>779.0</ele><time>2026-05-02T14:02:09.936Z</time></trkpt><trkpt lat="44.24765402021602" lon="10.82992580142422"><ele>779.0</ele><time>2026-05-02T14:02:12.936Z</time></trkpt><trkpt lat="44.2476668124361" lon="10.830042310590283"><ele>779.0000000000001</ele><time>2026-05-02T14:02:14.936Z</time></trkpt><trkpt lat="44.24769318302078" lon="10.830149446841785"><ele>779.0</ele><time>2026-05-02T14:02:16.936Z</time></trkpt><trkpt lat="44.24770083354527" lon="10.830285242292872"><ele>777.0</ele><time>2026-05-02T14:02:18.936Z</time></trkpt><trkpt lat="44.24772622141209" lon="10.830401234150399"><ele>775.0</ele><time>2026-05-02T14:02:20.936Z</time></trkpt><trkpt lat="44.24777533514446" lon="10.830560194283493"><ele>773.0</ele><time>2026-05-02T14:02:22.936Z</time></trkpt><trkpt lat="44.24779096588826" lon="10.830661852854295"><ele>771.0</ele><time>2026-05-02T14:02:23.936Z</time></trkpt><trkpt lat="44.2477924503592" lon="10.830769896677861"><ele>769.0</ele><time>2026-05-02T14:02:24.936Z</time></trkpt><trkpt lat="44.247780983076304" lon="10.830895707879417"><ele>767.8000000000001</ele><time>2026-05-02T14:02:25.936Z</time></trkpt><trkpt lat="44.24775957841188" lon="10.831023556593928"><ele>766.6</ele><time>2026-05-02T14:02:26.937Z</time></trkpt><trkpt lat="44.24771698284373" lon="10.83115790629922"><ele>765.4</ele><time>2026-05-02T14:02:27.937Z</time></trkpt><trkpt lat="44.247672641941634" lon="10.831295289659597"><ele>764.2</ele><time>2026-05-02T14:02:28.937Z</time></trkpt><trkpt lat="44.24762535033525" lon="10.831428280289634"><ele>763.0</ele><time>2026-05-02T14:02:29.937Z</time></trkpt><trkpt lat="44.2475781306393" lon="10.831547442263417"><ele>763.0</ele><time>2026-05-02T14:02:30.937Z</time></trkpt><trkpt lat="44.24752836262138" lon="10.831662137234181"><ele>763.0</ele><time>2026-05-02T14:02:31.937Z</time></trkpt><trkpt lat="44.2474651113434" lon="10.831763761777882"><ele>763.0</ele><time>2026-05-02T14:02:32.937Z</time></trkpt><trkpt lat="44.24740858682048" lon="10.831839751872497"><ele>763.0</ele><time>2026-05-02T14:02:33.937Z</time></trkpt><trkpt lat="44.24735821501244" lon="10.831896447538409"><ele>763.0</ele><time>2026-05-02T14:02:34.937Z</time></trkpt><trkpt lat="44.24730297407748" lon="10.83202977012427"><ele>763.0</ele><time>2026-05-02T14:02:36.937Z</time></trkpt><trkpt lat="44.24736723304996" lon="10.832200154773139"><ele>761.0</ele><time>2026-05-02T14:02:38.937Z</time></trkpt><trkpt lat="44.24743660051289" lon="10.832274198511726"><ele>759.0</ele><time>2026-05-02T14:02:39.937Z</time></trkpt><trkpt lat="44.24750494055146" lon="10.832357538441595"><ele>757.0</ele><time>2026-05-02T14:02:40.937Z</time></trkpt><trkpt lat="44.247560737608296" lon="10.832465876343262"><ele>755.0</ele><time>2026-05-02T14:02:41.937Z</time></trkpt><trkpt lat="44.24760704924205" lon="10.832588154050548"><ele>753.0</ele><time>2026-05-02T14:02:42.937Z</time></trkpt><trkpt lat="44.24764716499687" lon="10.832739381236372"><ele>750.5999999999999</ele><time>2026-05-02T14:02:43.937Z</time></trkpt><trkpt lat="44.247681749002076" lon="10.832890013500199"><ele>748.1999999999999</ele><time>2026-05-02T14:02:44.937Z</time></trkpt><trkpt lat="44.24771522679533" lon="10.833044278615281"><ele>745.8</ele><time>2026-05-02T14:02:45.937Z</time></trkpt><trkpt lat="44.24774871673807" lon="10.833192231910758"><ele>743.4</ele><time>2026-05-02T14:02:46.937Z</time></trkpt><trkpt lat="44.24777275755823" lon="10.833328170561202"><ele>741.0</ele><time>2026-05-02T14:02:47.937Z</time></trkpt><trkpt lat="44.247795936095436" lon="10.833449941154173"><ele>739.4</ele><time>2026-05-02T14:02:48.937Z</time></trkpt><trkpt lat="44.2478187516328" lon="10.833578993494545"><ele>737.8</ele><time>2026-05-02T14:02:49.937Z</time></trkpt><trkpt lat="44.247835361367734" lon="10.833707829293893"><ele>736.1999999999999</ele><time>2026-05-02T14:02:50.937Z</time></trkpt><trkpt lat="44.24784766579831" lon="10.83383942435314"><ele>734.5999999999999</ele><time>2026-05-02T14:02:51.937Z</time></trkpt><trkpt lat="44.247849547583975" lon="10.833976424278315"><ele>733.0</ele><time>2026-05-02T14:02:52.937Z</time></trkpt><trkpt lat="44.247833922730074" lon="10.834117394888647"><ele>733.0</ele><time>2026-05-02T14:02:53.937Z</time></trkpt><trkpt lat="44.247808930421705" lon="10.834242497515955"><ele>733.0</ele><time>2026-05-02T14:02:54.937Z</time></trkpt><trkpt lat="44.24776833107259" lon="10.834379643723011"><ele>733.0</ele><time>2026-05-02T14:02:55.937Z</time></trkpt><trkpt lat="44.247742415721056" lon="10.834488244318129"><ele>733.0</ele><time>2026-05-02T14:02:56.937Z</time></trkpt><trkpt lat="44.24770925694341" lon="10.834582954433234"><ele>733.0</ele><time>2026-05-02T14:02:57.937Z</time></trkpt><trkpt lat="44.24769269463489" lon="10.834673041408987"><ele>733.0</ele><time>2026-05-02T14:02:58.937Z</time></trkpt><trkpt lat="44.24769535925239" lon="10.834767145924404"><ele>731.6666666666667</ele><time>2026-05-02T14:02:59.937Z</time></trkpt><trkpt lat="44.24772779908948" lon="10.834848833393876"><ele>730.3333333333334</ele><time>2026-05-02T14:03:00.937Z</time></trkpt><trkpt lat="44.24776744579148" lon="10.834944774200439"><ele>729.0</ele><time>2026-05-02T14:03:01.937Z</time></trkpt><trkpt lat="44.24782775526058" lon="10.835025250002422"><ele>727.6666666666666</ele><time>2026-05-02T14:03:02.937Z</time></trkpt><trkpt lat="44.247885504784676" lon="10.835095439915966"><ele>726.3333333333333</ele><time>2026-05-02T14:03:03.937Z</time></trkpt><trkpt lat="44.24793289575516" lon="10.835175338771855"><ele>725.0</ele><time>2026-05-02T14:03:04.937Z</time></trkpt><trkpt lat="44.247964849895816" lon="10.835263929443627"><ele>723.3333333333333</ele><time>2026-05-02T14:03:05.937Z</time></trkpt><trkpt lat="44.24798492828932" lon="10.835368864762511"><ele>721.6666666666666</ele><time>2026-05-02T14:03:06.937Z</time></trkpt><trkpt lat="44.24798834565662" lon="10.835487733583355"><ele>720.0</ele><time>2026-05-02T14:03:07.937Z</time></trkpt><trkpt lat="44.247981254532235" lon="10.835616440524765"><ele>718.3333333333334</ele><time>2026-05-02T14:03:08.937Z</time></trkpt><trkpt lat="44.24797335574842" lon="10.835743713072876"><ele>716.6666666666667</ele><time>2026-05-02T14:03:09.937Z</time></trkpt><trkpt lat="44.24797633749518" lon="10.835867409238531"><ele>715.0</ele><time>2026-05-02T14:03:10.937Z</time></trkpt><trkpt lat="44.24797900728563" lon="10.835992988512432"><ele>713.8</ele><time>2026-05-02T14:03:11.937Z</time></trkpt><trkpt lat="44.24800787389168" lon="10.836102288178331"><ele>712.6</ele><time>2026-05-02T14:03:12.937Z</time></trkpt><trkpt lat="44.248050508524926" lon="10.836212349099617"><ele>711.4000000000001</ele><time>2026-05-02T14:03:13.937Z</time></trkpt><trkpt lat="44.248104131910495" lon="10.836328514212152"><ele>710.2</ele><time>2026-05-02T14:03:14.937Z</time></trkpt><trkpt lat="44.24817518736867" lon="10.836432505079122"><ele>709.0</ele><time>2026-05-02T14:03:15.937Z</time></trkpt><trkpt lat="44.24823088015801" lon="10.836559997852854"><ele>708.1666666666667</ele><time>2026-05-02T14:03:16.937Z</time></trkpt><trkpt lat="44.2482947241009" lon="10.836664302624069"><ele>707.3333333333334</ele><time>2026-05-02T14:03:17.937Z</time></trkpt><trkpt lat="44.248353249471066" lon="10.83674895758837"><ele>706.5</ele><time>2026-05-02T14:03:18.938Z</time></trkpt><trkpt lat="44.24840627241775" lon="10.836826533158925"><ele>705.6666666666666</ele><time>2026-05-02T14:03:19.94Z</time></trkpt><trkpt lat="44.24846108589821" lon="10.836910838148674"><ele>704.8333333333333</ele><time>2026-05-02T14:03:20.942Z</time></trkpt><trkpt lat="44.24852331279012" lon="10.837014176861219"><ele>704.0</ele><time>2026-05-02T14:03:21.943Z</time></trkpt><trkpt lat="44.2485891348098" lon="10.837134611984252"><ele>704.0</ele><time>2026-05-02T14:03:22.944Z</time></trkpt><trkpt lat="44.24865419690557" lon="10.837263373959056"><ele>704.0</ele><time>2026-05-02T14:03:23.946Z</time></trkpt><trkpt lat="44.24870766847576" lon="10.837367057110692"><ele>704.0</ele><time>2026-05-02T14:03:24.947Z</time></trkpt><trkpt lat="44.24875460545553" lon="10.83748104884722"><ele>704.0</ele><time>2026-05-02T14:03:25.948Z</time></trkpt><trkpt lat="44.248811482946486" lon="10.837608844162238"><ele>704.0</ele><time>2026-05-02T14:03:26.949Z</time></trkpt><trkpt lat="44.24886680146718" lon="10.837758529805628"><ele>704.25</ele><time>2026-05-02T14:03:27.95Z</time></trkpt><trkpt lat="44.24891480412994" lon="10.837922210684892"><ele>704.5</ele><time>2026-05-02T14:03:28.951Z</time></trkpt><trkpt lat="44.248963977368916" lon="10.838088036095606"><ele>704.75</ele><time>2026-05-02T14:03:29.952Z</time></trkpt><trkpt lat="44.24902156729379" lon="10.838259171472947"><ele>705.0</ele><time>2026-05-02T14:03:30.953Z</time></trkpt><trkpt lat="44.249067561180006" lon="10.838426690588385"><ele>702.25</ele><time>2026-05-02T14:03:31.954Z</time></trkpt><trkpt lat="44.24910903998843" lon="10.838579667897214"><ele>699.5</ele><time>2026-05-02T14:03:32.954Z</time></trkpt><trkpt lat="44.249150710590364" lon="10.838731209447088"><ele>696.75</ele><time>2026-05-02T14:03:33.952Z</time></trkpt><trkpt lat="44.24920251658956" lon="10.838867974949446"><ele>694.0</ele><time>2026-05-02T14:03:34.952Z</time></trkpt><trkpt lat="44.249253704347005" lon="10.83900346415145"><ele>694.0</ele><time>2026-05-02T14:03:35.953Z</time></trkpt><trkpt lat="44.24929159425109" lon="10.83910273696457"><ele>694.0</ele><time>2026-05-02T14:03:36.954Z</time></trkpt><trkpt lat="44.24932416446916" lon="10.839200142494418"><ele>694.0</ele><time>2026-05-02T14:03:37.954Z</time></trkpt><trkpt lat="44.249368322269575" lon="10.839315290752248"><ele>694.0</ele><time>2026-05-02T14:03:39.955Z</time></trkpt><trkpt lat="44.24940464807625" lon="10.839399380913271"><ele>694.0</ele><time>2026-05-02T14:03:41.956Z</time></trkpt><trkpt lat="44.24944150236713" lon="10.839492263594055"><ele>694.0</ele><time>2026-05-02T14:03:45.957Z</time></trkpt><trkpt lat="44.24946948917021" lon="10.83957527527791"><ele>694.0</ele><time>2026-05-02T14:03:49.958Z</time></trkpt><trkpt lat="44.249569215346575" lon="10.839682755218556"><ele>694.0</ele><time>2026-05-02T14:03:52.959Z</time></trkpt><trkpt lat="44.2496778594801" lon="10.8396892824659"><ele>694.0</ele><time>2026-05-02T14:03:54.959Z</time></trkpt><trkpt lat="44.24974623247801" lon="10.839666182035769"><ele>694.0</ele><time>2026-05-02T14:03:55.959Z</time></trkpt><trkpt lat="44.24981316714881" lon="10.83963112156206"><ele>694.0</ele><time>2026-05-02T14:03:56.959Z</time></trkpt><trkpt lat="44.2498890577309" lon="10.839570410314495"><ele>694.0</ele><time>2026-05-02T14:03:57.959Z</time></trkpt><trkpt lat="44.2499730705968" lon="10.839487295167528"><ele>694.0</ele><time>2026-05-02T14:03:58.96Z</time></trkpt><trkpt lat="44.25005710086142" lon="10.839391106459217"><ele>694.0</ele><time>2026-05-02T14:03:59.96Z</time></trkpt><trkpt lat="44.25013278447394" lon="10.839285597549669"><ele>694.0</ele><time>2026-05-02T14:04:00.96Z</time></trkpt><trkpt lat="44.250209543943384" lon="10.839174351956787"><ele>694.0</ele><time>2026-05-02T14:04:01.96Z</time></trkpt><trkpt lat="44.25029208431167" lon="10.839054728296148"><ele>695.0</ele><time>2026-05-02T14:04:02.96Z</time></trkpt><trkpt lat="44.25037560248651" lon="10.838942655832266"><ele>696.0</ele><time>2026-05-02T14:04:03.96Z</time></trkpt><trkpt lat="44.250467148637576" lon="10.838857071153434"><ele>697.0</ele><time>2026-05-02T14:04:04.96Z</time></trkpt><trkpt lat="44.250565258861684" lon="10.838776087380882"><ele>698.0</ele><time>2026-05-02T14:04:05.96Z</time></trkpt><trkpt lat="44.250667990887266" lon="10.838693736318112"><ele>696.5</ele><time>2026-05-02T14:04:06.961Z</time></trkpt><trkpt lat="44.25076623221973" lon="10.838607076565618"><ele>695.0</ele><time>2026-05-02T14:04:07.961Z</time></trkpt><trkpt lat="44.250875925142786" lon="10.838532620890604"><ele>693.5</ele><time>2026-05-02T14:04:08.961Z</time></trkpt><trkpt lat="44.25098949607071" lon="10.83846228425507"><ele>692.0</ele><time>2026-05-02T14:04:09.961Z</time></trkpt><trkpt lat="44.251081591526784" lon="10.83840631557682"><ele>692.0</ele><time>2026-05-02T14:04:10.961Z</time></trkpt><trkpt lat="44.2511900755477" lon="10.838345134944378"><ele>692.0</ele><time>2026-05-02T14:04:11.961Z</time></trkpt><trkpt lat="44.25130311971931" lon="10.838305475978842"><ele>692.0</ele><time>2026-05-02T14:04:12.961Z</time></trkpt><trkpt lat="44.251393832527505" lon="10.838277718666832"><ele>692.0</ele><time>2026-05-02T14:04:13.961Z</time></trkpt><trkpt lat="44.251484977296656" lon="10.838246894408323"><ele>692.0</ele><time>2026-05-02T14:04:14.961Z</time></trkpt><trkpt lat="44.25158300470342" lon="10.838201207024314"><ele>688.8</ele><time>2026-05-02T14:04:15.961Z</time></trkpt><trkpt lat="44.251673245234535" lon="10.838141645995488"><ele>685.6</ele><time>2026-05-02T14:04:16.961Z</time></trkpt><trkpt lat="44.251758159749876" lon="10.83808523485916"><ele>682.4</ele><time>2026-05-02T14:04:17.961Z</time></trkpt><trkpt lat="44.25184039924414" lon="10.838041873336673"><ele>679.1999999999999</ele><time>2026-05-02T14:04:18.961Z</time></trkpt><trkpt lat="44.25192315987881" lon="10.83801424371994"><ele>676.0</ele><time>2026-05-02T14:04:19.962Z</time></trkpt><trkpt lat="44.25201749685689" lon="10.838015137803643"><ele>676.0</ele><time>2026-05-02T14:04:20.962Z</time></trkpt><trkpt lat="44.25211319109797" lon="10.83803185469555"><ele>676.0</ele><time>2026-05-02T14:04:21.962Z</time></trkpt><trkpt lat="44.252226469966345" lon="10.838055210263832"><ele>676.0</ele><time>2026-05-02T14:04:22.962Z</time></trkpt><trkpt lat="44.252330478645185" lon="10.838064097719917"><ele>676.0</ele><time>2026-05-02T14:04:23.962Z</time></trkpt><trkpt lat="44.25244454262817" lon="10.838073154370313"><ele>676.0</ele><time>2026-05-02T14:04:24.962Z</time></trkpt><trkpt lat="44.25255393482285" lon="10.838079409225521"><ele>673.5999999999999</ele><time>2026-05-02T14:04:25.962Z</time></trkpt><trkpt lat="44.25264904590944" lon="10.83807970543805"><ele>671.2</ele><time>2026-05-02T14:04:26.962Z</time></trkpt><trkpt lat="44.252715782176836" lon="10.838081476158736"><ele>668.8</ele><time>2026-05-02T14:04:27.962Z</time></trkpt><trkpt lat="44.252788454843625" lon="10.838076342251107"><ele>666.4000000000001</ele><time>2026-05-02T14:04:29.962Z</time></trkpt><trkpt lat="44.25285812405538" lon="10.838073581296012"><ele>664.0</ele><time>2026-05-02T14:05:10.963Z</time></trkpt><trkpt lat="44.25281156916295" lon="10.838290346944964"><ele>664.0</ele><time>2026-05-02T14:05:16.963Z</time></trkpt><trkpt lat="44.25278623315482" lon="10.838379425826561"><ele>664.0</ele><time>2026-05-02T14:05:17.963Z</time></trkpt><trkpt lat="44.2527426980807" lon="10.838552695450169"><ele>664.0</ele><time>2026-05-02T14:05:19.963Z</time></trkpt><trkpt lat="44.252716252543884" lon="10.838661233251083"><ele>664.0</ele><time>2026-05-02T14:05:20.963Z</time></trkpt><trkpt lat="44.2526893514405" lon="10.838765686502805"><ele>664.0</ele><time>2026-05-02T14:05:21.963Z</time></trkpt><trkpt lat="44.252656114099075" lon="10.838880406760424"><ele>661.8000000000001</ele><time>2026-05-02T14:05:22.963Z</time></trkpt><trkpt lat="44.2526188770115" lon="10.838994382544112"><ele>659.6</ele><time>2026-05-02T14:05:23.963Z</time></trkpt><trkpt lat="44.25258031016528" lon="10.839113379194501"><ele>657.4</ele><time>2026-05-02T14:05:24.963Z</time></trkpt><trkpt lat="44.25254031238095" lon="10.839237366599376"><ele>655.2</ele><time>2026-05-02T14:05:25.964Z</time></trkpt><trkpt lat="44.252501392291876" lon="10.839349396583929"><ele>653.0</ele><time>2026-05-02T14:05:26.964Z</time></trkpt><trkpt lat="44.252463326912185" lon="10.839449596469379"><ele>652.4</ele><time>2026-05-02T14:05:27.964Z</time></trkpt><trkpt lat="44.252415069338184" lon="10.839564111576635"><ele>651.8</ele><time>2026-05-02T14:05:28.964Z</time></trkpt><trkpt lat="44.25236309516792" lon="10.839677768781694"><ele>651.2</ele><time>2026-05-02T14:05:29.964Z</time></trkpt><trkpt lat="44.252314030981644" lon="10.839803590896906"><ele>650.6</ele><time>2026-05-02T14:05:30.964Z</time></trkpt><trkpt lat="44.25223915463979" lon="10.839916980682286"><ele>650.0</ele><time>2026-05-02T14:05:31.964Z</time></trkpt><trkpt lat="44.25214124453597" lon="10.840008617157398"><ele>649.2</ele><time>2026-05-02T14:05:32.964Z</time></trkpt><trkpt lat="44.252058013286735" lon="10.840142217623061"><ele>648.4</ele><time>2026-05-02T14:05:33.964Z</time></trkpt><trkpt lat="44.25196402534586" lon="10.840241528436545"><ele>647.5999999999999</ele><time>2026-05-02T14:05:34.964Z</time></trkpt><trkpt lat="44.251884481916704" lon="10.840337307649012"><ele>646.8</ele><time>2026-05-02T14:05:35.964Z</time></trkpt><trkpt lat="44.251831215289485" lon="10.840421101017057"><ele>646.0</ele><time>2026-05-02T14:05:36.964Z</time></trkpt><trkpt lat="44.251777788601" lon="10.840489547123937"><ele>646.0</ele><time>2026-05-02T14:05:37.964Z</time></trkpt><trkpt lat="44.2517294792468" lon="10.840577861698538"><ele>646.0</ele><time>2026-05-02T14:05:38.964Z</time></trkpt><trkpt lat="44.25168125528434" lon="10.840657184129293"><ele>646.0</ele><time>2026-05-02T14:05:39.961Z</time></trkpt><trkpt lat="44.251676567808616" lon="10.840758251480052"><ele>646.0</ele><time>2026-05-02T14:05:40.961Z</time></trkpt><trkpt lat="44.25168971785599" lon="10.840932275896668"><ele>646.0</ele><time>2026-05-02T14:05:42.961Z</time></trkpt><trkpt lat="44.25171169615108" lon="10.841018728137641"><ele>646.0</ele><time>2026-05-02T14:05:43.96Z</time></trkpt><trkpt lat="44.25169851551038" lon="10.841105988896004"><ele>645.3333333333334</ele><time>2026-05-02T14:05:44.96Z</time></trkpt><trkpt lat="44.25169605541819" lon="10.841209136597714"><ele>644.6666666666667</ele><time>2026-05-02T14:05:45.961Z</time></trkpt><trkpt lat="44.25169118903052" lon="10.841326710320258"><ele>644.0</ele><time>2026-05-02T14:05:46.961Z</time></trkpt><trkpt lat="44.25168864178601" lon="10.841454445906164"><ele>643.3333333333334</ele><time>2026-05-02T14:05:47.961Z</time></trkpt><trkpt lat="44.25168815210243" lon="10.841578287990028"><ele>642.6666666666666</ele><time>2026-05-02T14:05:48.961Z</time></trkpt><trkpt lat="44.25170085178818" lon="10.84170340800461"><ele>642.0</ele><time>2026-05-02T14:05:49.96Z</time></trkpt><trkpt lat="44.25172891178028" lon="10.841831878236146"><ele>643.6</ele><time>2026-05-02T14:05:50.96Z</time></trkpt><trkpt lat="44.251773879965654" lon="10.841962541626785"><ele>645.2</ele><time>2026-05-02T14:05:51.961Z</time></trkpt><trkpt lat="44.25183047239327" lon="10.842084549972375"><ele>646.8</ele><time>2026-05-02T14:05:52.96Z</time></trkpt><trkpt lat="44.25189707416459" lon="10.842203472850212"><ele>648.4</ele><time>2026-05-02T14:05:53.96Z</time></trkpt><trkpt lat="44.25196439040117" lon="10.842329862622359"><ele>650.0</ele><time>2026-05-02T14:05:54.96Z</time></trkpt><trkpt lat="44.252026726025555" lon="10.842467715887821"><ele>650.0</ele><time>2026-05-02T14:05:55.96Z</time></trkpt><trkpt lat="44.25208046438106" lon="10.842605889351164"><ele>650.0</ele><time>2026-05-02T14:05:56.96Z</time></trkpt><trkpt lat="44.252113639806275" lon="10.842772657762916"><ele>650.0</ele><time>2026-05-02T14:05:57.96Z</time></trkpt><trkpt lat="44.25216703567931" lon="10.842911894189065"><ele>650.0</ele><time>2026-05-02T14:05:58.96Z</time></trkpt><trkpt lat="44.25218926170785" lon="10.843072778546913"><ele>649.75</ele><time>2026-05-02T14:05:59.96Z</time></trkpt><trkpt lat="44.25220547774268" lon="10.843237683688912"><ele>649.5</ele><time>2026-05-02T14:06:00.96Z</time></trkpt><trkpt lat="44.25221348153798" lon="10.843401304913774"><ele>649.25</ele><time>2026-05-02T14:06:01.96Z</time></trkpt><trkpt lat="44.25222275859967" lon="10.843560001964324"><ele>649.0</ele><time>2026-05-02T14:06:02.96Z</time></trkpt><trkpt lat="44.25224364991326" lon="10.843706805568653"><ele>648.0</ele><time>2026-05-02T14:06:03.96Z</time></trkpt><trkpt lat="44.25227399891652" lon="10.843835536020526"><ele>647.0</ele><time>2026-05-02T14:06:04.96Z</time></trkpt><trkpt lat="44.252292647517926" lon="10.843923035656871"><ele>646.0</ele><time>2026-05-02T14:06:05.961Z</time></trkpt><trkpt lat="44.252309707929555" lon="10.844053340654204"><ele>645.0</ele><time>2026-05-02T14:06:07.961Z</time></trkpt><trkpt lat="44.252393286134776" lon="10.844169601112846"><ele>644.0</ele><time>2026-05-02T14:06:09.961Z</time></trkpt><trkpt lat="44.2524551973991" lon="10.844211245708735"><ele>643.0</ele><time>2026-05-02T14:06:10.961Z</time></trkpt><trkpt lat="44.25256726913603" lon="10.844273199935405"><ele>636.6</ele><time>2026-05-02T14:06:12.961Z</time></trkpt><trkpt lat="44.2526797910899" lon="10.844326743292159"><ele>630.1999999999999</ele><time>2026-05-02T14:06:14.961Z</time></trkpt><trkpt lat="44.25279621508772" lon="10.844354696097625"><ele>623.8</ele><time>2026-05-02T14:06:16.961Z</time></trkpt><trkpt lat="44.25289558312585" lon="10.844459029577331"><ele>617.4</ele><time>2026-05-02T14:06:18.961Z</time></trkpt><trkpt lat="44.25294795290253" lon="10.84451610916511"><ele>611.0</ele><time>2026-05-02T14:06:19.961Z</time></trkpt><trkpt lat="44.253001555688776" lon="10.844570147108895"><ele>611.0000000000001</ele><time>2026-05-02T14:06:20.961Z</time></trkpt><trkpt lat="44.25305505876902" lon="10.844628371580924"><ele>611.0</ele><time>2026-05-02T14:06:21.961Z</time></trkpt><trkpt lat="44.25311589940547" lon="10.844685802091785"><ele>611.0</ele><time>2026-05-02T14:06:22.961Z</time></trkpt><trkpt lat="44.25317567361897" lon="10.844748338183589"><ele>611.0</ele><time>2026-05-02T14:06:23.961Z</time></trkpt><trkpt lat="44.25321784739064" lon="10.844830294487748"><ele>611.0</ele><time>2026-05-02T14:06:24.961Z</time></trkpt><trkpt lat="44.25325169107025" lon="10.844916831278525"><ele>611.0000000000001</ele><time>2026-05-02T14:06:25.961Z</time></trkpt><trkpt lat="44.253289207349965" lon="10.845003336136845"><ele>611.0</ele><time>2026-05-02T14:06:26.961Z</time></trkpt><trkpt lat="44.2533243896759" lon="10.845104424082768"><ele>610.8333333333333</ele><time>2026-05-02T14:06:27.961Z</time></trkpt><trkpt lat="44.25335256851123" lon="10.845210801367143"><ele>610.6666666666666</ele><time>2026-05-02T14:06:28.961Z</time></trkpt><trkpt lat="44.25338654997264" lon="10.845321162427746"><ele>610.5</ele><time>2026-05-02T14:06:29.961Z</time></trkpt><trkpt lat="44.25343212665435" lon="10.845423569699138"><ele>610.3333333333334</ele><time>2026-05-02T14:06:30.961Z</time></trkpt><trkpt lat="44.253480332317544" lon="10.845515122662704"><ele>610.1666666666667</ele><time>2026-05-02T14:06:31.961Z</time></trkpt><trkpt lat="44.253531544986714" lon="10.845609418265845"><ele>610.0</ele><time>2026-05-02T14:06:32.961Z</time></trkpt><trkpt lat="44.25358386186123" lon="10.84569812825186"><ele>610.0</ele><time>2026-05-02T14:06:33.961Z</time></trkpt><trkpt lat="44.253628652084245" lon="10.845783338050879"><ele>610.0</ele><time>2026-05-02T14:06:34.961Z</time></trkpt><trkpt lat="44.25366715307908" lon="10.845873354395799"><ele>610.0</ele><time>2026-05-02T14:06:35.961Z</time></trkpt><trkpt lat="44.25370062121343" lon="10.84596618277343"><ele>610.0</ele><time>2026-05-02T14:06:36.961Z</time></trkpt><trkpt lat="44.25371895688154" lon="10.846072373986326"><ele>610.0</ele><time>2026-05-02T14:06:37.961Z</time></trkpt><trkpt lat="44.25374770037512" lon="10.846170466599839"><ele>610.0</ele><time>2026-05-02T14:06:38.961Z</time></trkpt><trkpt lat="44.25378585071126" lon="10.846280201103651"><ele>609.8333333333334</ele><time>2026-05-02T14:06:39.961Z</time></trkpt><trkpt lat="44.25382973474398" lon="10.84639707892197"><ele>609.6666666666667</ele><time>2026-05-02T14:06:40.961Z</time></trkpt><trkpt lat="44.25387468278705" lon="10.84648824989945"><ele>609.5</ele><time>2026-05-02T14:06:41.961Z</time></trkpt><trkpt lat="44.25391313755657" lon="10.846577060642966"><ele>609.3333333333334</ele><time>2026-05-02T14:06:42.961Z</time></trkpt><trkpt lat="44.25394400778709" lon="10.846664833559787"><ele>609.1666666666666</ele><time>2026-05-02T14:06:43.961Z</time></trkpt><trkpt lat="44.25396633115011" lon="10.846765748761142"><ele>609.0</ele><time>2026-05-02T14:06:44.961Z</time></trkpt><trkpt lat="44.253985542256984" lon="10.846863797436667"><ele>608.1666666666666</ele><time>2026-05-02T14:06:45.961Z</time></trkpt><trkpt lat="44.25399850263487" lon="10.846968079454745"><ele>607.3333333333334</ele><time>2026-05-02T14:06:46.961Z</time></trkpt><trkpt lat="44.2540078147371" lon="10.847081924896225"><ele>606.5</ele><time>2026-05-02T14:06:47.961Z</time></trkpt><trkpt lat="44.25402806490771" lon="10.847203566981046"><ele>605.6666666666667</ele><time>2026-05-02T14:06:48.961Z</time></trkpt><trkpt lat="44.254064727525616" lon="10.847307668676045"><ele>604.8333333333334</ele><time>2026-05-02T14:06:49.961Z</time></trkpt><trkpt lat="44.25410588004571" lon="10.847414688351202"><ele>604.0</ele><time>2026-05-02T14:06:50.962Z</time></trkpt><trkpt lat="44.2541484927812" lon="10.847516294064791"><ele>604.0</ele><time>2026-05-02T14:06:51.962Z</time></trkpt><trkpt lat="44.254196130064344" lon="10.847584815356978"><ele>604.0</ele><time>2026-05-02T14:06:52.962Z</time></trkpt><trkpt lat="44.25427457878577" lon="10.847680780879621"><ele>604.0</ele><time>2026-05-02T14:06:54.962Z</time></trkpt><trkpt lat="44.25429124157969" lon="10.84780451508643"><ele>604.0</ele><time>2026-05-02T14:06:56.962Z</time></trkpt><trkpt lat="44.25429650674279" lon="10.847899395995885"><ele>604.0</ele><time>2026-05-02T14:06:57.962Z</time></trkpt><trkpt lat="44.254304171727036" lon="10.84800910726869"><ele>604.0</ele><time>2026-05-02T14:06:58.962Z</time></trkpt><trkpt lat="44.25430628957496" lon="10.848132625241613"><ele>603.3333333333334</ele><time>2026-05-02T14:06:59.962Z</time></trkpt><trkpt lat="44.254339174553685" lon="10.848251302601131"><ele>602.6666666666667</ele><time>2026-05-02T14:07:00.962Z</time></trkpt><trkpt lat="44.25437388682745" lon="10.848362369673218"><ele>602.0</ele><time>2026-05-02T14:07:01.962Z</time></trkpt><trkpt lat="44.25440848660441" lon="10.848465345136102"><ele>601.3333333333334</ele><time>2026-05-02T14:07:02.962Z</time></trkpt><trkpt lat="44.25444028240956" lon="10.848557345495566"><ele>600.6666666666666</ele><time>2026-05-02T14:07:03.962Z</time></trkpt><trkpt lat="44.25447038318321" lon="10.848641448125253"><ele>600.0</ele><time>2026-05-02T14:07:04.962Z</time></trkpt><trkpt lat="44.254498942365124" lon="10.848721242058323"><ele>600.1666666666666</ele><time>2026-05-02T14:07:05.962Z</time></trkpt><trkpt lat="44.25456123634435" lon="10.848861833492098"><ele>600.3333333333334</ele><time>2026-05-02T14:07:07.962Z</time></trkpt><trkpt lat="44.25461106062855" lon="10.848921498471086"><ele>600.5</ele><time>2026-05-02T14:07:08.962Z</time></trkpt><trkpt lat="44.25465067403353" lon="10.848995378381867"><ele>600.6666666666667</ele><time>2026-05-02T14:07:09.962Z</time></trkpt><trkpt lat="44.25469323980428" lon="10.849068984209694"><ele>600.8333333333334</ele><time>2026-05-02T14:07:10.962Z</time></trkpt><trkpt lat="44.25474311722858" lon="10.849142670140113"><ele>601.0</ele><time>2026-05-02T14:07:11.962Z</time></trkpt><trkpt lat="44.254801774181544" lon="10.84920582485259"><ele>601.0</ele><time>2026-05-02T14:07:12.962Z</time></trkpt><trkpt lat="44.25485803084078" lon="10.849281113621391"><ele>601.0</ele><time>2026-05-02T14:07:13.962Z</time></trkpt><trkpt lat="44.2549429281972" lon="10.84932902487516"><ele>601.0</ele><time>2026-05-02T14:07:14.962Z</time></trkpt><trkpt lat="44.25501419199511" lon="10.849403717662712"><ele>601.0</ele><time>2026-05-02T14:07:15.962Z</time></trkpt><trkpt lat="44.2550924229925" lon="10.849479034727002"><ele>601.0</ele><time>2026-05-02T14:07:16.962Z</time></trkpt><trkpt lat="44.255165367741434" lon="10.84955564747807"><ele>601.0</ele><time>2026-05-02T14:07:17.962Z</time></trkpt><trkpt lat="44.25523135679525" lon="10.849624411110854"><ele>598.8</ele><time>2026-05-02T14:07:18.962Z</time></trkpt><trkpt lat="44.25529975614906" lon="10.849700302633964"><ele>596.6</ele><time>2026-05-02T14:07:19.962Z</time></trkpt><trkpt lat="44.25537194418272" lon="10.849783006420378"><ele>594.4</ele><time>2026-05-02T14:07:20.962Z</time></trkpt><trkpt lat="44.255453649231825" lon="10.849875134559545"><ele>592.2</ele><time>2026-05-02T14:07:21.962Z</time></trkpt><trkpt lat="44.255531400663195" lon="10.849973111109515"><ele>590.0</ele><time>2026-05-02T14:07:22.962Z</time></trkpt><trkpt lat="44.2556074625246" lon="10.850082007038331"><ele>589.3333333333333</ele><time>2026-05-02T14:07:23.962Z</time></trkpt><trkpt lat="44.255666035087636" lon="10.850182895704487"><ele>588.6666666666666</ele><time>2026-05-02T14:07:24.962Z</time></trkpt><trkpt lat="44.25571591696184" lon="10.850277359777852"><ele>588.0</ele><time>2026-05-02T14:07:25.962Z</time></trkpt><trkpt lat="44.25575687907566" lon="10.850369721375689"><ele>587.3333333333334</ele><time>2026-05-02T14:07:26.962Z</time></trkpt><trkpt lat="44.255794234146535" lon="10.85046890861043"><ele>586.6666666666667</ele><time>2026-05-02T14:07:27.962Z</time></trkpt><trkpt lat="44.25581294411709" lon="10.850575385132768"><ele>586.0</ele><time>2026-05-02T14:07:28.962Z</time></trkpt><trkpt lat="44.255848374573965" lon="10.85068338927474"><ele>586.0</ele><time>2026-05-02T14:07:29.962Z</time></trkpt><trkpt lat="44.255889605375735" lon="10.850786140059876"><ele>586.0</ele><time>2026-05-02T14:07:30.962Z</time></trkpt><trkpt lat="44.25593803357439" lon="10.850876644660707"><ele>586.0</ele><time>2026-05-02T14:07:31.962Z</time></trkpt><trkpt lat="44.25598041864564" lon="10.850944389792017"><ele>586.0</ele><time>2026-05-02T14:07:32.962Z</time></trkpt><trkpt lat="44.25606893615848" lon="10.851050861095374"><ele>586.0</ele><time>2026-05-02T14:07:34.963Z</time></trkpt><trkpt lat="44.2561331316878" lon="10.851118593836684"><ele>586.0</ele><time>2026-05-02T14:07:36.963Z</time></trkpt><trkpt lat="44.256186158529175" lon="10.851189481881638"><ele>584.4</ele><time>2026-05-02T14:07:38.963Z</time></trkpt><trkpt lat="44.25625112653628" lon="10.851297120593353"><ele>582.8</ele><time>2026-05-02T14:07:40.963Z</time></trkpt><trkpt lat="44.25633657710634" lon="10.851419912571437"><ele>581.1999999999999</ele><time>2026-05-02T14:07:42.963Z</time></trkpt><trkpt lat="44.256391100814696" lon="10.851525423311832"><ele>579.6</ele><time>2026-05-02T14:07:44.96Z</time></trkpt><trkpt lat="44.25646000183781" lon="10.851648974950507"><ele>578.0</ele><time>2026-05-02T14:07:46.96Z</time></trkpt><trkpt lat="44.256544297111546" lon="10.851674810088596"><ele>577.6666666666666</ele><time>2026-05-02T14:07:47.96Z</time></trkpt><trkpt lat="44.25660948990272" lon="10.851735749481382"><ele>577.3333333333333</ele><time>2026-05-02T14:07:48.96Z</time></trkpt><trkpt lat="44.2566880907803" lon="10.851767126751017"><ele>577.0</ele><time>2026-05-02T14:07:49.96Z</time></trkpt><trkpt lat="44.256758764670096" lon="10.851782568900774"><ele>576.6666666666666</ele><time>2026-05-02T14:07:50.96Z</time></trkpt><trkpt lat="44.25686032276136" lon="10.85176583314395"><ele>576.3333333333334</ele><time>2026-05-02T14:07:52.959Z</time></trkpt><trkpt lat="44.25695361725901" lon="10.851689935446865"><ele>576.0</ele><time>2026-05-02T14:07:54.959Z</time></trkpt><trkpt lat="44.2569916966275" lon="10.851612372454618"><ele>576.0</ele><time>2026-05-02T14:07:55.959Z</time></trkpt><trkpt lat="44.25701683091294" lon="10.851520461404926"><ele>576.0</ele><time>2026-05-02T14:07:56.96Z</time></trkpt><trkpt lat="44.25704361677935" lon="10.851417094453948"><ele>576.0</ele><time>2026-05-02T14:07:57.96Z</time></trkpt><trkpt lat="44.25706578563606" lon="10.8513257745589"><ele>576.0</ele><time>2026-05-02T14:07:58.96Z</time></trkpt><trkpt lat="44.25709919555415" lon="10.851188869340694"><ele>576.0</ele><time>2026-05-02T14:08:00.96Z</time></trkpt><trkpt lat="44.25712337705707" lon="10.85106726957792"><ele>576.0</ele><time>2026-05-02T14:08:02.96Z</time></trkpt><trkpt lat="44.25715447965342" lon="10.850951901095785"><ele>576.8</ele><time>2026-05-02T14:08:04.961Z</time></trkpt><trkpt lat="44.25721841264853" lon="10.850818759716512"><ele>577.6</ele><time>2026-05-02T14:08:06.961Z</time></trkpt><trkpt lat="44.25725408342543" lon="10.850744776936983"><ele>578.4</ele><time>2026-05-02T14:08:07.961Z</time></trkpt><trkpt lat="44.25731734131925" lon="10.850624438563047"><ele>579.2</ele><time>2026-05-02T14:08:09.961Z</time></trkpt><trkpt lat="44.25740648669154" lon="10.850524877680682"><ele>580.0</ele><time>2026-05-02T14:08:11.961Z</time></trkpt><trkpt lat="44.25751063190339" lon="10.850517616768517"><ele>576.2</ele><time>2026-05-02T14:08:13.961Z</time></trkpt><trkpt lat="44.25760454558795" lon="10.85062681203537"><ele>572.4</ele><time>2026-05-02T14:08:15.961Z</time></trkpt><trkpt lat="44.25764622568122" lon="10.85070416192591"><ele>568.6</ele><time>2026-05-02T14:08:16.961Z</time></trkpt><trkpt lat="44.257690753311635" lon="10.850792531530319"><ele>564.8</ele><time>2026-05-02T14:08:17.961Z</time></trkpt><trkpt lat="44.2577294349704" lon="10.85091061735368"><ele>561.0</ele><time>2026-05-02T14:08:18.961Z</time></trkpt><trkpt lat="44.257784835965246" lon="10.85101680778628"><ele>560.6</ele><time>2026-05-02T14:08:19.961Z</time></trkpt><trkpt lat="44.25783591592608" lon="10.851122028956928"><ele>560.2</ele><time>2026-05-02T14:08:20.961Z</time></trkpt><trkpt lat="44.25788366206386" lon="10.85123039148404"><ele>559.8</ele><time>2026-05-02T14:08:21.961Z</time></trkpt><trkpt lat="44.25792474710912" lon="10.851350773870855"><ele>559.4</ele><time>2026-05-02T14:08:22.961Z</time></trkpt><trkpt lat="44.25796718637504" lon="10.851484884176383"><ele>559.0</ele><time>2026-05-02T14:08:23.961Z</time></trkpt><trkpt lat="44.25801129994037" lon="10.851621156654911"><ele>559.0</ele><time>2026-05-02T14:08:24.961Z</time></trkpt><trkpt lat="44.25806021854676" lon="10.851757861332217"><ele>559.0</ele><time>2026-05-02T14:08:25.961Z</time></trkpt><trkpt lat="44.25810910414768" lon="10.851889192348144"><ele>559.0</ele><time>2026-05-02T14:08:26.961Z</time></trkpt><trkpt lat="44.25815401839489" lon="10.85199998697638"><ele>559.0</ele><time>2026-05-02T14:08:27.961Z</time></trkpt><trkpt lat="44.258191764658946" lon="10.852086603186496"><ele>559.0</ele><time>2026-05-02T14:08:28.961Z</time></trkpt><trkpt lat="44.2582272069693" lon="10.852171265074105"><ele>559.0</ele><time>2026-05-02T14:08:29.961Z</time></trkpt><trkpt lat="44.25826685501879" lon="10.852263063802283"><ele>555.8333333333334</ele><time>2026-05-02T14:08:30.961Z</time></trkpt><trkpt lat="44.258307332609256" lon="10.8523589970749"><ele>552.6666666666667</ele><time>2026-05-02T14:08:31.961Z</time></trkpt><trkpt lat="44.258360752380895" lon="10.852464654459903"><ele>549.5</ele><time>2026-05-02T14:08:32.961Z</time></trkpt><trkpt lat="44.258424146953715" lon="10.852564388694475"><ele>546.3333333333334</ele><time>2026-05-02T14:08:33.961Z</time></trkpt><trkpt lat="44.25848607062998" lon="10.85264432200982"><ele>543.1666666666666</ele><time>2026-05-02T14:08:34.961Z</time></trkpt><trkpt lat="44.25854207942481" lon="10.852699049271841"><ele>540.0</ele><time>2026-05-02T14:08:35.961Z</time></trkpt><trkpt lat="44.25859457374392" lon="10.852760631589321"><ele>538.6666666666666</ele><time>2026-05-02T14:08:36.961Z</time></trkpt><trkpt lat="44.258643263520916" lon="10.852837500539316"><ele>537.3333333333334</ele><time>2026-05-02T14:08:37.961Z</time></trkpt><trkpt lat="44.25868656529154" lon="10.852931874137298"><ele>536.0</ele><time>2026-05-02T14:08:38.961Z</time></trkpt><trkpt lat="44.25872601005472" lon="10.85303005217406"><ele>534.6666666666667</ele><time>2026-05-02T14:08:39.961Z</time></trkpt><trkpt lat="44.25876617640147" lon="10.853132351596422"><ele>533.3333333333334</ele><time>2026-05-02T14:08:40.961Z</time></trkpt><trkpt lat="44.25882145551668" lon="10.853228389839526"><ele>532.0</ele><time>2026-05-02T14:08:41.961Z</time></trkpt><trkpt lat="44.258867328834114" lon="10.853342392214731"><ele>532.0</ele><time>2026-05-02T14:08:42.961Z</time></trkpt><trkpt lat="44.258925383261534" lon="10.853444196926846"><ele>532.0</ele><time>2026-05-02T14:08:43.961Z</time></trkpt><trkpt lat="44.258983241702076" lon="10.853511592022862"><ele>532.0</ele><time>2026-05-02T14:08:44.961Z</time></trkpt><trkpt lat="44.259027724603364" lon="10.853576856086066"><ele>532.0</ele><time>2026-05-02T14:08:45.961Z</time></trkpt><trkpt lat="44.25907644022097" lon="10.853645565864065"><ele>532.0</ele><time>2026-05-02T14:08:46.961Z</time></trkpt><trkpt lat="44.259128507241066" lon="10.853707545662637"><ele>532.0</ele><time>2026-05-02T14:08:47.961Z</time></trkpt><trkpt lat="44.25919991741997" lon="10.8537780312325"><ele>529.8333333333334</ele><time>2026-05-02T14:08:48.962Z</time></trkpt><trkpt lat="44.25926166193483" lon="10.853842994177164"><ele>527.6666666666667</ele><time>2026-05-02T14:08:49.962Z</time></trkpt><trkpt lat="44.25933473856221" lon="10.85392781905203"><ele>525.5</ele><time>2026-05-02T14:08:51.962Z</time></trkpt><trkpt lat="44.25940836933873" lon="10.853993177591212"><ele>523.3333333333334</ele><time>2026-05-02T14:08:53.962Z</time></trkpt><trkpt lat="44.2595260016819" lon="10.85402354635043"><ele>521.1666666666666</ele><time>2026-05-02T14:08:55.962Z</time></trkpt><trkpt lat="44.25959553611173" lon="10.854037717866357"><ele>519.0</ele><time>2026-05-02T14:08:56.962Z</time></trkpt><trkpt lat="44.259675547795304" lon="10.854057972140863"><ele>519.0</ele><time>2026-05-02T14:08:57.962Z</time></trkpt><trkpt lat="44.25976907464001" lon="10.854081803043375"><ele>519.0</ele><time>2026-05-02T14:08:58.962Z</time></trkpt><trkpt lat="44.259855540043134" lon="10.854106294514045"><ele>519.0</ele><time>2026-05-02T14:08:59.962Z</time></trkpt><trkpt lat="44.25993222438062" lon="10.854131586924021"><ele>519.0</ele><time>2026-05-02T14:09:00.962Z</time></trkpt><trkpt lat="44.260007253069766" lon="10.854162176131398"><ele>519.0</ele><time>2026-05-02T14:09:01.962Z</time></trkpt><trkpt lat="44.260089434146245" lon="10.854191788165343"><ele>519.0</ele><time>2026-05-02T14:09:02.962Z</time></trkpt><trkpt lat="44.26017636393922" lon="10.854223902694072"><ele>515.8333333333334</ele><time>2026-05-02T14:09:03.962Z</time></trkpt><trkpt lat="44.260268307453515" lon="10.8542649612398"><ele>512.6666666666666</ele><time>2026-05-02T14:09:04.962Z</time></trkpt><trkpt lat="44.26035717317496" lon="10.854311564552134"><ele>509.5</ele><time>2026-05-02T14:09:05.962Z</time></trkpt><trkpt lat="44.26043871785962" lon="10.854356105305344"><ele>506.3333333333333</ele><time>2026-05-02T14:09:06.962Z</time></trkpt><trkpt lat="44.26050670586165" lon="10.854391093754428"><ele>503.16666666666663</ele><time>2026-05-02T14:09:07.962Z</time></trkpt><trkpt lat="44.26057005359719" lon="10.85441509629413"><ele>500.0</ele><time>2026-05-02T14:09:08.962Z</time></trkpt><trkpt lat="44.260640517404134" lon="10.85443096476634"><ele>496.3333333333333</ele><time>2026-05-02T14:09:09.962Z</time></trkpt><trkpt lat="44.26071219555419" lon="10.854453192354741"><ele>492.66666666666663</ele><time>2026-05-02T14:09:10.962Z</time></trkpt><trkpt lat="44.260780137088524" lon="10.854502146299302"><ele>489.0</ele><time>2026-05-02T14:09:11.962Z</time></trkpt><trkpt lat="44.26083863980167" lon="10.854568105928681"><ele>485.33333333333337</ele><time>2026-05-02T14:09:12.962Z</time></trkpt><trkpt lat="44.26090406826696" lon="10.854642829208442"><ele>481.6666666666667</ele><time>2026-05-02T14:09:13.962Z</time></trkpt><trkpt lat="44.26098646784674" lon="10.85471273948498"><ele>478.0</ele><time>2026-05-02T14:09:14.962Z</time></trkpt><trkpt lat="44.26106860765498" lon="10.85478226493939"><ele>478.0</ele><time>2026-05-02T14:09:15.962Z</time></trkpt><trkpt lat="44.26113893805053" lon="10.854843578052431"><ele>477.99999999999994</ele><time>2026-05-02T14:09:16.962Z</time></trkpt><trkpt lat="44.26124217971491" lon="10.854938068488197"><ele>477.99999999999994</ele><time>2026-05-02T14:09:18.962Z</time></trkpt><trkpt lat="44.26135430133198" lon="10.85500188031887"><ele>478.0</ele><time>2026-05-02T14:09:20.962Z</time></trkpt><trkpt lat="44.26146280192389" lon="10.855058589213641"><ele>478.0</ele><time>2026-05-02T14:09:22.962Z</time></trkpt><trkpt lat="44.261523100132614" lon="10.85509653412019"><ele>475.33333333333337</ele><time>2026-05-02T14:09:23.962Z</time></trkpt><trkpt lat="44.261590225307394" lon="10.855138234616964"><ele>472.6666666666667</ele><time>2026-05-02T14:09:24.962Z</time></trkpt><trkpt lat="44.261657227726175" lon="10.855186495996847"><ele>470.0</ele><time>2026-05-02T14:09:25.962Z</time></trkpt><trkpt lat="44.2617165320381" lon="10.855241041160307"><ele>467.33333333333337</ele><time>2026-05-02T14:09:26.962Z</time></trkpt><trkpt lat="44.26178186881667" lon="10.855310955103457"><ele>464.6666666666667</ele><time>2026-05-02T14:09:27.962Z</time></trkpt><trkpt lat="44.261839319822116" lon="10.85537308986068"><ele>462.0</ele><time>2026-05-02T14:09:28.962Z</time></trkpt><trkpt lat="44.26193078910119" lon="10.855469583276914"><ele>462.0</ele><time>2026-05-02T14:09:30.962Z</time></trkpt><trkpt lat="44.26204185973848" lon="10.855552663173107"><ele>462.00000000000006</ele><time>2026-05-02T14:09:32.962Z</time></trkpt><trkpt lat="44.26210379399054" lon="10.855604827797148"><ele>462.00000000000006</ele><time>2026-05-02T14:09:33.963Z</time></trkpt><trkpt lat="44.26222354010772" lon="10.855651455843764"><ele>462.0</ele><time>2026-05-02T14:09:35.963Z</time></trkpt><trkpt lat="44.26228951462417" lon="10.855639996193746"><ele>462.0</ele><time>2026-05-02T14:09:36.963Z</time></trkpt><trkpt lat="44.262352390713886" lon="10.855661538744792"><ele>460.6666666666667</ele><time>2026-05-02T14:09:37.963Z</time></trkpt><trkpt lat="44.26241600146926" lon="10.855693043966102"><ele>459.33333333333337</ele><time>2026-05-02T14:09:38.963Z</time></trkpt><trkpt lat="44.26251669470538" lon="10.85579645201898"><ele>458.0</ele><time>2026-05-02T14:09:40.963Z</time></trkpt><trkpt lat="44.26256432717735" lon="10.855856259011109"><ele>456.6666666666667</ele><time>2026-05-02T14:09:41.963Z</time></trkpt><trkpt lat="44.2626205918487" lon="10.855923371650015"><ele>455.33333333333337</ele><time>2026-05-02T14:09:42.963Z</time></trkpt><trkpt lat="44.262688315448344" lon="10.855988191438827"><ele>454.0</ele><time>2026-05-02T14:09:43.963Z</time></trkpt><trkpt lat="44.262759749186536" lon="10.856041980287007"><ele>453.5714285714286</ele><time>2026-05-02T14:09:44.963Z</time></trkpt><trkpt lat="44.26283552255946" lon="10.856093851820331"><ele>453.1428571428572</ele><time>2026-05-02T14:09:45.963Z</time></trkpt><trkpt lat="44.262908282043576" lon="10.856146094613049"><ele>452.7142857142857</ele><time>2026-05-02T14:09:46.963Z</time></trkpt><trkpt lat="44.26297580736372" lon="10.856196759655708"><ele>452.28571428571433</ele><time>2026-05-02T14:09:47.963Z</time></trkpt><trkpt lat="44.26303878853352" lon="10.85625096578772"><ele>451.8571428571429</ele><time>2026-05-02T14:09:48.963Z</time></trkpt><trkpt lat="44.263092465794436" lon="10.856309525702107"><ele>451.42857142857144</ele><time>2026-05-02T14:09:49.963Z</time></trkpt><trkpt lat="44.26313139883572" lon="10.856379942723859"><ele>451.0</ele><time>2026-05-02T14:09:50.959Z</time></trkpt><trkpt lat="44.26317385463658" lon="10.856463028197446"><ele>451.00000000000006</ele><time>2026-05-02T14:09:51.959Z</time></trkpt><trkpt lat="44.263207826321185" lon="10.856550874044993"><ele>451.0</ele><time>2026-05-02T14:09:52.959Z</time></trkpt><trkpt lat="44.26324366701344" lon="10.856639680972219"><ele>451.0</ele><time>2026-05-02T14:09:53.96Z</time></trkpt><trkpt lat="44.26327635248251" lon="10.856730627019907"><ele>451.0</ele><time>2026-05-02T14:09:54.96Z</time></trkpt><trkpt lat="44.26331063598299" lon="10.856826949910875"><ele>451.00000000000006</ele><time>2026-05-02T14:09:55.96Z</time></trkpt><trkpt lat="44.263345745763715" lon="10.856926320727949"><ele>451.0</ele><time>2026-05-02T14:09:56.96Z</time></trkpt><trkpt lat="44.263380387249065" lon="10.85702500589799"><ele>450.50000000000006</ele><time>2026-05-02T14:09:57.959Z</time></trkpt><trkpt lat="44.26340756287152" lon="10.857124704571522"><ele>450.0</ele><time>2026-05-02T14:09:58.959Z</time></trkpt><trkpt lat="44.263435354385614" lon="10.857225690032898"><ele>449.5</ele><time>2026-05-02T14:09:59.959Z</time></trkpt><trkpt lat="44.263453866547" lon="10.85733179337232"><ele>449.0</ele><time>2026-05-02T14:10:00.959Z</time></trkpt><trkpt lat="44.26346603971293" lon="10.857436211080122"><ele>448.50000000000006</ele><time>2026-05-02T14:10:01.959Z</time></trkpt><trkpt lat="44.26347748597045" lon="10.85753965798439"><ele>448.0</ele><time>2026-05-02T14:10:02.959Z</time></trkpt><trkpt lat="44.26349279589073" lon="10.857641200120566"><ele>446.6666666666667</ele><time>2026-05-02T14:10:03.959Z</time></trkpt><trkpt lat="44.263507113638525" lon="10.857745225787445"><ele>445.33333333333337</ele><time>2026-05-02T14:10:04.959Z</time></trkpt><trkpt lat="44.26351657538127" lon="10.857857880840708"><ele>444.0</ele><time>2026-05-02T14:10:05.959Z</time></trkpt><trkpt lat="44.26351896953751" lon="10.857961418847605"><ele>442.66666666666663</ele><time>2026-05-02T14:10:06.959Z</time></trkpt><trkpt lat="44.26352256247619" lon="10.858072924772696"><ele>441.3333333333333</ele><time>2026-05-02T14:10:07.959Z</time></trkpt><trkpt lat="44.263532555759014" lon="10.858178094666465"><ele>440.0</ele><time>2026-05-02T14:10:08.959Z</time></trkpt><trkpt lat="44.26354523542092" lon="10.858265067414829"><ele>439.99999999999994</ele><time>2026-05-02T14:10:09.959Z</time></trkpt><trkpt lat="44.26356078007784" lon="10.858387830528834"><ele>440.0</ele><time>2026-05-02T14:10:11.959Z</time></trkpt><trkpt lat="44.26355118999688" lon="10.85848510113157"><ele>440.0</ele><time>2026-05-02T14:10:13.96Z</time></trkpt><trkpt lat="44.26348511542879" lon="10.85848388683793"><ele>440.0</ele><time>2026-05-02T14:10:15.96Z</time></trkpt><trkpt lat="44.26341901696484" lon="10.858391088975054"><ele>439.99999999999994</ele><time>2026-05-02T14:10:17.96Z</time></trkpt><trkpt lat="44.26337175028389" lon="10.85833021765042"><ele>440.0</ele><time>2026-05-02T14:10:18.96Z</time></trkpt><trkpt lat="44.263319470347" lon="10.858269204186685"><ele>439.99999999999994</ele><time>2026-05-02T14:10:19.96Z</time></trkpt><trkpt lat="44.26326165153623" lon="10.858206658864642"><ele>440.0</ele><time>2026-05-02T14:10:20.96Z</time></trkpt><trkpt lat="44.26319710661308" lon="10.858140591758268"><ele>440.0</ele><time>2026-05-02T14:10:21.96Z</time></trkpt><trkpt lat="44.26313184405988" lon="10.858088455607424"><ele>440.0</ele><time>2026-05-02T14:10:22.96Z</time></trkpt><trkpt lat="44.263071934640735" lon="10.85805129417065"><ele>440.0</ele><time>2026-05-02T14:10:23.96Z</time></trkpt><trkpt lat="44.262998964683995" lon="10.858028505004103"><ele>439.99999999999994</ele><time>2026-05-02T14:10:24.96Z</time></trkpt><trkpt lat="44.26292398260305" lon="10.858043097615443"><ele>440.0</ele><time>2026-05-02T14:10:25.96Z</time></trkpt><trkpt lat="44.26280143237504" lon="10.858117949795684"><ele>437.49999999999994</ele><time>2026-05-02T14:10:27.96Z</time></trkpt><trkpt lat="44.262737173433266" lon="10.858185782188565"><ele>435.0</ele><time>2026-05-02T14:10:28.96Z</time></trkpt><trkpt lat="44.262691568919756" lon="10.858266656829617"><ele>432.5</ele><time>2026-05-02T14:10:29.96Z</time></trkpt><trkpt lat="44.26266154806006" lon="10.858358761924823"><ele>430.0</ele><time>2026-05-02T14:10:30.96Z</time></trkpt><trkpt lat="44.26265080966229" lon="10.858457413438828"><ele>427.49999999999994</ele><time>2026-05-02T14:10:31.96Z</time></trkpt><trkpt lat="44.26265216141191" lon="10.858569563811967"><ele>425.0</ele><time>2026-05-02T14:10:32.96Z</time></trkpt><trkpt lat="44.26265736083798" lon="10.85868247322358"><ele>423.3333333333333</ele><time>2026-05-02T14:10:33.96Z</time></trkpt><trkpt lat="44.26266523185021" lon="10.85877562280034"><ele>421.66666666666663</ele><time>2026-05-02T14:10:34.96Z</time></trkpt><trkpt lat="44.26268013775606" lon="10.858906618893489"><ele>420.0</ele><time>2026-05-02T14:10:36.96Z</time></trkpt><trkpt lat="44.26270696175076" lon="10.859058470337285"><ele>418.33333333333337</ele><time>2026-05-02T14:10:38.96Z</time></trkpt><trkpt lat="44.26273208821535" lon="10.859140811456584"><ele>416.6666666666667</ele><time>2026-05-02T14:10:39.96Z</time></trkpt><trkpt lat="44.2627698166094" lon="10.859236695910603"><ele>415.0</ele><time>2026-05-02T14:10:40.96Z</time></trkpt><trkpt lat="44.26281142009997" lon="10.85933087689429"><ele>412.50000000000006</ele><time>2026-05-02T14:10:41.96Z</time></trkpt><trkpt lat="44.26285811024235" lon="10.859423842206555"><ele>410.0</ele><time>2026-05-02T14:10:42.96Z</time></trkpt><trkpt lat="44.26289782856642" lon="10.85950069793554"><ele>407.5</ele><time>2026-05-02T14:10:43.96Z</time></trkpt><trkpt lat="44.262969514490095" lon="10.859599135567544"><ele>405.0</ele><time>2026-05-02T14:10:45.96Z</time></trkpt><trkpt lat="44.26302981391873" lon="10.859702596756982"><ele>402.50000000000006</ele><time>2026-05-02T14:10:47.96Z</time></trkpt><trkpt lat="44.26305174259058" lon="10.859801629036962"><ele>400.0</ele><time>2026-05-02T14:10:49.96Z</time></trkpt><trkpt lat="44.263041194805986" lon="10.859897653477404"><ele>400.00000000000006</ele><time>2026-05-02T14:10:51.96Z</time></trkpt><trkpt lat="44.26295863389324" lon="10.859904830666254"><ele>400.0</ele><time>2026-05-02T14:10:53.96Z</time></trkpt><trkpt lat="44.26286653377627" lon="10.859894552965597"><ele>400.0</ele><time>2026-05-02T14:10:55.96Z</time></trkpt><trkpt lat="44.26278092008543" lon="10.859910114791797"><ele>400.0</ele><time>2026-05-02T14:10:57.96Z</time></trkpt><trkpt lat="44.26271201416501" lon="10.859966828265582"><ele>400.00000000000006</ele><time>2026-05-02T14:10:59.961Z</time></trkpt><trkpt lat="44.262690548148605" lon="10.86008823544973"><ele>400.0</ele><time>2026-05-02T14:11:01.961Z</time></trkpt><trkpt lat="44.26273112743538" lon="10.860231489949877"><ele>397.6</ele><time>2026-05-02T14:11:03.961Z</time></trkpt><trkpt lat="44.2627877593523" lon="10.860368304083954"><ele>395.2</ele><time>2026-05-02T14:11:05.961Z</time></trkpt><trkpt lat="44.26282709626151" lon="10.86046333605692"><ele>392.79999999999995</ele><time>2026-05-02T14:11:06.961Z</time></trkpt><trkpt lat="44.26288558566926" lon="10.86060385060698"><ele>390.4</ele><time>2026-05-02T14:11:08.961Z</time></trkpt><trkpt lat="44.262940158574324" lon="10.860721178911257"><ele>388.0</ele><time>2026-05-02T14:11:10.961Z</time></trkpt><trkpt lat="44.26302956002312" lon="10.860857250468278"><ele>389.4</ele><time>2026-05-02T14:11:12.961Z</time></trkpt><trkpt lat="44.26313351458107" lon="10.860948167221"><ele>390.79999999999995</ele><time>2026-05-02T14:11:14.961Z</time></trkpt><trkpt lat="44.26321737934915" lon="10.861034712094597"><ele>392.2</ele><time>2026-05-02T14:11:16.961Z</time></trkpt><trkpt lat="44.263263618769095" lon="10.86113211462245"><ele>393.6</ele><time>2026-05-02T14:11:18.961Z</time></trkpt><trkpt lat="44.26326270230997" lon="10.861244721230738"><ele>395.0</ele><time>2026-05-02T14:11:20.961Z</time></trkpt><trkpt lat="44.26318923838584" lon="10.861231422250924"><ele>390.6</ele><time>2026-05-02T14:11:23.961Z</time></trkpt><trkpt lat="44.26313239179139" lon="10.861163908387436"><ele>386.2</ele><time>2026-05-02T14:11:25.961Z</time></trkpt><trkpt lat="44.26302888995311" lon="10.86111439896932"><ele>381.79999999999995</ele><time>2026-05-02T14:11:27.961Z</time></trkpt><trkpt lat="44.26290980781731" lon="10.861046032904516"><ele>377.4</ele><time>2026-05-02T14:11:29.961Z</time></trkpt><trkpt lat="44.262809388028934" lon="10.860982368783825"><ele>373.0</ele><time>2026-05-02T14:11:31.961Z</time></trkpt><trkpt lat="44.262732078910076" lon="10.860986870602726"><ele>373.0</ele><time>2026-05-02T14:11:33.961Z</time></trkpt><trkpt lat="44.262628513322184" lon="10.86099688831633"><ele>373.0</ele><time>2026-05-02T14:11:35.961Z</time></trkpt><trkpt lat="44.26259545981676" lon="10.86108825892178"><ele>373.0</ele><time>2026-05-02T14:11:36.961Z</time></trkpt><trkpt lat="44.262723877581465" lon="10.861199649765489"><ele>373.0</ele><time>2026-05-02T14:11:37.961Z</time></trkpt><trkpt lat="44.26281757615702" lon="10.861233729818322"><ele>373.0</ele><time>2026-05-02T14:11:39.961Z</time></trkpt><trkpt lat="44.26290966785817" lon="10.861288423365735"><ele>373.0</ele><time>2026-05-02T14:11:41.961Z</time></trkpt><trkpt lat="44.262967217135916" lon="10.86134120042762"><ele>373.0</ele><time>2026-05-02T14:11:43.962Z</time></trkpt><trkpt lat="44.2630164807983" lon="10.861411538628808"><ele>373.0</ele><time>2026-05-02T14:11:45.962Z</time></trkpt><trkpt lat="44.2630894392469" lon="10.861530392759503"><ele>373.0</ele><time>2026-05-02T14:11:47.962Z</time></trkpt><trkpt lat="44.26317750776708" lon="10.861658119739321"><ele>373.0</ele><time>2026-05-02T14:11:49.962Z</time></trkpt><trkpt lat="44.263239966808655" lon="10.861695029146526"><ele>373.0</ele><time>2026-05-02T14:11:50.962Z</time></trkpt><trkpt lat="44.26330840778494" lon="10.861718544941219"><ele>372.8333333333333</ele><time>2026-05-02T14:11:51.962Z</time></trkpt><trkpt lat="44.263380347606905" lon="10.861742163474274"><ele>372.66666666666663</ele><time>2026-05-02T14:11:52.962Z</time></trkpt><trkpt lat="44.26346899447019" lon="10.861759220349478"><ele>372.5</ele><time>2026-05-02T14:11:53.962Z</time></trkpt><trkpt lat="44.26353853587963" lon="10.861802900269867"><ele>372.3333333333333</ele><time>2026-05-02T14:11:54.962Z</time></trkpt><trkpt lat="44.2636066129363" lon="10.86182366792114"><ele>372.1666666666667</ele><time>2026-05-02T14:11:55.962Z</time></trkpt><trkpt lat="44.26367571756206" lon="10.861830363935688"><ele>372.0</ele><time>2026-05-02T14:11:56.959Z</time></trkpt><trkpt lat="44.26374635994354" lon="10.861858060943364"><ele>368.6666666666667</ele><time>2026-05-02T14:11:57.958Z</time></trkpt><trkpt lat="44.263819637879934" lon="10.861860685663967"><ele>365.3333333333333</ele><time>2026-05-02T14:11:58.958Z</time></trkpt><trkpt lat="44.263907806322145" lon="10.861850245445604"><ele>362.0</ele><time>2026-05-02T14:11:59.959Z</time></trkpt><trkpt lat="44.26398101193808" lon="10.861835683128696"><ele>358.66666666666663</ele><time>2026-05-02T14:12:00.958Z</time></trkpt><trkpt lat="44.264044172805896" lon="10.861821673209809"><ele>355.3333333333333</ele><time>2026-05-02T14:12:01.958Z</time></trkpt><trkpt lat="44.26415274707728" lon="10.861800553911541"><ele>352.0</ele><time>2026-05-02T14:12:03.958Z</time></trkpt><trkpt lat="44.264217031851494" lon="10.861811901113464"><ele>351.20000000000005</ele><time>2026-05-02T14:12:04.958Z</time></trkpt><trkpt lat="44.26430175830733" lon="10.861819201438067"><ele>350.4</ele><time>2026-05-02T14:12:05.958Z</time></trkpt><trkpt lat="44.264365873674805" lon="10.861867073375747"><ele>349.6</ele><time>2026-05-02T14:12:07.958Z</time></trkpt><trkpt lat="44.26442021516084" lon="10.861912843198763"><ele>348.79999999999995</ele><time>2026-05-02T14:12:11.958Z</time></trkpt><trkpt lat="44.264494941130174" lon="10.861913269386148"><ele>348.0</ele><time>2026-05-02T14:12:15.958Z</time></trkpt><trkpt lat="44.26539964692837" lon="10.862323812569421"><ele>347.3333333333333</ele><time>2026-05-02T14:14:18.116Z</time></trkpt><trkpt lat="44.26550544182625" lon="10.86230961357838"><ele>346.6666666666667</ele><time>2026-05-02T14:14:19.065Z</time></trkpt><trkpt lat="44.26558834246499" lon="10.862304566273071"><ele>346.0</ele><time>2026-05-02T14:14:20.015Z</time></trkpt><trkpt lat="44.265665686257755" lon="10.862323905323686"><ele>345.33333333333337</ele><time>2026-05-02T14:14:20.965Z</time></trkpt><trkpt lat="44.26572600304256" lon="10.862381606331898"><ele>344.6666666666667</ele><time>2026-05-02T14:14:21.957Z</time></trkpt><trkpt lat="44.26578187133687" lon="10.862432475863718"><ele>344.0</ele><time>2026-05-02T14:14:22.958Z</time></trkpt><trkpt lat="44.265807028956665" lon="10.862519491988493"><ele>342.6</ele><time>2026-05-02T14:14:23.958Z</time></trkpt><trkpt lat="44.26582838495434" lon="10.862606984523337"><ele>341.2</ele><time>2026-05-02T14:14:27.958Z</time></trkpt><trkpt lat="44.26590594336034" lon="10.862592416046116"><ele>339.8</ele><time>2026-05-02T14:14:31.958Z</time></trkpt><trkpt lat="44.26599161167722" lon="10.862519365859947"><ele>338.40000000000003</ele><time>2026-05-02T14:14:33.958Z</time></trkpt><trkpt lat="44.266067704244655" lon="10.86244928007271"><ele>337.0</ele><time>2026-05-02T14:14:35.958Z</time></trkpt><trkpt lat="44.26615754026387" lon="10.862329826100694"><ele>337.0</ele><time>2026-05-02T14:14:37.958Z</time></trkpt><trkpt lat="44.26622501032272" lon="10.862301570240488"><ele>337.0</ele><time>2026-05-02T14:14:38.958Z</time></trkpt><trkpt lat="44.266283467910206" lon="10.862235909723136"><ele>337.0</ele><time>2026-05-02T14:14:39.958Z</time></trkpt><trkpt lat="44.266336109787076" lon="10.862187442004148"><ele>337.0</ele><time>2026-05-02T14:14:40.958Z</time></trkpt><trkpt lat="44.266434433262916" lon="10.862059352072407"><ele>337.0</ele><time>2026-05-02T14:14:42.958Z</time></trkpt><trkpt lat="44.26654251032321" lon="10.861976050720322"><ele>337.20000000000005</ele><time>2026-05-02T14:14:44.958Z</time></trkpt><trkpt lat="44.2666466231815" lon="10.861902089503854"><ele>337.4</ele><time>2026-05-02T14:14:46.958Z</time></trkpt><trkpt lat="44.26670543791823" lon="10.861859283715582"><ele>337.6</ele><time>2026-05-02T14:14:47.958Z</time></trkpt><trkpt lat="44.26682086350726" lon="10.861793178326849"><ele>337.79999999999995</ele><time>2026-05-02T14:14:49.958Z</time></trkpt><trkpt lat="44.26688525058476" lon="10.861760672236741"><ele>338.0</ele><time>2026-05-02T14:14:50.958Z</time></trkpt><trkpt lat="44.266983074253666" lon="10.861707884545515"><ele>338.0</ele><time>2026-05-02T14:14:52.958Z</time></trkpt><trkpt lat="44.267077052752704" lon="10.861664686091386"><ele>338.0</ele><time>2026-05-02T14:14:54.958Z</time></trkpt><trkpt lat="44.26715371091792" lon="10.861617765518917"><ele>338.0</ele><time>2026-05-02T14:14:56.958Z</time></trkpt><trkpt lat="44.26723468388229" lon="10.861575604177757"><ele>338.0</ele><time>2026-05-02T14:14:58.958Z</time></trkpt><trkpt lat="44.26734906971524" lon="10.861520489983375"><ele>338.0</ele><time>2026-05-02T14:15:00.959Z</time></trkpt><trkpt lat="44.26747809251414" lon="10.861461866356194"><ele>335.0</ele><time>2026-05-02T14:15:02.959Z</time></trkpt><trkpt lat="44.26754911076685" lon="10.861425960930333"><ele>332.0</ele><time>2026-05-02T14:15:03.959Z</time></trkpt><trkpt lat="44.267618364775316" lon="10.861382508256819"><ele>329.0</ele><time>2026-05-02T14:15:04.959Z</time></trkpt><trkpt lat="44.267685126702574" lon="10.86134391718461"><ele>326.0</ele><time>2026-05-02T14:15:05.959Z</time></trkpt><trkpt lat="44.26775727908719" lon="10.86130702069945"><ele>323.0</ele><time>2026-05-02T14:15:06.959Z</time></trkpt><trkpt lat="44.26783074168988" lon="10.861265450454283"><ele>320.0</ele><time>2026-05-02T14:15:07.959Z</time></trkpt><trkpt lat="44.267905557049545" lon="10.861227031740924"><ele>320.0</ele><time>2026-05-02T14:15:08.959Z</time></trkpt><trkpt lat="44.26799245978537" lon="10.861183570998755"><ele>320.0</ele><time>2026-05-02T14:15:09.959Z</time></trkpt><trkpt lat="44.268079941638135" lon="10.861138279605022"><ele>320.0</ele><time>2026-05-02T14:15:10.959Z</time></trkpt><trkpt lat="44.268148895717424" lon="10.861099174362995"><ele>320.0</ele><time>2026-05-02T14:15:11.959Z</time></trkpt><trkpt lat="44.26822842831189" lon="10.861060442194402"><ele>320.0</ele><time>2026-05-02T14:15:12.959Z</time></trkpt><trkpt lat="44.26830934064397" lon="10.861016522937994"><ele>320.0</ele><time>2026-05-02T14:15:13.959Z</time></trkpt><trkpt lat="44.26839010445333" lon="10.860977790670052"><ele>320.83333333333337</ele><time>2026-05-02T14:15:14.959Z</time></trkpt><trkpt lat="44.26846022026025" lon="10.860935125955672"><ele>321.6666666666667</ele><time>2026-05-02T14:15:15.959Z</time></trkpt><trkpt lat="44.26852728755794" lon="10.860892227513844"><ele>322.5</ele><time>2026-05-02T14:15:16.959Z</time></trkpt><trkpt lat="44.268597063232534" lon="10.860856233599957"><ele>323.3333333333333</ele><time>2026-05-02T14:15:17.959Z</time></trkpt><trkpt lat="44.2686620776005" lon="10.860826194102737"><ele>324.16666666666663</ele><time>2026-05-02T14:15:18.959Z</time></trkpt><trkpt lat="44.26874003387024" lon="10.860794954681854"><ele>325.0</ele><time>2026-05-02T14:15:19.959Z</time></trkpt><trkpt lat="44.26882391719316" lon="10.86077314859776"><ele>325.0</ele><time>2026-05-02T14:15:20.959Z</time></trkpt><trkpt lat="44.268895031578076" lon="10.860782777627431"><ele>325.0</ele><time>2026-05-02T14:15:21.959Z</time></trkpt><trkpt lat="44.269017405607734" lon="10.860840807410595"><ele>325.0</ele><time>2026-05-02T14:15:23.959Z</time></trkpt><trkpt lat="44.26909599990824" lon="10.86087589165191"><ele>325.0</ele><time>2026-05-02T14:15:24.959Z</time></trkpt><trkpt lat="44.2691575389735" lon="10.860925825263152"><ele>325.0</ele><time>2026-05-02T14:15:25.959Z</time></trkpt><trkpt lat="44.26925838736439" lon="10.861060015500879"><ele>325.16666666666663</ele><time>2026-05-02T14:15:27.959Z</time></trkpt><trkpt lat="44.269295876881316" lon="10.861137994340037"><ele>325.3333333333333</ele><time>2026-05-02T14:15:28.959Z</time></trkpt><trkpt lat="44.26934401266003" lon="10.861220903588565"><ele>325.5</ele><time>2026-05-02T14:15:29.959Z</time></trkpt><trkpt lat="44.26938842505835" lon="10.861294209438478"><ele>325.6666666666667</ele><time>2026-05-02T14:15:30.959Z</time></trkpt><trkpt lat="44.26943282675533" lon="10.861365046596386"><ele>325.83333333333337</ele><time>2026-05-02T14:15:31.959Z</time></trkpt><trkpt lat="44.269482675699734" lon="10.86144877067885"><ele>326.0</ele><time>2026-05-02T14:15:32.959Z</time></trkpt><trkpt lat="44.26955999767735" lon="10.86158145784255"><ele>326.0</ele><time>2026-05-02T14:15:34.959Z</time></trkpt><trkpt lat="44.26961261486431" lon="10.86166249484247"><ele>326.0</ele><time>2026-05-02T14:15:35.959Z</time></trkpt><trkpt lat="44.269657333162854" lon="10.861735684783804"><ele>326.0</ele><time>2026-05-02T14:15:36.959Z</time></trkpt><trkpt lat="44.2696935094756" lon="10.861815810032658"><ele>326.0</ele><time>2026-05-02T14:15:37.959Z</time></trkpt><trkpt lat="44.269739545221064" lon="10.861886928769742"><ele>326.0</ele><time>2026-05-02T14:15:38.959Z</time></trkpt><trkpt lat="44.2697853514102" lon="10.86195155637545"><ele>326.0</ele><time>2026-05-02T14:15:39.959Z</time></trkpt><trkpt lat="44.26982809343104" lon="10.86203250247264"><ele>326.0</ele><time>2026-05-02T14:15:40.959Z</time></trkpt><trkpt lat="44.26990509365285" lon="10.862184406077763"><ele>326.33333333333337</ele><time>2026-05-02T14:15:42.959Z</time></trkpt><trkpt lat="44.26994278840379" lon="10.862265613821583"><ele>326.6666666666667</ele><time>2026-05-02T14:15:43.96Z</time></trkpt><trkpt lat="44.269981740709596" lon="10.862347417218267"><ele>327.0</ele><time>2026-05-02T14:15:44.96Z</time></trkpt><trkpt lat="44.270011234198925" lon="10.86242628927727"><ele>327.3333333333333</ele><time>2026-05-02T14:15:45.96Z</time></trkpt><trkpt lat="44.27006360757866" lon="10.862594058883502"><ele>327.66666666666663</ele><time>2026-05-02T14:15:47.96Z</time></trkpt><trkpt lat="44.270092673985374" lon="10.862683241017002"><ele>328.0</ele><time>2026-05-02T14:15:48.96Z</time></trkpt><trkpt lat="44.270107877365376" lon="10.86277959871788"><ele>328.0</ele><time>2026-05-02T14:15:49.96Z</time></trkpt><trkpt lat="44.27012171891237" lon="10.86287969846273"><ele>328.0</ele><time>2026-05-02T14:15:50.96Z</time></trkpt><trkpt lat="44.27013597974151" lon="10.862980536943454"><ele>328.0</ele><time>2026-05-02T14:15:51.96Z</time></trkpt><trkpt lat="44.27014270510516" lon="10.863077633404849"><ele>328.0</ele><time>2026-05-02T14:15:52.96Z</time></trkpt><trkpt lat="44.27014889981755" lon="10.863173936078311"><ele>328.0</ele><time>2026-05-02T14:15:53.96Z</time></trkpt><trkpt lat="44.270156671327754" lon="10.863274731382855"><ele>328.0</ele><time>2026-05-02T14:15:54.96Z</time></trkpt><trkpt lat="44.270157408558966" lon="10.863443465657012"><ele>327.8333333333333</ele><time>2026-05-02T14:15:56.96Z</time></trkpt><trkpt lat="44.27015496712311" lon="10.863532780337788"><ele>327.66666666666663</ele><time>2026-05-02T14:15:57.96Z</time></trkpt><trkpt lat="44.27016991731186" lon="10.86365748862874"><ele>327.5</ele><time>2026-05-02T14:15:59.96Z</time></trkpt><trkpt lat="44.27019412312713" lon="10.86376099004733"><ele>327.3333333333333</ele><time>2026-05-02T14:16:01.96Z</time></trkpt><trkpt lat="44.27022765516575" lon="10.86386680767277"><ele>327.1666666666667</ele><time>2026-05-02T14:16:03.96Z</time></trkpt><trkpt lat="44.27024542541761" lon="10.863974815388126"><ele>327.0</ele><time>2026-05-02T14:16:05.96Z</time></trkpt><trkpt lat="44.27027934109718" lon="10.864100375803066"><ele>327.0</ele><time>2026-05-02T14:16:07.96Z</time></trkpt><trkpt lat="44.27028557335414" lon="10.864271532215646"><ele>327.0</ele><time>2026-05-02T14:16:09.96Z</time></trkpt><trkpt lat="44.27031975304246" lon="10.864380789284612"><ele>327.0</ele><time>2026-05-02T14:16:11.96Z</time></trkpt><trkpt lat="44.270338522530906" lon="10.864519336365563"><ele>327.0</ele><time>2026-05-02T14:16:13.96Z</time></trkpt><trkpt lat="44.27038783396101" lon="10.864683103991005"><ele>327.0</ele><time>2026-05-02T14:16:15.96Z</time></trkpt><trkpt lat="44.27041507534718" lon="10.86479255043396"><ele>326.42857142857144</ele><time>2026-05-02T14:16:16.96Z</time></trkpt><trkpt lat="44.270444253453334" lon="10.864895321486477"><ele>325.8571428571429</ele><time>2026-05-02T14:16:17.96Z</time></trkpt><trkpt lat="44.27046993558451" lon="10.864989374781503"><ele>325.28571428571433</ele><time>2026-05-02T14:16:18.96Z</time></trkpt><trkpt lat="44.270493264517455" lon="10.865074417941198"><ele>324.7142857142857</ele><time>2026-05-02T14:16:19.96Z</time></trkpt><trkpt lat="44.27052275710671" lon="10.865159160693441"><ele>324.14285714285717</ele><time>2026-05-02T14:16:20.96Z</time></trkpt><trkpt lat="44.27055427956021" lon="10.865255153638095"><ele>323.5714285714286</ele><time>2026-05-02T14:16:21.956Z</time></trkpt><trkpt lat="44.27058228008778" lon="10.865358867226279"><ele>323.0</ele><time>2026-05-02T14:16:22.956Z</time></trkpt><trkpt lat="44.270613944784884" lon="10.86546202623734"><ele>322.6666666666667</ele><time>2026-05-02T14:16:23.956Z</time></trkpt><trkpt lat="44.27064025454225" lon="10.865555889919962"><ele>322.33333333333337</ele><time>2026-05-02T14:16:24.957Z</time></trkpt><trkpt lat="44.27067672978206" lon="10.865651331579379"><ele>322.0</ele><time>2026-05-02T14:16:25.956Z</time></trkpt><trkpt lat="44.27069260635328" lon="10.865759694768093"><ele>321.6666666666667</ele><time>2026-05-02T14:16:26.956Z</time></trkpt><trkpt lat="44.27073468607405" lon="10.86585443053724"><ele>321.3333333333333</ele><time>2026-05-02T14:16:27.957Z</time></trkpt><trkpt lat="44.27078438585818" lon="10.865938389816886"><ele>321.0</ele><time>2026-05-02T14:16:28.956Z</time></trkpt><trkpt lat="44.27083854492608" lon="10.86602209649184"><ele>321.0</ele><time>2026-05-02T14:16:29.956Z</time></trkpt><trkpt lat="44.27089534778204" lon="10.866097888342312"><ele>321.0</ele><time>2026-05-02T14:16:30.956Z</time></trkpt><trkpt lat="44.27096364345941" lon="10.866169928833434"><ele>321.0</ele><time>2026-05-02T14:16:31.956Z</time></trkpt><trkpt lat="44.27103390438643" lon="10.866230199358013"><ele>321.0</ele><time>2026-05-02T14:16:32.956Z</time></trkpt><trkpt lat="44.2711078630311" lon="10.866291301330945"><ele>321.0</ele><time>2026-05-02T14:16:33.956Z</time></trkpt><trkpt lat="44.27118171285372" lon="10.866348093757123"><ele>321.0</ele><time>2026-05-02T14:16:34.957Z</time></trkpt><trkpt lat="44.27125809331129" lon="10.866413592004715"><ele>321.0</ele><time>2026-05-02T14:16:35.957Z</time></trkpt><trkpt lat="44.27133526266456" lon="10.866473171340328"><ele>321.0</ele><time>2026-05-02T14:16:36.957Z</time></trkpt><trkpt lat="44.27140638242574" lon="10.866528557973929"><ele>321.0</ele><time>2026-05-02T14:16:37.957Z</time></trkpt><trkpt lat="44.271481882671665" lon="10.866588490599678"><ele>321.0</ele><time>2026-05-02T14:16:38.957Z</time></trkpt><trkpt lat="44.27155856131199" lon="10.866651031772783"><ele>321.0</ele><time>2026-05-02T14:16:39.957Z</time></trkpt><trkpt lat="44.271636706632485" lon="10.866715744701787"><ele>321.0</ele><time>2026-05-02T14:16:40.957Z</time></trkpt><trkpt lat="44.2717094674407" lon="10.866776251354134"><ele>321.0</ele><time>2026-05-02T14:16:41.957Z</time></trkpt><trkpt lat="44.27177616300369" lon="10.866846673132395"><ele>321.0</ele><time>2026-05-02T14:16:42.957Z</time></trkpt><trkpt lat="44.27184321244986" lon="10.866916411310159"><ele>321.0</ele><time>2026-05-02T14:16:43.957Z</time></trkpt><trkpt lat="44.271906796377046" lon="10.866992163892059"><ele>321.0</ele><time>2026-05-02T14:16:44.957Z</time></trkpt><trkpt lat="44.271966112805174" lon="10.867074893406196"><ele>321.0</ele><time>2026-05-02T14:16:45.957Z</time></trkpt><trkpt lat="44.27202654795566" lon="10.867158191233424"><ele>321.0</ele><time>2026-05-02T14:16:46.957Z</time></trkpt><trkpt lat="44.27208506735512" lon="10.867241824078063"><ele>321.0</ele><time>2026-05-02T14:16:47.957Z</time></trkpt><trkpt lat="44.27213885251226" lon="10.867325801460549"><ele>321.0</ele><time>2026-05-02T14:16:48.957Z</time></trkpt><trkpt lat="44.272186003774316" lon="10.867422709872951"><ele>321.0</ele><time>2026-05-02T14:16:49.957Z</time></trkpt><trkpt lat="44.272238535392226" lon="10.867506873891923"><ele>321.0</ele><time>2026-05-02T14:16:50.957Z</time></trkpt><trkpt lat="44.27228841050197" lon="10.867593203482915"><ele>321.0</ele><time>2026-05-02T14:16:51.957Z</time></trkpt><trkpt lat="44.27233613640959" lon="10.867672568887452"><ele>321.0</ele><time>2026-05-02T14:16:52.957Z</time></trkpt><trkpt lat="44.27238723108346" lon="10.867751736912608"><ele>321.0</ele><time>2026-05-02T14:16:53.957Z</time></trkpt><trkpt lat="44.27244119321494" lon="10.867834472138105"><ele>321.0</ele><time>2026-05-02T14:16:54.957Z</time></trkpt><trkpt lat="44.27249905040466" lon="10.867914611523572"><ele>321.0</ele><time>2026-05-02T14:16:55.957Z</time></trkpt><trkpt lat="44.272553815007974" lon="10.867987445842614"><ele>321.0</ele><time>2026-05-02T14:16:56.957Z</time></trkpt><trkpt lat="44.272612026846936" lon="10.868062943422718"><ele>321.0</ele><time>2026-05-02T14:16:57.957Z</time></trkpt><trkpt lat="44.27267025534182" lon="10.868124590295825"><ele>321.0</ele><time>2026-05-02T14:16:58.957Z</time></trkpt><trkpt lat="44.27272587008091" lon="10.868187045322696"><ele>321.0</ele><time>2026-05-02T14:16:59.957Z</time></trkpt><trkpt lat="44.27277954493246" lon="10.868249763777532"><ele>321.0</ele><time>2026-05-02T14:17:00.957Z</time></trkpt><trkpt lat="44.27284128021986" lon="10.868309665502153"><ele>321.0</ele><time>2026-05-02T14:17:01.957Z</time></trkpt><trkpt lat="44.27289728018579" lon="10.868370712390956"><ele>321.0</ele><time>2026-05-02T14:17:02.957Z</time></trkpt><trkpt lat="44.27295090660564" lon="10.86842906454899"><ele>321.0</ele><time>2026-05-02T14:17:03.957Z</time></trkpt><trkpt lat="44.273055295993096" lon="10.86851596220292"><ele>321.0</ele><time>2026-05-02T14:17:05.957Z</time></trkpt><trkpt lat="44.273109732224434" lon="10.868560518253448"><ele>320.6</ele><time>2026-05-02T14:17:06.957Z</time></trkpt><trkpt lat="44.27320910439122" lon="10.868624140991658"><ele>320.20000000000005</ele><time>2026-05-02T14:17:08.957Z</time></trkpt><trkpt lat="44.273310255980704" lon="10.86868424711471"><ele>319.79999999999995</ele><time>2026-05-02T14:17:10.957Z</time></trkpt><trkpt lat="44.27337097774477" lon="10.868716291660844"><ele>319.4</ele><time>2026-05-02T14:17:11.957Z</time></trkpt><trkpt lat="44.27348401875472" lon="10.86878353977395"><ele>319.0</ele><time>2026-05-02T14:17:13.958Z</time></trkpt><trkpt lat="44.27358357466348" lon="10.86884472568291"><ele>319.0</ele><time>2026-05-02T14:17:15.958Z</time></trkpt><trkpt lat="44.27365795284766" lon="10.868892066639972"><ele>319.0</ele><time>2026-05-02T14:17:17.958Z</time></trkpt><trkpt lat="44.27373800390052" lon="10.868938139531274"><ele>319.0</ele><time>2026-05-02T14:17:19.958Z</time></trkpt><trkpt lat="44.2738369337949" lon="10.868988553471551"><ele>319.0</ele><time>2026-05-02T14:17:21.958Z</time></trkpt><trkpt lat="44.27389551442144" lon="10.869020749986753"><ele>319.0</ele><time>2026-05-02T14:17:22.958Z</time></trkpt><trkpt lat="44.27402103689009" lon="10.869084576605418"><ele>319.5</ele><time>2026-05-02T14:17:24.958Z</time></trkpt><trkpt lat="44.27408652020752" lon="10.869116794049086"><ele>320.0</ele><time>2026-05-02T14:17:25.958Z</time></trkpt><trkpt lat="44.274150050525215" lon="10.869145974371023"><ele>320.5</ele><time>2026-05-02T14:17:26.958Z</time></trkpt><trkpt lat="44.27421481413806" lon="10.869174909328654"><ele>321.0</ele><time>2026-05-02T14:17:27.958Z</time></trkpt><trkpt lat="44.274279799711266" lon="10.86920210076084"><ele>321.5</ele><time>2026-05-02T14:17:28.958Z</time></trkpt><trkpt lat="44.27434993287167" lon="10.869226328300307"><ele>322.0</ele><time>2026-05-02T14:17:29.958Z</time></trkpt><trkpt lat="44.27447299457513" lon="10.86926714788198"><ele>320.8333333333333</ele><time>2026-05-02T14:17:31.958Z</time></trkpt><trkpt lat="44.274540078399795" lon="10.869280345356456"><ele>319.66666666666663</ele><time>2026-05-02T14:17:32.958Z</time></trkpt><trkpt lat="44.27465310106901" lon="10.86932604085279"><ele>318.5</ele><time>2026-05-02T14:17:34.958Z</time></trkpt><trkpt lat="44.27471629923078" lon="10.869343104729277"><ele>317.3333333333333</ele><time>2026-05-02T14:17:35.958Z</time></trkpt><trkpt lat="44.274777024022264" lon="10.869367433347712"><ele>316.1666666666667</ele><time>2026-05-02T14:17:36.958Z</time></trkpt><trkpt lat="44.27489097257775" lon="10.869407416512434"><ele>315.0</ele><time>2026-05-02T14:17:38.958Z</time></trkpt><trkpt lat="44.27499656672827" lon="10.869449745619534"><ele>315.0</ele><time>2026-05-02T14:17:40.958Z</time></trkpt><trkpt lat="44.275103710266954" lon="10.869509137817953"><ele>315.0</ele><time>2026-05-02T14:17:42.958Z</time></trkpt><trkpt lat="44.27516157369129" lon="10.869562218353298"><ele>315.0</ele><time>2026-05-02T14:17:43.958Z</time></trkpt><trkpt lat="44.27522699547855" lon="10.869651578548384"><ele>315.0</ele><time>2026-05-02T14:17:45.958Z</time></trkpt><trkpt lat="44.27529005850616" lon="10.869671582498494"><ele>315.0</ele><time>2026-05-02T14:17:48.958Z</time></trkpt><trkpt lat="44.27537776006713" lon="10.869702741922572"><ele>315.0</ele><time>2026-05-02T14:18:08.959Z</time></trkpt><trkpt lat="44.27535319086136" lon="10.869616099520977"><ele>315.0</ele><time>2026-05-02T14:18:48.956Z</time></trkpt><trkpt lat="44.27530772162082" lon="10.869677812976834"><ele>315.0</ele><time>2026-05-02T14:19:04.956Z</time></trkpt><trkpt lat="44.27539438728767" lon="10.869716903476371"><ele>315.0</ele><time>2026-05-02T14:20:58.954Z</time></trkpt><trkpt lat="44.275458194947916" lon="10.869737367580543"><ele>315.0</ele><time>2026-05-02T14:21:01.954Z</time></trkpt><trkpt lat="44.275508190543725" lon="10.869799816685815"><ele>315.0</ele><time>2026-05-02T14:21:03.954Z</time></trkpt><trkpt lat="44.27556866152649" lon="10.869877683996437"><ele>315.0</ele><time>2026-05-02T14:21:05.954Z</time></trkpt><trkpt lat="44.275637118825685" lon="10.869954669465807"><ele>314.75</ele><time>2026-05-02T14:21:07.954Z</time></trkpt><trkpt lat="44.27571665375731" lon="10.870062723674245"><ele>314.5</ele><time>2026-05-02T14:21:09.954Z</time></trkpt><trkpt lat="44.27580728456356" lon="10.870170267877151"><ele>314.25</ele><time>2026-05-02T14:21:11.954Z</time></trkpt><trkpt lat="44.27589198045162" lon="10.870283418657609"><ele>314.0</ele><time>2026-05-02T14:21:13.954Z</time></trkpt><trkpt lat="44.27600151786919" lon="10.870432297212547"><ele>314.0</ele><time>2026-05-02T14:21:15.954Z</time></trkpt><trkpt lat="44.276057431141936" lon="10.870502299028617"><ele>314.0</ele><time>2026-05-02T14:21:16.954Z</time></trkpt><trkpt lat="44.27611827162952" lon="10.870586643751976"><ele>314.0</ele><time>2026-05-02T14:21:17.954Z</time></trkpt><trkpt lat="44.27618986150979" lon="10.870676008317345"><ele>314.0</ele><time>2026-05-02T14:21:18.955Z</time></trkpt><trkpt lat="44.27624531625448" lon="10.87075860824296"><ele>314.0</ele><time>2026-05-02T14:21:19.955Z</time></trkpt><trkpt lat="44.27634257150961" lon="10.870885084437525"><ele>313.5</ele><time>2026-05-02T14:21:21.955Z</time></trkpt><trkpt lat="44.27640184843981" lon="10.870952287414168"><ele>313.0</ele><time>2026-05-02T14:21:22.955Z</time></trkpt><trkpt lat="44.276467156391696" lon="10.871034734243587"><ele>312.5</ele><time>2026-05-02T14:21:23.955Z</time></trkpt><trkpt lat="44.276521696168714" lon="10.87109094002227"><ele>312.0</ele><time>2026-05-02T14:21:24.955Z</time></trkpt><trkpt lat="44.27657596267359" lon="10.871158689220806"><ele>311.5</ele><time>2026-05-02T14:21:25.955Z</time></trkpt><trkpt lat="44.276627929148894" lon="10.871227694402025"><ele>311.0</ele><time>2026-05-02T14:21:26.955Z</time></trkpt><trkpt lat="44.27668734210083" lon="10.871292812713609"><ele>311.0</ele><time>2026-05-02T14:21:27.955Z</time></trkpt><trkpt lat="44.27675041903484" lon="10.871372623852851"><ele>311.0</ele><time>2026-05-02T14:21:28.955Z</time></trkpt><trkpt lat="44.276808150318644" lon="10.871455736137127"><ele>311.0</ele><time>2026-05-02T14:21:29.955Z</time></trkpt><trkpt lat="44.276862893243646" lon="10.871520316758046"><ele>311.0</ele><time>2026-05-02T14:21:30.955Z</time></trkpt><trkpt lat="44.27691818465616" lon="10.87158912774037"><ele>311.0</ele><time>2026-05-02T14:21:31.955Z</time></trkpt><trkpt lat="44.276973179811705" lon="10.871655882532233"><ele>311.0</ele><time>2026-05-02T14:21:32.955Z</time></trkpt><trkpt lat="44.27702739231509" lon="10.871721178236124"><ele>311.1428571428571</ele><time>2026-05-02T14:21:33.955Z</time></trkpt><trkpt lat="44.27707698609046" lon="10.871784281241844"><ele>311.28571428571433</ele><time>2026-05-02T14:21:34.955Z</time></trkpt><trkpt lat="44.27712497507535" lon="10.871853754435111"><ele>311.42857142857144</ele><time>2026-05-02T14:21:35.955Z</time></trkpt><trkpt lat="44.27718804135909" lon="10.871914841685559"><ele>311.57142857142856</ele><time>2026-05-02T14:21:36.955Z</time></trkpt><trkpt lat="44.277252858586436" lon="10.871980631931365"><ele>311.71428571428567</ele><time>2026-05-02T14:21:37.955Z</time></trkpt><trkpt lat="44.27729790382134" lon="10.87205800756847"><ele>311.8571428571429</ele><time>2026-05-02T14:21:38.955Z</time></trkpt><trkpt lat="44.27736173062074" lon="10.872106904936961"><ele>312.0</ele><time>2026-05-02T14:21:39.955Z</time></trkpt><trkpt lat="44.27740521000007" lon="10.872186825292843"><ele>312.0</ele><time>2026-05-02T14:21:40.955Z</time></trkpt><trkpt lat="44.27745409132247" lon="10.87225375720452"><ele>312.0</ele><time>2026-05-02T14:21:41.955Z</time></trkpt><trkpt lat="44.27750149041144" lon="10.872317685781054"><ele>312.0</ele><time>2026-05-02T14:21:42.955Z</time></trkpt><trkpt lat="44.27755534224624" lon="10.872381424598975"><ele>312.0</ele><time>2026-05-02T14:21:43.955Z</time></trkpt><trkpt lat="44.27760419100715" lon="10.872444183223225"><ele>312.0</ele><time>2026-05-02T14:21:44.955Z</time></trkpt><trkpt lat="44.27765418308705" lon="10.872503301852335"><ele>312.0</ele><time>2026-05-02T14:21:45.955Z</time></trkpt><trkpt lat="44.27770680033465" lon="10.872566641163823"><ele>312.0</ele><time>2026-05-02T14:21:46.955Z</time></trkpt><trkpt lat="44.277809918165666" lon="10.87268975457947"><ele>310.75</ele><time>2026-05-02T14:21:48.955Z</time></trkpt><trkpt lat="44.277902073071566" lon="10.872804603385266"><ele>309.5</ele><time>2026-05-02T14:21:50.955Z</time></trkpt><trkpt lat="44.277990641751536" lon="10.872920815251742"><ele>308.25</ele><time>2026-05-02T14:21:52.955Z</time></trkpt><trkpt lat="44.278079133078165" lon="10.873033648730548"><ele>307.0</ele><time>2026-05-02T14:21:54.955Z</time></trkpt><trkpt lat="44.27815976331688" lon="10.873140782314357"><ele>307.0</ele><time>2026-05-02T14:21:56.955Z</time></trkpt><trkpt lat="44.27824244969708" lon="10.873246916076363"><ele>307.0</ele><time>2026-05-02T14:21:58.955Z</time></trkpt><trkpt lat="44.27832719885993" lon="10.873353756080203"><ele>307.0</ele><time>2026-05-02T14:22:00.955Z</time></trkpt><trkpt lat="44.27841921737785" lon="10.873464003368072"><ele>307.0</ele><time>2026-05-02T14:22:02.955Z</time></trkpt><trkpt lat="44.27850661306636" lon="10.873581046395127"><ele>307.0</ele><time>2026-05-02T14:22:04.955Z</time></trkpt><trkpt lat="44.27859505754654" lon="10.873695353766415"><ele>307.0</ele><time>2026-05-02T14:22:06.956Z</time></trkpt><trkpt lat="44.278687755986134" lon="10.873791050646924"><ele>307.0</ele><time>2026-05-02T14:22:08.956Z</time></trkpt><trkpt lat="44.278774569621994" lon="10.873904495706434"><ele>307.0</ele><time>2026-05-02T14:22:10.956Z</time></trkpt><trkpt lat="44.27885631892331" lon="10.874023585213125"><ele>306.99999999999994</ele><time>2026-05-02T14:22:12.956Z</time></trkpt><trkpt lat="44.27891065818602" lon="10.874083447393472"><ele>307.0</ele><time>2026-05-02T14:22:13.956Z</time></trkpt><trkpt lat="44.27895985367494" lon="10.874149498141575"><ele>307.0</ele><time>2026-05-02T14:22:14.956Z</time></trkpt><trkpt lat="44.279007971694384" lon="10.874207926192794"><ele>307.0</ele><time>2026-05-02T14:22:15.956Z</time></trkpt><trkpt lat="44.27905298527719" lon="10.874276353466755"><ele>307.0</ele><time>2026-05-02T14:22:16.956Z</time></trkpt><trkpt lat="44.27911037958812" lon="10.874354979342177"><ele>306.99999999999994</ele><time>2026-05-02T14:22:17.956Z</time></trkpt><trkpt lat="44.27915692801031" lon="10.87444195673116"><ele>307.0</ele><time>2026-05-02T14:22:18.956Z</time></trkpt><trkpt lat="44.27919224658991" lon="10.874521698413627"><ele>306.66666666666663</ele><time>2026-05-02T14:22:19.956Z</time></trkpt><trkpt lat="44.27922354269701" lon="10.874614732914136"><ele>306.3333333333333</ele><time>2026-05-02T14:22:20.956Z</time></trkpt><trkpt lat="44.27924319209971" lon="10.874714756284387"><ele>306.0</ele><time>2026-05-02T14:22:21.956Z</time></trkpt><trkpt lat="44.2792808778024" lon="10.874815179415439"><ele>305.6666666666667</ele><time>2026-05-02T14:22:22.956Z</time></trkpt><trkpt lat="44.27930709948808" lon="10.874912460924252"><ele>305.33333333333337</ele><time>2026-05-02T14:22:23.956Z</time></trkpt><trkpt lat="44.279321077995526" lon="10.87502840699311"><ele>305.0</ele><time>2026-05-02T14:22:24.956Z</time></trkpt><trkpt lat="44.279344358758955" lon="10.87512626407163"><ele>305.0</ele><time>2026-05-02T14:22:25.956Z</time></trkpt><trkpt lat="44.2793691824249" lon="10.875222619371138"><ele>305.0</ele><time>2026-05-02T14:22:26.956Z</time></trkpt><trkpt lat="44.27939210644409" lon="10.875328727460868"><ele>305.0</ele><time>2026-05-02T14:22:27.956Z</time></trkpt><trkpt lat="44.279413791026606" lon="10.87543386752337"><ele>305.0</ele><time>2026-05-02T14:22:28.956Z</time></trkpt><trkpt lat="44.279441056813035" lon="10.875525368655808"><ele>305.0</ele><time>2026-05-02T14:22:29.956Z</time></trkpt><trkpt lat="44.27947864749483" lon="10.875610715830076"><ele>305.0</ele><time>2026-05-02T14:22:30.956Z</time></trkpt><trkpt lat="44.279546496250575" lon="10.875768660209719"><ele>305.0</ele><time>2026-05-02T14:22:32.956Z</time></trkpt><trkpt lat="44.279589971338396" lon="10.875847871795727"><ele>305.0</ele><time>2026-05-02T14:22:33.956Z</time></trkpt><trkpt lat="44.27963997789362" lon="10.875928612352752"><ele>305.0</ele><time>2026-05-02T14:22:34.956Z</time></trkpt><trkpt lat="44.279683289922545" lon="10.875998873991417"><ele>305.0</ele><time>2026-05-02T14:22:35.956Z</time></trkpt><trkpt lat="44.27972804936341" lon="10.876066364842863"><ele>305.0</ele><time>2026-05-02T14:22:36.956Z</time></trkpt><trkpt lat="44.279780987944186" lon="10.87613703341264"><ele>305.0</ele><time>2026-05-02T14:22:37.956Z</time></trkpt><trkpt lat="44.27983309719863" lon="10.876210358962513"><ele>305.0</ele><time>2026-05-02T14:22:38.956Z</time></trkpt><trkpt lat="44.279932498618656" lon="10.876319979264727"><ele>304.83333333333337</ele><time>2026-05-02T14:22:40.953Z</time></trkpt><trkpt lat="44.27998689481155" lon="10.876369150856485"><ele>304.6666666666667</ele><time>2026-05-02T14:22:41.953Z</time></trkpt><trkpt lat="44.280102537081376" lon="10.876449282525071"><ele>304.5</ele><time>2026-05-02T14:22:43.953Z</time></trkpt><trkpt lat="44.28016918948177" lon="10.876485764868736"><ele>304.3333333333333</ele><time>2026-05-02T14:22:44.953Z</time></trkpt><trkpt lat="44.280235502768996" lon="10.87651761351556"><ele>304.16666666666663</ele><time>2026-05-02T14:22:45.953Z</time></trkpt><trkpt lat="44.28029887046016" lon="10.876542187971445"><ele>304.0</ele><time>2026-05-02T14:22:46.953Z</time></trkpt><trkpt lat="44.280411600044545" lon="10.876597366831193"><ele>304.0</ele><time>2026-05-02T14:22:48.953Z</time></trkpt><trkpt lat="44.280525706390456" lon="10.876673901773106"><ele>304.0</ele><time>2026-05-02T14:22:50.953Z</time></trkpt><trkpt lat="44.28058958817742" lon="10.8767080978148"><ele>304.0</ele><time>2026-05-02T14:22:51.953Z</time></trkpt><trkpt lat="44.28065484940929" lon="10.876743297090014"><ele>304.0</ele><time>2026-05-02T14:22:52.953Z</time></trkpt><trkpt lat="44.280713777035714" lon="10.876778203819356"><ele>304.0</ele><time>2026-05-02T14:22:53.953Z</time></trkpt><trkpt lat="44.28081469362764" lon="10.87683135988316"><ele>304.0</ele><time>2026-05-02T14:22:55.953Z</time></trkpt><trkpt lat="44.280905917858746" lon="10.876902912384608"><ele>303.5</ele><time>2026-05-02T14:22:57.954Z</time></trkpt><trkpt lat="44.280978863853704" lon="10.876949613508428"><ele>303.0</ele><time>2026-05-02T14:22:59.954Z</time></trkpt><trkpt lat="44.28105412337726" lon="10.876983081034915"><ele>302.5</ele><time>2026-05-02T14:23:01.954Z</time></trkpt><trkpt lat="44.28111365529704" lon="10.877014276771277"><ele>302.0</ele><time>2026-05-02T14:23:04.954Z</time></trkpt><trkpt lat="44.28119672065308" lon="10.877055615308839"><ele>301.5</ele><time>2026-05-02T14:23:08.954Z</time></trkpt><trkpt lat="44.281268375676994" lon="10.877086601558805"><ele>301.0</ele><time>2026-05-02T14:23:10.954Z</time></trkpt><trkpt lat="44.28136265921729" lon="10.877122931623134"><ele>302.2</ele><time>2026-05-02T14:23:12.954Z</time></trkpt><trkpt lat="44.281444093605785" lon="10.877174151422365"><ele>303.40000000000003</ele><time>2026-05-02T14:23:14.954Z</time></trkpt><trkpt lat="44.28154810617228" lon="10.877227295128018"><ele>304.6</ele><time>2026-05-02T14:23:16.954Z</time></trkpt><trkpt lat="44.281668409058625" lon="10.87729532727865"><ele>305.8</ele><time>2026-05-02T14:23:18.954Z</time></trkpt><trkpt lat="44.28173012389953" lon="10.877334177735158"><ele>307.0</ele><time>2026-05-02T14:23:19.954Z</time></trkpt><trkpt lat="44.28179061613683" lon="10.87736332663799"><ele>307.0</ele><time>2026-05-02T14:23:20.954Z</time></trkpt><trkpt lat="44.2818483360223" lon="10.877402995404807"><ele>307.0</ele><time>2026-05-02T14:23:21.954Z</time></trkpt><trkpt lat="44.28196554087324" lon="10.877459259425736"><ele>307.0</ele><time>2026-05-02T14:23:23.954Z</time></trkpt><trkpt lat="44.28202719433892" lon="10.877494168153826"><ele>307.0</ele><time>2026-05-02T14:23:24.954Z</time></trkpt><trkpt lat="44.28209125285128" lon="10.87752111144269"><ele>307.0</ele><time>2026-05-02T14:23:25.954Z</time></trkpt><trkpt lat="44.28219957137419" lon="10.87758332595857"><ele>307.0</ele><time>2026-05-02T14:23:27.954Z</time></trkpt><trkpt lat="44.2822631389248" lon="10.877605358875735"><ele>305.6</ele><time>2026-05-02T14:23:28.954Z</time></trkpt><trkpt lat="44.282365119217054" lon="10.87766080611853"><ele>304.2</ele><time>2026-05-02T14:23:30.954Z</time></trkpt><trkpt lat="44.28248210742513" lon="10.877722143786409"><ele>302.8</ele><time>2026-05-02T14:23:32.954Z</time></trkpt><trkpt lat="44.282554778064075" lon="10.87777471974959"><ele>301.4</ele><time>2026-05-02T14:23:33.954Z</time></trkpt><trkpt lat="44.282634404571866" lon="10.87781194608574"><ele>300.0</ele><time>2026-05-02T14:23:34.954Z</time></trkpt><trkpt lat="44.28271398992616" lon="10.87785117411021"><ele>300.0</ele><time>2026-05-02T14:23:35.954Z</time></trkpt><trkpt lat="44.28278658934175" lon="10.877895636392502"><ele>300.0</ele><time>2026-05-02T14:23:36.954Z</time></trkpt><trkpt lat="44.282863587462245" lon="10.877942480119298"><ele>300.0</ele><time>2026-05-02T14:23:37.954Z</time></trkpt><trkpt lat="44.282953589497104" lon="10.877987901799791"><ele>300.0</ele><time>2026-05-02T14:23:38.954Z</time></trkpt><trkpt lat="44.28303515283256" lon="10.878035769043455"><ele>300.0</ele><time>2026-05-02T14:23:39.954Z</time></trkpt><trkpt lat="44.28312332234889" lon="10.878085544131086"><ele>300.0</ele><time>2026-05-02T14:23:40.954Z</time></trkpt><trkpt lat="44.283212553966074" lon="10.878129546785884"><ele>301.0</ele><time>2026-05-02T14:23:41.955Z</time></trkpt><trkpt lat="44.283300577296274" lon="10.878177517473343"><ele>302.0</ele><time>2026-05-02T14:23:42.955Z</time></trkpt><trkpt lat="44.283386316457864" lon="10.878226263490319"><ele>303.0</ele><time>2026-05-02T14:23:43.955Z</time></trkpt><trkpt lat="44.283474167524275" lon="10.878272497504371"><ele>304.0</ele><time>2026-05-02T14:23:44.955Z</time></trkpt><trkpt lat="44.28356312184955" lon="10.878318712818132"><ele>305.0</ele><time>2026-05-02T14:23:45.955Z</time></trkpt><trkpt lat="44.28365068654895" lon="10.878361060346199"><ele>305.0</ele><time>2026-05-02T14:23:46.955Z</time></trkpt><trkpt lat="44.28373815039557" lon="10.878405953580444"><ele>305.0</ele><time>2026-05-02T14:23:47.955Z</time></trkpt><trkpt lat="44.2838146954419" lon="10.878452670004387"><ele>305.0</ele><time>2026-05-02T14:23:48.955Z</time></trkpt><trkpt lat="44.283891797890455" lon="10.878485291765028"><ele>305.0</ele><time>2026-05-02T14:23:49.955Z</time></trkpt><trkpt lat="44.28396973498887" lon="10.87851636330564"><ele>305.0</ele><time>2026-05-02T14:23:50.955Z</time></trkpt><trkpt lat="44.28403701051448" lon="10.878557608717573"><ele>305.0</ele><time>2026-05-02T14:23:51.955Z</time></trkpt><trkpt lat="44.284111677723146" lon="10.878592030274893"><ele>304.14285714285717</ele><time>2026-05-02T14:23:52.955Z</time></trkpt><trkpt lat="44.28418062561038" lon="10.878632295519274"><ele>303.2857142857143</ele><time>2026-05-02T14:23:53.955Z</time></trkpt><trkpt lat="44.284248356347724" lon="10.87866592147616"><ele>302.42857142857144</ele><time>2026-05-02T14:23:54.955Z</time></trkpt><trkpt lat="44.284312004896904" lon="10.878703678217367"><ele>301.57142857142856</ele><time>2026-05-02T14:23:55.955Z</time></trkpt><trkpt lat="44.28437535037144" lon="10.878729971873884"><ele>300.7142857142857</ele><time>2026-05-02T14:23:56.955Z</time></trkpt><trkpt lat="44.284440799009246" lon="10.878754009535651"><ele>299.85714285714283</ele><time>2026-05-02T14:23:57.955Z</time></trkpt><trkpt lat="44.28450354065058" lon="10.87878087159537"><ele>299.0</ele><time>2026-05-02T14:23:58.955Z</time></trkpt><trkpt lat="44.28456329186086" lon="10.878815051329116"><ele>299.0</ele><time>2026-05-02T14:23:59.955Z</time></trkpt><trkpt lat="44.28467904187875" lon="10.878870126714824"><ele>299.0</ele><time>2026-05-02T14:24:01.955Z</time></trkpt><trkpt lat="44.28475011543136" lon="10.878897764786705"><ele>299.0</ele><time>2026-05-02T14:24:02.955Z</time></trkpt><trkpt lat="44.284869635858584" lon="10.878951666097484"><ele>299.0</ele><time>2026-05-02T14:24:04.955Z</time></trkpt><trkpt lat="44.28494153820059" lon="10.87896927284868"><ele>299.0</ele><time>2026-05-02T14:24:05.955Z</time></trkpt><trkpt lat="44.28501430223699" lon="10.878991418374712"><ele>299.2857142857143</ele><time>2026-05-02T14:24:06.955Z</time></trkpt><trkpt lat="44.285083072169975" lon="10.879017866226597"><ele>299.57142857142856</ele><time>2026-05-02T14:24:07.955Z</time></trkpt><trkpt lat="44.28515404495819" lon="10.879046208983514"><ele>299.8571428571429</ele><time>2026-05-02T14:24:08.955Z</time></trkpt><trkpt lat="44.285217668379694" lon="10.879083053642358"><ele>300.1428571428571</ele><time>2026-05-02T14:24:09.955Z</time></trkpt><trkpt lat="44.285281064294935" lon="10.87912693195368"><ele>300.42857142857144</ele><time>2026-05-02T14:24:10.955Z</time></trkpt><trkpt lat="44.2853387062857" lon="10.879172030041357"><ele>300.7142857142857</ele><time>2026-05-02T14:24:11.955Z</time></trkpt><trkpt lat="44.28541121418284" lon="10.879191127891259"><ele>301.0</ele><time>2026-05-02T14:24:12.955Z</time></trkpt><trkpt lat="44.285479565016374" lon="10.87922929512649"><ele>300.66666666666663</ele><time>2026-05-02T14:24:13.955Z</time></trkpt><trkpt lat="44.285592802458915" lon="10.87926979083405"><ele>300.3333333333333</ele><time>2026-05-02T14:24:15.955Z</time></trkpt><trkpt lat="44.28566413106802" lon="10.879283028704537"><ele>300.0</ele><time>2026-05-02T14:24:18.955Z</time></trkpt><trkpt lat="44.28573266348656" lon="10.879284388716528"><ele>299.6666666666667</ele><time>2026-05-02T14:24:24.955Z</time></trkpt><trkpt lat="44.285794226395545" lon="10.879312368300882"><ele>299.33333333333337</ele><time>2026-05-02T14:29:22.952Z</time></trkpt><trkpt lat="44.285868221002644" lon="10.879309781165952"><ele>299.0</ele><time>2026-05-02T14:29:25.952Z</time></trkpt><trkpt lat="44.28595967495665" lon="10.879348589610212"><ele>299.0</ele><time>2026-05-02T14:29:28.952Z</time></trkpt><trkpt lat="44.28605571866755" lon="10.879399606940323"><ele>299.0</ele><time>2026-05-02T14:29:30.952Z</time></trkpt><trkpt lat="44.28611782062044" lon="10.879432755523597"><ele>299.0</ele><time>2026-05-02T14:29:31.952Z</time></trkpt><trkpt lat="44.28617506688933" lon="10.879476190362732"><ele>299.0</ele><time>2026-05-02T14:29:32.952Z</time></trkpt><trkpt lat="44.286250811891684" lon="10.87953508407966"><ele>299.0</ele><time>2026-05-02T14:29:33.952Z</time></trkpt><trkpt lat="44.28631309073012" lon="10.879594427866769"><ele>299.0</ele><time>2026-05-02T14:29:34.952Z</time></trkpt><trkpt lat="44.28638128511223" lon="10.879665469349783"><ele>299.2</ele><time>2026-05-02T14:29:35.952Z</time></trkpt><trkpt lat="44.28644362137694" lon="10.879750357781361"><ele>299.4</ele><time>2026-05-02T14:29:36.952Z</time></trkpt><trkpt lat="44.28652192517684" lon="10.879835373696736"><ele>299.6</ele><time>2026-05-02T14:29:37.952Z</time></trkpt><trkpt lat="44.28660361112555" lon="10.879911108338016"><ele>299.8</ele><time>2026-05-02T14:29:38.953Z</time></trkpt><trkpt lat="44.286676463554286" lon="10.879996702610352"><ele>300.0</ele><time>2026-05-02T14:29:39.953Z</time></trkpt><trkpt lat="44.28676184037451" lon="10.88008749778729"><ele>299.6</ele><time>2026-05-02T14:29:40.953Z</time></trkpt><trkpt lat="44.28685494783279" lon="10.880172002554891"><ele>299.2</ele><time>2026-05-02T14:29:41.953Z</time></trkpt><trkpt lat="44.28694085515689" lon="10.880261644554226"><ele>298.8</ele><time>2026-05-02T14:29:42.953Z</time></trkpt><trkpt lat="44.287023431368034" lon="10.880353563524817"><ele>298.4</ele><time>2026-05-02T14:29:43.953Z</time></trkpt><trkpt lat="44.287103347350005" lon="10.88044909061535"><ele>298.0</ele><time>2026-05-02T14:29:44.953Z</time></trkpt><trkpt lat="44.28718983825023" lon="10.880538165254364"><ele>298.4</ele><time>2026-05-02T14:29:45.953Z</time></trkpt><trkpt lat="44.28728451300039" lon="10.880630851663083"><ele>298.8</ele><time>2026-05-02T14:29:46.953Z</time></trkpt><trkpt lat="44.287365018262" lon="10.880713339134223"><ele>299.2</ele><time>2026-05-02T14:29:47.953Z</time></trkpt><trkpt lat="44.287448121170925" lon="10.880801887180084"><ele>299.6</ele><time>2026-05-02T14:29:48.953Z</time></trkpt><trkpt lat="44.287536357787815" lon="10.880894506398919"><ele>300.0</ele><time>2026-05-02T14:29:49.953Z</time></trkpt><trkpt lat="44.287632307473444" lon="10.880989292710463"><ele>300.0</ele><time>2026-05-02T14:29:50.953Z</time></trkpt><trkpt lat="44.287718794759925" lon="10.881081317183263"><ele>300.0</ele><time>2026-05-02T14:29:51.953Z</time></trkpt><trkpt lat="44.28780288729487" lon="10.881172257405275"><ele>300.0</ele><time>2026-05-02T14:29:52.953Z</time></trkpt><trkpt lat="44.28789121255221" lon="10.881257415333899"><ele>300.0</ele><time>2026-05-02T14:29:53.953Z</time></trkpt><trkpt lat="44.287975882845075" lon="10.88134891154845"><ele>300.0</ele><time>2026-05-02T14:29:54.953Z</time></trkpt><trkpt lat="44.288064518089115" lon="10.881441140830022"><ele>300.6</ele><time>2026-05-02T14:29:55.953Z</time></trkpt><trkpt lat="44.28814597030551" lon="10.88152256750429"><ele>301.2</ele><time>2026-05-02T14:29:56.953Z</time></trkpt><trkpt lat="44.28822927586062" lon="10.88161402899157"><ele>301.8</ele><time>2026-05-02T14:29:57.953Z</time></trkpt><trkpt lat="44.28830506190906" lon="10.88170769599689"><ele>302.4</ele><time>2026-05-02T14:29:58.953Z</time></trkpt><trkpt lat="44.28835628509192" lon="10.881827802349314"><ele>303.0</ele><time>2026-05-02T14:29:59.953Z</time></trkpt><trkpt lat="44.288392558289445" lon="10.881951403463956"><ele>303.2</ele><time>2026-05-02T14:30:00.953Z</time></trkpt><trkpt lat="44.28841539946366" lon="10.882092821380944"><ele>303.4</ele><time>2026-05-02T14:30:01.953Z</time></trkpt><trkpt lat="44.28842297903462" lon="10.88225423241688"><ele>303.59999999999997</ele><time>2026-05-02T14:30:02.953Z</time></trkpt><trkpt lat="44.288422021323726" lon="10.882406915395876"><ele>303.8</ele><time>2026-05-02T14:30:03.953Z</time></trkpt><trkpt lat="44.28842426769242" lon="10.882564871907377"><ele>304.0</ele><time>2026-05-02T14:30:04.953Z</time></trkpt><trkpt lat="44.28841825937824" lon="10.882743653728925"><ele>304.25</ele><time>2026-05-02T14:30:05.953Z</time></trkpt><trkpt lat="44.28841227232981" lon="10.882918040326453"><ele>304.5</ele><time>2026-05-02T14:30:06.953Z</time></trkpt><trkpt lat="44.288409913399505" lon="10.883091911931627"><ele>304.75</ele><time>2026-05-02T14:30:07.953Z</time></trkpt><trkpt lat="44.28841243741953" lon="10.883263788271734"><ele>305.0</ele><time>2026-05-02T14:30:08.953Z</time></trkpt><trkpt lat="44.288405066154084" lon="10.883425275336316"><ele>303.8</ele><time>2026-05-02T14:30:09.953Z</time></trkpt><trkpt lat="44.28841539932807" lon="10.883594530484032"><ele>302.6</ele><time>2026-05-02T14:30:10.953Z</time></trkpt><trkpt lat="44.28843541674507" lon="10.8837197083978"><ele>301.4</ele><time>2026-05-02T14:30:11.953Z</time></trkpt><trkpt lat="44.28846139574576" lon="10.883865091382159"><ele>300.2</ele><time>2026-05-02T14:30:12.953Z</time></trkpt><trkpt lat="44.288506853417864" lon="10.884020709535587"><ele>299.0</ele><time>2026-05-02T14:30:13.953Z</time></trkpt><trkpt lat="44.28855472629339" lon="10.88415409069972"><ele>297.25</ele><time>2026-05-02T14:30:14.953Z</time></trkpt><trkpt lat="44.28860625675387" lon="10.884293960229213"><ele>295.5</ele><time>2026-05-02T14:30:15.953Z</time></trkpt><trkpt lat="44.28866031343218" lon="10.884435719172783"><ele>293.75</ele><time>2026-05-02T14:30:16.953Z</time></trkpt><trkpt lat="44.2887145291089" lon="10.884573272067195"><ele>292.0</ele><time>2026-05-02T14:30:17.953Z</time></trkpt><trkpt lat="44.28876928165005" lon="10.884711550009925"><ele>292.0</ele><time>2026-05-02T14:30:18.953Z</time></trkpt><trkpt lat="44.288822863760814" lon="10.884849088009487"><ele>292.0</ele><time>2026-05-02T14:30:19.953Z</time></trkpt><trkpt lat="44.288883653097564" lon="10.884973664220187"><ele>292.0</ele><time>2026-05-02T14:30:20.953Z</time></trkpt><trkpt lat="44.28894954188112" lon="10.885087414093732"><ele>292.0</ele><time>2026-05-02T14:30:21.953Z</time></trkpt><trkpt lat="44.28902788094975" lon="10.885193631857796"><ele>292.0</ele><time>2026-05-02T14:30:22.953Z</time></trkpt><trkpt lat="44.28911341374464" lon="10.885295178417854"><ele>292.25</ele><time>2026-05-02T14:30:23.954Z</time></trkpt><trkpt lat="44.28920368659308" lon="10.885379379595589"><ele>292.5</ele><time>2026-05-02T14:30:24.954Z</time></trkpt><trkpt lat="44.289304512177246" lon="10.885454585003192"><ele>292.75</ele><time>2026-05-02T14:30:25.954Z</time></trkpt><trkpt lat="44.28941190801465" lon="10.885512311134038"><ele>293.0</ele><time>2026-05-02T14:30:26.954Z</time></trkpt><trkpt lat="44.28951871658869" lon="10.885567076062998"><ele>293.0</ele><time>2026-05-02T14:30:27.954Z</time></trkpt><trkpt lat="44.28963285435421" lon="10.885602590174067"><ele>293.0</ele><time>2026-05-02T14:30:28.954Z</time></trkpt><trkpt lat="44.28975182141006" lon="10.885622912549984"><ele>293.0</ele><time>2026-05-02T14:30:29.954Z</time></trkpt><trkpt lat="44.289863803195054" lon="10.885625017750739"><ele>293.0</ele><time>2026-05-02T14:30:30.954Z</time></trkpt><trkpt lat="44.28997759378568" lon="10.885611592187379"><ele>293.5</ele><time>2026-05-02T14:30:31.954Z</time></trkpt><trkpt lat="44.29008646525013" lon="10.885573919231595"><ele>294.0</ele><time>2026-05-02T14:30:32.954Z</time></trkpt><trkpt lat="44.29019735356766" lon="10.885526189366296"><ele>294.5</ele><time>2026-05-02T14:30:33.954Z</time></trkpt><trkpt lat="44.29030704635389" lon="10.885467463438653"><ele>295.0</ele><time>2026-05-02T14:30:34.954Z</time></trkpt><trkpt lat="44.2904125220246" lon="10.88541357434814"><ele>295.0</ele><time>2026-05-02T14:30:35.954Z</time></trkpt><trkpt lat="44.29052417036446" lon="10.885350138199422"><ele>295.0</ele><time>2026-05-02T14:30:36.954Z</time></trkpt><trkpt lat="44.29062944951422" lon="10.885279502902618"><ele>295.0</ele><time>2026-05-02T14:30:37.954Z</time></trkpt><trkpt lat="44.29073396864766" lon="10.885216950768939"><ele>295.0</ele><time>2026-05-02T14:30:38.954Z</time></trkpt><trkpt lat="44.29083619972704" lon="10.885150876052137"><ele>296.4</ele><time>2026-05-02T14:30:39.954Z</time></trkpt><trkpt lat="44.29093738664959" lon="10.885092009934214"><ele>297.8</ele><time>2026-05-02T14:30:40.954Z</time></trkpt><trkpt lat="44.29104200670211" lon="10.88504422678289"><ele>299.2</ele><time>2026-05-02T14:30:41.954Z</time></trkpt><trkpt lat="44.291151349154696" lon="10.885013221691622"><ele>300.6</ele><time>2026-05-02T14:30:42.954Z</time></trkpt><trkpt lat="44.29125584600961" lon="10.885004450013822"><ele>302.0</ele><time>2026-05-02T14:30:43.954Z</time></trkpt><trkpt lat="44.29135582509378" lon="10.885004439142834"><ele>299.8</ele><time>2026-05-02T14:30:44.954Z</time></trkpt><trkpt lat="44.291441287666906" lon="10.885016756939459"><ele>297.6</ele><time>2026-05-02T14:30:45.954Z</time></trkpt><trkpt lat="44.29152019505888" lon="10.885032814327557"><ele>295.40000000000003</ele><time>2026-05-02T14:30:46.954Z</time></trkpt><trkpt lat="44.291593590002954" lon="10.885072060345037"><ele>293.2</ele><time>2026-05-02T14:30:47.954Z</time></trkpt><trkpt lat="44.29168856798162" lon="10.885129820440241"><ele>291.0</ele><time>2026-05-02T14:30:49.954Z</time></trkpt><trkpt lat="44.29167930851636" lon="10.885335471721648"><ele>290.42857142857144</ele><time>2026-05-02T14:30:50.954Z</time></trkpt><trkpt lat="44.291676858254164" lon="10.885431854567894"><ele>289.85714285714283</ele><time>2026-05-02T14:30:51.954Z</time></trkpt><trkpt lat="44.29166587719664" lon="10.885528111466074"><ele>289.2857142857143</ele><time>2026-05-02T14:30:52.955Z</time></trkpt><trkpt lat="44.29165582227584" lon="10.885626331316349"><ele>288.7142857142857</ele><time>2026-05-02T14:30:53.956Z</time></trkpt><trkpt lat="44.2916446257909" lon="10.88573418968607"><ele>288.1428571428571</ele><time>2026-05-02T14:30:54.956Z</time></trkpt><trkpt lat="44.29163219911295" lon="10.88584681084984"><ele>287.57142857142856</ele><time>2026-05-02T14:30:55.957Z</time></trkpt><trkpt lat="44.29162318718727" lon="10.885954063156756"><ele>287.0</ele><time>2026-05-02T14:30:56.957Z</time></trkpt><trkpt lat="44.291610183233374" lon="10.886072494999633"><ele>287.0</ele><time>2026-05-02T14:30:57.957Z</time></trkpt><trkpt lat="44.29160045533494" lon="10.886176412025794"><ele>287.0</ele><time>2026-05-02T14:30:58.958Z</time></trkpt><trkpt lat="44.29159045155001" lon="10.88628486782237"><ele>287.0</ele><time>2026-05-02T14:30:59.958Z</time></trkpt><trkpt lat="44.29157962315802" lon="10.886397484834559"><ele>287.0</ele><time>2026-05-02T14:31:00.959Z</time></trkpt><trkpt lat="44.291567994426465" lon="10.886511435996079"><ele>287.0</ele><time>2026-05-02T14:31:01.959Z</time></trkpt><trkpt lat="44.2915548894015" lon="10.886635974214858"><ele>287.0</ele><time>2026-05-02T14:31:02.959Z</time></trkpt><trkpt lat="44.29154115308578" lon="10.886767754877846"><ele>288.8</ele><time>2026-05-02T14:31:03.957Z</time></trkpt><trkpt lat="44.29152803567084" lon="10.886906121258699"><ele>290.6</ele><time>2026-05-02T14:31:04.958Z</time></trkpt><trkpt lat="44.29151564866554" lon="10.887045650258493"><ele>292.40000000000003</ele><time>2026-05-02T14:31:05.958Z</time></trkpt><trkpt lat="44.2915044642475" lon="10.887179390945995"><ele>294.2</ele><time>2026-05-02T14:31:06.958Z</time></trkpt><trkpt lat="44.29149158646822" lon="10.887305972689576"><ele>296.0</ele><time>2026-05-02T14:31:07.958Z</time></trkpt><trkpt lat="44.291473564744585" lon="10.887426709466226"><ele>296.0</ele><time>2026-05-02T14:31:08.958Z</time></trkpt><trkpt lat="44.29142641930659" lon="10.887538423053716"><ele>296.0</ele><time>2026-05-02T14:31:09.959Z</time></trkpt><trkpt lat="44.291343981083614" lon="10.88760739814369"><ele>296.0</ele><time>2026-05-02T14:31:10.959Z</time></trkpt><trkpt lat="44.291283417162155" lon="10.887690969608181"><ele>296.0</ele><time>2026-05-02T14:31:11.959Z</time></trkpt><trkpt lat="44.291209640662196" lon="10.887766633557872"><ele>296.0</ele><time>2026-05-02T14:31:12.959Z</time></trkpt><trkpt lat="44.291142735211714" lon="10.887847573129624"><ele>297.83333333333337</ele><time>2026-05-02T14:31:13.959Z</time></trkpt><trkpt lat="44.29108621543921" lon="10.887944413771077"><ele>299.6666666666667</ele><time>2026-05-02T14:31:14.959Z</time></trkpt><trkpt lat="44.291042775870345" lon="10.888053343082529"><ele>301.5</ele><time>2026-05-02T14:31:15.96Z</time></trkpt><trkpt lat="44.29101759135868" lon="10.888158241370613"><ele>303.3333333333333</ele><time>2026-05-02T14:31:16.96Z</time></trkpt><trkpt lat="44.291013920572205" lon="10.888269000973919"><ele>305.16666666666663</ele><time>2026-05-02T14:31:17.96Z</time></trkpt><trkpt lat="44.29104528630417" lon="10.88837518094349"><ele>307.0</ele><time>2026-05-02T14:31:18.96Z</time></trkpt><trkpt lat="44.29109777250322" lon="10.888451455721652"><ele>307.0</ele><time>2026-05-02T14:31:19.96Z</time></trkpt><trkpt lat="44.291158218330644" lon="10.888541353482795"><ele>307.0</ele><time>2026-05-02T14:31:20.96Z</time></trkpt><trkpt lat="44.2912218847058" lon="10.88862496536692"><ele>307.0</ele><time>2026-05-02T14:31:21.96Z</time></trkpt><trkpt lat="44.291275219924906" lon="10.88872772787665"><ele>307.0</ele><time>2026-05-02T14:31:22.961Z</time></trkpt><trkpt lat="44.29130461063387" lon="10.888846180392207"><ele>307.0</ele><time>2026-05-02T14:31:23.961Z</time></trkpt><trkpt lat="44.29131714709245" lon="10.888978749613456"><ele>307.0</ele><time>2026-05-02T14:31:24.961Z</time></trkpt><trkpt lat="44.291317141359706" lon="10.889107559315105"><ele>307.0</ele><time>2026-05-02T14:31:25.961Z</time></trkpt><trkpt lat="44.291312771266504" lon="10.889213179949245"><ele>307.0</ele><time>2026-05-02T14:31:26.961Z</time></trkpt><trkpt lat="44.29128323635185" lon="10.88934065313068"><ele>307.0</ele><time>2026-05-02T14:31:27.961Z</time></trkpt><trkpt lat="44.29123766912094" lon="10.889444151665488"><ele>307.0</ele><time>2026-05-02T14:31:28.961Z</time></trkpt><trkpt lat="44.29118290597443" lon="10.889539155847835"><ele>307.0</ele><time>2026-05-02T14:31:29.961Z</time></trkpt><trkpt lat="44.29111610641438" lon="10.889630594787498"><ele>308.0</ele><time>2026-05-02T14:31:30.961Z</time></trkpt><trkpt lat="44.29104636022537" lon="10.889713535952206"><ele>309.0</ele><time>2026-05-02T14:31:31.961Z</time></trkpt><trkpt lat="44.29095528400699" lon="10.889786023641756"><ele>310.0</ele><time>2026-05-02T14:31:32.961Z</time></trkpt><trkpt lat="44.29086772463754" lon="10.889843319960391"><ele>311.0</ele><time>2026-05-02T14:31:33.961Z</time></trkpt><trkpt lat="44.290772266343176" lon="10.889883915516947"><ele>312.0</ele><time>2026-05-02T14:31:34.961Z</time></trkpt><trkpt lat="44.29067532916866" lon="10.889925353601203"><ele>312.8</ele><time>2026-05-02T14:31:35.962Z</time></trkpt><trkpt lat="44.29057415965535" lon="10.889939844044799"><ele>313.6</ele><time>2026-05-02T14:31:36.962Z</time></trkpt><trkpt lat="44.29046835108102" lon="10.889960198909725"><ele>314.40000000000003</ele><time>2026-05-02T14:31:37.962Z</time></trkpt><trkpt lat="44.29036500614381" lon="10.889977884617162"><ele>315.2</ele><time>2026-05-02T14:31:38.962Z</time></trkpt><trkpt lat="44.290263441026745" lon="10.890003804557686"><ele>316.0</ele><time>2026-05-02T14:31:39.962Z</time></trkpt><trkpt lat="44.29016172117819" lon="10.890026214658887"><ele>316.0</ele><time>2026-05-02T14:31:40.962Z</time></trkpt><trkpt lat="44.29006288871869" lon="10.890055832680408"><ele>316.0</ele><time>2026-05-02T14:31:41.962Z</time></trkpt><trkpt lat="44.28996301948781" lon="10.890092393474285"><ele>316.0</ele><time>2026-05-02T14:31:42.962Z</time></trkpt><trkpt lat="44.28985337966117" lon="10.890119647197945"><ele>316.0</ele><time>2026-05-02T14:31:43.962Z</time></trkpt><trkpt lat="44.289756192625006" lon="10.890166194642708"><ele>316.0</ele><time>2026-05-02T14:31:44.962Z</time></trkpt><trkpt lat="44.28966062400916" lon="10.890217639562351"><ele>318.20000000000005</ele><time>2026-05-02T14:31:45.962Z</time></trkpt><trkpt lat="44.28955939857575" lon="10.89026718166877"><ele>320.40000000000003</ele><time>2026-05-02T14:31:46.962Z</time></trkpt><trkpt lat="44.289461702451185" lon="10.8903165440348"><ele>322.6</ele><time>2026-05-02T14:31:47.962Z</time></trkpt><trkpt lat="44.289365680166945" lon="10.890374298782337"><ele>324.8</ele><time>2026-05-02T14:31:48.962Z</time></trkpt><trkpt lat="44.28926980079055" lon="10.890433294721358"><ele>327.0</ele><time>2026-05-02T14:31:49.962Z</time></trkpt><trkpt lat="44.28916586219868" lon="10.890467029311184"><ele>327.0</ele><time>2026-05-02T14:31:50.962Z</time></trkpt><trkpt lat="44.289067053383995" lon="10.890516302646704"><ele>327.0</ele><time>2026-05-02T14:31:51.962Z</time></trkpt><trkpt lat="44.28896279601314" lon="10.890562642776025"><ele>327.0</ele><time>2026-05-02T14:31:52.962Z</time></trkpt><trkpt lat="44.2888634122822" lon="10.89060225690804"><ele>327.0</ele><time>2026-05-02T14:31:53.962Z</time></trkpt><trkpt lat="44.28877433054545" lon="10.890641732375475"><ele>327.0</ele><time>2026-05-02T14:31:54.962Z</time></trkpt><trkpt lat="44.28868060201176" lon="10.890677780955995"><ele>326.8</ele><time>2026-05-02T14:31:55.962Z</time></trkpt><trkpt lat="44.28858656759007" lon="10.89070792212278"><ele>326.6</ele><time>2026-05-02T14:31:56.962Z</time></trkpt><trkpt lat="44.288485210071364" lon="10.890715655646542"><ele>326.40000000000003</ele><time>2026-05-02T14:31:57.962Z</time></trkpt><trkpt lat="44.28838301620323" lon="10.890703003968099"><ele>326.20000000000005</ele><time>2026-05-02T14:31:58.962Z</time></trkpt><trkpt lat="44.28828514204508" lon="10.890673286731774"><ele>326.0</ele><time>2026-05-02T14:31:59.963Z</time></trkpt><trkpt lat="44.28818613246994" lon="10.890635477419556"><ele>326.0</ele><time>2026-05-02T14:32:00.963Z</time></trkpt><trkpt lat="44.2880965494893" lon="10.890596115266709"><ele>326.0</ele><time>2026-05-02T14:32:01.963Z</time></trkpt><trkpt lat="44.288013422750424" lon="10.890556596313901"><ele>326.0</ele><time>2026-05-02T14:32:02.963Z</time></trkpt><trkpt lat="44.287922105238394" lon="10.890513645423447"><ele>326.0</ele><time>2026-05-02T14:32:03.963Z</time></trkpt><trkpt lat="44.28783336886478" lon="10.890470171835851"><ele>326.0</ele><time>2026-05-02T14:32:04.963Z</time></trkpt><trkpt lat="44.287754386784066" lon="10.890428478906408"><ele>326.0</ele><time>2026-05-02T14:32:05.963Z</time></trkpt><trkpt lat="44.28767080971428" lon="10.890400815751534"><ele>326.0</ele><time>2026-05-02T14:32:06.963Z</time></trkpt><trkpt lat="44.287578304723965" lon="10.890376799281821"><ele>326.0</ele><time>2026-05-02T14:32:07.963Z</time></trkpt><trkpt lat="44.28748301115923" lon="10.890360074281588"><ele>326.0</ele><time>2026-05-02T14:32:08.963Z</time></trkpt><trkpt lat="44.28737633793325" lon="10.890331823001716"><ele>326.0</ele><time>2026-05-02T14:32:09.963Z</time></trkpt><trkpt lat="44.28728454044584" lon="10.89032886464774"><ele>326.0</ele><time>2026-05-02T14:32:10.963Z</time></trkpt><trkpt lat="44.2871984969044" lon="10.890317347966425"><ele>326.0</ele><time>2026-05-02T14:32:11.963Z</time></trkpt><trkpt lat="44.287099947960954" lon="10.890330278795492"><ele>326.0</ele><time>2026-05-02T14:32:12.963Z</time></trkpt><trkpt lat="44.287007241119326" lon="10.890360376680446"><ele>326.0</ele><time>2026-05-02T14:32:13.963Z</time></trkpt><trkpt lat="44.286914874992206" lon="10.890410152959296"><ele>326.0</ele><time>2026-05-02T14:32:14.963Z</time></trkpt><trkpt lat="44.28681752046988" lon="10.890492774809449"><ele>326.0</ele><time>2026-05-02T14:32:15.963Z</time></trkpt><trkpt lat="44.286739110893464" lon="10.890595914877272"><ele>326.0</ele><time>2026-05-02T14:32:16.963Z</time></trkpt><trkpt lat="44.286669653036505" lon="10.890708346089433"><ele>326.0</ele><time>2026-05-02T14:32:17.963Z</time></trkpt><trkpt lat="44.28660570561479" lon="10.89082655044333"><ele>326.0</ele><time>2026-05-02T14:32:18.963Z</time></trkpt><trkpt lat="44.28655508590583" lon="10.890954964072415"><ele>326.0</ele><time>2026-05-02T14:32:19.963Z</time></trkpt><trkpt lat="44.28646615125171" lon="10.891062528179384"><ele>327.20000000000005</ele><time>2026-05-02T14:32:20.963Z</time></trkpt><trkpt lat="44.28638828105439" lon="10.891167331067836"><ele>328.40000000000003</ele><time>2026-05-02T14:32:21.963Z</time></trkpt><trkpt lat="44.28630339397985" lon="10.89127916883366"><ele>329.6</ele><time>2026-05-02T14:32:22.963Z</time></trkpt><trkpt lat="44.286201297656" lon="10.891362475265183"><ele>330.8</ele><time>2026-05-02T14:32:23.963Z</time></trkpt><trkpt lat="44.28611870537033" lon="10.89144266433773"><ele>332.0</ele><time>2026-05-02T14:32:24.963Z</time></trkpt><trkpt lat="44.286019441080704" lon="10.891506839373369"><ele>332.0</ele><time>2026-05-02T14:32:25.963Z</time></trkpt><trkpt lat="44.28592286444829" lon="10.891531767605477"><ele>332.0</ele><time>2026-05-02T14:32:26.963Z</time></trkpt><trkpt lat="44.285818837046435" lon="10.891528025764197"><ele>332.0</ele><time>2026-05-02T14:32:27.963Z</time></trkpt><trkpt lat="44.28572275830487" lon="10.891501365987319"><ele>332.0</ele><time>2026-05-02T14:32:28.963Z</time></trkpt><trkpt lat="44.28564264722666" lon="10.891465313181177"><ele>332.0</ele><time>2026-05-02T14:32:29.963Z</time></trkpt><trkpt lat="44.28557112864781" lon="10.891422070604602"><ele>331.83333333333337</ele><time>2026-05-02T14:32:30.963Z</time></trkpt><trkpt lat="44.28549987943896" lon="10.891383634098633"><ele>331.6666666666667</ele><time>2026-05-02T14:32:31.963Z</time></trkpt><trkpt lat="44.28542780108122" lon="10.891345615274284"><ele>331.5</ele><time>2026-05-02T14:32:32.963Z</time></trkpt><trkpt lat="44.2853483071302" lon="10.8913200792556"><ele>331.3333333333333</ele><time>2026-05-02T14:32:33.963Z</time></trkpt><trkpt lat="44.28527519484807" lon="10.891322289510779"><ele>331.16666666666663</ele><time>2026-05-02T14:32:34.963Z</time></trkpt><trkpt lat="44.2851969982409" lon="10.891331509675858"><ele>331.0</ele><time>2026-05-02T14:32:35.963Z</time></trkpt><trkpt lat="44.28511750254068" lon="10.891382839535886"><ele>331.0</ele><time>2026-05-02T14:32:36.963Z</time></trkpt><trkpt lat="44.28504288148322" lon="10.89147650828345"><ele>331.0</ele><time>2026-05-02T14:32:37.964Z</time></trkpt><trkpt lat="44.28497819361618" lon="10.891578015758615"><ele>331.0</ele><time>2026-05-02T14:32:38.964Z</time></trkpt><trkpt lat="44.28491134015324" lon="10.891681798675132"><ele>331.0</ele><time>2026-05-02T14:32:39.964Z</time></trkpt><trkpt lat="44.28484136946779" lon="10.89179746820411"><ele>331.0</ele><time>2026-05-02T14:32:40.964Z</time></trkpt><trkpt lat="44.28477431873563" lon="10.891911712745715"><ele>331.4</ele><time>2026-05-02T14:32:41.964Z</time></trkpt><trkpt lat="44.284725004983876" lon="10.892035193086492"><ele>331.8</ele><time>2026-05-02T14:32:42.964Z</time></trkpt><trkpt lat="44.284656658044135" lon="10.892146126660311"><ele>332.2</ele><time>2026-05-02T14:32:43.964Z</time></trkpt><trkpt lat="44.28460164412188" lon="10.89224337722067"><ele>332.59999999999997</ele><time>2026-05-02T14:32:44.964Z</time></trkpt><trkpt lat="44.28454877176332" lon="10.892347390623463"><ele>333.0</ele><time>2026-05-02T14:32:45.964Z</time></trkpt><trkpt lat="44.284489500748144" lon="10.892427511411153"><ele>333.0</ele><time>2026-05-02T14:32:46.964Z</time></trkpt><trkpt lat="44.28443785142742" lon="10.892504975459675"><ele>333.0</ele><time>2026-05-02T14:32:47.964Z</time></trkpt><trkpt lat="44.28439223744265" lon="10.892584615763969"><ele>333.0</ele><time>2026-05-02T14:32:48.964Z</time></trkpt><trkpt lat="44.284332208616185" lon="10.89262785758871"><ele>333.0</ele><time>2026-05-02T14:32:49.964Z</time></trkpt><trkpt lat="44.28423913967932" lon="10.892670410388519"><ele>333.0</ele><time>2026-05-02T14:32:51.964Z</time></trkpt><trkpt lat="44.284173055302944" lon="10.89266832333892"><ele>333.0</ele><time>2026-05-02T14:32:53.964Z</time></trkpt><trkpt lat="44.28419241661791" lon="10.892833291692984"><ele>335.79999999999995</ele><time>2026-05-02T14:32:55.964Z</time></trkpt><trkpt lat="44.28429069546396" lon="10.89282786309532"><ele>338.6</ele><time>2026-05-02T14:32:57.964Z</time></trkpt><trkpt lat="44.284379030019025" lon="10.892824884215113"><ele>341.4</ele><time>2026-05-02T14:32:59.964Z</time></trkpt><trkpt lat="44.28449644730805" lon="10.892811109296439"><ele>344.20000000000005</ele><time>2026-05-02T14:33:01.964Z</time></trkpt><trkpt lat="44.28462230289555" lon="10.892788543750031"><ele>347.0</ele><time>2026-05-02T14:33:03.964Z</time></trkpt><trkpt lat="44.28468649485082" lon="10.892764135142702"><ele>348.0</ele><time>2026-05-02T14:33:04.964Z</time></trkpt><trkpt lat="44.2848023180971" lon="10.892743369266636"><ele>349.0</ele><time>2026-05-02T14:33:06.964Z</time></trkpt><trkpt lat="44.28485904225994" lon="10.892787395198521"><ele>350.0</ele><time>2026-05-02T14:33:07.964Z</time></trkpt><trkpt lat="44.284911972841925" lon="10.89283915383081"><ele>351.0</ele><time>2026-05-02T14:33:08.964Z</time></trkpt><trkpt lat="44.284947630901904" lon="10.892918374728714"><ele>352.0</ele><time>2026-05-02T14:33:09.961Z</time></trkpt><trkpt lat="44.28496443968428" lon="10.89301605361175"><ele>353.0</ele><time>2026-05-02T14:33:10.961Z</time></trkpt><trkpt lat="44.284950635065414" lon="10.893186189352203"><ele>353.0</ele><time>2026-05-02T14:33:12.961Z</time></trkpt><trkpt lat="44.2849077873621" lon="10.89328562812389"><ele>353.0</ele><time>2026-05-02T14:33:13.961Z</time></trkpt><trkpt lat="44.28485621069329" lon="10.893352687181673"><ele>353.0</ele><time>2026-05-02T14:33:14.961Z</time></trkpt><trkpt lat="44.28479845395701" lon="10.893435187711658"><ele>353.0</ele><time>2026-05-02T14:33:15.961Z</time></trkpt><trkpt lat="44.284738255117055" lon="10.893535090874064"><ele>353.0</ele><time>2026-05-02T14:33:16.961Z</time></trkpt><trkpt lat="44.28470382054636" lon="10.893659944094509"><ele>353.0</ele><time>2026-05-02T14:33:17.961Z</time></trkpt><trkpt lat="44.2846995051008" lon="10.893791812945935"><ele>355.0</ele><time>2026-05-02T14:33:18.961Z</time></trkpt><trkpt lat="44.28473115716923" lon="10.893910787498374"><ele>357.0</ele><time>2026-05-02T14:33:19.961Z</time></trkpt><trkpt lat="44.28475616464506" lon="10.894040708737935"><ele>359.0</ele><time>2026-05-02T14:33:20.961Z</time></trkpt><trkpt lat="44.2848099092391" lon="10.89416101627764"><ele>361.0</ele><time>2026-05-02T14:33:21.961Z</time></trkpt><trkpt lat="44.284878805572085" lon="10.894272568503263"><ele>363.0</ele><time>2026-05-02T14:33:22.961Z</time></trkpt><trkpt lat="44.284960118235055" lon="10.894364887652229"><ele>368.4</ele><time>2026-05-02T14:33:23.961Z</time></trkpt><trkpt lat="44.285065112630285" lon="10.894430065381817"><ele>373.79999999999995</ele><time>2026-05-02T14:33:24.961Z</time></trkpt><trkpt lat="44.285179630257964" lon="10.894435474404688"><ele>379.2</ele><time>2026-05-02T14:33:25.961Z</time></trkpt><trkpt lat="44.28527693983225" lon="10.894413619398293"><ele>384.6</ele><time>2026-05-02T14:33:26.961Z</time></trkpt><trkpt lat="44.285381481645864" lon="10.89439283263751"><ele>390.0</ele><time>2026-05-02T14:33:27.961Z</time></trkpt><trkpt lat="44.28548205323842" lon="10.894375192892499"><ele>390.0</ele><time>2026-05-02T14:33:28.961Z</time></trkpt><trkpt lat="44.285562553104654" lon="10.894373876494726"><ele>390.0</ele><time>2026-05-02T14:33:29.961Z</time></trkpt><trkpt lat="44.28563607536284" lon="10.89438915686573"><ele>390.0</ele><time>2026-05-02T14:33:30.961Z</time></trkpt><trkpt lat="44.28569356290112" lon="10.8944272985122"><ele>390.0</ele><time>2026-05-02T14:33:31.961Z</time></trkpt><trkpt lat="44.28576326093694" lon="10.894533830514572"><ele>390.0</ele><time>2026-05-02T14:33:33.961Z</time></trkpt><trkpt lat="44.285831090925335" lon="10.894664033273708"><ele>390.0</ele><time>2026-05-02T14:33:35.961Z</time></trkpt><trkpt lat="44.28587109324158" lon="10.894733120631019"><ele>391.2</ele><time>2026-05-02T14:33:36.961Z</time></trkpt><trkpt lat="44.28591268915953" lon="10.894799339214263"><ele>392.4</ele><time>2026-05-02T14:33:37.961Z</time></trkpt><trkpt lat="44.28594945496488" lon="10.894871659079213"><ele>393.6</ele><time>2026-05-02T14:33:38.961Z</time></trkpt><trkpt lat="44.28596077547911" lon="10.895024094526413"><ele>394.8</ele><time>2026-05-02T14:33:40.961Z</time></trkpt><trkpt lat="44.2859475995811" lon="10.895182009545127"><ele>396.0</ele><time>2026-05-02T14:33:42.961Z</time></trkpt><trkpt lat="44.28589828357214" lon="10.895327677042737"><ele>398.6666666666667</ele><time>2026-05-02T14:33:44.961Z</time></trkpt><trkpt lat="44.28585608654354" lon="10.895458458171447"><ele>401.33333333333337</ele><time>2026-05-02T14:33:46.961Z</time></trkpt><trkpt lat="44.28582268110882" lon="10.895590041159307"><ele>404.0</ele><time>2026-05-02T14:33:48.961Z</time></trkpt><trkpt lat="44.28578679957258" lon="10.895701367075022"><ele>406.6666666666667</ele><time>2026-05-02T14:33:50.961Z</time></trkpt><trkpt lat="44.285772627167105" lon="10.895794982552477"><ele>409.33333333333337</ele><time>2026-05-02T14:33:52.961Z</time></trkpt><trkpt lat="44.2857865296867" lon="10.895910237139844"><ele>412.0</ele><time>2026-05-02T14:33:56.961Z</time></trkpt><trkpt lat="44.2858363653835" lon="10.895978893862555"><ele>414.33333333333337</ele><time>2026-05-02T14:34:13.962Z</time></trkpt><trkpt lat="44.28589091649298" lon="10.896045247663917"><ele>416.6666666666667</ele><time>2026-05-02T14:34:15.962Z</time></trkpt><trkpt lat="44.28596190259249" lon="10.896054274235382"><ele>419.0</ele><time>2026-05-02T14:34:17.962Z</time></trkpt><trkpt lat="44.28603169647364" lon="10.896061832309577"><ele>421.33333333333337</ele><time>2026-05-02T14:34:20.962Z</time></trkpt><trkpt lat="44.286124195872674" lon="10.896078276514048"><ele>423.6666666666667</ele><time>2026-05-02T14:34:22.962Z</time></trkpt><trkpt lat="44.286195861611176" lon="10.896108373674515"><ele>426.0</ele><time>2026-05-02T14:34:24.962Z</time></trkpt><trkpt lat="44.286263357834436" lon="10.896211487010358"><ele>426.0</ele><time>2026-05-02T14:34:26.962Z</time></trkpt><trkpt lat="44.28632034251266" lon="10.896366573163368"><ele>426.0</ele><time>2026-05-02T14:34:28.962Z</time></trkpt><trkpt lat="44.28635371697622" lon="10.89649577887281"><ele>426.0</ele><time>2026-05-02T14:34:30.962Z</time></trkpt><trkpt lat="44.28639596930201" lon="10.896578638145016"><ele>426.0</ele><time>2026-05-02T14:34:33.962Z</time></trkpt><trkpt lat="44.28644714189073" lon="10.89668079040596"><ele>426.0</ele><time>2026-05-02T14:34:36.962Z</time></trkpt><trkpt lat="44.286486306276686" lon="10.896763871165964"><ele>430.0</ele><time>2026-05-02T14:34:38.962Z</time></trkpt><trkpt lat="44.286506690354635" lon="10.896891833812303"><ele>434.0</ele><time>2026-05-02T14:34:40.963Z</time></trkpt><trkpt lat="44.28654772293018" lon="10.897017342747663"><ele>438.0</ele><time>2026-05-02T14:34:42.963Z</time></trkpt><trkpt lat="44.2865992540401" lon="10.897111348092821"><ele>442.0</ele><time>2026-05-02T14:34:44.963Z</time></trkpt><trkpt lat="44.28659815464101" lon="10.897235855447045"><ele>446.0</ele><time>2026-05-02T14:34:46.963Z</time></trkpt><trkpt lat="44.286568482275044" lon="10.897382789974941"><ele>445.99999999999994</ele><time>2026-05-02T14:34:48.963Z</time></trkpt><trkpt lat="44.28652652079113" lon="10.897457696855605"><ele>446.0</ele><time>2026-05-02T14:34:49.963Z</time></trkpt><trkpt lat="44.286423009303675" lon="10.897552268194367"><ele>446.0</ele><time>2026-05-02T14:34:51.963Z</time></trkpt><trkpt lat="44.28636669282259" lon="10.897592990855165"><ele>446.0</ele><time>2026-05-02T14:34:52.963Z</time></trkpt><trkpt lat="44.28630717392961" lon="10.897639624153381"><ele>445.99999999999994</ele><time>2026-05-02T14:34:53.963Z</time></trkpt><trkpt lat="44.28625061526437" lon="10.897682154446375"><ele>446.0</ele><time>2026-05-02T14:34:54.963Z</time></trkpt><trkpt lat="44.286147734583885" lon="10.89776005475628"><ele>446.3333333333333</ele><time>2026-05-02T14:34:56.963Z</time></trkpt><trkpt lat="44.286050261088725" lon="10.897833569299083"><ele>446.66666666666663</ele><time>2026-05-02T14:34:58.963Z</time></trkpt><trkpt lat="44.28597693499668" lon="10.897911109872934"><ele>447.0</ele><time>2026-05-02T14:35:00.963Z</time></trkpt><trkpt lat="44.28591826021531" lon="10.897952355877955"><ele>447.33333333333337</ele><time>2026-05-02T14:35:02.963Z</time></trkpt><trkpt lat="44.28585022087473" lon="10.897987047909497"><ele>447.6666666666667</ele><time>2026-05-02T14:35:05.963Z</time></trkpt><trkpt lat="44.285771827493654" lon="10.898031859820138"><ele>448.0</ele><time>2026-05-02T14:35:11.963Z</time></trkpt><trkpt lat="44.28568567605919" lon="10.89804256002591"><ele>448.0</ele><time>2026-05-02T14:35:15.961Z</time></trkpt><trkpt lat="44.285613540346134" lon="10.898073291322104"><ele>447.99999999999994</ele><time>2026-05-02T14:35:18.96Z</time></trkpt><trkpt lat="44.28553898670289" lon="10.897880390909934"><ele>447.99999999999994</ele><time>2026-05-02T14:41:54.964Z</time></trkpt><trkpt lat="44.28554126856884" lon="10.89799608895981"><ele>448.0</ele><time>2026-05-02T14:48:49.976Z</time></trkpt><trkpt lat="44.285575388511646" lon="10.898097461416596"><ele>448.0</ele><time>2026-05-02T14:48:52.976Z</time></trkpt><trkpt lat="44.285570272029375" lon="10.898202053236096"><ele>447.2</ele><time>2026-05-02T14:48:55.976Z</time></trkpt><trkpt lat="44.28553675940934" lon="10.898319034881911"><ele>446.4</ele><time>2026-05-02T14:48:57.976Z</time></trkpt><trkpt lat="44.28551337117614" lon="10.898448325076213"><ele>445.59999999999997</ele><time>2026-05-02T14:48:59.976Z</time></trkpt><trkpt lat="44.28548264803017" lon="10.898576781211124"><ele>444.79999999999995</ele><time>2026-05-02T14:49:01.976Z</time></trkpt><trkpt lat="44.285462497920335" lon="10.898680335264624"><ele>444.0</ele><time>2026-05-02T14:49:03.976Z</time></trkpt><trkpt lat="44.28542234743043" lon="10.898818622426605"><ele>445.79999999999995</ele><time>2026-05-02T14:49:05.976Z</time></trkpt><trkpt lat="44.28538914358852" lon="10.898969109999369"><ele>447.59999999999997</ele><time>2026-05-02T14:49:07.976Z</time></trkpt><trkpt lat="44.28538233785635" lon="10.899126046926852"><ele>449.4</ele><time>2026-05-02T14:49:09.977Z</time></trkpt><trkpt lat="44.285386811487335" lon="10.899293193760112"><ele>451.2</ele><time>2026-05-02T14:49:11.977Z</time></trkpt><trkpt lat="44.285384564226575" lon="10.899381659377331"><ele>453.0</ele><time>2026-05-02T14:49:12.977Z</time></trkpt><trkpt lat="44.28542488438949" lon="10.899527790248982"><ele>456.79999999999995</ele><time>2026-05-02T14:49:14.977Z</time></trkpt><trkpt lat="44.28542999269271" lon="10.899677117356706"><ele>460.59999999999997</ele><time>2026-05-02T14:49:16.977Z</time></trkpt><trkpt lat="44.28537818537784" lon="10.899796982303853"><ele>464.40000000000003</ele><time>2026-05-02T14:49:18.977Z</time></trkpt><trkpt lat="44.28529649948525" lon="10.899892100023363"><ele>468.20000000000005</ele><time>2026-05-02T14:49:20.977Z</time></trkpt><trkpt lat="44.285199289474136" lon="10.899953150613062"><ele>472.0</ele><time>2026-05-02T14:49:22.977Z</time></trkpt><trkpt lat="44.285081294671" lon="10.899965761488376"><ele>472.0</ele><time>2026-05-02T14:49:24.977Z</time></trkpt><trkpt lat="44.284968310252204" lon="10.899971806822258"><ele>472.00000000000006</ele><time>2026-05-02T14:49:26.977Z</time></trkpt><trkpt lat="44.28485955424545" lon="10.899958387602208"><ele>472.00000000000006</ele><time>2026-05-02T14:49:28.977Z</time></trkpt><trkpt lat="44.28479147323296" lon="10.899941754835957"><ele>472.0</ele><time>2026-05-02T14:49:31.977Z</time></trkpt><trkpt lat="44.28471017958008" lon="10.899944507608746"><ele>472.0</ele><time>2026-05-02T14:49:35.977Z</time></trkpt><trkpt lat="44.28476778786785" lon="10.90011684392287"><ele>475.83333333333337</ele><time>2026-05-02T14:49:40.977Z</time></trkpt><trkpt lat="44.28486125134152" lon="10.900180458088427"><ele>479.6666666666667</ele><time>2026-05-02T14:49:42.977Z</time></trkpt><trkpt lat="44.284955091515826" lon="10.900253712384457"><ele>483.5</ele><time>2026-05-02T14:49:44.977Z</time></trkpt><trkpt lat="44.28501304539992" lon="10.900308215978482"><ele>487.33333333333337</ele><time>2026-05-02T14:49:45.977Z</time></trkpt><trkpt lat="44.28507628699396" lon="10.90036306542504"><ele>491.1666666666667</ele><time>2026-05-02T14:49:46.977Z</time></trkpt><trkpt lat="44.2851391742695" lon="10.900421460240475"><ele>495.0</ele><time>2026-05-02T14:49:47.977Z</time></trkpt><trkpt lat="44.285205619025895" lon="10.90047941240712"><ele>495.0</ele><time>2026-05-02T14:49:48.978Z</time></trkpt><trkpt lat="44.28527349417375" lon="10.900539111407593"><ele>495.0</ele><time>2026-05-02T14:49:49.978Z</time></trkpt><trkpt lat="44.28534508263222" lon="10.900600908419191"><ele>495.0</ele><time>2026-05-02T14:49:50.978Z</time></trkpt><trkpt lat="44.28541877829703" lon="10.900666620471789"><ele>495.0</ele><time>2026-05-02T14:49:51.978Z</time></trkpt><trkpt lat="44.285493109730204" lon="10.90073815270089"><ele>495.0</ele><time>2026-05-02T14:49:52.978Z</time></trkpt><trkpt lat="44.28556701897558" lon="10.900808282632054"><ele>495.0</ele><time>2026-05-02T14:49:53.978Z</time></trkpt><trkpt lat="44.285637088928404" lon="10.900874022113289"><ele>497.8333333333333</ele><time>2026-05-02T14:49:54.978Z</time></trkpt><trkpt lat="44.28570070942695" lon="10.900932803628278"><ele>500.66666666666663</ele><time>2026-05-02T14:49:55.978Z</time></trkpt><trkpt lat="44.28576662094164" lon="10.90098957560179"><ele>503.5</ele><time>2026-05-02T14:49:56.978Z</time></trkpt><trkpt lat="44.28584030917927" lon="10.901048071235849"><ele>506.3333333333333</ele><time>2026-05-02T14:49:57.975Z</time></trkpt><trkpt lat="44.28591495882982" lon="10.901107140494792"><ele>509.16666666666663</ele><time>2026-05-02T14:49:58.975Z</time></trkpt><trkpt lat="44.28598981998789" lon="10.901159784894457"><ele>512.0</ele><time>2026-05-02T14:49:59.975Z</time></trkpt><trkpt lat="44.28607038323077" lon="10.901214262208509"><ele>512.0</ele><time>2026-05-02T14:50:00.976Z</time></trkpt><trkpt lat="44.2861538557841" lon="10.901267710140836"><ele>512.0</ele><time>2026-05-02T14:50:01.976Z</time></trkpt><trkpt lat="44.286243187122246" lon="10.90132504586979"><ele>512.0</ele><time>2026-05-02T14:50:02.976Z</time></trkpt><trkpt lat="44.28633421488651" lon="10.901382727750805"><ele>512.0</ele><time>2026-05-02T14:50:03.976Z</time></trkpt><trkpt lat="44.28642884119413" lon="10.901441653389266"><ele>512.0</ele><time>2026-05-02T14:50:04.975Z</time></trkpt><trkpt lat="44.28652192986618" lon="10.901490054775559"><ele>511.0</ele><time>2026-05-02T14:50:05.975Z</time></trkpt><trkpt lat="44.28661833223024" lon="10.901529860845011"><ele>510.00000000000006</ele><time>2026-05-02T14:50:06.976Z</time></trkpt><trkpt lat="44.286719311183745" lon="10.901553836723545"><ele>509.00000000000006</ele><time>2026-05-02T14:50:07.976Z</time></trkpt><trkpt lat="44.28682280072404" lon="10.901559008348991"><ele>508.0</ele><time>2026-05-02T14:50:08.976Z</time></trkpt><trkpt lat="44.28693287132159" lon="10.901555248499117"><ele>507.0</ele><time>2026-05-02T14:50:09.976Z</time></trkpt><trkpt lat="44.28704185692729" lon="10.901543040540016"><ele>507.0</ele><time>2026-05-02T14:50:10.976Z</time></trkpt><trkpt lat="44.287148818073575" lon="10.901521149234185"><ele>507.00000000000006</ele><time>2026-05-02T14:50:11.976Z</time></trkpt><trkpt lat="44.28724303979688" lon="10.90147274703527"><ele>507.00000000000006</ele><time>2026-05-02T14:50:12.976Z</time></trkpt><trkpt lat="44.28733034943992" lon="10.901392344247961"><ele>507.0</ele><time>2026-05-02T14:50:13.976Z</time></trkpt><trkpt lat="44.287398372431994" lon="10.901285945965675"><ele>507.0</ele><time>2026-05-02T14:50:14.976Z</time></trkpt><trkpt lat="44.287454434701836" lon="10.90119035768787"><ele>506.5</ele><time>2026-05-02T14:50:15.976Z</time></trkpt><trkpt lat="44.28752264940386" lon="10.901117327332964"><ele>506.0</ele><time>2026-05-02T14:50:16.976Z</time></trkpt><trkpt lat="44.28759536313871" lon="10.901061063194794"><ele>505.5</ele><time>2026-05-02T14:50:17.976Z</time></trkpt><trkpt lat="44.28767836072936" lon="10.901043722118741"><ele>505.0</ele><time>2026-05-02T14:50:18.976Z</time></trkpt><trkpt lat="44.28776905777517" lon="10.901035595114726"><ele>504.5</ele><time>2026-05-02T14:50:19.976Z</time></trkpt><trkpt lat="44.28786763044706" lon="10.901021574583384"><ele>504.0</ele><time>2026-05-02T14:50:20.976Z</time></trkpt><trkpt lat="44.287963021469395" lon="10.900993513169182"><ele>504.0</ele><time>2026-05-02T14:50:21.976Z</time></trkpt><trkpt lat="44.28806623323615" lon="10.900941864446475"><ele>504.0</ele><time>2026-05-02T14:50:22.976Z</time></trkpt><trkpt lat="44.2881616214768" lon="10.900850055314358"><ele>504.0</ele><time>2026-05-02T14:50:23.976Z</time></trkpt><trkpt lat="44.28824872016484" lon="10.900767245991775"><ele>504.0</ele><time>2026-05-02T14:50:24.976Z</time></trkpt><trkpt lat="44.28833499034473" lon="10.900681001981411"><ele>504.0</ele><time>2026-05-02T14:50:25.976Z</time></trkpt><trkpt lat="44.288406386560666" lon="10.900594895160916"><ele>504.1666666666667</ele><time>2026-05-02T14:50:26.976Z</time></trkpt><trkpt lat="44.28848151604462" lon="10.900507355409001"><ele>504.33333333333337</ele><time>2026-05-02T14:50:27.976Z</time></trkpt><trkpt lat="44.288563447784426" lon="10.900457259724053"><ele>504.5</ele><time>2026-05-02T14:50:28.976Z</time></trkpt><trkpt lat="44.28864090348831" lon="10.900460807419423"><ele>504.6666666666667</ele><time>2026-05-02T14:50:29.976Z</time></trkpt><trkpt lat="44.28870140245572" lon="10.900509429705973"><ele>504.83333333333337</ele><time>2026-05-02T14:50:30.976Z</time></trkpt><trkpt lat="44.288754897503594" lon="10.900583777970963"><ele>505.0</ele><time>2026-05-02T14:50:31.976Z</time></trkpt><trkpt lat="44.28880243019937" lon="10.900654040367465"><ele>505.0</ele><time>2026-05-02T14:50:32.976Z</time></trkpt><trkpt lat="44.28885670178591" lon="10.900778723687871"><ele>505.0</ele><time>2026-05-02T14:50:34.976Z</time></trkpt><trkpt lat="44.28886634626041" lon="10.900951901391794"><ele>505.0</ele><time>2026-05-02T14:50:36.976Z</time></trkpt><trkpt lat="44.28887777334044" lon="10.901065215666238"><ele>505.0</ele><time>2026-05-02T14:50:37.976Z</time></trkpt><trkpt lat="44.288870999376954" lon="10.901185794951937"><ele>505.0</ele><time>2026-05-02T14:50:38.977Z</time></trkpt><trkpt lat="44.288872481145255" lon="10.901304466035802"><ele>505.1666666666667</ele><time>2026-05-02T14:50:39.977Z</time></trkpt><trkpt lat="44.288876795805834" lon="10.901410397903945"><ele>505.33333333333337</ele><time>2026-05-02T14:50:40.977Z</time></trkpt><trkpt lat="44.28890133017253" lon="10.901512064636588"><ele>505.5</ele><time>2026-05-02T14:50:41.977Z</time></trkpt><trkpt lat="44.28893909964716" lon="10.901588833676467"><ele>505.66666666666663</ele><time>2026-05-02T14:50:42.977Z</time></trkpt><trkpt lat="44.28906712293688" lon="10.901616948650148"><ele>505.8333333333333</ele><time>2026-05-02T14:50:44.977Z</time></trkpt><trkpt lat="44.289135481966575" lon="10.901624244139105"><ele>506.0</ele><time>2026-05-02T14:50:45.977Z</time></trkpt><trkpt lat="44.28922030966929" lon="10.90157488415933"><ele>509.20000000000005</ele><time>2026-05-02T14:50:47.977Z</time></trkpt><trkpt lat="44.28931077262278" lon="10.901638217052092"><ele>512.4000000000001</ele><time>2026-05-02T14:50:49.977Z</time></trkpt><trkpt lat="44.28939733048746" lon="10.901698113392326"><ele>515.6</ele><time>2026-05-02T14:50:51.977Z</time></trkpt><trkpt lat="44.289494381357486" lon="10.901755327640188"><ele>518.8000000000001</ele><time>2026-05-02T14:50:53.977Z</time></trkpt><trkpt lat="44.289537999101505" lon="10.90186715653158"><ele>522.0</ele><time>2026-05-02T14:50:54.977Z</time></trkpt><trkpt lat="44.28958648591146" lon="10.901949207481001"><ele>522.2</ele><time>2026-05-02T14:50:55.977Z</time></trkpt><trkpt lat="44.28963678143612" lon="10.902050186196728"><ele>522.4000000000001</ele><time>2026-05-02T14:50:56.977Z</time></trkpt><trkpt lat="44.28969378865247" lon="10.902159269606376"><ele>522.5999999999999</ele><time>2026-05-02T14:50:57.977Z</time></trkpt><trkpt lat="44.28975656138958" lon="10.902268686632517"><ele>522.8</ele><time>2026-05-02T14:50:58.977Z</time></trkpt><trkpt lat="44.2898187356387" lon="10.902370561793742"><ele>523.0</ele><time>2026-05-02T14:50:59.977Z</time></trkpt><trkpt lat="44.28988728329862" lon="10.902467949040744"><ele>525.0</ele><time>2026-05-02T14:51:00.977Z</time></trkpt><trkpt lat="44.28996344405274" lon="10.902555144360365"><ele>527.0</ele><time>2026-05-02T14:51:01.977Z</time></trkpt><trkpt lat="44.29004998172187" lon="10.902634504296337"><ele>529.0</ele><time>2026-05-02T14:51:02.977Z</time></trkpt><trkpt lat="44.29013746402598" lon="10.902711460984131"><ele>531.0</ele><time>2026-05-02T14:51:03.977Z</time></trkpt><trkpt lat="44.290230196745675" lon="10.902788276339356"><ele>533.0</ele><time>2026-05-02T14:51:04.977Z</time></trkpt><trkpt lat="44.290322690711015" lon="10.902864179994703"><ele>534.0</ele><time>2026-05-02T14:51:05.977Z</time></trkpt><trkpt lat="44.290415595746424" lon="10.902936257728634"><ele>535.0</ele><time>2026-05-02T14:51:06.977Z</time></trkpt><trkpt lat="44.29050127712221" lon="10.902994655624505"><ele>536.0</ele><time>2026-05-02T14:51:07.977Z</time></trkpt><trkpt lat="44.29058506433374" lon="10.903047824177865"><ele>537.0</ele><time>2026-05-02T14:51:08.977Z</time></trkpt><trkpt lat="44.290632619792746" lon="10.903152167985116"><ele>538.0</ele><time>2026-05-02T14:51:09.977Z</time></trkpt><trkpt lat="44.290659822477465" lon="10.90324447057983"><ele>539.1666666666667</ele><time>2026-05-02T14:51:10.977Z</time></trkpt><trkpt lat="44.290660268376314" lon="10.903342462256784"><ele>540.3333333333334</ele><time>2026-05-02T14:51:11.977Z</time></trkpt><trkpt lat="44.29062104142506" lon="10.903426200866793"><ele>541.5</ele><time>2026-05-02T14:51:12.977Z</time></trkpt><trkpt lat="44.2905643052798" lon="10.903499805049083"><ele>542.6666666666666</ele><time>2026-05-02T14:51:13.977Z</time></trkpt><trkpt lat="44.290481815649976" lon="10.903523966298264"><ele>543.8333333333333</ele><time>2026-05-02T14:51:14.977Z</time></trkpt><trkpt lat="44.29040155948047" lon="10.903574501102051"><ele>545.0</ele><time>2026-05-02T14:51:15.977Z</time></trkpt><trkpt lat="44.290317084867695" lon="10.903627433504747"><ele>545.8</ele><time>2026-05-02T14:51:16.977Z</time></trkpt><trkpt lat="44.29022804847144" lon="10.903680377087433"><ele>546.6</ele><time>2026-05-02T14:51:17.977Z</time></trkpt><trkpt lat="44.29013224847986" lon="10.903735914953216"><ele>547.4</ele><time>2026-05-02T14:51:18.978Z</time></trkpt><trkpt lat="44.29003931965891" lon="10.9037909295121"><ele>548.2</ele><time>2026-05-02T14:51:19.978Z</time></trkpt><trkpt lat="44.28994660333504" lon="10.90384775222911"><ele>549.0</ele><time>2026-05-02T14:51:20.978Z</time></trkpt><trkpt lat="44.289857100403175" lon="10.903913228640585"><ele>549.0</ele><time>2026-05-02T14:51:21.978Z</time></trkpt><trkpt lat="44.28977635140319" lon="10.90397720587916"><ele>549.0</ele><time>2026-05-02T14:51:22.978Z</time></trkpt><trkpt lat="44.28969445964541" lon="10.904051143648497"><ele>549.0</ele><time>2026-05-02T14:51:23.978Z</time></trkpt><trkpt lat="44.28961055833473" lon="10.904120931034733"><ele>549.0</ele><time>2026-05-02T14:51:24.978Z</time></trkpt><trkpt lat="44.28953125504236" lon="10.904206268311523"><ele>549.0</ele><time>2026-05-02T14:51:25.978Z</time></trkpt><trkpt lat="44.28946189941075" lon="10.904296685127246"><ele>551.4</ele><time>2026-05-02T14:51:26.978Z</time></trkpt><trkpt lat="44.28937201510279" lon="10.904385861386345"><ele>553.8</ele><time>2026-05-02T14:51:27.978Z</time></trkpt><trkpt lat="44.28927943627149" lon="10.904472430477457"><ele>556.2</ele><time>2026-05-02T14:51:28.978Z</time></trkpt><trkpt lat="44.289176657382576" lon="10.904531163015333"><ele>558.6</ele><time>2026-05-02T14:51:29.978Z</time></trkpt><trkpt lat="44.289072230908815" lon="10.904583852341036"><ele>561.0</ele><time>2026-05-02T14:51:30.978Z</time></trkpt><trkpt lat="44.2889660316722" lon="10.90461381828158"><ele>563.75</ele><time>2026-05-02T14:51:31.978Z</time></trkpt><trkpt lat="44.2888557641643" lon="10.904612521866804"><ele>566.5</ele><time>2026-05-02T14:51:32.978Z</time></trkpt><trkpt lat="44.2887463798058" lon="10.904591850609588"><ele>569.25</ele><time>2026-05-02T14:51:33.978Z</time></trkpt><trkpt lat="44.2886443940755" lon="10.904556320193295"><ele>572.0</ele><time>2026-05-02T14:51:34.978Z</time></trkpt><trkpt lat="44.28853077893351" lon="10.904484574972953"><ele>572.0</ele><time>2026-05-02T14:51:35.978Z</time></trkpt><trkpt lat="44.288429200542474" lon="10.904447602525176"><ele>572.0</ele><time>2026-05-02T14:51:36.978Z</time></trkpt><trkpt lat="44.28832208768732" lon="10.904409061581882"><ele>572.0</ele><time>2026-05-02T14:51:37.978Z</time></trkpt><trkpt lat="44.28821224615036" lon="10.904356568012966"><ele>572.0</ele><time>2026-05-02T14:51:38.978Z</time></trkpt><trkpt lat="44.28810849184307" lon="10.904320865737805"><ele>572.0</ele><time>2026-05-02T14:51:39.978Z</time></trkpt><trkpt lat="44.288002871145025" lon="10.904286507211381"><ele>573.0</ele><time>2026-05-02T14:51:40.978Z</time></trkpt><trkpt lat="44.28789414715526" lon="10.904261726582579"><ele>574.0</ele><time>2026-05-02T14:51:41.978Z</time></trkpt><trkpt lat="44.287777135152" lon="10.90425042192629"><ele>575.0</ele><time>2026-05-02T14:51:42.978Z</time></trkpt><trkpt lat="44.28766195622036" lon="10.90425645147346"><ele>576.0</ele><time>2026-05-02T14:51:43.978Z</time></trkpt><trkpt lat="44.28754656915005" lon="10.904268047941938"><ele>576.0</ele><time>2026-05-02T14:51:44.978Z</time></trkpt><trkpt lat="44.28742674796235" lon="10.90426677452564"><ele>576.0</ele><time>2026-05-02T14:51:45.978Z</time></trkpt><trkpt lat="44.28731616272218" lon="10.904274278730325"><ele>576.0</ele><time>2026-05-02T14:51:46.978Z</time></trkpt><trkpt lat="44.28720300392276" lon="10.90425319645154"><ele>576.0</ele><time>2026-05-02T14:51:47.978Z</time></trkpt><trkpt lat="44.28709749480164" lon="10.904223259168258"><ele>572.8</ele><time>2026-05-02T14:51:48.978Z</time></trkpt><trkpt lat="44.28699675558609" lon="10.904158066076974"><ele>569.6</ele><time>2026-05-02T14:51:49.978Z</time></trkpt><trkpt lat="44.28690624248772" lon="10.904090602634206"><ele>566.4</ele><time>2026-05-02T14:51:50.978Z</time></trkpt><trkpt lat="44.28681706248085" lon="10.904046249066608"><ele>563.2</ele><time>2026-05-02T14:51:51.978Z</time></trkpt><trkpt lat="44.28671969018428" lon="10.904033350879155"><ele>560.0</ele><time>2026-05-02T14:51:52.978Z</time></trkpt><trkpt lat="44.286622370322206" lon="10.904042420275733"><ele>560.0</ele><time>2026-05-02T14:51:53.978Z</time></trkpt><trkpt lat="44.286524781645134" lon="10.904062862928116"><ele>560.0</ele><time>2026-05-02T14:51:54.978Z</time></trkpt><trkpt lat="44.28643267826947" lon="10.90412053911167"><ele>560.0</ele><time>2026-05-02T14:51:55.978Z</time></trkpt><trkpt lat="44.28637203035933" lon="10.90424846072283"><ele>560.0</ele><time>2026-05-02T14:51:56.978Z</time></trkpt><trkpt lat="44.28631938850668" lon="10.904357846601012"><ele>560.0</ele><time>2026-05-02T14:51:57.979Z</time></trkpt><trkpt lat="44.286293848055905" lon="10.90448671391121"><ele>557.8</ele><time>2026-05-02T14:51:58.979Z</time></trkpt><trkpt lat="44.28628280163084" lon="10.904625783401801"><ele>555.6</ele><time>2026-05-02T14:51:59.979Z</time></trkpt><trkpt lat="44.28629438407585" lon="10.904770006407995"><ele>553.4</ele><time>2026-05-02T14:52:00.979Z</time></trkpt><trkpt lat="44.286326626766204" lon="10.904899319227304"><ele>551.2</ele><time>2026-05-02T14:52:01.979Z</time></trkpt><trkpt lat="44.286361712094454" lon="10.905025155804646"><ele>549.0</ele><time>2026-05-02T14:52:02.979Z</time></trkpt><trkpt lat="44.28637120013635" lon="10.905184615172907"><ele>548.2</ele><time>2026-05-02T14:52:03.976Z</time></trkpt><trkpt lat="44.28640210340738" lon="10.905328252229111"><ele>547.4</ele><time>2026-05-02T14:52:04.976Z</time></trkpt><trkpt lat="44.286431149077984" lon="10.905481837017629"><ele>546.6</ele><time>2026-05-02T14:52:05.976Z</time></trkpt><trkpt lat="44.28645744122521" lon="10.905636271023235"><ele>545.8</ele><time>2026-05-02T14:52:06.976Z</time></trkpt><trkpt lat="44.28646328895931" lon="10.90579605559809"><ele>545.0</ele><time>2026-05-02T14:52:07.976Z</time></trkpt><trkpt lat="44.28644596259014" lon="10.905947973553502"><ele>546.0</ele><time>2026-05-02T14:52:08.977Z</time></trkpt><trkpt lat="44.286399928907215" lon="10.906073711445323"><ele>547.0</ele><time>2026-05-02T14:52:09.977Z</time></trkpt><trkpt lat="44.28632483198718" lon="10.906194871900542"><ele>548.0</ele><time>2026-05-02T14:52:10.976Z</time></trkpt><trkpt lat="44.28625093242846" lon="10.906323348040726"><ele>549.0</ele><time>2026-05-02T14:52:11.976Z</time></trkpt><trkpt lat="44.28618487381731" lon="10.906456213707825"><ele>549.0</ele><time>2026-05-02T14:52:12.976Z</time></trkpt><trkpt lat="44.28612234393636" lon="10.906594170061037"><ele>549.0</ele><time>2026-05-02T14:52:13.976Z</time></trkpt><trkpt lat="44.2860650051414" lon="10.906737256141714"><ele>549.0</ele><time>2026-05-02T14:52:14.976Z</time></trkpt><trkpt lat="44.286002632090394" lon="10.90689193694304"><ele>549.0</ele><time>2026-05-02T14:52:15.976Z</time></trkpt><trkpt lat="44.28596076381129" lon="10.907043866819086"><ele>550.2</ele><time>2026-05-02T14:52:16.976Z</time></trkpt><trkpt lat="44.285927507116256" lon="10.907196219785824"><ele>551.4</ele><time>2026-05-02T14:52:17.976Z</time></trkpt><trkpt lat="44.285890451924004" lon="10.907333777789132"><ele>552.6</ele><time>2026-05-02T14:52:18.976Z</time></trkpt><trkpt lat="44.28583612223929" lon="10.907457799856969"><ele>553.8</ele><time>2026-05-02T14:52:19.976Z</time></trkpt><trkpt lat="44.28576154121796" lon="10.907553254737543"><ele>555.0</ele><time>2026-05-02T14:52:20.976Z</time></trkpt><trkpt lat="44.28567079066485" lon="10.907624328994578"><ele>557.4</ele><time>2026-05-02T14:52:21.976Z</time></trkpt><trkpt lat="44.28557573386972" lon="10.907665151194179"><ele>559.8</ele><time>2026-05-02T14:52:22.976Z</time></trkpt><trkpt lat="44.28548103505393" lon="10.907700864474121"><ele>562.2</ele><time>2026-05-02T14:52:23.976Z</time></trkpt><trkpt lat="44.285382594328844" lon="10.907739310380759"><ele>564.6</ele><time>2026-05-02T14:52:24.977Z</time></trkpt><trkpt lat="44.285285684319206" lon="10.907786511389778"><ele>567.0</ele><time>2026-05-02T14:52:25.977Z</time></trkpt><trkpt lat="44.28519384214275" lon="10.90783646525682"><ele>567.0</ele><time>2026-05-02T14:52:26.977Z</time></trkpt><trkpt lat="44.2850969976064" lon="10.907889221693274"><ele>567.0</ele><time>2026-05-02T14:52:27.977Z</time></trkpt><trkpt lat="44.284999307142684" lon="10.907926461634103"><ele>567.0</ele><time>2026-05-02T14:52:28.977Z</time></trkpt><trkpt lat="44.28490170634122" lon="10.907937304466353"><ele>567.0</ele><time>2026-05-02T14:52:29.977Z</time></trkpt><trkpt lat="44.28480759383228" lon="10.907901334548585"><ele>567.0</ele><time>2026-05-02T14:52:30.977Z</time></trkpt><trkpt lat="44.284716959227076" lon="10.907835521061163"><ele>567.8000000000001</ele><time>2026-05-02T14:52:31.977Z</time></trkpt><trkpt lat="44.28463759800768" lon="10.907763662127369"><ele>568.6</ele><time>2026-05-02T14:52:32.977Z</time></trkpt><trkpt lat="44.28456041456141" lon="10.907702540456274"><ele>569.4000000000001</ele><time>2026-05-02T14:52:33.977Z</time></trkpt><trkpt lat="44.28448071344572" lon="10.907646718890554"><ele>570.2</ele><time>2026-05-02T14:52:34.977Z</time></trkpt><trkpt lat="44.28440031808153" lon="10.907580977408834"><ele>571.0</ele><time>2026-05-02T14:52:35.977Z</time></trkpt><trkpt lat="44.28432307323315" lon="10.907523390915157"><ele>567.8</ele><time>2026-05-02T14:52:36.977Z</time></trkpt><trkpt lat="44.284243285087115" lon="10.90746518114413"><ele>564.6</ele><time>2026-05-02T14:52:37.977Z</time></trkpt><trkpt lat="44.284160072256114" lon="10.90741792282914"><ele>561.4</ele><time>2026-05-02T14:52:38.977Z</time></trkpt><trkpt lat="44.28407380905136" lon="10.907380225404397"><ele>558.2</ele><time>2026-05-02T14:52:39.977Z</time></trkpt><trkpt lat="44.283982024794156" lon="10.907353955018598"><ele>555.0</ele><time>2026-05-02T14:52:40.977Z</time></trkpt><trkpt lat="44.28389061534874" lon="10.907343699224704"><ele>555.0</ele><time>2026-05-02T14:52:41.977Z</time></trkpt><trkpt lat="44.28379797583045" lon="10.9073543510667"><ele>555.0</ele><time>2026-05-02T14:52:42.977Z</time></trkpt><trkpt lat="44.28370826295766" lon="10.907386314133236"><ele>555.0</ele><time>2026-05-02T14:52:43.977Z</time></trkpt><trkpt lat="44.28362415278606" lon="10.907423633122065"><ele>555.0</ele><time>2026-05-02T14:52:44.977Z</time></trkpt><trkpt lat="44.28354085768342" lon="10.90748370625545"><ele>555.0</ele><time>2026-05-02T14:52:45.977Z</time></trkpt><trkpt lat="44.28346060892897" lon="10.90756329289314"><ele>555.8</ele><time>2026-05-02T14:52:46.977Z</time></trkpt><trkpt lat="44.28338880669562" lon="10.90764680265063"><ele>556.6</ele><time>2026-05-02T14:52:47.977Z</time></trkpt><trkpt lat="44.28332281775014" lon="10.907741843871644"><ele>557.4</ele><time>2026-05-02T14:52:48.977Z</time></trkpt><trkpt lat="44.283255935777085" lon="10.907853652705667"><ele>558.2</ele><time>2026-05-02T14:52:49.977Z</time></trkpt><trkpt lat="44.28319023916096" lon="10.907959453384304"><ele>559.0</ele><time>2026-05-02T14:52:50.977Z</time></trkpt><trkpt lat="44.28312148620933" lon="10.90806831670686"><ele>558.4</ele><time>2026-05-02T14:52:51.977Z</time></trkpt><trkpt lat="44.283052642761696" lon="10.908174531336742"><ele>557.8</ele><time>2026-05-02T14:52:52.977Z</time></trkpt><trkpt lat="44.28298399494802" lon="10.9082825596445"><ele>557.2</ele><time>2026-05-02T14:52:53.977Z</time></trkpt><trkpt lat="44.28290864521899" lon="10.90838539646993"><ele>556.6</ele><time>2026-05-02T14:52:54.977Z</time></trkpt><trkpt lat="44.28283582491011" lon="10.908489284631878"><ele>556.0</ele><time>2026-05-02T14:52:55.977Z</time></trkpt><trkpt lat="44.28276588300716" lon="10.908590227168025"><ele>558.4</ele><time>2026-05-02T14:52:56.977Z</time></trkpt><trkpt lat="44.28268884123135" lon="10.908688374475112"><ele>560.8</ele><time>2026-05-02T14:52:57.977Z</time></trkpt><trkpt lat="44.28261148003573" lon="10.908781811432641"><ele>563.1999999999999</ele><time>2026-05-02T14:52:58.977Z</time></trkpt><trkpt lat="44.282522423066816" lon="10.90885938612139"><ele>565.6</ele><time>2026-05-02T14:52:59.977Z</time></trkpt><trkpt lat="44.28242863811011" lon="10.908928129505698"><ele>568.0</ele><time>2026-05-02T14:53:00.977Z</time></trkpt><trkpt lat="44.28233990881886" lon="10.90900248150315"><ele>567.0</ele><time>2026-05-02T14:53:01.977Z</time></trkpt><trkpt lat="44.28224847173663" lon="10.909080934135751"><ele>566.0</ele><time>2026-05-02T14:53:02.977Z</time></trkpt><trkpt lat="44.28216190825314" lon="10.909158820774959"><ele>565.0</ele><time>2026-05-02T14:53:03.978Z</time></trkpt><trkpt lat="44.282078708110355" lon="10.909245645490714"><ele>564.0</ele><time>2026-05-02T14:53:04.978Z</time></trkpt><trkpt lat="44.282001263584355" lon="10.909335973449185"><ele>563.0</ele><time>2026-05-02T14:53:05.978Z</time></trkpt><trkpt lat="44.281924336842145" lon="10.909431781913424"><ele>563.0</ele><time>2026-05-02T14:53:06.978Z</time></trkpt><trkpt lat="44.28184814501222" lon="10.909534435663792"><ele>563.0</ele><time>2026-05-02T14:53:07.978Z</time></trkpt><trkpt lat="44.28177745376508" lon="10.909649223475613"><ele>563.0</ele><time>2026-05-02T14:53:08.978Z</time></trkpt><trkpt lat="44.28170138408343" lon="10.909759079528973"><ele>563.0</ele><time>2026-05-02T14:53:09.978Z</time></trkpt><trkpt lat="44.28166714911723" lon="10.909904693430411"><ele>563.0</ele><time>2026-05-02T14:53:10.978Z</time></trkpt><trkpt lat="44.2816311577738" lon="10.910047564782076"><ele>564.1999999999999</ele><time>2026-05-02T14:53:11.978Z</time></trkpt><trkpt lat="44.281598004390474" lon="10.910187343732298"><ele>565.4</ele><time>2026-05-02T14:53:12.978Z</time></trkpt><trkpt lat="44.281576167037926" lon="10.910328824569687"><ele>566.5999999999999</ele><time>2026-05-02T14:53:13.978Z</time></trkpt><trkpt lat="44.28155793645121" lon="10.910481898176712"><ele>567.8</ele><time>2026-05-02T14:53:14.978Z</time></trkpt><trkpt lat="44.28154609079492" lon="10.910628100560892"><ele>569.0</ele><time>2026-05-02T14:53:15.978Z</time></trkpt><trkpt lat="44.281550225890044" lon="10.910774801200999"><ele>568.2</ele><time>2026-05-02T14:53:16.978Z</time></trkpt><trkpt lat="44.28156934950866" lon="10.91091500482196"><ele>567.4</ele><time>2026-05-02T14:53:17.978Z</time></trkpt><trkpt lat="44.28159630873106" lon="10.911050468827646"><ele>566.6</ele><time>2026-05-02T14:53:18.978Z</time></trkpt><trkpt lat="44.28162835102255" lon="10.911176989794967"><ele>565.8</ele><time>2026-05-02T14:53:19.978Z</time></trkpt><trkpt lat="44.28166526194939" lon="10.911299275969302"><ele>565.0</ele><time>2026-05-02T14:53:20.978Z</time></trkpt><trkpt lat="44.28170349118483" lon="10.911418491678232"><ele>565.0</ele><time>2026-05-02T14:53:21.978Z</time></trkpt><trkpt lat="44.281739101539834" lon="10.911535820053633"><ele>565.0</ele><time>2026-05-02T14:53:22.978Z</time></trkpt><trkpt lat="44.28176105589939" lon="10.911662363246469"><ele>565.0</ele><time>2026-05-02T14:53:23.978Z</time></trkpt><trkpt lat="44.2817707349063" lon="10.91179478595758"><ele>565.0</ele><time>2026-05-02T14:53:24.978Z</time></trkpt><trkpt lat="44.281765155806255" lon="10.911926668171125"><ele>565.0</ele><time>2026-05-02T14:53:25.978Z</time></trkpt><trkpt lat="44.281743994640465" lon="10.912059824456637"><ele>565.2</ele><time>2026-05-02T14:53:26.978Z</time></trkpt><trkpt lat="44.28170902583903" lon="10.91218714843281"><ele>565.4</ele><time>2026-05-02T14:53:27.978Z</time></trkpt><trkpt lat="44.281662395116705" lon="10.912300143616008"><ele>565.6</ele><time>2026-05-02T14:53:28.978Z</time></trkpt><trkpt lat="44.281606427308404" lon="10.912403763168303"><ele>565.8</ele><time>2026-05-02T14:53:29.978Z</time></trkpt><trkpt lat="44.28155338331905" lon="10.912504903219967"><ele>566.0</ele><time>2026-05-02T14:53:30.978Z</time></trkpt><trkpt lat="44.28150151828807" lon="10.912603159735333"><ele>567.0</ele><time>2026-05-02T14:53:31.978Z</time></trkpt><trkpt lat="44.28147076970468" lon="10.9127097561904"><ele>568.0</ele><time>2026-05-02T14:53:32.978Z</time></trkpt><trkpt lat="44.281436593606756" lon="10.912816828118107"><ele>569.0</ele><time>2026-05-02T14:53:33.978Z</time></trkpt><trkpt lat="44.281439778520415" lon="10.912940556603226"><ele>570.0</ele><time>2026-05-02T14:53:34.978Z</time></trkpt><trkpt lat="44.281465441258874" lon="10.91305736723595"><ele>571.0</ele><time>2026-05-02T14:53:35.978Z</time></trkpt><trkpt lat="44.28150640759883" lon="10.91316677096891"><ele>572.0</ele><time>2026-05-02T14:53:36.978Z</time></trkpt><trkpt lat="44.28155684741299" lon="10.913260727703271"><ele>572.0</ele><time>2026-05-02T14:53:37.978Z</time></trkpt><trkpt lat="44.28159812924374" lon="10.913369656207308"><ele>572.0</ele><time>2026-05-02T14:53:38.978Z</time></trkpt><trkpt lat="44.28161698175472" lon="10.91349578560011"><ele>572.0</ele><time>2026-05-02T14:53:39.978Z</time></trkpt><trkpt lat="44.28163310754057" lon="10.913617040102919"><ele>572.0</ele><time>2026-05-02T14:53:40.978Z</time></trkpt><trkpt lat="44.28164522029185" lon="10.913735159604235"><ele>572.0</ele><time>2026-05-02T14:53:41.978Z</time></trkpt><trkpt lat="44.28165640860635" lon="10.913852335543478"><ele>572.0</ele><time>2026-05-02T14:53:42.979Z</time></trkpt><trkpt lat="44.28168587482369" lon="10.913970564877195"><ele>571.4</ele><time>2026-05-02T14:53:43.979Z</time></trkpt><trkpt lat="44.281706329924525" lon="10.914091981290989"><ele>570.8000000000001</ele><time>2026-05-02T14:53:44.979Z</time></trkpt><trkpt lat="44.28174086996059" lon="10.914210600937142"><ele>570.2</ele><time>2026-05-02T14:53:45.979Z</time></trkpt><trkpt lat="44.28178583739864" lon="10.914327073136473"><ele>569.6</ele><time>2026-05-02T14:53:46.979Z</time></trkpt><trkpt lat="44.28182273267265" lon="10.914444983272075"><ele>569.0</ele><time>2026-05-02T14:53:47.979Z</time></trkpt><trkpt lat="44.28187366315144" lon="10.914558959047712"><ele>570.0</ele><time>2026-05-02T14:53:48.979Z</time></trkpt><trkpt lat="44.2819381608468" lon="10.914659053712588"><ele>571.0</ele><time>2026-05-02T14:53:49.979Z</time></trkpt><trkpt lat="44.2819750424725" lon="10.91478792802053"><ele>572.0</ele><time>2026-05-02T14:53:50.979Z</time></trkpt><trkpt lat="44.28202361987082" lon="10.914885562608784"><ele>573.0</ele><time>2026-05-02T14:53:51.979Z</time></trkpt><trkpt lat="44.28204931690474" lon="10.914985511295122"><ele>574.0</ele><time>2026-05-02T14:53:52.979Z</time></trkpt><trkpt lat="44.282045817460244" lon="10.915078660021159"><ele>575.0</ele><time>2026-05-02T14:53:53.979Z</time></trkpt><trkpt lat="44.282003267872454" lon="10.915151887032689"><ele>577.6666666666666</ele><time>2026-05-02T14:53:54.979Z</time></trkpt><trkpt lat="44.28193616924784" lon="10.915160750632353"><ele>580.3333333333333</ele><time>2026-05-02T14:53:55.979Z</time></trkpt><trkpt lat="44.28179815199362" lon="10.915115066374584"><ele>583.0</ele><time>2026-05-02T14:53:57.979Z</time></trkpt><trkpt lat="44.28172161821586" lon="10.915106828334785"><ele>585.6666666666666</ele><time>2026-05-02T14:53:58.979Z</time></trkpt><trkpt lat="44.2816524376432" lon="10.915081266913763"><ele>588.3333333333334</ele><time>2026-05-02T14:53:59.979Z</time></trkpt><trkpt lat="44.28158328412472" lon="10.915073423624175"><ele>591.0</ele><time>2026-05-02T14:54:00.979Z</time></trkpt><trkpt lat="44.281514563738455" lon="10.915078318699374"><ele>591.0</ele><time>2026-05-02T14:54:01.979Z</time></trkpt><trkpt lat="44.281437559121805" lon="10.91511208473547"><ele>591.0</ele><time>2026-05-02T14:54:02.979Z</time></trkpt><trkpt lat="44.281364935045985" lon="10.91515555096297"><ele>591.0</ele><time>2026-05-02T14:54:03.979Z</time></trkpt><trkpt lat="44.28128847242471" lon="10.915216379256867"><ele>591.0</ele><time>2026-05-02T14:54:04.979Z</time></trkpt><trkpt lat="44.281212793489324" lon="10.915286844264612"><ele>591.0</ele><time>2026-05-02T14:54:05.979Z</time></trkpt><trkpt lat="44.281139080028744" lon="10.915356209196565"><ele>591.0</ele><time>2026-05-02T14:54:06.979Z</time></trkpt><trkpt lat="44.281059523101455" lon="10.915419591281276"><ele>589.2</ele><time>2026-05-02T14:54:07.979Z</time></trkpt><trkpt lat="44.2809791334447" lon="10.915474322759623"><ele>587.4000000000001</ele><time>2026-05-02T14:54:08.979Z</time></trkpt><trkpt lat="44.28089755573196" lon="10.915531969976783"><ele>585.6</ele><time>2026-05-02T14:54:09.976Z</time></trkpt><trkpt lat="44.28081509848786" lon="10.915578634187844"><ele>583.8000000000001</ele><time>2026-05-02T14:54:10.976Z</time></trkpt><trkpt lat="44.280730620070024" lon="10.915617051097431"><ele>582.0</ele><time>2026-05-02T14:54:11.976Z</time></trkpt><trkpt lat="44.280641198465176" lon="10.915640669280414"><ele>581.4</ele><time>2026-05-02T14:54:12.976Z</time></trkpt><trkpt lat="44.280552445964105" lon="10.915647965900195"><ele>580.8000000000001</ele><time>2026-05-02T14:54:13.976Z</time></trkpt><trkpt lat="44.280459259186934" lon="10.915652563321105"><ele>580.2</ele><time>2026-05-02T14:54:14.976Z</time></trkpt><trkpt lat="44.28036437276657" lon="10.91565456082515"><ele>579.6</ele><time>2026-05-02T14:54:15.976Z</time></trkpt><trkpt lat="44.28027027796408" lon="10.915660861377528"><ele>579.0</ele><time>2026-05-02T14:54:16.976Z</time></trkpt><trkpt lat="44.28017275951647" lon="10.915654946237755"><ele>579.0</ele><time>2026-05-02T14:54:17.976Z</time></trkpt><trkpt lat="44.28007710986654" lon="10.91565887567909"><ele>579.0</ele><time>2026-05-02T14:54:18.976Z</time></trkpt><trkpt lat="44.27997960490395" lon="10.915672245484641"><ele>579.0</ele><time>2026-05-02T14:54:19.976Z</time></trkpt><trkpt lat="44.27988457164542" lon="10.915706846304063"><ele>579.0</ele><time>2026-05-02T14:54:20.976Z</time></trkpt><trkpt lat="44.27979410439935" lon="10.915759362298648"><ele>579.0</ele><time>2026-05-02T14:54:21.976Z</time></trkpt><trkpt lat="44.27970813559712" lon="10.915828929096023"><ele>580.0</ele><time>2026-05-02T14:54:22.976Z</time></trkpt><trkpt lat="44.279625895254036" lon="10.915908716479331"><ele>581.0</ele><time>2026-05-02T14:54:23.976Z</time></trkpt><trkpt lat="44.27954406155213" lon="10.91599274265536"><ele>582.0</ele><time>2026-05-02T14:54:24.976Z</time></trkpt><trkpt lat="44.279469897045445" lon="10.916085775596903"><ele>583.0</ele><time>2026-05-02T14:54:25.976Z</time></trkpt><trkpt lat="44.27939436363254" lon="10.916167999053167"><ele>584.0</ele><time>2026-05-02T14:54:26.976Z</time></trkpt><trkpt lat="44.27931455303833" lon="10.916249877185582"><ele>584.0</ele><time>2026-05-02T14:54:27.976Z</time></trkpt><trkpt lat="44.279238713934056" lon="10.916332747544011"><ele>584.0</ele><time>2026-05-02T14:54:28.976Z</time></trkpt><trkpt lat="44.27916668071364" lon="10.91641094489296"><ele>584.0</ele><time>2026-05-02T14:54:29.976Z</time></trkpt><trkpt lat="44.27909841335095" lon="10.916489974910133"><ele>584.0</ele><time>2026-05-02T14:54:30.976Z</time></trkpt><trkpt lat="44.279029608085466" lon="10.91657968899865"><ele>584.0</ele><time>2026-05-02T14:54:31.976Z</time></trkpt><trkpt lat="44.27896140458267" lon="10.916677546247804"><ele>583.2</ele><time>2026-05-02T14:54:32.976Z</time></trkpt><trkpt lat="44.27889671244619" lon="10.916784559879687"><ele>582.4</ele><time>2026-05-02T14:54:33.976Z</time></trkpt><trkpt lat="44.278843267361545" lon="10.91691072729243"><ele>581.6</ele><time>2026-05-02T14:54:34.976Z</time></trkpt><trkpt lat="44.27879718603633" lon="10.917042567532846"><ele>580.8</ele><time>2026-05-02T14:54:35.976Z</time></trkpt><trkpt lat="44.27876114307823" lon="10.91717871194225"><ele>580.0</ele><time>2026-05-02T14:54:36.976Z</time></trkpt><trkpt lat="44.27873655076581" lon="10.917313733666264"><ele>580.0</ele><time>2026-05-02T14:54:37.976Z</time></trkpt><trkpt lat="44.27872631312412" lon="10.917439216238675"><ele>580.0</ele><time>2026-05-02T14:54:38.976Z</time></trkpt><trkpt lat="44.27872644720841" lon="10.917567633476104"><ele>580.0</ele><time>2026-05-02T14:54:39.976Z</time></trkpt><trkpt lat="44.27872640792238" lon="10.917696862245842"><ele>580.0</ele><time>2026-05-02T14:54:40.976Z</time></trkpt><trkpt lat="44.27873316206794" lon="10.91781649049981"><ele>580.0</ele><time>2026-05-02T14:54:41.977Z</time></trkpt><trkpt lat="44.27873952168167" lon="10.917934596611302"><ele>580.0</ele><time>2026-05-02T14:54:42.977Z</time></trkpt><trkpt lat="44.278745938247795" lon="10.91805469017301"><ele>581.0</ele><time>2026-05-02T14:54:43.977Z</time></trkpt><trkpt lat="44.27875435551591" lon="10.918177935606108"><ele>582.0</ele><time>2026-05-02T14:54:44.977Z</time></trkpt><trkpt lat="44.27876058575553" lon="10.918302180349187"><ele>583.0</ele><time>2026-05-02T14:54:45.977Z</time></trkpt><trkpt lat="44.2787676881084" lon="10.91842860006628"><ele>584.0</ele><time>2026-05-02T14:54:46.977Z</time></trkpt><trkpt lat="44.27877446999077" lon="10.918553218494717"><ele>585.0</ele><time>2026-05-02T14:54:47.977Z</time></trkpt><trkpt lat="44.27878140807221" lon="10.918681542869882"><ele>585.6</ele><time>2026-05-02T14:54:48.977Z</time></trkpt><trkpt lat="44.27878643391873" lon="10.91879968402488"><ele>586.2</ele><time>2026-05-02T14:54:49.977Z</time></trkpt><trkpt lat="44.27879142506777" lon="10.918899287969392"><ele>586.8</ele><time>2026-05-02T14:54:50.977Z</time></trkpt><trkpt lat="44.278799650165055" lon="10.918990566480051"><ele>587.4</ele><time>2026-05-02T14:54:51.977Z</time></trkpt><trkpt lat="44.278815511356726" lon="10.919142627557237"><ele>588.0</ele><time>2026-05-02T14:54:53.977Z</time></trkpt><trkpt lat="44.27884127258388" lon="10.919307163698926"><ele>588.4285714285714</ele><time>2026-05-02T14:54:55.977Z</time></trkpt><trkpt lat="44.27885664420669" lon="10.91939431896651"><ele>588.8571428571429</ele><time>2026-05-02T14:54:56.977Z</time></trkpt><trkpt lat="44.278870788893656" lon="10.919491515455173"><ele>589.2857142857142</ele><time>2026-05-02T14:54:57.977Z</time></trkpt><trkpt lat="44.27888629242155" lon="10.919588661865545"><ele>589.7142857142858</ele><time>2026-05-02T14:54:58.977Z</time></trkpt><trkpt lat="44.278901113388926" lon="10.919693556314558"><ele>590.1428571428571</ele><time>2026-05-02T14:54:59.977Z</time></trkpt><trkpt lat="44.2789163776586" lon="10.91980359147352"><ele>590.5714285714286</ele><time>2026-05-02T14:55:00.977Z</time></trkpt><trkpt lat="44.27892913516807" lon="10.919917432780307"><ele>591.0</ele><time>2026-05-02T14:55:01.977Z</time></trkpt><trkpt lat="44.27894397307094" lon="10.920031608670692"><ele>594.0</ele><time>2026-05-02T14:55:02.977Z</time></trkpt><trkpt lat="44.278961884010634" lon="10.920151988652139"><ele>597.0</ele><time>2026-05-02T14:55:03.977Z</time></trkpt><trkpt lat="44.27898072389023" lon="10.920269693921128"><ele>600.0</ele><time>2026-05-02T14:55:04.977Z</time></trkpt><trkpt lat="44.27900006217522" lon="10.920391357318497"><ele>603.0</ele><time>2026-05-02T14:55:05.977Z</time></trkpt><trkpt lat="44.27901602716879" lon="10.920512471605837"><ele>606.0</ele><time>2026-05-02T14:55:06.977Z</time></trkpt><trkpt lat="44.279031175088434" lon="10.920631892906"><ele>609.0</ele><time>2026-05-02T14:55:07.977Z</time></trkpt><trkpt lat="44.279044484703654" lon="10.920749219081081"><ele>609.0</ele><time>2026-05-02T14:55:08.977Z</time></trkpt><trkpt lat="44.27905519818333" lon="10.920865559990206"><ele>609.0</ele><time>2026-05-02T14:55:09.977Z</time></trkpt><trkpt lat="44.27906509419044" lon="10.920988751707835"><ele>609.0</ele><time>2026-05-02T14:55:10.977Z</time></trkpt><trkpt lat="44.27907422156958" lon="10.921117468728715"><ele>609.0</ele><time>2026-05-02T14:55:11.977Z</time></trkpt><trkpt lat="44.27907694055174" lon="10.921244581994841"><ele>609.0</ele><time>2026-05-02T14:55:12.977Z</time></trkpt><trkpt lat="44.279081468551574" lon="10.921378305989304"><ele>608.8</ele><time>2026-05-02T14:55:13.977Z</time></trkpt><trkpt lat="44.27908370874713" lon="10.92151639262544"><ele>608.5999999999999</ele><time>2026-05-02T14:55:14.977Z</time></trkpt><trkpt lat="44.27908734367864" lon="10.921655065762423"><ele>608.4</ele><time>2026-05-02T14:55:15.977Z</time></trkpt><trkpt lat="44.279092133927634" lon="10.92178742207797"><ele>608.1999999999999</ele><time>2026-05-02T14:55:16.977Z</time></trkpt><trkpt lat="44.27910661672941" lon="10.921907124817709"><ele>608.0</ele><time>2026-05-02T14:55:17.977Z</time></trkpt><trkpt lat="44.279135770361485" lon="10.922020150888354"><ele>608.0</ele><time>2026-05-02T14:55:18.977Z</time></trkpt><trkpt lat="44.27918262152979" lon="10.922132733780199"><ele>608.0</ele><time>2026-05-02T14:55:19.977Z</time></trkpt><trkpt lat="44.279236900475404" lon="10.92224391919839"><ele>608.0</ele><time>2026-05-02T14:55:20.977Z</time></trkpt><trkpt lat="44.27929981645643" lon="10.922362987293182"><ele>608.0</ele><time>2026-05-02T14:55:21.978Z</time></trkpt><trkpt lat="44.27936370111154" lon="10.922475467517403"><ele>608.0</ele><time>2026-05-02T14:55:22.978Z</time></trkpt><trkpt lat="44.27942772022209" lon="10.922591403258275"><ele>608.4</ele><time>2026-05-02T14:55:23.978Z</time></trkpt><trkpt lat="44.27948996846855" lon="10.92270787992258"><ele>608.8</ele><time>2026-05-02T14:55:24.978Z</time></trkpt><trkpt lat="44.27953986989386" lon="10.92283277314657"><ele>609.2</ele><time>2026-05-02T14:55:25.978Z</time></trkpt><trkpt lat="44.27958086812974" lon="10.922959156615075"><ele>609.6</ele><time>2026-05-02T14:55:26.978Z</time></trkpt><trkpt lat="44.27960826009434" lon="10.923089144530843"><ele>610.0</ele><time>2026-05-02T14:55:27.978Z</time></trkpt><trkpt lat="44.27962682808512" lon="10.923214733106523"><ele>610.0</ele><time>2026-05-02T14:55:28.978Z</time></trkpt><trkpt lat="44.279637064542236" lon="10.923348880969215"><ele>610.0</ele><time>2026-05-02T14:55:29.978Z</time></trkpt><trkpt lat="44.27964013056457" lon="10.923473424186025"><ele>610.0</ele><time>2026-05-02T14:55:30.978Z</time></trkpt><trkpt lat="44.27963165261528" lon="10.923597204658474"><ele>610.0</ele><time>2026-05-02T14:55:31.978Z</time></trkpt><trkpt lat="44.279609894897" lon="10.923722747253677"><ele>610.0</ele><time>2026-05-02T14:55:32.978Z</time></trkpt><trkpt lat="44.279574997979466" lon="10.923845264543433"><ele>611.0</ele><time>2026-05-02T14:55:33.978Z</time></trkpt><trkpt lat="44.27953950143519" lon="10.923968404851065"><ele>612.0</ele><time>2026-05-02T14:55:34.978Z</time></trkpt><trkpt lat="44.27949457053538" lon="10.924096854487747"><ele>613.0</ele><time>2026-05-02T14:55:35.978Z</time></trkpt><trkpt lat="44.27945328837335" lon="10.92422796039289"><ele>614.0</ele><time>2026-05-02T14:55:36.978Z</time></trkpt><trkpt lat="44.27941340152278" lon="10.924342575441234"><ele>615.0</ele><time>2026-05-02T14:55:37.978Z</time></trkpt><trkpt lat="44.27937294852359" lon="10.924456498235264"><ele>616.3333333333334</ele><time>2026-05-02T14:55:38.978Z</time></trkpt><trkpt lat="44.279334684842915" lon="10.924567811201777"><ele>617.6666666666666</ele><time>2026-05-02T14:55:39.978Z</time></trkpt><trkpt lat="44.27929817632668" lon="10.9246697987519"><ele>619.0</ele><time>2026-05-02T14:55:40.978Z</time></trkpt><trkpt lat="44.27925812807728" lon="10.924768260037224"><ele>620.3333333333333</ele><time>2026-05-02T14:55:41.978Z</time></trkpt><trkpt lat="44.2792191215982" lon="10.924873554375376"><ele>621.6666666666666</ele><time>2026-05-02T14:55:42.978Z</time></trkpt><trkpt lat="44.27919870023751" lon="10.924973492328176"><ele>623.0</ele><time>2026-05-02T14:55:43.978Z</time></trkpt><trkpt lat="44.279209086758236" lon="10.925079073465591"><ele>624.1999999999999</ele><time>2026-05-02T14:55:44.978Z</time></trkpt><trkpt lat="44.279221667919586" lon="10.925189670112767"><ele>625.4</ele><time>2026-05-02T14:55:45.978Z</time></trkpt><trkpt lat="44.279290497777396" lon="10.925274257845674"><ele>626.5999999999999</ele><time>2026-05-02T14:55:46.978Z</time></trkpt><trkpt lat="44.27937209489983" lon="10.925301733207007"><ele>627.8</ele><time>2026-05-02T14:55:47.978Z</time></trkpt><trkpt lat="44.279465937443014" lon="10.925274409715332"><ele>629.0</ele><time>2026-05-02T14:55:48.978Z</time></trkpt><trkpt lat="44.279581963138334" lon="10.925288069346234"><ele>629.0</ele><time>2026-05-02T14:55:49.978Z</time></trkpt><trkpt lat="44.279582510234526" lon="10.925076730940086"><ele>629.0</ele><time>2026-05-02T14:55:50.978Z</time></trkpt><trkpt lat="44.279641012894466" lon="10.924957992086929"><ele>629.0</ele><time>2026-05-02T14:55:51.978Z</time></trkpt><trkpt lat="44.27970293156965" lon="10.924841219827835"><ele>629.0</ele><time>2026-05-02T14:55:52.978Z</time></trkpt><trkpt lat="44.279762283589996" lon="10.924707296281401"><ele>629.0</ele><time>2026-05-02T14:55:53.978Z</time></trkpt><trkpt lat="44.27982691414783" lon="10.92457912745824"><ele>629.0</ele><time>2026-05-02T14:55:54.978Z</time></trkpt><trkpt lat="44.279893058945746" lon="10.924453988779417"><ele>629.0</ele><time>2026-05-02T14:55:55.978Z</time></trkpt><trkpt lat="44.279957982767456" lon="10.924331365657599"><ele>629.0</ele><time>2026-05-02T14:55:56.978Z</time></trkpt><trkpt lat="44.28002221342101" lon="10.924206019727762"><ele>629.0</ele><time>2026-05-02T14:55:57.978Z</time></trkpt><trkpt lat="44.28008432344094" lon="10.924073685264997"><ele>629.0</ele><time>2026-05-02T14:55:58.978Z</time></trkpt><trkpt lat="44.280127847800934" lon="10.923937859177865"><ele>629.0</ele><time>2026-05-02T14:55:59.978Z</time></trkpt><trkpt lat="44.28014568322743" lon="10.923794812633988"><ele>629.0</ele><time>2026-05-02T14:56:00.979Z</time></trkpt><trkpt lat="44.280143200858504" lon="10.923639135727543"><ele>629.0</ele><time>2026-05-02T14:56:01.979Z</time></trkpt><trkpt lat="44.280124486677586" lon="10.923486831580629"><ele>629.0</ele><time>2026-05-02T14:56:02.979Z</time></trkpt><trkpt lat="44.280092798297744" lon="10.923349022779814"><ele>629.8</ele><time>2026-05-02T14:56:03.979Z</time></trkpt><trkpt lat="44.280066236738264" lon="10.923210528947639"><ele>630.5999999999999</ele><time>2026-05-02T14:56:04.979Z</time></trkpt><trkpt lat="44.28004829232175" lon="10.923082523100126"><ele>631.4</ele><time>2026-05-02T14:56:05.979Z</time></trkpt><trkpt lat="44.280040623623705" lon="10.92295356062128"><ele>632.1999999999999</ele><time>2026-05-02T14:56:06.979Z</time></trkpt><trkpt lat="44.28005134276436" lon="10.922810188613395"><ele>633.0</ele><time>2026-05-02T14:56:07.979Z</time></trkpt><trkpt lat="44.28007213478856" lon="10.922679997103257"><ele>633.0</ele><time>2026-05-02T14:56:08.979Z</time></trkpt><trkpt lat="44.280108663391324" lon="10.922573245033798"><ele>633.0</ele><time>2026-05-02T14:56:09.979Z</time></trkpt><trkpt lat="44.280164761421496" lon="10.922477014881748"><ele>633.0</ele><time>2026-05-02T14:56:10.979Z</time></trkpt><trkpt lat="44.280246290720825" lon="10.92240984663697"><ele>633.0</ele><time>2026-05-02T14:56:11.979Z</time></trkpt><trkpt lat="44.28031109490785" lon="10.922345070229143"><ele>633.0</ele><time>2026-05-02T14:56:12.979Z</time></trkpt><trkpt lat="44.28037831649367" lon="10.922287801188512"><ele>633.0</ele><time>2026-05-02T14:56:13.979Z</time></trkpt><trkpt lat="44.2804397286383" lon="10.92224097139068"><ele>633.1666666666666</ele><time>2026-05-02T14:56:14.979Z</time></trkpt><trkpt lat="44.28050250697563" lon="10.922186614025504"><ele>633.3333333333334</ele><time>2026-05-02T14:56:15.976Z</time></trkpt><trkpt lat="44.2805603581582" lon="10.9221325713595"><ele>633.5</ele><time>2026-05-02T14:56:16.976Z</time></trkpt><trkpt lat="44.28061408907719" lon="10.922085858425994"><ele>633.6666666666667</ele><time>2026-05-02T14:56:17.976Z</time></trkpt><trkpt lat="44.280720766387944" lon="10.922029833785972"><ele>633.8333333333334</ele><time>2026-05-02T14:56:19.976Z</time></trkpt><trkpt lat="44.28082996797121" lon="10.922089576599264"><ele>634.0</ele><time>2026-05-02T14:56:21.976Z</time></trkpt><trkpt lat="44.28084033698152" lon="10.92224948533202"><ele>634.0</ele><time>2026-05-02T14:56:23.976Z</time></trkpt><trkpt lat="44.2807502310621" lon="10.92235713657076"><ele>634.0</ele><time>2026-05-02T14:56:25.975Z</time></trkpt><trkpt lat="44.280691611515934" lon="10.922417179144368"><ele>634.0</ele><time>2026-05-02T14:56:26.975Z</time></trkpt><trkpt lat="44.28062886937487" lon="10.922481444398638"><ele>634.0</ele><time>2026-05-02T14:56:27.976Z</time></trkpt><trkpt lat="44.280561104476284" lon="10.922550854326376"><ele>634.0</ele><time>2026-05-02T14:56:28.976Z</time></trkpt><trkpt lat="44.28048653979672" lon="10.922630209459852"><ele>634.0</ele><time>2026-05-02T14:56:29.976Z</time></trkpt><trkpt lat="44.280421205094875" lon="10.922720559512978"><ele>633.8333333333334</ele><time>2026-05-02T14:56:30.976Z</time></trkpt><trkpt lat="44.28038310466559" lon="10.922839137063145"><ele>633.6666666666667</ele><time>2026-05-02T14:56:31.976Z</time></trkpt><trkpt lat="44.28037376320514" lon="10.922960034833938"><ele>633.5</ele><time>2026-05-02T14:56:32.976Z</time></trkpt><trkpt lat="44.28041686479982" lon="10.923069289834887"><ele>633.3333333333334</ele><time>2026-05-02T14:56:33.976Z</time></trkpt><trkpt lat="44.28046038310326" lon="10.923172245565297"><ele>633.1666666666666</ele><time>2026-05-02T14:56:34.976Z</time></trkpt><trkpt lat="44.280522691924936" lon="10.923252514737193"><ele>633.0</ele><time>2026-05-02T14:56:35.976Z</time></trkpt><trkpt lat="44.28059554270312" lon="10.92333952247114"><ele>636.8</ele><time>2026-05-02T14:56:36.976Z</time></trkpt><trkpt lat="44.280643754001446" lon="10.92346008049085"><ele>640.5999999999999</ele><time>2026-05-02T14:56:37.976Z</time></trkpt><trkpt lat="44.280716476465614" lon="10.923550414123746"><ele>644.4000000000001</ele><time>2026-05-02T14:56:38.976Z</time></trkpt><trkpt lat="44.280794967716844" lon="10.923647397501831"><ele>648.2</ele><time>2026-05-02T14:56:39.976Z</time></trkpt><trkpt lat="44.28087105203593" lon="10.923740404783254"><ele>652.0</ele><time>2026-05-02T14:56:40.976Z</time></trkpt><trkpt lat="44.28095435411832" lon="10.92382764054443"><ele>652.0</ele><time>2026-05-02T14:56:41.976Z</time></trkpt><trkpt lat="44.28104070358641" lon="10.923914114460665"><ele>652.0</ele><time>2026-05-02T14:56:42.976Z</time></trkpt><trkpt lat="44.28112857656257" lon="10.923996874816185"><ele>652.0</ele><time>2026-05-02T14:56:43.976Z</time></trkpt><trkpt lat="44.28120883498127" lon="10.924078649380919"><ele>652.0</ele><time>2026-05-02T14:56:44.976Z</time></trkpt><trkpt lat="44.28128576363957" lon="10.924171420166262"><ele>652.0</ele><time>2026-05-02T14:56:45.976Z</time></trkpt><trkpt lat="44.28135212081125" lon="10.924282499919977"><ele>652.2</ele><time>2026-05-02T14:56:46.976Z</time></trkpt><trkpt lat="44.28140702391485" lon="10.924408127245563"><ele>652.4000000000001</ele><time>2026-05-02T14:56:47.976Z</time></trkpt><trkpt lat="44.28144890834076" lon="10.924539615147717"><ele>652.5999999999999</ele><time>2026-05-02T14:56:48.976Z</time></trkpt><trkpt lat="44.28147405416688" lon="10.92467498374533"><ele>652.8</ele><time>2026-05-02T14:56:49.976Z</time></trkpt><trkpt lat="44.28148774422969" lon="10.92480845810579"><ele>653.0</ele><time>2026-05-02T14:56:50.976Z</time></trkpt><trkpt lat="44.28149003420378" lon="10.924938742489257"><ele>656.3333333333333</ele><time>2026-05-02T14:56:51.976Z</time></trkpt><trkpt lat="44.28148811921756" lon="10.925066448049952"><ele>659.6666666666666</ele><time>2026-05-02T14:56:52.976Z</time></trkpt><trkpt lat="44.281491260612206" lon="10.92518983459732"><ele>663.0</ele><time>2026-05-02T14:56:53.976Z</time></trkpt><trkpt lat="44.28150932186492" lon="10.925306730574711"><ele>666.3333333333334</ele><time>2026-05-02T14:56:54.976Z</time></trkpt><trkpt lat="44.28155256083153" lon="10.92541170355596"><ele>669.6666666666667</ele><time>2026-05-02T14:56:55.976Z</time></trkpt><trkpt lat="44.28162178267785" lon="10.92547053046502"><ele>673.0</ele><time>2026-05-02T14:56:56.976Z</time></trkpt><trkpt lat="44.28170690854419" lon="10.925505484584985"><ele>673.0</ele><time>2026-05-02T14:56:57.976Z</time></trkpt><trkpt lat="44.2817920593493" lon="10.925483786363683"><ele>673.0</ele><time>2026-05-02T14:56:58.976Z</time></trkpt><trkpt lat="44.281876479087586" lon="10.925400236500401"><ele>673.0</ele><time>2026-05-02T14:56:59.976Z</time></trkpt><trkpt lat="44.281957923117616" lon="10.925318358797025"><ele>673.0</ele><time>2026-05-02T14:57:00.976Z</time></trkpt><trkpt lat="44.28203660386936" lon="10.925212122171992"><ele>673.0</ele><time>2026-05-02T14:57:01.976Z</time></trkpt><trkpt lat="44.2821063373089" lon="10.925096729824432"><ele>672.4</ele><time>2026-05-02T14:57:02.976Z</time></trkpt><trkpt lat="44.28218092842016" lon="10.92497920490688"><ele>671.8</ele><time>2026-05-02T14:57:03.976Z</time></trkpt><trkpt lat="44.28225503574438" lon="10.924855061295897"><ele>671.2</ele><time>2026-05-02T14:57:04.976Z</time></trkpt><trkpt lat="44.28232908076112" lon="10.924739280494466"><ele>670.6</ele><time>2026-05-02T14:57:05.977Z</time></trkpt><trkpt lat="44.2823983621761" lon="10.924643993325665"><ele>670.0</ele><time>2026-05-02T14:57:06.977Z</time></trkpt><trkpt lat="44.2824855772659" lon="10.92459128891235"><ele>671.8333333333334</ele><time>2026-05-02T14:57:07.977Z</time></trkpt><trkpt lat="44.282572657999474" lon="10.924602933054478"><ele>673.6666666666667</ele><time>2026-05-02T14:57:08.977Z</time></trkpt><trkpt lat="44.28264940620083" lon="10.924670097380032"><ele>675.5</ele><time>2026-05-02T14:57:09.977Z</time></trkpt><trkpt lat="44.282681640154024" lon="10.924787923093572"><ele>677.3333333333334</ele><time>2026-05-02T14:57:10.977Z</time></trkpt><trkpt lat="44.28268338131608" lon="10.924904825938814"><ele>679.1666666666666</ele><time>2026-05-02T14:57:11.977Z</time></trkpt><trkpt lat="44.28269836935245" lon="10.925032808565815"><ele>681.0</ele><time>2026-05-02T14:57:12.977Z</time></trkpt><trkpt lat="44.282708917985794" lon="10.925156994899767"><ele>681.6666666666666</ele><time>2026-05-02T14:57:13.977Z</time></trkpt><trkpt lat="44.28272158713319" lon="10.925285109071817"><ele>682.3333333333334</ele><time>2026-05-02T14:57:14.977Z</time></trkpt><trkpt lat="44.28273201254361" lon="10.925405528330828"><ele>683.0</ele><time>2026-05-02T14:57:15.977Z</time></trkpt><trkpt lat="44.28275330417826" lon="10.92552544637558"><ele>683.6666666666667</ele><time>2026-05-02T14:57:16.977Z</time></trkpt><trkpt lat="44.282718424340516" lon="10.92564146611496"><ele>684.3333333333334</ele><time>2026-05-02T14:57:17.977Z</time></trkpt><trkpt lat="44.28271704606222" lon="10.925760498998844"><ele>685.0</ele><time>2026-05-02T14:57:18.977Z</time></trkpt><trkpt lat="44.28272298157697" lon="10.92588809045645"><ele>684.6</ele><time>2026-05-02T14:57:19.977Z</time></trkpt><trkpt lat="44.282737473662124" lon="10.926018245461734"><ele>684.2</ele><time>2026-05-02T14:57:20.977Z</time></trkpt><trkpt lat="44.28275283746882" lon="10.926159016554513"><ele>683.8</ele><time>2026-05-02T14:57:21.977Z</time></trkpt><trkpt lat="44.28277108728717" lon="10.926298777108956"><ele>683.4</ele><time>2026-05-02T14:57:22.977Z</time></trkpt><trkpt lat="44.28279199654262" lon="10.926449369565644"><ele>683.0</ele><time>2026-05-02T14:57:23.977Z</time></trkpt><trkpt lat="44.28282825200867" lon="10.926601509315931"><ele>682.75</ele><time>2026-05-02T14:57:24.977Z</time></trkpt><trkpt lat="44.282869055262054" lon="10.926747074781938"><ele>682.5</ele><time>2026-05-02T14:57:25.977Z</time></trkpt><trkpt lat="44.28291788646789" lon="10.926895087441407"><ele>682.25</ele><time>2026-05-02T14:57:26.977Z</time></trkpt><trkpt lat="44.28296215647932" lon="10.927041586933772"><ele>682.0</ele><time>2026-05-02T14:57:27.977Z</time></trkpt><trkpt lat="44.283008765108384" lon="10.927196240958368"><ele>682.0</ele><time>2026-05-02T14:57:28.977Z</time></trkpt><trkpt lat="44.283054087733056" lon="10.927348677686288"><ele>682.0</ele><time>2026-05-02T14:57:29.977Z</time></trkpt><trkpt lat="44.283100417402174" lon="10.927501058256437"><ele>682.0</ele><time>2026-05-02T14:57:30.977Z</time></trkpt><trkpt lat="44.283146144189935" lon="10.92765231293244"><ele>682.0</ele><time>2026-05-02T14:57:31.977Z</time></trkpt><trkpt lat="44.283188872477524" lon="10.927804627194364"><ele>684.75</ele><time>2026-05-02T14:57:32.977Z</time></trkpt><trkpt lat="44.283233947071345" lon="10.927962685409124"><ele>687.5</ele><time>2026-05-02T14:57:33.977Z</time></trkpt><trkpt lat="44.28328188836298" lon="10.92812032312197"><ele>690.25</ele><time>2026-05-02T14:57:34.977Z</time></trkpt><trkpt lat="44.28332728270692" lon="10.928273007147867"><ele>693.0</ele><time>2026-05-02T14:57:35.977Z</time></trkpt><trkpt lat="44.283373175615935" lon="10.92842280763306"><ele>693.0</ele><time>2026-05-02T14:57:36.977Z</time></trkpt><trkpt lat="44.283417074591505" lon="10.928575835209633"><ele>693.0</ele><time>2026-05-02T14:57:37.977Z</time></trkpt><trkpt lat="44.283464780746726" lon="10.92872223687111"><ele>693.0</ele><time>2026-05-02T14:57:38.977Z</time></trkpt><trkpt lat="44.28351605652656" lon="10.928869863449227"><ele>693.0</ele><time>2026-05-02T14:57:39.977Z</time></trkpt><trkpt lat="44.28357930227016" lon="10.928995018896952"><ele>693.0</ele><time>2026-05-02T14:57:40.977Z</time></trkpt><trkpt lat="44.28365184067319" lon="10.929101354395886"><ele>693.0</ele><time>2026-05-02T14:57:41.977Z</time></trkpt><trkpt lat="44.28373153907608" lon="10.929199801304712"><ele>693.0</ele><time>2026-05-02T14:57:42.977Z</time></trkpt><trkpt lat="44.283810105364495" lon="10.929289543599173"><ele>693.0</ele><time>2026-05-02T14:57:43.977Z</time></trkpt><trkpt lat="44.28389037209093" lon="10.929376939069902"><ele>693.0</ele><time>2026-05-02T14:57:44.978Z</time></trkpt><trkpt lat="44.2839683136598" lon="10.92946226034267"><ele>695.1666666666666</ele><time>2026-05-02T14:57:45.978Z</time></trkpt><trkpt lat="44.2840474341166" lon="10.929541355407727"><ele>697.3333333333334</ele><time>2026-05-02T14:57:46.978Z</time></trkpt><trkpt lat="44.28412334423882" lon="10.929623213300301"><ele>699.5</ele><time>2026-05-02T14:57:47.978Z</time></trkpt><trkpt lat="44.28419506789823" lon="10.929700425782864"><ele>701.6666666666667</ele><time>2026-05-02T14:57:48.978Z</time></trkpt><trkpt lat="44.28426110650868" lon="10.929773310391916"><ele>703.8333333333334</ele><time>2026-05-02T14:57:49.978Z</time></trkpt><trkpt lat="44.28432042074081" lon="10.929839585219224"><ele>706.0</ele><time>2026-05-02T14:57:50.978Z</time></trkpt><trkpt lat="44.28437857084311" lon="10.929906945932187"><ele>706.0</ele><time>2026-05-02T14:57:51.978Z</time></trkpt><trkpt lat="44.28444026413827" lon="10.929977771226381"><ele>706.0</ele><time>2026-05-02T14:57:52.978Z</time></trkpt><trkpt lat="44.28449872133849" lon="10.930040576227212"><ele>706.0</ele><time>2026-05-02T14:57:53.978Z</time></trkpt><trkpt lat="44.2845646598847" lon="10.930117817940069"><ele>706.0</ele><time>2026-05-02T14:57:54.978Z</time></trkpt><trkpt lat="44.284625272967695" lon="10.93019866831563"><ele>706.0</ele><time>2026-05-02T14:57:55.978Z</time></trkpt><trkpt lat="44.284668798635145" lon="10.930301770817437"><ele>706.0</ele><time>2026-05-02T14:57:56.978Z</time></trkpt><trkpt lat="44.28469807708608" lon="10.930412699960568"><ele>707.0</ele><time>2026-05-02T14:57:57.978Z</time></trkpt><trkpt lat="44.28469775269688" lon="10.930526030705684"><ele>708.0</ele><time>2026-05-02T14:57:58.978Z</time></trkpt><trkpt lat="44.2846740297688" lon="10.930631286850435"><ele>709.0</ele><time>2026-05-02T14:57:59.978Z</time></trkpt><trkpt lat="44.28462149151901" lon="10.930713849632157"><ele>710.0</ele><time>2026-05-02T14:58:00.978Z</time></trkpt><trkpt lat="44.28455596944672" lon="10.930749351799054"><ele>711.0</ele><time>2026-05-02T14:58:01.978Z</time></trkpt><trkpt lat="44.284483278026336" lon="10.930773021249454"><ele>712.0</ele><time>2026-05-02T14:58:02.978Z</time></trkpt><trkpt lat="44.28440140786269" lon="10.930792622804764"><ele>712.0</ele><time>2026-05-02T14:58:03.978Z</time></trkpt><trkpt lat="44.284321720546714" lon="10.930817073899913"><ele>712.0</ele><time>2026-05-02T14:58:04.978Z</time></trkpt><trkpt lat="44.28424823513751" lon="10.930832820072041"><ele>712.0</ele><time>2026-05-02T14:58:05.978Z</time></trkpt><trkpt lat="44.28416357220493" lon="10.930863238714624"><ele>712.0</ele><time>2026-05-02T14:58:06.978Z</time></trkpt><trkpt lat="44.28407358017092" lon="10.930891026196035"><ele>712.0</ele><time>2026-05-02T14:58:07.978Z</time></trkpt><trkpt lat="44.28398275215659" lon="10.930917085673205"><ele>712.0</ele><time>2026-05-02T14:58:08.978Z</time></trkpt><trkpt lat="44.28389059384817" lon="10.93094322245206"><ele>714.2</ele><time>2026-05-02T14:58:09.978Z</time></trkpt><trkpt lat="44.283798092402" lon="10.930970103968209"><ele>716.4000000000001</ele><time>2026-05-02T14:58:10.978Z</time></trkpt><trkpt lat="44.283704598857554" lon="10.931000180360057"><ele>718.5999999999999</ele><time>2026-05-02T14:58:11.978Z</time></trkpt><trkpt lat="44.28361193512449" lon="10.931035037950263"><ele>720.8</ele><time>2026-05-02T14:58:12.978Z</time></trkpt><trkpt lat="44.283517000204725" lon="10.931085079182706"><ele>723.0</ele><time>2026-05-02T14:58:13.978Z</time></trkpt><trkpt lat="44.28343055715505" lon="10.931158959399461"><ele>723.0</ele><time>2026-05-02T14:58:14.978Z</time></trkpt><trkpt lat="44.28335127305845" lon="10.93125003351174"><ele>723.0</ele><time>2026-05-02T14:58:15.978Z</time></trkpt><trkpt lat="44.28328756700415" lon="10.931355949585901"><ele>723.0</ele><time>2026-05-02T14:58:16.978Z</time></trkpt><trkpt lat="44.283223413595756" lon="10.93147221067466"><ele>723.0</ele><time>2026-05-02T14:58:17.978Z</time></trkpt><trkpt lat="44.28315477810966" lon="10.931588056203676"><ele>723.0</ele><time>2026-05-02T14:58:18.978Z</time></trkpt><trkpt lat="44.2830858918888" lon="10.931699306586088"><ele>723.2</ele><time>2026-05-02T14:58:19.978Z</time></trkpt><trkpt lat="44.283012186963326" lon="10.931806023581427"><ele>723.4</ele><time>2026-05-02T14:58:20.978Z</time></trkpt><trkpt lat="44.282932728949554" lon="10.93189605948156"><ele>723.6</ele><time>2026-05-02T14:58:21.976Z</time></trkpt><trkpt lat="44.2828574964068" lon="10.931980000402032"><ele>723.8000000000001</ele><time>2026-05-02T14:58:22.976Z</time></trkpt><trkpt lat="44.2827967074611" lon="10.93207387266842"><ele>724.0</ele><time>2026-05-02T14:58:23.976Z</time></trkpt><trkpt lat="44.28275926957663" lon="10.932185588369297"><ele>724.0</ele><time>2026-05-02T14:58:24.976Z</time></trkpt><trkpt lat="44.28273717749028" lon="10.93231151659951"><ele>724.0</ele><time>2026-05-02T14:58:25.976Z</time></trkpt><trkpt lat="44.28273532660221" lon="10.932442261085965"><ele>724.0</ele><time>2026-05-02T14:58:26.976Z</time></trkpt><trkpt lat="44.2827306319499" lon="10.9325825583216"><ele>724.0</ele><time>2026-05-02T14:58:27.976Z</time></trkpt><trkpt lat="44.28271476724735" lon="10.932718350199305"><ele>724.0</ele><time>2026-05-02T14:58:28.976Z</time></trkpt><trkpt lat="44.28267829728431" lon="10.932850929241829"><ele>726.6</ele><time>2026-05-02T14:58:29.976Z</time></trkpt><trkpt lat="44.28262362028057" lon="10.932969253866865"><ele>729.2</ele><time>2026-05-02T14:58:30.976Z</time></trkpt><trkpt lat="44.28254480331131" lon="10.933059202753856"><ele>731.8000000000001</ele><time>2026-05-02T14:58:31.977Z</time></trkpt><trkpt lat="44.28245951351232" lon="10.933135516395273"><ele>734.4000000000001</ele><time>2026-05-02T14:58:32.977Z</time></trkpt><trkpt lat="44.28236392516143" lon="10.933194981881336"><ele>737.0</ele><time>2026-05-02T14:58:33.976Z</time></trkpt><trkpt lat="44.28226487856996" lon="10.933253013774152"><ele>736.0</ele><time>2026-05-02T14:58:34.976Z</time></trkpt><trkpt lat="44.28216236180361" lon="10.933312959544926"><ele>735.0</ele><time>2026-05-02T14:58:35.976Z</time></trkpt><trkpt lat="44.28205004443695" lon="10.933359304741435"><ele>734.0</ele><time>2026-05-02T14:58:36.976Z</time></trkpt><trkpt lat="44.28193830909916" lon="10.933388420677646"><ele>733.0</ele><time>2026-05-02T14:58:37.976Z</time></trkpt><trkpt lat="44.281824042196554" lon="10.9334029861422"><ele>736.5</ele><time>2026-05-02T14:58:38.976Z</time></trkpt><trkpt lat="44.28171105196295" lon="10.933414119549"><ele>740.0</ele><time>2026-05-02T14:58:39.976Z</time></trkpt><trkpt lat="44.28159909545319" lon="10.933429895312665"><ele>743.5</ele><time>2026-05-02T14:58:40.976Z</time></trkpt><trkpt lat="44.28148977545901" lon="10.93344756023134"><ele>747.0</ele><time>2026-05-02T14:58:41.976Z</time></trkpt><trkpt lat="44.281375923211606" lon="10.933469430156634"><ele>747.75</ele><time>2026-05-02T14:58:42.976Z</time></trkpt><trkpt lat="44.28125806092947" lon="10.93348653069431"><ele>748.5</ele><time>2026-05-02T14:58:43.976Z</time></trkpt><trkpt lat="44.28114535335184" lon="10.93351753699944"><ele>749.25</ele><time>2026-05-02T14:58:44.976Z</time></trkpt><trkpt lat="44.281031311454456" lon="10.933548500043448"><ele>750.0</ele><time>2026-05-02T14:58:45.976Z</time></trkpt><trkpt lat="44.28091981542932" lon="10.93357178035842"><ele>750.0</ele><time>2026-05-02T14:58:46.976Z</time></trkpt><trkpt lat="44.28079887538021" lon="10.933601642522602"><ele>750.0</ele><time>2026-05-02T14:58:47.976Z</time></trkpt><trkpt lat="44.280685246804175" lon="10.933641120904879"><ele>750.0</ele><time>2026-05-02T14:58:48.976Z</time></trkpt><trkpt lat="44.280570984183555" lon="10.933680061792236"><ele>750.0</ele><time>2026-05-02T14:58:49.976Z</time></trkpt><trkpt lat="44.28045968773289" lon="10.93371547252181"><ele>751.25</ele><time>2026-05-02T14:58:50.976Z</time></trkpt><trkpt lat="44.280346798068265" lon="10.933744126210966"><ele>752.5</ele><time>2026-05-02T14:58:51.976Z</time></trkpt><trkpt lat="44.280229680891686" lon="10.933779865216955"><ele>753.75</ele><time>2026-05-02T14:58:52.976Z</time></trkpt><trkpt lat="44.28010818000471" lon="10.933822743274883"><ele>755.0</ele><time>2026-05-02T14:58:53.976Z</time></trkpt><trkpt lat="44.279996193801196" lon="10.933865850182556"><ele>755.0</ele><time>2026-05-02T14:58:54.976Z</time></trkpt><trkpt lat="44.279884006608306" lon="10.933916779012563"><ele>755.0</ele><time>2026-05-02T14:58:55.977Z</time></trkpt><trkpt lat="44.279779659753494" lon="10.933975382476023"><ele>755.0</ele><time>2026-05-02T14:58:56.977Z</time></trkpt><trkpt lat="44.27968143401502" lon="10.93405411813724"><ele>755.0</ele><time>2026-05-02T14:58:57.977Z</time></trkpt><trkpt lat="44.27959242750588" lon="10.934142451481033"><ele>755.4</ele><time>2026-05-02T14:58:58.977Z</time></trkpt><trkpt lat="44.27950944837555" lon="10.93423597667005"><ele>755.8</ele><time>2026-05-02T14:58:59.977Z</time></trkpt><trkpt lat="44.27943378380776" lon="10.93433560370286"><ele>756.2</ele><time>2026-05-02T14:59:00.977Z</time></trkpt><trkpt lat="44.2793531509121" lon="10.934428523955235"><ele>756.6</ele><time>2026-05-02T14:59:01.977Z</time></trkpt><trkpt lat="44.279267606685416" lon="10.934513186875956"><ele>757.0</ele><time>2026-05-02T14:59:02.977Z</time></trkpt><trkpt lat="44.279178303341084" lon="10.934585554503817"><ele>757.0</ele><time>2026-05-02T14:59:03.977Z</time></trkpt><trkpt lat="44.27909264103079" lon="10.934639345537137"><ele>757.0</ele><time>2026-05-02T14:59:04.977Z</time></trkpt><trkpt lat="44.279004783440705" lon="10.93468867379513"><ele>757.0</ele><time>2026-05-02T14:59:05.977Z</time></trkpt><trkpt lat="44.2789179232021" lon="10.934733478869543"><ele>757.0</ele><time>2026-05-02T14:59:06.977Z</time></trkpt><trkpt lat="44.278842021499024" lon="10.934793374681906"><ele>757.0</ele><time>2026-05-02T14:59:07.977Z</time></trkpt><trkpt lat="44.27878038203705" lon="10.934863116531782"><ele>757.0</ele><time>2026-05-02T14:59:08.977Z</time></trkpt><trkpt lat="44.27873526337854" lon="10.934955821766675"><ele>758.3333333333334</ele><time>2026-05-02T14:59:09.977Z</time></trkpt><trkpt lat="44.27872045326833" lon="10.935069023977825"><ele>759.6666666666667</ele><time>2026-05-02T14:59:10.977Z</time></trkpt><trkpt lat="44.2787166896183" lon="10.935181307337459"><ele>761.0</ele><time>2026-05-02T14:59:11.977Z</time></trkpt><trkpt lat="44.27871106487253" lon="10.935301782341153"><ele>762.3333333333334</ele><time>2026-05-02T14:59:12.977Z</time></trkpt><trkpt lat="44.278731282821205" lon="10.935429527261505"><ele>763.6666666666666</ele><time>2026-05-02T14:59:13.977Z</time></trkpt><trkpt lat="44.27875083344679" lon="10.935548433314167"><ele>765.0</ele><time>2026-05-02T14:59:14.977Z</time></trkpt><trkpt lat="44.27879934128687" lon="10.935653867195327"><ele>765.0</ele><time>2026-05-02T14:59:15.977Z</time></trkpt><trkpt lat="44.278814825264156" lon="10.935764780174535"><ele>765.0</ele><time>2026-05-02T14:59:16.977Z</time></trkpt><trkpt lat="44.27879493636556" lon="10.935884635408792"><ele>765.0</ele><time>2026-05-02T14:59:17.977Z</time></trkpt><trkpt lat="44.27875076468094" lon="10.935986935631236"><ele>765.0</ele><time>2026-05-02T14:59:18.977Z</time></trkpt><trkpt lat="44.27868890867388" lon="10.936017099430352"><ele>765.0</ele><time>2026-05-02T14:59:19.977Z</time></trkpt><trkpt lat="44.27860374567933" lon="10.936020225057806"><ele>765.0</ele><time>2026-05-02T14:59:20.977Z</time></trkpt><trkpt lat="44.278543099777536" lon="10.935925707307403"><ele>765.0</ele><time>2026-05-02T14:59:21.977Z</time></trkpt><trkpt lat="44.27849358942602" lon="10.93583189309315"><ele>765.0</ele><time>2026-05-02T14:59:22.977Z</time></trkpt><trkpt lat="44.27844836631256" lon="10.935716243321364"><ele>765.0</ele><time>2026-05-02T14:59:23.977Z</time></trkpt><trkpt lat="44.27840215299938" lon="10.935599976274862"><ele>765.0</ele><time>2026-05-02T14:59:24.977Z</time></trkpt><trkpt lat="44.27836055381714" lon="10.935486262501351"><ele>765.0</ele><time>2026-05-02T14:59:25.977Z</time></trkpt><trkpt lat="44.278319925904455" lon="10.935365675023696"><ele>765.0</ele><time>2026-05-02T14:59:26.977Z</time></trkpt><trkpt lat="44.278275950391716" lon="10.935257744935763"><ele>765.0</ele><time>2026-05-02T14:59:27.977Z</time></trkpt><trkpt lat="44.27826120543455" lon="10.935147489489808"><ele>765.0</ele><time>2026-05-02T14:59:28.977Z</time></trkpt><trkpt lat="44.27819988232233" lon="10.935079682035365"><ele>765.0</ele><time>2026-05-02T14:59:29.977Z</time></trkpt><trkpt lat="44.27812175607397" lon="10.935029072382152"><ele>765.0</ele><time>2026-05-02T14:59:30.977Z</time></trkpt><trkpt lat="44.27804125911952" lon="10.935024109980843"><ele>765.0</ele><time>2026-05-02T14:59:31.977Z</time></trkpt><trkpt lat="44.277949600551956" lon="10.935029475786585"><ele>764.4</ele><time>2026-05-02T14:59:32.977Z</time></trkpt><trkpt lat="44.277846491009484" lon="10.935023560464415"><ele>763.8</ele><time>2026-05-02T14:59:33.977Z</time></trkpt><trkpt lat="44.277738740969454" lon="10.93503005215913"><ele>763.2</ele><time>2026-05-02T14:59:34.978Z</time></trkpt><trkpt lat="44.27763652629705" lon="10.935038623415805"><ele>762.6</ele><time>2026-05-02T14:59:35.978Z</time></trkpt><trkpt lat="44.277529508460916" lon="10.93504844599138"><ele>762.0</ele><time>2026-05-02T14:59:36.978Z</time></trkpt><trkpt lat="44.27742108461768" lon="10.935059244933697"><ele>764.6</ele><time>2026-05-02T14:59:37.978Z</time></trkpt><trkpt lat="44.277316799643785" lon="10.935072275572706"><ele>767.2</ele><time>2026-05-02T14:59:38.978Z</time></trkpt><trkpt lat="44.277211211027335" lon="10.93508968544447"><ele>769.8</ele><time>2026-05-02T14:59:39.978Z</time></trkpt><trkpt lat="44.27710693568347" lon="10.935132327445348"><ele>772.4</ele><time>2026-05-02T14:59:40.978Z</time></trkpt><trkpt lat="44.27700055751699" lon="10.935166689360921"><ele>775.0</ele><time>2026-05-02T14:59:41.978Z</time></trkpt><trkpt lat="44.27689283213526" lon="10.935198087773394"><ele>775.0</ele><time>2026-05-02T14:59:42.978Z</time></trkpt><trkpt lat="44.276789991302486" lon="10.935268755968872"><ele>775.0</ele><time>2026-05-02T14:59:43.978Z</time></trkpt><trkpt lat="44.276697085853435" lon="10.935366391033439"><ele>775.0</ele><time>2026-05-02T14:59:44.978Z</time></trkpt><trkpt lat="44.27661845007753" lon="10.935478068732776"><ele>775.0</ele><time>2026-05-02T14:59:45.978Z</time></trkpt><trkpt lat="44.27654123392276" lon="10.935590799766494"><ele>775.0</ele><time>2026-05-02T14:59:46.978Z</time></trkpt><trkpt lat="44.27646949144776" lon="10.935695086503799"><ele>775.0</ele><time>2026-05-02T14:59:47.978Z</time></trkpt><trkpt lat="44.276399586517734" lon="10.93580533469328"><ele>775.0</ele><time>2026-05-02T14:59:48.978Z</time></trkpt><trkpt lat="44.276330298230725" lon="10.93591271404039"><ele>775.0</ele><time>2026-05-02T14:59:49.978Z</time></trkpt><trkpt lat="44.27626452747538" lon="10.936015824120032"><ele>775.0</ele><time>2026-05-02T14:59:50.978Z</time></trkpt><trkpt lat="44.27620029581229" lon="10.936117506026198"><ele>776.4</ele><time>2026-05-02T14:59:51.978Z</time></trkpt><trkpt lat="44.276124396122285" lon="10.936216698629291"><ele>777.8</ele><time>2026-05-02T14:59:52.978Z</time></trkpt><trkpt lat="44.2760366876869" lon="10.93629526453118"><ele>779.2</ele><time>2026-05-02T14:59:53.978Z</time></trkpt><trkpt lat="44.27595183799363" lon="10.936356095284047"><ele>780.6</ele><time>2026-05-02T14:59:54.978Z</time></trkpt><trkpt lat="44.275868422693605" lon="10.936402735988356"><ele>782.0</ele><time>2026-05-02T14:59:55.978Z</time></trkpt><trkpt lat="44.275772183297995" lon="10.936431462021645"><ele>782.0</ele><time>2026-05-02T14:59:56.978Z</time></trkpt><trkpt lat="44.27568323660476" lon="10.93647997916587"><ele>782.0</ele><time>2026-05-02T14:59:57.978Z</time></trkpt><trkpt lat="44.27559753690768" lon="10.936529752802521"><ele>782.0</ele><time>2026-05-02T14:59:58.978Z</time></trkpt><trkpt lat="44.275510982927024" lon="10.93659041863514"><ele>782.0</ele><time>2026-05-02T14:59:59.978Z</time></trkpt><trkpt lat="44.2754417569818" lon="10.936690357956348"><ele>782.0</ele><time>2026-05-02T15:00:00.978Z</time></trkpt><trkpt lat="44.27536844303105" lon="10.936768257414885"><ele>783.4285714285713</ele><time>2026-05-02T15:00:01.978Z</time></trkpt><trkpt lat="44.27530663722452" lon="10.936859765691452"><ele>784.8571428571429</ele><time>2026-05-02T15:00:02.978Z</time></trkpt><trkpt lat="44.27525556301141" lon="10.936951449462182"><ele>786.2857142857142</ele><time>2026-05-02T15:00:03.978Z</time></trkpt><trkpt lat="44.27520744797278" lon="10.937030133334757"><ele>787.7142857142857</ele><time>2026-05-02T15:00:04.978Z</time></trkpt><trkpt lat="44.275149815110005" lon="10.937080078050354"><ele>789.1428571428571</ele><time>2026-05-02T15:00:05.978Z</time></trkpt><trkpt lat="44.27510450948776" lon="10.937145300965671"><ele>790.5714285714286</ele><time>2026-05-02T15:00:06.978Z</time></trkpt><trkpt lat="44.275053341135546" lon="10.93720781137034"><ele>792.0</ele><time>2026-05-02T15:00:07.978Z</time></trkpt><trkpt lat="44.274996793260826" lon="10.937259632743556"><ele>792.0</ele><time>2026-05-02T15:00:08.978Z</time></trkpt><trkpt lat="44.27493813050463" lon="10.93730034337078"><ele>792.0</ele><time>2026-05-02T15:00:09.978Z</time></trkpt><trkpt lat="44.274836545517" lon="10.93736523383588"><ele>792.0</ele><time>2026-05-02T15:00:11.978Z</time></trkpt><trkpt lat="44.27475951200389" lon="10.937415267135133"><ele>792.0</ele><time>2026-05-02T15:00:12.978Z</time></trkpt><trkpt lat="44.274684417868365" lon="10.937463863553681"><ele>792.0</ele><time>2026-05-02T15:00:13.979Z</time></trkpt><trkpt lat="44.274595504051625" lon="10.93751369505634"><ele>792.0</ele><time>2026-05-02T15:00:14.979Z</time></trkpt><trkpt lat="44.2744996751836" lon="10.937568135592953"><ele>797.2</ele><time>2026-05-02T15:00:15.979Z</time></trkpt><trkpt lat="44.27439912745691" lon="10.937632719467727"><ele>802.4000000000001</ele><time>2026-05-02T15:00:16.979Z</time></trkpt><trkpt lat="44.274289683101664" lon="10.937702741419127"><ele>807.5999999999999</ele><time>2026-05-02T15:00:17.979Z</time></trkpt><trkpt lat="44.274195669045206" lon="10.937758489616765"><ele>812.8</ele><time>2026-05-02T15:00:18.979Z</time></trkpt><trkpt lat="44.274103102536124" lon="10.937812832074219"><ele>818.0</ele><time>2026-05-02T15:00:19.979Z</time></trkpt><trkpt lat="44.2740056815939" lon="10.93785871193708"><ele>817.0</ele><time>2026-05-02T15:00:20.979Z</time></trkpt><trkpt lat="44.27389630848031" lon="10.937881833697475"><ele>816.0</ele><time>2026-05-02T15:00:21.979Z</time></trkpt><trkpt lat="44.27377738573524" lon="10.9378880575876"><ele>815.0</ele><time>2026-05-02T15:00:22.979Z</time></trkpt><trkpt lat="44.27366644791689" lon="10.937879835925559"><ele>814.0</ele><time>2026-05-02T15:00:23.979Z</time></trkpt><trkpt lat="44.27356776555544" lon="10.9378745521838"><ele>813.0</ele><time>2026-05-02T15:00:24.979Z</time></trkpt><trkpt lat="44.27347151540227" lon="10.937872478884785"><ele>813.0</ele><time>2026-05-02T15:00:25.979Z</time></trkpt><trkpt lat="44.2733660082845" lon="10.93792818765994"><ele>813.0</ele><time>2026-05-02T15:00:26.979Z</time></trkpt><trkpt lat="44.273269606698605" lon="10.938006167284675"><ele>813.0</ele><time>2026-05-02T15:00:27.976Z</time></trkpt><trkpt lat="44.27318748688011" lon="10.938115122252"><ele>813.0</ele><time>2026-05-02T15:00:28.976Z</time></trkpt><trkpt lat="44.27311703299748" lon="10.938220766680455"><ele>813.0</ele><time>2026-05-02T15:00:29.976Z</time></trkpt><trkpt lat="44.27304633953759" lon="10.938320162917446"><ele>813.1428571428572</ele><time>2026-05-02T15:00:30.976Z</time></trkpt><trkpt lat="44.272970591239684" lon="10.938384024330373"><ele>813.2857142857142</ele><time>2026-05-02T15:00:31.976Z</time></trkpt><trkpt lat="44.272889743765745" lon="10.938402869577857"><ele>813.4285714285714</ele><time>2026-05-02T15:00:32.976Z</time></trkpt><trkpt lat="44.272826747412125" lon="10.938345563143999"><ele>813.5714285714287</ele><time>2026-05-02T15:00:33.976Z</time></trkpt><trkpt lat="44.2727927545346" lon="10.938264698488338"><ele>813.7142857142858</ele><time>2026-05-02T15:00:34.976Z</time></trkpt><trkpt lat="44.272795256685974" lon="10.938172184285767"><ele>813.8571428571429</ele><time>2026-05-02T15:00:35.976Z</time></trkpt><trkpt lat="44.27279445367218" lon="10.938079148689603"><ele>814.0</ele><time>2026-05-02T15:00:36.976Z</time></trkpt><trkpt lat="44.27277366280198" lon="10.93798585189445"><ele>813.9999999999999</ele><time>2026-05-02T15:00:37.976Z</time></trkpt><trkpt lat="44.272717940061035" lon="10.937905360544828"><ele>814.0</ele><time>2026-05-02T15:00:38.976Z</time></trkpt><trkpt lat="44.27265300527688" lon="10.937840463048254"><ele>814.0</ele><time>2026-05-02T15:00:39.976Z</time></trkpt><trkpt lat="44.27257993918987" lon="10.937788924864922"><ele>814.0</ele><time>2026-05-02T15:00:40.976Z</time></trkpt><trkpt lat="44.27250107142534" lon="10.937743945770967"><ele>813.9999999999999</ele><time>2026-05-02T15:00:41.976Z</time></trkpt><trkpt lat="44.2724247135618" lon="10.937709707468931"><ele>814.0</ele><time>2026-05-02T15:00:42.977Z</time></trkpt><trkpt lat="44.27233757905791" lon="10.937705315397036"><ele>814.4000000000001</ele><time>2026-05-02T15:00:43.977Z</time></trkpt><trkpt lat="44.27224967517855" lon="10.937719662967773"><ele>814.8</ele><time>2026-05-02T15:00:44.977Z</time></trkpt><trkpt lat="44.27215483008713" lon="10.937734411404255"><ele>815.2</ele><time>2026-05-02T15:00:45.977Z</time></trkpt><trkpt lat="44.27205050258977" lon="10.937714258082915"><ele>815.5999999999999</ele><time>2026-05-02T15:00:46.977Z</time></trkpt><trkpt lat="44.27195340360819" lon="10.9377439160765"><ele>816.0</ele><time>2026-05-02T15:00:47.977Z</time></trkpt><trkpt lat="44.27184544558682" lon="10.937761080511331"><ele>816.0</ele><time>2026-05-02T15:00:48.977Z</time></trkpt><trkpt lat="44.27173641604005" lon="10.937761730124974"><ele>816.0</ele><time>2026-05-02T15:00:49.977Z</time></trkpt><trkpt lat="44.271625420531315" lon="10.93775730980807"><ele>816.0</ele><time>2026-05-02T15:00:50.977Z</time></trkpt><trkpt lat="44.271517584586555" lon="10.937728882488022"><ele>816.0</ele><time>2026-05-02T15:00:51.977Z</time></trkpt><trkpt lat="44.27141373444728" lon="10.937705282068361"><ele>816.0</ele><time>2026-05-02T15:00:52.977Z</time></trkpt><trkpt lat="44.27131213083451" lon="10.937690675212952"><ele>813.4</ele><time>2026-05-02T15:00:53.977Z</time></trkpt><trkpt lat="44.271210526820234" lon="10.93767711413772"><ele>810.8</ele><time>2026-05-02T15:00:54.977Z</time></trkpt><trkpt lat="44.271115385625755" lon="10.937667351111523"><ele>808.1999999999999</ele><time>2026-05-02T15:00:55.977Z</time></trkpt><trkpt lat="44.27101987142785" lon="10.937645431934445"><ele>805.5999999999999</ele><time>2026-05-02T15:00:56.977Z</time></trkpt><trkpt lat="44.270925027294695" lon="10.937623323611941"><ele>803.0</ele><time>2026-05-02T15:00:57.977Z</time></trkpt><trkpt lat="44.27083184208131" lon="10.937600410525231"><ele>803.0000000000001</ele><time>2026-05-02T15:00:58.977Z</time></trkpt><trkpt lat="44.27074260192449" lon="10.937607183273304"><ele>803.0</ele><time>2026-05-02T15:00:59.977Z</time></trkpt><trkpt lat="44.27066894637608" lon="10.937645203087179"><ele>803.0</ele><time>2026-05-02T15:01:00.977Z</time></trkpt><trkpt lat="44.27060856042252" lon="10.937723023581912"><ele>803.0</ele><time>2026-05-02T15:01:01.977Z</time></trkpt><trkpt lat="44.27054291748863" lon="10.937808373409869"><ele>803.0000000000001</ele><time>2026-05-02T15:01:02.977Z</time></trkpt><trkpt lat="44.27050031248488" lon="10.937932454996652"><ele>803.0</ele><time>2026-05-02T15:01:03.977Z</time></trkpt><trkpt lat="44.27046652362538" lon="10.938053542950568"><ele>803.0000000000001</ele><time>2026-05-02T15:01:04.977Z</time></trkpt><trkpt lat="44.27044058632747" lon="10.93817170866897"><ele>803.0</ele><time>2026-05-02T15:01:05.977Z</time></trkpt><trkpt lat="44.270481974676805" lon="10.938290217520738"><ele>803.0</ele><time>2026-05-02T15:01:06.977Z</time></trkpt><trkpt lat="44.270501432966014" lon="10.938406066919477"><ele>803.0</ele><time>2026-05-02T15:01:07.977Z</time></trkpt><trkpt lat="44.27054848453539" lon="10.938502732968146"><ele>803.0000000000001</ele><time>2026-05-02T15:01:08.977Z</time></trkpt><trkpt lat="44.270613619278535" lon="10.93857243207219"><ele>803.0</ele><time>2026-05-02T15:01:09.977Z</time></trkpt><trkpt lat="44.27068564306016" lon="10.938635437724956"><ele>803.0000000000001</ele><time>2026-05-02T15:01:10.977Z</time></trkpt><trkpt lat="44.270740665801156" lon="10.93872315088418"><ele>803.0</ele><time>2026-05-02T15:01:11.977Z</time></trkpt><trkpt lat="44.270791211163605" lon="10.93880612817431"><ele>803.0</ele><time>2026-05-02T15:01:12.977Z</time></trkpt><trkpt lat="44.27083569014993" lon="10.938893232361782"><ele>803.0</ele><time>2026-05-02T15:01:13.977Z</time></trkpt><trkpt lat="44.27081614786962" lon="10.938994528165626"><ele>803.0000000000001</ele><time>2026-05-02T15:01:14.977Z</time></trkpt><trkpt lat="44.27072902077973" lon="10.939111888037022"><ele>803.0</ele><time>2026-05-02T15:01:16.977Z</time></trkpt><trkpt lat="44.27064038377119" lon="10.939154703502242"><ele>801.0</ele><time>2026-05-02T15:01:17.977Z</time></trkpt><trkpt lat="44.270543888755626" lon="10.939179088789407"><ele>799.0</ele><time>2026-05-02T15:01:18.977Z</time></trkpt><trkpt lat="44.270437467462" lon="10.939187405224404"><ele>797.0</ele><time>2026-05-02T15:01:19.977Z</time></trkpt><trkpt lat="44.27032173858506" lon="10.939176887032001"><ele>795.0</ele><time>2026-05-02T15:01:20.977Z</time></trkpt><trkpt lat="44.27018759841715" lon="10.939185368180114"><ele>795.0</ele><time>2026-05-02T15:01:21.978Z</time></trkpt><trkpt lat="44.270070422052164" lon="10.939179353156268"><ele>795.0</ele><time>2026-05-02T15:01:22.978Z</time></trkpt><trkpt lat="44.269952766633715" lon="10.939166707578597"><ele>795.0</ele><time>2026-05-02T15:01:23.978Z</time></trkpt><trkpt lat="44.26983678761443" lon="10.939154662424492"><ele>795.0</ele><time>2026-05-02T15:01:24.978Z</time></trkpt><trkpt lat="44.26972533018416" lon="10.939135311615987"><ele>794.5</ele><time>2026-05-02T15:01:25.978Z</time></trkpt><trkpt lat="44.26963900849054" lon="10.939125447496451"><ele>794.0</ele><time>2026-05-02T15:01:26.978Z</time></trkpt><trkpt lat="44.26956216819308" lon="10.939129049955286"><ele>793.5</ele><time>2026-05-02T15:01:27.978Z</time></trkpt><trkpt lat="44.269480904169626" lon="10.939151819408083"><ele>793.0</ele><time>2026-05-02T15:01:28.978Z</time></trkpt><trkpt lat="44.269402169536676" lon="10.939189277463944"><ele>792.5</ele><time>2026-05-02T15:01:29.978Z</time></trkpt><trkpt lat="44.26932250938573" lon="10.939242377795765"><ele>792.0</ele><time>2026-05-02T15:01:30.978Z</time></trkpt><trkpt lat="44.26925600078379" lon="10.93931123380474"><ele>793.3333333333334</ele><time>2026-05-02T15:01:31.978Z</time></trkpt><trkpt lat="44.26919709901484" lon="10.93937867699162"><ele>794.6666666666667</ele><time>2026-05-02T15:01:32.978Z</time></trkpt><trkpt lat="44.26914577211011" lon="10.93944897674262"><ele>796.0</ele><time>2026-05-02T15:01:33.978Z</time></trkpt><trkpt lat="44.269100152807155" lon="10.939530566067242"><ele>797.3333333333334</ele><time>2026-05-02T15:01:34.978Z</time></trkpt><trkpt lat="44.26905563950091" lon="10.939620199012388"><ele>798.6666666666667</ele><time>2026-05-02T15:01:35.978Z</time></trkpt><trkpt lat="44.269018848023286" lon="10.939731737446648"><ele>800.0</ele><time>2026-05-02T15:01:36.978Z</time></trkpt><trkpt lat="44.26897744346557" lon="10.939829057857953"><ele>800.4</ele><time>2026-05-02T15:01:37.978Z</time></trkpt><trkpt lat="44.26892782152575" lon="10.939917087173022"><ele>800.8</ele><time>2026-05-02T15:01:38.978Z</time></trkpt><trkpt lat="44.26887645634296" lon="10.940007074019308"><ele>801.2</ele><time>2026-05-02T15:01:39.978Z</time></trkpt><trkpt lat="44.26885934627078" lon="10.940122675776678"><ele>801.6</ele><time>2026-05-02T15:01:40.978Z</time></trkpt><trkpt lat="44.268822816632095" lon="10.940213665644002"><ele>802.0</ele><time>2026-05-02T15:01:41.978Z</time></trkpt><trkpt lat="44.26869946417953" lon="10.940149165264812"><ele>800.25</ele><time>2026-05-02T15:01:42.978Z</time></trkpt><trkpt lat="44.26863662033203" lon="10.940230072325457"><ele>798.5</ele><time>2026-05-02T15:01:43.978Z</time></trkpt><trkpt lat="44.268555023658" lon="10.940335832144617"><ele>796.75</ele><time>2026-05-02T15:01:45.978Z</time></trkpt><trkpt lat="44.26845902364119" lon="10.940460260317737"><ele>795.0</ele><time>2026-05-02T15:01:47.978Z</time></trkpt><trkpt lat="44.26835088786575" lon="10.940601466563633"><ele>795.0</ele><time>2026-05-02T15:01:49.978Z</time></trkpt><trkpt lat="44.26829026714121" lon="10.940664251413157"><ele>795.0</ele><time>2026-05-02T15:01:51.978Z</time></trkpt><trkpt lat="44.26819819425523" lon="10.940754055435926"><ele>795.0</ele><time>2026-05-02T15:01:53.978Z</time></trkpt><trkpt lat="44.26807488131926" lon="10.940842272622328"><ele>795.0</ele><time>2026-05-02T15:01:55.978Z</time></trkpt><trkpt lat="44.26797660854682" lon="10.940926549033291"><ele>795.0</ele><time>2026-05-02T15:01:57.978Z</time></trkpt><trkpt lat="44.26792689160052" lon="10.94098412556052"><ele>793.4</ele><time>2026-05-02T15:01:58.978Z</time></trkpt><trkpt lat="44.267902343949785" lon="10.94107662776054"><ele>791.8</ele><time>2026-05-02T15:01:59.978Z</time></trkpt><trkpt lat="44.26802187375569" lon="10.941229696329474"><ele>790.2</ele><time>2026-05-02T15:02:01.979Z</time></trkpt><trkpt lat="44.26813640230335" lon="10.941313936395874"><ele>788.6</ele><time>2026-05-02T15:02:03.979Z</time></trkpt><trkpt lat="44.2681995007582" lon="10.941368711581637"><ele>787.0</ele><time>2026-05-02T15:02:04.979Z</time></trkpt><trkpt lat="44.26826560930912" lon="10.941422444761962"><ele>786.9999999999999</ele><time>2026-05-02T15:02:05.979Z</time></trkpt><trkpt lat="44.26833585532522" lon="10.941476455429697"><ele>787.0</ele><time>2026-05-02T15:02:06.979Z</time></trkpt><trkpt lat="44.26840890446885" lon="10.941528804244975"><ele>787.0</ele><time>2026-05-02T15:02:07.979Z</time></trkpt><trkpt lat="44.26849028476021" lon="10.941582769028257"><ele>787.0</ele><time>2026-05-02T15:02:08.979Z</time></trkpt><trkpt lat="44.268568158825694" lon="10.941631024117104"><ele>786.9999999999999</ele><time>2026-05-02T15:02:09.979Z</time></trkpt><trkpt lat="44.26864503672415" lon="10.941670354750604"><ele>787.0</ele><time>2026-05-02T15:02:10.979Z</time></trkpt><trkpt lat="44.26873367606449" lon="10.941667129137977"><ele>788.1666666666666</ele><time>2026-05-02T15:02:11.979Z</time></trkpt><trkpt lat="44.2688015436171" lon="10.941716820577069"><ele>789.3333333333333</ele><time>2026-05-02T15:02:12.979Z</time></trkpt><trkpt lat="44.268857450387124" lon="10.941794129121112"><ele>790.5</ele><time>2026-05-02T15:02:13.979Z</time></trkpt><trkpt lat="44.26890158316756" lon="10.94186750956503"><ele>791.6666666666667</ele><time>2026-05-02T15:02:14.979Z</time></trkpt><trkpt lat="44.26893789509827" lon="10.941941548613434"><ele>792.8333333333334</ele><time>2026-05-02T15:02:15.979Z</time></trkpt><trkpt lat="44.268977393156035" lon="10.942030760413871"><ele>794.0</ele><time>2026-05-02T15:02:16.979Z</time></trkpt><trkpt lat="44.26904370684838" lon="10.942214294272393"><ele>794.0000000000001</ele><time>2026-05-02T15:02:18.979Z</time></trkpt><trkpt lat="44.26907761187335" lon="10.942297138337548"><ele>794.0</ele><time>2026-05-02T15:02:19.979Z</time></trkpt><trkpt lat="44.26911484635486" lon="10.942388380850373"><ele>794.0</ele><time>2026-05-02T15:02:20.979Z</time></trkpt><trkpt lat="44.26916218577675" lon="10.94248259018032"><ele>794.0</ele><time>2026-05-02T15:02:21.979Z</time></trkpt><trkpt lat="44.26918551279677" lon="10.942587099013702"><ele>794.0000000000001</ele><time>2026-05-02T15:02:22.979Z</time></trkpt><trkpt lat="44.26921314009271" lon="10.942696839681028"><ele>794.0</ele><time>2026-05-02T15:02:23.979Z</time></trkpt><trkpt lat="44.26924144238413" lon="10.942814591984185"><ele>792.6</ele><time>2026-05-02T15:02:24.979Z</time></trkpt><trkpt lat="44.269271524876" lon="10.942939751668451"><ele>791.2</ele><time>2026-05-02T15:02:25.979Z</time></trkpt><trkpt lat="44.26930158687485" lon="10.943063909195171"><ele>789.8000000000001</ele><time>2026-05-02T15:02:26.979Z</time></trkpt><trkpt lat="44.26936562457954" lon="10.943167173257718"><ele>788.4000000000001</ele><time>2026-05-02T15:02:27.979Z</time></trkpt><trkpt lat="44.26939359315442" lon="10.943292154399737"><ele>787.0</ele><time>2026-05-02T15:02:28.979Z</time></trkpt><trkpt lat="44.26942332206373" lon="10.943425021818154"><ele>785.4000000000001</ele><time>2026-05-02T15:02:29.979Z</time></trkpt><trkpt lat="44.26945099186254" lon="10.943552487806928"><ele>783.8000000000001</ele><time>2026-05-02T15:02:30.979Z</time></trkpt><trkpt lat="44.269484051810785" lon="10.943682014770056"><ele>782.2</ele><time>2026-05-02T15:02:31.979Z</time></trkpt><trkpt lat="44.26951714064642" lon="10.943805863967253"><ele>780.6</ele><time>2026-05-02T15:02:32.979Z</time></trkpt><trkpt lat="44.26954715937691" lon="10.943945455374543"><ele>779.0</ele><time>2026-05-02T15:02:33.975Z</time></trkpt><trkpt lat="44.26958449905051" lon="10.94407851068841"><ele>779.0</ele><time>2026-05-02T15:02:34.975Z</time></trkpt><trkpt lat="44.269636105245226" lon="10.944213040352208"><ele>779.0</ele><time>2026-05-02T15:02:35.975Z</time></trkpt><trkpt lat="44.26968531754099" lon="10.944347797703893"><ele>779.0</ele><time>2026-05-02T15:02:36.975Z</time></trkpt><trkpt lat="44.269721727415074" lon="10.944483013058745"><ele>779.0</ele><time>2026-05-02T15:02:37.975Z</time></trkpt><trkpt lat="44.269725007266" lon="10.944607757849276"><ele>779.0</ele><time>2026-05-02T15:02:38.975Z</time></trkpt><trkpt lat="44.2697254604989" lon="10.944745305621321"><ele>777.8000000000001</ele><time>2026-05-02T15:02:39.975Z</time></trkpt><trkpt lat="44.26969445238371" lon="10.944879045585234"><ele>776.6</ele><time>2026-05-02T15:02:40.974Z</time></trkpt><trkpt lat="44.26965978649427" lon="10.94499843428779"><ele>775.4</ele><time>2026-05-02T15:02:41.974Z</time></trkpt><trkpt lat="44.26962847585306" lon="10.945122852225845"><ele>774.2</ele><time>2026-05-02T15:02:42.975Z</time></trkpt><trkpt lat="44.269602106807405" lon="10.945252938659287"><ele>773.0</ele><time>2026-05-02T15:02:43.974Z</time></trkpt><trkpt lat="44.26958184927286" lon="10.945382348931638"><ele>773.0</ele><time>2026-05-02T15:02:44.974Z</time></trkpt><trkpt lat="44.26956443169276" lon="10.94552623990302"><ele>773.0</ele><time>2026-05-02T15:02:45.975Z</time></trkpt><trkpt lat="44.26955721402995" lon="10.94566625574291"><ele>773.0</ele><time>2026-05-02T15:02:46.975Z</time></trkpt><trkpt lat="44.26954676833688" lon="10.945809795345074"><ele>773.0</ele><time>2026-05-02T15:02:47.975Z</time></trkpt><trkpt lat="44.2695398388319" lon="10.945956887386698"><ele>773.0</ele><time>2026-05-02T15:02:48.975Z</time></trkpt><trkpt lat="44.269525656602845" lon="10.946107884260295"><ele>773.0</ele><time>2026-05-02T15:02:49.975Z</time></trkpt><trkpt lat="44.26951480312682" lon="10.946269021313395"><ele>773.0</ele><time>2026-05-02T15:02:50.975Z</time></trkpt><trkpt lat="44.26950820962961" lon="10.946416768432531"><ele>773.0</ele><time>2026-05-02T15:02:51.975Z</time></trkpt><trkpt lat="44.26949193470784" lon="10.946566514036187"><ele>773.0</ele><time>2026-05-02T15:02:52.975Z</time></trkpt><trkpt lat="44.26946849072426" lon="10.946706113582636"><ele>773.0</ele><time>2026-05-02T15:02:53.975Z</time></trkpt><trkpt lat="44.269431570065784" lon="10.946836501476177"><ele>773.0000000000001</ele><time>2026-05-02T15:02:54.976Z</time></trkpt><trkpt lat="44.269398469532774" lon="10.946980323638124"><ele>773.0</ele><time>2026-05-02T15:02:55.976Z</time></trkpt><trkpt lat="44.26936337933758" lon="10.947079335516124"><ele>773.0</ele><time>2026-05-02T15:02:56.976Z</time></trkpt><trkpt lat="44.26932928122" lon="10.947181656833395"><ele>773.0</ele><time>2026-05-02T15:02:57.976Z</time></trkpt><trkpt lat="44.269295781477" lon="10.94726468675994"><ele>773.0000000000001</ele><time>2026-05-02T15:02:58.976Z</time></trkpt><trkpt lat="44.2692511700558" lon="10.947364932662271"><ele>773.0</ele><time>2026-05-02T15:03:00.977Z</time></trkpt><trkpt lat="44.269209586438684" lon="10.947460507101251"><ele>772.7142857142857</ele><time>2026-05-02T15:03:02.977Z</time></trkpt><trkpt lat="44.269167660711126" lon="10.947574326337916"><ele>772.4285714285713</ele><time>2026-05-02T15:03:04.977Z</time></trkpt><trkpt lat="44.26912460033815" lon="10.947648862339946"><ele>772.1428571428571</ele><time>2026-05-02T15:03:06.977Z</time></trkpt><trkpt lat="44.26909090959336" lon="10.947730417857702"><ele>771.8571428571429</ele><time>2026-05-02T15:03:09.978Z</time></trkpt><trkpt lat="44.269059931164264" lon="10.947817681534323"><ele>771.5714285714286</ele><time>2026-05-02T15:03:17.978Z</time></trkpt><trkpt lat="44.26901999818423" lon="10.947887244786592"><ele>771.2857142857143</ele><time>2026-05-02T15:03:22.979Z</time></trkpt><trkpt lat="44.26905608987641" lon="10.94780852617321"><ele>771.0</ele><time>2026-05-02T15:03:29.979Z</time></trkpt><trkpt lat="44.26900192004443" lon="10.947933328209242"><ele>771.0</ele><time>2026-05-02T15:03:49.98Z</time></trkpt><trkpt lat="44.26895711345391" lon="10.948061968893395"><ele>771.0</ele><time>2026-05-02T15:03:51.98Z</time></trkpt><trkpt lat="44.26890044885747" lon="10.948214721198003"><ele>771.0</ele><time>2026-05-02T15:03:53.98Z</time></trkpt><trkpt lat="44.268851535364796" lon="10.9483006940991"><ele>771.0</ele><time>2026-05-02T15:03:54.98Z</time></trkpt><trkpt lat="44.26881406319768" lon="10.948398206990426"><ele>771.0</ele><time>2026-05-02T15:03:55.98Z</time></trkpt><trkpt lat="44.26877093971518" lon="10.948493070460067"><ele>769.8333333333334</ele><time>2026-05-02T15:03:56.98Z</time></trkpt><trkpt lat="44.26872973600854" lon="10.948592077965625"><ele>768.6666666666666</ele><time>2026-05-02T15:03:57.98Z</time></trkpt><trkpt lat="44.26870059197033" lon="10.948690058159707"><ele>767.5</ele><time>2026-05-02T15:03:58.98Z</time></trkpt><trkpt lat="44.26866791143567" lon="10.948784093149502"><ele>766.3333333333333</ele><time>2026-05-02T15:03:59.98Z</time></trkpt><trkpt lat="44.26863368023131" lon="10.948888795673405"><ele>765.1666666666666</ele><time>2026-05-02T15:04:00.98Z</time></trkpt><trkpt lat="44.26860003763898" lon="10.948998490324971"><ele>764.0</ele><time>2026-05-02T15:04:01.98Z</time></trkpt><trkpt lat="44.2685673855215" lon="10.949111038423071"><ele>764.8000000000001</ele><time>2026-05-02T15:04:02.98Z</time></trkpt><trkpt lat="44.26852706603861" lon="10.949221477780956"><ele>765.6</ele><time>2026-05-02T15:04:03.98Z</time></trkpt><trkpt lat="44.268488875810654" lon="10.949338713861328"><ele>766.4</ele><time>2026-05-02T15:04:04.98Z</time></trkpt><trkpt lat="44.26845659708847" lon="10.94946372862004"><ele>767.2</ele><time>2026-05-02T15:04:05.98Z</time></trkpt><trkpt lat="44.26841956569046" lon="10.949607434197901"><ele>768.0</ele><time>2026-05-02T15:04:06.98Z</time></trkpt><trkpt lat="44.26840443169929" lon="10.9497523627103"><ele>768.0</ele><time>2026-05-02T15:04:07.98Z</time></trkpt><trkpt lat="44.268413174541536" lon="10.94989046692661"><ele>768.0</ele><time>2026-05-02T15:04:08.98Z</time></trkpt><trkpt lat="44.26841693195031" lon="10.9500365537043"><ele>768.0</ele><time>2026-05-02T15:04:09.98Z</time></trkpt><trkpt lat="44.26838987891596" lon="10.950190341734503"><ele>768.0</ele><time>2026-05-02T15:04:10.98Z</time></trkpt><trkpt lat="44.26838848510735" lon="10.950332007044588"><ele>768.0</ele><time>2026-05-02T15:04:11.98Z</time></trkpt><trkpt lat="44.26838747839562" lon="10.950467036789195"><ele>768.2</ele><time>2026-05-02T15:04:12.98Z</time></trkpt><trkpt lat="44.268389254211456" lon="10.95059911226247"><ele>768.4</ele><time>2026-05-02T15:04:13.98Z</time></trkpt><trkpt lat="44.268384976047585" lon="10.95072567932552"><ele>768.6</ele><time>2026-05-02T15:04:14.98Z</time></trkpt><trkpt lat="44.26837162877959" lon="10.950852092983448"><ele>768.8000000000001</ele><time>2026-05-02T15:04:15.98Z</time></trkpt><trkpt lat="44.26835075229548" lon="10.950971091265624"><ele>769.0</ele><time>2026-05-02T15:04:16.98Z</time></trkpt><trkpt lat="44.26832978761749" lon="10.951088628506012"><ele>769.2</ele><time>2026-05-02T15:04:17.98Z</time></trkpt><trkpt lat="44.2683164917836" lon="10.951230062620649"><ele>769.4000000000001</ele><time>2026-05-02T15:04:18.98Z</time></trkpt><trkpt lat="44.268297621462324" lon="10.951358740301583"><ele>769.6</ele><time>2026-05-02T15:04:19.98Z</time></trkpt><trkpt lat="44.26827375434185" lon="10.951489482505847"><ele>769.8</ele><time>2026-05-02T15:04:20.98Z</time></trkpt><trkpt lat="44.26824330457147" lon="10.951623540629289"><ele>770.0</ele><time>2026-05-02T15:04:21.98Z</time></trkpt><trkpt lat="44.268200487900394" lon="10.951748484347544"><ele>770.0</ele><time>2026-05-02T15:04:22.981Z</time></trkpt><trkpt lat="44.268144677285854" lon="10.951853660669721"><ele>770.0</ele><time>2026-05-02T15:04:23.981Z</time></trkpt><trkpt lat="44.268063104748684" lon="10.951931229228663"><ele>770.0</ele><time>2026-05-02T15:04:24.981Z</time></trkpt><trkpt lat="44.267981652289414" lon="10.951999216460713"><ele>770.0</ele><time>2026-05-02T15:04:25.981Z</time></trkpt><trkpt lat="44.26789821532623" lon="10.952052533401263"><ele>770.0</ele><time>2026-05-02T15:04:26.981Z</time></trkpt><trkpt lat="44.267804614897564" lon="10.95211192743541"><ele>770.0</ele><time>2026-05-02T15:04:27.981Z</time></trkpt><trkpt lat="44.26771126500076" lon="10.952175323613627"><ele>770.0</ele><time>2026-05-02T15:04:28.981Z</time></trkpt><trkpt lat="44.26763855884766" lon="10.95224414565223"><ele>770.0</ele><time>2026-05-02T15:04:29.981Z</time></trkpt><trkpt lat="44.26754150662855" lon="10.952266512097545"><ele>770.0</ele><time>2026-05-02T15:04:30.981Z</time></trkpt><trkpt lat="44.26744612579022" lon="10.952327339696996"><ele>770.0</ele><time>2026-05-02T15:04:31.981Z</time></trkpt><trkpt lat="44.26735021606073" lon="10.952393617846443"><ele>769.75</ele><time>2026-05-02T15:04:32.981Z</time></trkpt><trkpt lat="44.26725149982148" lon="10.952465237055506"><ele>769.5</ele><time>2026-05-02T15:04:33.981Z</time></trkpt><trkpt lat="44.26714776687349" lon="10.952531349109366"><ele>769.25</ele><time>2026-05-02T15:04:34.981Z</time></trkpt><trkpt lat="44.26704466218381" lon="10.952588354399948"><ele>769.0</ele><time>2026-05-02T15:04:35.981Z</time></trkpt><trkpt lat="44.26693431228189" lon="10.952638928802763"><ele>768.2</ele><time>2026-05-02T15:04:36.981Z</time></trkpt><trkpt lat="44.266836818082815" lon="10.95269740659522"><ele>767.4000000000001</ele><time>2026-05-02T15:04:37.981Z</time></trkpt><trkpt lat="44.266745488733235" lon="10.952761017927882"><ele>766.6</ele><time>2026-05-02T15:04:38.981Z</time></trkpt><trkpt lat="44.266661484044974" lon="10.952825781024115"><ele>765.8</ele><time>2026-05-02T15:04:39.978Z</time></trkpt><trkpt lat="44.26657582778733" lon="10.95289421993439"><ele>765.0</ele><time>2026-05-02T15:04:40.978Z</time></trkpt><trkpt lat="44.266493514813966" lon="10.952973972924926"><ele>766.4</ele><time>2026-05-02T15:04:41.978Z</time></trkpt><trkpt lat="44.26640550379931" lon="10.953056911642836"><ele>767.8</ele><time>2026-05-02T15:04:42.978Z</time></trkpt><trkpt lat="44.2663125769778" lon="10.953119544916207"><ele>769.2</ele><time>2026-05-02T15:04:43.977Z</time></trkpt><trkpt lat="44.26621597753663" lon="10.953179288368414"><ele>770.6</ele><time>2026-05-02T15:04:44.977Z</time></trkpt><trkpt lat="44.26611346913512" lon="10.953228070514838"><ele>772.0</ele><time>2026-05-02T15:04:45.978Z</time></trkpt><trkpt lat="44.266001346203865" lon="10.953272289694421"><ele>772.0</ele><time>2026-05-02T15:04:46.977Z</time></trkpt><trkpt lat="44.2658951051927" lon="10.953333027907748"><ele>772.0</ele><time>2026-05-02T15:04:47.977Z</time></trkpt><trkpt lat="44.26579214603983" lon="10.953408560909939"><ele>772.0</ele><time>2026-05-02T15:04:48.978Z</time></trkpt><trkpt lat="44.26569371164126" lon="10.953491585722134"><ele>772.0</ele><time>2026-05-02T15:04:49.977Z</time></trkpt><trkpt lat="44.265602533072055" lon="10.953582489396936"><ele>771.2</ele><time>2026-05-02T15:04:50.977Z</time></trkpt><trkpt lat="44.26551687724076" lon="10.953684153283255"><ele>770.4000000000001</ele><time>2026-05-02T15:04:51.978Z</time></trkpt><trkpt lat="44.26543215391559" lon="10.953784315463478"><ele>769.5999999999999</ele><time>2026-05-02T15:04:52.978Z</time></trkpt><trkpt lat="44.26534400195365" lon="10.953880062361305"><ele>768.8</ele><time>2026-05-02T15:04:53.978Z</time></trkpt><trkpt lat="44.265255898422986" lon="10.953973566619203"><ele>768.0</ele><time>2026-05-02T15:04:54.978Z</time></trkpt><trkpt lat="44.265163493520035" lon="10.954064015187363"><ele>768.0</ele><time>2026-05-02T15:04:55.978Z</time></trkpt><trkpt lat="44.26507110027723" lon="10.95413885006306"><ele>768.0</ele><time>2026-05-02T15:04:56.978Z</time></trkpt><trkpt lat="44.26497685761542" lon="10.954202360774723"><ele>768.0</ele><time>2026-05-02T15:04:57.978Z</time></trkpt><trkpt lat="44.264874505187734" lon="10.954254059465542"><ele>768.0</ele><time>2026-05-02T15:04:58.978Z</time></trkpt><trkpt lat="44.26476864564789" lon="10.954271874091631"><ele>768.0</ele><time>2026-05-02T15:04:59.978Z</time></trkpt><trkpt lat="44.264664820245095" lon="10.954260282651719"><ele>768.2</ele><time>2026-05-02T15:05:00.978Z</time></trkpt><trkpt lat="44.26456523916069" lon="10.954238183341364"><ele>768.4</ele><time>2026-05-02T15:05:01.978Z</time></trkpt><trkpt lat="44.26446692286372" lon="10.95423838812586"><ele>768.6</ele><time>2026-05-02T15:05:02.978Z</time></trkpt><trkpt lat="44.26436426726792" lon="10.954264914800264"><ele>768.8000000000001</ele><time>2026-05-02T15:05:03.978Z</time></trkpt><trkpt lat="44.26426570656632" lon="10.95432009643615"><ele>769.0</ele><time>2026-05-02T15:05:04.978Z</time></trkpt><trkpt lat="44.264180841171196" lon="10.954404727570122"><ele>769.0</ele><time>2026-05-02T15:05:05.978Z</time></trkpt><trkpt lat="44.264114824357016" lon="10.95451376189142"><ele>769.0</ele><time>2026-05-02T15:05:06.978Z</time></trkpt><trkpt lat="44.264087422164856" lon="10.9546491350902"><ele>769.0</ele><time>2026-05-02T15:05:07.978Z</time></trkpt><trkpt lat="44.26407084301602" lon="10.954798790048407"><ele>769.0</ele><time>2026-05-02T15:05:08.978Z</time></trkpt><trkpt lat="44.26408709407698" lon="10.95494456610298"><ele>769.0</ele><time>2026-05-02T15:05:09.978Z</time></trkpt><trkpt lat="44.26412757613155" lon="10.955081991818775"><ele>769.8000000000001</ele><time>2026-05-02T15:05:10.978Z</time></trkpt><trkpt lat="44.26417864691443" lon="10.955213214762768"><ele>770.6</ele><time>2026-05-02T15:05:11.978Z</time></trkpt><trkpt lat="44.2642213397977" lon="10.955349504209323"><ele>771.4</ele><time>2026-05-02T15:05:12.978Z</time></trkpt><trkpt lat="44.26424733449483" lon="10.955494771695175"><ele>772.2</ele><time>2026-05-02T15:05:13.978Z</time></trkpt><trkpt lat="44.26426214196181" lon="10.955643897325785"><ele>773.0</ele><time>2026-05-02T15:05:14.978Z</time></trkpt><trkpt lat="44.26428649958208" lon="10.955804777112865"><ele>772.4</ele><time>2026-05-02T15:05:15.978Z</time></trkpt><trkpt lat="44.26431566531063" lon="10.955964073301995"><ele>771.8</ele><time>2026-05-02T15:05:16.978Z</time></trkpt><trkpt lat="44.26435648065514" lon="10.956103914979792"><ele>771.2</ele><time>2026-05-02T15:05:17.978Z</time></trkpt><trkpt lat="44.26439155014297" lon="10.956235984547062"><ele>770.6</ele><time>2026-05-02T15:05:18.978Z</time></trkpt><trkpt lat="44.26440088853772" lon="10.956364161157511"><ele>770.0</ele><time>2026-05-02T15:05:19.978Z</time></trkpt><trkpt lat="44.26438245390488" lon="10.956502954061046"><ele>770.0</ele><time>2026-05-02T15:05:20.978Z</time></trkpt><trkpt lat="44.26433765447249" lon="10.956630607280545"><ele>770.0</ele><time>2026-05-02T15:05:21.978Z</time></trkpt><trkpt lat="44.264279342135886" lon="10.956762692600348"><ele>770.0</ele><time>2026-05-02T15:05:22.978Z</time></trkpt><trkpt lat="44.26421830782098" lon="10.956901158130872"><ele>770.0</ele><time>2026-05-02T15:05:23.978Z</time></trkpt><trkpt lat="44.264161014617706" lon="10.957030855276614"><ele>770.0</ele><time>2026-05-02T15:05:24.978Z</time></trkpt><trkpt lat="44.26410290850392" lon="10.957156897826938"><ele>769.0</ele><time>2026-05-02T15:05:25.978Z</time></trkpt><trkpt lat="44.26403132293084" lon="10.957260299922874"><ele>768.0</ele><time>2026-05-02T15:05:26.978Z</time></trkpt><trkpt lat="44.263947247203276" lon="10.95732378564154"><ele>767.0</ele><time>2026-05-02T15:05:27.978Z</time></trkpt><trkpt lat="44.26383590575718" lon="10.957367084809785"><ele>766.0</ele><time>2026-05-02T15:05:28.979Z</time></trkpt><trkpt lat="44.26372360130885" lon="10.957388373382683"><ele>765.0</ele><time>2026-05-02T15:05:29.979Z</time></trkpt><trkpt lat="44.26360688269285" lon="10.9574092581035"><ele>765.0</ele><time>2026-05-02T15:05:30.979Z</time></trkpt><trkpt lat="44.263486149394375" lon="10.957434863013557"><ele>765.0</ele><time>2026-05-02T15:05:31.979Z</time></trkpt><trkpt lat="44.26336533239766" lon="10.95741862622251"><ele>765.0</ele><time>2026-05-02T15:05:32.979Z</time></trkpt><trkpt lat="44.263248702955295" lon="10.957444614209003"><ele>765.0</ele><time>2026-05-02T15:05:33.979Z</time></trkpt><trkpt lat="44.26313268419263" lon="10.95748817919674"><ele>767.75</ele><time>2026-05-02T15:05:34.979Z</time></trkpt><trkpt lat="44.263033669213556" lon="10.95757013482439"><ele>770.5</ele><time>2026-05-02T15:05:35.979Z</time></trkpt><trkpt lat="44.26295062357303" lon="10.957689893220051"><ele>773.25</ele><time>2026-05-02T15:05:36.979Z</time></trkpt><trkpt lat="44.2629092095533" lon="10.957839394957428"><ele>776.0</ele><time>2026-05-02T15:05:37.979Z</time></trkpt><trkpt lat="44.26291159754589" lon="10.957996834502444"><ele>776.0</ele><time>2026-05-02T15:05:38.979Z</time></trkpt><trkpt lat="44.26295037625101" lon="10.958141139124177"><ele>776.0</ele><time>2026-05-02T15:05:39.979Z</time></trkpt><trkpt lat="44.26296560004586" lon="10.958271123265508"><ele>776.0</ele><time>2026-05-02T15:05:40.979Z</time></trkpt><trkpt lat="44.262987823359886" lon="10.95837445769874"><ele>776.0</ele><time>2026-05-02T15:05:41.979Z</time></trkpt><trkpt lat="44.26296461198891" lon="10.958487862727955"><ele>776.0</ele><time>2026-05-02T15:05:42.979Z</time></trkpt><trkpt lat="44.26291955366172" lon="10.958585623704359"><ele>774.3333333333334</ele><time>2026-05-02T15:05:43.979Z</time></trkpt><trkpt lat="44.26284883281995" lon="10.958647783963736"><ele>772.6666666666667</ele><time>2026-05-02T15:05:44.979Z</time></trkpt><trkpt lat="44.262781456746126" lon="10.958697602590671"><ele>771.0</ele><time>2026-05-02T15:05:45.979Z</time></trkpt><trkpt lat="44.26270932147545" lon="10.95875455974371"><ele>769.3333333333334</ele><time>2026-05-02T15:05:46.979Z</time></trkpt><trkpt lat="44.26264166754876" lon="10.958805317804472"><ele>767.6666666666667</ele><time>2026-05-02T15:05:47.979Z</time></trkpt><trkpt lat="44.26257369520998" lon="10.958875166318434"><ele>766.0</ele><time>2026-05-02T15:05:48.979Z</time></trkpt><trkpt lat="44.26250899535523" lon="10.958954943010298"><ele>766.0</ele><time>2026-05-02T15:05:49.979Z</time></trkpt><trkpt lat="44.262450598416606" lon="10.95904199678437"><ele>766.0</ele><time>2026-05-02T15:05:50.979Z</time></trkpt><trkpt lat="44.2623988891991" lon="10.959131690971443"><ele>766.0</ele><time>2026-05-02T15:05:51.979Z</time></trkpt><trkpt lat="44.26235969453677" lon="10.95922011132956"><ele>766.0</ele><time>2026-05-02T15:05:52.979Z</time></trkpt><trkpt lat="44.26233283412705" lon="10.959317924943342"><ele>766.0</ele><time>2026-05-02T15:05:53.979Z</time></trkpt><trkpt lat="44.26233243786962" lon="10.959417454544903"><ele>766.0</ele><time>2026-05-02T15:05:54.979Z</time></trkpt><trkpt lat="44.2623497125651" lon="10.959527763594398"><ele>766.6666666666667</ele><time>2026-05-02T15:05:55.979Z</time></trkpt><trkpt lat="44.262381261979485" lon="10.959637701432417"><ele>767.3333333333334</ele><time>2026-05-02T15:05:56.979Z</time></trkpt><trkpt lat="44.26243748892844" lon="10.95973610920153"><ele>768.0</ele><time>2026-05-02T15:05:57.979Z</time></trkpt><trkpt lat="44.262514490140305" lon="10.959790128583093"><ele>768.6666666666667</ele><time>2026-05-02T15:05:58.979Z</time></trkpt><trkpt lat="44.26259026708573" lon="10.959845763380876"><ele>769.3333333333334</ele><time>2026-05-02T15:05:59.979Z</time></trkpt><trkpt lat="44.26267875087237" lon="10.959879105094917"><ele>770.0</ele><time>2026-05-02T15:06:00.979Z</time></trkpt><trkpt lat="44.26277316621465" lon="10.959914681896048"><ele>770.0</ele><time>2026-05-02T15:06:01.979Z</time></trkpt><trkpt lat="44.26287891785524" lon="10.95994297004823"><ele>770.0</ele><time>2026-05-02T15:06:02.979Z</time></trkpt><trkpt lat="44.26296530941526" lon="10.960024816868287"><ele>770.0</ele><time>2026-05-02T15:06:03.979Z</time></trkpt><trkpt lat="44.263034873660544" lon="10.960131907098226"><ele>770.0</ele><time>2026-05-02T15:06:04.979Z</time></trkpt><trkpt lat="44.263080880830195" lon="10.960266057537604"><ele>770.0</ele><time>2026-05-02T15:06:05.979Z</time></trkpt><trkpt lat="44.26309408001754" lon="10.9603996066718"><ele>771.2</ele><time>2026-05-02T15:06:06.98Z</time></trkpt><trkpt lat="44.26306937123582" lon="10.960526150837397"><ele>772.4</ele><time>2026-05-02T15:06:07.98Z</time></trkpt><trkpt lat="44.26302104638451" lon="10.960654273434116"><ele>773.5999999999999</ele><time>2026-05-02T15:06:08.98Z</time></trkpt><trkpt lat="44.26296240793524" lon="10.960779603691737"><ele>774.8</ele><time>2026-05-02T15:06:09.98Z</time></trkpt><trkpt lat="44.262913316071916" lon="10.960911208372456"><ele>776.0</ele><time>2026-05-02T15:06:10.98Z</time></trkpt><trkpt lat="44.26287209081259" lon="10.96104917685758"><ele>776.0</ele><time>2026-05-02T15:06:11.98Z</time></trkpt><trkpt lat="44.26286135483426" lon="10.961203099150069"><ele>776.0</ele><time>2026-05-02T15:06:12.98Z</time></trkpt><trkpt lat="44.26287718826678" lon="10.961355209307841"><ele>776.0</ele><time>2026-05-02T15:06:13.98Z</time></trkpt><trkpt lat="44.2629119716798" lon="10.961501993651881"><ele>776.0</ele><time>2026-05-02T15:06:14.98Z</time></trkpt><trkpt lat="44.26294764684112" lon="10.961636581704024"><ele>776.0</ele><time>2026-05-02T15:06:15.98Z</time></trkpt><trkpt lat="44.26295889347892" lon="10.96177804449649"><ele>773.1999999999999</ele><time>2026-05-02T15:06:16.98Z</time></trkpt><trkpt lat="44.26294722061946" lon="10.961923766586741"><ele>770.4</ele><time>2026-05-02T15:06:17.98Z</time></trkpt><trkpt lat="44.262913065995434" lon="10.962052318525688"><ele>767.6</ele><time>2026-05-02T15:06:18.98Z</time></trkpt><trkpt lat="44.26286398797143" lon="10.962168056445275"><ele>764.8</ele><time>2026-05-02T15:06:19.98Z</time></trkpt><trkpt lat="44.2627929130962" lon="10.962262454569096"><ele>762.0</ele><time>2026-05-02T15:06:20.98Z</time></trkpt><trkpt lat="44.262714273565216" lon="10.962336406696153"><ele>762.0</ele><time>2026-05-02T15:06:21.98Z</time></trkpt><trkpt lat="44.262620411221" lon="10.962395112247771"><ele>762.0</ele><time>2026-05-02T15:06:22.98Z</time></trkpt><trkpt lat="44.26252679732059" lon="10.962451661328691"><ele>762.0</ele><time>2026-05-02T15:06:23.98Z</time></trkpt><trkpt lat="44.26244015816294" lon="10.96254524338363"><ele>762.0</ele><time>2026-05-02T15:06:24.98Z</time></trkpt><trkpt lat="44.26235789644158" lon="10.962647285635644"><ele>762.0</ele><time>2026-05-02T15:06:25.98Z</time></trkpt><trkpt lat="44.262289117949045" lon="10.962770589398861"><ele>762.6</ele><time>2026-05-02T15:06:26.98Z</time></trkpt><trkpt lat="44.26223746769216" lon="10.962910193823568"><ele>763.2</ele><time>2026-05-02T15:06:27.98Z</time></trkpt><trkpt lat="44.26218959955469" lon="10.963038225306466"><ele>763.8</ele><time>2026-05-02T15:06:28.98Z</time></trkpt><trkpt lat="44.26213746674766" lon="10.963175815805638"><ele>764.4</ele><time>2026-05-02T15:06:29.98Z</time></trkpt><trkpt lat="44.26206545352532" lon="10.963285327860637"><ele>765.0</ele><time>2026-05-02T15:06:30.98Z</time></trkpt><trkpt lat="44.261974270278905" lon="10.963375125585927"><ele>761.8</ele><time>2026-05-02T15:06:31.98Z</time></trkpt><trkpt lat="44.26187702555608" lon="10.963435090442452"><ele>758.6</ele><time>2026-05-02T15:06:32.98Z</time></trkpt><trkpt lat="44.26177700810842" lon="10.96347215625227"><ele>755.4000000000001</ele><time>2026-05-02T15:06:33.98Z</time></trkpt><trkpt lat="44.2616793965516" lon="10.963525352442035"><ele>752.2</ele><time>2026-05-02T15:06:34.98Z</time></trkpt><trkpt lat="44.26158411441976" lon="10.9636011411011"><ele>749.0</ele><time>2026-05-02T15:06:35.98Z</time></trkpt><trkpt lat="44.26149654198846" lon="10.963702153667533"><ele>750.8000000000001</ele><time>2026-05-02T15:06:36.98Z</time></trkpt><trkpt lat="44.26141898740246" lon="10.963814037497144"><ele>752.6</ele><time>2026-05-02T15:06:37.98Z</time></trkpt><trkpt lat="44.26134237161802" lon="10.963928142574902"><ele>754.4</ele><time>2026-05-02T15:06:38.98Z</time></trkpt><trkpt lat="44.26127278753142" lon="10.964034290653354"><ele>756.2</ele><time>2026-05-02T15:06:39.98Z</time></trkpt><trkpt lat="44.26119965047908" lon="10.96414246307493"><ele>758.0</ele><time>2026-05-02T15:06:40.98Z</time></trkpt><trkpt lat="44.26112534977219" lon="10.964254299440192"><ele>758.0</ele><time>2026-05-02T15:06:41.98Z</time></trkpt><trkpt lat="44.26104966870539" lon="10.964367750276796"><ele>758.0</ele><time>2026-05-02T15:06:42.98Z</time></trkpt><trkpt lat="44.26097372482518" lon="10.964480434811378"><ele>758.0</ele><time>2026-05-02T15:06:43.98Z</time></trkpt><trkpt lat="44.260897394425385" lon="10.964586416737019"><ele>758.0</ele><time>2026-05-02T15:06:44.981Z</time></trkpt><trkpt lat="44.26081081542807" lon="10.964659523342874"><ele>758.0</ele><time>2026-05-02T15:06:45.977Z</time></trkpt><trkpt lat="44.260716859623194" lon="10.964690985534709"><ele>758.0</ele><time>2026-05-02T15:06:46.977Z</time></trkpt><trkpt lat="44.26062983336891" lon="10.96469039313585"><ele>758.0</ele><time>2026-05-02T15:06:47.977Z</time></trkpt><trkpt lat="44.260543826518045" lon="10.964679541139555"><ele>758.0</ele><time>2026-05-02T15:06:48.977Z</time></trkpt><trkpt lat="44.26045965542012" lon="10.964672608372519"><ele>758.0</ele><time>2026-05-02T15:06:49.977Z</time></trkpt><trkpt lat="44.26037812373658" lon="10.964702524412147"><ele>758.0</ele><time>2026-05-02T15:06:50.977Z</time></trkpt><trkpt lat="44.26030521039609" lon="10.964764505254523"><ele>758.0</ele><time>2026-05-02T15:06:51.977Z</time></trkpt><trkpt lat="44.26024932719829" lon="10.964848641971088"><ele>764.2</ele><time>2026-05-02T15:06:52.977Z</time></trkpt><trkpt lat="44.26021960113997" lon="10.964964555199048"><ele>770.4</ele><time>2026-05-02T15:06:53.977Z</time></trkpt><trkpt lat="44.26020757969345" lon="10.965089195128419"><ele>776.6</ele><time>2026-05-02T15:06:54.977Z</time></trkpt><trkpt lat="44.26019675259117" lon="10.965210195638644"><ele>782.8000000000001</ele><time>2026-05-02T15:06:55.977Z</time></trkpt><trkpt lat="44.260200685229464" lon="10.96533772851553"><ele>789.0</ele><time>2026-05-02T15:06:56.977Z</time></trkpt><trkpt lat="44.26022878232245" lon="10.965464614986162"><ele>790.2</ele><time>2026-05-02T15:06:57.977Z</time></trkpt><trkpt lat="44.26026421541868" lon="10.965597319519533"><ele>791.4000000000001</ele><time>2026-05-02T15:06:58.977Z</time></trkpt><trkpt lat="44.260349308841974" lon="10.965687181257604"><ele>792.6</ele><time>2026-05-02T15:06:59.977Z</time></trkpt><trkpt lat="44.260434745615974" lon="10.96578162473268"><ele>793.8</ele><time>2026-05-02T15:07:00.977Z</time></trkpt><trkpt lat="44.260523201635266" lon="10.965879673959783"><ele>795.0</ele><time>2026-05-02T15:07:01.977Z</time></trkpt><trkpt lat="44.26061216581859" lon="10.965958599164615"><ele>791.25</ele><time>2026-05-02T15:07:02.977Z</time></trkpt><trkpt lat="44.26070772938549" lon="10.966041293471353"><ele>787.5</ele><time>2026-05-02T15:07:03.977Z</time></trkpt><trkpt lat="44.260806439063295" lon="10.96611071024023"><ele>783.75</ele><time>2026-05-02T15:07:04.977Z</time></trkpt><trkpt lat="44.26090845746045" lon="10.966167625699748"><ele>780.0</ele><time>2026-05-02T15:07:05.977Z</time></trkpt><trkpt lat="44.26102081184074" lon="10.966218205936324"><ele>780.0</ele><time>2026-05-02T15:07:06.977Z</time></trkpt><trkpt lat="44.26113367803539" lon="10.966266289522348"><ele>780.0</ele><time>2026-05-02T15:07:07.977Z</time></trkpt><trkpt lat="44.26123831633901" lon="10.966317305626644"><ele>780.0</ele><time>2026-05-02T15:07:08.977Z</time></trkpt><trkpt lat="44.26133949127883" lon="10.966384701329495"><ele>780.0</ele><time>2026-05-02T15:07:09.977Z</time></trkpt><trkpt lat="44.26143460023937" lon="10.966454819482248"><ele>780.0</ele><time>2026-05-02T15:07:10.977Z</time></trkpt><trkpt lat="44.261525706013295" lon="10.96652903853161"><ele>779.2</ele><time>2026-05-02T15:07:11.977Z</time></trkpt><trkpt lat="44.26161579019151" lon="10.966608411053365"><ele>778.4</ele><time>2026-05-02T15:07:12.977Z</time></trkpt><trkpt lat="44.26171488857927" lon="10.966669574663321"><ele>777.5999999999999</ele><time>2026-05-02T15:07:13.977Z</time></trkpt><trkpt lat="44.26182074830619" lon="10.966701677195742"><ele>776.8</ele><time>2026-05-02T15:07:14.977Z</time></trkpt><trkpt lat="44.26192923295254" lon="10.96671366155963"><ele>776.0</ele><time>2026-05-02T15:07:15.977Z</time></trkpt><trkpt lat="44.26203713089548" lon="10.966734068062253"><ele>779.1999999999999</ele><time>2026-05-02T15:07:16.977Z</time></trkpt><trkpt lat="44.262148651868564" lon="10.966754451055358"><ele>782.4</ele><time>2026-05-02T15:07:17.977Z</time></trkpt><trkpt lat="44.26225889362673" lon="10.96677403574722"><ele>785.6</ele><time>2026-05-02T15:07:18.977Z</time></trkpt><trkpt lat="44.26235893206822" lon="10.966822005583776"><ele>788.8</ele><time>2026-05-02T15:07:19.977Z</time></trkpt><trkpt lat="44.26246396683904" lon="10.966782818879203"><ele>792.0</ele><time>2026-05-02T15:07:20.977Z</time></trkpt><trkpt lat="44.26255936585692" lon="10.966718050415047"><ele>789.0</ele><time>2026-05-02T15:07:21.977Z</time></trkpt><trkpt lat="44.262632696923845" lon="10.966602099026431"><ele>786.0</ele><time>2026-05-02T15:07:22.977Z</time></trkpt><trkpt lat="44.26269761368957" lon="10.966487363722898"><ele>783.0</ele><time>2026-05-02T15:07:23.977Z</time></trkpt><trkpt lat="44.26275480629969" lon="10.966381395676828"><ele>780.0</ele><time>2026-05-02T15:07:24.977Z</time></trkpt><trkpt lat="44.262816634749484" lon="10.966288346205504"><ele>777.0</ele><time>2026-05-02T15:07:25.977Z</time></trkpt><trkpt lat="44.26288996927838" lon="10.966229614564078"><ele>777.0</ele><time>2026-05-02T15:07:26.977Z</time></trkpt><trkpt lat="44.26298065229814" lon="10.966205185890225"><ele>777.0</ele><time>2026-05-02T15:07:27.977Z</time></trkpt><trkpt lat="44.26306899256863" lon="10.966238033857682"><ele>777.0</ele><time>2026-05-02T15:07:28.977Z</time></trkpt><trkpt lat="44.2631373599386" lon="10.96631273936678"><ele>777.0</ele><time>2026-05-02T15:07:29.977Z</time></trkpt><trkpt lat="44.26319198557152" lon="10.966415889423105"><ele>777.0</ele><time>2026-05-02T15:07:30.977Z</time></trkpt><trkpt lat="44.26321760543703" lon="10.966543953111437"><ele>776.3333333333334</ele><time>2026-05-02T15:07:31.977Z</time></trkpt><trkpt lat="44.263223125158845" lon="10.966683531633374"><ele>775.6666666666667</ele><time>2026-05-02T15:07:32.978Z</time></trkpt><trkpt lat="44.26322688677131" lon="10.966807631513248"><ele>775.0</ele><time>2026-05-02T15:07:33.978Z</time></trkpt><trkpt lat="44.263233071398716" lon="10.966929643481311"><ele>774.3333333333334</ele><time>2026-05-02T15:07:34.978Z</time></trkpt><trkpt lat="44.263236045593786" lon="10.967043551527022"><ele>773.6666666666667</ele><time>2026-05-02T15:07:35.978Z</time></trkpt><trkpt lat="44.26323748326967" lon="10.967140954241502"><ele>773.0</ele><time>2026-05-02T15:07:36.978Z</time></trkpt><trkpt lat="44.263231940886776" lon="10.967264973873885"><ele>782.0</ele><time>2026-05-02T15:07:38.978Z</time></trkpt><trkpt lat="44.263219920316374" lon="10.967368349233714"><ele>782.0</ele><time>2026-05-02T15:07:41.978Z</time></trkpt><trkpt lat="44.263213798047765" lon="10.967473105519597"><ele>782.0</ele><time>2026-05-02T15:07:46.978Z</time></trkpt></trkseg><trkseg><trkpt lat="44.26326878540836" lon="10.967733042626445"><ele>783.9999999999999</ele><time>2026-05-02T15:21:01.986Z</time></trkpt><trkpt lat="44.263327284598375" lon="10.96779266561652"><ele>784.0</ele><time>2026-05-02T15:23:49.985Z</time></trkpt><trkpt lat="44.26333622879241" lon="10.96788982811836"><ele>784.0</ele><time>2026-05-02T15:23:52.985Z</time></trkpt><trkpt lat="44.26333247662832" lon="10.96799163088331"><ele>784.0</ele><time>2026-05-02T15:23:56.985Z</time></trkpt><trkpt lat="44.263328494555196" lon="10.968116712401105"><ele>783.9999999999999</ele><time>2026-05-02T15:24:20.986Z</time></trkpt><trkpt lat="44.26332871976734" lon="10.968242801513199"><ele>784.0</ele><time>2026-05-02T15:24:23.986Z</time></trkpt><trkpt lat="44.263307588066255" lon="10.968328310026733"><ele>782.4999999999999</ele><time>2026-05-02T15:24:25.986Z</time></trkpt><trkpt lat="44.2633087098264" lon="10.968418475081998"><ele>781.0</ele><time>2026-05-02T15:24:30.986Z</time></trkpt><trkpt lat="44.26328897005407" lon="10.968512974831407"><ele>779.5</ele><time>2026-05-02T15:24:43.987Z</time></trkpt><trkpt lat="44.26326776416141" lon="10.968604687450368"><ele>778.0</ele><time>2026-05-02T15:24:45.987Z</time></trkpt><trkpt lat="44.26323305430313" lon="10.968707572825648"><ele>776.4999999999999</ele><time>2026-05-02T15:24:47.987Z</time></trkpt><trkpt lat="44.263202253486305" lon="10.968795086180023"><ele>775.0</ele><time>2026-05-02T15:24:49.987Z</time></trkpt><trkpt lat="44.26315140560004" lon="10.968923191536305"><ele>774.8</ele><time>2026-05-02T15:24:51.987Z</time></trkpt><trkpt lat="44.26308672799223" lon="10.969064277364243"><ele>774.6</ele><time>2026-05-02T15:24:53.987Z</time></trkpt><trkpt lat="44.26299459119617" lon="10.96923809189827"><ele>774.4000000000001</ele><time>2026-05-02T15:24:55.987Z</time></trkpt><trkpt lat="44.262940229609654" lon="10.969322844238661"><ele>774.2</ele><time>2026-05-02T15:24:56.987Z</time></trkpt><trkpt lat="44.26288637789226" lon="10.969401878987854"><ele>774.0</ele><time>2026-05-02T15:24:57.987Z</time></trkpt><trkpt lat="44.262840162772775" lon="10.969485201883943"><ele>774.0</ele><time>2026-05-02T15:24:58.987Z</time></trkpt><trkpt lat="44.26276840452932" lon="10.969552430639641"><ele>774.0</ele><time>2026-05-02T15:24:59.987Z</time></trkpt><trkpt lat="44.262698415187245" lon="10.969645709051026"><ele>774.0</ele><time>2026-05-02T15:25:00.987Z</time></trkpt><trkpt lat="44.26262522870563" lon="10.96971597260268"><ele>774.0</ele><time>2026-05-02T15:25:01.987Z</time></trkpt><trkpt lat="44.26255831166814" lon="10.969781050758911"><ele>774.0</ele><time>2026-05-02T15:25:02.987Z</time></trkpt><trkpt lat="44.26248415639603" lon="10.969855950888839"><ele>774.0</ele><time>2026-05-02T15:25:03.987Z</time></trkpt><trkpt lat="44.26242260534933" lon="10.969915232547852"><ele>774.0</ele><time>2026-05-02T15:25:04.987Z</time></trkpt><trkpt lat="44.26234210310572" lon="10.969982012910483"><ele>774.0</ele><time>2026-05-02T15:25:05.987Z</time></trkpt><trkpt lat="44.262276611158114" lon="10.970063193071237"><ele>774.0</ele><time>2026-05-02T15:25:06.987Z</time></trkpt><trkpt lat="44.26222054590838" lon="10.970150413014128"><ele>774.0</ele><time>2026-05-02T15:25:07.987Z</time></trkpt><trkpt lat="44.26217908953328" lon="10.970250265722614"><ele>774.0</ele><time>2026-05-02T15:25:08.987Z</time></trkpt><trkpt lat="44.2621732873541" lon="10.970355998125738"><ele>774.0</ele><time>2026-05-02T15:25:09.987Z</time></trkpt><trkpt lat="44.26220052825673" lon="10.970472213546666"><ele>777.0</ele><time>2026-05-02T15:25:10.987Z</time></trkpt><trkpt lat="44.262217898722724" lon="10.970590296426765"><ele>780.0</ele><time>2026-05-02T15:25:11.987Z</time></trkpt><trkpt lat="44.2622285811794" lon="10.970706351178283"><ele>783.0</ele><time>2026-05-02T15:25:12.987Z</time></trkpt><trkpt lat="44.26223409423179" lon="10.970823875151796"><ele>786.0</ele><time>2026-05-02T15:25:13.987Z</time></trkpt><trkpt lat="44.262226483562685" lon="10.970946141958077"><ele>789.0</ele><time>2026-05-02T15:25:14.988Z</time></trkpt><trkpt lat="44.2622081438615" lon="10.971060969103625"><ele>792.0</ele><time>2026-05-02T15:25:15.988Z</time></trkpt><trkpt lat="44.26218977102234" lon="10.971182741166654"><ele>792.6666666666666</ele><time>2026-05-02T15:25:16.988Z</time></trkpt><trkpt lat="44.26217206118545" lon="10.971304419889261"><ele>793.3333333333333</ele><time>2026-05-02T15:25:17.988Z</time></trkpt><trkpt lat="44.26214814072168" lon="10.971423152293925"><ele>794.0</ele><time>2026-05-02T15:25:18.988Z</time></trkpt><trkpt lat="44.26211016797152" lon="10.971533171525092"><ele>794.6666666666666</ele><time>2026-05-02T15:25:19.988Z</time></trkpt><trkpt lat="44.262067372809774" lon="10.971627847114293"><ele>795.3333333333333</ele><time>2026-05-02T15:25:20.988Z</time></trkpt><trkpt lat="44.26202282461332" lon="10.971733928179866"><ele>796.0</ele><time>2026-05-02T15:25:21.988Z</time></trkpt><trkpt lat="44.261987046581865" lon="10.971843316396434"><ele>796.6666666666666</ele><time>2026-05-02T15:25:22.988Z</time></trkpt><trkpt lat="44.26194383945568" lon="10.971918194422752"><ele>797.3333333333333</ele><time>2026-05-02T15:25:23.988Z</time></trkpt><trkpt lat="44.26193765770795" lon="10.972034048815084"><ele>798.0</ele><time>2026-05-02T15:25:24.988Z</time></trkpt><trkpt lat="44.26193059678968" lon="10.972143009244807"><ele>798.6666666666667</ele><time>2026-05-02T15:25:25.988Z</time></trkpt><trkpt lat="44.261930016184984" lon="10.97226608877081"><ele>799.3333333333334</ele><time>2026-05-02T15:25:26.988Z</time></trkpt><trkpt lat="44.26194836887883" lon="10.972395114972912"><ele>800.0</ele><time>2026-05-02T15:25:27.988Z</time></trkpt><trkpt lat="44.26193492512116" lon="10.972515488209897"><ele>800.8333333333334</ele><time>2026-05-02T15:25:28.988Z</time></trkpt><trkpt lat="44.26193596683235" lon="10.972631483869488"><ele>801.6666666666667</ele><time>2026-05-02T15:25:29.988Z</time></trkpt><trkpt lat="44.26193080483228" lon="10.972741796224119"><ele>802.5</ele><time>2026-05-02T15:25:30.988Z</time></trkpt><trkpt lat="44.26193315554246" lon="10.972865403581725"><ele>803.3333333333333</ele><time>2026-05-02T15:25:31.988Z</time></trkpt><trkpt lat="44.261932633163156" lon="10.972986882554867"><ele>804.1666666666666</ele><time>2026-05-02T15:25:32.988Z</time></trkpt><trkpt lat="44.26193701260823" lon="10.973121090146538"><ele>805.0</ele><time>2026-05-02T15:25:33.988Z</time></trkpt><trkpt lat="44.261937132097174" lon="10.973255700484623"><ele>804.0</ele><time>2026-05-02T15:25:34.988Z</time></trkpt><trkpt lat="44.261934139579395" lon="10.973394634107006"><ele>803.0</ele><time>2026-05-02T15:25:35.988Z</time></trkpt><trkpt lat="44.26193587498021" lon="10.973530675955233"><ele>802.0</ele><time>2026-05-02T15:25:36.988Z</time></trkpt><trkpt lat="44.26193353686474" lon="10.97365632218249"><ele>801.0</ele><time>2026-05-02T15:25:37.988Z</time></trkpt><trkpt lat="44.26192847759756" lon="10.97378620146442"><ele>800.0</ele><time>2026-05-02T15:25:38.988Z</time></trkpt><trkpt lat="44.261905532509765" lon="10.973913423888295"><ele>800.0000000000001</ele><time>2026-05-02T15:25:39.986Z</time></trkpt><trkpt lat="44.261883378517275" lon="10.97403538885816"><ele>800.0</ele><time>2026-05-02T15:25:40.985Z</time></trkpt><trkpt lat="44.26184276134033" lon="10.974153757746981"><ele>800.0</ele><time>2026-05-02T15:25:41.985Z</time></trkpt><trkpt lat="44.261804687122115" lon="10.974259427788361"><ele>800.0</ele><time>2026-05-02T15:25:42.986Z</time></trkpt><trkpt lat="44.261766779452024" lon="10.974358916499602"><ele>800.0000000000001</ele><time>2026-05-02T15:25:43.986Z</time></trkpt><trkpt lat="44.26172553346508" lon="10.974449706396127"><ele>800.0</ele><time>2026-05-02T15:25:44.986Z</time></trkpt><trkpt lat="44.26166726042674" lon="10.974531189178606"><ele>799.5000000000001</ele><time>2026-05-02T15:25:45.986Z</time></trkpt><trkpt lat="44.261605767626534" lon="10.97459607651806"><ele>799.0</ele><time>2026-05-02T15:25:46.985Z</time></trkpt><trkpt lat="44.26154410712657" lon="10.974673763515824"><ele>798.5</ele><time>2026-05-02T15:25:47.985Z</time></trkpt><trkpt lat="44.26146590770901" lon="10.974730802920782"><ele>798.0</ele><time>2026-05-02T15:25:48.986Z</time></trkpt><trkpt lat="44.26138239913391" lon="10.974782134541254"><ele>797.5000000000001</ele><time>2026-05-02T15:25:49.985Z</time></trkpt><trkpt lat="44.26132691717097" lon="10.974865364495479"><ele>797.0</ele><time>2026-05-02T15:25:50.985Z</time></trkpt><trkpt lat="44.261277265077915" lon="10.974945570921617"><ele>797.0000000000001</ele><time>2026-05-02T15:25:51.986Z</time></trkpt><trkpt lat="44.26122036982438" lon="10.975013435051023"><ele>797.0</ele><time>2026-05-02T15:25:52.985Z</time></trkpt><trkpt lat="44.26118738751543" lon="10.9751092247557"><ele>797.0</ele><time>2026-05-02T15:25:53.985Z</time></trkpt><trkpt lat="44.26118170029952" lon="10.975225332603719"><ele>797.0</ele><time>2026-05-02T15:25:54.986Z</time></trkpt><trkpt lat="44.26117217416596" lon="10.975336410882122"><ele>797.0000000000001</ele><time>2026-05-02T15:25:55.986Z</time></trkpt><trkpt lat="44.26115428476775" lon="10.975426724646384"><ele>797.0</ele><time>2026-05-02T15:25:56.986Z</time></trkpt><trkpt lat="44.261125125972896" lon="10.975556004934003"><ele>795.6</ele><time>2026-05-02T15:25:58.986Z</time></trkpt><trkpt lat="44.26112006967422" lon="10.975720076900668"><ele>794.2</ele><time>2026-05-02T15:26:00.986Z</time></trkpt><trkpt lat="44.261085761172666" lon="10.97580643545669"><ele>792.8</ele><time>2026-05-02T15:26:02.986Z</time></trkpt><trkpt lat="44.26103573231706" lon="10.975860386744863"><ele>791.4</ele><time>2026-05-02T15:26:05.986Z</time></trkpt><trkpt lat="44.260949075144296" lon="10.975893515638298"><ele>790.0</ele><time>2026-05-02T15:26:07.986Z</time></trkpt><trkpt lat="44.26085973986105" lon="10.975777763692074"><ele>789.9999999999999</ele><time>2026-05-02T15:26:09.986Z</time></trkpt><trkpt lat="44.26080825988144" lon="10.975707919531054"><ele>790.0</ele><time>2026-05-02T15:26:10.986Z</time></trkpt><trkpt lat="44.26074927905991" lon="10.975632000981593"><ele>790.0</ele><time>2026-05-02T15:26:11.986Z</time></trkpt><trkpt lat="44.260692356414346" lon="10.975539173292074"><ele>790.0</ele><time>2026-05-02T15:26:12.986Z</time></trkpt><trkpt lat="44.26064581513225" lon="10.97542650690664"><ele>789.9999999999999</ele><time>2026-05-02T15:26:13.986Z</time></trkpt><trkpt lat="44.26058380118055" lon="10.975336357427691"><ele>790.0</ele><time>2026-05-02T15:26:14.986Z</time></trkpt><trkpt lat="44.2605257595969" lon="10.975257446166593"><ele>788.4</ele><time>2026-05-02T15:26:15.986Z</time></trkpt><trkpt lat="44.260456175021524" lon="10.975177765535749"><ele>786.8</ele><time>2026-05-02T15:26:16.986Z</time></trkpt><trkpt lat="44.26037943364456" lon="10.975110762216898"><ele>785.2</ele><time>2026-05-02T15:26:17.986Z</time></trkpt><trkpt lat="44.260284910400756" lon="10.975078700412881"><ele>783.6</ele><time>2026-05-02T15:26:18.986Z</time></trkpt><trkpt lat="44.26019881008377" lon="10.975035314805762"><ele>782.0</ele><time>2026-05-02T15:26:19.986Z</time></trkpt><trkpt lat="44.260101527980645" lon="10.97501283702234"><ele>782.0000000000001</ele><time>2026-05-02T15:26:20.986Z</time></trkpt><trkpt lat="44.260008426787515" lon="10.97498383862567"><ele>782.0</ele><time>2026-05-02T15:26:21.986Z</time></trkpt><trkpt lat="44.25991867428889" lon="10.974957088983597"><ele>782.0</ele><time>2026-05-02T15:26:22.986Z</time></trkpt><trkpt lat="44.259825131080454" lon="10.974916053600337"><ele>782.0</ele><time>2026-05-02T15:26:23.986Z</time></trkpt><trkpt lat="44.259741561870705" lon="10.974890587830142"><ele>782.0000000000001</ele><time>2026-05-02T15:26:24.986Z</time></trkpt><trkpt lat="44.25967608164994" lon="10.974871824878319"><ele>782.0</ele><time>2026-05-02T15:26:25.986Z</time></trkpt><trkpt lat="44.25956235913633" lon="10.974886131135072"><ele>781.2857142857142</ele><time>2026-05-02T15:26:27.986Z</time></trkpt><trkpt lat="44.25950679979907" lon="10.974941479387793"><ele>780.5714285714286</ele><time>2026-05-02T15:26:28.986Z</time></trkpt><trkpt lat="44.25946711963365" lon="10.975019081160806"><ele>779.8571428571429</ele><time>2026-05-02T15:26:29.986Z</time></trkpt><trkpt lat="44.25945173805828" lon="10.975117615029287"><ele>779.1428571428571</ele><time>2026-05-02T15:26:30.986Z</time></trkpt><trkpt lat="44.25946793745017" lon="10.975227881993467"><ele>778.4285714285714</ele><time>2026-05-02T15:26:31.986Z</time></trkpt><trkpt lat="44.25950587640046" lon="10.975320617353738"><ele>777.7142857142857</ele><time>2026-05-02T15:26:32.987Z</time></trkpt><trkpt lat="44.25956696421154" lon="10.975396476088903"><ele>777.0</ele><time>2026-05-02T15:26:33.987Z</time></trkpt><trkpt lat="44.25963526859593" lon="10.975463722198718"><ele>776.8</ele><time>2026-05-02T15:26:34.987Z</time></trkpt><trkpt lat="44.25970055342393" lon="10.975549630337117"><ele>776.6</ele><time>2026-05-02T15:26:35.987Z</time></trkpt><trkpt lat="44.25975575121914" lon="10.975653248983122"><ele>776.4</ele><time>2026-05-02T15:26:36.987Z</time></trkpt><trkpt lat="44.259795592014605" lon="10.975769159729182"><ele>776.1999999999999</ele><time>2026-05-02T15:26:37.987Z</time></trkpt><trkpt lat="44.2598226494213" lon="10.97589363627648"><ele>776.0</ele><time>2026-05-02T15:26:38.987Z</time></trkpt><trkpt lat="44.25984427720781" lon="10.97602324509447"><ele>775.8</ele><time>2026-05-02T15:26:39.987Z</time></trkpt><trkpt lat="44.259860864706845" lon="10.976165072637233"><ele>775.5999999999999</ele><time>2026-05-02T15:26:40.987Z</time></trkpt><trkpt lat="44.25988438383066" lon="10.976317373897443"><ele>775.4</ele><time>2026-05-02T15:26:41.987Z</time></trkpt><trkpt lat="44.259931114883216" lon="10.97644072450657"><ele>775.2</ele><time>2026-05-02T15:26:42.987Z</time></trkpt><trkpt lat="44.25999350228296" lon="10.976564209950778"><ele>775.0</ele><time>2026-05-02T15:26:43.987Z</time></trkpt><trkpt lat="44.26005715512571" lon="10.976694857607276"><ele>774.5</ele><time>2026-05-02T15:26:44.987Z</time></trkpt><trkpt lat="44.260172887308855" lon="10.976955129899748"><ele>774.0</ele><time>2026-05-02T15:26:46.987Z</time></trkpt><trkpt lat="44.260205447590145" lon="10.977094924643719"><ele>773.5</ele><time>2026-05-02T15:26:47.987Z</time></trkpt><trkpt lat="44.26022127170927" lon="10.977237182418193"><ele>773.0</ele><time>2026-05-02T15:26:48.987Z</time></trkpt><trkpt lat="44.260213186680915" lon="10.977390284610363"><ele>773.0</ele><time>2026-05-02T15:26:49.987Z</time></trkpt><trkpt lat="44.26020935806845" lon="10.977551022869687"><ele>773.0</ele><time>2026-05-02T15:26:50.987Z</time></trkpt><trkpt lat="44.260190092857265" lon="10.977711846727624"><ele>773.0</ele><time>2026-05-02T15:26:51.987Z</time></trkpt><trkpt lat="44.26017284018221" lon="10.97787780047954"><ele>773.0</ele><time>2026-05-02T15:26:52.987Z</time></trkpt><trkpt lat="44.260158095201966" lon="10.97804105847569"><ele>773.0</ele><time>2026-05-02T15:26:53.987Z</time></trkpt><trkpt lat="44.26014511086813" lon="10.978208772419215"><ele>773.0</ele><time>2026-05-02T15:26:54.987Z</time></trkpt><trkpt lat="44.260127159669835" lon="10.9783656667996"><ele>773.0</ele><time>2026-05-02T15:26:55.987Z</time></trkpt><trkpt lat="44.26011178901153" lon="10.978520011631073"><ele>773.0</ele><time>2026-05-02T15:26:56.987Z</time></trkpt><trkpt lat="44.260097149797886" lon="10.978672678657064"><ele>773.2</ele><time>2026-05-02T15:26:57.987Z</time></trkpt><trkpt lat="44.26008443169374" lon="10.978824521355968"><ele>773.4</ele><time>2026-05-02T15:26:58.987Z</time></trkpt><trkpt lat="44.26007619280339" lon="10.978974913716094"><ele>773.6</ele><time>2026-05-02T15:26:59.987Z</time></trkpt><trkpt lat="44.260069424766556" lon="10.979108761138948"><ele>773.8000000000001</ele><time>2026-05-02T15:27:00.987Z</time></trkpt><trkpt lat="44.26005233615384" lon="10.979205777960274"><ele>774.0</ele><time>2026-05-02T15:27:01.987Z</time></trkpt><trkpt lat="44.260028421290684" lon="10.979297312044583"><ele>773.6666666666666</ele><time>2026-05-02T15:27:02.987Z</time></trkpt><trkpt lat="44.26001169260427" lon="10.979390802490963"><ele>773.3333333333333</ele><time>2026-05-02T15:27:03.987Z</time></trkpt><trkpt lat="44.2600751782051" lon="10.9795171825158"><ele>773.0</ele><time>2026-05-02T15:27:04.987Z</time></trkpt><trkpt lat="44.26010055017733" lon="10.97963315100278"><ele>772.6666666666666</ele><time>2026-05-02T15:27:05.987Z</time></trkpt><trkpt lat="44.26012800292382" lon="10.979746746695637"><ele>772.3333333333333</ele><time>2026-05-02T15:27:06.987Z</time></trkpt><trkpt lat="44.26015529889364" lon="10.97986111891095"><ele>772.0</ele><time>2026-05-02T15:27:07.987Z</time></trkpt><trkpt lat="44.260181543514705" lon="10.979974928847996"><ele>771.6</ele><time>2026-05-02T15:27:08.987Z</time></trkpt><trkpt lat="44.26019962434885" lon="10.980092563018717"><ele>771.2</ele><time>2026-05-02T15:27:09.987Z</time></trkpt><trkpt lat="44.260238041731405" lon="10.980215187736691"><ele>770.8</ele><time>2026-05-02T15:27:10.988Z</time></trkpt><trkpt lat="44.26027005494405" lon="10.980353432830514"><ele>770.4</ele><time>2026-05-02T15:27:11.988Z</time></trkpt><trkpt lat="44.2602854871125" lon="10.980501649774663"><ele>770.0</ele><time>2026-05-02T15:27:12.988Z</time></trkpt><trkpt lat="44.26031650265814" lon="10.980649575861117"><ele>770.0</ele><time>2026-05-02T15:27:13.988Z</time></trkpt><trkpt lat="44.26035163412722" lon="10.980790130446424"><ele>770.0</ele><time>2026-05-02T15:27:14.988Z</time></trkpt><trkpt lat="44.26039614777115" lon="10.98093044029536"><ele>770.0</ele><time>2026-05-02T15:27:15.988Z</time></trkpt><trkpt lat="44.2604474716022" lon="10.981056652778724"><ele>770.0</ele><time>2026-05-02T15:27:16.988Z</time></trkpt><trkpt lat="44.26051098318363" lon="10.981173590497638"><ele>770.0</ele><time>2026-05-02T15:27:17.988Z</time></trkpt><trkpt lat="44.2605765003847" lon="10.981281116003672"><ele>770.4</ele><time>2026-05-02T15:27:18.988Z</time></trkpt><trkpt lat="44.260640175598944" lon="10.981391655317239"><ele>770.8</ele><time>2026-05-02T15:27:19.988Z</time></trkpt><trkpt lat="44.26069959261434" lon="10.981490696841815"><ele>771.2</ele><time>2026-05-02T15:27:20.988Z</time></trkpt><trkpt lat="44.26076242129016" lon="10.981596007819466"><ele>771.6</ele><time>2026-05-02T15:27:21.988Z</time></trkpt><trkpt lat="44.260839548882814" lon="10.981681329236194"><ele>772.0</ele><time>2026-05-02T15:27:22.988Z</time></trkpt><trkpt lat="44.26092451440489" lon="10.981757597703147"><ele>772.4000000000001</ele><time>2026-05-02T15:27:23.988Z</time></trkpt><trkpt lat="44.26101576325728" lon="10.981823700407402"><ele>772.8000000000001</ele><time>2026-05-02T15:27:24.988Z</time></trkpt><trkpt lat="44.261103132495144" lon="10.98188885867384"><ele>773.2</ele><time>2026-05-02T15:27:25.988Z</time></trkpt><trkpt lat="44.2611866535067" lon="10.981976369786327"><ele>773.6</ele><time>2026-05-02T15:27:26.988Z</time></trkpt><trkpt lat="44.26125852170057" lon="10.982068426621307"><ele>774.0</ele><time>2026-05-02T15:27:27.988Z</time></trkpt><trkpt lat="44.261327383530706" lon="10.982175495998508"><ele>774.0</ele><time>2026-05-02T15:27:28.988Z</time></trkpt><trkpt lat="44.26139949564336" lon="10.982287503523116"><ele>774.0</ele><time>2026-05-02T15:27:29.988Z</time></trkpt><trkpt lat="44.26146518633315" lon="10.982395788808798"><ele>774.0</ele><time>2026-05-02T15:27:30.988Z</time></trkpt><trkpt lat="44.261526846421155" lon="10.982504494132252"><ele>774.0</ele><time>2026-05-02T15:27:31.988Z</time></trkpt><trkpt lat="44.26157263488657" lon="10.98261613406057"><ele>774.0</ele><time>2026-05-02T15:27:32.988Z</time></trkpt><trkpt lat="44.261609025416654" lon="10.982736744212925"><ele>772.0</ele><time>2026-05-02T15:27:33.988Z</time></trkpt><trkpt lat="44.26164839989517" lon="10.982856286599745"><ele>770.0</ele><time>2026-05-02T15:27:34.988Z</time></trkpt><trkpt lat="44.261694719911596" lon="10.982969850561108"><ele>768.0</ele><time>2026-05-02T15:27:35.988Z</time></trkpt><trkpt lat="44.26174448100741" lon="10.983082589135252"><ele>766.0</ele><time>2026-05-02T15:27:36.988Z</time></trkpt><trkpt lat="44.26179759515883" lon="10.983192994466627"><ele>764.0</ele><time>2026-05-02T15:27:37.988Z</time></trkpt><trkpt lat="44.26184230087971" lon="10.98330013236241"><ele>762.2</ele><time>2026-05-02T15:27:38.988Z</time></trkpt><trkpt lat="44.261897028196486" lon="10.983397335749926"><ele>760.4000000000001</ele><time>2026-05-02T15:27:39.988Z</time></trkpt><trkpt lat="44.261949934103356" lon="10.983494192884056"><ele>758.6</ele><time>2026-05-02T15:27:40.988Z</time></trkpt><trkpt lat="44.26199223696923" lon="10.98359531032557"><ele>756.8</ele><time>2026-05-02T15:27:41.988Z</time></trkpt><trkpt lat="44.262030990665" lon="10.98372459873404"><ele>755.0</ele><time>2026-05-02T15:27:42.988Z</time></trkpt><trkpt lat="44.2620702885948" lon="10.983857815522146"><ele>755.0</ele><time>2026-05-02T15:27:43.988Z</time></trkpt><trkpt lat="44.26210698648709" lon="10.98398405073685"><ele>755.0</ele><time>2026-05-02T15:27:44.988Z</time></trkpt><trkpt lat="44.26213043284433" lon="10.984123934936207"><ele>755.0</ele><time>2026-05-02T15:27:45.986Z</time></trkpt><trkpt lat="44.2621665354624" lon="10.984263165301064"><ele>755.0</ele><time>2026-05-02T15:27:46.986Z</time></trkpt><trkpt lat="44.262200772957385" lon="10.984403438722866"><ele>755.0</ele><time>2026-05-02T15:27:47.986Z</time></trkpt><trkpt lat="44.26223310689824" lon="10.984544789651029"><ele>754.1666666666666</ele><time>2026-05-02T15:27:48.986Z</time></trkpt><trkpt lat="44.26226130628655" lon="10.98466916805194"><ele>753.3333333333333</ele><time>2026-05-02T15:27:49.986Z</time></trkpt><trkpt lat="44.262300896439086" lon="10.98475787263417"><ele>752.5</ele><time>2026-05-02T15:27:50.986Z</time></trkpt><trkpt lat="44.2623529854902" lon="10.984857235983945"><ele>751.6666666666666</ele><time>2026-05-02T15:27:51.987Z</time></trkpt><trkpt lat="44.262414508115604" lon="10.984942025823193"><ele>750.8333333333334</ele><time>2026-05-02T15:27:52.986Z</time></trkpt><trkpt lat="44.26247417241073" lon="10.9850232019699"><ele>750.0</ele><time>2026-05-02T15:27:53.986Z</time></trkpt><trkpt lat="44.26251737039121" lon="10.985125132230376"><ele>748.6</ele><time>2026-05-02T15:27:54.987Z</time></trkpt><trkpt lat="44.2625469705018" lon="10.98526135688507"><ele>747.2</ele><time>2026-05-02T15:27:55.986Z</time></trkpt><trkpt lat="44.262569484604796" lon="10.985396811492873"><ele>745.8</ele><time>2026-05-02T15:27:56.986Z</time></trkpt><trkpt lat="44.262564245579796" lon="10.985545196589767"><ele>744.4</ele><time>2026-05-02T15:27:57.986Z</time></trkpt><trkpt lat="44.26256984388469" lon="10.985695424472244"><ele>743.0</ele><time>2026-05-02T15:27:58.986Z</time></trkpt><trkpt lat="44.26259077097615" lon="10.985845022778664"><ele>741.8</ele><time>2026-05-02T15:27:59.986Z</time></trkpt><trkpt lat="44.26260312915232" lon="10.985998070649671"><ele>740.5999999999999</ele><time>2026-05-02T15:28:00.986Z</time></trkpt><trkpt lat="44.262636695083835" lon="10.986123994134505"><ele>739.4000000000001</ele><time>2026-05-02T15:28:01.986Z</time></trkpt><trkpt lat="44.262678417821505" lon="10.986237510909717"><ele>738.2</ele><time>2026-05-02T15:28:02.986Z</time></trkpt><trkpt lat="44.26270940743575" lon="10.986341357364031"><ele>737.0</ele><time>2026-05-02T15:28:03.986Z</time></trkpt><trkpt lat="44.26274835979307" lon="10.986440688217906"><ele>737.0</ele><time>2026-05-02T15:28:04.986Z</time></trkpt><trkpt lat="44.26278050818613" lon="10.986526939252453"><ele>737.0</ele><time>2026-05-02T15:28:05.986Z</time></trkpt><trkpt lat="44.26281563935214" lon="10.98662223253682"><ele>737.0</ele><time>2026-05-02T15:28:06.986Z</time></trkpt><trkpt lat="44.2628219783988" lon="10.986744474681279"><ele>737.0</ele><time>2026-05-02T15:28:07.986Z</time></trkpt><trkpt lat="44.26282033550909" lon="10.986864625162314"><ele>737.0</ele><time>2026-05-02T15:28:08.986Z</time></trkpt><trkpt lat="44.26281445892719" lon="10.98699903867543"><ele>737.0</ele><time>2026-05-02T15:28:09.986Z</time></trkpt><trkpt lat="44.262809018777524" lon="10.9871244131136"><ele>735.8</ele><time>2026-05-02T15:28:10.986Z</time></trkpt><trkpt lat="44.26280446948099" lon="10.987237308758498"><ele>734.6</ele><time>2026-05-02T15:28:11.986Z</time></trkpt><trkpt lat="44.262816815082246" lon="10.987342438113025"><ele>733.4</ele><time>2026-05-02T15:28:12.986Z</time></trkpt><trkpt lat="44.26279868213116" lon="10.987431881429183"><ele>732.1999999999999</ele><time>2026-05-02T15:28:13.986Z</time></trkpt><trkpt lat="44.26275581537189" lon="10.987550939112598"><ele>731.0</ele><time>2026-05-02T15:28:15.987Z</time></trkpt><trkpt lat="44.262602760939885" lon="10.987459259032574"><ele>731.0</ele><time>2026-05-02T15:28:18.987Z</time></trkpt><trkpt lat="44.262559123296505" lon="10.98737482871022"><ele>731.0</ele><time>2026-05-02T15:28:19.987Z</time></trkpt><trkpt lat="44.26251516854562" lon="10.98729080346383"><ele>731.0</ele><time>2026-05-02T15:28:20.987Z</time></trkpt><trkpt lat="44.26246010385294" lon="10.987218869169354"><ele>731.0</ele><time>2026-05-02T15:28:21.987Z</time></trkpt><trkpt lat="44.26239631928026" lon="10.987162577497907"><ele>731.0</ele><time>2026-05-02T15:28:22.987Z</time></trkpt><trkpt lat="44.26232287177393" lon="10.987140959316147"><ele>731.0</ele><time>2026-05-02T15:28:23.987Z</time></trkpt><trkpt lat="44.262242537156226" lon="10.98716048290725"><ele>732.8333333333333</ele><time>2026-05-02T15:28:24.987Z</time></trkpt><trkpt lat="44.26217241106559" lon="10.98721515026627"><ele>734.6666666666666</ele><time>2026-05-02T15:28:25.987Z</time></trkpt><trkpt lat="44.26213140251241" lon="10.987292669342951"><ele>736.5</ele><time>2026-05-02T15:28:26.987Z</time></trkpt><trkpt lat="44.26211125585964" lon="10.987389493411154"><ele>738.3333333333334</ele><time>2026-05-02T15:28:27.987Z</time></trkpt><trkpt lat="44.26211690993163" lon="10.987488784838112"><ele>740.1666666666667</ele><time>2026-05-02T15:28:28.987Z</time></trkpt><trkpt lat="44.262132035863495" lon="10.987596446554319"><ele>742.0</ele><time>2026-05-02T15:28:29.987Z</time></trkpt><trkpt lat="44.26215483870193" lon="10.98771091888905"><ele>742.2</ele><time>2026-05-02T15:28:30.987Z</time></trkpt><trkpt lat="44.26215737154427" lon="10.987835208203974"><ele>742.4000000000001</ele><time>2026-05-02T15:28:31.987Z</time></trkpt><trkpt lat="44.26218043540898" lon="10.987962768318523"><ele>742.5999999999999</ele><time>2026-05-02T15:28:32.987Z</time></trkpt><trkpt lat="44.26220153493528" lon="10.988093108879449"><ele>742.8</ele><time>2026-05-02T15:28:33.987Z</time></trkpt><trkpt lat="44.26222118784308" lon="10.98822740347046"><ele>743.0</ele><time>2026-05-02T15:28:34.987Z</time></trkpt><trkpt lat="44.26223830557912" lon="10.988368800196785"><ele>742.5999999999999</ele><time>2026-05-02T15:28:35.987Z</time></trkpt><trkpt lat="44.26224818688696" lon="10.9885071804542"><ele>742.1999999999999</ele><time>2026-05-02T15:28:36.987Z</time></trkpt><trkpt lat="44.26225746421174" lon="10.988633941206208"><ele>741.8</ele><time>2026-05-02T15:28:37.987Z</time></trkpt><trkpt lat="44.262280566375566" lon="10.988768469732571"><ele>741.4</ele><time>2026-05-02T15:28:38.987Z</time></trkpt><trkpt lat="44.26230065177596" lon="10.98889004555992"><ele>741.0</ele><time>2026-05-02T15:28:39.987Z</time></trkpt><trkpt lat="44.26230546797766" lon="10.989005854508028"><ele>737.8</ele><time>2026-05-02T15:28:40.987Z</time></trkpt><trkpt lat="44.26231298308913" lon="10.989125888182457"><ele>734.5999999999999</ele><time>2026-05-02T15:28:41.987Z</time></trkpt><trkpt lat="44.26233171754362" lon="10.989265256934761"><ele>731.4</ele><time>2026-05-02T15:28:42.987Z</time></trkpt><trkpt lat="44.26236099144201" lon="10.989406923848492"><ele>728.2</ele><time>2026-05-02T15:28:43.987Z</time></trkpt><trkpt lat="44.262398051787386" lon="10.989542326481274"><ele>725.0</ele><time>2026-05-02T15:28:44.987Z</time></trkpt><trkpt lat="44.262446256660375" lon="10.989658077995168"><ele>724.8571428571429</ele><time>2026-05-02T15:28:45.987Z</time></trkpt><trkpt lat="44.26250322680203" lon="10.989737421641538"><ele>724.7142857142858</ele><time>2026-05-02T15:28:46.987Z</time></trkpt><trkpt lat="44.26255947817214" lon="10.989787886583017"><ele>724.5714285714286</ele><time>2026-05-02T15:28:47.987Z</time></trkpt><trkpt lat="44.2626213456182" lon="10.989835674104286"><ele>724.4285714285714</ele><time>2026-05-02T15:28:48.987Z</time></trkpt><trkpt lat="44.26268446944512" lon="10.98989261540304"><ele>724.2857142857142</ele><time>2026-05-02T15:28:49.987Z</time></trkpt><trkpt lat="44.262732778431086" lon="10.98996291920649"><ele>724.1428571428571</ele><time>2026-05-02T15:28:50.987Z</time></trkpt><trkpt lat="44.26276275108136" lon="10.990057073980989"><ele>724.0</ele><time>2026-05-02T15:28:51.987Z</time></trkpt><trkpt lat="44.26274665281362" lon="10.990177326906181"><ele>723.8333333333334</ele><time>2026-05-02T15:28:52.988Z</time></trkpt><trkpt lat="44.262742241044684" lon="10.990307666053777"><ele>723.6666666666667</ele><time>2026-05-02T15:28:53.988Z</time></trkpt><trkpt lat="44.26268470997797" lon="10.990416583163316"><ele>723.5</ele><time>2026-05-02T15:28:54.988Z</time></trkpt><trkpt lat="44.2626594396406" lon="10.990524513041295"><ele>723.3333333333334</ele><time>2026-05-02T15:28:55.988Z</time></trkpt><trkpt lat="44.26266718276803" lon="10.990651407172159"><ele>723.1666666666666</ele><time>2026-05-02T15:28:56.988Z</time></trkpt><trkpt lat="44.26267637478331" lon="10.990763130613846"><ele>723.0</ele><time>2026-05-02T15:28:57.988Z</time></trkpt><trkpt lat="44.26270352996264" lon="10.990886777028553"><ele>722.2</ele><time>2026-05-02T15:28:58.988Z</time></trkpt><trkpt lat="44.26273687652331" lon="10.99101280131006"><ele>721.4</ele><time>2026-05-02T15:28:59.988Z</time></trkpt><trkpt lat="44.262757644967024" lon="10.99113975441048"><ele>720.6</ele><time>2026-05-02T15:29:00.988Z</time></trkpt><trkpt lat="44.26273939048834" lon="10.991280717512518"><ele>719.8000000000001</ele><time>2026-05-02T15:29:01.988Z</time></trkpt><trkpt lat="44.262719735003785" lon="10.991405396490077"><ele>719.0</ele><time>2026-05-02T15:29:02.988Z</time></trkpt><trkpt lat="44.26267932127837" lon="10.991519568196319"><ele>719.0</ele><time>2026-05-02T15:29:03.988Z</time></trkpt><trkpt lat="44.26262246109289" lon="10.991594203251204"><ele>719.0</ele><time>2026-05-02T15:29:04.988Z</time></trkpt><trkpt lat="44.262555456321074" lon="10.991656456177095"><ele>719.0</ele><time>2026-05-02T15:29:05.988Z</time></trkpt><trkpt lat="44.26248331281223" lon="10.991717225699226"><ele>719.0</ele><time>2026-05-02T15:29:06.988Z</time></trkpt><trkpt lat="44.262404936468144" lon="10.991776461752625"><ele>719.0</ele><time>2026-05-02T15:29:07.988Z</time></trkpt><trkpt lat="44.262340430085324" lon="10.991875034737433"><ele>719.0</ele><time>2026-05-02T15:29:08.988Z</time></trkpt><trkpt lat="44.262290537349266" lon="10.991975005572339"><ele>719.8000000000001</ele><time>2026-05-02T15:29:09.988Z</time></trkpt><trkpt lat="44.26224157270251" lon="10.992097619643413"><ele>720.6</ele><time>2026-05-02T15:29:10.988Z</time></trkpt><trkpt lat="44.262192364363955" lon="10.992217449123736"><ele>721.4</ele><time>2026-05-02T15:29:11.988Z</time></trkpt><trkpt lat="44.26214768296045" lon="10.992328733264198"><ele>722.2</ele><time>2026-05-02T15:29:12.988Z</time></trkpt><trkpt lat="44.26208335794346" lon="10.992409556874483"><ele>723.0</ele><time>2026-05-02T15:29:13.988Z</time></trkpt><trkpt lat="44.2620352437663" lon="10.992501319023322"><ele>721.6666666666666</ele><time>2026-05-02T15:29:14.988Z</time></trkpt><trkpt lat="44.26199383657423" lon="10.992601526979312"><ele>720.3333333333334</ele><time>2026-05-02T15:29:15.988Z</time></trkpt><trkpt lat="44.26200131286686" lon="10.99272007721468"><ele>719.0</ele><time>2026-05-02T15:29:16.988Z</time></trkpt><trkpt lat="44.26201136280049" lon="10.992843776882276"><ele>717.6666666666667</ele><time>2026-05-02T15:29:17.988Z</time></trkpt><trkpt lat="44.26200084976721" lon="10.992971882535"><ele>716.3333333333334</ele><time>2026-05-02T15:29:18.988Z</time></trkpt><trkpt lat="44.261977436278336" lon="10.993095816573476"><ele>715.0</ele><time>2026-05-02T15:29:19.988Z</time></trkpt><trkpt lat="44.26193711008653" lon="10.993202918906988"><ele>715.0</ele><time>2026-05-02T15:29:20.988Z</time></trkpt><trkpt lat="44.26189156361118" lon="10.993325878371296"><ele>715.0</ele><time>2026-05-02T15:29:21.988Z</time></trkpt><trkpt lat="44.261853470134106" lon="10.993450873430563"><ele>715.0</ele><time>2026-05-02T15:29:22.988Z</time></trkpt><trkpt lat="44.261829641364336" lon="10.993596100686627"><ele>715.0</ele><time>2026-05-02T15:29:23.988Z</time></trkpt><trkpt lat="44.26180851796924" lon="10.993740426344267"><ele>715.0</ele><time>2026-05-02T15:29:24.988Z</time></trkpt><trkpt lat="44.261788627170105" lon="10.993885291738968"><ele>714.5</ele><time>2026-05-02T15:29:25.988Z</time></trkpt><trkpt lat="44.26177191974022" lon="10.994022743357466"><ele>714.0</ele><time>2026-05-02T15:29:26.988Z</time></trkpt><trkpt lat="44.26179013776204" lon="10.994153920714497"><ele>713.5</ele><time>2026-05-02T15:29:27.988Z</time></trkpt><trkpt lat="44.26179689776853" lon="10.99427529891387"><ele>713.0</ele><time>2026-05-02T15:29:28.988Z</time></trkpt><trkpt lat="44.261863927716064" lon="10.99434957708825"><ele>712.5</ele><time>2026-05-02T15:29:29.988Z</time></trkpt><trkpt lat="44.26192568054352" lon="10.994399360731254"><ele>712.0</ele><time>2026-05-02T15:29:30.989Z</time></trkpt><trkpt lat="44.26199453865664" lon="10.994435286650333"><ele>712.0</ele><time>2026-05-02T15:29:31.989Z</time></trkpt><trkpt lat="44.26207009715552" lon="10.994464200703197"><ele>712.0</ele><time>2026-05-02T15:29:32.989Z</time></trkpt><trkpt lat="44.262149588639616" lon="10.994489633892389"><ele>712.0</ele><time>2026-05-02T15:29:33.989Z</time></trkpt><trkpt lat="44.262243080709034" lon="10.994523694371951"><ele>712.0</ele><time>2026-05-02T15:29:34.989Z</time></trkpt><trkpt lat="44.26234819461122" lon="10.994554164275055"><ele>712.0</ele><time>2026-05-02T15:29:35.989Z</time></trkpt><trkpt lat="44.26242954646696" lon="10.994635241914608"><ele>712.6</ele><time>2026-05-02T15:29:36.989Z</time></trkpt><trkpt lat="44.2624993165971" lon="10.99473844044566"><ele>713.2</ele><time>2026-05-02T15:29:37.989Z</time></trkpt><trkpt lat="44.26254476725027" lon="10.994866887256821"><ele>713.8</ele><time>2026-05-02T15:29:38.989Z</time></trkpt><trkpt lat="44.262575751471154" lon="10.995001564083356"><ele>714.4</ele><time>2026-05-02T15:29:39.989Z</time></trkpt><trkpt lat="44.26260176037405" lon="10.995148184203053"><ele>715.0</ele><time>2026-05-02T15:29:40.989Z</time></trkpt><trkpt lat="44.26262705746415" lon="10.995292727253865"><ele>716.4</ele><time>2026-05-02T15:29:41.989Z</time></trkpt><trkpt lat="44.262653695607554" lon="10.99543374090195"><ele>717.8</ele><time>2026-05-02T15:29:42.989Z</time></trkpt><trkpt lat="44.26268775370286" lon="10.995569545511382"><ele>719.2</ele><time>2026-05-02T15:29:43.989Z</time></trkpt><trkpt lat="44.26272967763118" lon="10.995704233898406"><ele>720.6</ele><time>2026-05-02T15:29:44.989Z</time></trkpt><trkpt lat="44.26278096032476" lon="10.995836351689313"><ele>722.0</ele><time>2026-05-02T15:29:45.989Z</time></trkpt><trkpt lat="44.26283848242739" lon="10.99596267813501"><ele>722.8</ele><time>2026-05-02T15:29:46.989Z</time></trkpt><trkpt lat="44.262900332391276" lon="10.996087706137148"><ele>723.6</ele><time>2026-05-02T15:29:47.989Z</time></trkpt><trkpt lat="44.262961539290266" lon="10.996203539989555"><ele>724.4</ele><time>2026-05-02T15:29:48.989Z</time></trkpt><trkpt lat="44.26302438343048" lon="10.996322471449613"><ele>725.1999999999999</ele><time>2026-05-02T15:29:49.989Z</time></trkpt><trkpt lat="44.26308713073061" lon="10.996441219307432"><ele>726.0</ele><time>2026-05-02T15:29:50.989Z</time></trkpt><trkpt lat="44.26314809284552" lon="10.996556588741848"><ele>726.1999999999999</ele><time>2026-05-02T15:29:51.987Z</time></trkpt><trkpt lat="44.26324012891115" lon="10.996634902314243"><ele>726.4</ele><time>2026-05-02T15:29:52.988Z</time></trkpt><trkpt lat="44.263294507017896" lon="10.996753234034724"><ele>726.6</ele><time>2026-05-02T15:29:53.988Z</time></trkpt><trkpt lat="44.26333192753428" lon="10.996886187778232"><ele>726.8</ele><time>2026-05-02T15:29:54.988Z</time></trkpt><trkpt lat="44.263354169235775" lon="10.997034359569927"><ele>727.0</ele><time>2026-05-02T15:29:55.987Z</time></trkpt><trkpt lat="44.26336846080702" lon="10.99717600694929"><ele>727.8333333333334</ele><time>2026-05-02T15:29:56.987Z</time></trkpt><trkpt lat="44.26337828294558" lon="10.997311282731348"><ele>728.6666666666667</ele><time>2026-05-02T15:29:57.987Z</time></trkpt><trkpt lat="44.26338096635461" lon="10.997431252221334"><ele>729.5</ele><time>2026-05-02T15:29:58.987Z</time></trkpt><trkpt lat="44.263391093140065" lon="10.99753434052208"><ele>730.3333333333334</ele><time>2026-05-02T15:29:59.987Z</time></trkpt><trkpt lat="44.2633654055957" lon="10.99763024524317"><ele>731.1666666666666</ele><time>2026-05-02T15:30:00.987Z</time></trkpt><trkpt lat="44.263303365154734" lon="10.997699478283868"><ele>732.0</ele><time>2026-05-02T15:30:01.988Z</time></trkpt><trkpt lat="44.263258631786485" lon="10.997819988920844"><ele>733.1666666666666</ele><time>2026-05-02T15:30:02.988Z</time></trkpt><trkpt lat="44.26320872252713" lon="10.997932156699251"><ele>734.3333333333334</ele><time>2026-05-02T15:30:03.987Z</time></trkpt><trkpt lat="44.263158842768846" lon="10.99805200903011"><ele>735.5</ele><time>2026-05-02T15:30:04.988Z</time></trkpt><trkpt lat="44.26312556218948" lon="10.998172647404159"><ele>736.6666666666667</ele><time>2026-05-02T15:30:05.988Z</time></trkpt><trkpt lat="44.263082441019755" lon="10.998266055092731"><ele>737.8333333333334</ele><time>2026-05-02T15:30:06.988Z</time></trkpt><trkpt lat="44.26301994396403" lon="10.998303474432705"><ele>739.0</ele><time>2026-05-02T15:30:07.988Z</time></trkpt><trkpt lat="44.2629589635854" lon="10.998271242342733"><ele>739.0</ele><time>2026-05-02T15:30:08.988Z</time></trkpt><trkpt lat="44.2629299148629" lon="10.998188051936364"><ele>739.0</ele><time>2026-05-02T15:30:09.988Z</time></trkpt><trkpt lat="44.26293779236435" lon="10.99806446032631"><ele>739.0</ele><time>2026-05-02T15:30:10.988Z</time></trkpt><trkpt lat="44.262959497405795" lon="10.997940493982316"><ele>739.0</ele><time>2026-05-02T15:30:11.988Z</time></trkpt><trkpt lat="44.26297490654865" lon="10.997815527520668"><ele>739.0</ele><time>2026-05-02T15:30:12.988Z</time></trkpt><trkpt lat="44.262971438744906" lon="10.997716704780546"><ele>739.0</ele><time>2026-05-02T15:30:13.988Z</time></trkpt><trkpt lat="44.26295701930587" lon="10.997576037502013"><ele>739.0</ele><time>2026-05-02T15:30:15.988Z</time></trkpt><trkpt lat="44.26286793592326" lon="10.997485520346041"><ele>739.0</ele><time>2026-05-02T15:30:17.988Z</time></trkpt><trkpt lat="44.262811404067484" lon="10.99763965168207"><ele>739.0</ele><time>2026-05-02T15:30:19.988Z</time></trkpt><trkpt lat="44.262850864067524" lon="10.997795193097362"><ele>739.0</ele><time>2026-05-02T15:30:20.988Z</time></trkpt><trkpt lat="44.26287730264983" lon="10.997954546777148"><ele>739.0</ele><time>2026-05-02T15:30:21.988Z</time></trkpt><trkpt lat="44.2629244971746" lon="10.998117261867549"><ele>739.0</ele><time>2026-05-02T15:30:22.988Z</time></trkpt><trkpt lat="44.26268422929564" lon="10.998024978899569"><ele>739.0</ele><time>2026-05-02T15:30:23.988Z</time></trkpt><trkpt lat="44.2626940857714" lon="10.998156560432582"><ele>739.0</ele><time>2026-05-02T15:30:24.988Z</time></trkpt><trkpt lat="44.262699323585245" lon="10.998290922165452"><ele>739.0</ele><time>2026-05-02T15:30:25.988Z</time></trkpt><trkpt lat="44.26270044181462" lon="10.998428348697464"><ele>739.0</ele><time>2026-05-02T15:30:26.988Z</time></trkpt><trkpt lat="44.262700674623304" lon="10.998570658628362"><ele>739.0</ele><time>2026-05-02T15:30:27.988Z</time></trkpt><trkpt lat="44.26270762636151" lon="10.998709853359696"><ele>739.0</ele><time>2026-05-02T15:30:28.988Z</time></trkpt><trkpt lat="44.262710437549615" lon="10.998848342782694"><ele>741.2</ele><time>2026-05-02T15:30:29.988Z</time></trkpt><trkpt lat="44.26270695213892" lon="10.998987477025498"><ele>743.4000000000001</ele><time>2026-05-02T15:30:30.988Z</time></trkpt><trkpt lat="44.262695199195335" lon="10.999125116697828"><ele>745.6</ele><time>2026-05-02T15:30:31.988Z</time></trkpt><trkpt lat="44.262654281406725" lon="10.999252249842897"><ele>747.8</ele><time>2026-05-02T15:30:32.988Z</time></trkpt><trkpt lat="44.26258531070374" lon="10.999345351604363"><ele>750.0</ele><time>2026-05-02T15:30:33.988Z</time></trkpt><trkpt lat="44.2624746684826" lon="10.999385891201202"><ele>751.2</ele><time>2026-05-02T15:30:34.988Z</time></trkpt><trkpt lat="44.26236737529667" lon="10.999382247704265"><ele>752.4</ele><time>2026-05-02T15:30:35.988Z</time></trkpt><trkpt lat="44.262264902744036" lon="10.999373651984516"><ele>753.5999999999999</ele><time>2026-05-02T15:30:36.989Z</time></trkpt><trkpt lat="44.262167059537354" lon="10.99938108793095"><ele>754.8</ele><time>2026-05-02T15:30:37.989Z</time></trkpt><trkpt lat="44.262078443296836" lon="10.999446480549723"><ele>756.0</ele><time>2026-05-02T15:30:38.989Z</time></trkpt><trkpt lat="44.26201041756019" lon="10.999546009563916"><ele>758.0</ele><time>2026-05-02T15:30:39.989Z</time></trkpt><trkpt lat="44.261963152250644" lon="10.99967414183733"><ele>760.0</ele><time>2026-05-02T15:30:40.989Z</time></trkpt><trkpt lat="44.261931364939564" lon="10.99980158938453"><ele>762.0</ele><time>2026-05-02T15:30:41.989Z</time></trkpt><trkpt lat="44.26192418884955" lon="10.999939136239645"><ele>764.0</ele><time>2026-05-02T15:30:42.989Z</time></trkpt><trkpt lat="44.26193331735905" lon="11.000079722205342"><ele>766.0</ele><time>2026-05-02T15:30:43.989Z</time></trkpt><trkpt lat="44.261969472855654" lon="11.000213055482794"><ele>766.0</ele><time>2026-05-02T15:30:44.989Z</time></trkpt><trkpt lat="44.26203430882159" lon="11.00031571354629"><ele>766.0</ele><time>2026-05-02T15:30:45.989Z</time></trkpt><trkpt lat="44.262114331129965" lon="11.000393489828236"><ele>766.0</ele><time>2026-05-02T15:30:46.989Z</time></trkpt><trkpt lat="44.26223496506481" lon="11.000466481712493"><ele>766.0</ele><time>2026-05-02T15:30:47.989Z</time></trkpt><trkpt lat="44.26228830955564" lon="11.000565830195299"><ele>766.0</ele><time>2026-05-02T15:30:48.989Z</time></trkpt><trkpt lat="44.26231983811829" lon="11.0007024114407"><ele>765.8</ele><time>2026-05-02T15:30:49.989Z</time></trkpt><trkpt lat="44.2623183136388" lon="11.000837261132196"><ele>765.5999999999999</ele><time>2026-05-02T15:30:50.989Z</time></trkpt><trkpt lat="44.26227925826424" lon="11.000999330061665"><ele>765.4</ele><time>2026-05-02T15:30:51.989Z</time></trkpt><trkpt lat="44.262249162194685" lon="11.001132528411498"><ele>765.2</ele><time>2026-05-02T15:30:52.989Z</time></trkpt><trkpt lat="44.26221263586828" lon="11.001266710407613"><ele>765.0</ele><time>2026-05-02T15:30:53.989Z</time></trkpt><trkpt lat="44.262184700545845" lon="11.001403471428434"><ele>767.25</ele><time>2026-05-02T15:30:54.989Z</time></trkpt><trkpt lat="44.26220995371653" lon="11.001560260802858"><ele>769.5</ele><time>2026-05-02T15:30:55.989Z</time></trkpt><trkpt lat="44.262272302699664" lon="11.001689717002668"><ele>771.75</ele><time>2026-05-02T15:30:56.989Z</time></trkpt><trkpt lat="44.26237052134425" lon="11.001792925975147"><ele>774.0</ele><time>2026-05-02T15:30:57.989Z</time></trkpt><trkpt lat="44.262452525816805" lon="11.00188381465948"><ele>774.0</ele><time>2026-05-02T15:30:58.989Z</time></trkpt><trkpt lat="44.26252829290527" lon="11.00198110576086"><ele>774.0</ele><time>2026-05-02T15:30:59.989Z</time></trkpt><trkpt lat="44.26259443130799" lon="11.002074253563578"><ele>774.0</ele><time>2026-05-02T15:31:00.989Z</time></trkpt><trkpt lat="44.26267506133892" lon="11.00217198009038"><ele>774.0</ele><time>2026-05-02T15:31:01.989Z</time></trkpt><trkpt lat="44.26274737309551" lon="11.002272552280017"><ele>774.0</ele><time>2026-05-02T15:31:02.989Z</time></trkpt><trkpt lat="44.26281556825006" lon="11.00237934763265"><ele>774.0</ele><time>2026-05-02T15:31:03.989Z</time></trkpt><trkpt lat="44.262885201714084" lon="11.002480162880572"><ele>774.0</ele><time>2026-05-02T15:31:04.989Z</time></trkpt><trkpt lat="44.26293487146989" lon="11.002591487221176"><ele>774.0</ele><time>2026-05-02T15:31:05.989Z</time></trkpt><trkpt lat="44.26295178228347" lon="11.002735875288387"><ele>774.0</ele><time>2026-05-02T15:31:06.989Z</time></trkpt><trkpt lat="44.26292284350254" lon="11.00287764721517"><ele>774.0</ele><time>2026-05-02T15:31:07.989Z</time></trkpt><trkpt lat="44.262861531537574" lon="11.003008925758733"><ele>776.4000000000001</ele><time>2026-05-02T15:31:08.989Z</time></trkpt><trkpt lat="44.26280991800367" lon="11.003130860189257"><ele>778.8</ele><time>2026-05-02T15:31:09.989Z</time></trkpt><trkpt lat="44.26280328410739" lon="11.0032806567582"><ele>781.2</ele><time>2026-05-02T15:31:10.989Z</time></trkpt><trkpt lat="44.262846055507104" lon="11.003419802483931"><ele>783.5999999999999</ele><time>2026-05-02T15:31:11.989Z</time></trkpt><trkpt lat="44.26290771646434" lon="11.003543708715315"><ele>786.0</ele><time>2026-05-02T15:31:12.989Z</time></trkpt><trkpt lat="44.262973816082244" lon="11.003661885887139"><ele>786.8</ele><time>2026-05-02T15:31:13.989Z</time></trkpt><trkpt lat="44.2630434360413" lon="11.00377393794034"><ele>787.5999999999999</ele><time>2026-05-02T15:31:14.99Z</time></trkpt><trkpt lat="44.26310300203255" lon="11.003892110760152"><ele>788.4</ele><time>2026-05-02T15:31:15.99Z</time></trkpt><trkpt lat="44.26314866729411" lon="11.004025102878972"><ele>789.2</ele><time>2026-05-02T15:31:16.99Z</time></trkpt><trkpt lat="44.26319296342821" lon="11.004152064668308"><ele>790.0</ele><time>2026-05-02T15:31:17.99Z</time></trkpt><trkpt lat="44.2632622598238" lon="11.00424380741952"><ele>790.0</ele><time>2026-05-02T15:31:18.99Z</time></trkpt><trkpt lat="44.26336491819165" lon="11.004297861404227"><ele>790.0</ele><time>2026-05-02T15:31:19.99Z</time></trkpt><trkpt lat="44.26348288441979" lon="11.004318318337623"><ele>790.0</ele><time>2026-05-02T15:31:20.99Z</time></trkpt><trkpt lat="44.26360178245216" lon="11.00430313282011"><ele>790.0</ele><time>2026-05-02T15:31:21.99Z</time></trkpt><trkpt lat="44.26371855416571" lon="11.00428004580223"><ele>790.0</ele><time>2026-05-02T15:31:22.99Z</time></trkpt><trkpt lat="44.26383474803829" lon="11.004292363583916"><ele>790.0</ele><time>2026-05-02T15:31:23.99Z</time></trkpt><trkpt lat="44.26395378779357" lon="11.004320218215295"><ele>790.0</ele><time>2026-05-02T15:31:24.99Z</time></trkpt><trkpt lat="44.26407197001906" lon="11.004357138990438"><ele>790.0</ele><time>2026-05-02T15:31:25.99Z</time></trkpt><trkpt lat="44.26418714386988" lon="11.004378536487138"><ele>790.5</ele><time>2026-05-02T15:31:26.99Z</time></trkpt><trkpt lat="44.26430551111176" lon="11.0043841335109"><ele>791.0</ele><time>2026-05-02T15:31:27.99Z</time></trkpt><trkpt lat="44.26442357899128" lon="11.004377863657703"><ele>791.5</ele><time>2026-05-02T15:31:28.99Z</time></trkpt><trkpt lat="44.26453747245508" lon="11.00436482489449"><ele>792.0</ele><time>2026-05-02T15:31:29.99Z</time></trkpt><trkpt lat="44.26464730185453" lon="11.004364776710489"><ele>792.0</ele><time>2026-05-02T15:31:30.99Z</time></trkpt><trkpt lat="44.264750288056256" lon="11.004354224174659"><ele>792.0</ele><time>2026-05-02T15:31:31.99Z</time></trkpt><trkpt lat="44.26485106729075" lon="11.00434521987576"><ele>792.0</ele><time>2026-05-02T15:31:32.99Z</time></trkpt><trkpt lat="44.26495237541463" lon="11.00433067201041"><ele>792.0</ele><time>2026-05-02T15:31:33.99Z</time></trkpt><trkpt lat="44.26506033774675" lon="11.004306872774034"><ele>792.0</ele><time>2026-05-02T15:31:34.99Z</time></trkpt><trkpt lat="44.26517439003495" lon="11.004286207060266"><ele>792.0</ele><time>2026-05-02T15:31:35.99Z</time></trkpt><trkpt lat="44.26529072399301" lon="11.004272077879738"><ele>792.0</ele><time>2026-05-02T15:31:36.99Z</time></trkpt><trkpt lat="44.265408331661895" lon="11.004247927167155"><ele>792.0</ele><time>2026-05-02T15:31:37.99Z</time></trkpt><trkpt lat="44.265521061622124" lon="11.004243122109433"><ele>792.0</ele><time>2026-05-02T15:31:38.99Z</time></trkpt><trkpt lat="44.26562431523291" lon="11.004230613925253"><ele>792.0</ele><time>2026-05-02T15:31:39.99Z</time></trkpt><trkpt lat="44.26571491322177" lon="11.004196387699546"><ele>792.0</ele><time>2026-05-02T15:31:40.99Z</time></trkpt><trkpt lat="44.265804030013726" lon="11.004157541948505"><ele>792.0</ele><time>2026-05-02T15:31:41.99Z</time></trkpt><trkpt lat="44.26588149211133" lon="11.004109910956394"><ele>792.0</ele><time>2026-05-02T15:31:42.99Z</time></trkpt><trkpt lat="44.26594603957171" lon="11.004063421719136"><ele>792.0</ele><time>2026-05-02T15:31:43.99Z</time></trkpt><trkpt lat="44.266006153949206" lon="11.00401100058462"><ele>792.0</ele><time>2026-05-02T15:31:44.99Z</time></trkpt><trkpt lat="44.266069351712154" lon="11.00395768182172"><ele>794.3333333333334</ele><time>2026-05-02T15:31:45.99Z</time></trkpt><trkpt lat="44.266135477448195" lon="11.00390350784959"><ele>796.6666666666667</ele><time>2026-05-02T15:31:46.99Z</time></trkpt><trkpt lat="44.26620982677689" lon="11.003830427533847"><ele>799.0</ele><time>2026-05-02T15:31:47.99Z</time></trkpt><trkpt lat="44.266281657373476" lon="11.003758411756547"><ele>801.3333333333334</ele><time>2026-05-02T15:31:48.99Z</time></trkpt><trkpt lat="44.266349923884235" lon="11.00367946256058"><ele>803.6666666666667</ele><time>2026-05-02T15:31:49.99Z</time></trkpt><trkpt lat="44.266426310849006" lon="11.003641777168916"><ele>806.0</ele><time>2026-05-02T15:31:50.99Z</time></trkpt><trkpt lat="44.26649195762821" lon="11.003592196548556"><ele>806.0000000000001</ele><time>2026-05-02T15:31:51.99Z</time></trkpt><trkpt lat="44.26655737540601" lon="11.003547464095327"><ele>806.0</ele><time>2026-05-02T15:31:52.991Z</time></trkpt><trkpt lat="44.26663163517697" lon="11.003501173150218"><ele>806.0</ele><time>2026-05-02T15:31:53.991Z</time></trkpt><trkpt lat="44.26669904365827" lon="11.003463541635021"><ele>806.0</ele><time>2026-05-02T15:31:54.991Z</time></trkpt><trkpt lat="44.266761241725106" lon="11.00343190293595"><ele>806.0000000000001</ele><time>2026-05-02T15:31:55.991Z</time></trkpt><trkpt lat="44.26687609400531" lon="11.003378377320482"><ele>806.0</ele><time>2026-05-02T15:31:57.989Z</time></trkpt><trkpt lat="44.266938160734206" lon="11.003351035649684"><ele>806.25</ele><time>2026-05-02T15:31:58.988Z</time></trkpt><trkpt lat="44.26704105367033" lon="11.003306281243805"><ele>806.5</ele><time>2026-05-02T15:32:00.989Z</time></trkpt><trkpt lat="44.26715505583793" lon="11.003258284293695"><ele>806.75</ele><time>2026-05-02T15:32:02.989Z</time></trkpt><trkpt lat="44.267266405905744" lon="11.00321140393514"><ele>807.0</ele><time>2026-05-02T15:32:04.988Z</time></trkpt><trkpt lat="44.26736808832586" lon="11.003166693640063"><ele>807.0</ele><time>2026-05-02T15:32:06.988Z</time></trkpt><trkpt lat="44.2674803274135" lon="11.003113435443375"><ele>807.0</ele><time>2026-05-02T15:32:08.988Z</time></trkpt><trkpt lat="44.267588193285796" lon="11.003023848267173"><ele>807.0</ele><time>2026-05-02T15:32:10.988Z</time></trkpt><trkpt lat="44.26765059015613" lon="11.002999605442001"><ele>807.0</ele><time>2026-05-02T15:32:11.988Z</time></trkpt><trkpt lat="44.26773580181748" lon="11.002935879166076"><ele>807.0</ele><time>2026-05-02T15:32:13.988Z</time></trkpt><trkpt lat="44.26782713154291" lon="11.002852197239603"><ele>807.0</ele><time>2026-05-02T15:32:15.988Z</time></trkpt><trkpt lat="44.26796224451048" lon="11.002791565689995"><ele>807.0</ele><time>2026-05-02T15:32:17.988Z</time></trkpt><trkpt lat="44.26804066922226" lon="11.002771639098155"><ele>807.0</ele><time>2026-05-02T15:32:18.988Z</time></trkpt><trkpt lat="44.2681186649842" lon="11.002767542744431"><ele>807.0</ele><time>2026-05-02T15:32:19.988Z</time></trkpt><trkpt lat="44.26819874357084" lon="11.002789067579137"><ele>807.0</ele><time>2026-05-02T15:32:20.988Z</time></trkpt><trkpt lat="44.26828407189114" lon="11.00283150903389"><ele>804.3333333333334</ele><time>2026-05-02T15:32:21.988Z</time></trkpt><trkpt lat="44.268369512476454" lon="11.002868261968437"><ele>801.6666666666667</ele><time>2026-05-02T15:32:22.988Z</time></trkpt><trkpt lat="44.26845573784527" lon="11.00288530167931"><ele>799.0</ele><time>2026-05-02T15:32:23.988Z</time></trkpt><trkpt lat="44.26854230447284" lon="11.002875082839774"><ele>796.3333333333334</ele><time>2026-05-02T15:32:24.988Z</time></trkpt><trkpt lat="44.268622884007286" lon="11.002863000934092"><ele>793.6666666666667</ele><time>2026-05-02T15:32:25.988Z</time></trkpt><trkpt lat="44.26869351601728" lon="11.002827755343748"><ele>791.0</ele><time>2026-05-02T15:32:26.988Z</time></trkpt><trkpt lat="44.26877807459093" lon="11.002803369219594"><ele>791.0</ele><time>2026-05-02T15:32:27.988Z</time></trkpt><trkpt lat="44.268860676096665" lon="11.002743411027154"><ele>791.0</ele><time>2026-05-02T15:32:28.988Z</time></trkpt><trkpt lat="44.26892707117534" lon="11.00264669117571"><ele>791.0</ele><time>2026-05-02T15:32:29.988Z</time></trkpt><trkpt lat="44.26899662302454" lon="11.002573580359229"><ele>791.0</ele><time>2026-05-02T15:32:30.988Z</time></trkpt><trkpt lat="44.269053130873225" lon="11.002463941995666"><ele>791.0</ele><time>2026-05-02T15:32:31.988Z</time></trkpt><trkpt lat="44.26913395628201" lon="11.002420449771352"><ele>792.0000000000001</ele><time>2026-05-02T15:32:32.989Z</time></trkpt><trkpt lat="44.26921840239356" lon="11.002394590549027"><ele>793.0</ele><time>2026-05-02T15:32:33.989Z</time></trkpt><trkpt lat="44.269309032358684" lon="11.00234948185833"><ele>794.0</ele><time>2026-05-02T15:32:34.989Z</time></trkpt><trkpt lat="44.26939673890158" lon="11.002329237549105"><ele>795.0</ele><time>2026-05-02T15:32:35.989Z</time></trkpt><trkpt lat="44.269481424764535" lon="11.002312412484397"><ele>796.0000000000001</ele><time>2026-05-02T15:32:36.989Z</time></trkpt><trkpt lat="44.269566940608996" lon="11.00229253444383"><ele>797.0</ele><time>2026-05-02T15:32:37.989Z</time></trkpt><trkpt lat="44.2696534249648" lon="11.002271281422576"><ele>797.0</ele><time>2026-05-02T15:32:38.989Z</time></trkpt><trkpt lat="44.269741211829476" lon="11.002250301605596"><ele>797.0</ele><time>2026-05-02T15:32:39.989Z</time></trkpt><trkpt lat="44.26982834164034" lon="11.002225815328035"><ele>797.0</ele><time>2026-05-02T15:32:40.989Z</time></trkpt><trkpt lat="44.269912931581054" lon="11.002190375660604"><ele>797.0</ele><time>2026-05-02T15:32:41.989Z</time></trkpt><trkpt lat="44.26999693508277" lon="11.00213961391313"><ele>797.0</ele><time>2026-05-02T15:32:42.989Z</time></trkpt><trkpt lat="44.27008418422526" lon="11.002079049207406"><ele>798.0</ele><time>2026-05-02T15:32:43.989Z</time></trkpt><trkpt lat="44.27016540674878" lon="11.002013214473068"><ele>799.0</ele><time>2026-05-02T15:32:44.989Z</time></trkpt><trkpt lat="44.270244522634535" lon="11.001935705759811"><ele>800.0</ele><time>2026-05-02T15:32:45.989Z</time></trkpt><trkpt lat="44.27031904806675" lon="11.00185810853612"><ele>801.0</ele><time>2026-05-02T15:32:46.989Z</time></trkpt><trkpt lat="44.27039599344694" lon="11.001767435594335"><ele>802.0</ele><time>2026-05-02T15:32:47.989Z</time></trkpt><trkpt lat="44.270490413164" lon="11.001711509903847"><ele>802.0</ele><time>2026-05-02T15:32:48.989Z</time></trkpt><trkpt lat="44.270579297087146" lon="11.001667485094325"><ele>802.0</ele><time>2026-05-02T15:32:49.989Z</time></trkpt><trkpt lat="44.27068281013027" lon="11.001675935724514"><ele>802.0</ele><time>2026-05-02T15:32:50.989Z</time></trkpt><trkpt lat="44.27077772655612" lon="11.00171684912686"><ele>802.0</ele><time>2026-05-02T15:32:51.989Z</time></trkpt><trkpt lat="44.27085477718147" lon="11.00176955486031"><ele>802.0</ele><time>2026-05-02T15:32:52.989Z</time></trkpt><trkpt lat="44.270936096637485" lon="11.001861256990317"><ele>799.4000000000001</ele><time>2026-05-02T15:32:53.989Z</time></trkpt><trkpt lat="44.2710191790006" lon="11.001919183699322"><ele>796.8000000000001</ele><time>2026-05-02T15:32:54.989Z</time></trkpt><trkpt lat="44.27110173135904" lon="11.001981232468603"><ele>794.2</ele><time>2026-05-02T15:32:55.989Z</time></trkpt><trkpt lat="44.2711831781816" lon="11.002041111067562"><ele>791.6</ele><time>2026-05-02T15:32:56.989Z</time></trkpt><trkpt lat="44.27127372730491" lon="11.002063281723625"><ele>789.0</ele><time>2026-05-02T15:32:57.989Z</time></trkpt><trkpt lat="44.271355049840196" lon="11.002079755206053"><ele>789.0</ele><time>2026-05-02T15:32:58.989Z</time></trkpt><trkpt lat="44.2714339849581" lon="11.00211701025587"><ele>789.0</ele><time>2026-05-02T15:32:59.989Z</time></trkpt><trkpt lat="44.27152877104107" lon="11.002156983331874"><ele>789.0</ele><time>2026-05-02T15:33:00.989Z</time></trkpt><trkpt lat="44.27159420517901" lon="11.002265252988371"><ele>789.0</ele><time>2026-05-02T15:33:01.989Z</time></trkpt><trkpt lat="44.2716506142394" lon="11.00235988253579"><ele>789.0</ele><time>2026-05-02T15:33:02.989Z</time></trkpt><trkpt lat="44.271701149416444" lon="11.002453010019616"><ele>788.8333333333334</ele><time>2026-05-02T15:33:03.989Z</time></trkpt><trkpt lat="44.271762839769536" lon="11.00254270913499"><ele>788.6666666666667</ele><time>2026-05-02T15:33:04.989Z</time></trkpt><trkpt lat="44.27182835501173" lon="11.002630161028653"><ele>788.5</ele><time>2026-05-02T15:33:05.989Z</time></trkpt><trkpt lat="44.27189966222236" lon="11.002702202960059"><ele>788.3333333333334</ele><time>2026-05-02T15:33:06.989Z</time></trkpt><trkpt lat="44.27197754863624" lon="11.002773099425218"><ele>788.1666666666667</ele><time>2026-05-02T15:33:07.989Z</time></trkpt><trkpt lat="44.27202854022406" lon="11.002846461737503"><ele>788.0</ele><time>2026-05-02T15:33:08.989Z</time></trkpt><trkpt lat="44.272098744829705" lon="11.002916582634695"><ele>788.0</ele><time>2026-05-02T15:33:09.989Z</time></trkpt><trkpt lat="44.27217708257033" lon="11.00299072128679"><ele>788.0</ele><time>2026-05-02T15:33:10.99Z</time></trkpt><trkpt lat="44.272258679263786" lon="11.003059794274257"><ele>788.0</ele><time>2026-05-02T15:33:11.99Z</time></trkpt><trkpt lat="44.27234840394121" lon="11.003113056333076"><ele>788.0</ele><time>2026-05-02T15:33:12.99Z</time></trkpt><trkpt lat="44.27243866156757" lon="11.003171944598687"><ele>788.0</ele><time>2026-05-02T15:33:13.99Z</time></trkpt><trkpt lat="44.27252662498509" lon="11.003242189138435"><ele>786.8</ele><time>2026-05-02T15:33:14.99Z</time></trkpt><trkpt lat="44.27261331177086" lon="11.003307834666138"><ele>785.5999999999999</ele><time>2026-05-02T15:33:15.99Z</time></trkpt><trkpt lat="44.2726985242006" lon="11.003362553972893"><ele>784.4000000000001</ele><time>2026-05-02T15:33:16.99Z</time></trkpt><trkpt lat="44.272776889655084" lon="11.003412442108125"><ele>783.2</ele><time>2026-05-02T15:33:17.99Z</time></trkpt><trkpt lat="44.272857117759955" lon="11.003460676552058"><ele>782.0</ele><time>2026-05-02T15:33:18.99Z</time></trkpt><trkpt lat="44.272954512233" lon="11.003453954201175"><ele>782.0</ele><time>2026-05-02T15:33:19.99Z</time></trkpt><trkpt lat="44.27304796682727" lon="11.003423130701687"><ele>782.0</ele><time>2026-05-02T15:33:20.99Z</time></trkpt><trkpt lat="44.27312306697675" lon="11.003354751443764"><ele>782.0</ele><time>2026-05-02T15:33:21.99Z</time></trkpt><trkpt lat="44.273206523800006" lon="11.003273105621986"><ele>782.0</ele><time>2026-05-02T15:33:22.99Z</time></trkpt><trkpt lat="44.27329923890348" lon="11.003186784011127"><ele>782.0</ele><time>2026-05-02T15:33:23.99Z</time></trkpt><trkpt lat="44.2733853430453" lon="11.003090186175061"><ele>784.4000000000001</ele><time>2026-05-02T15:33:24.99Z</time></trkpt><trkpt lat="44.273475811330115" lon="11.003022103800847"><ele>786.8000000000001</ele><time>2026-05-02T15:33:25.99Z</time></trkpt><trkpt lat="44.27356243638236" lon="11.002935310778597"><ele>789.2</ele><time>2026-05-02T15:33:26.99Z</time></trkpt><trkpt lat="44.27364904439359" lon="11.002849165093902"><ele>791.6</ele><time>2026-05-02T15:33:27.99Z</time></trkpt><trkpt lat="44.27373058290686" lon="11.002771603107089"><ele>794.0</ele><time>2026-05-02T15:33:28.99Z</time></trkpt><trkpt lat="44.27380773803076" lon="11.00274257742337"><ele>794.0</ele><time>2026-05-02T15:33:29.99Z</time></trkpt><trkpt lat="44.27388763966077" lon="11.002743830681531"><ele>794.0</ele><time>2026-05-02T15:33:30.99Z</time></trkpt><trkpt lat="44.27397198798049" lon="11.0028615719176"><ele>794.0</ele><time>2026-05-02T15:33:31.99Z</time></trkpt><trkpt lat="44.274062873021464" lon="11.002870709023817"><ele>794.0</ele><time>2026-05-02T15:33:32.99Z</time></trkpt><trkpt lat="44.27414969799608" lon="11.002885000468078"><ele>794.0</ele><time>2026-05-02T15:33:33.99Z</time></trkpt><trkpt lat="44.27423193987173" lon="11.002913556639971"><ele>793.6</ele><time>2026-05-02T15:33:34.99Z</time></trkpt><trkpt lat="44.274325868167764" lon="11.002926860666072"><ele>793.2</ele><time>2026-05-02T15:33:35.99Z</time></trkpt><trkpt lat="44.27441996701898" lon="11.002945817058949"><ele>792.8000000000001</ele><time>2026-05-02T15:33:36.99Z</time></trkpt><trkpt lat="44.27447499213441" lon="11.003027113531017"><ele>792.4000000000001</ele><time>2026-05-02T15:33:37.99Z</time></trkpt><trkpt lat="44.274491642070565" lon="11.003139916217856"><ele>792.0</ele><time>2026-05-02T15:33:38.99Z</time></trkpt><trkpt lat="44.274442245628876" lon="11.00327459831339"><ele>787.2</ele><time>2026-05-02T15:33:39.99Z</time></trkpt><trkpt lat="44.274422482205246" lon="11.003409628352543"><ele>782.4000000000001</ele><time>2026-05-02T15:33:40.99Z</time></trkpt><trkpt lat="44.27438712731298" lon="11.003541638790082"><ele>777.5999999999999</ele><time>2026-05-02T15:33:41.99Z</time></trkpt><trkpt lat="44.27436735027017" lon="11.003665334723777"><ele>772.8</ele><time>2026-05-02T15:33:42.99Z</time></trkpt><trkpt lat="44.27436965418626" lon="11.00378720251037"><ele>768.0</ele><time>2026-05-02T15:33:43.99Z</time></trkpt><trkpt lat="44.274401625148705" lon="11.00389661271959"><ele>768.0</ele><time>2026-05-02T15:33:44.99Z</time></trkpt><trkpt lat="44.274385352975145" lon="11.004007290573018"><ele>768.0</ele><time>2026-05-02T15:33:45.99Z</time></trkpt><trkpt lat="44.274353588762835" lon="11.004097265510858"><ele>768.0</ele><time>2026-05-02T15:33:46.99Z</time></trkpt><trkpt lat="44.27434516931231" lon="11.004192731291502"><ele>768.0</ele><time>2026-05-02T15:33:47.99Z</time></trkpt><trkpt lat="44.27438093661629" lon="11.004354688144124"><ele>768.0</ele><time>2026-05-02T15:33:49.991Z</time></trkpt><trkpt lat="44.27452549770308" lon="11.004439746565236"><ele>770.0</ele><time>2026-05-02T15:33:51.991Z</time></trkpt><trkpt lat="44.274612369607304" lon="11.00439422388371"><ele>772.0</ele><time>2026-05-02T15:33:52.991Z</time></trkpt><trkpt lat="44.27469710077474" lon="11.004352921729398"><ele>774.0</ele><time>2026-05-02T15:33:53.991Z</time></trkpt><trkpt lat="44.27478883285277" lon="11.004325879428038"><ele>776.0</ele><time>2026-05-02T15:33:54.991Z</time></trkpt><trkpt lat="44.274883251995696" lon="11.004305654707945"><ele>778.0</ele><time>2026-05-02T15:33:55.991Z</time></trkpt><trkpt lat="44.274973264052626" lon="11.004292938816192"><ele>778.0</ele><time>2026-05-02T15:33:56.991Z</time></trkpt><trkpt lat="44.27507040066056" lon="11.004304107331828"><ele>778.0</ele><time>2026-05-02T15:33:57.991Z</time></trkpt><trkpt lat="44.27517071741126" lon="11.004314012805589"><ele>778.0</ele><time>2026-05-02T15:33:58.991Z</time></trkpt><trkpt lat="44.27526884783006" lon="11.00432970465369"><ele>778.0</ele><time>2026-05-02T15:33:59.991Z</time></trkpt><trkpt lat="44.27536050706931" lon="11.004336983704565"><ele>778.0</ele><time>2026-05-02T15:34:00.991Z</time></trkpt><trkpt lat="44.275442034991656" lon="11.004347321446051"><ele>777.9999999999999</ele><time>2026-05-02T15:34:01.991Z</time></trkpt><trkpt lat="44.27550652977087" lon="11.004366842159016"><ele>778.0</ele><time>2026-05-02T15:34:02.991Z</time></trkpt><trkpt lat="44.27560686050951" lon="11.004394584792527"><ele>778.0</ele><time>2026-05-02T15:34:04.99Z</time></trkpt><trkpt lat="44.27567259984252" lon="11.004433753332044"><ele>778.0</ele><time>2026-05-02T15:34:06.99Z</time></trkpt><trkpt lat="44.27575269172702" lon="11.004451649278874"><ele>777.9999999999999</ele><time>2026-05-02T15:34:10.99Z</time></trkpt><trkpt lat="44.27576749804338" lon="11.004602765352743"><ele>778.0</ele><time>2026-05-02T15:34:11.99Z</time></trkpt><trkpt lat="44.27583867511111" lon="11.004672187919933"><ele>778.1666666666666</ele><time>2026-05-02T15:34:13.99Z</time></trkpt><trkpt lat="44.27594324385553" lon="11.00473045916165"><ele>778.3333333333333</ele><time>2026-05-02T15:34:15.99Z</time></trkpt><trkpt lat="44.27600425670823" lon="11.004758735074715"><ele>778.5</ele><time>2026-05-02T15:34:16.989Z</time></trkpt><trkpt lat="44.27612684612606" lon="11.004825652857967"><ele>778.6666666666667</ele><time>2026-05-02T15:34:18.989Z</time></trkpt><trkpt lat="44.276197957451295" lon="11.004849406966734"><ele>778.8333333333334</ele><time>2026-05-02T15:34:19.99Z</time></trkpt><trkpt lat="44.27625796648627" lon="11.004890295437535"><ele>779.0</ele><time>2026-05-02T15:34:20.99Z</time></trkpt><trkpt lat="44.276328801899716" lon="11.004907799965146"><ele>779.0</ele><time>2026-05-02T15:34:21.99Z</time></trkpt><trkpt lat="44.27640246806488" lon="11.00494801954837"><ele>779.0</ele><time>2026-05-02T15:34:22.99Z</time></trkpt><trkpt lat="44.27648910589765" lon="11.00517290669538"><ele>779.0</ele><time>2026-05-02T15:34:23.99Z</time></trkpt><trkpt lat="44.27646661644118" lon="11.005387588544087"><ele>779.0</ele><time>2026-05-02T15:34:24.99Z</time></trkpt><trkpt lat="44.276433721458275" lon="11.005580200868806"><ele>773.0</ele><time>2026-05-02T15:34:25.99Z</time></trkpt><trkpt lat="44.27651334087504" lon="11.005217962592443"><ele>767.0</ele><time>2026-05-02T15:34:26.99Z</time></trkpt><trkpt lat="44.27649339871574" lon="11.005319069139537"><ele>761.0</ele><time>2026-05-02T15:34:27.99Z</time></trkpt><trkpt lat="44.27648137416095" lon="11.00547007455719"><ele>760.6666666666666</ele><time>2026-05-02T15:34:29.99Z</time></trkpt><trkpt lat="44.276434518582406" lon="11.00553496858667"><ele>760.3333333333333</ele><time>2026-05-02T15:34:31.99Z</time></trkpt><trkpt lat="44.27635566829319" lon="11.005536637975876"><ele>760.0</ele><time>2026-05-02T15:34:34.99Z</time></trkpt><trkpt lat="44.276260068857205" lon="11.005564257802826"><ele>759.6666666666666</ele><time>2026-05-02T15:34:37.99Z</time></trkpt><trkpt lat="44.276149439177495" lon="11.00561131015477"><ele>759.3333333333334</ele><time>2026-05-02T15:34:39.99Z</time></trkpt><trkpt lat="44.2760899093472" lon="11.005647955963804"><ele>759.0</ele><time>2026-05-02T15:34:40.99Z</time></trkpt><trkpt lat="44.276025634603634" lon="11.00568375967204"><ele>759.0</ele><time>2026-05-02T15:34:41.99Z</time></trkpt><trkpt lat="44.27595393913478" lon="11.005724641557979"><ele>759.0</ele><time>2026-05-02T15:34:42.99Z</time></trkpt><trkpt lat="44.2758749643875" lon="11.00576899136395"><ele>759.0</ele><time>2026-05-02T15:34:43.99Z</time></trkpt><trkpt lat="44.275785619037656" lon="11.00580096477395"><ele>759.0</ele><time>2026-05-02T15:34:44.99Z</time></trkpt><trkpt lat="44.275696609423896" lon="11.005839587127337"><ele>759.0</ele><time>2026-05-02T15:34:45.99Z</time></trkpt><trkpt lat="44.275607095913905" lon="11.005887864899039"><ele>759.0</ele><time>2026-05-02T15:34:46.99Z</time></trkpt><trkpt lat="44.27551628985959" lon="11.005944594563147"><ele>756.0</ele><time>2026-05-02T15:34:47.99Z</time></trkpt><trkpt lat="44.27542931866251" lon="11.006022729401003"><ele>753.0</ele><time>2026-05-02T15:34:48.99Z</time></trkpt><trkpt lat="44.27535406214739" lon="11.006127287611099"><ele>750.0</ele><time>2026-05-02T15:34:49.99Z</time></trkpt><trkpt lat="44.27528369706173" lon="11.006275672132329"><ele>747.0</ele><time>2026-05-02T15:34:50.99Z</time></trkpt><trkpt lat="44.27521428474295" lon="11.006381264816175"><ele>744.0</ele><time>2026-05-02T15:34:51.99Z</time></trkpt><trkpt lat="44.27514067087372" lon="11.006486453306042"><ele>744.0</ele><time>2026-05-02T15:34:52.99Z</time></trkpt><trkpt lat="44.275067545510694" lon="11.006586310938218"><ele>744.0</ele><time>2026-05-02T15:34:53.99Z</time></trkpt><trkpt lat="44.274992600277585" lon="11.006691996749941"><ele>744.0</ele><time>2026-05-02T15:34:54.99Z</time></trkpt><trkpt lat="44.27490197080061" lon="11.006787154688263"><ele>744.0</ele><time>2026-05-02T15:34:55.99Z</time></trkpt><trkpt lat="44.274808035164384" lon="11.00682974385809"><ele>744.0</ele><time>2026-05-02T15:34:56.99Z</time></trkpt><trkpt lat="44.27472197790135" lon="11.00685304641325"><ele>744.8000000000001</ele><time>2026-05-02T15:34:57.989Z</time></trkpt><trkpt lat="44.274629062945664" lon="11.006813761954541"><ele>745.6</ele><time>2026-05-02T15:34:58.989Z</time></trkpt><trkpt lat="44.27453290724893" lon="11.006768726225154"><ele>746.4</ele><time>2026-05-02T15:34:59.989Z</time></trkpt><trkpt lat="44.274430725028324" lon="11.00672264580196"><ele>747.2</ele><time>2026-05-02T15:35:00.989Z</time></trkpt><trkpt lat="44.27433282143088" lon="11.006671948228245"><ele>748.0</ele><time>2026-05-02T15:35:01.989Z</time></trkpt><trkpt lat="44.27423954174479" lon="11.006615779930485"><ele>745.8</ele><time>2026-05-02T15:35:02.989Z</time></trkpt><trkpt lat="44.274152243100545" lon="11.006578005370764"><ele>743.5999999999999</ele><time>2026-05-02T15:35:03.989Z</time></trkpt><trkpt lat="44.274064675809015" lon="11.00655822593964"><ele>741.4000000000001</ele><time>2026-05-02T15:35:04.989Z</time></trkpt><trkpt lat="44.27397884453288" lon="11.006549758890237"><ele>739.2</ele><time>2026-05-02T15:35:05.989Z</time></trkpt><trkpt lat="44.27388933970934" lon="11.006558358141064"><ele>737.0</ele><time>2026-05-02T15:35:06.989Z</time></trkpt><trkpt lat="44.27379269944043" lon="11.006576114605949"><ele>736.2</ele><time>2026-05-02T15:35:07.989Z</time></trkpt><trkpt lat="44.2736875597304" lon="11.006598297473523"><ele>735.4000000000001</ele><time>2026-05-02T15:35:08.989Z</time></trkpt><trkpt lat="44.27357951291258" lon="11.006615690122537"><ele>734.5999999999999</ele><time>2026-05-02T15:35:09.989Z</time></trkpt><trkpt lat="44.273469691438905" lon="11.006641108825546"><ele>733.8</ele><time>2026-05-02T15:35:10.989Z</time></trkpt><trkpt lat="44.27336291343311" lon="11.00666936802784"><ele>733.0</ele><time>2026-05-02T15:35:11.989Z</time></trkpt><trkpt lat="44.273252337573524" lon="11.006706545205814"><ele>733.8</ele><time>2026-05-02T15:35:12.989Z</time></trkpt><trkpt lat="44.27314853332958" lon="11.006742738685093"><ele>734.5999999999999</ele><time>2026-05-02T15:35:13.989Z</time></trkpt><trkpt lat="44.27304776353827" lon="11.00678976318678"><ele>735.4000000000001</ele><time>2026-05-02T15:35:14.989Z</time></trkpt><trkpt lat="44.27295259269665" lon="11.0068315845494"><ele>736.2</ele><time>2026-05-02T15:35:15.989Z</time></trkpt><trkpt lat="44.272851327792814" lon="11.006869744429391"><ele>737.0</ele><time>2026-05-02T15:35:16.989Z</time></trkpt><trkpt lat="44.27274731080861" lon="11.00690348206311"><ele>737.0</ele><time>2026-05-02T15:35:17.989Z</time></trkpt><trkpt lat="44.272643420024245" lon="11.006950494170372"><ele>737.0</ele><time>2026-05-02T15:35:18.989Z</time></trkpt><trkpt lat="44.272540801202645" lon="11.007002254757479"><ele>737.0</ele><time>2026-05-02T15:35:19.989Z</time></trkpt><trkpt lat="44.27243615490173" lon="11.007043626951132"><ele>737.0</ele><time>2026-05-02T15:35:20.989Z</time></trkpt><trkpt lat="44.2723346237573" lon="11.007087103377799"><ele>737.0</ele><time>2026-05-02T15:35:21.989Z</time></trkpt><trkpt lat="44.27223457609223" lon="11.007132803396292"><ele>735.6</ele><time>2026-05-02T15:35:22.989Z</time></trkpt><trkpt lat="44.2721300345579" lon="11.007175233841783"><ele>734.2</ele><time>2026-05-02T15:35:23.989Z</time></trkpt><trkpt lat="44.27202593206335" lon="11.007221596983772"><ele>732.8</ele><time>2026-05-02T15:35:24.989Z</time></trkpt><trkpt lat="44.27192079283268" lon="11.007264853048603"><ele>731.4</ele><time>2026-05-02T15:35:25.989Z</time></trkpt><trkpt lat="44.271811921437994" lon="11.007298124668544"><ele>730.0</ele><time>2026-05-02T15:35:26.989Z</time></trkpt><trkpt lat="44.27170887986615" lon="11.00735540842452"><ele>730.0</ele><time>2026-05-02T15:35:27.989Z</time></trkpt><trkpt lat="44.27160318280303" lon="11.007410368823347"><ele>730.0</ele><time>2026-05-02T15:35:28.989Z</time></trkpt><trkpt lat="44.27149017484991" lon="11.007447213000514"><ele>730.0</ele><time>2026-05-02T15:35:29.989Z</time></trkpt><trkpt lat="44.27138029476554" lon="11.007487454990217"><ele>730.0</ele><time>2026-05-02T15:35:30.989Z</time></trkpt><trkpt lat="44.271269523058905" lon="11.007513639125394"><ele>732.0</ele><time>2026-05-02T15:35:31.989Z</time></trkpt><trkpt lat="44.27115603391697" lon="11.007517809235397"><ele>734.0</ele><time>2026-05-02T15:35:32.989Z</time></trkpt><trkpt lat="44.2710439318765" lon="11.007505731055403"><ele>736.0</ele><time>2026-05-02T15:35:33.989Z</time></trkpt><trkpt lat="44.270935336401514" lon="11.007498996842502"><ele>738.0</ele><time>2026-05-02T15:35:34.989Z</time></trkpt><trkpt lat="44.27083585397641" lon="11.007534107599792"><ele>740.0</ele><time>2026-05-02T15:35:35.989Z</time></trkpt><trkpt lat="44.27075030173425" lon="11.00761797337335"><ele>740.0</ele><time>2026-05-02T15:35:36.989Z</time></trkpt><trkpt lat="44.270681759697155" lon="11.00774159346173"><ele>740.0</ele><time>2026-05-02T15:35:37.989Z</time></trkpt><trkpt lat="44.270622381662314" lon="11.00787599109255"><ele>740.0</ele><time>2026-05-02T15:35:38.989Z</time></trkpt><trkpt lat="44.270572677687646" lon="11.008008021662146"><ele>740.0</ele><time>2026-05-02T15:35:39.989Z</time></trkpt><trkpt lat="44.27055361294584" lon="11.008154843658012"><ele>740.0</ele><time>2026-05-02T15:35:40.989Z</time></trkpt><trkpt lat="44.27055876517465" lon="11.008304597793495"><ele>738.2</ele><time>2026-05-02T15:35:41.989Z</time></trkpt><trkpt lat="44.27057252438819" lon="11.008458085383248"><ele>736.4</ele><time>2026-05-02T15:35:42.989Z</time></trkpt><trkpt lat="44.27058478116847" lon="11.00860532648293"><ele>734.5999999999999</ele><time>2026-05-02T15:35:43.989Z</time></trkpt><trkpt lat="44.27057976729003" lon="11.008756936373915"><ele>732.8</ele><time>2026-05-02T15:35:44.989Z</time></trkpt><trkpt lat="44.270556107181356" lon="11.008902188175092"><ele>731.0</ele><time>2026-05-02T15:35:45.989Z</time></trkpt><trkpt lat="44.2705110325407" lon="11.009040856325008"><ele>731.8</ele><time>2026-05-02T15:35:46.989Z</time></trkpt><trkpt lat="44.270454863386234" lon="11.009169455475279"><ele>732.5999999999999</ele><time>2026-05-02T15:35:47.989Z</time></trkpt><trkpt lat="44.270393430345" lon="11.009296076706384"><ele>733.4</ele><time>2026-05-02T15:35:48.989Z</time></trkpt><trkpt lat="44.27033595549398" lon="11.009423561750216"><ele>734.2</ele><time>2026-05-02T15:35:49.989Z</time></trkpt><trkpt lat="44.27027774804434" lon="11.009551117611784"><ele>735.0</ele><time>2026-05-02T15:35:50.989Z</time></trkpt><trkpt lat="44.270218969416234" lon="11.009681114124394"><ele>735.0</ele><time>2026-05-02T15:35:51.989Z</time></trkpt><trkpt lat="44.270163422976935" lon="11.009815638212912"><ele>735.0</ele><time>2026-05-02T15:35:52.989Z</time></trkpt><trkpt lat="44.27010661346729" lon="11.009945306369378"><ele>735.0</ele><time>2026-05-02T15:35:53.989Z</time></trkpt><trkpt lat="44.27005266818162" lon="11.010073391164816"><ele>735.0</ele><time>2026-05-02T15:35:54.989Z</time></trkpt><trkpt lat="44.270004181981186" lon="11.010201717694562"><ele>735.0</ele><time>2026-05-02T15:35:55.989Z</time></trkpt><trkpt lat="44.26995161200004" lon="11.010320303223095"><ele>736.4</ele><time>2026-05-02T15:35:56.989Z</time></trkpt><trkpt lat="44.2699023135045" lon="11.01043556197691"><ele>737.8</ele><time>2026-05-02T15:35:57.989Z</time></trkpt><trkpt lat="44.269856887571706" lon="11.010554317282574"><ele>739.2</ele><time>2026-05-02T15:35:58.989Z</time></trkpt><trkpt lat="44.26978167346495" lon="11.010638762400918"><ele>740.6</ele><time>2026-05-02T15:35:59.989Z</time></trkpt><trkpt lat="44.26969183243485" lon="11.010668997450903"><ele>742.0</ele><time>2026-05-02T15:36:00.989Z</time></trkpt><trkpt lat="44.26959006907184" lon="11.010682790655956"><ele>740.2</ele><time>2026-05-02T15:36:01.989Z</time></trkpt><trkpt lat="44.2694908015906" lon="11.010703044762874"><ele>738.4000000000001</ele><time>2026-05-02T15:36:02.989Z</time></trkpt><trkpt lat="44.269392111854835" lon="11.010743037427247"><ele>736.5999999999999</ele><time>2026-05-02T15:36:03.989Z</time></trkpt><trkpt lat="44.2693030345892" lon="11.010812726493839"><ele>734.8</ele><time>2026-05-02T15:36:04.989Z</time></trkpt><trkpt lat="44.269222783236025" lon="11.01091013203277"><ele>733.0</ele><time>2026-05-02T15:36:05.989Z</time></trkpt><trkpt lat="44.26915028827566" lon="11.011016501229385"><ele>733.0</ele><time>2026-05-02T15:36:06.989Z</time></trkpt><trkpt lat="44.26908198784634" lon="11.011127044918652"><ele>733.0</ele><time>2026-05-02T15:36:07.989Z</time></trkpt><trkpt lat="44.26902480047498" lon="11.011238929672487"><ele>733.0</ele><time>2026-05-02T15:36:08.989Z</time></trkpt><trkpt lat="44.26898188424534" lon="11.01135506099204"><ele>733.0</ele><time>2026-05-02T15:36:09.988Z</time></trkpt><trkpt lat="44.26897373300154" lon="11.011482381380231"><ele>733.0</ele><time>2026-05-02T15:36:10.989Z</time></trkpt><trkpt lat="44.26899920505145" lon="11.011603528672488"><ele>734.2</ele><time>2026-05-02T15:36:11.989Z</time></trkpt><trkpt lat="44.26905734318332" lon="11.01170972964263"><ele>735.4</ele><time>2026-05-02T15:36:12.989Z</time></trkpt><trkpt lat="44.26912164012273" lon="11.011805960220476"><ele>736.6</ele><time>2026-05-02T15:36:13.989Z</time></trkpt><trkpt lat="44.2691530916112" lon="11.011923329066972"><ele>737.8000000000001</ele><time>2026-05-02T15:36:14.989Z</time></trkpt><trkpt lat="44.269171604294165" lon="11.012051501773467"><ele>739.0</ele><time>2026-05-02T15:36:15.988Z</time></trkpt><trkpt lat="44.2691413287827" lon="11.012185776768861"><ele>739.0</ele><time>2026-05-02T15:36:16.989Z</time></trkpt><trkpt lat="44.26908235980212" lon="11.012295209626252"><ele>739.0</ele><time>2026-05-02T15:36:17.989Z</time></trkpt><trkpt lat="44.26900204923793" lon="11.01237709756723"><ele>739.0</ele><time>2026-05-02T15:36:18.989Z</time></trkpt><trkpt lat="44.268903185105266" lon="11.012413456876304"><ele>739.0</ele><time>2026-05-02T15:36:19.988Z</time></trkpt><trkpt lat="44.2688009571256" lon="11.012435445909757"><ele>739.0</ele><time>2026-05-02T15:36:20.989Z</time></trkpt><trkpt lat="44.26871632685376" lon="11.012497188452972"><ele>737.8000000000001</ele><time>2026-05-02T15:36:21.989Z</time></trkpt><trkpt lat="44.268644562757686" lon="11.012608815113607"><ele>736.6</ele><time>2026-05-02T15:36:22.989Z</time></trkpt><trkpt lat="44.26858062516625" lon="11.012728095082828"><ele>735.4</ele><time>2026-05-02T15:36:23.989Z</time></trkpt><trkpt lat="44.26851056779274" lon="11.012821470195814"><ele>734.2</ele><time>2026-05-02T15:36:24.989Z</time></trkpt><trkpt lat="44.268451150437166" lon="11.012912337755264"><ele>733.0</ele><time>2026-05-02T15:36:25.989Z</time></trkpt><trkpt lat="44.26840498385219" lon="11.01299734587854"><ele>733.0</ele><time>2026-05-02T15:36:26.989Z</time></trkpt><trkpt lat="44.26836917113273" lon="11.013085222561037"><ele>733.0</ele><time>2026-05-02T15:36:27.989Z</time></trkpt><trkpt lat="44.26833756842471" lon="11.013194061357538"><ele>733.0</ele><time>2026-05-02T15:36:28.989Z</time></trkpt><trkpt lat="44.26831993716641" lon="11.013316765411965"><ele>733.0</ele><time>2026-05-02T15:36:29.989Z</time></trkpt><trkpt lat="44.2683297318828" lon="11.013427359532027"><ele>733.0</ele><time>2026-05-02T15:36:30.989Z</time></trkpt><trkpt lat="44.26836476079882" lon="11.013530628071262"><ele>733.0</ele><time>2026-05-02T15:36:31.989Z</time></trkpt><trkpt lat="44.268411191505166" lon="11.013620924199945"><ele>733.1666666666667</ele><time>2026-05-02T15:36:32.989Z</time></trkpt><trkpt lat="44.26847975177602" lon="11.013700357194608"><ele>733.3333333333334</ele><time>2026-05-02T15:36:33.989Z</time></trkpt><trkpt lat="44.268546551544745" lon="11.013762004007177"><ele>733.5</ele><time>2026-05-02T15:36:34.989Z</time></trkpt><trkpt lat="44.26860083541027" lon="11.01385811590656"><ele>733.6666666666666</ele><time>2026-05-02T15:36:35.989Z</time></trkpt><trkpt lat="44.268653596663924" lon="11.01392524365425"><ele>733.8333333333333</ele><time>2026-05-02T15:36:36.989Z</time></trkpt><trkpt lat="44.26865500644775" lon="11.014021185205369"><ele>734.0</ele><time>2026-05-02T15:36:37.989Z</time></trkpt><trkpt lat="44.2686314526649" lon="11.014107708855901"><ele>734.0</ele><time>2026-05-02T15:36:39.989Z</time></trkpt><trkpt lat="44.26855153402389" lon="11.01415842630672"><ele>734.0</ele><time>2026-05-02T15:36:42.989Z</time></trkpt><trkpt lat="44.26848414163427" lon="11.01403811283812"><ele>734.0</ele><time>2026-05-02T15:36:44.989Z</time></trkpt><trkpt lat="44.26848403282342" lon="11.01394431589485"><ele>734.0</ele><time>2026-05-02T15:36:45.989Z</time></trkpt><trkpt lat="44.26842152951339" lon="11.013791287937174"><ele>734.0</ele><time>2026-05-02T15:36:47.989Z</time></trkpt><trkpt lat="44.268357539296446" lon="11.013729338456276"><ele>734.0</ele><time>2026-05-02T15:36:48.989Z</time></trkpt><trkpt lat="44.26828244964869" lon="11.013680456780966"><ele>734.0</ele><time>2026-05-02T15:36:49.989Z</time></trkpt><trkpt lat="44.26820570111276" lon="11.013634337306414"><ele>734.0</ele><time>2026-05-02T15:36:50.989Z</time></trkpt><trkpt lat="44.26812477998144" lon="11.013586243019429"><ele>734.0</ele><time>2026-05-02T15:36:51.989Z</time></trkpt><trkpt lat="44.2680483123989" lon="11.013521537610849"><ele>734.0</ele><time>2026-05-02T15:36:52.99Z</time></trkpt><trkpt lat="44.26797502168983" lon="11.013454727995105"><ele>734.0</ele><time>2026-05-02T15:36:53.99Z</time></trkpt><trkpt lat="44.26789546876292" lon="11.013402379274664"><ele>731.2</ele><time>2026-05-02T15:36:54.99Z</time></trkpt><trkpt lat="44.26781335125374" lon="11.013374317728088"><ele>728.4000000000001</ele><time>2026-05-02T15:36:55.99Z</time></trkpt><trkpt lat="44.26771059195275" lon="11.01336368365749"><ele>725.6</ele><time>2026-05-02T15:36:56.99Z</time></trkpt><trkpt lat="44.26761533431865" lon="11.013376656033053"><ele>722.8</ele><time>2026-05-02T15:36:57.99Z</time></trkpt><trkpt lat="44.267519535441615" lon="11.013354671564787"><ele>720.0</ele><time>2026-05-02T15:36:58.99Z</time></trkpt><trkpt lat="44.26743572000659" lon="11.013264578734065"><ele>720.0</ele><time>2026-05-02T15:36:59.99Z</time></trkpt><trkpt lat="44.26738150818626" lon="11.013133995479867"><ele>720.0</ele><time>2026-05-02T15:37:00.99Z</time></trkpt><trkpt lat="44.26730529597766" lon="11.013025682207974"><ele>720.0</ele><time>2026-05-02T15:37:01.99Z</time></trkpt><trkpt lat="44.267224895147166" lon="11.012915498260586"><ele>720.0</ele><time>2026-05-02T15:37:02.99Z</time></trkpt><trkpt lat="44.26712535541525" lon="11.012852464440838"><ele>720.0</ele><time>2026-05-02T15:37:03.99Z</time></trkpt><trkpt lat="44.26702450168794" lon="11.012808129372177"><ele>718.2</ele><time>2026-05-02T15:37:04.99Z</time></trkpt><trkpt lat="44.26692215945639" lon="11.012756938064538"><ele>716.4</ele><time>2026-05-02T15:37:05.99Z</time></trkpt><trkpt lat="44.266812982808844" lon="11.012749432197941"><ele>714.5999999999999</ele><time>2026-05-02T15:37:06.99Z</time></trkpt><trkpt lat="44.26671192578212" lon="11.012789091763276"><ele>712.8</ele><time>2026-05-02T15:37:07.99Z</time></trkpt><trkpt lat="44.26662436940404" lon="11.01286104385724"><ele>711.0</ele><time>2026-05-02T15:37:08.99Z</time></trkpt><trkpt lat="44.26653253167804" lon="11.012910842935135"><ele>706.5999999999999</ele><time>2026-05-02T15:37:09.99Z</time></trkpt><trkpt lat="44.26643687855013" lon="11.01292858666749"><ele>702.2</ele><time>2026-05-02T15:37:10.99Z</time></trkpt><trkpt lat="44.2663421035533" lon="11.012872244216306"><ele>697.8</ele><time>2026-05-02T15:37:11.99Z</time></trkpt><trkpt lat="44.26625339296302" lon="11.012816119819604"><ele>693.4000000000001</ele><time>2026-05-02T15:37:12.99Z</time></trkpt><trkpt lat="44.266158761248356" lon="11.012761158174577"><ele>689.0</ele><time>2026-05-02T15:37:13.99Z</time></trkpt><trkpt lat="44.26608669014129" lon="11.012685782066338"><ele>689.0</ele><time>2026-05-02T15:37:14.99Z</time></trkpt><trkpt lat="44.26603856491003" lon="11.012624830122803"><ele>689.0</ele><time>2026-05-02T15:37:15.99Z</time></trkpt><trkpt lat="44.26595832913292" lon="11.012527286327439"><ele>689.0</ele><time>2026-05-02T15:37:17.99Z</time></trkpt><trkpt lat="44.26586611210561" lon="11.012481758136078"><ele>689.0</ele><time>2026-05-02T15:37:19.99Z</time></trkpt><trkpt lat="44.265820799947235" lon="11.012620510723814"><ele>689.0</ele><time>2026-05-02T15:37:20.99Z</time></trkpt><trkpt lat="44.265899228698935" lon="11.01276777178181"><ele>689.0</ele><time>2026-05-02T15:37:22.99Z</time></trkpt><trkpt lat="44.26595344420662" lon="11.012835313755403"><ele>689.0</ele><time>2026-05-02T15:37:23.99Z</time></trkpt><trkpt lat="44.266016116709025" lon="11.01287568283882"><ele>689.0</ele><time>2026-05-02T15:37:24.99Z</time></trkpt><trkpt lat="44.26608059365386" lon="11.012919695637974"><ele>689.0</ele><time>2026-05-02T15:37:25.99Z</time></trkpt><trkpt lat="44.26615496684792" lon="11.012974548103381"><ele>689.0</ele><time>2026-05-02T15:37:26.99Z</time></trkpt><trkpt lat="44.26624425712679" lon="11.013045388848893"><ele>689.0</ele><time>2026-05-02T15:37:27.99Z</time></trkpt><trkpt lat="44.266330225571544" lon="11.01310473183296"><ele>689.0</ele><time>2026-05-02T15:37:28.99Z</time></trkpt><trkpt lat="44.266415118792196" lon="11.013156386579848"><ele>689.0</ele><time>2026-05-02T15:37:29.99Z</time></trkpt><trkpt lat="44.266500001685934" lon="11.013202692612632"><ele>689.0</ele><time>2026-05-02T15:37:30.99Z</time></trkpt><trkpt lat="44.26658085874584" lon="11.01325814369644"><ele>689.0</ele><time>2026-05-02T15:37:31.991Z</time></trkpt><trkpt lat="44.26664180536178" lon="11.013337251832082"><ele>689.0</ele><time>2026-05-02T15:37:32.991Z</time></trkpt><trkpt lat="44.266681108041226" lon="11.013432071496846"><ele>689.0</ele><time>2026-05-02T15:37:33.991Z</time></trkpt><trkpt lat="44.26672563838481" lon="11.013518124819607"><ele>690.3333333333333</ele><time>2026-05-02T15:37:34.991Z</time></trkpt><trkpt lat="44.26677055360199" lon="11.013619375253374"><ele>691.6666666666666</ele><time>2026-05-02T15:37:35.991Z</time></trkpt><trkpt lat="44.26685537667062" lon="11.013672795307631"><ele>693.0</ele><time>2026-05-02T15:37:36.991Z</time></trkpt><trkpt lat="44.26693193242414" lon="11.013691669543757"><ele>694.3333333333334</ele><time>2026-05-02T15:37:37.991Z</time></trkpt><trkpt lat="44.26699411236839" lon="11.01371164126861"><ele>695.6666666666667</ele><time>2026-05-02T15:37:39.991Z</time></trkpt><trkpt lat="44.26706896122675" lon="11.013745908402042"><ele>697.0</ele><time>2026-05-02T15:37:43.991Z</time></trkpt><trkpt lat="44.26703778895384" lon="11.013884115235372"><ele>697.0</ele><time>2026-05-02T15:37:46.991Z</time></trkpt><trkpt lat="44.26697297175929" lon="11.01388123116467"><ele>697.0</ele><time>2026-05-02T15:37:47.991Z</time></trkpt><trkpt lat="44.266903801689445" lon="11.013858054460277"><ele>697.0</ele><time>2026-05-02T15:37:48.991Z</time></trkpt><trkpt lat="44.26683682779188" lon="11.013836728967037"><ele>697.0</ele><time>2026-05-02T15:37:49.991Z</time></trkpt><trkpt lat="44.266752593278326" lon="11.013825216596473"><ele>697.0</ele><time>2026-05-02T15:37:50.991Z</time></trkpt><trkpt lat="44.26667074996069" lon="11.013812251687606"><ele>697.0</ele><time>2026-05-02T15:37:51.991Z</time></trkpt><trkpt lat="44.26657353919236" lon="11.013798823079854"><ele>697.0</ele><time>2026-05-02T15:37:52.991Z</time></trkpt><trkpt lat="44.26648087875793" lon="11.013767535569098"><ele>697.0</ele><time>2026-05-02T15:37:53.991Z</time></trkpt><trkpt lat="44.26638026450905" lon="11.013731432123437"><ele>697.0</ele><time>2026-05-02T15:37:54.991Z</time></trkpt><trkpt lat="44.266278177211596" lon="11.013692087990004"><ele>697.0</ele><time>2026-05-02T15:37:55.991Z</time></trkpt><trkpt lat="44.266172501429836" lon="11.013654003356697"><ele>697.0</ele><time>2026-05-02T15:37:56.991Z</time></trkpt><trkpt lat="44.266062564961686" lon="11.013619499266559"><ele>694.2</ele><time>2026-05-02T15:37:57.991Z</time></trkpt><trkpt lat="44.26596723603368" lon="11.013588486235554"><ele>691.4000000000001</ele><time>2026-05-02T15:37:58.991Z</time></trkpt><trkpt lat="44.265870529287426" lon="11.013556198753154"><ele>688.5999999999999</ele><time>2026-05-02T15:37:59.991Z</time></trkpt><trkpt lat="44.26576390337598" lon="11.013545005953173"><ele>685.8</ele><time>2026-05-02T15:38:00.991Z</time></trkpt><trkpt lat="44.26566748692351" lon="11.013553667743928"><ele>683.0</ele><time>2026-05-02T15:38:01.991Z</time></trkpt><trkpt lat="44.265590444239564" lon="11.013580042681804"><ele>681.1666666666666</ele><time>2026-05-02T15:38:02.991Z</time></trkpt><trkpt lat="44.26552414952985" lon="11.013642661868046"><ele>679.3333333333333</ele><time>2026-05-02T15:38:03.991Z</time></trkpt><trkpt lat="44.265481650053886" lon="11.01374495086335"><ele>677.5</ele><time>2026-05-02T15:38:04.991Z</time></trkpt><trkpt lat="44.265478958731634" lon="11.013877530712323"><ele>675.6666666666666</ele><time>2026-05-02T15:38:05.991Z</time></trkpt><trkpt lat="44.26551502618114" lon="11.013998380043898"><ele>673.8333333333334</ele><time>2026-05-02T15:38:06.991Z</time></trkpt><trkpt lat="44.26553659106976" lon="11.014103224394265"><ele>672.0</ele><time>2026-05-02T15:38:07.991Z</time></trkpt><trkpt lat="44.26552057192165" lon="11.014206170281224"><ele>672.0</ele><time>2026-05-02T15:38:08.991Z</time></trkpt><trkpt lat="44.26535848385469" lon="11.014241981415534"><ele>672.0</ele><time>2026-05-02T15:38:10.992Z</time></trkpt><trkpt lat="44.26527194097904" lon="11.014275773528832"><ele>672.0</ele><time>2026-05-02T15:38:11.992Z</time></trkpt><trkpt lat="44.26519088770199" lon="11.014285956191106"><ele>672.0</ele><time>2026-05-02T15:38:12.992Z</time></trkpt><trkpt lat="44.26510715005636" lon="11.014278370410533"><ele>672.0</ele><time>2026-05-02T15:38:13.992Z</time></trkpt><trkpt lat="44.2650216135984" lon="11.014224597239867"><ele>670.5</ele><time>2026-05-02T15:38:14.992Z</time></trkpt><trkpt lat="44.26494644935258" lon="11.014139249430972"><ele>669.0</ele><time>2026-05-02T15:38:15.99Z</time></trkpt><trkpt lat="44.264895234815796" lon="11.014039608022953"><ele>667.5</ele><time>2026-05-02T15:38:16.991Z</time></trkpt><trkpt lat="44.26483510806282" lon="11.013977865632093"><ele>666.0</ele><time>2026-05-02T15:38:17.991Z</time></trkpt><trkpt lat="44.264777362401105" lon="11.01393477397322"><ele>664.5</ele><time>2026-05-02T15:38:18.99Z</time></trkpt><trkpt lat="44.264707513589634" lon="11.013891786596732"><ele>663.0</ele><time>2026-05-02T15:38:19.991Z</time></trkpt><trkpt lat="44.26462091989992" lon="11.013865610622192"><ele>662.0</ele><time>2026-05-02T15:38:20.991Z</time></trkpt><trkpt lat="44.264528826422264" lon="11.013833545811153"><ele>661.0</ele><time>2026-05-02T15:38:21.99Z</time></trkpt><trkpt lat="44.264441971554696" lon="11.013800415949786"><ele>660.0</ele><time>2026-05-02T15:38:22.991Z</time></trkpt><trkpt lat="44.264364436404044" lon="11.013797465220797"><ele>659.0</ele><time>2026-05-02T15:38:23.991Z</time></trkpt><trkpt lat="44.26429643794412" lon="11.013836291981312"><ele>658.0</ele><time>2026-05-02T15:38:24.991Z</time></trkpt><trkpt lat="44.26422239488768" lon="11.013917815399191"><ele>657.0</ele><time>2026-05-02T15:38:25.991Z</time></trkpt><trkpt lat="44.26414514561112" lon="11.01401941762"><ele>657.0</ele><time>2026-05-02T15:38:26.991Z</time></trkpt><trkpt lat="44.2640692063598" lon="11.014094239825823"><ele>657.0</ele><time>2026-05-02T15:38:27.99Z</time></trkpt><trkpt lat="44.26399201252558" lon="11.014160306060903"><ele>657.0</ele><time>2026-05-02T15:38:28.991Z</time></trkpt><trkpt lat="44.263902612393125" lon="11.014204890557151"><ele>657.0</ele><time>2026-05-02T15:38:29.991Z</time></trkpt><trkpt lat="44.26380351338126" lon="11.014195856261695"><ele>657.0</ele><time>2026-05-02T15:38:30.991Z</time></trkpt><trkpt lat="44.26370877867852" lon="11.01417623553039"><ele>657.4000000000001</ele><time>2026-05-02T15:38:31.991Z</time></trkpt><trkpt lat="44.26361689813626" lon="11.014153606134295"><ele>657.8000000000001</ele><time>2026-05-02T15:38:32.991Z</time></trkpt><trkpt lat="44.2635220260364" lon="11.014156928102452"><ele>658.2</ele><time>2026-05-02T15:38:33.991Z</time></trkpt><trkpt lat="44.26343041910175" lon="11.014181169690096"><ele>658.6</ele><time>2026-05-02T15:38:34.991Z</time></trkpt><trkpt lat="44.26333740819294" lon="11.014222019799243"><ele>659.0</ele><time>2026-05-02T15:38:35.991Z</time></trkpt><trkpt lat="44.263237283263706" lon="11.014273601846705"><ele>659.0</ele><time>2026-05-02T15:38:36.991Z</time></trkpt><trkpt lat="44.26313540770133" lon="11.014305257490571"><ele>659.0</ele><time>2026-05-02T15:38:37.991Z</time></trkpt><trkpt lat="44.26302248440649" lon="11.014311913518325"><ele>659.0</ele><time>2026-05-02T15:38:38.991Z</time></trkpt><trkpt lat="44.26291426267741" lon="11.014296646506278"><ele>659.0</ele><time>2026-05-02T15:38:39.991Z</time></trkpt><trkpt lat="44.2628073803135" lon="11.01425760515584"><ele>659.0</ele><time>2026-05-02T15:38:40.991Z</time></trkpt><trkpt lat="44.26271100667819" lon="11.014210240727888"><ele>658.2</ele><time>2026-05-02T15:38:41.991Z</time></trkpt><trkpt lat="44.26261033516029" lon="11.014172020443926"><ele>657.4000000000001</ele><time>2026-05-02T15:38:42.991Z</time></trkpt><trkpt lat="44.26251777687592" lon="11.01413653957548"><ele>656.6</ele><time>2026-05-02T15:38:43.991Z</time></trkpt><trkpt lat="44.26242157199402" lon="11.014124100053547"><ele>655.8</ele><time>2026-05-02T15:38:44.991Z</time></trkpt><trkpt lat="44.262337153996754" lon="11.014140741584956"><ele>655.0</ele><time>2026-05-02T15:38:45.991Z</time></trkpt><trkpt lat="44.26226669409898" lon="11.014207093509796"><ele>653.2</ele><time>2026-05-02T15:38:46.991Z</time></trkpt><trkpt lat="44.26219719592844" lon="11.01430584113211"><ele>651.4</ele><time>2026-05-02T15:38:47.991Z</time></trkpt><trkpt lat="44.26214219009247" lon="11.014411452098118"><ele>649.5999999999999</ele><time>2026-05-02T15:38:48.991Z</time></trkpt><trkpt lat="44.26209163826517" lon="11.01453632102505"><ele>647.8</ele><time>2026-05-02T15:38:49.991Z</time></trkpt><trkpt lat="44.26203484589351" lon="11.01465849114394"><ele>646.0</ele><time>2026-05-02T15:38:50.991Z</time></trkpt><trkpt lat="44.26195378395776" lon="11.014734943740667"><ele>646.0</ele><time>2026-05-02T15:38:51.991Z</time></trkpt><trkpt lat="44.26186245309475" lon="11.014807505268724"><ele>646.0</ele><time>2026-05-02T15:38:52.991Z</time></trkpt><trkpt lat="44.26176243019617" lon="11.01485720837967"><ele>646.0</ele><time>2026-05-02T15:38:53.991Z</time></trkpt><trkpt lat="44.261660481427384" lon="11.014899364878069"><ele>646.0</ele><time>2026-05-02T15:38:54.991Z</time></trkpt><trkpt lat="44.261557668019705" lon="11.014930080189293"><ele>646.0</ele><time>2026-05-02T15:38:55.991Z</time></trkpt><trkpt lat="44.26145684499104" lon="11.014948272989551"><ele>645.0</ele><time>2026-05-02T15:38:56.991Z</time></trkpt><trkpt lat="44.261352562993864" lon="11.014957819218377"><ele>644.0</ele><time>2026-05-02T15:38:57.991Z</time></trkpt><trkpt lat="44.26124649704983" lon="11.0149679463273"><ele>643.0</ele><time>2026-05-02T15:38:58.991Z</time></trkpt><trkpt lat="44.26114805784923" lon="11.014986932006385"><ele>642.0</ele><time>2026-05-02T15:38:59.991Z</time></trkpt><trkpt lat="44.27453290724893" lon="11.006768726225154"><ele>661.0</ele><time>2026-05-02T15:34:59.989Z</time></trkpt><trkpt lat="44.274430725028324" lon="11.00672264580196"><ele>680.0</ele><time>2026-05-02T15:35:00.989Z</time></trkpt><trkpt lat="44.27433282143088" lon="11.006671948228245"><ele>699.0</ele><time>2026-05-02T15:35:01.989Z</time></trkpt><trkpt lat="44.27423954174479" lon="11.006615779930485"><ele>718.0</ele><time>2026-05-02T15:35:02.989Z</time></trkpt><trkpt lat="44.274152243100545" lon="11.006578005370764"><ele>737.0</ele><time>2026-05-02T15:35:03.989Z</time></trkpt><trkpt lat="44.274064675809015" lon="11.00655822593964"><ele>737.0</ele><time>2026-05-02T15:35:04.989Z</time></trkpt><trkpt lat="44.27397884453288" lon="11.006549758890237"><ele>737.0</ele><time>2026-05-02T15:35:05.989Z</time></trkpt><trkpt lat="44.27388933970934" lon="11.006558358141064"><ele>737.0</ele><time>2026-05-02T15:35:06.989Z</time></trkpt><trkpt lat="44.27379269944043" lon="11.006576114605949"><ele>737.0</ele><time>2026-05-02T15:35:07.989Z</time></trkpt><trkpt lat="44.2736875597304" lon="11.006598297473523"><ele>737.0</ele><time>2026-05-02T15:35:08.989Z</time></trkpt><trkpt lat="44.27357951291258" lon="11.006615690122537"><ele>737.0</ele><time>2026-05-02T15:35:09.989Z</time></trkpt><trkpt lat="44.273469691438905" lon="11.006641108825546"><ele>737.0</ele><time>2026-05-02T15:35:10.989Z</time></trkpt><trkpt lat="44.27336291343311" lon="11.00666936802784"><ele>737.0</ele><time>2026-05-02T15:35:11.989Z</time></trkpt><trkpt lat="44.273252337573524" lon="11.006706545205814"><ele>737.0</ele><time>2026-05-02T15:35:12.989Z</time></trkpt><trkpt lat="44.27314853332958" lon="11.006742738685093"><ele>737.0</ele><time>2026-05-02T15:35:13.989Z</time></trkpt><trkpt lat="44.27304776353827" lon="11.00678976318678"><ele>737.0</ele><time>2026-05-02T15:35:14.989Z</time></trkpt><trkpt lat="44.27295259269665" lon="11.0068315845494"><ele>737.0</ele><time>2026-05-02T15:35:15.989Z</time></trkpt><trkpt lat="44.272851327792814" lon="11.006869744429391"><ele>737.0</ele><time>2026-05-02T15:35:16.989Z</time></trkpt><trkpt lat="44.27274731080861" lon="11.00690348206311"><ele>737.0</ele><time>2026-05-02T15:35:17.989Z</time></trkpt><trkpt lat="44.272643420024245" lon="11.006950494170372"><ele>737.0</ele><time>2026-05-02T15:35:18.989Z</time></trkpt><trkpt lat="44.272540801202645" lon="11.007002254757479"><ele>737.0</ele><time>2026-05-02T15:35:19.989Z</time></trkpt><trkpt lat="44.27243615490173" lon="11.007043626951132"><ele>737.0</ele><time>2026-05-02T15:35:20.989Z</time></trkpt><trkpt lat="44.2723346237573" lon="11.007087103377799"><ele>737.0</ele><time>2026-05-02T15:35:21.989Z</time></trkpt><trkpt lat="44.27223457609223" lon="11.007132803396292"><ele>737.0</ele><time>2026-05-02T15:35:22.989Z</time></trkpt><trkpt lat="44.2721300345579" lon="11.007175233841783"><ele>737.0</ele><time>2026-05-02T15:35:23.989Z</time></trkpt><trkpt lat="44.27202593206335" lon="11.007221596983772"><ele>735.6</ele><time>2026-05-02T15:35:24.989Z</time></trkpt><trkpt lat="44.27192079283268" lon="11.007264853048603"><ele>734.2</ele><time>2026-05-02T15:35:25.989Z</time></trkpt><trkpt lat="44.271811921437994" lon="11.007298124668544"><ele>732.8</ele><time>2026-05-02T15:35:26.989Z</time></trkpt><trkpt lat="44.27170887986615" lon="11.00735540842452"><ele>731.4</ele><time>2026-05-02T15:35:27.989Z</time></trkpt><trkpt lat="44.27160318280303" lon="11.007410368823347"><ele>730.0</ele><time>2026-05-02T15:35:28.989Z</time></trkpt><trkpt lat="44.27149017484991" lon="11.007447213000514"><ele>728.75</ele><time>2026-05-02T15:35:29.989Z</time></trkpt><trkpt lat="44.27138029476554" lon="11.007487454990217"><ele>727.5</ele><time>2026-05-02T15:35:30.989Z</time></trkpt><trkpt lat="44.271269523058905" lon="11.007513639125394"><ele>726.25</ele><time>2026-05-02T15:35:31.989Z</time></trkpt><trkpt lat="44.27115603391697" lon="11.007517809235397"><ele>725.0</ele><time>2026-05-02T15:35:32.989Z</time></trkpt><trkpt lat="44.2710439318765" lon="11.007505731055403"><ele>728.0</ele><time>2026-05-02T15:35:33.989Z</time></trkpt><trkpt lat="44.270935336401514" lon="11.007498996842502"><ele>731.0</ele><time>2026-05-02T15:35:34.989Z</time></trkpt><trkpt lat="44.27083585397641" lon="11.007534107599792"><ele>734.0</ele><time>2026-05-02T15:35:35.989Z</time></trkpt><trkpt lat="44.27075030173425" lon="11.00761797337335"><ele>737.0</ele><time>2026-05-02T15:35:36.989Z</time></trkpt><trkpt lat="44.270681759697155" lon="11.00774159346173"><ele>740.0</ele><time>2026-05-02T15:35:37.989Z</time></trkpt><trkpt lat="44.270622381662314" lon="11.00787599109255"><ele>738.2</ele><time>2026-05-02T15:35:38.989Z</time></trkpt><trkpt lat="44.270572677687646" lon="11.008008021662146"><ele>736.4</ele><time>2026-05-02T15:35:39.989Z</time></trkpt><trkpt lat="44.27055361294584" lon="11.008154843658012"><ele>734.5999999999999</ele><time>2026-05-02T15:35:40.989Z</time></trkpt><trkpt lat="44.27055876517465" lon="11.008304597793495"><ele>732.8</ele><time>2026-05-02T15:35:41.989Z</time></trkpt><trkpt lat="44.27057252438819" lon="11.008458085383248"><ele>731.0</ele><time>2026-05-02T15:35:42.989Z</time></trkpt><trkpt lat="44.27058478116847" lon="11.00860532648293"><ele>731.0</ele><time>2026-05-02T15:35:43.989Z</time></trkpt><trkpt lat="44.27057976729003" lon="11.008756936373915"><ele>731.0</ele><time>2026-05-02T15:35:44.989Z</time></trkpt><trkpt lat="44.270556107181356" lon="11.008902188175092"><ele>731.0</ele><time>2026-05-02T15:35:45.989Z</time></trkpt><trkpt lat="44.2705110325407" lon="11.009040856325008"><ele>731.0</ele><time>2026-05-02T15:35:46.989Z</time></trkpt><trkpt lat="44.270454863386234" lon="11.009169455475279"><ele>731.0</ele><time>2026-05-02T15:35:47.989Z</time></trkpt><trkpt lat="44.270393430345" lon="11.009296076706384"><ele>731.8</ele><time>2026-05-02T15:35:48.989Z</time></trkpt><trkpt lat="44.27033595549398" lon="11.009423561750216"><ele>732.5999999999999</ele><time>2026-05-02T15:35:49.989Z</time></trkpt><trkpt lat="44.27027774804434" lon="11.009551117611784"><ele>733.4</ele><time>2026-05-02T15:35:50.989Z</time></trkpt><trkpt lat="44.270218969416234" lon="11.009681114124394"><ele>734.2</ele><time>2026-05-02T15:35:51.989Z</time></trkpt><trkpt lat="44.270163422976935" lon="11.009815638212912"><ele>735.0</ele><time>2026-05-02T15:35:52.989Z</time></trkpt><trkpt lat="44.27010661346729" lon="11.009945306369378"><ele>736.4</ele><time>2026-05-02T15:35:53.989Z</time></trkpt><trkpt lat="44.27005266818162" lon="11.010073391164816"><ele>737.8</ele><time>2026-05-02T15:35:54.989Z</time></trkpt><trkpt lat="44.270004181981186" lon="11.010201717694562"><ele>739.2</ele><time>2026-05-02T15:35:55.989Z</time></trkpt><trkpt lat="44.26995161200004" lon="11.010320303223095"><ele>740.6</ele><time>2026-05-02T15:35:56.989Z</time></trkpt><trkpt lat="44.2699023135045" lon="11.01043556197691"><ele>742.0</ele><time>2026-05-02T15:35:57.989Z</time></trkpt><trkpt lat="44.269856887571706" lon="11.010554317282574"><ele>742.0</ele><time>2026-05-02T15:35:58.989Z</time></trkpt><trkpt lat="44.26978167346495" lon="11.010638762400918"><ele>742.0</ele><time>2026-05-02T15:35:59.989Z</time></trkpt><trkpt lat="44.26969183243485" lon="11.010668997450903"><ele>742.0</ele><time>2026-05-02T15:36:00.989Z</time></trkpt><trkpt lat="44.26959006907184" lon="11.010682790655956"><ele>742.0</ele><time>2026-05-02T15:36:01.989Z</time></trkpt><trkpt lat="44.2694908015906" lon="11.010703044762874"><ele>742.0</ele><time>2026-05-02T15:36:02.989Z</time></trkpt><trkpt lat="44.269392111854835" lon="11.010743037427247"><ele>740.2</ele><time>2026-05-02T15:36:03.989Z</time></trkpt><trkpt lat="44.2693030345892" lon="11.010812726493839"><ele>738.4000000000001</ele><time>2026-05-02T15:36:04.989Z</time></trkpt><trkpt lat="44.269222783236025" lon="11.01091013203277"><ele>736.5999999999999</ele><time>2026-05-02T15:36:05.989Z</time></trkpt><trkpt lat="44.26915028827566" lon="11.011016501229385"><ele>734.8</ele><time>2026-05-02T15:36:06.989Z</time></trkpt><trkpt lat="44.26908198784634" lon="11.011127044918652"><ele>733.0</ele><time>2026-05-02T15:36:07.989Z</time></trkpt><trkpt lat="44.26902480047498" lon="11.011238929672487"><ele>733.0</ele><time>2026-05-02T15:36:08.989Z</time></trkpt><trkpt lat="44.26898188424534" lon="11.01135506099204"><ele>733.0</ele><time>2026-05-02T15:36:09.988Z</time></trkpt><trkpt lat="44.26897373300154" lon="11.011482381380231"><ele>733.0</ele><time>2026-05-02T15:36:10.989Z</time></trkpt><trkpt lat="44.26899920505145" lon="11.011603528672488"><ele>733.0</ele><time>2026-05-02T15:36:11.989Z</time></trkpt><trkpt lat="44.26905734318332" lon="11.01170972964263"><ele>733.0</ele><time>2026-05-02T15:36:12.989Z</time></trkpt><trkpt lat="44.26912164012273" lon="11.011805960220476"><ele>734.2</ele><time>2026-05-02T15:36:13.989Z</time></trkpt><trkpt lat="44.2691530916112" lon="11.011923329066972"><ele>735.4</ele><time>2026-05-02T15:36:14.989Z</time></trkpt><trkpt lat="44.269171604294165" lon="11.012051501773467"><ele>736.6</ele><time>2026-05-02T15:36:15.988Z</time></trkpt><trkpt lat="44.2691413287827" lon="11.012185776768861"><ele>737.8000000000001</ele><time>2026-05-02T15:36:16.989Z</time></trkpt><trkpt lat="44.26908235980212" lon="11.012295209626252"><ele>739.0</ele><time>2026-05-02T15:36:17.989Z</time></trkpt><trkpt lat="44.26900204923793" lon="11.01237709756723"><ele>737.8000000000001</ele><time>2026-05-02T15:36:18.989Z</time></trkpt><trkpt lat="44.268903185105266" lon="11.012413456876304"><ele>736.6</ele><time>2026-05-02T15:36:19.988Z</time></trkpt><trkpt lat="44.2688009571256" lon="11.012435445909757"><ele>735.4</ele><time>2026-05-02T15:36:20.989Z</time></trkpt><trkpt lat="44.26871632685376" lon="11.012497188452972"><ele>734.2</ele><time>2026-05-02T15:36:21.989Z</time></trkpt><trkpt lat="44.268644562757686" lon="11.012608815113607"><ele>733.0</ele><time>2026-05-02T15:36:22.989Z</time></trkpt><trkpt lat="44.26858062516625" lon="11.012728095082828"><ele>733.0</ele><time>2026-05-02T15:36:23.989Z</time></trkpt><trkpt lat="44.26851056779274" lon="11.012821470195814"><ele>733.0</ele><time>2026-05-02T15:36:24.989Z</time></trkpt><trkpt lat="44.268451150437166" lon="11.012912337755264"><ele>733.0</ele><time>2026-05-02T15:36:25.989Z</time></trkpt><trkpt lat="44.26840498385219" lon="11.01299734587854"><ele>733.0</ele><time>2026-05-02T15:36:26.989Z</time></trkpt><trkpt lat="44.26836917113273" lon="11.013085222561037"><ele>733.0</ele><time>2026-05-02T15:36:27.989Z</time></trkpt><trkpt lat="44.26833756842471" lon="11.013194061357538"><ele>733.0</ele><time>2026-05-02T15:36:28.989Z</time></trkpt><trkpt lat="44.26831993716641" lon="11.013316765411965"><ele>733.1666666666667</ele><time>2026-05-02T15:36:29.989Z</time></trkpt><trkpt lat="44.2683297318828" lon="11.013427359532027"><ele>733.3333333333334</ele><time>2026-05-02T15:36:30.989Z</time></trkpt><trkpt lat="44.26836476079882" lon="11.013530628071262"><ele>733.5</ele><time>2026-05-02T15:36:31.989Z</time></trkpt><trkpt lat="44.268411191505166" lon="11.013620924199945"><ele>733.6666666666666</ele><time>2026-05-02T15:36:32.989Z</time></trkpt><trkpt lat="44.26847975177602" lon="11.013700357194608"><ele>733.8333333333333</ele><time>2026-05-02T15:36:33.989Z</time></trkpt><trkpt lat="44.268546551544745" lon="11.013762004007177"><ele>734.0</ele><time>2026-05-02T15:36:34.989Z</time></trkpt><trkpt lat="44.26860083541027" lon="11.01385811590656"><ele>734.0</ele><time>2026-05-02T15:36:35.989Z</time></trkpt><trkpt lat="44.268653596663924" lon="11.01392524365425"><ele>734.0</ele><time>2026-05-02T15:36:36.989Z</time></trkpt><trkpt lat="44.26865500644775" lon="11.014021185205369"><ele>734.0</ele><time>2026-05-02T15:36:37.989Z</time></trkpt><trkpt lat="44.2686314526649" lon="11.014107708855901"><ele>734.0</ele><time>2026-05-02T15:36:39.989Z</time></trkpt><trkpt lat="44.26855153402389" lon="11.01415842630672"><ele>734.0</ele><time>2026-05-02T15:36:42.989Z</time></trkpt><trkpt lat="44.26848414163427" lon="11.01403811283812"><ele>734.0</ele><time>2026-05-02T15:36:44.989Z</time></trkpt><trkpt lat="44.26848403282342" lon="11.01394431589485"><ele>734.0</ele><time>2026-05-02T15:36:45.989Z</time></trkpt><trkpt lat="44.26842152951339" lon="11.013791287937174"><ele>734.0</ele><time>2026-05-02T15:36:47.989Z</time></trkpt><trkpt lat="44.268357539296446" lon="11.013729338456276"><ele>734.0</ele><time>2026-05-02T15:36:48.989Z</time></trkpt><trkpt lat="44.26828244964869" lon="11.013680456780966"><ele>734.0</ele><time>2026-05-02T15:36:49.989Z</time></trkpt><trkpt lat="44.26820570111276" lon="11.013634337306414"><ele>734.0</ele><time>2026-05-02T15:36:50.989Z</time></trkpt><trkpt lat="44.26812477998144" lon="11.013586243019429"><ele>730.4000000000001</ele><time>2026-05-02T15:36:51.989Z</time></trkpt><trkpt lat="44.2680483123989" lon="11.013521537610849"><ele>726.8</ele><time>2026-05-02T15:36:52.99Z</time></trkpt><trkpt lat="44.26797502168983" lon="11.013454727995105"><ele>723.2</ele><time>2026-05-02T15:36:53.99Z</time></trkpt><trkpt lat="44.26789546876292" lon="11.013402379274664"><ele>719.5999999999999</ele><time>2026-05-02T15:36:54.99Z</time></trkpt><trkpt lat="44.26781335125374" lon="11.013374317728088"><ele>716.0</ele><time>2026-05-02T15:36:55.99Z</time></trkpt><trkpt lat="44.26771059195275" lon="11.01336368365749"><ele>716.0</ele><time>2026-05-02T15:36:56.99Z</time></trkpt><trkpt lat="44.26761533431865" lon="11.013376656033053"><ele>716.0</ele><time>2026-05-02T15:36:57.99Z</time></trkpt><trkpt lat="44.267519535441615" lon="11.013354671564787"><ele>716.0</ele><time>2026-05-02T15:36:58.99Z</time></trkpt><trkpt lat="44.26743572000659" lon="11.013264578734065"><ele>716.0</ele><time>2026-05-02T15:36:59.99Z</time></trkpt><trkpt lat="44.26738150818626" lon="11.013133995479867"><ele>716.0</ele><time>2026-05-02T15:37:00.99Z</time></trkpt><trkpt lat="44.26730529597766" lon="11.013025682207974"><ele>715.0</ele><time>2026-05-02T15:37:01.99Z</time></trkpt><trkpt lat="44.267224895147166" lon="11.012915498260586"><ele>714.0</ele><time>2026-05-02T15:37:02.99Z</time></trkpt><trkpt lat="44.26712535541525" lon="11.012852464440838"><ele>713.0</ele><time>2026-05-02T15:37:03.99Z</time></trkpt><trkpt lat="44.26702450168794" lon="11.012808129372177"><ele>712.0</ele><time>2026-05-02T15:37:04.99Z</time></trkpt><trkpt lat="44.26692215945639" lon="11.012756938064538"><ele>711.0</ele><time>2026-05-02T15:37:05.99Z</time></trkpt><trkpt lat="44.266812982808844" lon="11.012749432197941"><ele>711.0</ele><time>2026-05-02T15:37:06.99Z</time></trkpt><trkpt lat="44.26671192578212" lon="11.012789091763276"><ele>711.0</ele><time>2026-05-02T15:37:07.99Z</time></trkpt><trkpt lat="44.26662436940404" lon="11.01286104385724"><ele>711.0</ele><time>2026-05-02T15:37:08.99Z</time></trkpt><trkpt lat="44.26653253167804" lon="11.012910842935135"><ele>711.0</ele><time>2026-05-02T15:37:09.99Z</time></trkpt><trkpt lat="44.26643687855013" lon="11.01292858666749"><ele>711.0</ele><time>2026-05-02T15:37:10.99Z</time></trkpt><trkpt lat="44.2663421035533" lon="11.012872244216306"><ele>706.5999999999999</ele><time>2026-05-02T15:37:11.99Z</time></trkpt><trkpt lat="44.26625339296302" lon="11.012816119819604"><ele>702.2</ele><time>2026-05-02T15:37:12.99Z</time></trkpt><trkpt lat="44.266158761248356" lon="11.012761158174577"><ele>697.8</ele><time>2026-05-02T15:37:13.99Z</time></trkpt><trkpt lat="44.26608669014129" lon="11.012685782066338"><ele>693.4000000000001</ele><time>2026-05-02T15:37:14.99Z</time></trkpt><trkpt lat="44.26603856491003" lon="11.012624830122803"><ele>689.0</ele><time>2026-05-02T15:37:15.99Z</time></trkpt><trkpt lat="44.26595832913292" lon="11.012527286327439"><ele>689.0</ele><time>2026-05-02T15:37:17.99Z</time></trkpt><trkpt lat="44.26586611210561" lon="11.012481758136078"><ele>689.0</ele><time>2026-05-02T15:37:19.99Z</time></trkpt><trkpt lat="44.265820799947235" lon="11.012620510723814"><ele>689.0</ele><time>2026-05-02T15:37:20.99Z</time></trkpt><trkpt lat="44.265899228698935" lon="11.01276777178181"><ele>689.0</ele><time>2026-05-02T15:37:22.99Z</time></trkpt><trkpt lat="44.26595344420662" lon="11.012835313755403"><ele>689.0</ele><time>2026-05-02T15:37:23.99Z</time></trkpt><trkpt lat="44.266016116709025" lon="11.01287568283882"><ele>689.0</ele><time>2026-05-02T15:37:24.99Z</time></trkpt><trkpt lat="44.26608059365386" lon="11.012919695637974"><ele>689.0</ele><time>2026-05-02T15:37:25.99Z</time></trkpt><trkpt lat="44.26615496684792" lon="11.012974548103381"><ele>689.0</ele><time>2026-05-02T15:37:26.99Z</time></trkpt><trkpt lat="44.26624425712679" lon="11.013045388848893"><ele>689.0</ele><time>2026-05-02T15:37:27.99Z</time></trkpt><trkpt lat="44.266330225571544" lon="11.01310473183296"><ele>689.0</ele><time>2026-05-02T15:37:28.99Z</time></trkpt><trkpt lat="44.266415118792196" lon="11.013156386579848"><ele>689.0</ele><time>2026-05-02T15:37:29.99Z</time></trkpt><trkpt lat="44.266500001685934" lon="11.013202692612632"><ele>690.3333333333333</ele><time>2026-05-02T15:37:30.99Z</time></trkpt><trkpt lat="44.26658085874584" lon="11.01325814369644"><ele>691.6666666666666</ele><time>2026-05-02T15:37:31.991Z</time></trkpt><trkpt lat="44.26664180536178" lon="11.013337251832082"><ele>693.0</ele><time>2026-05-02T15:37:32.991Z</time></trkpt><trkpt lat="44.266681108041226" lon="11.013432071496846"><ele>694.3333333333334</ele><time>2026-05-02T15:37:33.991Z</time></trkpt><trkpt lat="44.26672563838481" lon="11.013518124819607"><ele>695.6666666666667</ele><time>2026-05-02T15:37:34.991Z</time></trkpt><trkpt lat="44.26677055360199" lon="11.013619375253374"><ele>697.0</ele><time>2026-05-02T15:37:35.991Z</time></trkpt><trkpt lat="44.26685537667062" lon="11.013672795307631"><ele>697.0</ele><time>2026-05-02T15:37:36.991Z</time></trkpt><trkpt lat="44.26693193242414" lon="11.013691669543757"><ele>697.0</ele><time>2026-05-02T15:37:37.991Z</time></trkpt><trkpt lat="44.26699411236839" lon="11.01371164126861"><ele>697.0</ele><time>2026-05-02T15:37:39.991Z</time></trkpt><trkpt lat="44.26706896122675" lon="11.013745908402042"><ele>697.0</ele><time>2026-05-02T15:37:43.991Z</time></trkpt><trkpt lat="44.26703778895384" lon="11.013884115235372"><ele>697.0</ele><time>2026-05-02T15:37:46.991Z</time></trkpt><trkpt lat="44.26697297175929" lon="11.01388123116467"><ele>697.0</ele><time>2026-05-02T15:37:47.991Z</time></trkpt><trkpt lat="44.266903801689445" lon="11.013858054460277"><ele>697.0</ele><time>2026-05-02T15:37:48.991Z</time></trkpt><trkpt lat="44.26683682779188" lon="11.013836728967037"><ele>697.0</ele><time>2026-05-02T15:37:49.991Z</time></trkpt><trkpt lat="44.266752593278326" lon="11.013825216596473"><ele>697.0</ele><time>2026-05-02T15:37:50.991Z</time></trkpt><trkpt lat="44.26667074996069" lon="11.013812251687606"><ele>697.0</ele><time>2026-05-02T15:37:51.991Z</time></trkpt><trkpt lat="44.26657353919236" lon="11.013798823079854"><ele>697.0</ele><time>2026-05-02T15:37:52.991Z</time></trkpt><trkpt lat="44.26648087875793" lon="11.013767535569098"><ele>697.0</ele><time>2026-05-02T15:37:53.991Z</time></trkpt><trkpt lat="44.26638026450905" lon="11.013731432123437"><ele>694.2</ele><time>2026-05-02T15:37:54.991Z</time></trkpt><trkpt lat="44.266278177211596" lon="11.013692087990004"><ele>691.4000000000001</ele><time>2026-05-02T15:37:55.991Z</time></trkpt><trkpt lat="44.266172501429836" lon="11.013654003356697"><ele>688.5999999999999</ele><time>2026-05-02T15:37:56.991Z</time></trkpt><trkpt lat="44.266062564961686" lon="11.013619499266559"><ele>685.8</ele><time>2026-05-02T15:37:57.991Z</time></trkpt><trkpt lat="44.26596723603368" lon="11.013588486235554"><ele>683.0</ele><time>2026-05-02T15:37:58.991Z</time></trkpt><trkpt lat="44.265870529287426" lon="11.013556198753154"><ele>683.0</ele><time>2026-05-02T15:37:59.991Z</time></trkpt><trkpt lat="44.26576390337598" lon="11.013545005953173"><ele>683.0</ele><time>2026-05-02T15:38:00.991Z</time></trkpt><trkpt lat="44.26566748692351" lon="11.013553667743928"><ele>683.0</ele><time>2026-05-02T15:38:01.991Z</time></trkpt><trkpt lat="44.265590444239564" lon="11.013580042681804"><ele>683.0</ele><time>2026-05-02T15:38:02.991Z</time></trkpt><trkpt lat="44.26552414952985" lon="11.013642661868046"><ele>683.0</ele><time>2026-05-02T15:38:03.991Z</time></trkpt><trkpt lat="44.265481650053886" lon="11.01374495086335"><ele>683.0</ele><time>2026-05-02T15:38:04.991Z</time></trkpt><trkpt lat="44.265478958731634" lon="11.013877530712323"><ele>680.8</ele><time>2026-05-02T15:38:05.991Z</time></trkpt><trkpt lat="44.26551502618114" lon="11.013998380043898"><ele>678.5999999999999</ele><time>2026-05-02T15:38:06.991Z</time></trkpt><trkpt lat="44.26553659106976" lon="11.014103224394265"><ele>676.4000000000001</ele><time>2026-05-02T15:38:07.991Z</time></trkpt><trkpt lat="44.26552057192165" lon="11.014206170281224"><ele>674.2</ele><time>2026-05-02T15:38:08.991Z</time></trkpt><trkpt lat="44.26535848385469" lon="11.014241981415534"><ele>672.0</ele><time>2026-05-02T15:38:10.992Z</time></trkpt><trkpt lat="44.26527194097904" lon="11.014275773528832"><ele>672.0</ele><time>2026-05-02T15:38:11.992Z</time></trkpt><trkpt lat="44.26519088770199" lon="11.014285956191106"><ele>672.0</ele><time>2026-05-02T15:38:12.992Z</time></trkpt><trkpt lat="44.26510715005636" lon="11.014278370410533"><ele>672.0</ele><time>2026-05-02T15:38:13.992Z</time></trkpt><trkpt lat="44.2650216135984" lon="11.014224597239867"><ele>672.0</ele><time>2026-05-02T15:38:14.992Z</time></trkpt><trkpt lat="44.26494644935258" lon="11.014139249430972"><ele>672.0</ele><time>2026-05-02T15:38:15.99Z</time></trkpt><trkpt lat="44.264895234815796" lon="11.014039608022953"><ele>672.0</ele><time>2026-05-02T15:38:16.991Z</time></trkpt><trkpt lat="44.26483510806282" lon="11.013977865632093"><ele>669.5</ele><time>2026-05-02T15:38:17.991Z</time></trkpt><trkpt lat="44.264777362401105" lon="11.01393477397322"><ele>667.0</ele><time>2026-05-02T15:38:18.99Z</time></trkpt><trkpt lat="44.264707513589634" lon="11.013891786596732"><ele>664.5</ele><time>2026-05-02T15:38:19.991Z</time></trkpt><trkpt lat="44.26462091989992" lon="11.013865610622192"><ele>662.0</ele><time>2026-05-02T15:38:20.991Z</time></trkpt><trkpt lat="44.264528826422264" lon="11.013833545811153"><ele>659.5</ele><time>2026-05-02T15:38:21.99Z</time></trkpt><trkpt lat="44.264441971554696" lon="11.013800415949786"><ele>657.0</ele><time>2026-05-02T15:38:22.991Z</time></trkpt><trkpt lat="44.264364436404044" lon="11.013797465220797"><ele>657.0</ele><time>2026-05-02T15:38:23.991Z</time></trkpt><trkpt lat="44.26429643794412" lon="11.013836291981312"><ele>657.0</ele><time>2026-05-02T15:38:24.991Z</time></trkpt><trkpt lat="44.26422239488768" lon="11.013917815399191"><ele>657.0</ele><time>2026-05-02T15:38:25.991Z</time></trkpt><trkpt lat="44.26414514561112" lon="11.01401941762"><ele>657.0</ele><time>2026-05-02T15:38:26.991Z</time></trkpt><trkpt lat="44.2640692063598" lon="11.014094239825823"><ele>657.0</ele><time>2026-05-02T15:38:27.99Z</time></trkpt><trkpt lat="44.26399201252558" lon="11.014160306060903"><ele>657.4000000000001</ele><time>2026-05-02T15:38:28.991Z</time></trkpt><trkpt lat="44.263902612393125" lon="11.014204890557151"><ele>657.8000000000001</ele><time>2026-05-02T15:38:29.991Z</time></trkpt><trkpt lat="44.26380351338126" lon="11.014195856261695"><ele>658.2</ele><time>2026-05-02T15:38:30.991Z</time></trkpt><trkpt lat="44.26370877867852" lon="11.01417623553039"><ele>658.6</ele><time>2026-05-02T15:38:31.991Z</time></trkpt><trkpt lat="44.26361689813626" lon="11.014153606134295"><ele>659.0</ele><time>2026-05-02T15:38:32.991Z</time></trkpt><trkpt lat="44.2635220260364" lon="11.014156928102452"><ele>659.0</ele><time>2026-05-02T15:38:33.991Z</time></trkpt><trkpt lat="44.26343041910175" lon="11.014181169690096"><ele>659.0</ele><time>2026-05-02T15:38:34.991Z</time></trkpt><trkpt lat="44.26333740819294" lon="11.014222019799243"><ele>659.0</ele><time>2026-05-02T15:38:35.991Z</time></trkpt><trkpt lat="44.263237283263706" lon="11.014273601846705"><ele>659.0</ele><time>2026-05-02T15:38:36.991Z</time></trkpt><trkpt lat="44.26313540770133" lon="11.014305257490571"><ele>659.0</ele><time>2026-05-02T15:38:37.991Z</time></trkpt><trkpt lat="44.26302248440649" lon="11.014311913518325"><ele>658.2</ele><time>2026-05-02T15:38:38.991Z</time></trkpt><trkpt lat="44.26291426267741" lon="11.014296646506278"><ele>657.4000000000001</ele><time>2026-05-02T15:38:39.991Z</time></trkpt><trkpt lat="44.2628073803135" lon="11.01425760515584"><ele>656.6</ele><time>2026-05-02T15:38:40.991Z</time></trkpt><trkpt lat="44.26271100667819" lon="11.014210240727888"><ele>655.8</ele><time>2026-05-02T15:38:41.991Z</time></trkpt><trkpt lat="44.26261033516029" lon="11.014172020443926"><ele>655.0</ele><time>2026-05-02T15:38:42.991Z</time></trkpt><trkpt lat="44.26251777687592" lon="11.01413653957548"><ele>654.0</ele><time>2026-05-02T15:38:43.991Z</time></trkpt><trkpt lat="44.26242157199402" lon="11.014124100053547"><ele>653.0</ele><time>2026-05-02T15:38:44.991Z</time></trkpt><trkpt lat="44.262337153996754" lon="11.014140741584956"><ele>652.0</ele><time>2026-05-02T15:38:45.991Z</time></trkpt><trkpt lat="44.26226669409898" lon="11.014207093509796"><ele>651.0</ele><time>2026-05-02T15:38:46.991Z</time></trkpt><trkpt lat="44.26219719592844" lon="11.01430584113211"><ele>650.0</ele><time>2026-05-02T15:38:47.991Z</time></trkpt><trkpt lat="44.26214219009247" lon="11.014411452098118"><ele>649.2</ele><time>2026-05-02T15:38:48.991Z</time></trkpt><trkpt lat="44.26209163826517" lon="11.01453632102505"><ele>648.4</ele><time>2026-05-02T15:38:49.991Z</time></trkpt><trkpt lat="44.26203484589351" lon="11.01465849114394"><ele>647.5999999999999</ele><time>2026-05-02T15:38:50.991Z</time></trkpt><trkpt lat="44.26195378395776" lon="11.014734943740667"><ele>646.8</ele><time>2026-05-02T15:38:51.991Z</time></trkpt><trkpt lat="44.26186245309475" lon="11.014807505268724"><ele>646.0</ele><time>2026-05-02T15:38:52.991Z</time></trkpt><trkpt lat="44.26176243019617" lon="11.01485720837967"><ele>646.0</ele><time>2026-05-02T15:38:53.991Z</time></trkpt><trkpt lat="44.261660481427384" lon="11.014899364878069"><ele>646.0</ele><time>2026-05-02T15:38:54.991Z</time></trkpt><trkpt lat="44.261557668019705" lon="11.014930080189293"><ele>646.0</ele><time>2026-05-02T15:38:55.991Z</time></trkpt><trkpt lat="44.26145684499104" lon="11.014948272989551"><ele>646.0</ele><time>2026-05-02T15:38:56.991Z</time></trkpt><trkpt lat="44.261352562993864" lon="11.014957819218377"><ele>646.0</ele><time>2026-05-02T15:38:57.991Z</time></trkpt><trkpt lat="44.26124649704983" lon="11.0149679463273"><ele>645.1999999999999</ele><time>2026-05-02T15:38:58.991Z</time></trkpt><trkpt lat="44.26114805784923" lon="11.014986932006385"><ele>644.4</ele><time>2026-05-02T15:38:59.991Z</time></trkpt><trkpt lat="44.26105358293053" lon="11.015001794520261"><ele>643.6</ele><time>2026-05-02T15:39:00.992Z</time></trkpt><trkpt lat="44.260966592807335" lon="11.015026182508821"><ele>642.8</ele><time>2026-05-02T15:39:01.992Z</time></trkpt><trkpt lat="44.26088625593276" lon="11.015053879941746"><ele>642.0</ele><time>2026-05-02T15:39:02.992Z</time></trkpt><trkpt lat="44.26081821910683" lon="11.015128255636299"><ele>643.8</ele><time>2026-05-02T15:39:03.992Z</time></trkpt><trkpt lat="44.26074214892028" lon="11.015206129681983"><ele>645.6</ele><time>2026-05-02T15:39:04.992Z</time></trkpt><trkpt lat="44.260681970284494" lon="11.015307884476538"><ele>647.4</ele><time>2026-05-02T15:39:05.992Z</time></trkpt><trkpt lat="44.26063940193492" lon="11.015402180090296"><ele>649.1999999999999</ele><time>2026-05-02T15:39:06.992Z</time></trkpt><trkpt lat="44.260589041202024" lon="11.015508452657073"><ele>651.0</ele><time>2026-05-02T15:39:07.992Z</time></trkpt><trkpt lat="44.260539226330145" lon="11.015620749070516"><ele>651.0</ele><time>2026-05-02T15:39:08.992Z</time></trkpt><trkpt lat="44.260519179557775" lon="11.015744245138265"><ele>651.0</ele><time>2026-05-02T15:39:09.992Z</time></trkpt><trkpt lat="44.2605125624278" lon="11.015865917697392"><ele>651.0</ele><time>2026-05-02T15:39:10.992Z</time></trkpt><trkpt lat="44.260509334118225" lon="11.015980799321985"><ele>651.0</ele><time>2026-05-02T15:39:11.992Z</time></trkpt><trkpt lat="44.26052336331559" lon="11.01608411992134"><ele>651.0</ele><time>2026-05-02T15:39:12.992Z</time></trkpt><trkpt lat="44.26050061089269" lon="11.016186558796004"><ele>651.0</ele><time>2026-05-02T15:39:13.992Z</time></trkpt><trkpt lat="44.260499353926" lon="11.016296268303158"><ele>654.0</ele><time>2026-05-02T15:39:14.992Z</time></trkpt><trkpt lat="44.26047165371393" lon="11.016394183791611"><ele>657.0</ele><time>2026-05-02T15:39:15.992Z</time></trkpt><trkpt lat="44.26044044816824" lon="11.01649727065321"><ele>660.0</ele><time>2026-05-02T15:39:16.992Z</time></trkpt><trkpt lat="44.26040106690055" lon="11.016610156731028"><ele>663.0</ele><time>2026-05-02T15:39:17.992Z</time></trkpt><trkpt lat="44.26034650642373" lon="11.016706830429916"><ele>666.0</ele><time>2026-05-02T15:39:18.992Z</time></trkpt><trkpt lat="44.26027775800397" lon="11.016786162671211"><ele>669.0</ele><time>2026-05-02T15:39:19.992Z</time></trkpt><trkpt lat="44.260195566488626" lon="11.016810883095213"><ele>669.0</ele><time>2026-05-02T15:39:20.992Z</time></trkpt><trkpt lat="44.2601009223964" lon="11.016783970872021"><ele>669.0</ele><time>2026-05-02T15:39:21.992Z</time></trkpt><trkpt lat="44.260006849927194" lon="11.016703585016874"><ele>669.0</ele><time>2026-05-02T15:39:22.992Z</time></trkpt><trkpt lat="44.25995784669761" lon="11.016591380652532"><ele>669.0</ele><time>2026-05-02T15:39:23.992Z</time></trkpt><trkpt lat="44.25989955572291" lon="11.016516285879533"><ele>669.0</ele><time>2026-05-02T15:39:24.992Z</time></trkpt><trkpt lat="44.25984080313653" lon="11.016418136826493"><ele>669.0</ele><time>2026-05-02T15:39:25.992Z</time></trkpt><trkpt lat="44.25979775085103" lon="11.016306510683606"><ele>669.0</ele><time>2026-05-02T15:39:26.992Z</time></trkpt><trkpt lat="44.25979100555873" lon="11.016162984303609"><ele>669.0</ele><time>2026-05-02T15:39:27.992Z</time></trkpt><trkpt lat="44.259800490110315" lon="11.016028549293422"><ele>669.0</ele><time>2026-05-02T15:39:28.992Z</time></trkpt><trkpt lat="44.25981945884447" lon="11.015894578149782"><ele>669.0</ele><time>2026-05-02T15:39:29.992Z</time></trkpt><trkpt lat="44.259842396680526" lon="11.015768266183517"><ele>667.4000000000001</ele><time>2026-05-02T15:39:30.992Z</time></trkpt><trkpt lat="44.25985582688775" lon="11.015633247912392"><ele>665.8</ele><time>2026-05-02T15:39:31.992Z</time></trkpt><trkpt lat="44.25985117584902" lon="11.015509356134938"><ele>664.2</ele><time>2026-05-02T15:39:32.992Z</time></trkpt><trkpt lat="44.25981383005917" lon="11.015409227496015"><ele>662.5999999999999</ele><time>2026-05-02T15:39:33.992Z</time></trkpt><trkpt lat="44.2597395450965" lon="11.015326391496382"><ele>661.0</ele><time>2026-05-02T15:39:34.992Z</time></trkpt><trkpt lat="44.25964987983885" lon="11.015264030829035"><ele>661.0</ele><time>2026-05-02T15:39:35.992Z</time></trkpt><trkpt lat="44.259558450458755" lon="11.015217229804435"><ele>661.0</ele><time>2026-05-02T15:39:36.992Z</time></trkpt><trkpt lat="44.25947200588742" lon="11.015182329782423"><ele>661.0</ele><time>2026-05-02T15:39:37.992Z</time></trkpt><trkpt lat="44.25938490324057" lon="11.015146080739907"><ele>661.0</ele><time>2026-05-02T15:39:38.992Z</time></trkpt><trkpt lat="44.259288641890564" lon="11.01513927672178"><ele>661.0</ele><time>2026-05-02T15:39:39.993Z</time></trkpt><trkpt lat="44.259191862659904" lon="11.01515292418435"><ele>661.0</ele><time>2026-05-02T15:39:40.993Z</time></trkpt><trkpt lat="44.25909538275194" lon="11.015194749713652"><ele>661.0</ele><time>2026-05-02T15:39:41.993Z</time></trkpt><trkpt lat="44.25900329618843" lon="11.015243061064563"><ele>661.0</ele><time>2026-05-02T15:39:42.993Z</time></trkpt><trkpt lat="44.25890702564847" lon="11.015309534579695"><ele>661.0</ele><time>2026-05-02T15:39:43.993Z</time></trkpt><trkpt lat="44.25880838404699" lon="11.015351025136912"><ele>661.0</ele><time>2026-05-02T15:39:44.993Z</time></trkpt><trkpt lat="44.25870026666142" lon="11.015366794538236"><ele>662.0</ele><time>2026-05-02T15:39:45.993Z</time></trkpt><trkpt lat="44.258590875283275" lon="11.015355673679833"><ele>663.0</ele><time>2026-05-02T15:39:46.993Z</time></trkpt><trkpt lat="44.25847779646447" lon="11.015344682524749"><ele>664.0</ele><time>2026-05-02T15:39:47.993Z</time></trkpt><trkpt lat="44.25836546592734" lon="11.015324302985743"><ele>665.0</ele><time>2026-05-02T15:39:48.993Z</time></trkpt><trkpt lat="44.258254325677306" lon="11.015304063199494"><ele>666.0</ele><time>2026-05-02T15:39:49.993Z</time></trkpt><trkpt lat="44.258144945794776" lon="11.015296370604489"><ele>666.0</ele><time>2026-05-02T15:39:50.993Z</time></trkpt><trkpt lat="44.25803527432442" lon="11.015311684204613"><ele>666.0</ele><time>2026-05-02T15:39:51.993Z</time></trkpt><trkpt lat="44.257926602803245" lon="11.015337864801923"><ele>666.0</ele><time>2026-05-02T15:39:52.993Z</time></trkpt><trkpt lat="44.257822027761904" lon="11.015381012340924"><ele>666.0</ele><time>2026-05-02T15:39:53.993Z</time></trkpt><trkpt lat="44.25772081105182" lon="11.015452321927272"><ele>666.0</ele><time>2026-05-02T15:39:54.993Z</time></trkpt><trkpt lat="44.25762357485207" lon="11.015509864991703"><ele>666.0</ele><time>2026-05-02T15:39:55.993Z</time></trkpt><trkpt lat="44.257526137126774" lon="11.01556728309532"><ele>666.0</ele><time>2026-05-02T15:39:56.993Z</time></trkpt><trkpt lat="44.25743027304888" lon="11.015630288593876"><ele>666.0</ele><time>2026-05-02T15:39:57.993Z</time></trkpt><trkpt lat="44.25733090771737" lon="11.015679469549612"><ele>666.0</ele><time>2026-05-02T15:39:58.993Z</time></trkpt><trkpt lat="44.257227890137166" lon="11.015706584842716"><ele>666.0</ele><time>2026-05-02T15:39:59.993Z</time></trkpt><trkpt lat="44.25712655703549" lon="11.015699246021523"><ele>669.8</ele><time>2026-05-02T15:40:00.993Z</time></trkpt><trkpt lat="44.257027684987634" lon="11.015663830487663"><ele>673.5999999999999</ele><time>2026-05-02T15:40:01.993Z</time></trkpt><trkpt lat="44.25693118201395" lon="11.015617762229162"><ele>677.4</ele><time>2026-05-02T15:40:02.993Z</time></trkpt><trkpt lat="44.25684306688913" lon="11.015566066117202"><ele>681.2</ele><time>2026-05-02T15:40:03.993Z</time></trkpt><trkpt lat="44.25675367756036" lon="11.015532869922707"><ele>685.0</ele><time>2026-05-02T15:40:04.993Z</time></trkpt><trkpt lat="44.25665898698696" lon="11.015507028868436"><ele>685.0</ele><time>2026-05-02T15:40:05.993Z</time></trkpt><trkpt lat="44.25657724950384" lon="11.01553568658215"><ele>685.0</ele><time>2026-05-02T15:40:06.993Z</time></trkpt><trkpt lat="44.25650868519693" lon="11.01561862159502"><ele>685.0</ele><time>2026-05-02T15:40:07.993Z</time></trkpt><trkpt lat="44.25646198056813" lon="11.015734609969696"><ele>685.0</ele><time>2026-05-02T15:40:08.993Z</time></trkpt><trkpt lat="44.25643752943825" lon="11.015868592763681"><ele>685.0</ele><time>2026-05-02T15:40:09.993Z</time></trkpt><trkpt lat="44.2564334451629" lon="11.016008021832484"><ele>679.4</ele><time>2026-05-02T15:40:10.993Z</time></trkpt><trkpt lat="44.2564163502211" lon="11.016153307988514"><ele>673.8</ele><time>2026-05-02T15:40:11.993Z</time></trkpt><trkpt lat="44.25639932825755" lon="11.016298768259038"><ele>668.2</ele><time>2026-05-02T15:40:12.993Z</time></trkpt><trkpt lat="44.25635765426102" lon="11.016440587355959"><ele>662.6</ele><time>2026-05-02T15:40:13.993Z</time></trkpt><trkpt lat="44.25631029691598" lon="11.01657211194179"><ele>657.0</ele><time>2026-05-02T15:40:14.993Z</time></trkpt><trkpt lat="44.2562528037759" lon="11.016704293011896"><ele>657.0</ele><time>2026-05-02T15:40:15.993Z</time></trkpt><trkpt lat="44.256196263357836" lon="11.016835558257707"><ele>657.0</ele><time>2026-05-02T15:40:16.993Z</time></trkpt><trkpt lat="44.25614518008405" lon="11.016957031891945"><ele>657.0</ele><time>2026-05-02T15:40:17.993Z</time></trkpt><trkpt lat="44.25609948481739" lon="11.017082943176325"><ele>657.0</ele><time>2026-05-02T15:40:18.994Z</time></trkpt><trkpt lat="44.256064087847456" lon="11.017211050564885"><ele>657.0</ele><time>2026-05-02T15:40:19.994Z</time></trkpt><trkpt lat="44.25604238186765" lon="11.017359381883997"><ele>657.0</ele><time>2026-05-02T15:40:20.994Z</time></trkpt><trkpt lat="44.2560337824499" lon="11.01749435366874"><ele>657.0</ele><time>2026-05-02T15:40:21.991Z</time></trkpt><trkpt lat="44.256048330685104" lon="11.017620832612415"><ele>657.0</ele><time>2026-05-02T15:40:22.992Z</time></trkpt><trkpt lat="44.25608110290892" lon="11.017761136857462"><ele>657.0</ele><time>2026-05-02T15:40:23.992Z</time></trkpt><trkpt lat="44.25613093748278" lon="11.017870017035564"><ele>657.0</ele><time>2026-05-02T15:40:24.992Z</time></trkpt><trkpt lat="44.25616924085325" lon="11.017991683833106"><ele>657.0</ele><time>2026-05-02T15:40:25.991Z</time></trkpt><trkpt lat="44.25620972185706" lon="11.018115785668122"><ele>657.0</ele><time>2026-05-02T15:40:26.991Z</time></trkpt><trkpt lat="44.256249511820435" lon="11.018244635511058"><ele>657.0</ele><time>2026-05-02T15:40:27.992Z</time></trkpt><trkpt lat="44.2562820824598" lon="11.018380975351956"><ele>657.0</ele><time>2026-05-02T15:40:28.992Z</time></trkpt><trkpt lat="44.25631582401238" lon="11.018524022771803"><ele>657.0</ele><time>2026-05-02T15:40:29.992Z</time></trkpt><trkpt lat="44.25635968282174" lon="11.01865687568791"><ele>657.0</ele><time>2026-05-02T15:40:30.992Z</time></trkpt><trkpt lat="44.256416094510136" lon="11.018773788112263"><ele>657.0</ele><time>2026-05-02T15:40:31.992Z</time></trkpt><trkpt lat="44.25648945444862" lon="11.018880192912302"><ele>657.0</ele><time>2026-05-02T15:40:32.992Z</time></trkpt><trkpt lat="44.256548860175336" lon="11.018997965016723"><ele>657.0</ele><time>2026-05-02T15:40:33.992Z</time></trkpt><trkpt lat="44.25658265669852" lon="11.019137210592831"><ele>657.0</ele><time>2026-05-02T15:40:34.992Z</time></trkpt><trkpt lat="44.256602065582754" lon="11.019292416340813"><ele>658.75</ele><time>2026-05-02T15:40:35.992Z</time></trkpt><trkpt lat="44.256612171413835" lon="11.019453502588645"><ele>660.5</ele><time>2026-05-02T15:40:36.992Z</time></trkpt><trkpt lat="44.25661288921888" lon="11.019608287332531"><ele>662.25</ele><time>2026-05-02T15:40:37.992Z</time></trkpt><trkpt lat="44.25661099707655" lon="11.019761912663435"><ele>664.0</ele><time>2026-05-02T15:40:38.992Z</time></trkpt><trkpt lat="44.25662141147636" lon="11.019919806084133"><ele>664.0</ele><time>2026-05-02T15:40:39.992Z</time></trkpt><trkpt lat="44.256651588055945" lon="11.020064458622079"><ele>664.0</ele><time>2026-05-02T15:40:40.992Z</time></trkpt><trkpt lat="44.256704163068605" lon="11.020207500982648"><ele>664.0</ele><time>2026-05-02T15:40:41.992Z</time></trkpt><trkpt lat="44.2567581260728" lon="11.020340876009543"><ele>664.0</ele><time>2026-05-02T15:40:42.992Z</time></trkpt><trkpt lat="44.25681635733496" lon="11.02047528449106"><ele>664.0</ele><time>2026-05-02T15:40:43.992Z</time></trkpt><trkpt lat="44.25685364324135" lon="11.020631770879811"><ele>664.0</ele><time>2026-05-02T15:40:44.992Z</time></trkpt><trkpt lat="44.25687157891073" lon="11.020795440832144"><ele>664.0</ele><time>2026-05-02T15:40:45.992Z</time></trkpt><trkpt lat="44.256896420403315" lon="11.020905533252026"><ele>664.0</ele><time>2026-05-02T15:40:46.992Z</time></trkpt><trkpt lat="44.256914098483826" lon="11.021023004705688"><ele>664.0</ele><time>2026-05-02T15:40:47.992Z</time></trkpt><trkpt lat="44.25692156664308" lon="11.021149128457113"><ele>664.0</ele><time>2026-05-02T15:40:48.992Z</time></trkpt><trkpt lat="44.25690604445185" lon="11.021272347268525"><ele>662.2</ele><time>2026-05-02T15:40:49.992Z</time></trkpt><trkpt lat="44.25690074390841" lon="11.02139635336925"><ele>660.4000000000001</ele><time>2026-05-02T15:40:50.992Z</time></trkpt><trkpt lat="44.25688900008195" lon="11.02152065653448"><ele>658.6</ele><time>2026-05-02T15:40:51.993Z</time></trkpt><trkpt lat="44.25687266411709" lon="11.021645919835345"><ele>656.8</ele><time>2026-05-02T15:40:52.993Z</time></trkpt><trkpt lat="44.25685243492545" lon="11.021775974821455"><ele>655.0</ele><time>2026-05-02T15:40:53.993Z</time></trkpt><trkpt lat="44.25684507610957" lon="11.021913359310577"><ele>653.8</ele><time>2026-05-02T15:40:54.993Z</time></trkpt><trkpt lat="44.25680966535965" lon="11.022037880656047"><ele>652.6</ele><time>2026-05-02T15:40:55.993Z</time></trkpt><trkpt lat="44.256791795713035" lon="11.022162754402396"><ele>651.4000000000001</ele><time>2026-05-02T15:40:56.993Z</time></trkpt><trkpt lat="44.256780044269235" lon="11.022264780788126"><ele>650.2</ele><time>2026-05-02T15:40:57.993Z</time></trkpt><trkpt lat="44.25679166565806" lon="11.022446189276339"><ele>649.0</ele><time>2026-05-02T15:40:59.993Z</time></trkpt><trkpt lat="44.25684060649877" lon="11.02257854755382"><ele>647.4285714285713</ele><time>2026-05-02T15:41:00.993Z</time></trkpt><trkpt lat="44.25689618552977" lon="11.02267294846625"><ele>645.8571428571429</ele><time>2026-05-02T15:41:01.993Z</time></trkpt><trkpt lat="44.25694778339213" lon="11.02275200443263"><ele>644.2857142857142</ele><time>2026-05-02T15:41:02.993Z</time></trkpt><trkpt lat="44.256995108967665" lon="11.022819120561532"><ele>642.7142857142857</ele><time>2026-05-02T15:41:03.993Z</time></trkpt><trkpt lat="44.257044639802636" lon="11.022889363946359"><ele>641.1428571428571</ele><time>2026-05-02T15:41:04.993Z</time></trkpt><trkpt lat="44.25708911592974" lon="11.022956849462139"><ele>639.5714285714286</ele><time>2026-05-02T15:41:05.993Z</time></trkpt><trkpt lat="44.25714115391883" lon="11.023035969089385"><ele>638.0</ele><time>2026-05-02T15:41:06.993Z</time></trkpt><trkpt lat="44.257207219104636" lon="11.023148437226386"><ele>638.0</ele><time>2026-05-02T15:41:07.993Z</time></trkpt><trkpt lat="44.25725839954563" lon="11.023252595949453"><ele>638.0</ele><time>2026-05-02T15:41:08.993Z</time></trkpt><trkpt lat="44.2573215587198" lon="11.02337712400515"><ele>638.0</ele><time>2026-05-02T15:41:09.993Z</time></trkpt><trkpt lat="44.25738809004547" lon="11.023506402369224"><ele>638.0</ele><time>2026-05-02T15:41:10.993Z</time></trkpt><trkpt lat="44.25745636909616" lon="11.023631086900483"><ele>638.0</ele><time>2026-05-02T15:41:11.993Z</time></trkpt><trkpt lat="44.257552187787" lon="11.023764603297503"><ele>639.2</ele><time>2026-05-02T15:41:12.993Z</time></trkpt><trkpt lat="44.25761348152153" lon="11.02390787821395"><ele>640.4</ele><time>2026-05-02T15:41:13.993Z</time></trkpt><trkpt lat="44.25767434610938" lon="11.024025350749358"><ele>641.6</ele><time>2026-05-02T15:41:14.993Z</time></trkpt><trkpt lat="44.257713013583064" lon="11.024144987720364"><ele>642.8000000000001</ele><time>2026-05-02T15:41:15.993Z</time></trkpt><trkpt lat="44.25776578703139" lon="11.024262463192187"><ele>644.0</ele><time>2026-05-02T15:41:16.993Z</time></trkpt><trkpt lat="44.257821485964044" lon="11.024375760599602"><ele>644.0</ele><time>2026-05-02T15:41:17.993Z</time></trkpt><trkpt lat="44.25787367133519" lon="11.024490782541417"><ele>644.0</ele><time>2026-05-02T15:41:18.993Z</time></trkpt><trkpt lat="44.25791967144349" lon="11.024610116562188"><ele>644.0</ele><time>2026-05-02T15:41:19.993Z</time></trkpt><trkpt lat="44.257974158813575" lon="11.024736967456148"><ele>644.0</ele><time>2026-05-02T15:41:20.993Z</time></trkpt><trkpt lat="44.25800512946801" lon="11.024869468025399"><ele>644.0</ele><time>2026-05-02T15:41:21.993Z</time></trkpt><trkpt lat="44.25803311886487" lon="11.02501274540874"><ele>640.25</ele><time>2026-05-02T15:41:22.993Z</time></trkpt><trkpt lat="44.258031243304366" lon="11.025183694063497"><ele>636.5</ele><time>2026-05-02T15:41:23.993Z</time></trkpt><trkpt lat="44.25801752805539" lon="11.025349199111094"><ele>632.75</ele><time>2026-05-02T15:41:24.993Z</time></trkpt><trkpt lat="44.25797415955592" lon="11.02548528443625"><ele>629.0</ele><time>2026-05-02T15:41:25.993Z</time></trkpt><trkpt lat="44.25794050166273" lon="11.025637919632088"><ele>629.0</ele><time>2026-05-02T15:41:26.993Z</time></trkpt><trkpt lat="44.25787831753855" lon="11.025760612077537"><ele>629.0</ele><time>2026-05-02T15:41:27.993Z</time></trkpt><trkpt lat="44.257811264542845" lon="11.025884870760446"><ele>629.0</ele><time>2026-05-02T15:41:28.993Z</time></trkpt><trkpt lat="44.25774843660461" lon="11.025997296638714"><ele>629.0</ele><time>2026-05-02T15:41:29.993Z</time></trkpt><trkpt lat="44.25768271970527" lon="11.026134075630056"><ele>629.0</ele><time>2026-05-02T15:41:30.994Z</time></trkpt><trkpt lat="44.257627844493584" lon="11.026272702886114"><ele>629.6</ele><time>2026-05-02T15:41:31.994Z</time></trkpt><trkpt lat="44.257582198393706" lon="11.0264090772572"><ele>630.2</ele><time>2026-05-02T15:41:32.994Z</time></trkpt><trkpt lat="44.25754879755754" lon="11.026540775528096"><ele>630.8000000000001</ele><time>2026-05-02T15:41:33.994Z</time></trkpt><trkpt lat="44.25752055184986" lon="11.026669558925077"><ele>631.4</ele><time>2026-05-02T15:41:34.994Z</time></trkpt><trkpt lat="44.257520504978125" lon="11.026802420407376"><ele>632.0</ele><time>2026-05-02T15:41:35.994Z</time></trkpt><trkpt lat="44.257561139294296" lon="11.02692330798578"><ele>633.0</ele><time>2026-05-02T15:41:36.994Z</time></trkpt><trkpt lat="44.257619936526254" lon="11.027040049921641"><ele>634.0</ele><time>2026-05-02T15:41:37.994Z</time></trkpt><trkpt lat="44.25765143547443" lon="11.027173372473083"><ele>635.0</ele><time>2026-05-02T15:41:38.994Z</time></trkpt><trkpt lat="44.25769200382494" lon="11.027303134620754"><ele>636.0</ele><time>2026-05-02T15:41:39.994Z</time></trkpt><trkpt lat="44.25772450686093" lon="11.02743821847938"><ele>637.0</ele><time>2026-05-02T15:41:40.994Z</time></trkpt><trkpt lat="44.25775237015389" lon="11.027577236050636"><ele>637.0</ele><time>2026-05-02T15:41:41.994Z</time></trkpt><trkpt lat="44.257780681857305" lon="11.027721459201086"><ele>637.0</ele><time>2026-05-02T15:41:42.994Z</time></trkpt><trkpt lat="44.257828466945575" lon="11.027861758668157"><ele>637.0</ele><time>2026-05-02T15:41:43.994Z</time></trkpt><trkpt lat="44.2578570047552" lon="11.02801483369761"><ele>637.0</ele><time>2026-05-02T15:41:44.994Z</time></trkpt><trkpt lat="44.257890714906466" lon="11.02815497574628"><ele>637.0</ele><time>2026-05-02T15:41:45.994Z</time></trkpt><trkpt lat="44.25789484474671" lon="11.028305976404718"><ele>634.6</ele><time>2026-05-02T15:41:46.994Z</time></trkpt><trkpt lat="44.25791563518539" lon="11.02844858624064"><ele>632.2</ele><time>2026-05-02T15:41:47.994Z</time></trkpt><trkpt lat="44.2579217264275" lon="11.028597118789277"><ele>629.8</ele><time>2026-05-02T15:41:48.994Z</time></trkpt><trkpt lat="44.257954660401964" lon="11.028740941587104"><ele>627.4</ele><time>2026-05-02T15:41:49.994Z</time></trkpt><trkpt lat="44.25801351802848" lon="11.028871129518057"><ele>625.0</ele><time>2026-05-02T15:41:50.994Z</time></trkpt><trkpt lat="44.258086330364435" lon="11.028981932951964"><ele>630.2</ele><time>2026-05-02T15:41:51.994Z</time></trkpt><trkpt lat="44.25813181266301" lon="11.02911542634859"><ele>635.4</ele><time>2026-05-02T15:41:52.994Z</time></trkpt><trkpt lat="44.25820549067567" lon="11.0292289246567"><ele>640.5999999999999</ele><time>2026-05-02T15:41:53.994Z</time></trkpt><trkpt lat="44.25826005685929" lon="11.029365537461551"><ele>645.8</ele><time>2026-05-02T15:41:54.994Z</time></trkpt><trkpt lat="44.25832779672898" lon="11.029477689957394"><ele>651.0</ele><time>2026-05-02T15:41:55.994Z</time></trkpt><trkpt lat="44.25838352278985" lon="11.029598683725476"><ele>651.0</ele><time>2026-05-02T15:41:56.994Z</time></trkpt><trkpt lat="44.25845482972483" lon="11.029714500401944"><ele>651.0</ele><time>2026-05-02T15:41:57.994Z</time></trkpt><trkpt lat="44.25850461222986" lon="11.029836586126553"><ele>651.0</ele><time>2026-05-02T15:41:58.994Z</time></trkpt><trkpt lat="44.258578015289544" lon="11.029930793341798"><ele>651.0</ele><time>2026-05-02T15:41:59.994Z</time></trkpt><trkpt lat="44.25864594338014" lon="11.030020505884153"><ele>651.0</ele><time>2026-05-02T15:42:00.994Z</time></trkpt><trkpt lat="44.258709921841685" lon="11.030113409018703"><ele>648.5999999999999</ele><time>2026-05-02T15:42:01.994Z</time></trkpt><trkpt lat="44.25874348564609" lon="11.030232529759893"><ele>646.1999999999999</ele><time>2026-05-02T15:42:02.994Z</time></trkpt><trkpt lat="44.25876576338519" lon="11.030354016480791"><ele>643.8</ele><time>2026-05-02T15:42:03.994Z</time></trkpt><trkpt lat="44.25878031254018" lon="11.03048068039912"><ele>641.4</ele><time>2026-05-02T15:42:04.994Z</time></trkpt><trkpt lat="44.258779911460586" lon="11.030608850695858"><ele>639.0</ele><time>2026-05-02T15:42:05.994Z</time></trkpt><trkpt lat="44.25876234012974" lon="11.030735568932517"><ele>637.3333333333334</ele><time>2026-05-02T15:42:06.994Z</time></trkpt><trkpt lat="44.258719808248145" lon="11.03084372186379"><ele>635.6666666666666</ele><time>2026-05-02T15:42:07.994Z</time></trkpt><trkpt lat="44.25868177221853" lon="11.030948593085308"><ele>634.0</ele><time>2026-05-02T15:42:08.994Z</time></trkpt><trkpt lat="44.25863549761862" lon="11.03103801188201"><ele>632.3333333333333</ele><time>2026-05-02T15:42:09.995Z</time></trkpt><trkpt lat="44.25858927676199" lon="11.031122401579086"><ele>630.6666666666666</ele><time>2026-05-02T15:42:10.995Z</time></trkpt><trkpt lat="44.25854696091066" lon="11.031225788410469"><ele>629.0</ele><time>2026-05-02T15:42:11.995Z</time></trkpt><trkpt lat="44.258500261751415" lon="11.031337909567664"><ele>629.0</ele><time>2026-05-02T15:42:12.995Z</time></trkpt><trkpt lat="44.25845238385308" lon="11.03144616393121"><ele>629.0</ele><time>2026-05-02T15:42:13.995Z</time></trkpt><trkpt lat="44.258430902366904" lon="11.031562550429726"><ele>629.0</ele><time>2026-05-02T15:42:14.995Z</time></trkpt><trkpt lat="44.25842885259718" lon="11.03170630071928"><ele>629.0</ele><time>2026-05-02T15:42:15.995Z</time></trkpt><trkpt lat="44.258449326119305" lon="11.031842887588185"><ele>629.0</ele><time>2026-05-02T15:42:16.995Z</time></trkpt><trkpt lat="44.258477062533586" lon="11.031967451457417"><ele>629.4</ele><time>2026-05-02T15:42:17.995Z</time></trkpt><trkpt lat="44.25850697773157" lon="11.03208855225172"><ele>629.8</ele><time>2026-05-02T15:42:18.995Z</time></trkpt><trkpt lat="44.25853903059739" lon="11.032208964816572"><ele>630.2</ele><time>2026-05-02T15:42:19.995Z</time></trkpt><trkpt lat="44.258588312513375" lon="11.032328933118782"><ele>630.6</ele><time>2026-05-02T15:42:20.995Z</time></trkpt><trkpt lat="44.2586090750114" lon="11.032446158736104"><ele>631.0</ele><time>2026-05-02T15:42:21.995Z</time></trkpt><trkpt lat="44.258652056535354" lon="11.032564759336191"><ele>629.8333333333334</ele><time>2026-05-02T15:42:22.995Z</time></trkpt><trkpt lat="44.25868700515275" lon="11.032690618554069"><ele>628.6666666666667</ele><time>2026-05-02T15:42:23.995Z</time></trkpt><trkpt lat="44.25874699049757" lon="11.032788821866664"><ele>627.5</ele><time>2026-05-02T15:42:24.995Z</time></trkpt><trkpt lat="44.258808994637434" lon="11.03288346912194"><ele>626.3333333333334</ele><time>2026-05-02T15:42:25.995Z</time></trkpt><trkpt lat="44.25885697932908" lon="11.032986698738624"><ele>625.1666666666666</ele><time>2026-05-02T15:42:26.995Z</time></trkpt><trkpt lat="44.25891668134265" lon="11.033048463381768"><ele>624.0</ele><time>2026-05-02T15:42:27.993Z</time></trkpt><trkpt lat="44.258981956761154" lon="11.033115117746886"><ele>626.5</ele><time>2026-05-02T15:42:28.993Z</time></trkpt><trkpt lat="44.25904958009359" lon="11.033185259935944"><ele>629.0</ele><time>2026-05-02T15:42:29.993Z</time></trkpt><trkpt lat="44.259091741871984" lon="11.033280413441648"><ele>631.5</ele><time>2026-05-02T15:42:30.994Z</time></trkpt><trkpt lat="44.25914305749682" lon="11.033367319669583"><ele>634.0</ele><time>2026-05-02T15:42:31.993Z</time></trkpt><trkpt lat="44.25919973705008" lon="11.033446528977056"><ele>636.5</ele><time>2026-05-02T15:42:32.993Z</time></trkpt><trkpt lat="44.259237754743914" lon="11.033556577244148"><ele>639.0</ele><time>2026-05-02T15:42:33.994Z</time></trkpt><trkpt lat="44.25924661274537" lon="11.033674241208951"><ele>639.0</ele><time>2026-05-02T15:42:34.994Z</time></trkpt><trkpt lat="44.259273631330466" lon="11.033790941408633"><ele>639.0</ele><time>2026-05-02T15:42:35.994Z</time></trkpt><trkpt lat="44.25928585627708" lon="11.033911861883013"><ele>639.0</ele><time>2026-05-02T15:42:36.993Z</time></trkpt><trkpt lat="44.25931028180082" lon="11.034030296732125"><ele>639.0</ele><time>2026-05-02T15:42:37.994Z</time></trkpt><trkpt lat="44.25934356024071" lon="11.034147327519165"><ele>639.0</ele><time>2026-05-02T15:42:38.994Z</time></trkpt><trkpt lat="44.259435458855364" lon="11.03433162019793"><ele>640.1666666666666</ele><time>2026-05-02T15:42:40.993Z</time></trkpt><trkpt lat="44.25950550686772" lon="11.034408071610944"><ele>641.3333333333334</ele><time>2026-05-02T15:42:41.993Z</time></trkpt><trkpt lat="44.25958661735055" lon="11.034443054638858"><ele>642.5</ele><time>2026-05-02T15:42:42.993Z</time></trkpt><trkpt lat="44.25965433013835" lon="11.034452763163609"><ele>643.6666666666667</ele><time>2026-05-02T15:42:43.993Z</time></trkpt><trkpt lat="44.25971328338284" lon="11.034508548531562"><ele>644.8333333333334</ele><time>2026-05-02T15:42:44.994Z</time></trkpt><trkpt lat="44.25980162528734" lon="11.034538542992674"><ele>646.0</ele><time>2026-05-02T15:42:45.994Z</time></trkpt><trkpt lat="44.25988767358845" lon="11.034533850159846"><ele>646.0</ele><time>2026-05-02T15:42:46.994Z</time></trkpt><trkpt lat="44.25995515930525" lon="11.034570231442611"><ele>646.0</ele><time>2026-05-02T15:42:47.994Z</time></trkpt><trkpt lat="44.260019831961124" lon="11.034633962445604"><ele>646.0</ele><time>2026-05-02T15:42:48.994Z</time></trkpt><trkpt lat="44.26008659871819" lon="11.034695782285741"><ele>646.0</ele><time>2026-05-02T15:42:49.994Z</time></trkpt><trkpt lat="44.2601519278449" lon="11.034775071257318"><ele>646.0</ele><time>2026-05-02T15:42:50.994Z</time></trkpt><trkpt lat="44.260224098669" lon="11.034848281430124"><ele>646.0</ele><time>2026-05-02T15:42:51.994Z</time></trkpt><trkpt lat="44.26029009737978" lon="11.034920753957392"><ele>643.5</ele><time>2026-05-02T15:42:52.994Z</time></trkpt><trkpt lat="44.26036027136395" lon="11.034993100595612"><ele>641.0</ele><time>2026-05-02T15:42:53.994Z</time></trkpt><trkpt lat="44.26042579138805" lon="11.035061719704082"><ele>638.5</ele><time>2026-05-02T15:42:54.994Z</time></trkpt><trkpt lat="44.260485004244245" lon="11.0351216933573"><ele>636.0</ele><time>2026-05-02T15:42:55.994Z</time></trkpt><trkpt lat="44.26054741899723" lon="11.03517539855602"><ele>633.5</ele><time>2026-05-02T15:42:56.994Z</time></trkpt><trkpt lat="44.260641410743105" lon="11.035295499347978"><ele>631.0</ele><time>2026-05-02T15:42:58.994Z</time></trkpt><trkpt lat="44.26075202970116" lon="11.035391578863756"><ele>631.0</ele><time>2026-05-02T15:42:59.994Z</time></trkpt><trkpt lat="44.26082066009038" lon="11.035456056959884"><ele>631.0</ele><time>2026-05-02T15:43:00.994Z</time></trkpt><trkpt lat="44.26087117216548" lon="11.035532519550285"><ele>631.0</ele><time>2026-05-02T15:43:01.994Z</time></trkpt><trkpt lat="44.26092783653599" lon="11.035600728661068"><ele>631.0</ele><time>2026-05-02T15:43:03.994Z</time></trkpt><trkpt lat="44.26099579668941" lon="11.035669272877257"><ele>631.0</ele><time>2026-05-02T15:43:06.994Z</time></trkpt><trkpt lat="44.26104387163502" lon="11.035742429548838"><ele>631.0</ele><time>2026-05-02T15:43:08.994Z</time></trkpt><trkpt lat="44.26111089552086" lon="11.035814196976608"><ele>629.3333333333334</ele><time>2026-05-02T15:43:10.994Z</time></trkpt><trkpt lat="44.26118401484271" lon="11.035896562562256"><ele>627.6666666666667</ele><time>2026-05-02T15:43:12.994Z</time></trkpt><trkpt lat="44.261258379118196" lon="11.035982538216338"><ele>626.0</ele><time>2026-05-02T15:43:14.994Z</time></trkpt><trkpt lat="44.26132917944475" lon="11.036063664881722"><ele>624.3333333333334</ele><time>2026-05-02T15:43:16.994Z</time></trkpt><trkpt lat="44.261373145360075" lon="11.03613415133488"><ele>622.6666666666666</ele><time>2026-05-02T15:43:18.994Z</time></trkpt><trkpt lat="44.26139902031427" lon="11.036226742525999"><ele>621.0</ele><time>2026-05-02T15:43:20.994Z</time></trkpt><trkpt lat="44.26139951504211" lon="11.036314904789359"><ele>621.0</ele><time>2026-05-02T15:43:28.994Z</time></trkpt><trkpt lat="44.26135283383908" lon="11.036389170668759"><ele>621.0</ele><time>2026-05-02T15:43:33.994Z</time></trkpt><trkpt lat="44.26128253262647" lon="11.036463288947166"><ele>621.0</ele><time>2026-05-02T15:43:35.994Z</time></trkpt><trkpt lat="44.261183872593755" lon="11.036557634889386"><ele>621.0</ele><time>2026-05-02T15:43:37.994Z</time></trkpt><trkpt lat="44.26107416779768" lon="11.03665498737176"><ele>621.0</ele><time>2026-05-02T15:43:39.994Z</time></trkpt><trkpt lat="44.261006936777804" lon="11.036678975900438"><ele>621.0</ele><time>2026-05-02T15:43:40.994Z</time></trkpt><trkpt lat="44.26093820979011" lon="11.036700435353257"><ele>621.0</ele><time>2026-05-02T15:43:41.994Z</time></trkpt><trkpt lat="44.260871815320016" lon="11.036689423129557"><ele>621.0</ele><time>2026-05-02T15:43:42.994Z</time></trkpt><trkpt lat="44.26076465050005" lon="11.03657807795423"><ele>621.0</ele><time>2026-05-02T15:43:44.994Z</time></trkpt><trkpt lat="44.26072213774221" lon="11.036500188507274"><ele>621.0</ele><time>2026-05-02T15:43:45.994Z</time></trkpt><trkpt lat="44.26063161729088" lon="11.036513027715547"><ele>621.0</ele><time>2026-05-02T15:43:46.994Z</time></trkpt><trkpt lat="44.260563180599746" lon="11.03646770520864"><ele>615.0</ele><time>2026-05-02T15:43:47.994Z</time></trkpt><trkpt lat="44.26043658296781" lon="11.036471175428776"><ele>609.0</ele><time>2026-05-02T15:43:49.994Z</time></trkpt><trkpt lat="44.2602164792204" lon="11.036794739511913"><ele>603.0</ele><time>2026-05-02T15:43:51.994Z</time></trkpt><trkpt lat="44.2601171209397" lon="11.036939813413804"><ele>601.75</ele><time>2026-05-02T15:43:52.994Z</time></trkpt><trkpt lat="44.260015628751745" lon="11.037075865239975"><ele>600.5</ele><time>2026-05-02T15:43:53.994Z</time></trkpt><trkpt lat="44.259917773373765" lon="11.037192981136858"><ele>599.25</ele><time>2026-05-02T15:43:54.994Z</time></trkpt><trkpt lat="44.259829678553025" lon="11.037313162630367"><ele>598.0</ele><time>2026-05-02T15:43:55.994Z</time></trkpt><trkpt lat="44.25976003254788" lon="11.037440627517167"><ele>595.0</ele><time>2026-05-02T15:43:56.994Z</time></trkpt><trkpt lat="44.25969545735909" lon="11.037569796714477"><ele>592.0</ele><time>2026-05-02T15:43:57.994Z</time></trkpt><trkpt lat="44.259628138351914" lon="11.037675664755032"><ele>589.0</ele><time>2026-05-02T15:43:58.994Z</time></trkpt><trkpt lat="44.25958941120367" lon="11.037800156606979"><ele>586.0</ele><time>2026-05-02T15:43:59.994Z</time></trkpt><trkpt lat="44.259528460247104" lon="11.037905296886253"><ele>583.0</ele><time>2026-05-02T15:44:00.994Z</time></trkpt><trkpt lat="44.259478970910706" lon="11.038024693804115"><ele>583.0</ele><time>2026-05-02T15:44:01.994Z</time></trkpt><trkpt lat="44.25941576888169" lon="11.038143190476804"><ele>583.0</ele><time>2026-05-02T15:44:02.995Z</time></trkpt><trkpt lat="44.25934166720664" lon="11.038261794709626"><ele>583.0</ele><time>2026-05-02T15:44:03.995Z</time></trkpt><trkpt lat="44.25926548415753" lon="11.038379450242616"><ele>583.0</ele><time>2026-05-02T15:44:04.995Z</time></trkpt><trkpt lat="44.25920275184218" lon="11.038496250793807"><ele>583.0</ele><time>2026-05-02T15:44:05.995Z</time></trkpt><trkpt lat="44.259127407670725" lon="11.038601589510348"><ele>585.0</ele><time>2026-05-02T15:44:06.995Z</time></trkpt><trkpt lat="44.25906391406825" lon="11.038720901101371"><ele>587.0</ele><time>2026-05-02T15:44:07.995Z</time></trkpt><trkpt lat="44.25900489555986" lon="11.038854173267397"><ele>589.0</ele><time>2026-05-02T15:44:08.995Z</time></trkpt><trkpt lat="44.25894829428215" lon="11.038984713052571"><ele>591.0</ele><time>2026-05-02T15:44:09.995Z</time></trkpt><trkpt lat="44.25889795215865" lon="11.03911293094011"><ele>593.0</ele><time>2026-05-02T15:44:10.995Z</time></trkpt><trkpt lat="44.258852693231574" lon="11.039242835956497"><ele>585.8</ele><time>2026-05-02T15:44:11.995Z</time></trkpt><trkpt lat="44.25882650084006" lon="11.039375927231447"><ele>578.5999999999999</ele><time>2026-05-02T15:44:12.995Z</time></trkpt><trkpt lat="44.25881117582873" lon="11.039514341394268"><ele>571.4000000000001</ele><time>2026-05-02T15:44:13.995Z</time></trkpt><trkpt lat="44.25880459169668" lon="11.039657964847493"><ele>564.2</ele><time>2026-05-02T15:44:14.995Z</time></trkpt><trkpt lat="44.2588169441931" lon="11.03980147523959"><ele>557.0</ele><time>2026-05-02T15:44:15.995Z</time></trkpt><trkpt lat="44.25879975756333" lon="11.039941235505626"><ele>559.0</ele><time>2026-05-02T15:44:16.995Z</time></trkpt><trkpt lat="44.258806262752614" lon="11.04007940825797"><ele>561.0</ele><time>2026-05-02T15:44:17.995Z</time></trkpt><trkpt lat="44.25881820577951" lon="11.040213373729147"><ele>563.0</ele><time>2026-05-02T15:44:18.995Z</time></trkpt><trkpt lat="44.258831136743936" lon="11.040366705857089"><ele>565.0</ele><time>2026-05-02T15:44:19.995Z</time></trkpt><trkpt lat="44.25888114947963" lon="11.040508128953935"><ele>567.0</ele><time>2026-05-02T15:44:20.995Z</time></trkpt><trkpt lat="44.25889727493097" lon="11.040662733879921"><ele>568.2</ele><time>2026-05-02T15:44:21.995Z</time></trkpt><trkpt lat="44.258923764195025" lon="11.040804694715405"><ele>569.4000000000001</ele><time>2026-05-02T15:44:22.995Z</time></trkpt><trkpt lat="44.25895104856226" lon="11.04094867975322"><ele>570.5999999999999</ele><time>2026-05-02T15:44:23.995Z</time></trkpt><trkpt lat="44.25898149304661" lon="11.041091058388261"><ele>571.8</ele><time>2026-05-02T15:44:24.995Z</time></trkpt><trkpt lat="44.25901452460445" lon="11.041227153879346"><ele>573.0</ele><time>2026-05-02T15:44:25.995Z</time></trkpt><trkpt lat="44.25904947856442" lon="11.041365473017464"><ele>577.6</ele><time>2026-05-02T15:44:26.995Z</time></trkpt><trkpt lat="44.2590736313226" lon="11.041502392364155"><ele>582.1999999999999</ele><time>2026-05-02T15:44:27.995Z</time></trkpt><trkpt lat="44.25910276358363" lon="11.041636175474212"><ele>586.8</ele><time>2026-05-02T15:44:28.995Z</time></trkpt><trkpt lat="44.259186406383314" lon="11.041749169126282"><ele>591.4</ele><time>2026-05-02T15:44:29.995Z</time></trkpt><trkpt lat="44.259219335811494" lon="11.041879268244637"><ele>596.0</ele><time>2026-05-02T15:44:30.995Z</time></trkpt><trkpt lat="44.259272676863525" lon="11.041985581902082"><ele>596.0</ele><time>2026-05-02T15:44:31.995Z</time></trkpt><trkpt lat="44.25933533194496" lon="11.042096734541676"><ele>596.0</ele><time>2026-05-02T15:44:32.995Z</time></trkpt><trkpt lat="44.25940258945294" lon="11.042201120985133"><ele>596.0</ele><time>2026-05-02T15:44:33.994Z</time></trkpt><trkpt lat="44.25946475841283" lon="11.042286947581792"><ele>596.0</ele><time>2026-05-02T15:44:34.994Z</time></trkpt><trkpt lat="44.259531112768954" lon="11.042357181591257"><ele>596.0</ele><time>2026-05-02T15:44:35.994Z</time></trkpt><trkpt lat="44.259610222564206" lon="11.042321595234457"><ele>596.0</ele><time>2026-05-02T15:44:37.994Z</time></trkpt><trkpt lat="44.259635141848" lon="11.042222392865394"><ele>596.0</ele><time>2026-05-02T15:44:38.994Z</time></trkpt><trkpt lat="44.259872228704644" lon="11.042295696154373"><ele>596.0</ele><time>2026-05-02T15:44:39.994Z</time></trkpt><trkpt lat="44.259940789077675" lon="11.042211005134153"><ele>596.0</ele><time>2026-05-02T15:44:40.994Z</time></trkpt><trkpt lat="44.26001680132939" lon="11.042145773920767"><ele>597.6</ele><time>2026-05-02T15:44:41.994Z</time></trkpt><trkpt lat="44.260104874052544" lon="11.042108587156461"><ele>599.2</ele><time>2026-05-02T15:44:42.994Z</time></trkpt><trkpt lat="44.26019384820494" lon="11.042084558584852"><ele>600.8</ele><time>2026-05-02T15:44:43.994Z</time></trkpt><trkpt lat="44.26028781404693" lon="11.042079317047415"><ele>602.4</ele><time>2026-05-02T15:44:44.994Z</time></trkpt><trkpt lat="44.26037345194383" lon="11.042105876942466"><ele>604.0</ele><time>2026-05-02T15:44:45.995Z</time></trkpt><trkpt lat="44.2604509465802" lon="11.042172129588385"><ele>604.0</ele><time>2026-05-02T15:44:46.994Z</time></trkpt><trkpt lat="44.26053094875344" lon="11.042270494257329"><ele>604.0</ele><time>2026-05-02T15:44:47.994Z</time></trkpt><trkpt lat="44.26059976508036" lon="11.042391383607239"><ele>604.0</ele><time>2026-05-02T15:44:48.994Z</time></trkpt><trkpt lat="44.260646227238695" lon="11.042522073026493"><ele>604.0</ele><time>2026-05-02T15:44:49.994Z</time></trkpt><trkpt lat="44.260670230798446" lon="11.04266852560874"><ele>604.0</ele><time>2026-05-02T15:44:50.994Z</time></trkpt><trkpt lat="44.26067896460734" lon="11.042809725743195"><ele>600.8</ele><time>2026-05-02T15:44:51.994Z</time></trkpt><trkpt lat="44.26068753821206" lon="11.042957987831857"><ele>597.5999999999999</ele><time>2026-05-02T15:44:52.994Z</time></trkpt><trkpt lat="44.260699688582775" lon="11.043102036031776"><ele>594.4</ele><time>2026-05-02T15:44:53.995Z</time></trkpt><trkpt lat="44.260715068755026" lon="11.04324524339079"><ele>591.1999999999999</ele><time>2026-05-02T15:44:54.995Z</time></trkpt><trkpt lat="44.26072021733062" lon="11.043401282615166"><ele>588.0</ele><time>2026-05-02T15:44:55.995Z</time></trkpt><trkpt lat="44.260713137163954" lon="11.043550943478923"><ele>586.6</ele><time>2026-05-02T15:44:56.995Z</time></trkpt><trkpt lat="44.26070403959869" lon="11.043695645063465"><ele>585.1999999999999</ele><time>2026-05-02T15:44:57.995Z</time></trkpt><trkpt lat="44.260690405976824" lon="11.043842515135458"><ele>583.8</ele><time>2026-05-02T15:44:58.995Z</time></trkpt><trkpt lat="44.260664378961884" lon="11.043988754397462"><ele>582.4</ele><time>2026-05-02T15:44:59.995Z</time></trkpt><trkpt lat="44.260625368523876" lon="11.044137895177801"><ele>581.0</ele><time>2026-05-02T15:45:00.995Z</time></trkpt><trkpt lat="44.26059463837704" lon="11.044285238773956"><ele>580.0</ele><time>2026-05-02T15:45:01.995Z</time></trkpt><trkpt lat="44.26056677317032" lon="11.04443337192283"><ele>579.0</ele><time>2026-05-02T15:45:02.995Z</time></trkpt><trkpt lat="44.260591253329565" lon="11.044565624034133"><ele>578.0</ele><time>2026-05-02T15:45:03.995Z</time></trkpt><trkpt lat="44.260644903954066" lon="11.044683185676778"><ele>577.0</ele><time>2026-05-02T15:45:04.995Z</time></trkpt><trkpt lat="44.26071065278584" lon="11.044766205914168"><ele>576.0</ele><time>2026-05-02T15:45:05.995Z</time></trkpt><trkpt lat="44.26078225190432" lon="11.044863614497162"><ele>576.0</ele><time>2026-05-02T15:45:06.995Z</time></trkpt><trkpt lat="44.26084884412603" lon="11.044953055805523"><ele>576.0</ele><time>2026-05-02T15:45:07.995Z</time></trkpt><trkpt lat="44.26090813212288" lon="11.045063381168822"><ele>576.0</ele><time>2026-05-02T15:45:08.995Z</time></trkpt><trkpt lat="44.2609521290194" lon="11.045161859514732"><ele>576.0</ele><time>2026-05-02T15:45:09.995Z</time></trkpt><trkpt lat="44.261027230563386" lon="11.045252422984989"><ele>576.0</ele><time>2026-05-02T15:45:10.995Z</time></trkpt><trkpt lat="44.26111871594314" lon="11.045315251026288"><ele>574.0</ele><time>2026-05-02T15:45:11.995Z</time></trkpt><trkpt lat="44.26121573975514" lon="11.045338823246839"><ele>572.0</ele><time>2026-05-02T15:45:12.995Z</time></trkpt><trkpt lat="44.26131180950745" lon="11.045345538017989"><ele>570.0</ele><time>2026-05-02T15:45:13.995Z</time></trkpt><trkpt lat="44.26140593862247" lon="11.045335739565727"><ele>568.0</ele><time>2026-05-02T15:45:14.995Z</time></trkpt><trkpt lat="44.26149795759975" lon="11.04533833476244"><ele>566.0</ele><time>2026-05-02T15:45:15.995Z</time></trkpt><trkpt lat="44.2615833334736" lon="11.045281884082232"><ele>566.0</ele><time>2026-05-02T15:45:16.995Z</time></trkpt><trkpt lat="44.26166755593163" lon="11.045263075063882"><ele>566.0</ele><time>2026-05-02T15:45:17.995Z</time></trkpt><trkpt lat="44.26175027567785" lon="11.045309646450596"><ele>566.0</ele><time>2026-05-02T15:45:18.995Z</time></trkpt><trkpt lat="44.26180746822731" lon="11.045356523436308"><ele>566.0</ele><time>2026-05-02T15:45:19.995Z</time></trkpt><trkpt lat="44.2618156423891" lon="11.04548287899699"><ele>566.0</ele><time>2026-05-02T15:45:20.995Z</time></trkpt><trkpt lat="44.26175946734074" lon="11.045585008034914"><ele>566.0</ele><time>2026-05-02T15:45:21.995Z</time></trkpt><trkpt lat="44.26168042166012" lon="11.04566137352299"><ele>566.0</ele><time>2026-05-02T15:45:22.995Z</time></trkpt><trkpt lat="44.26157619121912" lon="11.045690126834337"><ele>566.0</ele><time>2026-05-02T15:45:23.995Z</time></trkpt><trkpt lat="44.26147788835737" lon="11.04573540857338"><ele>566.0</ele><time>2026-05-02T15:45:24.995Z</time></trkpt><trkpt lat="44.2613871779661" lon="11.045795388210445"><ele>566.0</ele><time>2026-05-02T15:45:25.995Z</time></trkpt><trkpt lat="44.26129974120139" lon="11.045855427530286"><ele>566.0</ele><time>2026-05-02T15:45:26.995Z</time></trkpt><trkpt lat="44.26121504184675" lon="11.045920727016775"><ele>563.8</ele><time>2026-05-02T15:45:27.995Z</time></trkpt><trkpt lat="44.26112840447216" lon="11.045982572673386"><ele>561.6</ele><time>2026-05-02T15:45:28.995Z</time></trkpt><trkpt lat="44.26104238242533" lon="11.046044214650856"><ele>559.4</ele><time>2026-05-02T15:45:29.995Z</time></trkpt><trkpt lat="44.260943276427554" lon="11.046086210644939"><ele>557.2</ele><time>2026-05-02T15:45:30.995Z</time></trkpt><trkpt lat="44.260849811416826" lon="11.046118385976293"><ele>555.0</ele><time>2026-05-02T15:45:31.995Z</time></trkpt><trkpt lat="44.26076722515401" lon="11.046138635852229"><ele>555.0</ele><time>2026-05-02T15:45:32.996Z</time></trkpt><trkpt lat="44.26067165659186" lon="11.046177588866136"><ele>555.0</ele><time>2026-05-02T15:45:33.996Z</time></trkpt><trkpt lat="44.26057239596841" lon="11.046205317354843"><ele>555.0</ele><time>2026-05-02T15:45:34.996Z</time></trkpt><trkpt lat="44.26049109096203" lon="11.046231848034331"><ele>555.0</ele><time>2026-05-02T15:45:35.996Z</time></trkpt><trkpt lat="44.26040476256309" lon="11.04627743317735"><ele>555.0</ele><time>2026-05-02T15:45:36.996Z</time></trkpt><trkpt lat="44.260330514197705" lon="11.046364727577384"><ele>554.5</ele><time>2026-05-02T15:45:37.996Z</time></trkpt><trkpt lat="44.26025606977133" lon="11.046450244910087"><ele>554.0</ele><time>2026-05-02T15:45:38.996Z</time></trkpt><trkpt lat="44.26019283430681" lon="11.04654071669523"><ele>553.5</ele><time>2026-05-02T15:45:39.996Z</time></trkpt><trkpt lat="44.260122798791436" lon="11.046594960971055"><ele>553.0</ele><time>2026-05-02T15:45:40.996Z</time></trkpt><trkpt lat="44.260059495681986" lon="11.04668013288042"><ele>552.5</ele><time>2026-05-02T15:45:41.996Z</time></trkpt><trkpt lat="44.259992227329676" lon="11.046760660286623"><ele>552.0</ele><time>2026-05-02T15:45:42.996Z</time></trkpt><trkpt lat="44.25991708621967" lon="11.046828957964104"><ele>552.0</ele><time>2026-05-02T15:45:43.996Z</time></trkpt><trkpt lat="44.25985476809595" lon="11.046898007786966"><ele>552.0</ele><time>2026-05-02T15:45:44.996Z</time></trkpt><trkpt lat="44.259790634976135" lon="11.046967642741393"><ele>552.0</ele><time>2026-05-02T15:45:45.996Z</time></trkpt><trkpt lat="44.259716596847596" lon="11.047038728577009"><ele>552.0</ele><time>2026-05-02T15:45:46.996Z</time></trkpt><trkpt lat="44.259629522017406" lon="11.047117766983508"><ele>552.0</ele><time>2026-05-02T15:45:47.996Z</time></trkpt><trkpt lat="44.259541686353124" lon="11.04719868613964"><ele>549.0</ele><time>2026-05-02T15:45:48.996Z</time></trkpt><trkpt lat="44.259464062918234" lon="11.04729827113386"><ele>546.0</ele><time>2026-05-02T15:45:49.996Z</time></trkpt><trkpt lat="44.25938617724068" lon="11.047397001304384"><ele>543.0</ele><time>2026-05-02T15:45:50.996Z</time></trkpt><trkpt lat="44.25930464590645" lon="11.047494801235338"><ele>540.0</ele><time>2026-05-02T15:45:51.996Z</time></trkpt><trkpt lat="44.25921965230661" lon="11.047580799085793"><ele>537.0</ele><time>2026-05-02T15:45:52.996Z</time></trkpt><trkpt lat="44.25913091202849" lon="11.047664974733149"><ele>537.0</ele><time>2026-05-02T15:45:53.996Z</time></trkpt><trkpt lat="44.25904899125307" lon="11.047761762460397"><ele>537.0</ele><time>2026-05-02T15:45:54.996Z</time></trkpt><trkpt lat="44.25897404014864" lon="11.047858564717432"><ele>537.0</ele><time>2026-05-02T15:45:55.996Z</time></trkpt><trkpt lat="44.25889874242789" lon="11.047958807597274"><ele>537.0</ele><time>2026-05-02T15:45:56.996Z</time></trkpt><trkpt lat="44.25882290176495" lon="11.048062594446336"><ele>537.0</ele><time>2026-05-02T15:45:57.996Z</time></trkpt><trkpt lat="44.258763066060496" lon="11.048170829801334"><ele>532.2</ele><time>2026-05-02T15:45:58.996Z</time></trkpt><trkpt lat="44.25872276062982" lon="11.048297043794973"><ele>527.4000000000001</ele><time>2026-05-02T15:45:59.996Z</time></trkpt><trkpt lat="44.2586961753904" lon="11.048429562167494"><ele>522.5999999999999</ele><time>2026-05-02T15:46:00.996Z</time></trkpt><trkpt lat="44.25867949032939" lon="11.048567470535238"><ele>517.8</ele><time>2026-05-02T15:46:01.996Z</time></trkpt><trkpt lat="44.25865316108963" lon="11.048702422907313"><ele>513.0</ele><time>2026-05-02T15:46:02.996Z</time></trkpt><trkpt lat="44.25862019025021" lon="11.048836923256275"><ele>513.0</ele><time>2026-05-02T15:46:03.996Z</time></trkpt><trkpt lat="44.25859006409373" lon="11.04896810724972"><ele>513.0</ele><time>2026-05-02T15:46:04.996Z</time></trkpt><trkpt lat="44.25857725524316" lon="11.04911826780377"><ele>513.0</ele><time>2026-05-02T15:46:05.996Z</time></trkpt><trkpt lat="44.25857294556654" lon="11.049252447993576"><ele>513.0</ele><time>2026-05-02T15:46:06.996Z</time></trkpt><trkpt lat="44.2585761822058" lon="11.049394772070574"><ele>513.0</ele><time>2026-05-02T15:46:07.996Z</time></trkpt><trkpt lat="44.25857518454293" lon="11.049542694576408"><ele>514.1999999999999</ele><time>2026-05-02T15:46:08.996Z</time></trkpt><trkpt lat="44.25852074435152" lon="11.04965331675891"><ele>515.4</ele><time>2026-05-02T15:46:09.996Z</time></trkpt><trkpt lat="44.25848487228568" lon="11.049779059943413"><ele>516.5999999999999</ele><time>2026-05-02T15:46:10.996Z</time></trkpt><trkpt lat="44.258451307637735" lon="11.049905810477732"><ele>517.8</ele><time>2026-05-02T15:46:11.997Z</time></trkpt><trkpt lat="44.258444388160065" lon="11.050019117429585"><ele>519.0</ele><time>2026-05-02T15:46:12.997Z</time></trkpt><trkpt lat="44.25847479208433" lon="11.050147324784874"><ele>519.0</ele><time>2026-05-02T15:46:13.997Z</time></trkpt><trkpt lat="44.25850851213092" lon="11.05025630829011"><ele>519.0</ele><time>2026-05-02T15:46:14.997Z</time></trkpt><trkpt lat="44.25852318814454" lon="11.050388108771221"><ele>519.0</ele><time>2026-05-02T15:46:15.997Z</time></trkpt><trkpt lat="44.2585011323093" lon="11.050522393768238"><ele>519.0</ele><time>2026-05-02T15:46:16.997Z</time></trkpt><trkpt lat="44.258433286132394" lon="11.05062780786957"><ele>519.0</ele><time>2026-05-02T15:46:17.997Z</time></trkpt><trkpt lat="44.25838507744611" lon="11.050753423130159"><ele>518.8</ele><time>2026-05-02T15:46:18.997Z</time></trkpt><trkpt lat="44.25832625521863" lon="11.050863877152631"><ele>518.5999999999999</ele><time>2026-05-02T15:46:19.997Z</time></trkpt><trkpt lat="44.2582739996367" lon="11.05097637558276"><ele>518.4</ele><time>2026-05-02T15:46:20.997Z</time></trkpt><trkpt lat="44.258216733515965" lon="11.051091072380233"><ele>518.1999999999999</ele><time>2026-05-02T15:46:21.997Z</time></trkpt><trkpt lat="44.25816719272649" lon="11.051203324889592"><ele>518.0</ele><time>2026-05-02T15:46:22.997Z</time></trkpt><trkpt lat="44.25809690165406" lon="11.051303449231924"><ele>511.59999999999997</ele><time>2026-05-02T15:46:23.997Z</time></trkpt><trkpt lat="44.25804763233506" lon="11.051412257704422"><ele>505.19999999999993</ele><time>2026-05-02T15:46:24.997Z</time></trkpt><trkpt lat="44.258009481488436" lon="11.051529784221714"><ele>498.8</ele><time>2026-05-02T15:46:25.997Z</time></trkpt><trkpt lat="44.25798499642066" lon="11.051628164919661"><ele>492.4</ele><time>2026-05-02T15:46:26.997Z</time></trkpt><trkpt lat="44.25799192660497" lon="11.051766385413758"><ele>486.0</ele><time>2026-05-02T15:46:27.997Z</time></trkpt><trkpt lat="44.258011715116766" lon="11.051915199873998"><ele>485.8333333333333</ele><time>2026-05-02T15:46:28.997Z</time></trkpt><trkpt lat="44.258044969334264" lon="11.05204446764707"><ele>485.66666666666663</ele><time>2026-05-02T15:46:29.997Z</time></trkpt><trkpt lat="44.25808113069554" lon="11.05214819162753"><ele>485.5</ele><time>2026-05-02T15:46:30.997Z</time></trkpt><trkpt lat="44.25811916975482" lon="11.052254792729888"><ele>485.3333333333333</ele><time>2026-05-02T15:46:31.997Z</time></trkpt><trkpt lat="44.258159799221545" lon="11.05235881660864"><ele>485.16666666666663</ele><time>2026-05-02T15:46:32.997Z</time></trkpt><trkpt lat="44.258172893962985" lon="11.052467470894138"><ele>485.0</ele><time>2026-05-02T15:46:33.997Z</time></trkpt><trkpt lat="44.2581705180416" lon="11.052578591704298"><ele>489.6</ele><time>2026-05-02T15:46:34.997Z</time></trkpt><trkpt lat="44.25817268517012" lon="11.052710951115252"><ele>494.2</ele><time>2026-05-02T15:46:35.997Z</time></trkpt><trkpt lat="44.25820865894624" lon="11.052834585607583"><ele>498.79999999999995</ele><time>2026-05-02T15:46:36.997Z</time></trkpt><trkpt lat="44.258272147722685" lon="11.052959332143462"><ele>503.4</ele><time>2026-05-02T15:46:37.997Z</time></trkpt><trkpt lat="44.2583330919708" lon="11.052986883298745"><ele>508.0</ele><time>2026-05-02T15:46:38.997Z</time></trkpt><trkpt lat="44.25842806696519" lon="11.052985341065622"><ele>508.0</ele><time>2026-05-02T15:46:39.995Z</time></trkpt><trkpt lat="44.25850029432584" lon="11.052956082871923"><ele>508.0</ele><time>2026-05-02T15:46:40.995Z</time></trkpt><trkpt lat="44.25865763674218" lon="11.052941407392327"><ele>508.0</ele><time>2026-05-02T15:46:42.995Z</time></trkpt><trkpt lat="44.25877169092898" lon="11.052968358102207"><ele>508.0</ele><time>2026-05-02T15:46:43.995Z</time></trkpt><trkpt lat="44.258868378419876" lon="11.053016667629242"><ele>508.0</ele><time>2026-05-02T15:46:44.995Z</time></trkpt><trkpt lat="44.258943571553196" lon="11.053077327819897"><ele>508.0</ele><time>2026-05-02T15:46:45.995Z</time></trkpt><trkpt lat="44.25903522574169" lon="11.05323685657976"><ele>508.0</ele><time>2026-05-02T15:46:47.995Z</time></trkpt><trkpt lat="44.25912879517839" lon="11.053319924784406"><ele>508.0</ele><time>2026-05-02T15:46:48.996Z</time></trkpt><trkpt lat="44.259232608339765" lon="11.053375642135594"><ele>510.0</ele><time>2026-05-02T15:46:49.996Z</time></trkpt><trkpt lat="44.25933800747322" lon="11.053398538665238"><ele>512.0</ele><time>2026-05-02T15:46:50.996Z</time></trkpt><trkpt lat="44.25943585624153" lon="11.053370968279918"><ele>514.0</ele><time>2026-05-02T15:46:51.995Z</time></trkpt><trkpt lat="44.259516625659565" lon="11.053227616479962"><ele>516.0</ele><time>2026-05-02T15:46:52.996Z</time></trkpt><trkpt lat="44.259525949514256" lon="11.053053130964724"><ele>516.0</ele><time>2026-05-02T15:46:53.996Z</time></trkpt><trkpt lat="44.259549284822505" lon="11.052961858441154"><ele>516.0</ele><time>2026-05-02T15:46:54.996Z</time></trkpt><trkpt lat="44.25958376599364" lon="11.052883692017064"><ele>516.0</ele><time>2026-05-02T15:46:55.996Z</time></trkpt><trkpt lat="44.2597062872778" lon="11.052782408745013"><ele>516.0</ele><time>2026-05-02T15:46:57.996Z</time></trkpt><trkpt lat="44.25977653522264" lon="11.052727872889761"><ele>516.0</ele><time>2026-05-02T15:46:58.996Z</time></trkpt><trkpt lat="44.25983735102761" lon="11.052692246167238"><ele>516.0</ele><time>2026-05-02T15:46:59.996Z</time></trkpt><trkpt lat="44.25995275358817" lon="11.052714929729053"><ele>513.3333333333334</ele><time>2026-05-02T15:47:01.996Z</time></trkpt><trkpt lat="44.259967295831345" lon="11.052808332366599"><ele>510.66666666666663</ele><time>2026-05-02T15:47:02.996Z</time></trkpt><trkpt lat="44.25996336833424" lon="11.052907910517417"><ele>508.0</ele><time>2026-05-02T15:47:03.996Z</time></trkpt><trkpt lat="44.259944445521214" lon="11.053034144431944"><ele>505.3333333333333</ele><time>2026-05-02T15:47:05.996Z</time></trkpt><trkpt lat="44.259931095623" lon="11.053121338486608"><ele>502.66666666666663</ele><time>2026-05-02T15:47:07.996Z</time></trkpt><trkpt lat="44.25992467378649" lon="11.053244056620676"><ele>500.0</ele><time>2026-05-02T15:47:09.996Z</time></trkpt><trkpt lat="44.259926360364666" lon="11.053401169575626"><ele>498.66666666666663</ele><time>2026-05-02T15:47:11.996Z</time></trkpt><trkpt lat="44.25992973141145" lon="11.053489573797851"><ele>497.3333333333333</ele><time>2026-05-02T15:47:12.996Z</time></trkpt><trkpt lat="44.2599394508197" lon="11.053651513622798"><ele>496.0</ele><time>2026-05-02T15:47:14.996Z</time></trkpt><trkpt lat="44.25994131063231" lon="11.053739640617477"><ele>494.66666666666663</ele><time>2026-05-02T15:47:15.996Z</time></trkpt><trkpt lat="44.25992851297325" lon="11.053878615657664"><ele>493.3333333333333</ele><time>2026-05-02T15:47:17.996Z</time></trkpt><trkpt lat="44.25989433785887" lon="11.053953718010105"><ele>492.0</ele><time>2026-05-02T15:47:18.997Z</time></trkpt><trkpt lat="44.25983650019505" lon="11.054076789493912"><ele>491.8333333333333</ele><time>2026-05-02T15:47:20.997Z</time></trkpt><trkpt lat="44.25973694680165" lon="11.054059063320803"><ele>491.66666666666663</ele><time>2026-05-02T15:47:21.997Z</time></trkpt><trkpt lat="44.2596308243456" lon="11.054104320660867"><ele>491.5</ele><time>2026-05-02T15:47:23.997Z</time></trkpt><trkpt lat="44.25956510605601" lon="11.054132545343522"><ele>491.3333333333333</ele><time>2026-05-02T15:47:24.997Z</time></trkpt><trkpt lat="44.25949975976214" lon="11.054179344496431"><ele>491.16666666666663</ele><time>2026-05-02T15:47:25.997Z</time></trkpt><trkpt lat="44.259440531541706" lon="11.054236043498248"><ele>491.0</ele><time>2026-05-02T15:47:26.997Z</time></trkpt><trkpt lat="44.25938476016681" lon="11.054301383382592"><ele>488.99999999999994</ele><time>2026-05-02T15:47:27.997Z</time></trkpt><trkpt lat="44.25933229152865" lon="11.05438275551291"><ele>487.0</ele><time>2026-05-02T15:47:28.997Z</time></trkpt><trkpt lat="44.25930096204259" lon="11.054475588375201"><ele>485.0</ele><time>2026-05-02T15:47:29.997Z</time></trkpt><trkpt lat="44.25928673357927" lon="11.05457461141938"><ele>483.0</ele><time>2026-05-02T15:47:30.997Z</time></trkpt><trkpt lat="44.2592686664772" lon="11.054678760007135"><ele>480.99999999999994</ele><time>2026-05-02T15:47:31.997Z</time></trkpt><trkpt lat="44.25923186795958" lon="11.054783579220915"><ele>479.0</ele><time>2026-05-02T15:47:32.997Z</time></trkpt><trkpt lat="44.2592105215285" lon="11.05488198355022"><ele>479.0</ele><time>2026-05-02T15:47:33.997Z</time></trkpt><trkpt lat="44.25915951518737" lon="11.054952317942403"><ele>479.0</ele><time>2026-05-02T15:47:34.997Z</time></trkpt><trkpt lat="44.25911019917354" lon="11.055016305737894"><ele>479.0</ele><time>2026-05-02T15:47:35.997Z</time></trkpt><trkpt lat="44.25890145218914" lon="11.055155702503292"><ele>479.0</ele><time>2026-05-02T15:47:36.997Z</time></trkpt><trkpt lat="44.25889627465032" lon="11.055270639158865"><ele>480.2</ele><time>2026-05-02T15:47:37.997Z</time></trkpt><trkpt lat="44.258930588766724" lon="11.055449715588793"><ele>481.4</ele><time>2026-05-02T15:47:38.997Z</time></trkpt><trkpt lat="44.25901016813459" lon="11.05557454065203"><ele>482.6</ele><time>2026-05-02T15:47:39.997Z</time></trkpt><trkpt lat="44.2590658724106" lon="11.055649932859323"><ele>483.8</ele><time>2026-05-02T15:47:40.997Z</time></trkpt><trkpt lat="44.25911432453649" lon="11.055710555989466"><ele>485.0</ele><time>2026-05-02T15:47:41.997Z</time></trkpt><trkpt lat="44.259167903967665" lon="11.055782583689604"><ele>485.0</ele><time>2026-05-02T15:47:42.997Z</time></trkpt><trkpt lat="44.25924483576133" lon="11.055887932250487"><ele>485.0</ele><time>2026-05-02T15:47:44.997Z</time></trkpt><trkpt lat="44.2594621748497" lon="11.055480701809191"><ele>485.0</ele><time>2026-05-02T15:47:47.997Z</time></trkpt><trkpt lat="44.25898844542782" lon="11.05554247499529"><ele>484.99999999999994</ele><time>2026-05-02T15:47:59.998Z</time></trkpt><trkpt lat="44.25902635378485" lon="11.055563252830858"><ele>485.0</ele><time>2026-05-02T15:53:40.994Z</time></trkpt><trkpt lat="44.25912146675198" lon="11.055670967234443"><ele>485.0</ele><time>2026-05-02T15:53:42.994Z</time></trkpt><trkpt lat="44.259148927794556" lon="11.055756597952856"><ele>485.0</ele><time>2026-05-02T15:53:43.994Z</time></trkpt><trkpt lat="44.259229537143305" lon="11.055885711139757"><ele>484.99999999999994</ele><time>2026-05-02T15:53:45.994Z</time></trkpt><trkpt lat="44.259267718154916" lon="11.055961614409998"><ele>485.0</ele><time>2026-05-02T15:53:46.994Z</time></trkpt><trkpt lat="44.25928659040477" lon="11.056057278762788"><ele>485.4</ele><time>2026-05-02T15:53:47.994Z</time></trkpt><trkpt lat="44.25931441156783" lon="11.056163799754168"><ele>485.8</ele><time>2026-05-02T15:53:48.994Z</time></trkpt><trkpt lat="44.25934281220256" lon="11.05627953203816"><ele>486.20000000000005</ele><time>2026-05-02T15:53:49.994Z</time></trkpt><trkpt lat="44.25937151266454" lon="11.056405146415324"><ele>486.6</ele><time>2026-05-02T15:53:50.994Z</time></trkpt><trkpt lat="44.259404335882486" lon="11.056535240628122"><ele>487.0</ele><time>2026-05-02T15:53:51.994Z</time></trkpt><trkpt lat="44.259454599096074" lon="11.056645072399808"><ele>484.6</ele><time>2026-05-02T15:53:52.994Z</time></trkpt><trkpt lat="44.25949783107711" lon="11.05678031544221"><ele>482.20000000000005</ele><time>2026-05-02T15:53:53.994Z</time></trkpt><trkpt lat="44.25955695080424" lon="11.056906221993273"><ele>479.8</ele><time>2026-05-02T15:53:54.994Z</time></trkpt><trkpt lat="44.25963066154908" lon="11.057023740369313"><ele>477.4</ele><time>2026-05-02T15:53:55.994Z</time></trkpt><trkpt lat="44.25969197128064" lon="11.05712182501997"><ele>475.0</ele><time>2026-05-02T15:53:56.994Z</time></trkpt><trkpt lat="44.25972463441544" lon="11.057255702424726"><ele>475.0</ele><time>2026-05-02T15:53:57.994Z</time></trkpt><trkpt lat="44.259758835267725" lon="11.057397542438357"><ele>475.0</ele><time>2026-05-02T15:53:58.995Z</time></trkpt><trkpt lat="44.25979481264362" lon="11.057546106948735"><ele>475.0</ele><time>2026-05-02T15:53:59.995Z</time></trkpt><trkpt lat="44.25983567175024" lon="11.057687866384684"><ele>475.0</ele><time>2026-05-02T15:54:00.995Z</time></trkpt><trkpt lat="44.2598795242137" lon="11.057818463143807"><ele>475.0</ele><time>2026-05-02T15:54:01.995Z</time></trkpt><trkpt lat="44.259927396422235" lon="11.05794460812788"><ele>477.0</ele><time>2026-05-02T15:54:02.995Z</time></trkpt><trkpt lat="44.25997921004399" lon="11.05805375233442"><ele>479.0</ele><time>2026-05-02T15:54:03.995Z</time></trkpt><trkpt lat="44.26002348011721" lon="11.05817071366934"><ele>481.0</ele><time>2026-05-02T15:54:04.995Z</time></trkpt><trkpt lat="44.26004401484211" lon="11.058302473559774"><ele>483.0</ele><time>2026-05-02T15:54:05.995Z</time></trkpt><trkpt lat="44.26005142674816" lon="11.058421080392575"><ele>485.0</ele><time>2026-05-02T15:54:06.995Z</time></trkpt><trkpt lat="44.260053388715406" lon="11.058551549675965"><ele>485.0</ele><time>2026-05-02T15:54:07.995Z</time></trkpt><trkpt lat="44.26005632736421" lon="11.058691595913302"><ele>485.0</ele><time>2026-05-02T15:54:08.995Z</time></trkpt><trkpt lat="44.260072492868346" lon="11.0588044038148"><ele>485.0</ele><time>2026-05-02T15:54:09.995Z</time></trkpt><trkpt lat="44.260077239239735" lon="11.058911349338684"><ele>485.0</ele><time>2026-05-02T15:54:10.995Z</time></trkpt><trkpt lat="44.26012500987788" lon="11.059025178268177"><ele>485.0</ele><time>2026-05-02T15:54:11.995Z</time></trkpt><trkpt lat="44.26019938611989" lon="11.05911117649816"><ele>485.99999999999994</ele><time>2026-05-02T15:54:12.995Z</time></trkpt><trkpt lat="44.26028685326743" lon="11.059166488789106"><ele>487.0</ele><time>2026-05-02T15:54:13.995Z</time></trkpt><trkpt lat="44.260371826507495" lon="11.059201708241263"><ele>488.0</ele><time>2026-05-02T15:54:14.995Z</time></trkpt><trkpt lat="44.26046303003084" lon="11.059198065797405"><ele>489.0</ele><time>2026-05-02T15:54:15.995Z</time></trkpt><trkpt lat="44.2605421033235" lon="11.059236156334164"><ele>489.99999999999994</ele><time>2026-05-02T15:54:16.995Z</time></trkpt><trkpt lat="44.2606219198485" lon="11.059257789458021"><ele>491.0</ele><time>2026-05-02T15:54:17.995Z</time></trkpt><trkpt lat="44.26069911694912" lon="11.05927552212129"><ele>490.99999999999994</ele><time>2026-05-02T15:54:18.995Z</time></trkpt><trkpt lat="44.26079298970678" lon="11.059314187896101"><ele>491.0</ele><time>2026-05-02T15:54:19.995Z</time></trkpt><trkpt lat="44.26088569610299" lon="11.059336039012344"><ele>491.0</ele><time>2026-05-02T15:54:20.995Z</time></trkpt><trkpt lat="44.260963826176656" lon="11.05937027135153"><ele>491.0</ele><time>2026-05-02T15:54:21.995Z</time></trkpt><trkpt lat="44.26102654884277" lon="11.059428349007792"><ele>490.99999999999994</ele><time>2026-05-02T15:54:22.995Z</time></trkpt><trkpt lat="44.26108253451339" lon="11.05951379852551"><ele>491.0</ele><time>2026-05-02T15:54:23.995Z</time></trkpt><trkpt lat="44.26111489749379" lon="11.05960207476385"><ele>490.99999999999994</ele><time>2026-05-02T15:54:24.995Z</time></trkpt><trkpt lat="44.26114709677462" lon="11.059700347904954"><ele>491.0</ele><time>2026-05-02T15:54:25.995Z</time></trkpt><trkpt lat="44.261173360442925" lon="11.05979039440795"><ele>491.0</ele><time>2026-05-02T15:54:26.995Z</time></trkpt><trkpt lat="44.261229898785395" lon="11.05986476201946"><ele>491.0</ele><time>2026-05-02T15:54:27.995Z</time></trkpt><trkpt lat="44.2612938578399" lon="11.059907291320645"><ele>490.99999999999994</ele><time>2026-05-02T15:54:28.995Z</time></trkpt><trkpt lat="44.26137872864251" lon="11.059929221995107"><ele>491.0</ele><time>2026-05-02T15:54:29.995Z</time></trkpt><trkpt lat="44.26145173563387" lon="11.059946506632675"><ele>490.99999999999994</ele><time>2026-05-02T15:54:30.995Z</time></trkpt><trkpt lat="44.26153489673165" lon="11.059996469643414"><ele>491.0</ele><time>2026-05-02T15:54:31.995Z</time></trkpt><trkpt lat="44.261606749767644" lon="11.060080327350345"><ele>491.0</ele><time>2026-05-02T15:54:32.995Z</time></trkpt><trkpt lat="44.261661437393286" lon="11.060176635565112"><ele>491.0</ele><time>2026-05-02T15:54:33.995Z</time></trkpt><trkpt lat="44.2616889706557" lon="11.060280838363983"><ele>490.99999999999994</ele><time>2026-05-02T15:54:34.995Z</time></trkpt><trkpt lat="44.26172724425977" lon="11.060391710392494"><ele>491.0</ele><time>2026-05-02T15:54:35.995Z</time></trkpt><trkpt lat="44.261768327487864" lon="11.060496911027583"><ele>490.99999999999994</ele><time>2026-05-02T15:54:36.995Z</time></trkpt><trkpt lat="44.261806257495785" lon="11.060607566793607"><ele>491.0</ele><time>2026-05-02T15:54:37.995Z</time></trkpt><trkpt lat="44.26184945172429" lon="11.060713173127702"><ele>491.0</ele><time>2026-05-02T15:54:38.995Z</time></trkpt><trkpt lat="44.26190156234615" lon="11.060817586277247"><ele>491.0</ele><time>2026-05-02T15:54:39.995Z</time></trkpt><trkpt lat="44.26197645729458" lon="11.060879635019884"><ele>490.99999999999994</ele><time>2026-05-02T15:54:40.996Z</time></trkpt><trkpt lat="44.26206741064471" lon="11.060917938814033"><ele>491.0</ele><time>2026-05-02T15:54:41.996Z</time></trkpt><trkpt lat="44.26214965128793" lon="11.060944783681043"><ele>489.6</ele><time>2026-05-02T15:54:42.996Z</time></trkpt><trkpt lat="44.26224123064781" lon="11.060979080384307"><ele>488.20000000000005</ele><time>2026-05-02T15:54:43.996Z</time></trkpt><trkpt lat="44.26233683038706" lon="11.061045099204355"><ele>486.79999999999995</ele><time>2026-05-02T15:54:44.996Z</time></trkpt><trkpt lat="44.262409811120285" lon="11.061113896634751"><ele>485.4</ele><time>2026-05-02T15:54:45.996Z</time></trkpt><trkpt lat="44.262479118362684" lon="11.061203017056704"><ele>484.0</ele><time>2026-05-02T15:54:46.996Z</time></trkpt><trkpt lat="44.26253814673" lon="11.06129711493276"><ele>484.0</ele><time>2026-05-02T15:54:47.996Z</time></trkpt><trkpt lat="44.262605430743136" lon="11.061396390166623"><ele>484.0</ele><time>2026-05-02T15:54:48.996Z</time></trkpt><trkpt lat="44.262644158723795" lon="11.061513302106606"><ele>484.0</ele><time>2026-05-02T15:54:49.996Z</time></trkpt><trkpt lat="44.26269844494678" lon="11.061621444268635"><ele>484.0</ele><time>2026-05-02T15:54:50.996Z</time></trkpt><trkpt lat="44.26274879447914" lon="11.061711894463995"><ele>484.0</ele><time>2026-05-02T15:54:51.996Z</time></trkpt><trkpt lat="44.26281913867666" lon="11.061774302590967"><ele>484.00000000000006</ele><time>2026-05-02T15:54:52.996Z</time></trkpt><trkpt lat="44.26289063751718" lon="11.061785769062126"><ele>484.0</ele><time>2026-05-02T15:54:53.996Z</time></trkpt><trkpt lat="44.26295678261691" lon="11.061751242919575"><ele>484.0</ele><time>2026-05-02T15:54:54.996Z</time></trkpt><trkpt lat="44.263016901438775" lon="11.0616710314024"><ele>484.0</ele><time>2026-05-02T15:54:55.996Z</time></trkpt><trkpt lat="44.26303788420361" lon="11.061554355183135"><ele>484.00000000000006</ele><time>2026-05-02T15:54:56.996Z</time></trkpt><trkpt lat="44.263084555425095" lon="11.061470456137128"><ele>484.0</ele><time>2026-05-02T15:54:57.996Z</time></trkpt><trkpt lat="44.26312012176871" lon="11.06136656776917"><ele>479.4</ele><time>2026-05-02T15:54:58.996Z</time></trkpt><trkpt lat="44.26316143602049" lon="11.06124472663928"><ele>474.79999999999995</ele><time>2026-05-02T15:54:59.996Z</time></trkpt><trkpt lat="44.26320518161755" lon="11.06111289293275"><ele>470.20000000000005</ele><time>2026-05-02T15:55:00.996Z</time></trkpt><trkpt lat="44.26324407897294" lon="11.06098781411744"><ele>465.6</ele><time>2026-05-02T15:55:01.996Z</time></trkpt><trkpt lat="44.26327582174975" lon="11.06087351640695"><ele>461.0</ele><time>2026-05-02T15:55:02.996Z</time></trkpt><trkpt lat="44.26328688367168" lon="11.060743519499795"><ele>460.99999999999994</ele><time>2026-05-02T15:55:03.994Z</time></trkpt><trkpt lat="44.26329799978825" lon="11.060637816254772"><ele>461.0</ele><time>2026-05-02T15:55:04.994Z</time></trkpt><trkpt lat="44.26330048813365" lon="11.060522104347204"><ele>461.0</ele><time>2026-05-02T15:55:05.994Z</time></trkpt><trkpt lat="44.263291032348185" lon="11.060392017464958"><ele>461.0</ele><time>2026-05-02T15:55:06.995Z</time></trkpt><trkpt lat="44.26327278899702" lon="11.060258884727956"><ele>460.99999999999994</ele><time>2026-05-02T15:55:07.994Z</time></trkpt><trkpt lat="44.263277196313034" lon="11.060139727996622"><ele>461.0</ele><time>2026-05-02T15:55:08.994Z</time></trkpt><trkpt lat="44.263257829927376" lon="11.060026872191361"><ele>462.8333333333333</ele><time>2026-05-02T15:55:09.994Z</time></trkpt><trkpt lat="44.26323742950425" lon="11.059913822116826"><ele>464.66666666666663</ele><time>2026-05-02T15:55:10.994Z</time></trkpt><trkpt lat="44.263231184280436" lon="11.059799002736328"><ele>466.5</ele><time>2026-05-02T15:55:11.994Z</time></trkpt><trkpt lat="44.26324187436222" lon="11.059685811638172"><ele>468.33333333333337</ele><time>2026-05-02T15:55:12.994Z</time></trkpt><trkpt lat="44.2632618348604" lon="11.059569088429976"><ele>470.1666666666667</ele><time>2026-05-02T15:55:13.994Z</time></trkpt><trkpt lat="44.263289334627906" lon="11.059452473731534"><ele>472.0</ele><time>2026-05-02T15:55:14.994Z</time></trkpt><trkpt lat="44.26332414866316" lon="11.059340934868818"><ele>472.0</ele><time>2026-05-02T15:55:15.994Z</time></trkpt><trkpt lat="44.263346974503506" lon="11.059205376320234"><ele>472.00000000000006</ele><time>2026-05-02T15:55:16.995Z</time></trkpt><trkpt lat="44.26340123937154" lon="11.059106110887226"><ele>472.00000000000006</ele><time>2026-05-02T15:55:17.995Z</time></trkpt><trkpt lat="44.263461639746836" lon="11.059012206223567"><ele>472.0</ele><time>2026-05-02T15:55:18.995Z</time></trkpt><trkpt lat="44.26352483655534" lon="11.058928699715445"><ele>472.0</ele><time>2026-05-02T15:55:19.995Z</time></trkpt><trkpt lat="44.263569097233116" lon="11.058827820330903"><ele>476.1666666666667</ele><time>2026-05-02T15:55:20.995Z</time></trkpt><trkpt lat="44.263639341915336" lon="11.058761973512752"><ele>480.33333333333337</ele><time>2026-05-02T15:55:21.995Z</time></trkpt><trkpt lat="44.263684441643825" lon="11.05868365765907"><ele>484.5</ele><time>2026-05-02T15:55:22.995Z</time></trkpt><trkpt lat="44.26374751781864" lon="11.058690921751067"><ele>488.66666666666663</ele><time>2026-05-02T15:55:23.995Z</time></trkpt><trkpt lat="44.26381801564598" lon="11.058752679984716"><ele>492.8333333333333</ele><time>2026-05-02T15:55:24.995Z</time></trkpt><trkpt lat="44.263871047861436" lon="11.058866423044966"><ele>497.0</ele><time>2026-05-02T15:55:25.995Z</time></trkpt><trkpt lat="44.26388545249531" lon="11.058973907637434"><ele>497.0</ele><time>2026-05-02T15:55:26.995Z</time></trkpt><trkpt lat="44.26388905617712" lon="11.059113085326707"><ele>497.00000000000006</ele><time>2026-05-02T15:55:27.995Z</time></trkpt><trkpt lat="44.263900133875474" lon="11.059246885766006"><ele>497.00000000000006</ele><time>2026-05-02T15:55:28.995Z</time></trkpt><trkpt lat="44.26389017592079" lon="11.059369220240718"><ele>497.0</ele><time>2026-05-02T15:55:29.995Z</time></trkpt><trkpt lat="44.26390451329322" lon="11.059488291940895"><ele>497.0</ele><time>2026-05-02T15:55:30.995Z</time></trkpt><trkpt lat="44.26395529908228" lon="11.059618550341805"><ele>493.8</ele><time>2026-05-02T15:55:31.995Z</time></trkpt><trkpt lat="44.26400496796886" lon="11.059742307915586"><ele>490.6</ele><time>2026-05-02T15:55:32.995Z</time></trkpt><trkpt lat="44.264073468945746" lon="11.05985726151972"><ele>487.40000000000003</ele><time>2026-05-02T15:55:33.995Z</time></trkpt><trkpt lat="44.26415323978215" lon="11.05993486000001"><ele>484.20000000000005</ele><time>2026-05-02T15:55:34.995Z</time></trkpt><trkpt lat="44.264238963660745" lon="11.060000426112794"><ele>481.0</ele><time>2026-05-02T15:55:35.995Z</time></trkpt><trkpt lat="44.26433611059453" lon="11.060032587944"><ele>479.0</ele><time>2026-05-02T15:55:36.995Z</time></trkpt><trkpt lat="44.264439452108995" lon="11.060048078957946"><ele>477.0</ele><time>2026-05-02T15:55:37.995Z</time></trkpt><trkpt lat="44.2645429060674" lon="11.060058302500586"><ele>475.0</ele><time>2026-05-02T15:55:38.995Z</time></trkpt><trkpt lat="44.26463767996204" lon="11.06006712294779"><ele>473.0</ele><time>2026-05-02T15:55:39.995Z</time></trkpt><trkpt lat="44.26473829060434" lon="11.060089646132052"><ele>471.0</ele><time>2026-05-02T15:55:40.995Z</time></trkpt><trkpt lat="44.26484006789186" lon="11.060129375330087"><ele>471.0</ele><time>2026-05-02T15:55:41.995Z</time></trkpt><trkpt lat="44.2649344620751" lon="11.060151703614567"><ele>471.0</ele><time>2026-05-02T15:55:42.995Z</time></trkpt><trkpt lat="44.26504119486887" lon="11.0601770992355"><ele>471.0</ele><time>2026-05-02T15:55:43.995Z</time></trkpt><trkpt lat="44.26514191892813" lon="11.060184298718056"><ele>471.0</ele><time>2026-05-02T15:55:44.995Z</time></trkpt><trkpt lat="44.265246653225056" lon="11.060185094547624"><ele>471.0</ele><time>2026-05-02T15:55:45.995Z</time></trkpt><trkpt lat="44.26535279612567" lon="11.060175542498898"><ele>471.0</ele><time>2026-05-02T15:55:46.995Z</time></trkpt><trkpt lat="44.265456046238" lon="11.060183368824479"><ele>471.0</ele><time>2026-05-02T15:55:47.995Z</time></trkpt><trkpt lat="44.265560913935474" lon="11.060226640060826"><ele>471.0</ele><time>2026-05-02T15:55:48.995Z</time></trkpt><trkpt lat="44.26565021769477" lon="11.060296027997424"><ele>471.0</ele><time>2026-05-02T15:55:49.995Z</time></trkpt><trkpt lat="44.26573404626991" lon="11.060409927634057"><ele>471.0</ele><time>2026-05-02T15:55:50.995Z</time></trkpt><trkpt lat="44.26581266680637" lon="11.060508549917287"><ele>473.0</ele><time>2026-05-02T15:55:51.995Z</time></trkpt><trkpt lat="44.26590315720193" lon="11.060572208196065"><ele>475.0</ele><time>2026-05-02T15:55:52.995Z</time></trkpt><trkpt lat="44.26599926012927" lon="11.060614223177632"><ele>477.0</ele><time>2026-05-02T15:55:53.996Z</time></trkpt><trkpt lat="44.26610712720687" lon="11.060642691250475"><ele>479.0</ele><time>2026-05-02T15:55:54.996Z</time></trkpt><trkpt lat="44.26621850744968" lon="11.060662802941517"><ele>481.0</ele><time>2026-05-02T15:55:55.996Z</time></trkpt><trkpt lat="44.26631470700057" lon="11.060700622711986"><ele>481.00000000000006</ele><time>2026-05-02T15:55:56.996Z</time></trkpt><trkpt lat="44.2664095210718" lon="11.060715546775059"><ele>481.0</ele><time>2026-05-02T15:55:57.996Z</time></trkpt><trkpt lat="44.2664716339897" lon="11.060779534605514"><ele>481.0</ele><time>2026-05-02T15:55:58.996Z</time></trkpt><trkpt lat="44.26652176049279" lon="11.060884253676456"><ele>481.0</ele><time>2026-05-02T15:55:59.996Z</time></trkpt><trkpt lat="44.26657059962984" lon="11.060985604565962"><ele>481.00000000000006</ele><time>2026-05-02T15:56:00.996Z</time></trkpt><trkpt lat="44.26662946680722" lon="11.061075207331363"><ele>481.0</ele><time>2026-05-02T15:56:01.996Z</time></trkpt><trkpt lat="44.26669602332541" lon="11.061167686445536"><ele>476.20000000000005</ele><time>2026-05-02T15:56:02.996Z</time></trkpt><trkpt lat="44.26675952345381" lon="11.061271185495077"><ele>471.40000000000003</ele><time>2026-05-02T15:56:03.996Z</time></trkpt><trkpt lat="44.26681071362997" lon="11.06137670117082"><ele>466.6</ele><time>2026-05-02T15:56:04.996Z</time></trkpt><trkpt lat="44.266854725106654" lon="11.061498429365654"><ele>461.8</ele><time>2026-05-02T15:56:05.996Z</time></trkpt><trkpt lat="44.26689216235487" lon="11.061629119418146"><ele>457.0</ele><time>2026-05-02T15:56:06.996Z</time></trkpt><trkpt lat="44.266920262247105" lon="11.061766466611175"><ele>455.20000000000005</ele><time>2026-05-02T15:56:07.996Z</time></trkpt><trkpt lat="44.266945900308336" lon="11.061902804533577"><ele>453.40000000000003</ele><time>2026-05-02T15:56:08.996Z</time></trkpt><trkpt lat="44.266965111174095" lon="11.06204578471507"><ele>451.59999999999997</ele><time>2026-05-02T15:56:09.996Z</time></trkpt><trkpt lat="44.266979021663126" lon="11.062186176545246"><ele>449.79999999999995</ele><time>2026-05-02T15:56:10.996Z</time></trkpt><trkpt lat="44.267004128246676" lon="11.06232039742576"><ele>448.0</ele><time>2026-05-02T15:56:11.996Z</time></trkpt><trkpt lat="44.26705474962994" lon="11.062437387127678"><ele>449.0</ele><time>2026-05-02T15:56:12.996Z</time></trkpt><trkpt lat="44.26713105630336" lon="11.062519314086048"><ele>449.99999999999994</ele><time>2026-05-02T15:56:13.996Z</time></trkpt><trkpt lat="44.26721741749459" lon="11.062576886125582"><ele>450.99999999999994</ele><time>2026-05-02T15:56:14.996Z</time></trkpt><trkpt lat="44.26731087702751" lon="11.062618224207405"><ele>452.0</ele><time>2026-05-02T15:56:15.996Z</time></trkpt><trkpt lat="44.26740617428444" lon="11.062666594248777"><ele>453.0</ele><time>2026-05-02T15:56:16.996Z</time></trkpt><trkpt lat="44.267503994151404" lon="11.062702332364601"><ele>453.0</ele><time>2026-05-02T15:56:17.996Z</time></trkpt><trkpt lat="44.267608358564765" lon="11.06274242682658"><ele>452.99999999999994</ele><time>2026-05-02T15:56:18.996Z</time></trkpt><trkpt lat="44.26771213538995" lon="11.06277917076387"><ele>452.99999999999994</ele><time>2026-05-02T15:56:19.996Z</time></trkpt><trkpt lat="44.26781395338967" lon="11.062815534634682"><ele>453.0</ele><time>2026-05-02T15:56:20.996Z</time></trkpt><trkpt lat="44.26790517692323" lon="11.0628494897244"><ele>453.0</ele><time>2026-05-02T15:56:21.996Z</time></trkpt><trkpt lat="44.268004835309256" lon="11.062874148008259"><ele>453.0</ele><time>2026-05-02T15:56:22.996Z</time></trkpt><trkpt lat="44.26809772286328" lon="11.062906074825724"><ele>452.99999999999994</ele><time>2026-05-02T15:56:23.996Z</time></trkpt><trkpt lat="44.26818847962052" lon="11.062965534289622"><ele>452.99999999999994</ele><time>2026-05-02T15:56:24.996Z</time></trkpt><trkpt lat="44.26826830437024" lon="11.063033234737498"><ele>453.0</ele><time>2026-05-02T15:56:25.996Z</time></trkpt><trkpt lat="44.26832912397968" lon="11.063127263828926"><ele>453.0</ele><time>2026-05-02T15:56:26.996Z</time></trkpt><trkpt lat="44.26836039216648" lon="11.063249712801928"><ele>452.2857142857142</ele><time>2026-05-02T15:56:27.996Z</time></trkpt><trkpt lat="44.268396070621215" lon="11.063342793119757"><ele>451.57142857142856</ele><time>2026-05-02T15:56:28.996Z</time></trkpt><trkpt lat="44.268428498617716" lon="11.063434761257092"><ele>450.85714285714283</ele><time>2026-05-02T15:56:29.996Z</time></trkpt><trkpt lat="44.26845010442817" lon="11.063522174764666"><ele>450.1428571428571</ele><time>2026-05-02T15:56:30.996Z</time></trkpt><trkpt lat="44.268448152123824" lon="11.063610904270417"><ele>449.42857142857144</ele><time>2026-05-02T15:56:31.996Z</time></trkpt><trkpt lat="44.26844625886798" lon="11.063724817285214"><ele>448.7142857142857</ele><time>2026-05-02T15:56:32.996Z</time></trkpt><trkpt lat="44.26842026711735" lon="11.063829509715266"><ele>448.0</ele><time>2026-05-02T15:56:33.996Z</time></trkpt><trkpt lat="44.26840299777523" lon="11.063929034448796"><ele>448.00000000000006</ele><time>2026-05-02T15:56:34.997Z</time></trkpt><trkpt lat="44.26838590660077" lon="11.064031037076763"><ele>448.0</ele><time>2026-05-02T15:56:35.997Z</time></trkpt><trkpt lat="44.2683858773538" lon="11.064129723229144"><ele>448.0</ele><time>2026-05-02T15:56:36.997Z</time></trkpt><trkpt lat="44.26837987887088" lon="11.064250827562153"><ele>448.0</ele><time>2026-05-02T15:56:37.997Z</time></trkpt><trkpt lat="44.2684243963112" lon="11.064378478413609"><ele>448.00000000000006</ele><time>2026-05-02T15:56:38.997Z</time></trkpt><trkpt lat="44.268517759459364" lon="11.064465994957244"><ele>448.0</ele><time>2026-05-02T15:56:39.997Z</time></trkpt><trkpt lat="44.26859463696974" lon="11.064511496966567"><ele>446.2</ele><time>2026-05-02T15:56:40.997Z</time></trkpt><trkpt lat="44.2686682225076" lon="11.064558705834118"><ele>444.4</ele><time>2026-05-02T15:56:41.997Z</time></trkpt><trkpt lat="44.26874483250554" lon="11.064617048313917"><ele>442.59999999999997</ele><time>2026-05-02T15:56:42.997Z</time></trkpt><trkpt lat="44.268832632246685" lon="11.064694309826438"><ele>440.79999999999995</ele><time>2026-05-02T15:56:43.997Z</time></trkpt><trkpt lat="44.26888268757517" lon="11.064827473349634"><ele>439.0</ele><time>2026-05-02T15:56:44.997Z</time></trkpt><trkpt lat="44.26892813513778" lon="11.064921741703902"><ele>440.2</ele><time>2026-05-02T15:56:45.997Z</time></trkpt><trkpt lat="44.26897474827954" lon="11.06504313241635"><ele>441.4</ele><time>2026-05-02T15:56:46.997Z</time></trkpt><trkpt lat="44.26901723895906" lon="11.065145709912528"><ele>442.6</ele><time>2026-05-02T15:56:47.997Z</time></trkpt><trkpt lat="44.26906123766593" lon="11.06525192799344"><ele>443.8</ele><time>2026-05-02T15:56:48.997Z</time></trkpt><trkpt lat="44.26910393424987" lon="11.065356939813379"><ele>445.0</ele><time>2026-05-02T15:56:49.997Z</time></trkpt><trkpt lat="44.26916409376983" lon="11.06552022174752"><ele>445.00000000000006</ele><time>2026-05-02T15:56:50.997Z</time></trkpt><trkpt lat="44.26923966594915" lon="11.065643580915985"><ele>445.0</ele><time>2026-05-02T15:56:51.997Z</time></trkpt><trkpt lat="44.26931166571273" lon="11.06573193326416"><ele>445.0</ele><time>2026-05-02T15:56:52.997Z</time></trkpt><trkpt lat="44.26936738601261" lon="11.065800308331838"><ele>445.0</ele><time>2026-05-02T15:56:53.997Z</time></trkpt><trkpt lat="44.26942722929489" lon="11.065859137039011"><ele>445.00000000000006</ele><time>2026-05-02T15:56:54.997Z</time></trkpt><trkpt lat="44.26948959058728" lon="11.065936362567799"><ele>445.0</ele><time>2026-05-02T15:56:56.997Z</time></trkpt><trkpt lat="44.26948151664935" lon="11.066044748667403"><ele>441.75</ele><time>2026-05-02T15:56:58.997Z</time></trkpt><trkpt lat="44.269525693113046" lon="11.066110035844012"><ele>438.5</ele><time>2026-05-02T15:56:59.997Z</time></trkpt><trkpt lat="44.26942381357285" lon="11.066334536567984"><ele>435.25</ele><time>2026-05-02T15:57:00.997Z</time></trkpt><trkpt lat="44.269494908836094" lon="11.066499867143746"><ele>432.0</ele><time>2026-05-02T15:57:01.997Z</time></trkpt><trkpt lat="44.26954233612111" lon="11.066604908783006"><ele>428.0</ele><time>2026-05-02T15:57:02.997Z</time></trkpt><trkpt lat="44.269576454153324" lon="11.066692849610774"><ele>424.00000000000006</ele><time>2026-05-02T15:57:03.997Z</time></trkpt><trkpt lat="44.26960708772204" lon="11.066881598815804"><ele>420.0</ele><time>2026-05-02T15:57:05.997Z</time></trkpt><trkpt lat="44.26959492060892" lon="11.066978887444119"><ele>416.0</ele><time>2026-05-02T15:57:06.997Z</time></trkpt><trkpt lat="44.26957343140346" lon="11.067089071290198"><ele>412.0</ele><time>2026-05-02T15:57:07.997Z</time></trkpt><trkpt lat="44.269555552036316" lon="11.067214453078495"><ele>412.00000000000006</ele><time>2026-05-02T15:57:08.997Z</time></trkpt><trkpt lat="44.26956262729576" lon="11.067330230730041"><ele>412.0</ele><time>2026-05-02T15:57:09.995Z</time></trkpt><trkpt lat="44.26960595475914" lon="11.067449292415038"><ele>412.0</ele><time>2026-05-02T15:57:10.995Z</time></trkpt><trkpt lat="44.26966817486627" lon="11.06753080788558"><ele>412.0</ele><time>2026-05-02T15:57:11.995Z</time></trkpt><trkpt lat="44.26974461119737" lon="11.067574313346555"><ele>412.00000000000006</ele><time>2026-05-02T15:57:12.995Z</time></trkpt><trkpt lat="44.269830712827954" lon="11.067560894195235"><ele>412.0</ele><time>2026-05-02T15:57:13.995Z</time></trkpt><trkpt lat="44.269899897074104" lon="11.067567243969023"><ele>412.50000000000006</ele><time>2026-05-02T15:57:14.995Z</time></trkpt><trkpt lat="44.269963996285966" lon="11.067585646640396"><ele>413.0</ele><time>2026-05-02T15:57:15.996Z</time></trkpt><trkpt lat="44.270042249109835" lon="11.067625691073868"><ele>413.5</ele><time>2026-05-02T15:57:16.995Z</time></trkpt><trkpt lat="44.270113569205385" lon="11.0676764625118"><ele>414.0</ele><time>2026-05-02T15:57:17.995Z</time></trkpt><trkpt lat="44.270184923944626" lon="11.067730720504946"><ele>414.50000000000006</ele><time>2026-05-02T15:57:18.996Z</time></trkpt><trkpt lat="44.270255886438406" lon="11.067815869162322"><ele>415.0</ele><time>2026-05-02T15:57:19.995Z</time></trkpt><trkpt lat="44.270331699048725" lon="11.067903800390157"><ele>415.00000000000006</ele><time>2026-05-02T15:57:20.995Z</time></trkpt><trkpt lat="44.27038968972762" lon="11.068008484139437"><ele>415.0</ele><time>2026-05-02T15:57:21.995Z</time></trkpt><trkpt lat="44.27044094402677" lon="11.068095949656318"><ele>415.0</ele><time>2026-05-02T15:57:22.995Z</time></trkpt><trkpt lat="44.27050906374375" lon="11.06815007886691"><ele>415.0</ele><time>2026-05-02T15:57:23.995Z</time></trkpt><trkpt lat="44.27055852520561" lon="11.068216417718222"><ele>415.00000000000006</ele><time>2026-05-02T15:57:24.995Z</time></trkpt><trkpt lat="44.270628042386015" lon="11.068268547716437"><ele>415.0</ele><time>2026-05-02T15:57:25.995Z</time></trkpt><trkpt lat="44.27070484535826" lon="11.068272467527756"><ele>411.8</ele><time>2026-05-02T15:57:26.996Z</time></trkpt><trkpt lat="44.270793512229325" lon="11.068277040582519"><ele>408.6</ele><time>2026-05-02T15:57:27.996Z</time></trkpt><trkpt lat="44.270893014153124" lon="11.068261587112177"><ele>405.4</ele><time>2026-05-02T15:57:28.996Z</time></trkpt><trkpt lat="44.270982291935596" lon="11.068276875371845"><ele>402.2</ele><time>2026-05-02T15:57:29.996Z</time></trkpt><trkpt lat="44.271069458848466" lon="11.06831542052566"><ele>399.0</ele><time>2026-05-02T15:57:30.996Z</time></trkpt><trkpt lat="44.271147010643226" lon="11.068365287054144"><ele>399.0</ele><time>2026-05-02T15:57:31.996Z</time></trkpt><trkpt lat="44.27119876251928" lon="11.06846269381989"><ele>399.0</ele><time>2026-05-02T15:57:32.996Z</time></trkpt><trkpt lat="44.27125817660434" lon="11.068540762532328"><ele>399.0</ele><time>2026-05-02T15:57:33.996Z</time></trkpt><trkpt lat="44.27132799557308" lon="11.06861074785897"><ele>399.0</ele><time>2026-05-02T15:57:34.996Z</time></trkpt><trkpt lat="44.27139182844404" lon="11.068680892215877"><ele>399.0</ele><time>2026-05-02T15:57:35.996Z</time></trkpt><trkpt lat="44.27144613881526" lon="11.06877873364373"><ele>399.0</ele><time>2026-05-02T15:57:36.996Z</time></trkpt><trkpt lat="44.2715097870218" lon="11.068872733143172"><ele>401.3333333333333</ele><time>2026-05-02T15:57:37.996Z</time></trkpt><trkpt lat="44.27156790925672" lon="11.068970620168376"><ele>403.66666666666663</ele><time>2026-05-02T15:57:38.996Z</time></trkpt><trkpt lat="44.2716169879168" lon="11.069069997853475"><ele>406.0</ele><time>2026-05-02T15:57:39.996Z</time></trkpt><trkpt lat="44.27166077801524" lon="11.06918006080068"><ele>408.3333333333333</ele><time>2026-05-02T15:57:40.996Z</time></trkpt><trkpt lat="44.27171330427935" lon="11.069277849678834"><ele>410.66666666666663</ele><time>2026-05-02T15:57:41.996Z</time></trkpt><trkpt lat="44.271756103818035" lon="11.069379946938986"><ele>413.0</ele><time>2026-05-02T15:57:42.996Z</time></trkpt><trkpt lat="44.271814564383774" lon="11.069466368247292"><ele>406.79999999999995</ele><time>2026-05-02T15:57:43.996Z</time></trkpt><trkpt lat="44.27189198082588" lon="11.069515143429733"><ele>400.6</ele><time>2026-05-02T15:57:44.996Z</time></trkpt><trkpt lat="44.27194161804008" lon="11.06958362237489"><ele>394.4</ele><time>2026-05-02T15:57:45.996Z</time></trkpt><trkpt lat="44.27203848917806" lon="11.069658380545663"><ele>388.20000000000005</ele><time>2026-05-02T15:57:47.996Z</time></trkpt><trkpt lat="44.27210450316284" lon="11.069707984682147"><ele>382.0</ele><time>2026-05-02T15:57:48.996Z</time></trkpt><trkpt lat="44.272132780007446" lon="11.06987898065849"><ele>379.3333333333333</ele><time>2026-05-02T15:57:50.996Z</time></trkpt><trkpt lat="44.27210890590832" lon="11.069987162875487"><ele>376.66666666666663</ele><time>2026-05-02T15:57:51.996Z</time></trkpt><trkpt lat="44.27207462705168" lon="11.070091793396871"><ele>374.0</ele><time>2026-05-02T15:57:52.996Z</time></trkpt><trkpt lat="44.27204124376815" lon="11.070196491561436"><ele>371.3333333333333</ele><time>2026-05-02T15:57:53.996Z</time></trkpt><trkpt lat="44.271993069235315" lon="11.070300541218069"><ele>368.6666666666667</ele><time>2026-05-02T15:57:54.996Z</time></trkpt><trkpt lat="44.271956830658375" lon="11.070424963741585"><ele>366.0</ele><time>2026-05-02T15:57:55.996Z</time></trkpt><trkpt lat="44.27193253945875" lon="11.070549424224367"><ele>366.0</ele><time>2026-05-02T15:57:56.996Z</time></trkpt><trkpt lat="44.27190900513081" lon="11.070683097015023"><ele>366.0</ele><time>2026-05-02T15:57:57.996Z</time></trkpt><trkpt lat="44.271891021801736" lon="11.070820144989879"><ele>366.0</ele><time>2026-05-02T15:57:58.996Z</time></trkpt><trkpt lat="44.27187480592069" lon="11.070931403790434"><ele>366.0</ele><time>2026-05-02T15:57:59.996Z</time></trkpt><trkpt lat="44.27179022363945" lon="11.070845268710631"><ele>366.0</ele><time>2026-05-02T15:58:01.996Z</time></trkpt><trkpt lat="44.271678734257634" lon="11.070813170547234"><ele>366.0</ele><time>2026-05-02T15:58:02.996Z</time></trkpt><trkpt lat="44.2715239153783" lon="11.070771998841025"><ele>366.0</ele><time>2026-05-02T15:58:03.996Z</time></trkpt><trkpt lat="44.27204839642536" lon="11.07156471625069"><ele>365.0</ele><time>2026-05-02T15:58:04.996Z</time></trkpt><trkpt lat="44.27209600782054" lon="11.071635836421418"><ele>364.0</ele><time>2026-05-02T15:58:05.996Z</time></trkpt><trkpt lat="44.272155521101624" lon="11.071685234873076"><ele>363.0</ele><time>2026-05-02T15:58:06.996Z</time></trkpt><trkpt lat="44.27222861209468" lon="11.071695338928722"><ele>362.0</ele><time>2026-05-02T15:58:07.996Z</time></trkpt><trkpt lat="44.272303494778626" lon="11.071673084792028"><ele>361.0</ele><time>2026-05-02T15:58:08.997Z</time></trkpt><trkpt lat="44.27238532063252" lon="11.07163251838805"><ele>360.0</ele><time>2026-05-02T15:58:09.997Z</time></trkpt><trkpt lat="44.27246332576347" lon="11.07157979013393"><ele>360.0</ele><time>2026-05-02T15:58:10.997Z</time></trkpt><trkpt lat="44.27254566802191" lon="11.071566727206626"><ele>360.0</ele><time>2026-05-02T15:58:11.997Z</time></trkpt><trkpt lat="44.272627646465374" lon="11.07156676198774"><ele>360.0</ele><time>2026-05-02T15:58:12.997Z</time></trkpt><trkpt lat="44.272702280209" lon="11.071632184777705"><ele>360.0</ele><time>2026-05-02T15:58:13.997Z</time></trkpt><trkpt lat="44.27273184749635" lon="11.071744632867183"><ele>360.0</ele><time>2026-05-02T15:58:14.997Z</time></trkpt><trkpt lat="44.27272997566344" lon="11.07186108008271"><ele>360.0</ele><time>2026-05-02T15:58:15.997Z</time></trkpt><trkpt lat="44.272700869887224" lon="11.071957853943353"><ele>360.0</ele><time>2026-05-02T15:58:16.997Z</time></trkpt><trkpt lat="44.272650370138166" lon="11.072053618557428"><ele>360.0</ele><time>2026-05-02T15:58:17.997Z</time></trkpt><trkpt lat="44.27260415406913" lon="11.072169704452163"><ele>360.0</ele><time>2026-05-02T15:58:18.997Z</time></trkpt><trkpt lat="44.272566242064855" lon="11.072291151670377"><ele>360.0</ele><time>2026-05-02T15:58:19.997Z</time></trkpt><trkpt lat="44.27255942480147" lon="11.072425701536268"><ele>360.0</ele><time>2026-05-02T15:58:20.997Z</time></trkpt><trkpt lat="44.27255254558721" lon="11.07255449820093"><ele>358.2</ele><time>2026-05-02T15:58:21.997Z</time></trkpt><trkpt lat="44.27252818927893" lon="11.072683014138466"><ele>356.4</ele><time>2026-05-02T15:58:22.997Z</time></trkpt><trkpt lat="44.272530325246095" lon="11.072820930678189"><ele>354.6</ele><time>2026-05-02T15:58:23.997Z</time></trkpt><trkpt lat="44.272550659230106" lon="11.072955228698644"><ele>352.8</ele><time>2026-05-02T15:58:24.997Z</time></trkpt><trkpt lat="44.27255743388315" lon="11.073092262309425"><ele>351.0</ele><time>2026-05-02T15:58:25.997Z</time></trkpt><trkpt lat="44.272576557069115" lon="11.073219559827816"><ele>349.6666666666667</ele><time>2026-05-02T15:58:26.997Z</time></trkpt><trkpt lat="44.272603817658045" lon="11.07332518367776"><ele>348.3333333333333</ele><time>2026-05-02T15:58:27.997Z</time></trkpt><trkpt lat="44.27261228015341" lon="11.073433771644849"><ele>347.0</ele><time>2026-05-02T15:58:28.997Z</time></trkpt><trkpt lat="44.2726149876547" lon="11.073549584166557"><ele>345.66666666666663</ele><time>2026-05-02T15:58:29.997Z</time></trkpt><trkpt lat="44.27261548298044" lon="11.073662528531047"><ele>344.3333333333333</ele><time>2026-05-02T15:58:30.997Z</time></trkpt><trkpt lat="44.27259790537509" lon="11.073769667011646"><ele>343.0</ele><time>2026-05-02T15:58:31.997Z</time></trkpt><trkpt lat="44.2725756347991" lon="11.073883429767404"><ele>343.0</ele><time>2026-05-02T15:58:32.997Z</time></trkpt><trkpt lat="44.27253734351497" lon="11.073982311045059"><ele>343.0</ele><time>2026-05-02T15:58:33.997Z</time></trkpt><trkpt lat="44.272498938156716" lon="11.07407431643185"><ele>343.0</ele><time>2026-05-02T15:58:34.997Z</time></trkpt><trkpt lat="44.27246622963359" lon="11.074171792237768"><ele>343.0</ele><time>2026-05-02T15:58:35.997Z</time></trkpt><trkpt lat="44.27246089191032" lon="11.074280672729016"><ele>343.0</ele><time>2026-05-02T15:58:36.997Z</time></trkpt><trkpt lat="44.272470101834095" lon="11.074401269196363"><ele>343.0</ele><time>2026-05-02T15:58:37.997Z</time></trkpt><trkpt lat="44.272484338481945" lon="11.074519092003978"><ele>342.2</ele><time>2026-05-02T15:58:38.997Z</time></trkpt><trkpt lat="44.27249245331562" lon="11.074654770236627"><ele>341.4</ele><time>2026-05-02T15:58:39.997Z</time></trkpt><trkpt lat="44.27250923083297" lon="11.074790889089375"><ele>340.59999999999997</ele><time>2026-05-02T15:58:40.997Z</time></trkpt><trkpt lat="44.27252949655742" lon="11.074932877163716"><ele>339.79999999999995</ele><time>2026-05-02T15:58:41.997Z</time></trkpt><trkpt lat="44.27254640932091" lon="11.075076425291831"><ele>339.0</ele><time>2026-05-02T15:58:42.997Z</time></trkpt><trkpt lat="44.272562717290896" lon="11.075225548007214"><ele>337.79999999999995</ele><time>2026-05-02T15:58:43.997Z</time></trkpt><trkpt lat="44.272579376121996" lon="11.075375352005205"><ele>336.59999999999997</ele><time>2026-05-02T15:58:44.997Z</time></trkpt><trkpt lat="44.27259197838522" lon="11.075524474661039"><ele>335.4</ele><time>2026-05-02T15:58:45.997Z</time></trkpt><trkpt lat="44.27259766184009" lon="11.075678531828823"><ele>334.2</ele><time>2026-05-02T15:58:46.997Z</time></trkpt><trkpt lat="44.27261832958936" lon="11.075821724732595"><ele>333.0</ele><time>2026-05-02T15:58:47.997Z</time></trkpt><trkpt lat="44.27264776099569" lon="11.075962534945056"><ele>331.59999999999997</ele><time>2026-05-02T15:58:48.997Z</time></trkpt><trkpt lat="44.272692604438" lon="11.076097441244263"><ele>330.2</ele><time>2026-05-02T15:58:49.998Z</time></trkpt><trkpt lat="44.27274526799131" lon="11.076226978652297"><ele>328.8</ele><time>2026-05-02T15:58:50.998Z</time></trkpt><trkpt lat="44.27280484251843" lon="11.076347886183859"><ele>327.4</ele><time>2026-05-02T15:58:51.998Z</time></trkpt><trkpt lat="44.27286489488007" lon="11.076478019550747"><ele>326.0</ele><time>2026-05-02T15:58:52.998Z</time></trkpt><trkpt lat="44.27292679277311" lon="11.076609106988492"><ele>324.6</ele><time>2026-05-02T15:58:53.998Z</time></trkpt><trkpt lat="44.27298182685449" lon="11.076734617347151"><ele>323.20000000000005</ele><time>2026-05-02T15:58:54.998Z</time></trkpt><trkpt lat="44.273041978371175" lon="11.076865807760479"><ele>321.79999999999995</ele><time>2026-05-02T15:58:55.998Z</time></trkpt><trkpt lat="44.27308892151766" lon="11.077008856753945"><ele>320.4</ele><time>2026-05-02T15:58:56.998Z</time></trkpt><trkpt lat="44.273121465279424" lon="11.077162042631256"><ele>319.0</ele><time>2026-05-02T15:58:57.998Z</time></trkpt><trkpt lat="44.273142314249654" lon="11.077310011079014"><ele>320.6</ele><time>2026-05-02T15:58:58.998Z</time></trkpt><trkpt lat="44.27315181639098" lon="11.077448011533246"><ele>322.2</ele><time>2026-05-02T15:58:59.998Z</time></trkpt><trkpt lat="44.27316718368115" lon="11.077586203522465"><ele>323.8</ele><time>2026-05-02T15:59:00.998Z</time></trkpt><trkpt lat="44.273194407041395" lon="11.077693589655652"><ele>325.40000000000003</ele><time>2026-05-02T15:59:01.998Z</time></trkpt><trkpt lat="44.27324559338221" lon="11.077791421246882"><ele>327.0</ele><time>2026-05-02T15:59:02.998Z</time></trkpt><trkpt lat="44.27331239280048" lon="11.077886040317662"><ele>327.0</ele><time>2026-05-02T15:59:03.998Z</time></trkpt><trkpt lat="44.2733879351295" lon="11.077969948178959"><ele>327.0</ele><time>2026-05-02T15:59:04.998Z</time></trkpt><trkpt lat="44.27346369222015" lon="11.07805379585051"><ele>327.0</ele><time>2026-05-02T15:59:05.998Z</time></trkpt><trkpt lat="44.27354598839827" lon="11.078141164906661"><ele>327.0</ele><time>2026-05-02T15:59:06.998Z</time></trkpt><trkpt lat="44.273622654103946" lon="11.078240381413803"><ele>327.0</ele><time>2026-05-02T15:59:07.998Z</time></trkpt><trkpt lat="44.27367111715034" lon="11.078383806234624"><ele>325.40000000000003</ele><time>2026-05-02T15:59:08.998Z</time></trkpt><trkpt lat="44.273712331939784" lon="11.07851031543237"><ele>323.8</ele><time>2026-05-02T15:59:09.998Z</time></trkpt><trkpt lat="44.273748868940395" lon="11.078641920176553"><ele>322.2</ele><time>2026-05-02T15:59:10.998Z</time></trkpt><trkpt lat="44.27376787800012" lon="11.078791129436143"><ele>320.6</ele><time>2026-05-02T15:59:11.998Z</time></trkpt><trkpt lat="44.27377560493557" lon="11.078938840487783"><ele>319.0</ele><time>2026-05-02T15:59:12.998Z</time></trkpt><trkpt lat="44.273781362470714" lon="11.0790815957574"><ele>318.0</ele><time>2026-05-02T15:59:13.998Z</time></trkpt><trkpt lat="44.27378866219953" lon="11.079233540172204"><ele>317.0</ele><time>2026-05-02T15:59:14.998Z</time></trkpt><trkpt lat="44.273791194249256" lon="11.079373448169944"><ele>316.0</ele><time>2026-05-02T15:59:15.997Z</time></trkpt><trkpt lat="44.27379672836019" lon="11.079499389161931"><ele>315.0</ele><time>2026-05-02T15:59:16.997Z</time></trkpt><trkpt lat="44.27380691839103" lon="11.079614993541139"><ele>314.0</ele><time>2026-05-02T15:59:17.997Z</time></trkpt><trkpt lat="44.273819261476355" lon="11.079718098014759"><ele>314.0</ele><time>2026-05-02T15:59:18.996Z</time></trkpt><trkpt lat="44.27383553981389" lon="11.079811919556128"><ele>314.0</ele><time>2026-05-02T15:59:19.997Z</time></trkpt><trkpt lat="44.27383607323741" lon="11.079921598683962"><ele>314.0</ele><time>2026-05-02T15:59:20.997Z</time></trkpt><trkpt lat="44.27386324741091" lon="11.08003746826497"><ele>314.0</ele><time>2026-05-02T15:59:21.997Z</time></trkpt><trkpt lat="44.27391876162377" lon="11.080148315089188"><ele>314.0</ele><time>2026-05-02T15:59:22.997Z</time></trkpt><trkpt lat="44.273966294221516" lon="11.08027152730425"><ele>314.0</ele><time>2026-05-02T15:59:23.997Z</time></trkpt><trkpt lat="44.27399712986483" lon="11.080405290199753"><ele>315.2</ele><time>2026-05-02T15:59:24.997Z</time></trkpt><trkpt lat="44.27402561408757" lon="11.080542499887887"><ele>316.4</ele><time>2026-05-02T15:59:25.996Z</time></trkpt><trkpt lat="44.27404124976036" lon="11.080672732752499"><ele>317.6</ele><time>2026-05-02T15:59:26.996Z</time></trkpt><trkpt lat="44.27405109262556" lon="11.080799301567412"><ele>318.8</ele><time>2026-05-02T15:59:27.997Z</time></trkpt><trkpt lat="44.27407444584418" lon="11.080908091284856"><ele>320.0</ele><time>2026-05-02T15:59:28.997Z</time></trkpt><trkpt lat="44.274090610270406" lon="11.081018116169014"><ele>320.0</ele><time>2026-05-02T15:59:29.997Z</time></trkpt><trkpt lat="44.274118881687755" lon="11.081126156702439"><ele>320.0</ele><time>2026-05-02T15:59:30.997Z</time></trkpt><trkpt lat="44.27417521358486" lon="11.081234439691432"><ele>320.0</ele><time>2026-05-02T15:59:31.997Z</time></trkpt><trkpt lat="44.274250495374304" lon="11.081333980408058"><ele>320.0</ele><time>2026-05-02T15:59:32.997Z</time></trkpt><trkpt lat="44.27432418550035" lon="11.081427284407146"><ele>320.0</ele><time>2026-05-02T15:59:33.997Z</time></trkpt><trkpt lat="44.27440139144353" lon="11.081514345487438"><ele>317.8</ele><time>2026-05-02T15:59:34.997Z</time></trkpt><trkpt lat="44.27445777300505" lon="11.081624128030295"><ele>315.6</ele><time>2026-05-02T15:59:35.997Z</time></trkpt><trkpt lat="44.27450504090845" lon="11.08172785920003"><ele>313.4</ele><time>2026-05-02T15:59:36.997Z</time></trkpt><trkpt lat="44.27454900401518" lon="11.081847765656365"><ele>311.2</ele><time>2026-05-02T15:59:37.997Z</time></trkpt><trkpt lat="44.27453628371833" lon="11.081998548192816"><ele>309.0</ele><time>2026-05-02T15:59:38.997Z</time></trkpt><trkpt lat="44.274537051786275" lon="11.082141300146313"><ele>309.0</ele><time>2026-05-02T15:59:39.997Z</time></trkpt><trkpt lat="44.274537307472855" lon="11.082290138032985"><ele>309.0</ele><time>2026-05-02T15:59:40.997Z</time></trkpt><trkpt lat="44.27455557768713" lon="11.082438859793909"><ele>309.0</ele><time>2026-05-02T15:59:41.997Z</time></trkpt><trkpt lat="44.274551952126835" lon="11.082590637818079"><ele>309.0</ele><time>2026-05-02T15:59:42.997Z</time></trkpt><trkpt lat="44.27456143314502" lon="11.082737680310364"><ele>309.0</ele><time>2026-05-02T15:59:43.997Z</time></trkpt><trkpt lat="44.27456767448573" lon="11.08287553751833"><ele>307.4</ele><time>2026-05-02T15:59:44.998Z</time></trkpt><trkpt lat="44.27456286032044" lon="11.083015549943221"><ele>305.79999999999995</ele><time>2026-05-02T15:59:45.998Z</time></trkpt><trkpt lat="44.27455255887776" lon="11.083147803793901"><ele>304.20000000000005</ele><time>2026-05-02T15:59:46.998Z</time></trkpt><trkpt lat="44.274539153262204" lon="11.083279467064505"><ele>302.6</ele><time>2026-05-02T15:59:47.998Z</time></trkpt><trkpt lat="44.27451092265595" lon="11.083403518637132"><ele>301.0</ele><time>2026-05-02T15:59:48.998Z</time></trkpt><trkpt lat="44.27450285956477" lon="11.08352229052926"><ele>300.3333333333333</ele><time>2026-05-02T15:59:49.998Z</time></trkpt><trkpt lat="44.27450189452134" lon="11.083622051221475"><ele>299.66666666666663</ele><time>2026-05-02T15:59:50.998Z</time></trkpt><trkpt lat="44.2745371463573" lon="11.083781077230817"><ele>299.0</ele><time>2026-05-02T15:59:52.998Z</time></trkpt><trkpt lat="44.2745809196245" lon="11.083856508978412"><ele>298.3333333333333</ele><time>2026-05-02T15:59:53.998Z</time></trkpt><trkpt lat="44.27463137929299" lon="11.083927481951404"><ele>297.6666666666667</ele><time>2026-05-02T15:59:54.998Z</time></trkpt><trkpt lat="44.2746857581052" lon="11.083988157256897"><ele>297.0</ele><time>2026-05-02T15:59:55.998Z</time></trkpt><trkpt lat="44.27473138948091" lon="11.084062273395906"><ele>296.6666666666667</ele><time>2026-05-02T15:59:56.998Z</time></trkpt><trkpt lat="44.27477120714178" lon="11.084168048781732"><ele>296.3333333333333</ele><time>2026-05-02T15:59:57.998Z</time></trkpt><trkpt lat="44.27477605287666" lon="11.084270612159752"><ele>296.0</ele><time>2026-05-02T15:59:58.998Z</time></trkpt><trkpt lat="44.27475649204084" lon="11.084387685710485"><ele>295.66666666666663</ele><time>2026-05-02T15:59:59.998Z</time></trkpt><trkpt lat="44.27472343324652" lon="11.084509049604087"><ele>295.3333333333333</ele><time>2026-05-02T16:00:00.998Z</time></trkpt><trkpt lat="44.27468658835472" lon="11.084631681294363"><ele>295.0</ele><time>2026-05-02T16:00:01.998Z</time></trkpt><trkpt lat="44.27466175880403" lon="11.084759163414208"><ele>295.0</ele><time>2026-05-02T16:00:02.998Z</time></trkpt><trkpt lat="44.27464335621061" lon="11.084893737453507"><ele>295.0</ele><time>2026-05-02T16:00:03.998Z</time></trkpt><trkpt lat="44.27463125752655" lon="11.085035826236746"><ele>295.0</ele><time>2026-05-02T16:00:04.998Z</time></trkpt><trkpt lat="44.27463648492827" lon="11.085177099716223"><ele>295.0</ele><time>2026-05-02T16:00:05.998Z</time></trkpt><trkpt lat="44.27465141688317" lon="11.085313994330567"><ele>295.0</ele><time>2026-05-02T16:00:06.998Z</time></trkpt><trkpt lat="44.27466753937985" lon="11.085441441919677"><ele>294.6</ele><time>2026-05-02T16:00:07.998Z</time></trkpt><trkpt lat="44.27469657955076" lon="11.085567858873512"><ele>294.2</ele><time>2026-05-02T16:00:08.998Z</time></trkpt><trkpt lat="44.27473152252455" lon="11.085688910624446"><ele>293.8</ele><time>2026-05-02T16:00:09.998Z</time></trkpt><trkpt lat="44.274781813588554" lon="11.085803874204357"><ele>293.4</ele><time>2026-05-02T16:00:10.998Z</time></trkpt><trkpt lat="44.27485455498809" lon="11.08589101203076"><ele>293.0</ele><time>2026-05-02T16:00:11.998Z</time></trkpt><trkpt lat="44.27494189316732" lon="11.085949461923402"><ele>294.2</ele><time>2026-05-02T16:00:12.998Z</time></trkpt><trkpt lat="44.27503836620865" lon="11.085976055749013"><ele>295.4</ele><time>2026-05-02T16:00:13.998Z</time></trkpt><trkpt lat="44.27513280165716" lon="11.085977855561335"><ele>296.59999999999997</ele><time>2026-05-02T16:00:14.998Z</time></trkpt><trkpt lat="44.27522939879942" lon="11.085980826775774"><ele>297.8</ele><time>2026-05-02T16:00:15.998Z</time></trkpt><trkpt lat="44.27532532099847" lon="11.085997851393937"><ele>299.0</ele><time>2026-05-02T16:00:16.998Z</time></trkpt><trkpt lat="44.275409457166994" lon="11.086063959615974"><ele>299.0</ele><time>2026-05-02T16:00:17.998Z</time></trkpt><trkpt lat="44.275508526529684" lon="11.08610393991274"><ele>299.0</ele><time>2026-05-02T16:00:18.998Z</time></trkpt><trkpt lat="44.275593019172796" lon="11.086188019251757"><ele>299.0</ele><time>2026-05-02T16:00:19.998Z</time></trkpt><trkpt lat="44.27567011655996" lon="11.086255626254717"><ele>299.0</ele><time>2026-05-02T16:00:20.998Z</time></trkpt><trkpt lat="44.27573576096607" lon="11.086348469629002"><ele>299.0</ele><time>2026-05-02T16:00:21.998Z</time></trkpt><trkpt lat="44.2757760732887" lon="11.086464091322828"><ele>297.59999999999997</ele><time>2026-05-02T16:00:22.998Z</time></trkpt><trkpt lat="44.27581573822699" lon="11.086578579491135"><ele>296.2</ele><time>2026-05-02T16:00:23.998Z</time></trkpt><trkpt lat="44.275856131290524" lon="11.08669759399377"><ele>294.79999999999995</ele><time>2026-05-02T16:00:24.998Z</time></trkpt><trkpt lat="44.275898323141504" lon="11.086800688599759"><ele>293.4</ele><time>2026-05-02T16:00:25.998Z</time></trkpt><trkpt lat="44.275950847965" lon="11.086918167897206"><ele>292.0</ele><time>2026-05-02T16:00:26.999Z</time></trkpt><trkpt lat="44.27601770502089" lon="11.087037113925533"><ele>292.0</ele><time>2026-05-02T16:00:27.999Z</time></trkpt><trkpt lat="44.276058953258094" lon="11.087145410913607"><ele>292.0</ele><time>2026-05-02T16:00:28.999Z</time></trkpt><trkpt lat="44.27609754939583" lon="11.087261412683782"><ele>292.0</ele><time>2026-05-02T16:00:29.999Z</time></trkpt><trkpt lat="44.27614298865227" lon="11.087383229019974"><ele>292.0</ele><time>2026-05-02T16:00:30.999Z</time></trkpt><trkpt lat="44.27618632996552" lon="11.087503365343332"><ele>292.0</ele><time>2026-05-02T16:00:31.999Z</time></trkpt><trkpt lat="44.276223678671634" lon="11.087618996859186"><ele>289.6</ele><time>2026-05-02T16:00:32.999Z</time></trkpt><trkpt lat="44.27626338349854" lon="11.087741610023695"><ele>287.2</ele><time>2026-05-02T16:00:33.999Z</time></trkpt><trkpt lat="44.27629300288739" lon="11.08787997897503"><ele>284.8</ele><time>2026-05-02T16:00:34.999Z</time></trkpt><trkpt lat="44.27630124033556" lon="11.088026004267848"><ele>282.4</ele><time>2026-05-02T16:00:35.999Z</time></trkpt><trkpt lat="44.276326230504296" lon="11.088172252800236"><ele>280.0</ele><time>2026-05-02T16:00:36.999Z</time></trkpt><trkpt lat="44.276337237091774" lon="11.088318185380228"><ele>278.4</ele><time>2026-05-02T16:00:37.999Z</time></trkpt><trkpt lat="44.276368574696924" lon="11.088451979962926"><ele>276.8</ele><time>2026-05-02T16:00:38.999Z</time></trkpt><trkpt lat="44.27639355080298" lon="11.088595784995238"><ele>275.2</ele><time>2026-05-02T16:00:39.999Z</time></trkpt><trkpt lat="44.27643954748444" lon="11.08872724938851"><ele>273.6</ele><time>2026-05-02T16:00:40.999Z</time></trkpt><trkpt lat="44.27647794620248" lon="11.088875160703921"><ele>272.0</ele><time>2026-05-02T16:00:41.999Z</time></trkpt><trkpt lat="44.2765016009444" lon="11.089027679790254"><ele>273.4</ele><time>2026-05-02T16:00:42.999Z</time></trkpt><trkpt lat="44.27652496833058" lon="11.08917824422045"><ele>274.79999999999995</ele><time>2026-05-02T16:00:43.999Z</time></trkpt><trkpt lat="44.27654441121139" lon="11.089326098038331"><ele>276.2</ele><time>2026-05-02T16:00:44.999Z</time></trkpt><trkpt lat="44.27657240365374" lon="11.089479451573006"><ele>277.59999999999997</ele><time>2026-05-02T16:00:45.999Z</time></trkpt><trkpt lat="44.276602145488056" lon="11.08962902060647"><ele>279.0</ele><time>2026-05-02T16:00:46.999Z</time></trkpt><trkpt lat="44.276626600444814" lon="11.08978002236063"><ele>279.0</ele><time>2026-05-02T16:00:47.999Z</time></trkpt><trkpt lat="44.276643911689135" lon="11.089916416808164"><ele>279.0</ele><time>2026-05-02T16:00:48.999Z</time></trkpt><trkpt lat="44.27665953333336" lon="11.09005777568193"><ele>279.0</ele><time>2026-05-02T16:00:49.999Z</time></trkpt><trkpt lat="44.27667108248572" lon="11.090184885447282"><ele>279.0</ele><time>2026-05-02T16:00:50.999Z</time></trkpt><trkpt lat="44.276675102060175" lon="11.090321858685304"><ele>279.0</ele><time>2026-05-02T16:00:51.999Z</time></trkpt><trkpt lat="44.27668709102189" lon="11.090449691907425"><ele>277.5</ele><time>2026-05-02T16:00:52.999Z</time></trkpt><trkpt lat="44.276709597559865" lon="11.090580475966327"><ele>276.0</ele><time>2026-05-02T16:00:53.999Z</time></trkpt><trkpt lat="44.2767228318196" lon="11.090724347583397"><ele>274.5</ele><time>2026-05-02T16:00:54.999Z</time></trkpt><trkpt lat="44.27679193239868" lon="11.090881216155521"><ele>273.0</ele><time>2026-05-02T16:00:55.999Z</time></trkpt><trkpt lat="44.27690881360603" lon="11.091018969140194"><ele>271.5</ele><time>2026-05-02T16:00:56.999Z</time></trkpt><trkpt lat="44.2770435364284" lon="11.09113699139081"><ele>270.0</ele><time>2026-05-02T16:00:57.999Z</time></trkpt><trkpt lat="44.277162425212445" lon="11.091235825256218"><ele>268.5</ele><time>2026-05-02T16:00:58.999Z</time></trkpt><trkpt lat="44.27702869326611" lon="11.091148702328246"><ele>267.0</ele><time>2026-05-02T16:00:59.999Z</time></trkpt><trkpt lat="44.27713159637782" lon="11.091230286911799"><ele>267.0</ele><time>2026-05-02T16:01:00.999Z</time></trkpt><trkpt lat="44.27723086287083" lon="11.091315635235881"><ele>267.0</ele><time>2026-05-02T16:01:01.999Z</time></trkpt><trkpt lat="44.27733725438526" lon="11.091386415345914"><ele>267.0</ele><time>2026-05-02T16:01:02.999Z</time></trkpt><trkpt lat="44.2774427357322" lon="11.091434693463457"><ele>267.0</ele><time>2026-05-02T16:01:03.999Z</time></trkpt><trkpt lat="44.27753632793534" lon="11.0914822589872"><ele>267.0</ele><time>2026-05-02T16:01:04.999Z</time></trkpt><trkpt lat="44.27762606140285" lon="11.091549037488555"><ele>266.6</ele><time>2026-05-02T16:01:05.999Z</time></trkpt><trkpt lat="44.27771187909773" lon="11.091624624260966"><ele>266.2</ele><time>2026-05-02T16:01:06.999Z</time></trkpt><trkpt lat="44.277793356626205" lon="11.09171736538765"><ele>265.8</ele><time>2026-05-02T16:01:08Z</time></trkpt><trkpt lat="44.27787530335599" lon="11.09180526941032"><ele>265.4</ele><time>2026-05-02T16:01:09Z</time></trkpt><trkpt lat="44.27796379226523" lon="11.091896735277102"><ele>265.0</ele><time>2026-05-02T16:01:10Z</time></trkpt><trkpt lat="44.27804979231307" lon="11.091993467708958"><ele>263.8</ele><time>2026-05-02T16:01:11Z</time></trkpt><trkpt lat="44.27813338557869" lon="11.092089493446295"><ele>262.6</ele><time>2026-05-02T16:01:12Z</time></trkpt><trkpt lat="44.278211958943395" lon="11.092179552182012"><ele>261.4</ele><time>2026-05-02T16:01:13Z</time></trkpt><trkpt lat="44.278284328240666" lon="11.092265266119274"><ele>260.2</ele><time>2026-05-02T16:01:14Z</time></trkpt><trkpt lat="44.278342215078226" lon="11.092366739760205"><ele>259.0</ele><time>2026-05-02T16:01:15Z</time></trkpt><trkpt lat="44.27840694372279" lon="11.092438856075443"><ele>259.0</ele><time>2026-05-02T16:01:16Z</time></trkpt><trkpt lat="44.278487805747965" lon="11.092483222528138"><ele>259.0</ele><time>2026-05-02T16:01:17Z</time></trkpt><trkpt lat="44.27857445621102" lon="11.092508948206959"><ele>259.0</ele><time>2026-05-02T16:01:18Z</time></trkpt><trkpt lat="44.27867272638929" lon="11.09253851416146"><ele>259.0</ele><time>2026-05-02T16:01:19Z</time></trkpt><trkpt lat="44.278769600935746" lon="11.092584257685361"><ele>259.0</ele><time>2026-05-02T16:01:20Z</time></trkpt><trkpt lat="44.278865605872625" lon="11.092639226901326"><ele>259.8</ele><time>2026-05-02T16:01:21Z</time></trkpt><trkpt lat="44.27896384209084" lon="11.092690540067013"><ele>260.59999999999997</ele><time>2026-05-02T16:01:21.998Z</time></trkpt><trkpt lat="44.27904334521745" lon="11.092726225175374"><ele>261.4</ele><time>2026-05-02T16:01:22.999Z</time></trkpt><trkpt lat="44.27913679077306" lon="11.092779966751522"><ele>262.2</ele><time>2026-05-02T16:01:23.999Z</time></trkpt><trkpt lat="44.279247255077614" lon="11.092830378216194"><ele>263.0</ele><time>2026-05-02T16:01:24.998Z</time></trkpt><trkpt lat="44.27934649381295" lon="11.092882620051235"><ele>263.0</ele><time>2026-05-02T16:01:25.998Z</time></trkpt><trkpt lat="44.27946111446049" lon="11.092920922234283"><ele>263.0</ele><time>2026-05-02T16:01:26.998Z</time></trkpt><trkpt lat="44.279543314106924" lon="11.092996936899528"><ele>263.0</ele><time>2026-05-02T16:01:27.999Z</time></trkpt><trkpt lat="44.27963549340674" lon="11.093076583303018"><ele>263.0</ele><time>2026-05-02T16:01:28.998Z</time></trkpt><trkpt lat="44.27972295893488" lon="11.093148452116937"><ele>263.0</ele><time>2026-05-02T16:01:29.998Z</time></trkpt><trkpt lat="44.27980889610399" lon="11.093242618812043"><ele>260.25</ele><time>2026-05-02T16:01:30.998Z</time></trkpt><trkpt lat="44.279905666507794" lon="11.093332556249306"><ele>257.5</ele><time>2026-05-02T16:01:31.998Z</time></trkpt><trkpt lat="44.27999549366224" lon="11.093428646395704"><ele>254.75</ele><time>2026-05-02T16:01:32.998Z</time></trkpt><trkpt lat="44.28009205004662" lon="11.09352638875394"><ele>252.0</ele><time>2026-05-02T16:01:33.999Z</time></trkpt><trkpt lat="44.28018276076728" lon="11.093627623242254"><ele>252.0</ele><time>2026-05-02T16:01:34.998Z</time></trkpt><trkpt lat="44.28026265376864" lon="11.093739225180236"><ele>252.0</ele><time>2026-05-02T16:01:35.998Z</time></trkpt><trkpt lat="44.28034114926102" lon="11.09382873302255"><ele>252.0</ele><time>2026-05-02T16:01:36.998Z</time></trkpt><trkpt lat="44.280404074102634" lon="11.093933881188994"><ele>252.0</ele><time>2026-05-02T16:01:37.998Z</time></trkpt><trkpt lat="44.28045439013788" lon="11.094061582906843"><ele>252.0</ele><time>2026-05-02T16:01:38.998Z</time></trkpt><trkpt lat="44.28048953399789" lon="11.094196169843949"><ele>252.0</ele><time>2026-05-02T16:01:39.998Z</time></trkpt><trkpt lat="44.28050823426472" lon="11.094331837658606"><ele>252.0</ele><time>2026-05-02T16:01:40.998Z</time></trkpt><trkpt lat="44.28052820824934" lon="11.09444671159733"><ele>252.0</ele><time>2026-05-02T16:01:41.998Z</time></trkpt><trkpt lat="44.280583599702744" lon="11.094555070476604"><ele>252.0</ele><time>2026-05-02T16:01:42.998Z</time></trkpt><trkpt lat="44.28065103875269" lon="11.094638496029386"><ele>252.0</ele><time>2026-05-02T16:01:43.998Z</time></trkpt><trkpt lat="44.28073625159113" lon="11.09469202548857"><ele>252.0</ele><time>2026-05-02T16:01:44.998Z</time></trkpt><trkpt lat="44.280829621265546" lon="11.094754243185712"><ele>252.0</ele><time>2026-05-02T16:01:45.998Z</time></trkpt><trkpt lat="44.280916833492334" lon="11.094819892733724"><ele>252.0</ele><time>2026-05-02T16:01:46.998Z</time></trkpt><trkpt lat="44.28101452119309" lon="11.094892134529454"><ele>252.0</ele><time>2026-05-02T16:01:47.998Z</time></trkpt><trkpt lat="44.281109361296906" lon="11.094979539639937"><ele>252.0</ele><time>2026-05-02T16:01:48.998Z</time></trkpt><trkpt lat="44.2812124182728" lon="11.095036497565289"><ele>250.6</ele><time>2026-05-02T16:01:49.998Z</time></trkpt><trkpt lat="44.281306998469326" lon="11.095120017081602"><ele>249.2</ele><time>2026-05-02T16:01:50.998Z</time></trkpt><trkpt lat="44.28140618801544" lon="11.095172908439322"><ele>247.8</ele><time>2026-05-02T16:01:51.998Z</time></trkpt><trkpt lat="44.281499739445536" lon="11.095253556799488"><ele>246.4</ele><time>2026-05-02T16:01:52.998Z</time></trkpt><trkpt lat="44.28159614460306" lon="11.095341231397967"><ele>245.0</ele><time>2026-05-02T16:01:53.998Z</time></trkpt><trkpt lat="44.28168613125028" lon="11.095423429608498"><ele>245.0</ele><time>2026-05-02T16:01:54.998Z</time></trkpt><trkpt lat="44.28177787642213" lon="11.09552039826246"><ele>245.0</ele><time>2026-05-02T16:01:55.998Z</time></trkpt><trkpt lat="44.28186178816943" lon="11.095639779691428"><ele>245.0</ele><time>2026-05-02T16:01:56.998Z</time></trkpt><trkpt lat="44.2819425737014" lon="11.095759554580471"><ele>245.0</ele><time>2026-05-02T16:01:57.998Z</time></trkpt><trkpt lat="44.28201872985673" lon="11.095874131583379"><ele>244.4</ele><time>2026-05-02T16:01:58.998Z</time></trkpt><trkpt lat="44.282089247025965" lon="11.095990224927137"><ele>243.8</ele><time>2026-05-02T16:01:59.998Z</time></trkpt><trkpt lat="44.28216110289128" lon="11.096097887628966"><ele>243.2</ele><time>2026-05-02T16:02:00.998Z</time></trkpt><trkpt lat="44.282229651397024" lon="11.09620358701106"><ele>242.6</ele><time>2026-05-02T16:02:01.998Z</time></trkpt><trkpt lat="44.28229773940113" lon="11.096312002129363"><ele>242.0</ele><time>2026-05-02T16:02:02.999Z</time></trkpt><trkpt lat="44.28236438765164" lon="11.096420772069317"><ele>242.0</ele><time>2026-05-02T16:02:03.999Z</time></trkpt><trkpt lat="44.282429123219" lon="11.09653179632032"><ele>242.0</ele><time>2026-05-02T16:02:04.999Z</time></trkpt><trkpt lat="44.282491160089485" lon="11.096650403875971"><ele>242.0</ele><time>2026-05-02T16:02:05.999Z</time></trkpt><trkpt lat="44.28255478379068" lon="11.096772669299911"><ele>242.0</ele><time>2026-05-02T16:02:06.999Z</time></trkpt><trkpt lat="44.28260207951961" lon="11.096908000620417"><ele>242.0</ele><time>2026-05-02T16:02:07.999Z</time></trkpt><trkpt lat="44.28265886602334" lon="11.097039151450364"><ele>239.8</ele><time>2026-05-02T16:02:08.999Z</time></trkpt><trkpt lat="44.28272326785911" lon="11.097173921734898"><ele>237.6</ele><time>2026-05-02T16:02:09.999Z</time></trkpt><trkpt lat="44.282791118116926" lon="11.097300747668259"><ele>235.40000000000003</ele><time>2026-05-02T16:02:10.999Z</time></trkpt><trkpt lat="44.28284206041327" lon="11.09742775638037"><ele>233.20000000000002</ele><time>2026-05-02T16:02:11.999Z</time></trkpt><trkpt lat="44.28289653793544" lon="11.097547679924752"><ele>231.0</ele><time>2026-05-02T16:02:12.999Z</time></trkpt><trkpt lat="44.28295195602473" lon="11.097659314027206"><ele>229.8</ele><time>2026-05-02T16:02:13.999Z</time></trkpt><trkpt lat="44.28300228321402" lon="11.097769934147815"><ele>228.60000000000002</ele><time>2026-05-02T16:02:14.999Z</time></trkpt><trkpt lat="44.283060829943565" lon="11.097871449833365"><ele>227.4</ele><time>2026-05-02T16:02:15.999Z</time></trkpt><trkpt lat="44.28311327775968" lon="11.097980580978613"><ele>226.2</ele><time>2026-05-02T16:02:16.999Z</time></trkpt><trkpt lat="44.28317897908376" lon="11.098087651130731"><ele>225.0</ele><time>2026-05-02T16:02:17.999Z</time></trkpt><trkpt lat="44.283247265165265" lon="11.098196964168267"><ele>224.4</ele><time>2026-05-02T16:02:18.999Z</time></trkpt><trkpt lat="44.28331773201683" lon="11.098306137647844"><ele>223.8</ele><time>2026-05-02T16:02:19.999Z</time></trkpt><trkpt lat="44.28339384382467" lon="11.098410760787202"><ele>223.2</ele><time>2026-05-02T16:02:20.999Z</time></trkpt><trkpt lat="44.283460039497974" lon="11.098531888605365"><ele>222.6</ele><time>2026-05-02T16:02:21.999Z</time></trkpt><trkpt lat="44.28353377858218" lon="11.098638984971739"><ele>222.0</ele><time>2026-05-02T16:02:22.999Z</time></trkpt><trkpt lat="44.28360143900358" lon="11.098740877288815"><ele>222.0</ele><time>2026-05-02T16:02:23.999Z</time></trkpt><trkpt lat="44.2836619208397" lon="11.098834189566118"><ele>222.0</ele><time>2026-05-02T16:02:24.999Z</time></trkpt><trkpt lat="44.28372662168146" lon="11.098917619865901"><ele>222.0</ele><time>2026-05-02T16:02:25.999Z</time></trkpt><trkpt lat="44.283806598940146" lon="11.099034136424978"><ele>222.0</ele><time>2026-05-02T16:02:27.999Z</time></trkpt><trkpt lat="44.28385940800988" lon="11.099117349019844"><ele>222.0</ele><time>2026-05-02T16:02:29.999Z</time></trkpt><trkpt lat="44.2839078925715" lon="11.09918522730343"><ele>222.0</ele><time>2026-05-02T16:02:31.999Z</time></trkpt><trkpt lat="44.283962521410125" lon="11.099272844697252"><ele>221.83333333333334</ele><time>2026-05-02T16:02:34.999Z</time></trkpt><trkpt lat="44.283978843674504" lon="11.099389402587478"><ele>221.66666666666669</ele><time>2026-05-02T16:02:37.999Z</time></trkpt><trkpt lat="44.283919328078035" lon="11.099509588555488"><ele>221.5</ele><time>2026-05-02T16:02:39.999Z</time></trkpt><trkpt lat="44.283863873197035" lon="11.09959426197718"><ele>221.33333333333334</ele><time>2026-05-02T16:02:40.999Z</time></trkpt><trkpt lat="44.283808936942314" lon="11.099679601225485"><ele>221.16666666666669</ele><time>2026-05-02T16:02:41.999Z</time></trkpt><trkpt lat="44.28375690231959" lon="11.09978227613923"><ele>221.0</ele><time>2026-05-02T16:02:42.999Z</time></trkpt><trkpt lat="44.28370821615349" lon="11.099889886198797"><ele>220.0</ele><time>2026-05-02T16:02:43.999Z</time></trkpt><trkpt lat="44.2836617136431" lon="11.099997303769008"><ele>219.00000000000003</ele><time>2026-05-02T16:02:45Z</time></trkpt><trkpt lat="44.283614996987346" lon="11.100104400731903"><ele>218.00000000000003</ele><time>2026-05-02T16:02:46Z</time></trkpt><trkpt lat="44.28357942752421" lon="11.100216425862643"><ele>217.0</ele><time>2026-05-02T16:02:47Z</time></trkpt><trkpt lat="44.28354184911293" lon="11.100344059476404"><ele>216.0</ele><time>2026-05-02T16:02:48Z</time></trkpt><trkpt lat="44.28350668588678" lon="11.100473480157344"><ele>216.0</ele><time>2026-05-02T16:02:49Z</time></trkpt><trkpt lat="44.28346747291111" lon="11.100602438636994"><ele>216.00000000000003</ele><time>2026-05-02T16:02:50Z</time></trkpt><trkpt lat="44.28345919127268" lon="11.100737684253588"><ele>216.00000000000003</ele><time>2026-05-02T16:02:51Z</time></trkpt><trkpt lat="44.2834416490114" lon="11.100881992646409"><ele>216.0</ele><time>2026-05-02T16:02:52Z</time></trkpt><trkpt lat="44.283427291760404" lon="11.101025520433172"><ele>216.0</ele><time>2026-05-02T16:02:53Z</time></trkpt><trkpt lat="44.28341477821774" lon="11.101171341280327"><ele>216.20000000000002</ele><time>2026-05-02T16:02:54Z</time></trkpt><trkpt lat="44.2834009797613" lon="11.101319581258709"><ele>216.40000000000003</ele><time>2026-05-02T16:02:55Z</time></trkpt><trkpt lat="44.28338707759563" lon="11.101463449975839"><ele>216.6</ele><time>2026-05-02T16:02:56Z</time></trkpt><trkpt lat="44.28338461006491" lon="11.101613773013597"><ele>216.8</ele><time>2026-05-02T16:02:57Z</time></trkpt><trkpt lat="44.28338480226476" lon="11.101772649231837"><ele>217.0</ele><time>2026-05-02T16:02:58Z</time></trkpt><trkpt lat="44.283389585202826" lon="11.101924594717266"><ele>216.5</ele><time>2026-05-02T16:02:59Z</time></trkpt><trkpt lat="44.28337542052407" lon="11.102080593332065"><ele>216.0</ele><time>2026-05-02T16:03:00Z</time></trkpt><trkpt lat="44.28338182699752" lon="11.102235619284263"><ele>215.5</ele><time>2026-05-02T16:03:01Z</time></trkpt><trkpt lat="44.28339035616201" lon="11.102399690769937"><ele>215.0</ele><time>2026-05-02T16:03:02Z</time></trkpt><trkpt lat="44.283400829051715" lon="11.102562709395903"><ele>214.75</ele><time>2026-05-02T16:03:03Z</time></trkpt><trkpt lat="44.28340856755548" lon="11.102722655157656"><ele>214.5</ele><time>2026-05-02T16:03:04Z</time></trkpt><trkpt lat="44.28341274431962" lon="11.102889082753894"><ele>214.25</ele><time>2026-05-02T16:03:05Z</time></trkpt><trkpt lat="44.28340696107696" lon="11.103057566244374"><ele>214.0</ele><time>2026-05-02T16:03:06Z</time></trkpt><trkpt lat="44.28340004764165" lon="11.103221708315257"><ele>213.25</ele><time>2026-05-02T16:03:07Z</time></trkpt><trkpt lat="44.28339593189875" lon="11.103385408826705"><ele>212.5</ele><time>2026-05-02T16:03:08Z</time></trkpt><trkpt lat="44.283390263594704" lon="11.103551409896552"><ele>211.75</ele><time>2026-05-02T16:03:09Z</time></trkpt><trkpt lat="44.283387985260994" lon="11.10371446337236"><ele>211.0</ele><time>2026-05-02T16:03:10Z</time></trkpt><trkpt lat="44.283382854801594" lon="11.103875824353088"><ele>211.0</ele><time>2026-05-02T16:03:11Z</time></trkpt><trkpt lat="44.28337529490677" lon="11.104037580266848"><ele>211.0</ele><time>2026-05-02T16:03:12Z</time></trkpt><trkpt lat="44.28335595664875" lon="11.104194383579737"><ele>211.0</ele><time>2026-05-02T16:03:13Z</time></trkpt><trkpt lat="44.28331902317437" lon="11.1043401767221"><ele>211.0</ele><time>2026-05-02T16:03:14Z</time></trkpt><trkpt lat="44.283281119314566" lon="11.104482455593969"><ele>211.0</ele><time>2026-05-02T16:03:15Z</time></trkpt><trkpt lat="44.283245589836895" lon="11.104620444467354"><ele>210.8</ele><time>2026-05-02T16:03:16Z</time></trkpt><trkpt lat="44.283212542021154" lon="11.10475267999536"><ele>210.60000000000002</ele><time>2026-05-02T16:03:17Z</time></trkpt><trkpt lat="44.28317884023117" lon="11.104877427075627"><ele>210.4</ele><time>2026-05-02T16:03:18Z</time></trkpt><trkpt lat="44.28314389195235" lon="11.104991586711458"><ele>210.2</ele><time>2026-05-02T16:03:19Z</time></trkpt><trkpt lat="44.28311401618514" lon="11.105098500792284"><ele>210.0</ele><time>2026-05-02T16:03:20Z</time></trkpt><trkpt lat="44.283089166267736" lon="11.105213023226453"><ele>209.6</ele><time>2026-05-02T16:03:21Z</time></trkpt><trkpt lat="44.283075157571695" lon="11.105335016975843"><ele>209.2</ele><time>2026-05-02T16:03:22Z</time></trkpt><trkpt lat="44.28306538188735" lon="11.10546747528078"><ele>208.8</ele><time>2026-05-02T16:03:23Z</time></trkpt><trkpt lat="44.28306511218945" lon="11.10561301049341"><ele>208.4</ele><time>2026-05-02T16:03:24Z</time></trkpt><trkpt lat="44.28306374691184" lon="11.105759828898801"><ele>208.0</ele><time>2026-05-02T16:03:25Z</time></trkpt><trkpt lat="44.28306889786982" lon="11.105906383064355"><ele>207.8</ele><time>2026-05-02T16:03:26.001Z</time></trkpt><trkpt lat="44.28307440927946" lon="11.106056506316433"><ele>207.60000000000002</ele><time>2026-05-02T16:03:27.001Z</time></trkpt><trkpt lat="44.28308226236142" lon="11.10621398028118"><ele>207.39999999999998</ele><time>2026-05-02T16:03:28Z</time></trkpt><trkpt lat="44.28307253926952" lon="11.106368756249523"><ele>207.2</ele><time>2026-05-02T16:03:29Z</time></trkpt><trkpt lat="44.28307932917534" lon="11.106520175355996"><ele>207.0</ele><time>2026-05-02T16:03:30Z</time></trkpt><trkpt lat="44.28308612661156" lon="11.106671762241763"><ele>207.0</ele><time>2026-05-02T16:03:30.999Z</time></trkpt><trkpt lat="44.28309225037444" lon="11.106808326159117"><ele>207.0</ele><time>2026-05-02T16:03:32Z</time></trkpt><trkpt lat="44.28309887003207" lon="11.10695865108762"><ele>207.0</ele><time>2026-05-02T16:03:33Z</time></trkpt><trkpt lat="44.283105360158736" lon="11.107106355633256"><ele>207.0</ele><time>2026-05-02T16:03:33.999Z</time></trkpt><trkpt lat="44.283141744776465" lon="11.107253398227341"><ele>207.0</ele><time>2026-05-02T16:03:34.999Z</time></trkpt><trkpt lat="44.283156211922595" lon="11.107385898056124"><ele>206.8</ele><time>2026-05-02T16:03:35.999Z</time></trkpt><trkpt lat="44.28315706123586" lon="11.10754301890276"><ele>206.6</ele><time>2026-05-02T16:03:36.999Z</time></trkpt><trkpt lat="44.28315680276292" lon="11.107691561057125"><ele>206.4</ele><time>2026-05-02T16:03:37.999Z</time></trkpt><trkpt lat="44.28313584792494" lon="11.107836670796043"><ele>206.20000000000002</ele><time>2026-05-02T16:03:38.999Z</time></trkpt><trkpt lat="44.28314184712225" lon="11.107978218158866"><ele>206.0</ele><time>2026-05-02T16:03:40Z</time></trkpt><trkpt lat="44.28315967125805" lon="11.10812377997661"><ele>206.20000000000002</ele><time>2026-05-02T16:03:40.999Z</time></trkpt><trkpt lat="44.28314479189227" lon="11.10826680683086"><ele>206.4</ele><time>2026-05-02T16:03:41.999Z</time></trkpt><trkpt lat="44.28315808392298" lon="11.108414179735487"><ele>206.6</ele><time>2026-05-02T16:03:42.999Z</time></trkpt><trkpt lat="44.28317147180391" lon="11.108556434827664"><ele>206.8</ele><time>2026-05-02T16:03:43.999Z</time></trkpt><trkpt lat="44.28317938459144" lon="11.108697671282936"><ele>207.0</ele><time>2026-05-02T16:03:44.999Z</time></trkpt><trkpt lat="44.283186332804235" lon="11.108834687386464"><ele>207.0</ele><time>2026-05-02T16:03:45.999Z</time></trkpt><trkpt lat="44.28319969108749" lon="11.108975071295092"><ele>207.0</ele><time>2026-05-02T16:03:47Z</time></trkpt><trkpt lat="44.28318583760706" lon="11.10911390137409"><ele>207.0</ele><time>2026-05-02T16:03:48Z</time></trkpt><trkpt lat="44.28319677872236" lon="11.109249357506641"><ele>207.0</ele><time>2026-05-02T16:03:49Z</time></trkpt><trkpt lat="44.283207016672044" lon="11.109373115370882"><ele>207.0</ele><time>2026-05-02T16:03:50Z</time></trkpt><trkpt lat="44.28321748516419" lon="11.109491518615515"><ele>207.16666666666666</ele><time>2026-05-02T16:03:51Z</time></trkpt><trkpt lat="44.28322349021816" lon="11.109598477624822"><ele>207.33333333333331</ele><time>2026-05-02T16:03:52Z</time></trkpt><trkpt lat="44.283229218413446" lon="11.1097118370245"><ele>207.5</ele><time>2026-05-02T16:03:53Z</time></trkpt><trkpt lat="44.28323913870704" lon="11.109826317886084"><ele>207.66666666666666</ele><time>2026-05-02T16:03:54Z</time></trkpt><trkpt lat="44.28324983611495" lon="11.109950512435114"><ele>207.83333333333331</ele><time>2026-05-02T16:03:55Z</time></trkpt><trkpt lat="44.28325972652323" lon="11.110070753328941"><ele>208.0</ele><time>2026-05-02T16:03:56Z</time></trkpt><trkpt lat="44.28325383321375" lon="11.110186902391849"><ele>207.49999999999997</ele><time>2026-05-02T16:03:57Z</time></trkpt><trkpt lat="44.28325879479175" lon="11.110295214693158"><ele>207.0</ele><time>2026-05-02T16:03:58Z</time></trkpt><trkpt lat="44.28326757772094" lon="11.110486947612525"><ele>206.5</ele><time>2026-05-02T16:04:00Z</time></trkpt><trkpt lat="44.28327231431233" lon="11.110588928221556"><ele>206.0</ele><time>2026-05-02T16:04:02Z</time></trkpt><trkpt lat="44.28327751952237" lon="11.110714754651562"><ele>205.49999999999997</ele><time>2026-05-02T16:04:05Z</time></trkpt><trkpt lat="44.283281065271716" lon="11.110808647795535"><ele>205.0</ele><time>2026-05-02T16:05:25.002Z</time></trkpt><trkpt lat="44.28328257574512" lon="11.11093568535643"><ele>204.4</ele><time>2026-05-02T16:05:28.002Z</time></trkpt><trkpt lat="44.283265245118926" lon="11.111041264656953"><ele>203.8</ele><time>2026-05-02T16:05:31.002Z</time></trkpt><trkpt lat="44.28329930119903" lon="11.111204999498433"><ele>203.2</ele><time>2026-05-02T16:05:33.002Z</time></trkpt><trkpt lat="44.28333624324023" lon="11.111308898876494"><ele>202.6</ele><time>2026-05-02T16:05:36.001Z</time></trkpt><trkpt lat="44.283371820390514" lon="11.111418735151442"><ele>202.0</ele><time>2026-05-02T16:05:51.001Z</time></trkpt><trkpt lat="44.28341672527082" lon="11.111527336910854"><ele>201.8</ele><time>2026-05-02T16:05:53.001Z</time></trkpt><trkpt lat="44.283488282173366" lon="11.11164422001531"><ele>201.6</ele><time>2026-05-02T16:05:55.001Z</time></trkpt><trkpt lat="44.28353436540044" lon="11.11172150945397"><ele>201.4</ele><time>2026-05-02T16:05:56.001Z</time></trkpt><trkpt lat="44.28364207274298" lon="11.111724146679638"><ele>201.20000000000002</ele><time>2026-05-02T16:05:57.001Z</time></trkpt><trkpt lat="44.28372250948609" lon="11.111779515259022"><ele>201.0</ele><time>2026-05-02T16:05:58.001Z</time></trkpt><trkpt lat="44.283803320274366" lon="11.11183360123825"><ele>201.0</ele><time>2026-05-02T16:05:59.001Z</time></trkpt><trkpt lat="44.28388489864892" lon="11.111869017456334"><ele>201.0</ele><time>2026-05-02T16:06:00.001Z</time></trkpt><trkpt lat="44.28396049302443" lon="11.111910157230875"><ele>201.0</ele><time>2026-05-02T16:06:01.001Z</time></trkpt><trkpt lat="44.284038135798035" lon="11.111947563583033"><ele>201.0</ele><time>2026-05-02T16:06:02.001Z</time></trkpt><trkpt lat="44.2841189031522" lon="11.111981868544952"><ele>201.0</ele><time>2026-05-02T16:06:03.001Z</time></trkpt><trkpt lat="44.28419889814132" lon="11.112016005492967"><ele>201.0</ele><time>2026-05-02T16:06:04.001Z</time></trkpt><trkpt lat="44.28427633442392" lon="11.112054730288513"><ele>201.5</ele><time>2026-05-02T16:06:05.001Z</time></trkpt><trkpt lat="44.28435436526686" lon="11.112101263671075"><ele>202.0</ele><time>2026-05-02T16:06:06.001Z</time></trkpt><trkpt lat="44.284434358644155" lon="11.112141046629704"><ele>202.5</ele><time>2026-05-02T16:06:07.001Z</time></trkpt><trkpt lat="44.28451316255907" lon="11.112186164442917"><ele>203.0</ele><time>2026-05-02T16:06:08.001Z</time></trkpt><trkpt lat="44.2845977888047" lon="11.112221016097465"><ele>203.5</ele><time>2026-05-02T16:06:09.001Z</time></trkpt><trkpt lat="44.28467500899865" lon="11.112270117296388"><ele>204.0</ele><time>2026-05-02T16:06:10.001Z</time></trkpt><trkpt lat="44.284764908015504" lon="11.112320132188184"><ele>204.83333333333334</ele><time>2026-05-02T16:06:11.001Z</time></trkpt><trkpt lat="44.28484906237605" lon="11.112359655217668"><ele>205.66666666666669</ele><time>2026-05-02T16:06:12.001Z</time></trkpt><trkpt lat="44.284929736702296" lon="11.112407786388255"><ele>206.5</ele><time>2026-05-02T16:06:13.001Z</time></trkpt><trkpt lat="44.28501177580238" lon="11.112448120779423"><ele>207.33333333333334</ele><time>2026-05-02T16:06:14.001Z</time></trkpt><trkpt lat="44.28509590358404" lon="11.112486371176939"><ele>208.16666666666669</ele><time>2026-05-02T16:06:15.001Z</time></trkpt><trkpt lat="44.285180109940136" lon="11.112508564114291"><ele>209.0</ele><time>2026-05-02T16:06:16.001Z</time></trkpt><trkpt lat="44.28526620481218" lon="11.112544458501086"><ele>206.79999999999998</ele><time>2026-05-02T16:06:17.002Z</time></trkpt><trkpt lat="44.285360753082784" lon="11.112560193321968"><ele>204.6</ele><time>2026-05-02T16:06:18.002Z</time></trkpt><trkpt lat="44.28544975448194" lon="11.11258866487153"><ele>202.4</ele><time>2026-05-02T16:06:19.002Z</time></trkpt><trkpt lat="44.28554673623724" lon="11.11260296774087"><ele>200.2</ele><time>2026-05-02T16:06:20.002Z</time></trkpt><trkpt lat="44.285649561455045" lon="11.112591477983376"><ele>198.0</ele><time>2026-05-02T16:06:21.002Z</time></trkpt><trkpt lat="44.28575897115514" lon="11.112575533104796"><ele>198.0</ele><time>2026-05-02T16:06:22.002Z</time></trkpt><trkpt lat="44.28586641713513" lon="11.112557839157171"><ele>198.0</ele><time>2026-05-02T16:06:23.002Z</time></trkpt><trkpt lat="44.285980806644474" lon="11.112530051175556"><ele>198.0</ele><time>2026-05-02T16:06:24.002Z</time></trkpt><trkpt lat="44.28609118321922" lon="11.11250660352897"><ele>198.0</ele><time>2026-05-02T16:06:25.002Z</time></trkpt><trkpt lat="44.286209088526405" lon="11.112474571440861"><ele>198.0</ele><time>2026-05-02T16:06:26.002Z</time></trkpt><trkpt lat="44.28631987724386" lon="11.112449349556638"><ele>198.0</ele><time>2026-05-02T16:06:27.002Z</time></trkpt><trkpt lat="44.286426517405786" lon="11.112417445391412"><ele>198.0</ele><time>2026-05-02T16:06:28.002Z</time></trkpt><trkpt lat="44.28653521405817" lon="11.112392428840808"><ele>198.0</ele><time>2026-05-02T16:06:29.002Z</time></trkpt><trkpt lat="44.2866374715331" lon="11.112363360792084"><ele>198.0</ele><time>2026-05-02T16:06:30.002Z</time></trkpt><trkpt lat="44.28673941770973" lon="11.112342538249393"><ele>199.2</ele><time>2026-05-02T16:06:31.002Z</time></trkpt><trkpt lat="44.286832390078985" lon="11.11232052548122"><ele>200.4</ele><time>2026-05-02T16:06:32.002Z</time></trkpt><trkpt lat="44.28691640885397" lon="11.112297739099228"><ele>201.6</ele><time>2026-05-02T16:06:33.002Z</time></trkpt><trkpt lat="44.28700421833124" lon="11.112298518725922"><ele>202.79999999999998</ele><time>2026-05-02T16:06:34.002Z</time></trkpt><trkpt lat="44.287093028611544" lon="11.11227312385749"><ele>204.0</ele><time>2026-05-02T16:06:35.002Z</time></trkpt><trkpt lat="44.287188714056185" lon="11.112247992301736"><ele>203.39999999999998</ele><time>2026-05-02T16:06:36.002Z</time></trkpt><trkpt lat="44.2872774523245" lon="11.112222169309803"><ele>202.8</ele><time>2026-05-02T16:06:37.002Z</time></trkpt><trkpt lat="44.28735983075036" lon="11.11216763288383"><ele>202.2</ele><time>2026-05-02T16:06:38.002Z</time></trkpt><trkpt lat="44.2874551294592" lon="11.11214820730902"><ele>201.60000000000002</ele><time>2026-05-02T16:06:39.002Z</time></trkpt><trkpt lat="44.28755489902633" lon="11.112120415160401"><ele>201.0</ele><time>2026-05-02T16:06:40.002Z</time></trkpt><trkpt lat="44.287653917174175" lon="11.112087786781075"><ele>201.0</ele><time>2026-05-02T16:06:41.002Z</time></trkpt><trkpt lat="44.28775348146002" lon="11.112065716889486"><ele>201.0</ele><time>2026-05-02T16:06:42.002Z</time></trkpt><trkpt lat="44.287857520456754" lon="11.112046294209188"><ele>201.0</ele><time>2026-05-02T16:06:43.002Z</time></trkpt><trkpt lat="44.287962856541526" lon="11.112025560451906"><ele>201.0</ele><time>2026-05-02T16:06:44.002Z</time></trkpt><trkpt lat="44.288064627601216" lon="11.112013759364656"><ele>201.0</ele><time>2026-05-02T16:06:45.002Z</time></trkpt><trkpt lat="44.28815662323733" lon="11.112022770877978"><ele>201.20000000000002</ele><time>2026-05-02T16:06:46.002Z</time></trkpt><trkpt lat="44.28823316992549" lon="11.112030303964044"><ele>201.4</ele><time>2026-05-02T16:06:47.002Z</time></trkpt><trkpt lat="44.28831596357779" lon="11.112053451542888"><ele>201.6</ele><time>2026-05-02T16:06:48.002Z</time></trkpt><trkpt lat="44.288377947666184" lon="11.112085635132946"><ele>201.8</ele><time>2026-05-02T16:06:49.002Z</time></trkpt><trkpt lat="44.28845727443717" lon="11.112130549984013"><ele>202.0</ele><time>2026-05-02T16:06:51.002Z</time></trkpt><trkpt lat="44.288384916740995" lon="11.112301334877122"><ele>201.99999999999997</ele><time>2026-05-02T16:06:57.002Z</time></trkpt><trkpt lat="44.288328376471874" lon="11.112383613311943"><ele>202.0</ele><time>2026-05-02T16:06:59.001Z</time></trkpt><trkpt lat="44.2882782375037" lon="11.112445579953395"><ele>202.0</ele><time>2026-05-02T16:07:01Z</time></trkpt><trkpt lat="44.28821242747635" lon="11.112492469896477"><ele>202.0</ele><time>2026-05-02T16:07:03.999Z</time></trkpt><trkpt lat="44.288133057064606" lon="11.112564234096059"><ele>201.99999999999997</ele><time>2026-05-02T16:07:42.994Z</time></trkpt><trkpt lat="44.288021928949526" lon="11.112601215900336"><ele>202.0</ele><time>2026-05-02T16:07:44.993Z</time></trkpt><trkpt lat="44.287901593054414" lon="11.112655044753424"><ele>200.0</ele><time>2026-05-02T16:07:46.994Z</time></trkpt><trkpt lat="44.287837254756724" lon="11.112720744970824"><ele>198.0</ele><time>2026-05-02T16:07:47.994Z</time></trkpt><trkpt lat="44.28778258242088" lon="11.112818785953085"><ele>196.0</ele><time>2026-05-02T16:07:48.993Z</time></trkpt><trkpt lat="44.287743900632236" lon="11.112973216886152"><ele>194.0</ele><time>2026-05-02T16:07:49.993Z</time></trkpt><trkpt lat="44.28771544819166" lon="11.113117417278799"><ele>192.0</ele><time>2026-05-02T16:07:50.993Z</time></trkpt><trkpt lat="44.28767671576912" lon="11.113263598615244"><ele>190.83333333333334</ele><time>2026-05-02T16:07:51.994Z</time></trkpt><trkpt lat="44.28768693483288" lon="11.113378304881932"><ele>189.66666666666666</ele><time>2026-05-02T16:07:52.994Z</time></trkpt><trkpt lat="44.28768983765913" lon="11.113567492479584"><ele>188.5</ele><time>2026-05-02T16:07:54.994Z</time></trkpt><trkpt lat="44.28769551691782" lon="11.113680411963896"><ele>187.33333333333331</ele><time>2026-05-02T16:07:55.994Z</time></trkpt><trkpt lat="44.28770697508001" lon="11.11377545366603"><ele>186.16666666666666</ele><time>2026-05-02T16:07:56.994Z</time></trkpt><trkpt lat="44.287685159588456" lon="11.11387802434885"><ele>185.0</ele><time>2026-05-02T16:07:57.994Z</time></trkpt><trkpt lat="44.28766671021351" lon="11.113989177573863"><ele>185.5</ele><time>2026-05-02T16:07:58.994Z</time></trkpt><trkpt lat="44.28765996118515" lon="11.114097212915466"><ele>186.0</ele><time>2026-05-02T16:07:59.994Z</time></trkpt><trkpt lat="44.287655672045474" lon="11.114199177620039"><ele>186.5</ele><time>2026-05-02T16:08:00.994Z</time></trkpt><trkpt lat="44.28753766162229" lon="11.114283228095811"><ele>187.0</ele><time>2026-05-02T16:08:01.994Z</time></trkpt><trkpt lat="44.28755674698112" lon="11.114563081841888"><ele>187.0</ele><time>2026-05-02T16:08:02.994Z</time></trkpt><trkpt lat="44.28747822359486" lon="11.114633382211787"><ele>187.0</ele><time>2026-05-02T16:08:03.994Z</time></trkpt><trkpt lat="44.28733016684384" lon="11.114601445501899"><ele>187.0</ele><time>2026-05-02T16:08:04.994Z</time></trkpt><trkpt lat="44.287338056291524" lon="11.114820019409958"><ele>187.0</ele><time>2026-05-02T16:08:08.994Z</time></trkpt><trkpt lat="44.28738391157904" lon="11.115024109191129"><ele>187.8</ele><time>2026-05-02T16:08:09.994Z</time></trkpt><trkpt lat="44.287416624508865" lon="11.115186353837233"><ele>188.6</ele><time>2026-05-02T16:08:10.994Z</time></trkpt><trkpt lat="44.28758282994549" lon="11.115326403094922"><ele>189.4</ele><time>2026-05-02T16:08:11.994Z</time></trkpt><trkpt lat="44.28757309262699" lon="11.115420318029846"><ele>190.20000000000002</ele><time>2026-05-02T16:08:12.994Z</time></trkpt><trkpt lat="44.28756092941352" lon="11.115508037346165"><ele>191.0</ele><time>2026-05-02T16:08:13.994Z</time></trkpt><trkpt lat="44.287530583893925" lon="11.11561711624516"><ele>191.0</ele><time>2026-05-02T16:08:14.994Z</time></trkpt><trkpt lat="44.287486936668664" lon="11.115703533622385"><ele>191.0</ele><time>2026-05-02T16:08:17.994Z</time></trkpt><trkpt lat="44.28757736944241" lon="11.115786629737158"><ele>191.0</ele><time>2026-05-02T16:08:19.994Z</time></trkpt><trkpt lat="44.287645415106184" lon="11.11584426144823"><ele>191.0</ele><time>2026-05-02T16:08:20.994Z</time></trkpt><trkpt lat="44.287715491190674" lon="11.1158806914878"><ele>191.0</ele><time>2026-05-02T16:08:21.994Z</time></trkpt><trkpt lat="44.287798420709485" lon="11.115911830294772"><ele>191.0</ele><time>2026-05-02T16:08:22.994Z</time></trkpt><trkpt lat="44.28787522779066" lon="11.1159577649946"><ele>191.33333333333331</ele><time>2026-05-02T16:08:23.994Z</time></trkpt><trkpt lat="44.287964200935164" lon="11.115954220048625"><ele>191.66666666666666</ele><time>2026-05-02T16:08:24.994Z</time></trkpt><trkpt lat="44.288052337140165" lon="11.115935612420708"><ele>192.0</ele><time>2026-05-02T16:08:25.994Z</time></trkpt><trkpt lat="44.288135620173186" lon="11.11590230617791"><ele>192.33333333333331</ele><time>2026-05-02T16:08:26.994Z</time></trkpt><trkpt lat="44.28821087093075" lon="11.115888179973433"><ele>192.66666666666666</ele><time>2026-05-02T16:08:27.994Z</time></trkpt><trkpt lat="44.288299643536774" lon="11.115892584368071"><ele>193.0</ele><time>2026-05-02T16:08:28.994Z</time></trkpt><trkpt lat="44.2883916137341" lon="11.115912927934193"><ele>193.0</ele><time>2026-05-02T16:08:29.994Z</time></trkpt><trkpt lat="44.28849157497622" lon="11.115918606876088"><ele>193.0</ele><time>2026-05-02T16:08:30.994Z</time></trkpt><trkpt lat="44.28857045937036" lon="11.115968138667263"><ele>193.0</ele><time>2026-05-02T16:08:31.994Z</time></trkpt><trkpt lat="44.288644342409654" lon="11.11602415362005"><ele>193.0</ele><time>2026-05-02T16:08:32.994Z</time></trkpt><trkpt lat="44.28871261072138" lon="11.116100119530737"><ele>193.0</ele><time>2026-05-02T16:08:33.994Z</time></trkpt><trkpt lat="44.28878870108881" lon="11.116172445293223"><ele>193.0</ele><time>2026-05-02T16:08:34.994Z</time></trkpt><trkpt lat="44.2888571301418" lon="11.116244647923446"><ele>193.0</ele><time>2026-05-02T16:08:35.995Z</time></trkpt><trkpt lat="44.288924545865356" lon="11.11632989537084"><ele>193.0</ele><time>2026-05-02T16:08:36.995Z</time></trkpt><trkpt lat="44.28898073798997" lon="11.11642305851566"><ele>193.0</ele><time>2026-05-02T16:08:37.995Z</time></trkpt><trkpt lat="44.28903821722399" lon="11.11652580477048"><ele>193.0</ele><time>2026-05-02T16:08:38.995Z</time></trkpt><trkpt lat="44.289098418854735" lon="11.116629183000159"><ele>192.49999999999997</ele><time>2026-05-02T16:08:39.995Z</time></trkpt><trkpt lat="44.28915505936829" lon="11.116735460293821"><ele>192.0</ele><time>2026-05-02T16:08:40.995Z</time></trkpt><trkpt lat="44.28918911690149" lon="11.116846041932329"><ele>191.5</ele><time>2026-05-02T16:08:41.995Z</time></trkpt><trkpt lat="44.289226915172605" lon="11.116958224282982"><ele>191.0</ele><time>2026-05-02T16:08:42.995Z</time></trkpt><trkpt lat="44.289265496628836" lon="11.117059403720505"><ele>190.5</ele><time>2026-05-02T16:08:43.995Z</time></trkpt><trkpt lat="44.2893407538126" lon="11.117138332809681"><ele>190.0</ele><time>2026-05-02T16:08:44.995Z</time></trkpt><trkpt lat="44.2894069968608" lon="11.117213199253527"><ele>190.0</ele><time>2026-05-02T16:08:45.995Z</time></trkpt><trkpt lat="44.28947535745988" lon="11.11729146460634"><ele>190.0</ele><time>2026-05-02T16:08:46.995Z</time></trkpt><trkpt lat="44.2895475293173" lon="11.117383908843943"><ele>190.0</ele><time>2026-05-02T16:08:47.995Z</time></trkpt><trkpt lat="44.28961890458114" lon="11.117497174995425"><ele>190.0</ele><time>2026-05-02T16:08:48.995Z</time></trkpt><trkpt lat="44.28969151671603" lon="11.117617376741867"><ele>190.0</ele><time>2026-05-02T16:08:49.995Z</time></trkpt><trkpt lat="44.28977795804414" lon="11.117722848246544"><ele>189.6</ele><time>2026-05-02T16:08:50.995Z</time></trkpt><trkpt lat="44.28984808482813" lon="11.11783792396522"><ele>189.2</ele><time>2026-05-02T16:08:51.995Z</time></trkpt><trkpt lat="44.289917518582186" lon="11.117949500548372"><ele>188.8</ele><time>2026-05-02T16:08:52.995Z</time></trkpt><trkpt lat="44.28998369869398" lon="11.11804468616465"><ele>188.4</ele><time>2026-05-02T16:08:53.995Z</time></trkpt><trkpt lat="44.290067434387055" lon="11.118124342342497"><ele>188.0</ele><time>2026-05-02T16:08:54.995Z</time></trkpt><trkpt lat="44.290156779999975" lon="11.118192358321107"><ele>188.4</ele><time>2026-05-02T16:08:55.995Z</time></trkpt><trkpt lat="44.29024818207211" lon="11.118248379154043"><ele>188.8</ele><time>2026-05-02T16:08:56.995Z</time></trkpt><trkpt lat="44.290351199915634" lon="11.118291535011153"><ele>189.2</ele><time>2026-05-02T16:08:57.995Z</time></trkpt><trkpt lat="44.29045914765031" lon="11.118321285538647"><ele>189.6</ele><time>2026-05-02T16:08:58.995Z</time></trkpt><trkpt lat="44.290574223056105" lon="11.118340339139738"><ele>190.0</ele><time>2026-05-02T16:08:59.995Z</time></trkpt><trkpt lat="44.290680813205434" lon="11.118360485924255"><ele>190.0</ele><time>2026-05-02T16:09:00.995Z</time></trkpt><trkpt lat="44.29079074261566" lon="11.118374835536065"><ele>190.0</ele><time>2026-05-02T16:09:01.995Z</time></trkpt><trkpt lat="44.29090362023245" lon="11.118395407976838"><ele>190.0</ele><time>2026-05-02T16:09:02.995Z</time></trkpt><trkpt lat="44.291009713068824" lon="11.118413539383402"><ele>190.0</ele><time>2026-05-02T16:09:03.995Z</time></trkpt><trkpt lat="44.29111072479021" lon="11.118432924757318"><ele>190.0</ele><time>2026-05-02T16:09:04.995Z</time></trkpt><trkpt lat="44.2912065312403" lon="11.118461013205598"><ele>190.0</ele><time>2026-05-02T16:09:05.995Z</time></trkpt><trkpt lat="44.29129227921799" lon="11.11849801764173"><ele>190.0</ele><time>2026-05-02T16:09:06.995Z</time></trkpt><trkpt lat="44.29136547167347" lon="11.118546001505292"><ele>190.0</ele><time>2026-05-02T16:09:07.995Z</time></trkpt><trkpt lat="44.29142514980454" lon="11.118587467306453"><ele>190.0</ele><time>2026-05-02T16:09:08.995Z</time></trkpt><trkpt lat="44.29156245307049" lon="11.118600145106932"><ele>190.0</ele><time>2026-05-02T16:09:10.995Z</time></trkpt><trkpt lat="44.29164676683796" lon="11.118573112508876"><ele>190.0</ele><time>2026-05-02T16:09:11.995Z</time></trkpt><trkpt lat="44.29174080210188" lon="11.118538922718765"><ele>190.0</ele><time>2026-05-02T16:09:12.995Z</time></trkpt><trkpt lat="44.29183439747575" lon="11.118504215483542"><ele>190.0</ele><time>2026-05-02T16:09:13.995Z</time></trkpt><trkpt lat="44.291914882129674" lon="11.118461768356994"><ele>190.0</ele><time>2026-05-02T16:09:14.995Z</time></trkpt><trkpt lat="44.29199019246115" lon="11.11840585936724"><ele>190.0</ele><time>2026-05-02T16:09:15.995Z</time></trkpt><trkpt lat="44.29206606467254" lon="11.118351544096159"><ele>190.0</ele><time>2026-05-02T16:09:16.995Z</time></trkpt><trkpt lat="44.292151383940016" lon="11.118313572394344"><ele>190.0</ele><time>2026-05-02T16:09:17.995Z</time></trkpt><trkpt lat="44.29223386667618" lon="11.118297388641393"><ele>190.0</ele><time>2026-05-02T16:09:18.995Z</time></trkpt><trkpt lat="44.292328641644865" lon="11.118322340544976"><ele>190.0</ele><time>2026-05-02T16:09:19.995Z</time></trkpt><trkpt lat="44.292423208923225" lon="11.118344058057655"><ele>190.0</ele><time>2026-05-02T16:09:20.995Z</time></trkpt><trkpt lat="44.29251649969111" lon="11.11837733322246"><ele>189.33333333333334</ele><time>2026-05-02T16:09:21.996Z</time></trkpt><trkpt lat="44.292597506377085" lon="11.118412578661117"><ele>188.66666666666669</ele><time>2026-05-02T16:09:22.996Z</time></trkpt><trkpt lat="44.29267327582497" lon="11.11846796110142"><ele>188.0</ele><time>2026-05-02T16:09:23.996Z</time></trkpt><trkpt lat="44.292749542393985" lon="11.11852804102524"><ele>187.33333333333334</ele><time>2026-05-02T16:09:24.996Z</time></trkpt><trkpt lat="44.292830048230094" lon="11.118574127271103"><ele>186.66666666666666</ele><time>2026-05-02T16:09:25.996Z</time></trkpt><trkpt lat="44.292917723113625" lon="11.11860687103858"><ele>186.0</ele><time>2026-05-02T16:09:26.996Z</time></trkpt><trkpt lat="44.29301009347154" lon="11.118632736438443"><ele>184.4</ele><time>2026-05-02T16:09:27.996Z</time></trkpt><trkpt lat="44.29310556250839" lon="11.118660396631972"><ele>182.8</ele><time>2026-05-02T16:09:28.996Z</time></trkpt><trkpt lat="44.29320016684706" lon="11.118691593311548"><ele>181.20000000000002</ele><time>2026-05-02T16:09:29.996Z</time></trkpt><trkpt lat="44.29329312862461" lon="11.11873844817517"><ele>179.60000000000002</ele><time>2026-05-02T16:09:30.996Z</time></trkpt><trkpt lat="44.29338055860095" lon="11.118796150548324"><ele>178.0</ele><time>2026-05-02T16:09:31.996Z</time></trkpt><trkpt lat="44.293469620083805" lon="11.118857133407706"><ele>178.0</ele><time>2026-05-02T16:09:32.996Z</time></trkpt><trkpt lat="44.29356275736571" lon="11.118922928044698"><ele>178.0</ele><time>2026-05-02T16:09:33.996Z</time></trkpt><trkpt lat="44.293656964688815" lon="11.11899506778773"><ele>178.0</ele><time>2026-05-02T16:09:34.996Z</time></trkpt><trkpt lat="44.293756095233896" lon="11.119061299144809"><ele>178.0</ele><time>2026-05-02T16:09:35.996Z</time></trkpt><trkpt lat="44.29385289204689" lon="11.119115375670305"><ele>178.0</ele><time>2026-05-02T16:09:36.996Z</time></trkpt><trkpt lat="44.29394781566788" lon="11.11913667534139"><ele>179.60000000000002</ele><time>2026-05-02T16:09:37.996Z</time></trkpt><trkpt lat="44.29404055653045" lon="11.11915282191037"><ele>181.20000000000002</ele><time>2026-05-02T16:09:38.996Z</time></trkpt><trkpt lat="44.29413089685767" lon="11.11917438970589"><ele>182.8</ele><time>2026-05-02T16:09:39.996Z</time></trkpt><trkpt lat="44.2942261262963" lon="11.119188940882728"><ele>184.4</ele><time>2026-05-02T16:09:40.996Z</time></trkpt><trkpt lat="44.294327278055846" lon="11.119207924144847"><ele>186.0</ele><time>2026-05-02T16:09:41.996Z</time></trkpt><trkpt lat="44.294425329490295" lon="11.119225730523649"><ele>186.0</ele><time>2026-05-02T16:09:42.996Z</time></trkpt><trkpt lat="44.29452319603694" lon="11.119240502306207"><ele>186.0</ele><time>2026-05-02T16:09:43.996Z</time></trkpt><trkpt lat="44.29461301359822" lon="11.11924985787686"><ele>186.0</ele><time>2026-05-02T16:09:44.996Z</time></trkpt><trkpt lat="44.294690271574844" lon="11.11926025784134"><ele>186.0</ele><time>2026-05-02T16:09:45.994Z</time></trkpt><trkpt lat="44.29475842915666" lon="11.119264878364042"><ele>186.0</ele><time>2026-05-02T16:09:46.994Z</time></trkpt><trkpt lat="44.29487675345587" lon="11.119254681972608"><ele>184.8</ele><time>2026-05-02T16:09:48.994Z</time></trkpt><trkpt lat="44.29495778452567" lon="11.119241082764873"><ele>183.60000000000002</ele><time>2026-05-02T16:09:49.993Z</time></trkpt><trkpt lat="44.295041100002585" lon="11.119223431952511"><ele>182.4</ele><time>2026-05-02T16:09:50.993Z</time></trkpt><trkpt lat="44.29513842177152" lon="11.119227846186105"><ele>181.2</ele><time>2026-05-02T16:09:51.993Z</time></trkpt><trkpt lat="44.29524026583392" lon="11.119239155386262"><ele>180.0</ele><time>2026-05-02T16:09:52.994Z</time></trkpt><trkpt lat="44.29534350751859" lon="11.119252250917963"><ele>180.0</ele><time>2026-05-02T16:09:53.994Z</time></trkpt><trkpt lat="44.29544514208594" lon="11.119293709689822"><ele>180.0</ele><time>2026-05-02T16:09:54.994Z</time></trkpt><trkpt lat="44.295531598703406" lon="11.119306914927028"><ele>180.0</ele><time>2026-05-02T16:09:55.994Z</time></trkpt><trkpt lat="44.295623880022745" lon="11.119319302083413"><ele>180.0</ele><time>2026-05-02T16:09:56.994Z</time></trkpt><trkpt lat="44.29570560616336" lon="11.119339955450785"><ele>180.0</ele><time>2026-05-02T16:09:57.994Z</time></trkpt><trkpt lat="44.295778223194375" lon="11.11936158374558"><ele>180.0</ele><time>2026-05-02T16:09:58.994Z</time></trkpt><trkpt lat="44.29584935735036" lon="11.119388753347048"><ele>180.0</ele><time>2026-05-02T16:09:59.994Z</time></trkpt><trkpt lat="44.29593632837721" lon="11.119412434348634"><ele>180.0</ele><time>2026-05-02T16:10:00.994Z</time></trkpt><trkpt lat="44.2960243903549" lon="11.119433254431202"><ele>180.0</ele><time>2026-05-02T16:10:01.994Z</time></trkpt><trkpt lat="44.296107456581" lon="11.119448298618169"><ele>180.0</ele><time>2026-05-02T16:10:02.994Z</time></trkpt><trkpt lat="44.29616806347556" lon="11.119509828567214"><ele>180.0</ele><time>2026-05-02T16:10:03.994Z</time></trkpt><trkpt lat="44.29620597972366" lon="11.119597656407889"><ele>180.0</ele><time>2026-05-02T16:10:04.994Z</time></trkpt><trkpt lat="44.296217363236245" lon="11.119711840289805"><ele>180.0</ele><time>2026-05-02T16:10:05.994Z</time></trkpt><trkpt lat="44.29624272156845" lon="11.1198295857962"><ele>180.0</ele><time>2026-05-02T16:10:06.994Z</time></trkpt><trkpt lat="44.29626458459961" lon="11.1199546906195"><ele>180.0</ele><time>2026-05-02T16:10:07.994Z</time></trkpt><trkpt lat="44.29630912471478" lon="11.120080767495862"><ele>180.0</ele><time>2026-05-02T16:10:08.994Z</time></trkpt><trkpt lat="44.29634626735428" lon="11.120190171134771"><ele>180.0</ele><time>2026-05-02T16:10:09.994Z</time></trkpt><trkpt lat="44.29639301774867" lon="11.120312316774116"><ele>180.2</ele><time>2026-05-02T16:10:10.994Z</time></trkpt><trkpt lat="44.29644651616951" lon="11.120423017169754"><ele>180.4</ele><time>2026-05-02T16:10:11.994Z</time></trkpt><trkpt lat="44.296505505858576" lon="11.12051958789099"><ele>180.60000000000002</ele><time>2026-05-02T16:10:12.994Z</time></trkpt><trkpt lat="44.296573491515744" lon="11.120602079550647"><ele>180.8</ele><time>2026-05-02T16:10:13.994Z</time></trkpt><trkpt lat="44.29665424887712" lon="11.12067729398873"><ele>181.0</ele><time>2026-05-02T16:10:14.994Z</time></trkpt><trkpt lat="44.29674675940052" lon="11.120739489405953"><ele>181.60000000000002</ele><time>2026-05-02T16:10:15.994Z</time></trkpt><trkpt lat="44.29683382855544" lon="11.120803879074419"><ele>182.2</ele><time>2026-05-02T16:10:16.994Z</time></trkpt><trkpt lat="44.296914816239074" lon="11.12089003155084"><ele>182.8</ele><time>2026-05-02T16:10:17.994Z</time></trkpt><trkpt lat="44.29696867312985" lon="11.121010486752454"><ele>183.39999999999998</ele><time>2026-05-02T16:10:18.994Z</time></trkpt><trkpt lat="44.29704257444265" lon="11.12111863831737"><ele>184.0</ele><time>2026-05-02T16:10:19.994Z</time></trkpt><trkpt lat="44.2971187585277" lon="11.121220166959322"><ele>184.0</ele><time>2026-05-02T16:10:20.994Z</time></trkpt><trkpt lat="44.29721425268144" lon="11.121297589483765"><ele>184.0</ele><time>2026-05-02T16:10:21.994Z</time></trkpt><trkpt lat="44.29730305062489" lon="11.12138362544921"><ele>184.0</ele><time>2026-05-02T16:10:22.994Z</time></trkpt><trkpt lat="44.29739716062441" lon="11.121461615557575"><ele>184.0</ele><time>2026-05-02T16:10:23.994Z</time></trkpt><trkpt lat="44.297490839778646" lon="11.121540921618637"><ele>184.0</ele><time>2026-05-02T16:10:24.994Z</time></trkpt><trkpt lat="44.297581217384554" lon="11.12162742344626"><ele>184.0</ele><time>2026-05-02T16:10:25.994Z</time></trkpt><trkpt lat="44.297671559951375" lon="11.121701754264395"><ele>184.0</ele><time>2026-05-02T16:10:26.994Z</time></trkpt><trkpt lat="44.29775220564423" lon="11.121781158816042"><ele>184.0</ele><time>2026-05-02T16:10:27.994Z</time></trkpt><trkpt lat="44.297822246828375" lon="11.121857604351689"><ele>184.0</ele><time>2026-05-02T16:10:28.994Z</time></trkpt><trkpt lat="44.2978857740579" lon="11.121941564676769"><ele>184.0</ele><time>2026-05-02T16:10:29.994Z</time></trkpt><trkpt lat="44.29793055577586" lon="11.122053672276541"><ele>184.0</ele><time>2026-05-02T16:10:30.994Z</time></trkpt><trkpt lat="44.29798023573096" lon="11.122165584388782"><ele>184.0</ele><time>2026-05-02T16:10:31.994Z</time></trkpt><trkpt lat="44.29802498309065" lon="11.122283887801517"><ele>184.0</ele><time>2026-05-02T16:10:32.994Z</time></trkpt><trkpt lat="44.29806927513895" lon="11.122402919850284"><ele>184.0</ele><time>2026-05-02T16:10:33.994Z</time></trkpt><trkpt lat="44.29812106321713" lon="11.122502599763603"><ele>184.0</ele><time>2026-05-02T16:10:34.994Z</time></trkpt><trkpt lat="44.298151601497636" lon="11.122582629259"><ele>184.0</ele><time>2026-05-02T16:10:35.994Z</time></trkpt><trkpt lat="44.298198554472485" lon="11.122705002183602"><ele>184.0</ele><time>2026-05-02T16:10:37.994Z</time></trkpt><trkpt lat="44.29821829889528" lon="11.122800841981215"><ele>184.0</ele><time>2026-05-02T16:10:38.994Z</time></trkpt><trkpt lat="44.29827272782633" lon="11.122877776962754"><ele>184.0</ele><time>2026-05-02T16:10:39.995Z</time></trkpt><trkpt lat="44.298310050959856" lon="11.122972486743599"><ele>184.0</ele><time>2026-05-02T16:10:40.995Z</time></trkpt><trkpt lat="44.29834455896565" lon="11.123077720261849"><ele>184.0</ele><time>2026-05-02T16:10:41.995Z</time></trkpt><trkpt lat="44.29838024526571" lon="11.12318863817798"><ele>184.0</ele><time>2026-05-02T16:10:42.995Z</time></trkpt><trkpt lat="44.29839919910726" lon="11.12331372972705"><ele>184.79999999999998</ele><time>2026-05-02T16:10:43.995Z</time></trkpt><trkpt lat="44.298437396814585" lon="11.123427476220298"><ele>185.6</ele><time>2026-05-02T16:10:44.995Z</time></trkpt><trkpt lat="44.29847514566401" lon="11.123538609171247"><ele>186.4</ele><time>2026-05-02T16:10:45.995Z</time></trkpt><trkpt lat="44.298517180124115" lon="11.123666744955587"><ele>187.2</ele><time>2026-05-02T16:10:46.995Z</time></trkpt><trkpt lat="44.29855671363886" lon="11.123793365740031"><ele>188.0</ele><time>2026-05-02T16:10:47.995Z</time></trkpt><trkpt lat="44.29859226834608" lon="11.123919962299023"><ele>188.0</ele><time>2026-05-02T16:10:48.995Z</time></trkpt><trkpt lat="44.298620297166075" lon="11.12403913698739"><ele>188.0</ele><time>2026-05-02T16:10:49.995Z</time></trkpt><trkpt lat="44.29864683061659" lon="11.124163649767135"><ele>188.0</ele><time>2026-05-02T16:10:50.995Z</time></trkpt><trkpt lat="44.29867765564773" lon="11.124298821527342"><ele>188.0</ele><time>2026-05-02T16:10:51.995Z</time></trkpt><trkpt lat="44.29872171082002" lon="11.124426896290371"><ele>188.0</ele><time>2026-05-02T16:10:52.995Z</time></trkpt><trkpt lat="44.298740218342644" lon="11.124576605233582"><ele>188.4</ele><time>2026-05-02T16:10:53.995Z</time></trkpt><trkpt lat="44.29877542001802" lon="11.124708183916944"><ele>188.8</ele><time>2026-05-02T16:10:54.995Z</time></trkpt><trkpt lat="44.2988139507586" lon="11.124836093294647"><ele>189.2</ele><time>2026-05-02T16:10:55.995Z</time></trkpt><trkpt lat="44.29885066913313" lon="11.124975751344907"><ele>189.6</ele><time>2026-05-02T16:10:56.995Z</time></trkpt><trkpt lat="44.29888806814284" lon="11.125114347121848"><ele>190.0</ele><time>2026-05-02T16:10:57.995Z</time></trkpt><trkpt lat="44.29892117350315" lon="11.125248569541846"><ele>188.6</ele><time>2026-05-02T16:10:58.995Z</time></trkpt><trkpt lat="44.29895278796488" lon="11.125375304227038"><ele>187.2</ele><time>2026-05-02T16:10:59.995Z</time></trkpt><trkpt lat="44.29898204703093" lon="11.125508658201701"><ele>185.8</ele><time>2026-05-02T16:11:00.995Z</time></trkpt><trkpt lat="44.29900878639451" lon="11.125636032087659"><ele>184.4</ele><time>2026-05-02T16:11:01.995Z</time></trkpt><trkpt lat="44.29903901288789" lon="11.12576052451044"><ele>183.0</ele><time>2026-05-02T16:11:02.995Z</time></trkpt><trkpt lat="44.29906569835815" lon="11.125888979951435"><ele>183.0</ele><time>2026-05-02T16:11:03.995Z</time></trkpt><trkpt lat="44.29908442145441" lon="11.126018013760257"><ele>183.0</ele><time>2026-05-02T16:11:04.995Z</time></trkpt><trkpt lat="44.29907436111426" lon="11.126159456903434"><ele>183.0</ele><time>2026-05-02T16:11:05.995Z</time></trkpt><trkpt lat="44.29907296091229" lon="11.126287424350672"><ele>183.0</ele><time>2026-05-02T16:11:06.995Z</time></trkpt><trkpt lat="44.29907185152581" lon="11.126425506612522"><ele>183.0</ele><time>2026-05-02T16:11:07.995Z</time></trkpt><trkpt lat="44.29908735056769" lon="11.12655842904789"><ele>183.4</ele><time>2026-05-02T16:11:08.995Z</time></trkpt><trkpt lat="44.29907280442623" lon="11.126697310088028"><ele>183.8</ele><time>2026-05-02T16:11:09.995Z</time></trkpt><trkpt lat="44.29907418914951" lon="11.126839506987974"><ele>184.2</ele><time>2026-05-02T16:11:10.995Z</time></trkpt><trkpt lat="44.29907641946321" lon="11.126975705264192"><ele>184.6</ele><time>2026-05-02T16:11:11.995Z</time></trkpt><trkpt lat="44.29907987102812" lon="11.12711471499479"><ele>185.0</ele><time>2026-05-02T16:11:12.995Z</time></trkpt><trkpt lat="44.299084693154875" lon="11.127253284718828"><ele>185.0</ele><time>2026-05-02T16:11:13.995Z</time></trkpt><trkpt lat="44.299107642427735" lon="11.1273856692942"><ele>185.0</ele><time>2026-05-02T16:11:14.995Z</time></trkpt><trkpt lat="44.29911609684315" lon="11.12752448429587"><ele>185.0</ele><time>2026-05-02T16:11:15.995Z</time></trkpt><trkpt lat="44.29911173662194" lon="11.127668128749574"><ele>185.0</ele><time>2026-05-02T16:11:16.995Z</time></trkpt><trkpt lat="44.29914464887283" lon="11.127811691049466"><ele>185.0</ele><time>2026-05-02T16:11:17.995Z</time></trkpt><trkpt lat="44.29914959934409" lon="11.127964059587274"><ele>185.4</ele><time>2026-05-02T16:11:18.995Z</time></trkpt><trkpt lat="44.299167859565024" lon="11.128117559558673"><ele>185.8</ele><time>2026-05-02T16:11:19.995Z</time></trkpt><trkpt lat="44.299191714721516" lon="11.128269119172607"><ele>186.2</ele><time>2026-05-02T16:11:20.995Z</time></trkpt><trkpt lat="44.299214218745306" lon="11.12841959910832"><ele>186.6</ele><time>2026-05-02T16:11:21.995Z</time></trkpt><trkpt lat="44.29923059213468" lon="11.128571921832242"><ele>187.0</ele><time>2026-05-02T16:11:22.995Z</time></trkpt><trkpt lat="44.299238841671354" lon="11.128723880413355"><ele>187.2</ele><time>2026-05-02T16:11:23.995Z</time></trkpt><trkpt lat="44.29923498775274" lon="11.128879625749835"><ele>187.39999999999998</ele><time>2026-05-02T16:11:24.996Z</time></trkpt><trkpt lat="44.299210215927175" lon="11.129037307613425"><ele>187.60000000000002</ele><time>2026-05-02T16:11:25.996Z</time></trkpt><trkpt lat="44.299183743132055" lon="11.129184819895917"><ele>187.8</ele><time>2026-05-02T16:11:26.996Z</time></trkpt><trkpt lat="44.29915551221976" lon="11.129326157272967"><ele>188.0</ele><time>2026-05-02T16:11:27.996Z</time></trkpt><trkpt lat="44.29913248880438" lon="11.12945940909769"><ele>187.60000000000002</ele><time>2026-05-02T16:11:28.996Z</time></trkpt><trkpt lat="44.29912172680018" lon="11.12960234351173"><ele>187.20000000000002</ele><time>2026-05-02T16:11:29.996Z</time></trkpt><trkpt lat="44.2991274509236" lon="11.129731852155457"><ele>186.8</ele><time>2026-05-02T16:11:30.996Z</time></trkpt><trkpt lat="44.299146654354935" lon="11.129867643488728"><ele>186.4</ele><time>2026-05-02T16:11:31.996Z</time></trkpt><trkpt lat="44.29916661315306" lon="11.129999152926468"><ele>186.0</ele><time>2026-05-02T16:11:32.996Z</time></trkpt><trkpt lat="44.29916850285232" lon="11.130112994269373"><ele>186.0</ele><time>2026-05-02T16:11:33.996Z</time></trkpt><trkpt lat="44.29916210009142" lon="11.130246371261862"><ele>186.0</ele><time>2026-05-02T16:11:34.996Z</time></trkpt><trkpt lat="44.2991652888707" lon="11.130404257887811"><ele>186.0</ele><time>2026-05-02T16:11:35.996Z</time></trkpt><trkpt lat="44.29917256501538" lon="11.130565904555306"><ele>186.0</ele><time>2026-05-02T16:11:36.996Z</time></trkpt><trkpt lat="44.299180104743655" lon="11.130732031907188"><ele>186.0</ele><time>2026-05-02T16:11:37.996Z</time></trkpt><trkpt lat="44.29920102177529" lon="11.130897919973316"><ele>186.0</ele><time>2026-05-02T16:11:38.996Z</time></trkpt><trkpt lat="44.299242116922436" lon="11.131061814992917"><ele>186.0</ele><time>2026-05-02T16:11:39.996Z</time></trkpt><trkpt lat="44.299283477353846" lon="11.131211131864891"><ele>186.0</ele><time>2026-05-02T16:11:40.996Z</time></trkpt><trkpt lat="44.29932037898822" lon="11.131352928899576"><ele>186.0</ele><time>2026-05-02T16:11:41.996Z</time></trkpt><trkpt lat="44.2993536956425" lon="11.13151249055049"><ele>189.0</ele><time>2026-05-02T16:11:42.996Z</time></trkpt><trkpt lat="44.29938924667087" lon="11.131675640750144"><ele>192.0</ele><time>2026-05-02T16:11:43.996Z</time></trkpt><trkpt lat="44.29942584272745" lon="11.131843846598201"><ele>195.0</ele><time>2026-05-02T16:11:44.996Z</time></trkpt><trkpt lat="44.29946373614705" lon="11.132018410710677"><ele>198.0</ele><time>2026-05-02T16:11:45.996Z</time></trkpt><trkpt lat="44.29948903307198" lon="11.132195037781088"><ele>198.0</ele><time>2026-05-02T16:11:46.996Z</time></trkpt><trkpt lat="44.299517487640735" lon="11.132371454296056"><ele>198.0</ele><time>2026-05-02T16:11:47.996Z</time></trkpt><trkpt lat="44.299544304897864" lon="11.132542613965562"><ele>198.0</ele><time>2026-05-02T16:11:48.996Z</time></trkpt><trkpt lat="44.29956281760114" lon="11.132701052291978"><ele>198.0</ele><time>2026-05-02T16:11:49.996Z</time></trkpt><trkpt lat="44.299584504993284" lon="11.132830478191318"><ele>197.75</ele><time>2026-05-02T16:11:50.996Z</time></trkpt><trkpt lat="44.29958386572018" lon="11.132950037183825"><ele>197.5</ele><time>2026-05-02T16:11:51.994Z</time></trkpt><trkpt lat="44.29960760850087" lon="11.133107130353395"><ele>197.25</ele><time>2026-05-02T16:11:53.995Z</time></trkpt><trkpt lat="44.29961992368558" lon="11.133270337915636"><ele>197.0</ele><time>2026-05-02T16:11:55.994Z</time></trkpt><trkpt lat="44.29962658940157" lon="11.133491142351202"><ele>195.50000000000003</ele><time>2026-05-02T16:11:57.994Z</time></trkpt><trkpt lat="44.29960234738225" lon="11.13358520236869"><ele>194.0</ele><time>2026-05-02T16:12:00.995Z</time></trkpt><trkpt lat="44.29958749948822" lon="11.133703747731179"><ele>192.5</ele><time>2026-05-02T16:12:02.994Z</time></trkpt><trkpt lat="44.29958168538494" lon="11.133822803606773"><ele>191.0</ele><time>2026-05-02T16:12:04.994Z</time></trkpt><trkpt lat="44.299580884257324" lon="11.13394481883185"><ele>189.5</ele><time>2026-05-02T16:12:06.994Z</time></trkpt><trkpt lat="44.29960428281475" lon="11.134078426983711"><ele>188.0</ele><time>2026-05-02T16:12:08.994Z</time></trkpt><trkpt lat="44.29962920484408" lon="11.134237883459798"><ele>187.4</ele><time>2026-05-02T16:12:10.994Z</time></trkpt><trkpt lat="44.299652300274765" lon="11.134324966963549"><ele>186.8</ele><time>2026-05-02T16:12:11.994Z</time></trkpt><trkpt lat="44.29965413034268" lon="11.134435820635526"><ele>186.2</ele><time>2026-05-02T16:12:12.994Z</time></trkpt><trkpt lat="44.29967487595758" lon="11.134560230561908"><ele>185.6</ele><time>2026-05-02T16:12:13.994Z</time></trkpt><trkpt lat="44.299787278425754" lon="11.134650458995715"><ele>185.0</ele><time>2026-05-02T16:12:14.994Z</time></trkpt><trkpt lat="44.29984610615381" lon="11.134759381639228"><ele>183.6</ele><time>2026-05-02T16:12:15.994Z</time></trkpt><trkpt lat="44.299883883845375" lon="11.13489763130511"><ele>182.2</ele><time>2026-05-02T16:12:16.994Z</time></trkpt><trkpt lat="44.29993463105853" lon="11.135041033604606"><ele>180.8</ele><time>2026-05-02T16:12:17.994Z</time></trkpt><trkpt lat="44.29995893861864" lon="11.135162547911765"><ele>179.4</ele><time>2026-05-02T16:12:18.994Z</time></trkpt><trkpt lat="44.29998167730529" lon="11.135282013514889"><ele>178.0</ele><time>2026-05-02T16:12:19.994Z</time></trkpt><trkpt lat="44.300002613148784" lon="11.135406376834153"><ele>178.0</ele><time>2026-05-02T16:12:20.994Z</time></trkpt><trkpt lat="44.30001788121778" lon="11.135526852899856"><ele>178.0</ele><time>2026-05-02T16:12:21.994Z</time></trkpt><trkpt lat="44.30003838322191" lon="11.135677444622873"><ele>178.0</ele><time>2026-05-02T16:12:22.994Z</time></trkpt><trkpt lat="44.300052061014554" lon="11.135809831991264"><ele>178.0</ele><time>2026-05-02T16:12:23.994Z</time></trkpt><trkpt lat="44.30007504480017" lon="11.135986090229597"><ele>178.0</ele><time>2026-05-02T16:12:24.994Z</time></trkpt><trkpt lat="44.300093076908254" lon="11.136094321890795"><ele>178.4</ele><time>2026-05-02T16:12:25.994Z</time></trkpt><trkpt lat="44.300116449468" lon="11.136214847375605"><ele>178.8</ele><time>2026-05-02T16:12:26.994Z</time></trkpt><trkpt lat="44.300143899423766" lon="11.136341559646556"><ele>179.2</ele><time>2026-05-02T16:12:27.995Z</time></trkpt><trkpt lat="44.300172311204925" lon="11.136465122583626"><ele>179.6</ele><time>2026-05-02T16:12:28.995Z</time></trkpt><trkpt lat="44.300205097198" lon="11.13658982854408"><ele>180.0</ele><time>2026-05-02T16:12:29.995Z</time></trkpt><trkpt lat="44.30024318104008" lon="11.136725797555192"><ele>181.6</ele><time>2026-05-02T16:12:30.995Z</time></trkpt><trkpt lat="44.300280508925404" lon="11.136851664722"><ele>183.2</ele><time>2026-05-02T16:12:31.995Z</time></trkpt><trkpt lat="44.30032591877733" lon="11.13699199550463"><ele>184.8</ele><time>2026-05-02T16:12:32.995Z</time></trkpt><trkpt lat="44.300349054641224" lon="11.13712877734058"><ele>186.4</ele><time>2026-05-02T16:12:33.995Z</time></trkpt><trkpt lat="44.300395675253945" lon="11.137264944866134"><ele>188.0</ele><time>2026-05-02T16:12:34.995Z</time></trkpt><trkpt lat="44.30046261105666" lon="11.137400672573573"><ele>188.8</ele><time>2026-05-02T16:12:35.995Z</time></trkpt><trkpt lat="44.30051788060877" lon="11.137525516044358"><ele>189.60000000000002</ele><time>2026-05-02T16:12:36.995Z</time></trkpt><trkpt lat="44.300549663274374" lon="11.137661159231524"><ele>190.39999999999998</ele><time>2026-05-02T16:12:37.995Z</time></trkpt><trkpt lat="44.30058076942898" lon="11.137773139338464"><ele>191.2</ele><time>2026-05-02T16:12:38.995Z</time></trkpt><trkpt lat="44.30060246262208" lon="11.137898682083378"><ele>192.0</ele><time>2026-05-02T16:12:39.995Z</time></trkpt><trkpt lat="44.30061634989648" lon="11.137992890205417"><ele>187.5</ele><time>2026-05-02T16:12:40.995Z</time></trkpt><trkpt lat="44.300612270037085" lon="11.13812048781196"><ele>183.0</ele><time>2026-05-02T16:12:42.995Z</time></trkpt><trkpt lat="44.30061223456283" lon="11.138221360925499"><ele>178.5</ele><time>2026-05-02T16:12:43.995Z</time></trkpt><trkpt lat="44.30061503886433" lon="11.138502020599885"><ele>174.0</ele><time>2026-05-02T16:12:44.995Z</time></trkpt><trkpt lat="44.30060882233651" lon="11.138643417170112"><ele>174.0</ele><time>2026-05-02T16:12:45.995Z</time></trkpt><trkpt lat="44.30061189629315" lon="11.138788441802138"><ele>174.0</ele><time>2026-05-02T16:12:46.995Z</time></trkpt><trkpt lat="44.30062667918009" lon="11.138943030152499"><ele>174.0</ele><time>2026-05-02T16:12:47.995Z</time></trkpt><trkpt lat="44.300667292325755" lon="11.139089379565421"><ele>174.0</ele><time>2026-05-02T16:12:48.995Z</time></trkpt><trkpt lat="44.30068092237968" lon="11.139237983415102"><ele>174.0</ele><time>2026-05-02T16:12:49.995Z</time></trkpt><trkpt lat="44.300704234502" lon="11.139392161490306"><ele>174.75</ele><time>2026-05-02T16:12:50.995Z</time></trkpt><trkpt lat="44.30072329191078" lon="11.139549179462794"><ele>175.5</ele><time>2026-05-02T16:12:51.995Z</time></trkpt><trkpt lat="44.30074081885249" lon="11.139713714714985"><ele>176.25</ele><time>2026-05-02T16:12:52.995Z</time></trkpt><trkpt lat="44.3007541548013" lon="11.139866480910383"><ele>177.0</ele><time>2026-05-02T16:12:53.995Z</time></trkpt><trkpt lat="44.30076674601448" lon="11.140018181387628"><ele>176.6</ele><time>2026-05-02T16:12:54.995Z</time></trkpt><trkpt lat="44.3007841080074" lon="11.140180116638106"><ele>176.2</ele><time>2026-05-02T16:12:55.995Z</time></trkpt><trkpt lat="44.30079470837648" lon="11.140327000814187"><ele>175.8</ele><time>2026-05-02T16:12:56.995Z</time></trkpt><trkpt lat="44.30077888713917" lon="11.140476596065648"><ele>175.4</ele><time>2026-05-02T16:12:57.995Z</time></trkpt><trkpt lat="44.300770487146764" lon="11.14062266067897"><ele>175.0</ele><time>2026-05-02T16:12:58.995Z</time></trkpt><trkpt lat="44.30075917080937" lon="11.140766095708681"><ele>175.0</ele><time>2026-05-02T16:12:59.995Z</time></trkpt><trkpt lat="44.300746338235534" lon="11.140911522277037"><ele>175.0</ele><time>2026-05-02T16:13:00.995Z</time></trkpt><trkpt lat="44.30072484930043" lon="11.141065226064333"><ele>175.0</ele><time>2026-05-02T16:13:01.995Z</time></trkpt><trkpt lat="44.30070046174823" lon="11.141221543399563"><ele>175.0</ele><time>2026-05-02T16:13:02.995Z</time></trkpt><trkpt lat="44.30067502165029" lon="11.141361965381657"><ele>175.0</ele><time>2026-05-02T16:13:03.995Z</time></trkpt><trkpt lat="44.30065022895962" lon="11.141516011979265"><ele>173.8</ele><time>2026-05-02T16:13:04.995Z</time></trkpt><trkpt lat="44.300624510741166" lon="11.14166833957322"><ele>172.6</ele><time>2026-05-02T16:13:05.995Z</time></trkpt><trkpt lat="44.300598843883975" lon="11.141825679118964"><ele>171.39999999999998</ele><time>2026-05-02T16:13:06.995Z</time></trkpt><trkpt lat="44.300576375562976" lon="11.141968476463713"><ele>170.2</ele><time>2026-05-02T16:13:07.995Z</time></trkpt><trkpt lat="44.30055697278995" lon="11.142099757379388"><ele>169.0</ele><time>2026-05-02T16:13:08.995Z</time></trkpt><trkpt lat="44.300528738384315" lon="11.142232111691282"><ele>171.0</ele><time>2026-05-02T16:13:09.995Z</time></trkpt><trkpt lat="44.30050814316555" lon="11.142329232004245"><ele>173.0</ele><time>2026-05-02T16:13:10.995Z</time></trkpt><trkpt lat="44.30049442050756" lon="11.142431471196732"><ele>175.0</ele><time>2026-05-02T16:13:11.995Z</time></trkpt><trkpt lat="44.30047672795997" lon="11.142558174766165"><ele>177.0</ele><time>2026-05-02T16:13:12.996Z</time></trkpt><trkpt lat="44.30046135714294" lon="11.142696949445673"><ele>179.0</ele><time>2026-05-02T16:13:13.996Z</time></trkpt><trkpt lat="44.300443975802395" lon="11.142842040521922"><ele>181.0</ele><time>2026-05-02T16:13:14.996Z</time></trkpt><trkpt lat="44.30042147109421" lon="11.142988773984593"><ele>181.0</ele><time>2026-05-02T16:13:15.996Z</time></trkpt><trkpt lat="44.30040126865886" lon="11.143136953849808"><ele>181.0</ele><time>2026-05-02T16:13:16.996Z</time></trkpt><trkpt lat="44.30038382035318" lon="11.143286775917097"><ele>181.0</ele><time>2026-05-02T16:13:17.996Z</time></trkpt><trkpt lat="44.300372472467885" lon="11.143434932633323"><ele>181.0</ele><time>2026-05-02T16:13:18.996Z</time></trkpt><trkpt lat="44.30036127698678" lon="11.14358657146534"><ele>181.0</ele><time>2026-05-02T16:13:19.996Z</time></trkpt><trkpt lat="44.30034943376956" lon="11.14374142693287"><ele>180.8</ele><time>2026-05-02T16:13:20.996Z</time></trkpt><trkpt lat="44.30033142557875" lon="11.143896401697766"><ele>180.60000000000002</ele><time>2026-05-02T16:13:21.996Z</time></trkpt><trkpt lat="44.30031185662959" lon="11.144047400702215"><ele>180.4</ele><time>2026-05-02T16:13:22.996Z</time></trkpt><trkpt lat="44.30029364348674" lon="11.144190559833397"><ele>180.2</ele><time>2026-05-02T16:13:23.996Z</time></trkpt><trkpt lat="44.30025707482579" lon="11.144330068996565"><ele>180.0</ele><time>2026-05-02T16:13:24.996Z</time></trkpt><trkpt lat="44.30023312698981" lon="11.144473027710454"><ele>180.6</ele><time>2026-05-02T16:13:25.996Z</time></trkpt><trkpt lat="44.300201328352685" lon="11.144610661867134"><ele>181.2</ele><time>2026-05-02T16:13:26.996Z</time></trkpt><trkpt lat="44.30016724062765" lon="11.14475436163153"><ele>181.8</ele><time>2026-05-02T16:13:27.996Z</time></trkpt><trkpt lat="44.30013309422423" lon="11.14489830853909"><ele>182.4</ele><time>2026-05-02T16:13:28.996Z</time></trkpt><trkpt lat="44.30011337341776" lon="11.145054299593488"><ele>183.0</ele><time>2026-05-02T16:13:29.996Z</time></trkpt><trkpt lat="44.30007216295281" lon="11.14520513829692"><ele>183.0</ele><time>2026-05-02T16:13:30.996Z</time></trkpt><trkpt lat="44.30004466836451" lon="11.14534974178004"><ele>183.0</ele><time>2026-05-02T16:13:31.996Z</time></trkpt><trkpt lat="44.3000086277565" lon="11.145501427512784"><ele>183.0</ele><time>2026-05-02T16:13:32.996Z</time></trkpt><trkpt lat="44.29996658709059" lon="11.145646936206786"><ele>183.0</ele><time>2026-05-02T16:13:33.996Z</time></trkpt><trkpt lat="44.299930049356504" lon="11.145801684689589"><ele>180.5</ele><time>2026-05-02T16:13:34.996Z</time></trkpt><trkpt lat="44.299890347796804" lon="11.145957509841104"><ele>178.0</ele><time>2026-05-02T16:13:35.996Z</time></trkpt><trkpt lat="44.29984626651774" lon="11.146096346039146"><ele>175.5</ele><time>2026-05-02T16:13:36.996Z</time></trkpt><trkpt lat="44.29979764580741" lon="11.146240017637329"><ele>173.0</ele><time>2026-05-02T16:13:37.996Z</time></trkpt><trkpt lat="44.29974894677942" lon="11.146389197835148"><ele>174.75</ele><time>2026-05-02T16:13:38.996Z</time></trkpt><trkpt lat="44.29970534169145" lon="11.146539379342144"><ele>176.5</ele><time>2026-05-02T16:13:39.996Z</time></trkpt><trkpt lat="44.29965612776012" lon="11.146688643261237"><ele>178.25</ele><time>2026-05-02T16:13:40.996Z</time></trkpt><trkpt lat="44.299608594037224" lon="11.146836438190105"><ele>180.0</ele><time>2026-05-02T16:13:41.996Z</time></trkpt><trkpt lat="44.29956409320092" lon="11.146987518929292"><ele>180.0</ele><time>2026-05-02T16:13:42.996Z</time></trkpt><trkpt lat="44.29951972989771" lon="11.147133954647199"><ele>180.0</ele><time>2026-05-02T16:13:43.996Z</time></trkpt><trkpt lat="44.29947230948362" lon="11.147275693335112"><ele>180.0</ele><time>2026-05-02T16:13:44.996Z</time></trkpt><trkpt lat="44.299420102155956" lon="11.147408342656407"><ele>180.0</ele><time>2026-05-02T16:13:45.996Z</time></trkpt><trkpt lat="44.29936065979291" lon="11.147523638434334"><ele>180.0</ele><time>2026-05-02T16:13:46.996Z</time></trkpt><trkpt lat="44.299301935094334" lon="11.147631185316191"><ele>178.4</ele><time>2026-05-02T16:13:47.996Z</time></trkpt><trkpt lat="44.299242978012046" lon="11.147739102659616"><ele>176.8</ele><time>2026-05-02T16:13:48.996Z</time></trkpt><trkpt lat="44.29918807531064" lon="11.147826825994242"><ele>175.2</ele><time>2026-05-02T16:13:49.996Z</time></trkpt><trkpt lat="44.29914244200883" lon="11.14789082582412"><ele>173.6</ele><time>2026-05-02T16:13:50.996Z</time></trkpt><trkpt lat="44.29906508647341" lon="11.148009590172816"><ele>172.0</ele><time>2026-05-02T16:13:52.996Z</time></trkpt><trkpt lat="44.29897973601662" lon="11.148117097627884"><ele>173.83333333333334</ele><time>2026-05-02T16:13:54.996Z</time></trkpt><trkpt lat="44.298877482150516" lon="11.148236826799884"><ele>175.66666666666669</ele><time>2026-05-02T16:13:56.996Z</time></trkpt><trkpt lat="44.29882079691269" lon="11.14829761629112"><ele>177.5</ele><time>2026-05-02T16:13:57.994Z</time></trkpt><trkpt lat="44.298753578541586" lon="11.148335791598107"><ele>179.33333333333334</ele><time>2026-05-02T16:13:58.995Z</time></trkpt><trkpt lat="44.298671515210835" lon="11.148364632509674"><ele>181.16666666666666</ele><time>2026-05-02T16:13:59.995Z</time></trkpt><trkpt lat="44.29858600472641" lon="11.148388559261681"><ele>183.0</ele><time>2026-05-02T16:14:00.994Z</time></trkpt><trkpt lat="44.29850416735955" lon="11.148401154031939"><ele>183.0</ele><time>2026-05-02T16:14:01.995Z</time></trkpt><trkpt lat="44.29841647802996" lon="11.148438621547504"><ele>183.0</ele><time>2026-05-02T16:14:02.995Z</time></trkpt><trkpt lat="44.2983328689918" lon="11.14848974965323"><ele>183.0</ele><time>2026-05-02T16:14:03.995Z</time></trkpt><trkpt lat="44.29825164867003" lon="11.148562211532779"><ele>183.0</ele><time>2026-05-02T16:14:04.994Z</time></trkpt><trkpt lat="44.298169105039" lon="11.14861674569766"><ele>183.0</ele><time>2026-05-02T16:14:05.994Z</time></trkpt><trkpt lat="44.29807883651144" lon="11.148700744919198"><ele>186.8</ele><time>2026-05-02T16:14:06.995Z</time></trkpt><trkpt lat="44.29798964390498" lon="11.148738062120724"><ele>190.60000000000002</ele><time>2026-05-02T16:14:07.995Z</time></trkpt><trkpt lat="44.29790233127744" lon="11.14879580903965"><ele>194.39999999999998</ele><time>2026-05-02T16:14:08.995Z</time></trkpt><trkpt lat="44.29781549207252" lon="11.148856239833473"><ele>198.2</ele><time>2026-05-02T16:14:09.995Z</time></trkpt><trkpt lat="44.2977287125056" lon="11.148919350636302"><ele>202.0</ele><time>2026-05-02T16:14:10.995Z</time></trkpt><trkpt lat="44.29764323902166" lon="11.148983917999166"><ele>202.0</ele><time>2026-05-02T16:14:11.995Z</time></trkpt><trkpt lat="44.2975502055169" lon="11.149012360065788"><ele>202.0</ele><time>2026-05-02T16:14:12.995Z</time></trkpt><trkpt lat="44.297457442512425" lon="11.149041371231073"><ele>202.0</ele><time>2026-05-02T16:14:13.995Z</time></trkpt><trkpt lat="44.29736777861137" lon="11.149053378808496"><ele>202.0</ele><time>2026-05-02T16:14:14.995Z</time></trkpt><trkpt lat="44.29727552283306" lon="11.149060425531763"><ele>202.0</ele><time>2026-05-02T16:14:15.995Z</time></trkpt><trkpt lat="44.29718967611692" lon="11.149084794998412"><ele>200.66666666666666</ele><time>2026-05-02T16:14:16.995Z</time></trkpt><trkpt lat="44.297119877660464" lon="11.149134929999432"><ele>199.33333333333331</ele><time>2026-05-02T16:14:17.995Z</time></trkpt><trkpt lat="44.29707887577421" lon="11.149215864795842"><ele>198.0</ele><time>2026-05-02T16:14:18.995Z</time></trkpt><trkpt lat="44.29706669533041" lon="11.149314467993449"><ele>196.66666666666669</ele><time>2026-05-02T16:14:19.995Z</time></trkpt><trkpt lat="44.297079581459045" lon="11.149444419800366"><ele>195.33333333333334</ele><time>2026-05-02T16:14:20.995Z</time></trkpt><trkpt lat="44.29712477585963" lon="11.149540543667209"><ele>194.0</ele><time>2026-05-02T16:14:21.995Z</time></trkpt><trkpt lat="44.29717454415906" lon="11.149606414040866"><ele>194.0</ele><time>2026-05-02T16:14:22.995Z</time></trkpt><trkpt lat="44.29724788919311" lon="11.149673806079113"><ele>194.0</ele><time>2026-05-02T16:14:23.995Z</time></trkpt><trkpt lat="44.29734919347081" lon="11.149721405856676"><ele>194.0</ele><time>2026-05-02T16:14:24.995Z</time></trkpt><trkpt lat="44.29744583390525" lon="11.14976539032988"><ele>194.0</ele><time>2026-05-02T16:14:25.995Z</time></trkpt><trkpt lat="44.29752649975069" lon="11.149784119362732"><ele>194.0</ele><time>2026-05-02T16:14:26.995Z</time></trkpt><trkpt lat="44.297596089397736" lon="11.149829622226793"><ele>195.33333333333334</ele><time>2026-05-02T16:14:27.995Z</time></trkpt><trkpt lat="44.29765129345915" lon="11.149874734482294"><ele>196.66666666666669</ele><time>2026-05-02T16:15:46.997Z</time></trkpt><trkpt lat="44.2977726319758" lon="11.149956245023684"><ele>198.0</ele><time>2026-05-02T16:15:48.997Z</time></trkpt><trkpt lat="44.297836468836934" lon="11.150010768101941"><ele>199.33333333333331</ele><time>2026-05-02T16:15:49.997Z</time></trkpt><trkpt lat="44.29790015941337" lon="11.15006978758493"><ele>200.66666666666666</ele><time>2026-05-02T16:15:50.997Z</time></trkpt><trkpt lat="44.297956760871756" lon="11.150130289036289"><ele>202.0</ele><time>2026-05-02T16:15:51.997Z</time></trkpt><trkpt lat="44.29802111374531" lon="11.150217204507591"><ele>202.39999999999998</ele><time>2026-05-02T16:15:52.997Z</time></trkpt><trkpt lat="44.29808633287904" lon="11.150309957786847"><ele>202.79999999999998</ele><time>2026-05-02T16:15:53.997Z</time></trkpt><trkpt lat="44.29815607069189" lon="11.150410496576784"><ele>203.2</ele><time>2026-05-02T16:15:54.997Z</time></trkpt><trkpt lat="44.29822614733619" lon="11.150513592204321"><ele>203.6</ele><time>2026-05-02T16:15:55.997Z</time></trkpt><trkpt lat="44.29829614142634" lon="11.150617045553046"><ele>204.0</ele><time>2026-05-02T16:15:56.997Z</time></trkpt><trkpt lat="44.29837391879323" lon="11.150712466124249"><ele>204.0</ele><time>2026-05-02T16:15:57.997Z</time></trkpt><trkpt lat="44.29844471656231" lon="11.150817656359495"><ele>204.0</ele><time>2026-05-02T16:15:58.997Z</time></trkpt><trkpt lat="44.298513703633276" lon="11.150925808397401"><ele>204.0</ele><time>2026-05-02T16:15:59.997Z</time></trkpt><trkpt lat="44.29858353139241" lon="11.151033833665325"><ele>204.0</ele><time>2026-05-02T16:16:00.997Z</time></trkpt><trkpt lat="44.298659889194404" lon="11.151130861074217"><ele>204.0</ele><time>2026-05-02T16:16:01.997Z</time></trkpt><trkpt lat="44.298746349578444" lon="11.151208154670305"><ele>204.0</ele><time>2026-05-02T16:16:02.996Z</time></trkpt><trkpt lat="44.29883399595162" lon="11.151272786116897"><ele>204.0</ele><time>2026-05-02T16:16:03.996Z</time></trkpt><trkpt lat="44.29893184033595" lon="11.151312150849355"><ele>204.0</ele><time>2026-05-02T16:16:04.996Z</time></trkpt><trkpt lat="44.29902991441315" lon="11.151336043562129"><ele>204.0</ele><time>2026-05-02T16:16:05.996Z</time></trkpt><trkpt lat="44.29912706100317" lon="11.151361039613942"><ele>204.0</ele><time>2026-05-02T16:16:06.996Z</time></trkpt><trkpt lat="44.29922857879527" lon="11.15138855557082"><ele>202.25</ele><time>2026-05-02T16:16:07.996Z</time></trkpt><trkpt lat="44.29933132261819" lon="11.151403456824156"><ele>200.5</ele><time>2026-05-02T16:16:08.996Z</time></trkpt><trkpt lat="44.299430995483014" lon="11.151428215973235"><ele>198.75</ele><time>2026-05-02T16:16:09.996Z</time></trkpt><trkpt lat="44.299529868440466" lon="11.151473819000998"><ele>197.0</ele><time>2026-05-02T16:16:10.996Z</time></trkpt><trkpt lat="44.29962784609621" lon="11.15172036697854"><ele>200.0</ele><time>2026-05-02T16:16:12.996Z</time></trkpt><trkpt lat="44.29962829375615" lon="11.151860522127755"><ele>203.0</ele><time>2026-05-02T16:16:13.996Z</time></trkpt><trkpt lat="44.29965748045791" lon="11.152067340082011"><ele>206.0</ele><time>2026-05-02T16:16:14.996Z</time></trkpt><trkpt lat="44.29963270714957" lon="11.152194072991964"><ele>209.0</ele><time>2026-05-02T16:16:15.996Z</time></trkpt><trkpt lat="44.29966199598116" lon="11.152302839070675"><ele>212.0</ele><time>2026-05-02T16:16:16.996Z</time></trkpt><trkpt lat="44.299680947427596" lon="11.152430316906011"><ele>213.5</ele><time>2026-05-02T16:16:17.996Z</time></trkpt><trkpt lat="44.299729074360506" lon="11.152566111321008"><ele>215.0</ele><time>2026-05-02T16:16:18.996Z</time></trkpt><trkpt lat="44.29982052830417" lon="11.152670697024828"><ele>216.5</ele><time>2026-05-02T16:16:19.996Z</time></trkpt><trkpt lat="44.29993046267091" lon="11.152725783615033"><ele>218.0</ele><time>2026-05-02T16:16:20.996Z</time></trkpt><trkpt lat="44.30003669779238" lon="11.1527419690491"><ele>218.0</ele><time>2026-05-02T16:16:21.996Z</time></trkpt><trkpt lat="44.30013740565859" lon="11.15275040468972"><ele>218.0</ele><time>2026-05-02T16:16:22.996Z</time></trkpt><trkpt lat="44.30024697453138" lon="11.152762690207146"><ele>218.0</ele><time>2026-05-02T16:16:23.996Z</time></trkpt><trkpt lat="44.30034936842595" lon="11.152774285012734"><ele>218.0</ele><time>2026-05-02T16:16:24.996Z</time></trkpt><trkpt lat="44.30046562517362" lon="11.152815381267303"><ele>218.0</ele><time>2026-05-02T16:16:25.996Z</time></trkpt><trkpt lat="44.300563466131216" lon="11.152850586464899"><ele>217.60000000000002</ele><time>2026-05-02T16:16:26.996Z</time></trkpt><trkpt lat="44.300643509174215" lon="11.152931775595336"><ele>217.20000000000002</ele><time>2026-05-02T16:16:27.996Z</time></trkpt><trkpt lat="44.30070639206936" lon="11.153026398000817"><ele>216.8</ele><time>2026-05-02T16:16:28.996Z</time></trkpt><trkpt lat="44.300757115495045" lon="11.15313593259275"><ele>216.4</ele><time>2026-05-02T16:16:29.996Z</time></trkpt><trkpt lat="44.300787466132505" lon="11.153258036300777"><ele>216.0</ele><time>2026-05-02T16:16:30.996Z</time></trkpt><trkpt lat="44.30080234112408" lon="11.15338781058703"><ele>217.8</ele><time>2026-05-02T16:16:31.996Z</time></trkpt><trkpt lat="44.30079914613852" lon="11.153518370357999"><ele>219.60000000000002</ele><time>2026-05-02T16:16:32.996Z</time></trkpt><trkpt lat="44.30077382837791" lon="11.153642632872662"><ele>221.4</ele><time>2026-05-02T16:16:33.996Z</time></trkpt><trkpt lat="44.30073730635233" lon="11.153759085033819"><ele>223.2</ele><time>2026-05-02T16:16:34.996Z</time></trkpt><trkpt lat="44.30067716724475" lon="11.153864358059216"><ele>225.0</ele><time>2026-05-02T16:16:35.996Z</time></trkpt><trkpt lat="44.30060964585301" lon="11.153973524187611"><ele>227.8</ele><time>2026-05-02T16:16:36.996Z</time></trkpt><trkpt lat="44.30053461006404" lon="11.154055754625524"><ele>230.6</ele><time>2026-05-02T16:16:37.996Z</time></trkpt><trkpt lat="44.300459825398995" lon="11.154137534342116"><ele>233.39999999999998</ele><time>2026-05-02T16:16:38.996Z</time></trkpt><trkpt lat="44.30039001262352" lon="11.154209334314006"><ele>236.2</ele><time>2026-05-02T16:16:39.996Z</time></trkpt><trkpt lat="44.30033042025692" lon="11.154285136546381"><ele>239.0</ele><time>2026-05-02T16:16:40.996Z</time></trkpt><trkpt lat="44.300248090792394" lon="11.1543464699499"><ele>239.00000000000003</ele><time>2026-05-02T16:16:41.996Z</time></trkpt><trkpt lat="44.30019888708113" lon="11.154416279117104"><ele>239.0</ele><time>2026-05-02T16:16:42.996Z</time></trkpt><trkpt lat="44.3001270048883" lon="11.154507127863495"><ele>239.0</ele><time>2026-05-02T16:16:44.996Z</time></trkpt><trkpt lat="44.30014675051704" lon="11.15459535404553"><ele>239.0</ele><time>2026-05-02T16:16:46.996Z</time></trkpt><trkpt lat="44.300197331660605" lon="11.154685771203427"><ele>239.00000000000003</ele><time>2026-05-02T16:16:49.996Z</time></trkpt><trkpt lat="44.30026104622706" lon="11.154768769545742"><ele>239.0</ele><time>2026-05-02T16:16:57.997Z</time></trkpt><trkpt lat="44.30031296462263" lon="11.154850551079068"><ele>238.00000000000003</ele><time>2026-05-02T16:16:59.997Z</time></trkpt><trkpt lat="44.300368007141834" lon="11.154953381958187"><ele>237.0</ele><time>2026-05-02T16:17:01.997Z</time></trkpt><trkpt lat="44.30045702831556" lon="11.155054309042766"><ele>236.0</ele><time>2026-05-02T16:17:03.997Z</time></trkpt><trkpt lat="44.30049142789589" lon="11.155140831785403"><ele>235.0</ele><time>2026-05-02T16:17:04.997Z</time></trkpt><trkpt lat="44.30053281125904" lon="11.155213584772408"><ele>234.00000000000003</ele><time>2026-05-02T16:17:05.997Z</time></trkpt><trkpt lat="44.3005828641672" lon="11.15529219786517"><ele>233.0</ele><time>2026-05-02T16:17:06.997Z</time></trkpt><trkpt lat="44.300599102687286" lon="11.15540590827113"><ele>233.00000000000003</ele><time>2026-05-02T16:17:07.997Z</time></trkpt><trkpt lat="44.30060462498436" lon="11.155523310019648"><ele>233.0</ele><time>2026-05-02T16:17:08.997Z</time></trkpt><trkpt lat="44.300567825342775" lon="11.155641497603721"><ele>233.0</ele><time>2026-05-02T16:17:09.997Z</time></trkpt><trkpt lat="44.30055597001365" lon="11.155762650975223"><ele>233.0</ele><time>2026-05-02T16:17:10.997Z</time></trkpt><trkpt lat="44.30052852117335" lon="11.155871263011656"><ele>233.00000000000003</ele><time>2026-05-02T16:17:11.997Z</time></trkpt><trkpt lat="44.300509084191454" lon="11.1559784688953"><ele>233.0</ele><time>2026-05-02T16:17:12.997Z</time></trkpt><trkpt lat="44.300488709966075" lon="11.156085514861603"><ele>236.50000000000003</ele><time>2026-05-02T16:17:13.997Z</time></trkpt><trkpt lat="44.3004693684018" lon="11.156204838337857"><ele>240.0</ele><time>2026-05-02T16:17:14.997Z</time></trkpt><trkpt lat="44.30044498402591" lon="11.156321154200487"><ele>243.5</ele><time>2026-05-02T16:17:15.997Z</time></trkpt><trkpt lat="44.3003969131273" lon="11.156421340467954"><ele>247.0</ele><time>2026-05-02T16:17:16.997Z</time></trkpt><trkpt lat="44.30033999922067" lon="11.156497051996098"><ele>250.50000000000003</ele><time>2026-05-02T16:17:17.997Z</time></trkpt><trkpt lat="44.30027997145557" lon="11.156558458038171"><ele>254.0</ele><time>2026-05-02T16:17:18.997Z</time></trkpt><trkpt lat="44.30023180417427" lon="11.156653415827165"><ele>254.50000000000003</ele><time>2026-05-02T16:17:19.997Z</time></trkpt><trkpt lat="44.30024517431913" lon="11.156746741375647"><ele>255.0</ele><time>2026-05-02T16:17:20.997Z</time></trkpt><trkpt lat="44.300288556839384" lon="11.156855064903137"><ele>255.5</ele><time>2026-05-02T16:17:21.997Z</time></trkpt><trkpt lat="44.30037904161261" lon="11.15690088106825"><ele>256.0</ele><time>2026-05-02T16:17:22.997Z</time></trkpt><trkpt lat="44.300453062260935" lon="11.156931272656017"><ele>256.5</ele><time>2026-05-02T16:17:23.997Z</time></trkpt><trkpt lat="44.30053307962174" lon="11.156957688780802"><ele>257.0</ele><time>2026-05-02T16:17:24.997Z</time></trkpt><trkpt lat="44.300622709284056" lon="11.156986518523635"><ele>254.33333333333334</ele><time>2026-05-02T16:17:25.997Z</time></trkpt><trkpt lat="44.30070877075986" lon="11.157014328177167"><ele>251.66666666666669</ele><time>2026-05-02T16:17:26.997Z</time></trkpt><trkpt lat="44.3007904139523" lon="11.157049204579542"><ele>249.0</ele><time>2026-05-02T16:17:27.997Z</time></trkpt><trkpt lat="44.30087021987052" lon="11.157088305303787"><ele>246.33333333333331</ele><time>2026-05-02T16:17:28.997Z</time></trkpt><trkpt lat="44.300935480777305" lon="11.157129832915174"><ele>243.66666666666666</ele><time>2026-05-02T16:17:29.997Z</time></trkpt><trkpt lat="44.300994888099325" lon="11.1572245243127"><ele>241.0</ele><time>2026-05-02T16:17:31.997Z</time></trkpt><trkpt lat="44.300922844659304" lon="11.157196660751627"><ele>241.0</ele><time>2026-05-02T16:17:35.998Z</time></trkpt><trkpt lat="44.30084946249329" lon="11.15711465882002"><ele>241.00000000000003</ele><time>2026-05-02T16:17:38.998Z</time></trkpt><trkpt lat="44.300766900634635" lon="11.157098335916608"><ele>241.00000000000003</ele><time>2026-05-02T16:17:40.998Z</time></trkpt><trkpt lat="44.300654654716524" lon="11.157102749044297"><ele>241.0</ele><time>2026-05-02T16:17:42.998Z</time></trkpt><trkpt lat="44.300523014396724" lon="11.157113302809163"><ele>241.0</ele><time>2026-05-02T16:17:44.998Z</time></trkpt><trkpt lat="44.30044847619298" lon="11.157205234190787"><ele>243.66666666666666</ele><time>2026-05-02T16:17:45.998Z</time></trkpt><trkpt lat="44.300406492290016" lon="11.157326929080943"><ele>246.33333333333331</ele><time>2026-05-02T16:17:46.998Z</time></trkpt><trkpt lat="44.30039703695431" lon="11.157460695379896"><ele>249.0</ele><time>2026-05-02T16:17:47.998Z</time></trkpt><trkpt lat="44.30038525273763" lon="11.157564608174185"><ele>251.66666666666669</ele><time>2026-05-02T16:17:48.998Z</time></trkpt><trkpt lat="44.30037022061867" lon="11.15766631189476"><ele>254.33333333333334</ele><time>2026-05-02T16:17:49.998Z</time></trkpt><trkpt lat="44.30034705814888" lon="11.157752272910471"><ele>257.0</ele><time>2026-05-02T16:17:50.998Z</time></trkpt><trkpt lat="44.30029331468419" lon="11.15780981112284"><ele>258.0</ele><time>2026-05-02T16:17:51.998Z</time></trkpt><trkpt lat="44.30021645071084" lon="11.157833763941602"><ele>259.0</ele><time>2026-05-02T16:17:52.998Z</time></trkpt><trkpt lat="44.30015143048889" lon="11.157872176401504"><ele>260.0</ele><time>2026-05-02T16:17:53.998Z</time></trkpt><trkpt lat="44.30008227566232" lon="11.157934298137"><ele>261.0</ele><time>2026-05-02T16:17:54.998Z</time></trkpt><trkpt lat="44.30000936482781" lon="11.15798435429801"><ele>262.0</ele><time>2026-05-02T16:17:55.998Z</time></trkpt><trkpt lat="44.2999442626115" lon="11.158060159563103"><ele>263.0</ele><time>2026-05-02T16:17:56.998Z</time></trkpt><trkpt lat="44.29987080814475" lon="11.158146769961098"><ele>262.83333333333337</ele><time>2026-05-02T16:17:57.998Z</time></trkpt><trkpt lat="44.29981689745152" lon="11.15823131040537"><ele>262.6666666666667</ele><time>2026-05-02T16:17:58.998Z</time></trkpt><trkpt lat="44.299758885305124" lon="11.158312099474914"><ele>262.5</ele><time>2026-05-02T16:17:59.998Z</time></trkpt><trkpt lat="44.29971335985964" lon="11.158406923273056"><ele>262.3333333333333</ele><time>2026-05-02T16:18:00.998Z</time></trkpt><trkpt lat="44.29970017251858" lon="11.158522831057383"><ele>262.16666666666663</ele><time>2026-05-02T16:18:01.998Z</time></trkpt><trkpt lat="44.299709192826526" lon="11.158658306141234"><ele>262.0</ele><time>2026-05-02T16:18:02.998Z</time></trkpt><trkpt lat="44.299734930233456" lon="11.158810228304448"><ele>262.0</ele><time>2026-05-02T16:18:03.998Z</time></trkpt><trkpt lat="44.299758791944434" lon="11.158958896090153"><ele>262.0</ele><time>2026-05-02T16:18:04.998Z</time></trkpt><trkpt lat="44.299799193838865" lon="11.159109351792631"><ele>262.0</ele><time>2026-05-02T16:18:05.998Z</time></trkpt><trkpt lat="44.29980824685429" lon="11.159271606456315"><ele>262.0</ele><time>2026-05-02T16:18:06.998Z</time></trkpt><trkpt lat="44.29983045349721" lon="11.15941140164175"><ele>262.0</ele><time>2026-05-02T16:18:07.998Z</time></trkpt><trkpt lat="44.29986142385849" lon="11.159562381901576"><ele>262.6</ele><time>2026-05-02T16:18:08.996Z</time></trkpt><trkpt lat="44.299894490607265" lon="11.1597086667593"><ele>263.2</ele><time>2026-05-02T16:18:09.996Z</time></trkpt><trkpt lat="44.2999231988819" lon="11.159841869438255"><ele>263.8</ele><time>2026-05-02T16:18:10.997Z</time></trkpt><trkpt lat="44.299957993434035" lon="11.159983276288537"><ele>264.4</ele><time>2026-05-02T16:18:11.997Z</time></trkpt><trkpt lat="44.29999068394866" lon="11.160121366344546"><ele>265.0</ele><time>2026-05-02T16:18:12.997Z</time></trkpt><trkpt lat="44.30004048233964" lon="11.160246311813271"><ele>266.0</ele><time>2026-05-02T16:18:13.997Z</time></trkpt><trkpt lat="44.30010284008912" lon="11.16035385249665"><ele>267.0</ele><time>2026-05-02T16:18:14.997Z</time></trkpt><trkpt lat="44.30016106980248" lon="11.160448746506813"><ele>268.0</ele><time>2026-05-02T16:18:15.998Z</time></trkpt><trkpt lat="44.30017794460424" lon="11.160562270740625"><ele>269.0</ele><time>2026-05-02T16:18:16.998Z</time></trkpt><trkpt lat="44.300190661424516" lon="11.160655429231753"><ele>270.0</ele><time>2026-05-02T16:18:17.998Z</time></trkpt><trkpt lat="44.30018493941149" lon="11.16075866830393"><ele>271.0</ele><time>2026-05-02T16:18:18.998Z</time></trkpt><trkpt lat="44.30016046994952" lon="11.160858223664652"><ele>273.8333333333333</ele><time>2026-05-02T16:18:19.998Z</time></trkpt><trkpt lat="44.300126938150484" lon="11.160952434873254"><ele>276.66666666666663</ele><time>2026-05-02T16:18:20.998Z</time></trkpt><trkpt lat="44.30007136624521" lon="11.161028376287293"><ele>279.5</ele><time>2026-05-02T16:18:21.998Z</time></trkpt><trkpt lat="44.300044441363674" lon="11.161114807216256"><ele>282.3333333333333</ele><time>2026-05-02T16:18:22.999Z</time></trkpt><trkpt lat="44.300019318884786" lon="11.161295046672274"><ele>285.1666666666667</ele><time>2026-05-02T16:18:24.999Z</time></trkpt><trkpt lat="44.30003978810059" lon="11.161403219876952"><ele>288.0</ele><time>2026-05-02T16:18:25.999Z</time></trkpt><trkpt lat="44.30009121261879" lon="11.161503855983863"><ele>291.0</ele><time>2026-05-02T16:18:26.999Z</time></trkpt><trkpt lat="44.30014176629212" lon="11.16160410473128"><ele>294.0</ele><time>2026-05-02T16:18:27.999Z</time></trkpt><trkpt lat="44.30021379475508" lon="11.161685463227467"><ele>297.0</ele><time>2026-05-02T16:18:28.999Z</time></trkpt><trkpt lat="44.30027292747715" lon="11.161779548632191"><ele>300.0</ele><time>2026-05-02T16:18:29.999Z</time></trkpt><trkpt lat="44.300330196537324" lon="11.1618526319955"><ele>303.0</ele><time>2026-05-02T16:18:30.999Z</time></trkpt><trkpt lat="44.30038869375909" lon="11.161938010542544"><ele>306.0</ele><time>2026-05-02T16:18:31.999Z</time></trkpt><trkpt lat="44.30045259286603" lon="11.162015863342205"><ele>306.0</ele><time>2026-05-02T16:18:32.999Z</time></trkpt><trkpt lat="44.3005085085758" lon="11.162115970552062"><ele>306.0</ele><time>2026-05-02T16:18:33.999Z</time></trkpt><trkpt lat="44.30056268698956" lon="11.162207741839554"><ele>306.0</ele><time>2026-05-02T16:18:35Z</time></trkpt><trkpt lat="44.30062623382474" lon="11.162302200405737"><ele>306.0</ele><time>2026-05-02T16:18:36Z</time></trkpt><trkpt lat="44.300700929458436" lon="11.162371443433909"><ele>306.0</ele><time>2026-05-02T16:18:37Z</time></trkpt><trkpt lat="44.30077509753411" lon="11.162433171800357"><ele>306.0</ele><time>2026-05-02T16:18:38Z</time></trkpt><trkpt lat="44.30084663417085" lon="11.162473835340046"><ele>306.57142857142856</ele><time>2026-05-02T16:18:39Z</time></trkpt><trkpt lat="44.300915239456" lon="11.162512557489984"><ele>307.14285714285717</ele><time>2026-05-02T16:18:40Z</time></trkpt><trkpt lat="44.30097720099503" lon="11.162571997456523"><ele>307.7142857142857</ele><time>2026-05-02T16:18:41Z</time></trkpt><trkpt lat="44.30103487436708" lon="11.162630662172893"><ele>308.2857142857143</ele><time>2026-05-02T16:18:42Z</time></trkpt><trkpt lat="44.30109075148862" lon="11.162693370432772"><ele>308.85714285714283</ele><time>2026-05-02T16:18:43Z</time></trkpt><trkpt lat="44.30114451197542" lon="11.162760582042607"><ele>309.42857142857144</ele><time>2026-05-02T16:18:44Z</time></trkpt><trkpt lat="44.3011931081842" lon="11.162830678646866"><ele>310.0</ele><time>2026-05-02T16:18:45Z</time></trkpt><trkpt lat="44.30124354059496" lon="11.162896601778119"><ele>310.0</ele><time>2026-05-02T16:18:46Z</time></trkpt><trkpt lat="44.30129381111434" lon="11.163052966484099"><ele>310.0</ele><time>2026-05-02T16:18:48Z</time></trkpt><trkpt lat="44.30134377974324" lon="11.163207890513192"><ele>310.0</ele><time>2026-05-02T16:18:50Z</time></trkpt><trkpt lat="44.30139873661939" lon="11.163343173487446"><ele>310.0</ele><time>2026-05-02T16:18:52Z</time></trkpt><trkpt lat="44.30140736121396" lon="11.16344395053066"><ele>310.0</ele><time>2026-05-02T16:18:53Z</time></trkpt><trkpt lat="44.301451296971386" lon="11.163595267280824"><ele>310.8333333333333</ele><time>2026-05-02T16:18:55Z</time></trkpt><trkpt lat="44.30145091575195" lon="11.163748945648743"><ele>311.66666666666663</ele><time>2026-05-02T16:18:57.001Z</time></trkpt><trkpt lat="44.30144134562568" lon="11.163902795819896"><ele>312.5</ele><time>2026-05-02T16:18:59.001Z</time></trkpt><trkpt lat="44.301407758191324" lon="11.163985506393782"><ele>313.3333333333333</ele><time>2026-05-02T16:19:00.001Z</time></trkpt><trkpt lat="44.30136638606356" lon="11.164070490060586"><ele>314.1666666666667</ele><time>2026-05-02T16:19:01.001Z</time></trkpt><trkpt lat="44.30131720020566" lon="11.16414878642282"><ele>315.0</ele><time>2026-05-02T16:19:02.001Z</time></trkpt><trkpt lat="44.301264439180855" lon="11.164230359689894"><ele>320.6666666666667</ele><time>2026-05-02T16:19:03.001Z</time></trkpt><trkpt lat="44.30121733476119" lon="11.164332201559926"><ele>326.3333333333333</ele><time>2026-05-02T16:19:04.001Z</time></trkpt><trkpt lat="44.30117456352583" lon="11.164449264224796"><ele>332.0</ele><time>2026-05-02T16:19:05.001Z</time></trkpt><trkpt lat="44.30114031060805" lon="11.164558642364817"><ele>337.66666666666663</ele><time>2026-05-02T16:19:06.001Z</time></trkpt><trkpt lat="44.30112328153697" lon="11.164646861184792"><ele>343.3333333333333</ele><time>2026-05-02T16:19:07.001Z</time></trkpt><trkpt lat="44.30107536584843" lon="11.16475397604652"><ele>349.0</ele><time>2026-05-02T16:19:08.001Z</time></trkpt><trkpt lat="44.30103649198444" lon="11.16485807971982"><ele>348.5</ele><time>2026-05-02T16:19:09.001Z</time></trkpt><trkpt lat="44.300998229154565" lon="11.16496362540729"><ele>348.0</ele><time>2026-05-02T16:19:10.001Z</time></trkpt><trkpt lat="44.300964670424634" lon="11.165063520859158"><ele>347.5</ele><time>2026-05-02T16:19:11.001Z</time></trkpt><trkpt lat="44.30093273055088" lon="11.165180004895673"><ele>347.0</ele><time>2026-05-02T16:19:12.001Z</time></trkpt><trkpt lat="44.30091449157358" lon="11.165300983697218"><ele>346.5</ele><time>2026-05-02T16:19:13.001Z</time></trkpt><trkpt lat="44.300867693825765" lon="11.165404656983984"><ele>346.0</ele><time>2026-05-02T16:19:14.001Z</time></trkpt><trkpt lat="44.300824537410996" lon="11.165528655206847"><ele>346.0</ele><time>2026-05-02T16:19:15.001Z</time></trkpt><trkpt lat="44.30078105425677" lon="11.165647072186012"><ele>346.0</ele><time>2026-05-02T16:19:16.001Z</time></trkpt><trkpt lat="44.300741573154944" lon="11.165757541891981"><ele>346.0</ele><time>2026-05-02T16:19:17.001Z</time></trkpt><trkpt lat="44.30070912854008" lon="11.165865377871704"><ele>346.0</ele><time>2026-05-02T16:19:18.001Z</time></trkpt><trkpt lat="44.30066354751699" lon="11.165962707441615"><ele>346.0</ele><time>2026-05-02T16:19:19.001Z</time></trkpt><trkpt lat="44.300620685098615" lon="11.16604004930245"><ele>346.0</ele><time>2026-05-02T16:19:28.001Z</time></trkpt><trkpt lat="44.30058485781427" lon="11.166116052874665"><ele>348.20000000000005</ele><time>2026-05-02T16:24:14.001Z</time></trkpt><trkpt lat="44.3005203026575" lon="11.166231877930901"><ele>350.40000000000003</ele><time>2026-05-02T16:24:17.002Z</time></trkpt><trkpt lat="44.30048661691013" lon="11.166382050912377"><ele>352.6</ele><time>2026-05-02T16:24:19.002Z</time></trkpt><trkpt lat="44.30046433538022" lon="11.16646673475943"><ele>354.8</ele><time>2026-05-02T16:24:21.002Z</time></trkpt><trkpt lat="44.3004506155522" lon="11.166583171413299"><ele>357.0</ele><time>2026-05-02T16:24:23.002Z</time></trkpt><trkpt lat="44.30043486100363" lon="11.166714425118665"><ele>357.40000000000003</ele><time>2026-05-02T16:24:25.002Z</time></trkpt><trkpt lat="44.30041214286396" lon="11.166844282197092"><ele>357.8</ele><time>2026-05-02T16:24:27Z</time></trkpt><trkpt lat="44.300380510662755" lon="11.166965253129586"><ele>358.2</ele><time>2026-05-02T16:24:29Z</time></trkpt><trkpt lat="44.30030366480333" lon="11.167013835495435"><ele>358.6</ele><time>2026-05-02T16:24:31Z</time></trkpt><trkpt lat="44.30018728101082" lon="11.167065114235257"><ele>359.0</ele><time>2026-05-02T16:24:33Z</time></trkpt><trkpt lat="44.300095347514414" lon="11.167156259683644"><ele>359.0</ele><time>2026-05-02T16:24:35Z</time></trkpt><trkpt lat="44.300034513290264" lon="11.167196079363375"><ele>359.0</ele><time>2026-05-02T16:24:36Z</time></trkpt><trkpt lat="44.29997200154016" lon="11.167206657641778"><ele>359.0</ele><time>2026-05-02T16:24:37Z</time></trkpt><trkpt lat="44.29985292899112" lon="11.167258519767943"><ele>359.0</ele><time>2026-05-02T16:24:39Z</time></trkpt><trkpt lat="44.2997884000841" lon="11.167272906483282"><ele>359.0</ele><time>2026-05-02T16:24:40Z</time></trkpt><trkpt lat="44.2997219937545" lon="11.167294281115508"><ele>359.0</ele><time>2026-05-02T16:24:41Z</time></trkpt><trkpt lat="44.29966262625355" lon="11.16734577951789"><ele>362.57142857142856</ele><time>2026-05-02T16:24:42Z</time></trkpt><trkpt lat="44.29961227430564" lon="11.167409709477754"><ele>366.14285714285717</ele><time>2026-05-02T16:24:43Z</time></trkpt><trkpt lat="44.299560145852034" lon="11.167478808318997"><ele>369.71428571428567</ele><time>2026-05-02T16:24:44Z</time></trkpt><trkpt lat="44.29951147226589" lon="11.16754835616761"><ele>373.2857142857143</ele><time>2026-05-02T16:24:45Z</time></trkpt><trkpt lat="44.29947033044466" lon="11.167630074472918"><ele>376.85714285714283</ele><time>2026-05-02T16:24:46Z</time></trkpt><trkpt lat="44.29942960424859" lon="11.167719221201457"><ele>380.4285714285714</ele><time>2026-05-02T16:24:47Z</time></trkpt><trkpt lat="44.2993856779826" lon="11.167796878636604"><ele>384.0</ele><time>2026-05-02T16:24:48Z</time></trkpt><trkpt lat="44.29934303657297" lon="11.16788811351135"><ele>384.0</ele><time>2026-05-02T16:24:49Z</time></trkpt><trkpt lat="44.29932688934635" lon="11.167985581489951"><ele>384.0</ele><time>2026-05-02T16:24:50Z</time></trkpt><trkpt lat="44.29929571758521" lon="11.168069742060233"><ele>384.0</ele><time>2026-05-02T16:24:51Z</time></trkpt><trkpt lat="44.299283372425776" lon="11.16818826203361"><ele>384.0</ele><time>2026-05-02T16:24:52Z</time></trkpt><trkpt lat="44.29927868169871" lon="11.168287599129904"><ele>384.0</ele><time>2026-05-02T16:24:53Z</time></trkpt><trkpt lat="44.29928866031446" lon="11.16840551535719"><ele>384.0</ele><time>2026-05-02T16:24:54Z</time></trkpt><trkpt lat="44.299317553025084" lon="11.168510065461142"><ele>385.0</ele><time>2026-05-02T16:24:55Z</time></trkpt><trkpt lat="44.299337478585784" lon="11.168617196636319"><ele>386.0</ele><time>2026-05-02T16:24:56Z</time></trkpt><trkpt lat="44.29941594753556" lon="11.168710579659603"><ele>387.0</ele><time>2026-05-02T16:24:57Z</time></trkpt><trkpt lat="44.299468367837186" lon="11.168863349379412"><ele>388.0</ele><time>2026-05-02T16:24:59Z</time></trkpt><trkpt lat="44.299503604840034" lon="11.16900262722885"><ele>389.0</ele><time>2026-05-02T16:25:01Z</time></trkpt><trkpt lat="44.2994468846184" lon="11.16911339671292"><ele>390.49999999999994</ele><time>2026-05-02T16:25:03Z</time></trkpt><trkpt lat="44.299329691162356" lon="11.16914113405107"><ele>392.0</ele><time>2026-05-02T16:25:05Z</time></trkpt><trkpt lat="44.29925913927494" lon="11.169169597204366"><ele>393.5</ele><time>2026-05-02T16:25:06Z</time></trkpt><trkpt lat="44.29919897157359" lon="11.16921333497654"><ele>395.0</ele><time>2026-05-02T16:25:07Z</time></trkpt><trkpt lat="44.29912895316213" lon="11.169251554240425"><ele>396.49999999999994</ele><time>2026-05-02T16:25:08Z</time></trkpt><trkpt lat="44.29907665313343" lon="11.169302613063206"><ele>398.0</ele><time>2026-05-02T16:25:09Z</time></trkpt><trkpt lat="44.299059091633374" lon="11.16939531863515"><ele>397.99999999999994</ele><time>2026-05-02T16:25:10Z</time></trkpt><trkpt lat="44.29903332480975" lon="11.169485375082713"><ele>398.0</ele><time>2026-05-02T16:25:11Z</time></trkpt><trkpt lat="44.29904015208288" lon="11.169582490764597"><ele>398.0</ele><time>2026-05-02T16:25:12Z</time></trkpt><trkpt lat="44.29907841081036" lon="11.169676058517583"><ele>398.0</ele><time>2026-05-02T16:25:13Z</time></trkpt><trkpt lat="44.29909086138996" lon="11.169775873940992"><ele>398.0</ele><time>2026-05-02T16:25:14Z</time></trkpt><trkpt lat="44.299103123862196" lon="11.169865911513071"><ele>397.99999999999994</ele><time>2026-05-02T16:25:15Z</time></trkpt><trkpt lat="44.299106242026916" lon="11.169960481348326"><ele>398.0</ele><time>2026-05-02T16:25:16Z</time></trkpt><trkpt lat="44.2990901478872" lon="11.170050958149554"><ele>400.2</ele><time>2026-05-02T16:25:17Z</time></trkpt><trkpt lat="44.29908930001159" lon="11.170149133972961"><ele>402.4</ele><time>2026-05-02T16:25:18Z</time></trkpt><trkpt lat="44.29908888574044" lon="11.170240087686018"><ele>404.59999999999997</ele><time>2026-05-02T16:25:19Z</time></trkpt><trkpt lat="44.29910560913321" lon="11.17040976536261"><ele>406.79999999999995</ele><time>2026-05-02T16:25:21Z</time></trkpt><trkpt lat="44.29914556933809" lon="11.170550756457981"><ele>409.0</ele><time>2026-05-02T16:25:23Z</time></trkpt><trkpt lat="44.29915728218185" lon="11.17067602215669"><ele>411.0</ele><time>2026-05-02T16:25:25Z</time></trkpt><trkpt lat="44.29914317921041" lon="11.170798249980663"><ele>413.0</ele><time>2026-05-02T16:25:27.001Z</time></trkpt><trkpt lat="44.29911251208479" lon="11.170908171905284"><ele>415.0</ele><time>2026-05-02T16:25:29.001Z</time></trkpt><trkpt lat="44.29907565021046" lon="11.17103040920008"><ele>417.0</ele><time>2026-05-02T16:25:31.001Z</time></trkpt><trkpt lat="44.299001998889075" lon="11.171157169518251"><ele>419.0</ele><time>2026-05-02T16:25:33.001Z</time></trkpt><trkpt lat="44.298909220124" lon="11.171262231413348"><ele>420.85714285714283</ele><time>2026-05-02T16:25:35.001Z</time></trkpt><trkpt lat="44.298861306852494" lon="11.171329184754955"><ele>422.7142857142857</ele><time>2026-05-02T16:25:36.001Z</time></trkpt><trkpt lat="44.29881226802223" lon="11.171398669440663"><ele>424.57142857142856</ele><time>2026-05-02T16:25:37.001Z</time></trkpt><trkpt lat="44.29876097809481" lon="11.171452944171978"><ele>426.42857142857144</ele><time>2026-05-02T16:25:38.001Z</time></trkpt><trkpt lat="44.29870643019375" lon="11.171510952448493"><ele>428.2857142857143</ele><time>2026-05-02T16:25:39.001Z</time></trkpt><trkpt lat="44.2986505847092" lon="11.17158103687378"><ele>430.1428571428571</ele><time>2026-05-02T16:25:40.001Z</time></trkpt><trkpt lat="44.298592325346206" lon="11.171634542038547"><ele>432.0</ele><time>2026-05-02T16:25:41.001Z</time></trkpt><trkpt lat="44.298534825265286" lon="11.17171425077636"><ele>432.0</ele><time>2026-05-02T16:25:42.001Z</time></trkpt><trkpt lat="44.29848108920202" lon="11.171782878661116"><ele>432.0</ele><time>2026-05-02T16:25:43.001Z</time></trkpt><trkpt lat="44.29842636958705" lon="11.171865306603593"><ele>432.0</ele><time>2026-05-02T16:25:44.001Z</time></trkpt><trkpt lat="44.298367145739576" lon="11.171936616231822"><ele>432.0</ele><time>2026-05-02T16:25:45.001Z</time></trkpt><trkpt lat="44.298289351510824" lon="11.171991234998634"><ele>432.0</ele><time>2026-05-02T16:25:46.001Z</time></trkpt><trkpt lat="44.29820817090461" lon="11.172064143949392"><ele>432.0</ele><time>2026-05-02T16:25:47.001Z</time></trkpt><trkpt lat="44.29813436019054" lon="11.172131785019788"><ele>432.5</ele><time>2026-05-02T16:25:48.001Z</time></trkpt><trkpt lat="44.29805745414682" lon="11.172199031140227"><ele>433.0</ele><time>2026-05-02T16:25:49.001Z</time></trkpt><trkpt lat="44.297994440642114" lon="11.172267140811329"><ele>433.5</ele><time>2026-05-02T16:25:50.001Z</time></trkpt><trkpt lat="44.297937069441964" lon="11.172340585158112"><ele>434.0</ele><time>2026-05-02T16:25:51.001Z</time></trkpt><trkpt lat="44.29787094152246" lon="11.17243587657285"><ele>434.5</ele><time>2026-05-02T16:25:52.001Z</time></trkpt><trkpt lat="44.29779457428621" lon="11.172528213513957"><ele>435.0</ele><time>2026-05-02T16:25:53.001Z</time></trkpt><trkpt lat="44.297718936256395" lon="11.172608407618716"><ele>435.0</ele><time>2026-05-02T16:25:54.001Z</time></trkpt><trkpt lat="44.297657065214125" lon="11.17268807541868"><ele>435.0</ele><time>2026-05-02T16:25:55.001Z</time></trkpt><trkpt lat="44.297598518411526" lon="11.17276669829999"><ele>435.0</ele><time>2026-05-02T16:25:56.001Z</time></trkpt><trkpt lat="44.29754620574858" lon="11.172856496007535"><ele>435.0</ele><time>2026-05-02T16:25:57.001Z</time></trkpt><trkpt lat="44.297483642483996" lon="11.172946075461969"><ele>435.0</ele><time>2026-05-02T16:25:58.001Z</time></trkpt><trkpt lat="44.297442511139785" lon="11.173026809058697"><ele>435.0</ele><time>2026-05-02T16:25:59.001Z</time></trkpt><trkpt lat="44.29738634635817" lon="11.173109988377247"><ele>433.3333333333333</ele><time>2026-05-02T16:26:00.001Z</time></trkpt><trkpt lat="44.29733102778012" lon="11.173190134138638"><ele>431.66666666666663</ele><time>2026-05-02T16:26:01.001Z</time></trkpt><trkpt lat="44.29726646655001" lon="11.173263314245643"><ele>430.0</ele><time>2026-05-02T16:26:02.001Z</time></trkpt><trkpt lat="44.29719275065683" lon="11.173308519504749"><ele>428.3333333333333</ele><time>2026-05-02T16:26:03.001Z</time></trkpt><trkpt lat="44.29712410209793" lon="11.173364889913996"><ele>426.66666666666663</ele><time>2026-05-02T16:26:04.001Z</time></trkpt><trkpt lat="44.297049020117356" lon="11.173384041413184"><ele>425.0</ele><time>2026-05-02T16:26:05.001Z</time></trkpt><trkpt lat="44.296965502261735" lon="11.173409014915828"><ele>429.8</ele><time>2026-05-02T16:26:06.001Z</time></trkpt><trkpt lat="44.29688532098659" lon="11.173441432245815"><ele>434.6</ele><time>2026-05-02T16:26:07.001Z</time></trkpt><trkpt lat="44.296783797144116" lon="11.173584783261004"><ele>439.4</ele><time>2026-05-02T16:26:09.001Z</time></trkpt><trkpt lat="44.29674133203881" lon="11.173695707524514"><ele>444.2</ele><time>2026-05-02T16:26:10.001Z</time></trkpt><trkpt lat="44.29669611430261" lon="11.173815399118986"><ele>449.0</ele><time>2026-05-02T16:26:11.001Z</time></trkpt><trkpt lat="44.29665101521158" lon="11.173991630344798"><ele>447.66666666666663</ele><time>2026-05-02T16:26:13.001Z</time></trkpt><trkpt lat="44.296637718635964" lon="11.174094024830401"><ele>446.3333333333333</ele><time>2026-05-02T16:26:14.001Z</time></trkpt><trkpt lat="44.296591086931755" lon="11.174172293982242"><ele>445.0</ele><time>2026-05-02T16:26:15.001Z</time></trkpt><trkpt lat="44.29655623575585" lon="11.174249103944975"><ele>443.66666666666663</ele><time>2026-05-02T16:26:16.001Z</time></trkpt><trkpt lat="44.29652785352038" lon="11.174335037247586"><ele>442.3333333333333</ele><time>2026-05-02T16:26:17.001Z</time></trkpt><trkpt lat="44.296480621852545" lon="11.174502047927238"><ele>441.0</ele><time>2026-05-02T16:26:19.001Z</time></trkpt><trkpt lat="44.29642467100152" lon="11.174657840731125"><ele>445.1666666666667</ele><time>2026-05-02T16:26:21.001Z</time></trkpt><trkpt lat="44.2963825569782" lon="11.174746472648401"><ele>449.33333333333337</ele><time>2026-05-02T16:26:22.001Z</time></trkpt><trkpt lat="44.29631496336866" lon="11.174806582568019"><ele>453.5</ele><time>2026-05-02T16:26:23.001Z</time></trkpt><trkpt lat="44.296246748986235" lon="11.174837625175185"><ele>457.6666666666667</ele><time>2026-05-02T16:26:24.001Z</time></trkpt><trkpt lat="44.29617636272353" lon="11.17484279361117"><ele>461.83333333333337</ele><time>2026-05-02T16:26:25.001Z</time></trkpt><trkpt lat="44.29610061645762" lon="11.174828574797822"><ele>466.0</ele><time>2026-05-02T16:26:26.001Z</time></trkpt><trkpt lat="44.29602064409196" lon="11.174806604447541"><ele>466.0</ele><time>2026-05-02T16:26:27.001Z</time></trkpt><trkpt lat="44.295926781768934" lon="11.174789851012706"><ele>466.0</ele><time>2026-05-02T16:26:28.001Z</time></trkpt><trkpt lat="44.29583744104805" lon="11.174789868322307"><ele>466.0</ele><time>2026-05-02T16:26:29.001Z</time></trkpt><trkpt lat="44.29574513139343" lon="11.174808774331437"><ele>466.0</ele><time>2026-05-02T16:26:30.001Z</time></trkpt><trkpt lat="44.295651744271254" lon="11.174849192426656"><ele>466.0</ele><time>2026-05-02T16:26:31.001Z</time></trkpt><trkpt lat="44.29556441827531" lon="11.174893954884437"><ele>464.20000000000005</ele><time>2026-05-02T16:26:32.001Z</time></trkpt><trkpt lat="44.29546911480367" lon="11.17491586839909"><ele>462.40000000000003</ele><time>2026-05-02T16:26:32.999Z</time></trkpt><trkpt lat="44.29537306733236" lon="11.174931141575058"><ele>460.6</ele><time>2026-05-02T16:26:33.999Z</time></trkpt><trkpt lat="44.29527814630925" lon="11.174963020252907"><ele>458.8</ele><time>2026-05-02T16:26:34.999Z</time></trkpt><trkpt lat="44.295181567330275" lon="11.175001439852085"><ele>457.0</ele><time>2026-05-02T16:26:35.999Z</time></trkpt><trkpt lat="44.295102749268544" lon="11.175092848889113"><ele>457.0</ele><time>2026-05-02T16:26:36.999Z</time></trkpt><trkpt lat="44.29503499239084" lon="11.175202549177351"><ele>457.00000000000006</ele><time>2026-05-02T16:26:37.999Z</time></trkpt><trkpt lat="44.29497510150355" lon="11.17532565629977"><ele>457.00000000000006</ele><time>2026-05-02T16:26:38.999Z</time></trkpt><trkpt lat="44.29491870453634" lon="11.17546730919824"><ele>457.0</ele><time>2026-05-02T16:26:39.999Z</time></trkpt><trkpt lat="44.294862160497274" lon="11.1756077097167"><ele>457.0</ele><time>2026-05-02T16:26:40.999Z</time></trkpt><trkpt lat="44.29476908651325" lon="11.17568201120261"><ele>459.8</ele><time>2026-05-02T16:26:41.999Z</time></trkpt><trkpt lat="44.29470029181095" lon="11.175781777394803"><ele>462.6</ele><time>2026-05-02T16:26:42.999Z</time></trkpt><trkpt lat="44.294630871118784" lon="11.175875831116059"><ele>465.40000000000003</ele><time>2026-05-02T16:26:43.999Z</time></trkpt><trkpt lat="44.29455814029237" lon="11.175957423302505"><ele>468.20000000000005</ele><time>2026-05-02T16:26:44.999Z</time></trkpt><trkpt lat="44.29449910844219" lon="11.176029706960582"><ele>471.0</ele><time>2026-05-02T16:26:45.999Z</time></trkpt><trkpt lat="44.294409636839944" lon="11.176053728579127"><ele>471.0</ele><time>2026-05-02T16:26:46.999Z</time></trkpt><trkpt lat="44.29432942450958" lon="11.176085065970028"><ele>471.0</ele><time>2026-05-02T16:26:47.999Z</time></trkpt><trkpt lat="44.294261412216414" lon="11.176106987111892"><ele>471.0</ele><time>2026-05-02T16:26:48.999Z</time></trkpt><trkpt lat="44.294185102797385" lon="11.176133792106043"><ele>471.0</ele><time>2026-05-02T16:26:49.999Z</time></trkpt><trkpt lat="44.294107530439426" lon="11.176125075489807"><ele>471.0</ele><time>2026-05-02T16:26:50.999Z</time></trkpt><trkpt lat="44.29402244341672" lon="11.17611297253566"><ele>471.0</ele><time>2026-05-02T16:26:51.999Z</time></trkpt><trkpt lat="44.29393673025804" lon="11.176099781607897"><ele>471.8571428571429</ele><time>2026-05-02T16:26:52.999Z</time></trkpt><trkpt lat="44.293858092387715" lon="11.176081668106448"><ele>472.7142857142857</ele><time>2026-05-02T16:26:53.999Z</time></trkpt><trkpt lat="44.29378995766001" lon="11.176034264504018"><ele>473.57142857142856</ele><time>2026-05-02T16:26:54.999Z</time></trkpt><trkpt lat="44.293718535505185" lon="11.175989769541944"><ele>474.42857142857144</ele><time>2026-05-02T16:26:55.999Z</time></trkpt><trkpt lat="44.2936565934236" lon="11.175941171500561"><ele>475.2857142857142</ele><time>2026-05-02T16:26:56.999Z</time></trkpt><trkpt lat="44.293596146667866" lon="11.175893445567178"><ele>476.1428571428571</ele><time>2026-05-02T16:26:57.999Z</time></trkpt><trkpt lat="44.293541991355596" lon="11.175833440435149"><ele>477.0</ele><time>2026-05-02T16:26:58.999Z</time></trkpt><trkpt lat="44.293476158675915" lon="11.175776495529085"><ele>477.0</ele><time>2026-05-02T16:26:59.999Z</time></trkpt><trkpt lat="44.29341103377789" lon="11.175713139270197"><ele>477.0</ele><time>2026-05-02T16:27:00.999Z</time></trkpt><trkpt lat="44.293338360168214" lon="11.175668272042477"><ele>477.0</ele><time>2026-05-02T16:27:01.999Z</time></trkpt><trkpt lat="44.29326272603055" lon="11.17561401863831"><ele>477.0</ele><time>2026-05-02T16:27:03Z</time></trkpt><trkpt lat="44.293187734710486" lon="11.17554514811126"><ele>477.0</ele><time>2026-05-02T16:27:04Z</time></trkpt><trkpt lat="44.293108976910325" lon="11.175467886116"><ele>477.0</ele><time>2026-05-02T16:27:05Z</time></trkpt><trkpt lat="44.29302148183681" lon="11.175419482868566"><ele>483.0</ele><time>2026-05-02T16:27:06Z</time></trkpt><trkpt lat="44.29293761174213" lon="11.175361838387287"><ele>489.00000000000006</ele><time>2026-05-02T16:27:07Z</time></trkpt><trkpt lat="44.292865722632165" lon="11.175269803607417"><ele>495.00000000000006</ele><time>2026-05-02T16:27:08Z</time></trkpt><trkpt lat="44.29278443181962" lon="11.175207680798684"><ele>501.0</ele><time>2026-05-02T16:27:09Z</time></trkpt><trkpt lat="44.29270016477714" lon="11.175174017236932"><ele>507.0</ele><time>2026-05-02T16:27:10Z</time></trkpt><trkpt lat="44.29261108154287" lon="11.175167761176972"><ele>507.0</ele><time>2026-05-02T16:27:11Z</time></trkpt><trkpt lat="44.29251197667182" lon="11.175240779056296"><ele>507.00000000000006</ele><time>2026-05-02T16:27:12Z</time></trkpt><trkpt lat="44.292418749957044" lon="11.175330408818473"><ele>507.00000000000006</ele><time>2026-05-02T16:27:13Z</time></trkpt><trkpt lat="44.29234807626536" lon="11.175426380455285"><ele>507.0</ele><time>2026-05-02T16:27:14Z</time></trkpt><trkpt lat="44.29226828379789" lon="11.175494953130588"><ele>507.0</ele><time>2026-05-02T16:27:15Z</time></trkpt><trkpt lat="44.29221707163684" lon="11.175626821256152"><ele>509.20000000000005</ele><time>2026-05-02T16:27:16Z</time></trkpt><trkpt lat="44.29218174911677" lon="11.175751559176273"><ele>511.40000000000003</ele><time>2026-05-02T16:27:17Z</time></trkpt><trkpt lat="44.292152918192905" lon="11.175869203027396"><ele>513.5999999999999</ele><time>2026-05-02T16:27:18Z</time></trkpt><trkpt lat="44.29213589171006" lon="11.175998799335442"><ele>515.8</ele><time>2026-05-02T16:27:19Z</time></trkpt><trkpt lat="44.292115519609105" lon="11.176140541445985"><ele>518.0</ele><time>2026-05-02T16:27:20Z</time></trkpt><trkpt lat="44.29207828862113" lon="11.176271797337103"><ele>518.0</ele><time>2026-05-02T16:27:21Z</time></trkpt><trkpt lat="44.29205833457367" lon="11.176388454106672"><ele>518.0</ele><time>2026-05-02T16:27:22Z</time></trkpt><trkpt lat="44.292017975441155" lon="11.176536700971756"><ele>518.0</ele><time>2026-05-02T16:27:24Z</time></trkpt><trkpt lat="44.29197144005239" lon="11.176596554612752"><ele>518.0</ele><time>2026-05-02T16:27:25Z</time></trkpt><trkpt lat="44.291937391574194" lon="11.176695789028944"><ele>518.0</ele><time>2026-05-02T16:27:26Z</time></trkpt><trkpt lat="44.29182080235836" lon="11.176646326015456"><ele>515.1666666666666</ele><time>2026-05-02T16:27:27Z</time></trkpt><trkpt lat="44.29173242487658" lon="11.17663164313174"><ele>512.3333333333333</ele><time>2026-05-02T16:27:28Z</time></trkpt><trkpt lat="44.291652448273226" lon="11.176628527563947"><ele>509.5</ele><time>2026-05-02T16:27:29Z</time></trkpt><trkpt lat="44.29158050333018" lon="11.176610670061635"><ele>506.66666666666663</ele><time>2026-05-02T16:27:30Z</time></trkpt><trkpt lat="44.29150875850542" lon="11.176601069304022"><ele>503.8333333333333</ele><time>2026-05-02T16:27:31Z</time></trkpt><trkpt lat="44.29143995127425" lon="11.176585989911766"><ele>501.0</ele><time>2026-05-02T16:27:32Z</time></trkpt><trkpt lat="44.29136898455074" lon="11.176595836159867"><ele>501.0</ele><time>2026-05-02T16:27:33Z</time></trkpt><trkpt lat="44.291299205874026" lon="11.176613835677255"><ele>501.0</ele><time>2026-05-02T16:27:34Z</time></trkpt><trkpt lat="44.291222421818965" lon="11.176624033834875"><ele>501.0</ele><time>2026-05-02T16:27:35Z</time></trkpt><trkpt lat="44.29114965631971" lon="11.176631692181449"><ele>501.0</ele><time>2026-05-02T16:27:36Z</time></trkpt><trkpt lat="44.29107587877459" lon="11.176655355908062"><ele>501.0</ele><time>2026-05-02T16:27:37Z</time></trkpt><trkpt lat="44.29100739465438" lon="11.176665994650643"><ele>501.0</ele><time>2026-05-02T16:27:38Z</time></trkpt><trkpt lat="44.29092208569605" lon="11.176710184329227"><ele>501.0</ele><time>2026-05-02T16:27:39Z</time></trkpt><trkpt lat="44.29084027556956" lon="11.176721183868287"><ele>501.0</ele><time>2026-05-02T16:27:40Z</time></trkpt><trkpt lat="44.2907487640717" lon="11.176733378605986"><ele>501.0</ele><time>2026-05-02T16:27:41Z</time></trkpt><trkpt lat="44.290651477896475" lon="11.176743001322702"><ele>501.0</ele><time>2026-05-02T16:27:42Z</time></trkpt><trkpt lat="44.2905506602989" lon="11.176706958062526"><ele>501.0</ele><time>2026-05-02T16:27:43Z</time></trkpt><trkpt lat="44.29045851428926" lon="11.176658035261939"><ele>501.8</ele><time>2026-05-02T16:27:44Z</time></trkpt><trkpt lat="44.29038308206133" lon="11.176592278132881"><ele>502.6</ele><time>2026-05-02T16:27:45Z</time></trkpt><trkpt lat="44.29028831282401" lon="11.176510781379365"><ele>503.4</ele><time>2026-05-02T16:27:46Z</time></trkpt><trkpt lat="44.29019066125682" lon="11.176411099002994"><ele>504.2</ele><time>2026-05-02T16:27:47Z</time></trkpt><trkpt lat="44.2901039682898" lon="11.176306424950143"><ele>505.0</ele><time>2026-05-02T16:27:48Z</time></trkpt><trkpt lat="44.29002520362683" lon="11.176216293195102"><ele>505.0</ele><time>2026-05-02T16:27:49Z</time></trkpt><trkpt lat="44.289943469814204" lon="11.176157936927593"><ele>505.0</ele><time>2026-05-02T16:27:50Z</time></trkpt><trkpt lat="44.28986765519095" lon="11.176082359323617"><ele>505.0</ele><time>2026-05-02T16:27:51Z</time></trkpt><trkpt lat="44.2897677247244" lon="11.176040705716204"><ele>505.0</ele><time>2026-05-02T16:27:52Z</time></trkpt><trkpt lat="44.2896906176095" lon="11.176003930063507"><ele>505.0</ele><time>2026-05-02T16:27:53Z</time></trkpt><trkpt lat="44.28959463983404" lon="11.176025959663718"><ele>501.83333333333337</ele><time>2026-05-02T16:27:54Z</time></trkpt><trkpt lat="44.28950599859467" lon="11.176053123546183"><ele>498.6666666666667</ele><time>2026-05-02T16:27:55Z</time></trkpt><trkpt lat="44.28941892141593" lon="11.17609759605199"><ele>495.5</ele><time>2026-05-02T16:27:56Z</time></trkpt><trkpt lat="44.28933507662495" lon="11.176158801774722"><ele>492.33333333333337</ele><time>2026-05-02T16:27:57Z</time></trkpt><trkpt lat="44.28925283274955" lon="11.176209507044513"><ele>489.1666666666667</ele><time>2026-05-02T16:27:58Z</time></trkpt><trkpt lat="44.28918272760574" lon="11.176258618243663"><ele>486.0</ele><time>2026-05-02T16:27:59Z</time></trkpt><trkpt lat="44.28911147639744" lon="11.176305412926931"><ele>486.0</ele><time>2026-05-02T16:28:00Z</time></trkpt><trkpt lat="44.28903721290652" lon="11.176354751690704"><ele>486.0</ele><time>2026-05-02T16:28:01Z</time></trkpt><trkpt lat="44.288963410741005" lon="11.17636064317517"><ele>486.0</ele><time>2026-05-02T16:28:02Z</time></trkpt><trkpt lat="44.288887276080935" lon="11.17638554233293"><ele>486.0</ele><time>2026-05-02T16:28:03Z</time></trkpt><trkpt lat="44.28881416830705" lon="11.176362450834592"><ele>486.0</ele><time>2026-05-02T16:28:04Z</time></trkpt><trkpt lat="44.288744104027394" lon="11.17630180368534"><ele>486.0</ele><time>2026-05-02T16:28:05Z</time></trkpt><trkpt lat="44.288671779412404" lon="11.176244086659764"><ele>480.8</ele><time>2026-05-02T16:28:06.001Z</time></trkpt><trkpt lat="44.28858726036286" lon="11.1761871910941"><ele>475.6</ele><time>2026-05-02T16:28:07.001Z</time></trkpt><trkpt lat="44.288505460435104" lon="11.176085737214194"><ele>470.4</ele><time>2026-05-02T16:28:08.001Z</time></trkpt><trkpt lat="44.28843144842801" lon="11.176015700779505"><ele>465.2</ele><time>2026-05-02T16:28:09.001Z</time></trkpt><trkpt lat="44.28835798543617" lon="11.175941096378034"><ele>460.0</ele><time>2026-05-02T16:28:10.001Z</time></trkpt><trkpt lat="44.2883096935236" lon="11.17585958308805"><ele>460.0</ele><time>2026-05-02T16:28:11.001Z</time></trkpt><trkpt lat="44.28827645603048" lon="11.17578323700148"><ele>460.0</ele><time>2026-05-02T16:28:12.001Z</time></trkpt><trkpt lat="44.28832201425701" lon="11.175699021819087"><ele>460.0</ele><time>2026-05-02T16:28:13.001Z</time></trkpt><trkpt lat="44.28836120129687" lon="11.175557990850683"><ele>460.0</ele><time>2026-05-02T16:28:15.001Z</time></trkpt><trkpt lat="44.28839014777554" lon="11.175390412514334"><ele>460.0</ele><time>2026-05-02T16:28:17.001Z</time></trkpt><trkpt lat="44.28838510874593" lon="11.175239260497943"><ele>461.4</ele><time>2026-05-02T16:28:18.001Z</time></trkpt><trkpt lat="44.288359852897976" lon="11.175138592823968"><ele>462.8</ele><time>2026-05-02T16:28:19.001Z</time></trkpt><trkpt lat="44.28831286417921" lon="11.174980892871355"><ele>464.20000000000005</ele><time>2026-05-02T16:28:20.001Z</time></trkpt><trkpt lat="44.288264351060924" lon="11.17483090631594"><ele>465.6</ele><time>2026-05-02T16:28:21.001Z</time></trkpt><trkpt lat="44.28822745189218" lon="11.17470846206505"><ele>467.0</ele><time>2026-05-02T16:28:22.001Z</time></trkpt><trkpt lat="44.288191797315" lon="11.174584469763525"><ele>468.40000000000003</ele><time>2026-05-02T16:28:23.001Z</time></trkpt><trkpt lat="44.28815498358624" lon="11.174452468310337"><ele>469.80000000000007</ele><time>2026-05-02T16:28:24.001Z</time></trkpt><trkpt lat="44.28812059630902" lon="11.17431755250976"><ele>471.2</ele><time>2026-05-02T16:28:25.001Z</time></trkpt><trkpt lat="44.28807863714254" lon="11.174194299968482"><ele>472.6</ele><time>2026-05-02T16:28:26.001Z</time></trkpt><trkpt lat="44.28804894008119" lon="11.174069553190053"><ele>474.0</ele><time>2026-05-02T16:28:27.001Z</time></trkpt><trkpt lat="44.288001578849446" lon="11.173958042549273"><ele>475.0</ele><time>2026-05-02T16:28:28.001Z</time></trkpt><trkpt lat="44.287949084782774" lon="11.17386095432047"><ele>476.0</ele><time>2026-05-02T16:28:29.001Z</time></trkpt><trkpt lat="44.28785314961439" lon="11.173834177621298"><ele>477.0</ele><time>2026-05-02T16:28:30.001Z</time></trkpt><trkpt lat="44.28776760686964" lon="11.173800117980418"><ele>478.0</ele><time>2026-05-02T16:28:31.001Z</time></trkpt><trkpt lat="44.28767714230853" lon="11.173772882002895"><ele>479.0</ele><time>2026-05-02T16:28:32.001Z</time></trkpt><trkpt lat="44.287583581591434" lon="11.17376357976479"><ele>478.99999999999994</ele><time>2026-05-02T16:28:33.001Z</time></trkpt><trkpt lat="44.28749081905564" lon="11.173760373129271"><ele>479.0</ele><time>2026-05-02T16:28:34.001Z</time></trkpt><trkpt lat="44.2873986714442" lon="11.173775184063654"><ele>479.0</ele><time>2026-05-02T16:28:35.001Z</time></trkpt><trkpt lat="44.287318761728024" lon="11.17378615039072"><ele>479.0</ele><time>2026-05-02T16:28:36.001Z</time></trkpt><trkpt lat="44.287238169127455" lon="11.173798156235836"><ele>478.99999999999994</ele><time>2026-05-02T16:28:37.001Z</time></trkpt><trkpt lat="44.28715968145402" lon="11.173809263859535"><ele>479.0</ele><time>2026-05-02T16:28:38.001Z</time></trkpt><trkpt lat="44.287085119970676" lon="11.17382366118944"><ele>480.57142857142856</ele><time>2026-05-02T16:28:38.999Z</time></trkpt><trkpt lat="44.28701111176786" lon="11.173835184661465"><ele>482.14285714285717</ele><time>2026-05-02T16:28:39.999Z</time></trkpt><trkpt lat="44.286941439119644" lon="11.173846844871433"><ele>483.7142857142857</ele><time>2026-05-02T16:28:40.999Z</time></trkpt><trkpt lat="44.286866955534514" lon="11.173855762202914"><ele>485.2857142857143</ele><time>2026-05-02T16:28:41.999Z</time></trkpt><trkpt lat="44.28679352967732" lon="11.173869696534025"><ele>486.8571428571429</ele><time>2026-05-02T16:28:42.999Z</time></trkpt><trkpt lat="44.28671594212755" lon="11.173882448801365"><ele>488.42857142857144</ele><time>2026-05-02T16:28:43.999Z</time></trkpt><trkpt lat="44.286639808963066" lon="11.173900677713696"><ele>490.0</ele><time>2026-05-02T16:28:44.999Z</time></trkpt><trkpt lat="44.28657305609108" lon="11.173923108309632"><ele>490.00000000000006</ele><time>2026-05-02T16:28:45.999Z</time></trkpt><trkpt lat="44.286499024678946" lon="11.173951765064"><ele>490.0</ele><time>2026-05-02T16:28:46.999Z</time></trkpt><trkpt lat="44.286426017837606" lon="11.173987100393509"><ele>490.0</ele><time>2026-05-02T16:28:47.999Z</time></trkpt><trkpt lat="44.28635485017876" lon="11.173990019784704"><ele>490.0</ele><time>2026-05-02T16:28:48.999Z</time></trkpt><trkpt lat="44.286275493129864" lon="11.17401254970288"><ele>490.00000000000006</ele><time>2026-05-02T16:28:49.999Z</time></trkpt><trkpt lat="44.286203558000494" lon="11.174028454164189"><ele>490.0</ele><time>2026-05-02T16:28:50.999Z</time></trkpt><trkpt lat="44.28612408932404" lon="11.174008277835323"><ele>491.33333333333337</ele><time>2026-05-02T16:28:51.999Z</time></trkpt><trkpt lat="44.28605118905198" lon="11.173970343164227"><ele>492.6666666666667</ele><time>2026-05-02T16:28:52.999Z</time></trkpt><trkpt lat="44.28597604837527" lon="11.173942970037622"><ele>494.0</ele><time>2026-05-02T16:28:53.999Z</time></trkpt><trkpt lat="44.28590350084979" lon="11.173879134590399"><ele>495.33333333333337</ele><time>2026-05-02T16:28:54.999Z</time></trkpt><trkpt lat="44.28583068853849" lon="11.173820460776469"><ele>496.6666666666667</ele><time>2026-05-02T16:28:55.999Z</time></trkpt><trkpt lat="44.285771529293385" lon="11.173733208313"><ele>498.0</ele><time>2026-05-02T16:28:56.999Z</time></trkpt><trkpt lat="44.28571075743091" lon="11.173642482442947"><ele>498.0</ele><time>2026-05-02T16:28:57.999Z</time></trkpt><trkpt lat="44.28564592883798" lon="11.173551082773425"><ele>497.99999999999994</ele><time>2026-05-02T16:28:58.999Z</time></trkpt><trkpt lat="44.285587904607546" lon="11.17344724937124"><ele>497.99999999999994</ele><time>2026-05-02T16:28:59.999Z</time></trkpt><trkpt lat="44.285526677185196" lon="11.17335617263458"><ele>498.0</ele><time>2026-05-02T16:29:00.999Z</time></trkpt><trkpt lat="44.28544696701393" lon="11.17326987838666"><ele>498.0</ele><time>2026-05-02T16:29:01.999Z</time></trkpt><trkpt lat="44.28537196843672" lon="11.173183134433796"><ele>496.59999999999997</ele><time>2026-05-02T16:29:02.999Z</time></trkpt><trkpt lat="44.28530553391914" lon="11.173074683035999"><ele>495.19999999999993</ele><time>2026-05-02T16:29:03.999Z</time></trkpt><trkpt lat="44.28523014333815" lon="11.172984497602926"><ele>493.8</ele><time>2026-05-02T16:29:04.999Z</time></trkpt><trkpt lat="44.285149526812354" lon="11.172898990653856"><ele>492.4</ele><time>2026-05-02T16:29:05.999Z</time></trkpt><trkpt lat="44.28507709788484" lon="11.172800562333459"><ele>491.0</ele><time>2026-05-02T16:29:06.999Z</time></trkpt><trkpt lat="44.28498842851238" lon="11.172742755086544"><ele>491.0</ele><time>2026-05-02T16:29:07.999Z</time></trkpt><trkpt lat="44.28492383890475" lon="11.172642190582943"><ele>491.0</ele><time>2026-05-02T16:29:08.999Z</time></trkpt><trkpt lat="44.28487327594313" lon="11.172535073354025"><ele>491.0</ele><time>2026-05-02T16:29:10Z</time></trkpt><trkpt lat="44.28486068821314" lon="11.172406059347503"><ele>491.0</ele><time>2026-05-02T16:29:11Z</time></trkpt><trkpt lat="44.284889280318495" lon="11.172270200782764"><ele>491.0</ele><time>2026-05-02T16:29:12Z</time></trkpt><trkpt lat="44.28490245078295" lon="11.172135779115054"><ele>489.8</ele><time>2026-05-02T16:29:13Z</time></trkpt><trkpt lat="44.284924740422866" lon="11.171993811679028"><ele>488.6</ele><time>2026-05-02T16:29:14Z</time></trkpt><trkpt lat="44.28494679717276" lon="11.171842912720054"><ele>487.4</ele><time>2026-05-02T16:29:15Z</time></trkpt><trkpt lat="44.28494728414009" lon="11.171692088059443"><ele>486.2</ele><time>2026-05-02T16:29:16Z</time></trkpt><trkpt lat="44.284955604584525" lon="11.171541001369928"><ele>485.0</ele><time>2026-05-02T16:29:17Z</time></trkpt><trkpt lat="44.28495397890283" lon="11.171388280094462"><ele>484.8</ele><time>2026-05-02T16:29:18Z</time></trkpt><trkpt lat="44.284948846800916" lon="11.171238446256854"><ele>484.6</ele><time>2026-05-02T16:29:19Z</time></trkpt><trkpt lat="44.28494026697425" lon="11.171105965796016"><ele>484.4</ele><time>2026-05-02T16:29:20Z</time></trkpt><trkpt lat="44.28494791283481" lon="11.170987163596363"><ele>484.2</ele><time>2026-05-02T16:29:21Z</time></trkpt><trkpt lat="44.28493540387183" lon="11.170860755216028"><ele>484.0</ele><time>2026-05-02T16:29:22Z</time></trkpt><trkpt lat="44.28491913615818" lon="11.170731120517944"><ele>486.6</ele><time>2026-05-02T16:29:23Z</time></trkpt><trkpt lat="44.2849019938885" lon="11.170594221274449"><ele>489.2</ele><time>2026-05-02T16:29:24Z</time></trkpt><trkpt lat="44.28487278908001" lon="11.17047307284109"><ele>491.80000000000007</ele><time>2026-05-02T16:29:25Z</time></trkpt><trkpt lat="44.28484397171598" lon="11.170352428525444"><ele>494.40000000000003</ele><time>2026-05-02T16:29:26Z</time></trkpt><trkpt lat="44.28481503444603" lon="11.17023572971991"><ele>497.0</ele><time>2026-05-02T16:29:27Z</time></trkpt><trkpt lat="44.28476666640544" lon="11.170128572159182"><ele>493.8</ele><time>2026-05-02T16:29:28Z</time></trkpt><trkpt lat="44.28470524994751" lon="11.17004363146189"><ele>490.6</ele><time>2026-05-02T16:29:29Z</time></trkpt><trkpt lat="44.28462194669879" lon="11.169967162161301"><ele>487.40000000000003</ele><time>2026-05-02T16:29:30Z</time></trkpt><trkpt lat="44.284529966591855" lon="11.169907969687946"><ele>484.20000000000005</ele><time>2026-05-02T16:29:31Z</time></trkpt><trkpt lat="44.28443779864716" lon="11.169870678352426"><ele>481.0</ele><time>2026-05-02T16:29:32Z</time></trkpt><trkpt lat="44.28433055710017" lon="11.169830037408854"><ele>487.6</ele><time>2026-05-02T16:29:33Z</time></trkpt><trkpt lat="44.28423596766942" lon="11.169780460654026"><ele>494.20000000000005</ele><time>2026-05-02T16:29:34Z</time></trkpt><trkpt lat="44.28413926565857" lon="11.169744668543634"><ele>500.79999999999995</ele><time>2026-05-02T16:29:35Z</time></trkpt><trkpt lat="44.284042885995405" lon="11.169712401486528"><ele>507.4</ele><time>2026-05-02T16:29:36Z</time></trkpt><trkpt lat="44.28394199279107" lon="11.169703723407958"><ele>514.0</ele><time>2026-05-02T16:29:37Z</time></trkpt><trkpt lat="44.28384346584465" lon="11.169708579867772"><ele>516.4</ele><time>2026-05-02T16:29:38Z</time></trkpt><trkpt lat="44.2837463360516" lon="11.169692785754181"><ele>518.8</ele><time>2026-05-02T16:29:39Z</time></trkpt><trkpt lat="44.28365241739902" lon="11.169680801604487"><ele>521.2</ele><time>2026-05-02T16:29:40Z</time></trkpt><trkpt lat="44.28354681406655" lon="11.16970407232858"><ele>523.6</ele><time>2026-05-02T16:29:41Z</time></trkpt><trkpt lat="44.2834657700851" lon="11.16976245753832"><ele>526.0</ele><time>2026-05-02T16:29:42Z</time></trkpt><trkpt lat="44.28339855970888" lon="11.169817853459866"><ele>527.1666666666667</ele><time>2026-05-02T16:29:43Z</time></trkpt><trkpt lat="44.283352734240395" lon="11.169913118154168"><ele>528.3333333333334</ele><time>2026-05-02T16:29:44Z</time></trkpt><trkpt lat="44.28330696514698" lon="11.17002284031849"><ele>529.5</ele><time>2026-05-02T16:29:45Z</time></trkpt><trkpt lat="44.28325415872211" lon="11.170082614454703"><ele>530.6666666666666</ele><time>2026-05-02T16:29:46Z</time></trkpt><trkpt lat="44.283191766727626" lon="11.170126530844861"><ele>531.8333333333333</ele><time>2026-05-02T16:29:47Z</time></trkpt><trkpt lat="44.28312338518235" lon="11.17016155677589"><ele>533.0</ele><time>2026-05-02T16:29:48Z</time></trkpt><trkpt lat="44.282999359011086" lon="11.170222033874397"><ele>533.0</ele><time>2026-05-02T16:29:50Z</time></trkpt><trkpt lat="44.28292478489514" lon="11.170236671389635"><ele>533.0</ele><time>2026-05-02T16:29:51Z</time></trkpt><trkpt lat="44.28285110136429" lon="11.170206224161099"><ele>533.0</ele><time>2026-05-02T16:29:52Z</time></trkpt><trkpt lat="44.28277292797947" lon="11.170210379595325"><ele>533.0</ele><time>2026-05-02T16:29:53Z</time></trkpt><trkpt lat="44.28269506201629" lon="11.170239794116254"><ele>533.0</ele><time>2026-05-02T16:29:54Z</time></trkpt><trkpt lat="44.28263548344143" lon="11.1703197819278"><ele>533.0</ele><time>2026-05-02T16:29:55Z</time></trkpt><trkpt lat="44.28260283324581" lon="11.17045318834185"><ele>533.0</ele><time>2026-05-02T16:29:56Z</time></trkpt><trkpt lat="44.282570175390475" lon="11.170536210933228"><ele>533.0</ele><time>2026-05-02T16:29:57Z</time></trkpt><trkpt lat="44.28250814857212" lon="11.17063403160037"><ele>533.0</ele><time>2026-05-02T16:29:58Z</time></trkpt><trkpt lat="44.2824375517398" lon="11.17068601488662"><ele>533.0</ele><time>2026-05-02T16:29:59Z</time></trkpt><trkpt lat="44.28236784261024" lon="11.170709019071122"><ele>533.0</ele><time>2026-05-02T16:30:00Z</time></trkpt><trkpt lat="44.28228998940406" lon="11.170754379202657"><ele>533.0</ele><time>2026-05-02T16:30:01Z</time></trkpt><trkpt lat="44.282216962657905" lon="11.170839857048103"><ele>530.8</ele><time>2026-05-02T16:30:02Z</time></trkpt><trkpt lat="44.28214921192212" lon="11.170918654446373"><ele>528.5999999999999</ele><time>2026-05-02T16:30:03Z</time></trkpt><trkpt lat="44.28208083416696" lon="11.170973067766008"><ele>526.4000000000001</ele><time>2026-05-02T16:30:04Z</time></trkpt><trkpt lat="44.28194691344675" lon="11.170991679800597"><ele>524.2</ele><time>2026-05-02T16:30:06Z</time></trkpt><trkpt lat="44.28187968890779" lon="11.170955000800886"><ele>522.0</ele><time>2026-05-02T16:30:07Z</time></trkpt><trkpt lat="44.2818089105348" lon="11.170905542006812"><ele>522.0</ele><time>2026-05-02T16:30:08Z</time></trkpt><trkpt lat="44.281740440071374" lon="11.170884458314367"><ele>522.0</ele><time>2026-05-02T16:30:09Z</time></trkpt><trkpt lat="44.28167548586114" lon="11.170865994459497"><ele>522.0</ele><time>2026-05-02T16:30:10Z</time></trkpt><trkpt lat="44.28159845811659" lon="11.170906764142044"><ele>522.0</ele><time>2026-05-02T16:30:11.001Z</time></trkpt><trkpt lat="44.281530212116934" lon="11.170973749986306"><ele>522.0</ele><time>2026-05-02T16:30:12.001Z</time></trkpt><trkpt lat="44.281468972921694" lon="11.171074341211959"><ele>522.0</ele><time>2026-05-02T16:30:13.001Z</time></trkpt><trkpt lat="44.281417875451446" lon="11.17114319137369"><ele>525.4</ele><time>2026-05-02T16:30:14.001Z</time></trkpt><trkpt lat="44.28133050744137" lon="11.171249972098003"><ele>528.8000000000001</ele><time>2026-05-02T16:30:16.001Z</time></trkpt><trkpt lat="44.281248415747804" lon="11.171271571657927"><ele>532.2</ele><time>2026-05-02T16:30:17.001Z</time></trkpt><trkpt lat="44.28116089632866" lon="11.171259647818044"><ele>535.6</ele><time>2026-05-02T16:30:18.001Z</time></trkpt><trkpt lat="44.281067697695946" lon="11.171290155054837"><ele>539.0</ele><time>2026-05-02T16:30:19.001Z</time></trkpt><trkpt lat="44.280970322087484" lon="11.171311233699317"><ele>539.0</ele><time>2026-05-02T16:30:20.001Z</time></trkpt><trkpt lat="44.280883484314245" lon="11.17129030793447"><ele>539.0</ele><time>2026-05-02T16:30:21.001Z</time></trkpt><trkpt lat="44.280779720925494" lon="11.171284210120355"><ele>539.0</ele><time>2026-05-02T16:30:22.001Z</time></trkpt><trkpt lat="44.280677043588135" lon="11.171303567364738"><ele>539.0</ele><time>2026-05-02T16:30:23.001Z</time></trkpt><trkpt lat="44.28058216579853" lon="11.171278347555928"><ele>539.0</ele><time>2026-05-02T16:30:24.001Z</time></trkpt><trkpt lat="44.28050000038744" lon="11.1712600738124"><ele>538.8333333333333</ele><time>2026-05-02T16:30:25.001Z</time></trkpt><trkpt lat="44.28042529035236" lon="11.171231672402635"><ele>538.6666666666666</ele><time>2026-05-02T16:30:26.001Z</time></trkpt><trkpt lat="44.280349447801385" lon="11.171209733836518"><ele>538.5</ele><time>2026-05-02T16:30:27.001Z</time></trkpt><trkpt lat="44.280269214127124" lon="11.171210224317354"><ele>538.3333333333334</ele><time>2026-05-02T16:30:28.001Z</time></trkpt><trkpt lat="44.28018945280741" lon="11.171216478010095"><ele>538.1666666666667</ele><time>2026-05-02T16:30:29.001Z</time></trkpt><trkpt lat="44.28012334704845" lon="11.171245346569671"><ele>538.0</ele><time>2026-05-02T16:30:30.001Z</time></trkpt><trkpt lat="44.28004893313585" lon="11.17122196880592"><ele>538.0</ele><time>2026-05-02T16:30:31.001Z</time></trkpt><trkpt lat="44.27997192201827" lon="11.17123543417311"><ele>538.0</ele><time>2026-05-02T16:30:32.001Z</time></trkpt><trkpt lat="44.27989410464302" lon="11.171250834845651"><ele>538.0</ele><time>2026-05-02T16:30:33.001Z</time></trkpt><trkpt lat="44.27982045665269" lon="11.171243454147627"><ele>538.0</ele><time>2026-05-02T16:30:34.001Z</time></trkpt><trkpt lat="44.279743393094506" lon="11.171237971029882"><ele>538.0</ele><time>2026-05-02T16:30:35.001Z</time></trkpt><trkpt lat="44.279672160336034" lon="11.171257835569824"><ele>538.0</ele><time>2026-05-02T16:30:36.001Z</time></trkpt><trkpt lat="44.27959610460459" lon="11.17129273793095"><ele>535.1999999999999</ele><time>2026-05-02T16:30:37.001Z</time></trkpt><trkpt lat="44.27953620998445" lon="11.17136834226176"><ele>532.4</ele><time>2026-05-02T16:30:38.001Z</time></trkpt><trkpt lat="44.279492909080005" lon="11.171472328456796"><ele>529.5999999999999</ele><time>2026-05-02T16:30:39.001Z</time></trkpt><trkpt lat="44.27945673999213" lon="11.171606787168997"><ele>526.8</ele><time>2026-05-02T16:30:40.001Z</time></trkpt><trkpt lat="44.27945325116089" lon="11.171746020537668"><ele>524.0</ele><time>2026-05-02T16:30:41.001Z</time></trkpt><trkpt lat="44.279458089420864" lon="11.171879439706444"><ele>522.4</ele><time>2026-05-02T16:30:42.001Z</time></trkpt><trkpt lat="44.27948320783796" lon="11.172009412287293"><ele>520.8</ele><time>2026-05-02T16:30:43.001Z</time></trkpt><trkpt lat="44.27950235049835" lon="11.172133834885386"><ele>519.2</ele><time>2026-05-02T16:30:44.001Z</time></trkpt><trkpt lat="44.27950985080143" lon="11.172270824938705"><ele>517.6</ele><time>2026-05-02T16:30:45Z</time></trkpt><trkpt lat="44.279527280607596" lon="11.172390773895675"><ele>516.0</ele><time>2026-05-02T16:30:46Z</time></trkpt><trkpt lat="44.27952291496181" lon="11.172552352226118"><ele>515.3333333333334</ele><time>2026-05-02T16:30:48Z</time></trkpt><trkpt lat="44.2794811539457" lon="11.17264263592106"><ele>514.6666666666666</ele><time>2026-05-02T16:30:49Z</time></trkpt><trkpt lat="44.27940517171412" lon="11.17267261643972"><ele>514.0</ele><time>2026-05-02T16:30:50Z</time></trkpt><trkpt lat="44.279334757719816" lon="11.172712358250545"><ele>513.3333333333333</ele><time>2026-05-02T16:30:51Z</time></trkpt><trkpt lat="44.27924679725924" lon="11.172778059544461"><ele>512.6666666666666</ele><time>2026-05-02T16:30:52Z</time></trkpt><trkpt lat="44.279172762127196" lon="11.17285861519293"><ele>512.0</ele><time>2026-05-02T16:30:53Z</time></trkpt><trkpt lat="44.27908351941347" lon="11.17292443166838"><ele>512.0</ele><time>2026-05-02T16:30:54Z</time></trkpt><trkpt lat="44.279012399124206" lon="11.17296576855485"><ele>511.99999999999994</ele><time>2026-05-02T16:30:55Z</time></trkpt><trkpt lat="44.27894790339526" lon="11.17301357869224"><ele>512.0</ele><time>2026-05-02T16:30:56Z</time></trkpt><trkpt lat="44.278883498915825" lon="11.17304099344484"><ele>512.0</ele><time>2026-05-02T16:30:57Z</time></trkpt><trkpt lat="44.278808777820565" lon="11.173033972241338"><ele>511.99999999999994</ele><time>2026-05-02T16:30:58Z</time></trkpt><trkpt lat="44.27873914863047" lon="11.17305424756952"><ele>512.0</ele><time>2026-05-02T16:30:59Z</time></trkpt><trkpt lat="44.27865497584395" lon="11.173052665089918"><ele>512.0</ele><time>2026-05-02T16:31:00Z</time></trkpt><trkpt lat="44.278571068603796" lon="11.173046130000795"><ele>508.6</ele><time>2026-05-02T16:31:01Z</time></trkpt><trkpt lat="44.27847837316931" lon="11.173019406289283"><ele>505.20000000000005</ele><time>2026-05-02T16:31:02Z</time></trkpt><trkpt lat="44.27837283537202" lon="11.173011959637073"><ele>501.8</ele><time>2026-05-02T16:31:03Z</time></trkpt><trkpt lat="44.27830451013724" lon="11.173010826120102"><ele>498.4</ele><time>2026-05-02T16:31:04Z</time></trkpt><trkpt lat="44.27816678542111" lon="11.17302281377566"><ele>495.0</ele><time>2026-05-02T16:31:06Z</time></trkpt><trkpt lat="44.278087497257" lon="11.173040561803914"><ele>494.0</ele><time>2026-05-02T16:31:07Z</time></trkpt><trkpt lat="44.27798819112991" lon="11.173067735125624"><ele>493.0</ele><time>2026-05-02T16:31:08Z</time></trkpt><trkpt lat="44.277909952816984" lon="11.173115729467487"><ele>492.0</ele><time>2026-05-02T16:31:09Z</time></trkpt><trkpt lat="44.27783293855177" lon="11.173121184178113"><ele>491.0</ele><time>2026-05-02T16:31:10Z</time></trkpt><trkpt lat="44.27776200424623" lon="11.173149033989489"><ele>490.0</ele><time>2026-05-02T16:31:11Z</time></trkpt><trkpt lat="44.27767806637269" lon="11.173188523513598"><ele>489.0</ele><time>2026-05-02T16:31:13Z</time></trkpt><trkpt lat="44.27758084118474" lon="11.173200454752513"><ele>489.0</ele><time>2026-05-02T16:31:15Z</time></trkpt><trkpt lat="44.27751458762504" lon="11.173204913904137"><ele>489.0</ele><time>2026-05-02T16:31:17Z</time></trkpt><trkpt lat="44.277415997438744" lon="11.173227043655803"><ele>489.0</ele><time>2026-05-02T16:31:19Z</time></trkpt><trkpt lat="44.27735290412774" lon="11.173257696042258"><ele>489.0</ele><time>2026-05-02T16:31:20Z</time></trkpt><trkpt lat="44.27721923401005" lon="11.173329078280874"><ele>489.0</ele><time>2026-05-02T16:31:22Z</time></trkpt><trkpt lat="44.27714449748301" lon="11.17337364521418"><ele>485.4</ele><time>2026-05-02T16:31:23Z</time></trkpt><trkpt lat="44.27706744564644" lon="11.173422630566945"><ele>481.79999999999995</ele><time>2026-05-02T16:31:24Z</time></trkpt><trkpt lat="44.276993943775246" lon="11.173471543568931"><ele>478.20000000000005</ele><time>2026-05-02T16:31:25Z</time></trkpt><trkpt lat="44.27689555268928" lon="11.173529063530836"><ele>474.6</ele><time>2026-05-02T16:31:26Z</time></trkpt><trkpt lat="44.27680439784515" lon="11.173559339127824"><ele>471.0</ele><time>2026-05-02T16:31:27Z</time></trkpt><trkpt lat="44.276707091158485" lon="11.173587761681688"><ele>471.0</ele><time>2026-05-02T16:31:28Z</time></trkpt><trkpt lat="44.27660460594101" lon="11.173631977225554"><ele>471.0</ele><time>2026-05-02T16:31:29Z</time></trkpt><trkpt lat="44.27649865485387" lon="11.1736731142477"><ele>471.0</ele><time>2026-05-02T16:31:30Z</time></trkpt><trkpt lat="44.27639354138029" lon="11.173711055087017"><ele>471.0</ele><time>2026-05-02T16:31:31Z</time></trkpt><trkpt lat="44.27629401412435" lon="11.173759502313443"><ele>471.0</ele><time>2026-05-02T16:31:32.001Z</time></trkpt><trkpt lat="44.27620066156029" lon="11.173808023785245"><ele>471.1666666666667</ele><time>2026-05-02T16:31:33.001Z</time></trkpt><trkpt lat="44.27610485647552" lon="11.173837688367739"><ele>471.33333333333337</ele><time>2026-05-02T16:31:34.001Z</time></trkpt><trkpt lat="44.276014905538204" lon="11.17389519939169"><ele>471.5</ele><time>2026-05-02T16:31:35.001Z</time></trkpt><trkpt lat="44.27593983501915" lon="11.17394883884287"><ele>471.6666666666667</ele><time>2026-05-02T16:31:36.001Z</time></trkpt><trkpt lat="44.27587706489767" lon="11.17398653324491"><ele>471.83333333333337</ele><time>2026-05-02T16:31:37.001Z</time></trkpt><trkpt lat="44.27580665658573" lon="11.174025808151244"><ele>472.0</ele><time>2026-05-02T16:31:38.001Z</time></trkpt><trkpt lat="44.27573809119065" lon="11.174059070152671"><ele>472.00000000000006</ele><time>2026-05-02T16:31:39.001Z</time></trkpt><trkpt lat="44.27561860025313" lon="11.174105383103724"><ele>472.0</ele><time>2026-05-02T16:31:41.001Z</time></trkpt><trkpt lat="44.27555738922268" lon="11.17414287455186"><ele>472.0</ele><time>2026-05-02T16:31:42.001Z</time></trkpt><trkpt lat="44.275491860146516" lon="11.174206893082061"><ele>472.0</ele><time>2026-05-02T16:31:43.001Z</time></trkpt><trkpt lat="44.27543797776558" lon="11.174280366015529"><ele>472.00000000000006</ele><time>2026-05-02T16:31:44.001Z</time></trkpt><trkpt lat="44.27536880690009" lon="11.174315926953165"><ele>472.0</ele><time>2026-05-02T16:31:45.001Z</time></trkpt><trkpt lat="44.275273297384274" lon="11.174417487587641"><ele>468.20000000000005</ele><time>2026-05-02T16:31:47.001Z</time></trkpt><trkpt lat="44.27521550348866" lon="11.174473595776785"><ele>464.40000000000003</ele><time>2026-05-02T16:31:48.001Z</time></trkpt><trkpt lat="44.275141706499454" lon="11.17454524055208"><ele>460.59999999999997</ele><time>2026-05-02T16:31:49.001Z</time></trkpt><trkpt lat="44.275038955520856" lon="11.174639372280895"><ele>456.79999999999995</ele><time>2026-05-02T16:31:50.001Z</time></trkpt><trkpt lat="44.27494749544447" lon="11.174758237725703"><ele>453.0</ele><time>2026-05-02T16:31:51.001Z</time></trkpt><trkpt lat="44.27486575137433" lon="11.174829438384963"><ele>451.6666666666667</ele><time>2026-05-02T16:31:52.001Z</time></trkpt><trkpt lat="44.27479288207798" lon="11.174894285675263"><ele>450.33333333333337</ele><time>2026-05-02T16:31:53.001Z</time></trkpt><trkpt lat="44.274742806276144" lon="11.174974050960166"><ele>449.0</ele><time>2026-05-02T16:31:54.001Z</time></trkpt><trkpt lat="44.27470561592761" lon="11.175068465342713"><ele>447.6666666666667</ele><time>2026-05-02T16:31:55.001Z</time></trkpt><trkpt lat="44.27469136012662" lon="11.175173738664782"><ele>446.33333333333337</ele><time>2026-05-02T16:31:56.001Z</time></trkpt><trkpt lat="44.27469752696586" lon="11.17528747816058"><ele>445.0</ele><time>2026-05-02T16:31:57.001Z</time></trkpt><trkpt lat="44.27470874253063" lon="11.175407573727721"><ele>445.00000000000006</ele><time>2026-05-02T16:31:58.001Z</time></trkpt><trkpt lat="44.27471791016209" lon="11.17550206437421"><ele>445.0</ele><time>2026-05-02T16:31:59.001Z</time></trkpt><trkpt lat="44.274746972849236" lon="11.175598421937236"><ele>445.0</ele><time>2026-05-02T16:32:00.001Z</time></trkpt><trkpt lat="44.27479616601304" lon="11.175686817093966"><ele>445.0</ele><time>2026-05-02T16:32:01.001Z</time></trkpt><trkpt lat="44.274855938520105" lon="11.175784859898057"><ele>445.00000000000006</ele><time>2026-05-02T16:32:02.001Z</time></trkpt><trkpt lat="44.274907886092926" lon="11.175895222908476"><ele>445.0</ele><time>2026-05-02T16:32:03.001Z</time></trkpt><trkpt lat="44.27495956195824" lon="11.176018801832921"><ele>446.4</ele><time>2026-05-02T16:32:04.001Z</time></trkpt><trkpt lat="44.275010195235886" lon="11.176141727517056"><ele>447.8</ele><time>2026-05-02T16:32:05.001Z</time></trkpt><trkpt lat="44.27507507724275" lon="11.176256153345099"><ele>449.20000000000005</ele><time>2026-05-02T16:32:06.001Z</time></trkpt><trkpt lat="44.275133013670576" lon="11.176379346225623"><ele>450.6</ele><time>2026-05-02T16:32:07.001Z</time></trkpt><trkpt lat="44.27515904084874" lon="11.176507382565024"><ele>452.0</ele><time>2026-05-02T16:32:08.001Z</time></trkpt><trkpt lat="44.2751766350766" lon="11.17663440549275"><ele>452.0</ele><time>2026-05-02T16:32:09.001Z</time></trkpt><trkpt lat="44.27522111477437" lon="11.176760801768067"><ele>452.00000000000006</ele><time>2026-05-02T16:32:10.001Z</time></trkpt><trkpt lat="44.275302550268826" lon="11.176851706653228"><ele>452.00000000000006</ele><time>2026-05-02T16:32:11.001Z</time></trkpt><trkpt lat="44.27537705705297" lon="11.176940276502474"><ele>452.0</ele><time>2026-05-02T16:32:12.001Z</time></trkpt><trkpt lat="44.275450819215415" lon="11.177015527450866"><ele>452.0</ele><time>2026-05-02T16:32:13.001Z</time></trkpt><trkpt lat="44.27549463329976" lon="11.177135110013902"><ele>452.0</ele><time>2026-05-02T16:32:14.001Z</time></trkpt><trkpt lat="44.275518367099096" lon="11.177224943096524"><ele>452.00000000000006</ele><time>2026-05-02T16:32:15.001Z</time></trkpt><trkpt lat="44.27554697834715" lon="11.177404751005055"><ele>452.00000000000006</ele><time>2026-05-02T16:32:17.001Z</time></trkpt><trkpt lat="44.27557380349139" lon="11.17752231478647"><ele>452.0</ele><time>2026-05-02T16:32:18.001Z</time></trkpt><trkpt lat="44.27561723645579" lon="11.177645349217995"><ele>452.0</ele><time>2026-05-02T16:32:19.001Z</time></trkpt><trkpt lat="44.27567376103678" lon="11.177769149236115"><ele>455.0</ele><time>2026-05-02T16:32:20.001Z</time></trkpt><trkpt lat="44.2757414895892" lon="11.177878189974402"><ele>458.00000000000006</ele><time>2026-05-02T16:32:21.001Z</time></trkpt><trkpt lat="44.27578118198956" lon="11.1780071784458"><ele>461.00000000000006</ele><time>2026-05-02T16:32:22.001Z</time></trkpt><trkpt lat="44.2758337935586" lon="11.178114038175815"><ele>464.0</ele><time>2026-05-02T16:32:23.001Z</time></trkpt><trkpt lat="44.27587797886614" lon="11.178225721418048"><ele>467.0</ele><time>2026-05-02T16:32:24.001Z</time></trkpt><trkpt lat="44.2759253484365" lon="11.178334809050975"><ele>467.0</ele><time>2026-05-02T16:32:25.001Z</time></trkpt><trkpt lat="44.27597621556268" lon="11.178447091788245"><ele>467.00000000000006</ele><time>2026-05-02T16:32:26.001Z</time></trkpt><trkpt lat="44.276034928886816" lon="11.17854742400766"><ele>467.00000000000006</ele><time>2026-05-02T16:32:27.001Z</time></trkpt><trkpt lat="44.276120695018555" lon="11.178624986566891"><ele>467.0</ele><time>2026-05-02T16:32:28.001Z</time></trkpt><trkpt lat="44.27621651249473" lon="11.178670070906819"><ele>467.0</ele><time>2026-05-02T16:32:29.001Z</time></trkpt><trkpt lat="44.27630550410253" lon="11.178704279656067"><ele>467.0</ele><time>2026-05-02T16:32:30.001Z</time></trkpt><trkpt lat="44.2763877545855" lon="11.178746311261655"><ele>467.00000000000006</ele><time>2026-05-02T16:32:31.001Z</time></trkpt><trkpt lat="44.27647531734712" lon="11.17880749289483"><ele>467.00000000000006</ele><time>2026-05-02T16:32:32.001Z</time></trkpt><trkpt lat="44.276552792816474" lon="11.178898774998896"><ele>467.0</ele><time>2026-05-02T16:32:33.001Z</time></trkpt><trkpt lat="44.276633384814986" lon="11.178992913280487"><ele>467.0</ele><time>2026-05-02T16:32:34.001Z</time></trkpt><trkpt lat="44.27671384108363" lon="11.179074570686799"><ele>467.8333333333333</ele><time>2026-05-02T16:32:35.001Z</time></trkpt><trkpt lat="44.276791295170966" lon="11.179109175640148"><ele>468.66666666666663</ele><time>2026-05-02T16:32:36.001Z</time></trkpt><trkpt lat="44.27687544164562" lon="11.179107827117562"><ele>469.5</ele><time>2026-05-02T16:32:37.001Z</time></trkpt><trkpt lat="44.2769579806155" lon="11.17911558363916"><ele>470.33333333333337</ele><time>2026-05-02T16:32:38.001Z</time></trkpt><trkpt lat="44.27703176734746" lon="11.179146762627282"><ele>471.1666666666667</ele><time>2026-05-02T16:32:39.001Z</time></trkpt><trkpt lat="44.2770966540676" lon="11.179203849040785"><ele>472.0</ele><time>2026-05-02T16:32:40.001Z</time></trkpt><trkpt lat="44.27716005534794" lon="11.179299298473309"><ele>472.00000000000006</ele><time>2026-05-02T16:32:41.001Z</time></trkpt><trkpt lat="44.27722638478258" lon="11.179383693330639"><ele>472.0</ele><time>2026-05-02T16:32:42.002Z</time></trkpt><trkpt lat="44.277279786292816" lon="11.17947861978716"><ele>472.0</ele><time>2026-05-02T16:32:43.002Z</time></trkpt><trkpt lat="44.27728017791897" lon="11.17959310669587"><ele>472.0</ele><time>2026-05-02T16:32:44.002Z</time></trkpt><trkpt lat="44.27725289500534" lon="11.179695696299158"><ele>472.00000000000006</ele><time>2026-05-02T16:32:45.002Z</time></trkpt><trkpt lat="44.27719579321662" lon="11.179783033254488"><ele>472.0</ele><time>2026-05-02T16:32:46.002Z</time></trkpt><trkpt lat="44.27715002693822" lon="11.179893109725809"><ele>472.8</ele><time>2026-05-02T16:32:47.002Z</time></trkpt><trkpt lat="44.27712583967891" lon="11.180038881226633"><ele>473.6</ele><time>2026-05-02T16:32:48.002Z</time></trkpt><trkpt lat="44.27713271533745" lon="11.180179150216862"><ele>474.40000000000003</ele><time>2026-05-02T16:32:49.002Z</time></trkpt><trkpt lat="44.27713855212644" lon="11.180312253845596"><ele>475.20000000000005</ele><time>2026-05-02T16:32:50.001Z</time></trkpt><trkpt lat="44.27711687784534" lon="11.18044491021132"><ele>476.0</ele><time>2026-05-02T16:32:51Z</time></trkpt><trkpt lat="44.277109287590136" lon="11.180560876614996"><ele>475.99999999999994</ele><time>2026-05-02T16:32:52Z</time></trkpt><trkpt lat="44.277098617890026" lon="11.18066314867635"><ele>476.0</ele><time>2026-05-02T16:32:53.001Z</time></trkpt><trkpt lat="44.27710402568298" lon="11.180761026718972"><ele>476.0</ele><time>2026-05-02T16:32:54.001Z</time></trkpt><trkpt lat="44.277179095409906" lon="11.1809025295755"><ele>476.0</ele><time>2026-05-02T16:32:56.001Z</time></trkpt><trkpt lat="44.27724383127366" lon="11.180960803614733"><ele>475.99999999999994</ele><time>2026-05-02T16:32:57Z</time></trkpt><trkpt lat="44.27732021590468" lon="11.18101352278073"><ele>476.0</ele><time>2026-05-02T16:32:58Z</time></trkpt><trkpt lat="44.2774058290226" lon="11.181061011424502"><ele>472.4</ele><time>2026-05-02T16:32:59.001Z</time></trkpt><trkpt lat="44.27749976064053" lon="11.181115688111541"><ele>468.8</ele><time>2026-05-02T16:33:00Z</time></trkpt><trkpt lat="44.277612610133865" lon="11.181165150260641"><ele>465.19999999999993</ele><time>2026-05-02T16:33:01Z</time></trkpt><trkpt lat="44.27770347147805" lon="11.181199060303737"><ele>461.59999999999997</ele><time>2026-05-02T16:33:02.001Z</time></trkpt><trkpt lat="44.27779648663991" lon="11.181224874448562"><ele>458.0</ele><time>2026-05-02T16:33:03.001Z</time></trkpt><trkpt lat="44.27787714017821" lon="11.181285850240895"><ele>458.0</ele><time>2026-05-02T16:33:04.001Z</time></trkpt><trkpt lat="44.277946023939485" lon="11.181367285947879"><ele>457.99999999999994</ele><time>2026-05-02T16:33:05.001Z</time></trkpt><trkpt lat="44.27802222411594" lon="11.181433269057155"><ele>457.99999999999994</ele><time>2026-05-02T16:33:06.001Z</time></trkpt><trkpt lat="44.27809997334485" lon="11.181509678304138"><ele>458.0</ele><time>2026-05-02T16:33:07.001Z</time></trkpt><trkpt lat="44.27817961313027" lon="11.181595656859237"><ele>458.0</ele><time>2026-05-02T16:33:08.001Z</time></trkpt><trkpt lat="44.278249837593386" lon="11.181693301448131"><ele>457.16666666666663</ele><time>2026-05-02T16:33:09.001Z</time></trkpt><trkpt lat="44.27831530999665" lon="11.18179401699424"><ele>456.3333333333333</ele><time>2026-05-02T16:33:10.001Z</time></trkpt><trkpt lat="44.27836856809535" lon="11.181893585890752"><ele>455.5</ele><time>2026-05-02T16:33:11.001Z</time></trkpt><trkpt lat="44.27841490055014" lon="11.181985154215127"><ele>454.66666666666663</ele><time>2026-05-02T16:33:12.001Z</time></trkpt><trkpt lat="44.278445800374215" lon="11.18208602308762"><ele>453.8333333333333</ele><time>2026-05-02T16:33:13.001Z</time></trkpt><trkpt lat="44.27845684293861" lon="11.182189474985416"><ele>453.0</ele><time>2026-05-02T16:33:14.001Z</time></trkpt><trkpt lat="44.278458118193385" lon="11.18229879136599"><ele>451.6666666666667</ele><time>2026-05-02T16:33:15.001Z</time></trkpt><trkpt lat="44.2784479540616" lon="11.182427801690988"><ele>450.33333333333337</ele><time>2026-05-02T16:33:16.001Z</time></trkpt><trkpt lat="44.278442987660725" lon="11.182551718292132"><ele>449.0</ele><time>2026-05-02T16:33:17.001Z</time></trkpt><trkpt lat="44.27838601434659" lon="11.18263279432829"><ele>447.6666666666667</ele><time>2026-05-02T16:33:18.001Z</time></trkpt><trkpt lat="44.27834514030875" lon="11.182734926026829"><ele>446.33333333333337</ele><time>2026-05-02T16:33:19.001Z</time></trkpt><trkpt lat="44.27831566589777" lon="11.182830202072747"><ele>445.0</ele><time>2026-05-02T16:33:20.001Z</time></trkpt><trkpt lat="44.278288960567096" lon="11.182917257554863"><ele>445.00000000000006</ele><time>2026-05-02T16:33:21.001Z</time></trkpt><trkpt lat="44.278217123567856" lon="11.183050832002992"><ele>445.0</ele><time>2026-05-02T16:33:23.001Z</time></trkpt><trkpt lat="44.27815717974778" lon="11.18308200680359"><ele>445.0</ele><time>2026-05-02T16:33:24.001Z</time></trkpt><trkpt lat="44.27809225083563" lon="11.183106748503972"><ele>445.0</ele><time>2026-05-02T16:33:25.001Z</time></trkpt><trkpt lat="44.27803260466916" lon="11.183148303847231"><ele>445.00000000000006</ele><time>2026-05-02T16:33:26.001Z</time></trkpt><trkpt lat="44.277963935998116" lon="11.183230936845158"><ele>445.0</ele><time>2026-05-02T16:33:27.001Z</time></trkpt><trkpt lat="44.27790937175058" lon="11.18331705036542"><ele>441.83333333333337</ele><time>2026-05-02T16:33:28.001Z</time></trkpt><trkpt lat="44.27783295293615" lon="11.18339070212684"><ele>438.6666666666667</ele><time>2026-05-02T16:33:29.001Z</time></trkpt><trkpt lat="44.27775964871039" lon="11.183454019346593"><ele>435.5</ele><time>2026-05-02T16:33:30.001Z</time></trkpt><trkpt lat="44.27768287547524" lon="11.183463338952478"><ele>432.33333333333337</ele><time>2026-05-02T16:33:31.001Z</time></trkpt><trkpt lat="44.27761523491399" lon="11.183482805260828"><ele>429.1666666666667</ele><time>2026-05-02T16:33:32.001Z</time></trkpt><trkpt lat="44.277552307665715" lon="11.183513973389676"><ele>426.0</ele><time>2026-05-02T16:33:33.001Z</time></trkpt><trkpt lat="44.27748551801999" lon="11.183563180524558"><ele>426.0</ele><time>2026-05-02T16:33:34.001Z</time></trkpt><trkpt lat="44.27743295128066" lon="11.183629426076529"><ele>426.0</ele><time>2026-05-02T16:33:35.001Z</time></trkpt><trkpt lat="44.27740876660722" lon="11.183744889733887"><ele>426.0</ele><time>2026-05-02T16:33:36.001Z</time></trkpt><trkpt lat="44.277436227282614" lon="11.183860331000947"><ele>426.0</ele><time>2026-05-02T16:33:37.001Z</time></trkpt><trkpt lat="44.27747809488839" lon="11.183941779834555"><ele>426.0</ele><time>2026-05-02T16:33:38.001Z</time></trkpt><trkpt lat="44.27753915980695" lon="11.183998135735711"><ele>426.0</ele><time>2026-05-02T16:33:39.001Z</time></trkpt><trkpt lat="44.27760513889121" lon="11.184079670744786"><ele>426.0</ele><time>2026-05-02T16:33:40.001Z</time></trkpt><trkpt lat="44.277660554291856" lon="11.184177494790621"><ele>426.0</ele><time>2026-05-02T16:33:41.001Z</time></trkpt><trkpt lat="44.27772264117371" lon="11.184269367267515"><ele>426.0</ele><time>2026-05-02T16:33:42.001Z</time></trkpt><trkpt lat="44.27777796113852" lon="11.184370824570944"><ele>426.0</ele><time>2026-05-02T16:33:43.001Z</time></trkpt><trkpt lat="44.277819833076585" lon="11.184464388262395"><ele>426.0</ele><time>2026-05-02T16:33:44.001Z</time></trkpt><trkpt lat="44.277851875503856" lon="11.184571623758437"><ele>426.0</ele><time>2026-05-02T16:33:45.001Z</time></trkpt><trkpt lat="44.277872106949744" lon="11.184683614831542"><ele>426.0</ele><time>2026-05-02T16:33:46.001Z</time></trkpt><trkpt lat="44.27785305864196" lon="11.184787774799121"><ele>426.0</ele><time>2026-05-02T16:33:47.001Z</time></trkpt><trkpt lat="44.27783056968922" lon="11.184910933691175"><ele>426.0</ele><time>2026-05-02T16:33:48.001Z</time></trkpt><trkpt lat="44.27779571959457" lon="11.185009109318788"><ele>426.0</ele><time>2026-05-02T16:33:49.001Z</time></trkpt><trkpt lat="44.27775972508568" lon="11.185101228210996"><ele>426.0</ele><time>2026-05-02T16:33:50.001Z</time></trkpt><trkpt lat="44.27771322704362" lon="11.18518865196467"><ele>426.0</ele><time>2026-05-02T16:33:51.001Z</time></trkpt><trkpt lat="44.27766310770385" lon="11.185277813213617"><ele>425.8333333333333</ele><time>2026-05-02T16:33:52.001Z</time></trkpt><trkpt lat="44.2775946231588" lon="11.18533583438244"><ele>425.66666666666663</ele><time>2026-05-02T16:33:53.001Z</time></trkpt><trkpt lat="44.27752512206058" lon="11.185399505475987"><ele>425.5</ele><time>2026-05-02T16:33:54.001Z</time></trkpt><trkpt lat="44.27746043048174" lon="11.185457612606628"><ele>425.3333333333333</ele><time>2026-05-02T16:33:55.001Z</time></trkpt><trkpt lat="44.277404416078" lon="11.185535948663562"><ele>425.16666666666663</ele><time>2026-05-02T16:33:56.001Z</time></trkpt><trkpt lat="44.27733997119295" lon="11.185609065505426"><ele>425.0</ele><time>2026-05-02T16:33:57.001Z</time></trkpt><trkpt lat="44.277282946142776" lon="11.18570048077275"><ele>421.66666666666663</ele><time>2026-05-02T16:33:58.001Z</time></trkpt><trkpt lat="44.27721781626216" lon="11.185774949349696"><ele>418.3333333333333</ele><time>2026-05-02T16:33:59.001Z</time></trkpt><trkpt lat="44.27713915958765" lon="11.185815527844067"><ele>415.0</ele><time>2026-05-02T16:34:00.001Z</time></trkpt><trkpt lat="44.27705625950973" lon="11.185837834430133"><ele>411.66666666666663</ele><time>2026-05-02T16:34:01.001Z</time></trkpt><trkpt lat="44.27696434703109" lon="11.18585658264464"><ele>408.3333333333333</ele><time>2026-05-02T16:34:02.001Z</time></trkpt><trkpt lat="44.27688101226267" lon="11.185899942603776"><ele>405.0</ele><time>2026-05-02T16:34:03.001Z</time></trkpt><trkpt lat="44.27681184245963" lon="11.185992979135552"><ele>405.0</ele><time>2026-05-02T16:34:04.001Z</time></trkpt><trkpt lat="44.27673223622496" lon="11.186073167618016"><ele>405.0</ele><time>2026-05-02T16:34:05.001Z</time></trkpt><trkpt lat="44.27665427993772" lon="11.18614639402483"><ele>405.0</ele><time>2026-05-02T16:34:06.001Z</time></trkpt><trkpt lat="44.276563341141085" lon="11.186180001812334"><ele>405.0</ele><time>2026-05-02T16:34:07.001Z</time></trkpt><trkpt lat="44.27648727901135" lon="11.186219590199771"><ele>405.0</ele><time>2026-05-02T16:34:08.001Z</time></trkpt><trkpt lat="44.27641699009754" lon="11.186237254111889"><ele>405.0</ele><time>2026-05-02T16:34:09.001Z</time></trkpt><trkpt lat="44.27633117004662" lon="11.186271930011216"><ele>404.8</ele><time>2026-05-02T16:34:10.001Z</time></trkpt><trkpt lat="44.27625321261696" lon="11.186323802711543"><ele>404.6</ele><time>2026-05-02T16:34:11.001Z</time></trkpt><trkpt lat="44.2761990996912" lon="11.186385836948478"><ele>404.4</ele><time>2026-05-02T16:34:12.001Z</time></trkpt><trkpt lat="44.27613657075796" lon="11.186490515121411"><ele>404.2</ele><time>2026-05-02T16:34:14.001Z</time></trkpt><trkpt lat="44.276100030883256" lon="11.186659343882955"><ele>404.0</ele><time>2026-05-02T16:34:16.001Z</time></trkpt><trkpt lat="44.27616206750365" lon="11.186768251203894"><ele>403.99999999999994</ele><time>2026-05-02T16:34:17.001Z</time></trkpt><trkpt lat="44.276209630594465" lon="11.186859265051734"><ele>404.0</ele><time>2026-05-02T16:34:18.001Z</time></trkpt><trkpt lat="44.27626693666295" lon="11.186955506198379"><ele>404.0</ele><time>2026-05-02T16:34:19.001Z</time></trkpt><trkpt lat="44.27631382715789" lon="11.187054511229507"><ele>404.0</ele><time>2026-05-02T16:34:20.001Z</time></trkpt><trkpt lat="44.2763423382618" lon="11.187170262067704"><ele>403.99999999999994</ele><time>2026-05-02T16:34:21.001Z</time></trkpt><trkpt lat="44.27637018339369" lon="11.187307506789116"><ele>404.0</ele><time>2026-05-02T16:34:22.001Z</time></trkpt><trkpt lat="44.27638182139093" lon="11.187438908874174"><ele>402.0</ele><time>2026-05-02T16:34:23.001Z</time></trkpt><trkpt lat="44.27638836725865" lon="11.187598677465212"><ele>400.0</ele><time>2026-05-02T16:34:24.001Z</time></trkpt><trkpt lat="44.276383759446006" lon="11.187742302794275"><ele>398.0</ele><time>2026-05-02T16:34:25.001Z</time></trkpt><trkpt lat="44.27637179315497" lon="11.187850674448077"><ele>396.0</ele><time>2026-05-02T16:34:26.001Z</time></trkpt><trkpt lat="44.276354007366564" lon="11.187941830020723"><ele>394.0</ele><time>2026-05-02T16:34:27.001Z</time></trkpt><trkpt lat="44.276342257919644" lon="11.188068469805906"><ele>394.0</ele><time>2026-05-02T16:34:28.001Z</time></trkpt><trkpt lat="44.27630692425175" lon="11.188176002759894"><ele>394.0</ele><time>2026-05-02T16:34:29.001Z</time></trkpt><trkpt lat="44.276294118854324" lon="11.188302720094702"><ele>394.0</ele><time>2026-05-02T16:34:30.001Z</time></trkpt><trkpt lat="44.276298015999764" lon="11.188426503630161"><ele>394.0</ele><time>2026-05-02T16:34:31.001Z</time></trkpt><trkpt lat="44.276335657521535" lon="11.188528230932418"><ele>394.0</ele><time>2026-05-02T16:34:32.001Z</time></trkpt><trkpt lat="44.276362095078326" lon="11.18870369328552"><ele>390.6666666666667</ele><time>2026-05-02T16:34:34.001Z</time></trkpt><trkpt lat="44.276381856658524" lon="11.188794802351351"><ele>387.33333333333337</ele><time>2026-05-02T16:34:35.001Z</time></trkpt><trkpt lat="44.2764034833641" lon="11.188894653751419"><ele>384.0</ele><time>2026-05-02T16:34:36.001Z</time></trkpt><trkpt lat="44.276429151851914" lon="11.18900231890616"><ele>380.6666666666667</ele><time>2026-05-02T16:34:37.001Z</time></trkpt><trkpt lat="44.2764697752822" lon="11.189122563930631"><ele>377.33333333333337</ele><time>2026-05-02T16:34:38.001Z</time></trkpt><trkpt lat="44.2765105137995" lon="11.189238082494981"><ele>374.0</ele><time>2026-05-02T16:34:39.001Z</time></trkpt><trkpt lat="44.276564488759455" lon="11.189366874809785"><ele>373.4</ele><time>2026-05-02T16:34:40.001Z</time></trkpt><trkpt lat="44.2765897083588" lon="11.189494058425307"><ele>372.79999999999995</ele><time>2026-05-02T16:34:41.002Z</time></trkpt><trkpt lat="44.27661610229664" lon="11.189619938932802"><ele>372.20000000000005</ele><time>2026-05-02T16:34:42.002Z</time></trkpt><trkpt lat="44.27663035497494" lon="11.189792187374453"><ele>371.6</ele><time>2026-05-02T16:34:43.002Z</time></trkpt><trkpt lat="44.27664177716344" lon="11.189930644973515"><ele>371.0</ele><time>2026-05-02T16:34:44.002Z</time></trkpt><trkpt lat="44.276639953836884" lon="11.190041568219245"><ele>369.0</ele><time>2026-05-02T16:34:45.002Z</time></trkpt><trkpt lat="44.27660769672534" lon="11.190128993151827"><ele>367.0</ele><time>2026-05-02T16:34:46.002Z</time></trkpt><trkpt lat="44.27661164806402" lon="11.190037255667617"><ele>365.0</ele><time>2026-05-02T16:34:47.002Z</time></trkpt><trkpt lat="44.27657909362281" lon="11.190123633720063"><ele>363.0</ele><time>2026-05-02T16:34:48.002Z</time></trkpt><trkpt lat="44.276544373673445" lon="11.190227301268433"><ele>361.0</ele><time>2026-05-02T16:34:49.002Z</time></trkpt><trkpt lat="44.276513145002" lon="11.190327109019373"><ele>359.0</ele><time>2026-05-02T16:34:50.002Z</time></trkpt><trkpt lat="44.27650032150185" lon="11.190466583515237"><ele>359.0</ele><time>2026-05-02T16:34:52.002Z</time></trkpt><trkpt lat="44.27652354153771" lon="11.190632383264392"><ele>359.0</ele><time>2026-05-02T16:34:54.002Z</time></trkpt><trkpt lat="44.27655533082262" lon="11.190714888125935"><ele>359.0</ele><time>2026-05-02T16:34:55.002Z</time></trkpt><trkpt lat="44.276592088045014" lon="11.190812390795873"><ele>359.0</ele><time>2026-05-02T16:34:56.001Z</time></trkpt><trkpt lat="44.27662452491558" lon="11.19092103992253"><ele>359.0</ele><time>2026-05-02T16:34:57Z</time></trkpt><trkpt lat="44.27665683877939" lon="11.191046323760595"><ele>359.0</ele><time>2026-05-02T16:34:58Z</time></trkpt><trkpt lat="44.2766793566374" lon="11.191183220600356"><ele>357.7142857142857</ele><time>2026-05-02T16:34:59.001Z</time></trkpt><trkpt lat="44.27671044053807" lon="11.191292276265433"><ele>356.42857142857144</ele><time>2026-05-02T16:35:00.001Z</time></trkpt><trkpt lat="44.276721726017115" lon="11.191381221843608"><ele>355.1428571428571</ele><time>2026-05-02T16:35:01.001Z</time></trkpt><trkpt lat="44.276726529357134" lon="11.191479103349335"><ele>353.8571428571429</ele><time>2026-05-02T16:35:02.001Z</time></trkpt><trkpt lat="44.27670561217098" lon="11.191573207637848"><ele>352.57142857142856</ele><time>2026-05-02T16:35:03.001Z</time></trkpt><trkpt lat="44.27668196655961" lon="11.191669341120738"><ele>351.2857142857143</ele><time>2026-05-02T16:35:04.001Z</time></trkpt><trkpt lat="44.27665662677008" lon="11.191773256307979"><ele>350.0</ele><time>2026-05-02T16:35:05.001Z</time></trkpt><trkpt lat="44.27662510212794" lon="11.191884945245608"><ele>347.6</ele><time>2026-05-02T16:35:06Z</time></trkpt><trkpt lat="44.27659106516328" lon="11.192005249186142"><ele>345.2</ele><time>2026-05-02T16:35:07Z</time></trkpt><trkpt lat="44.27655473789538" lon="11.192134355125157"><ele>342.79999999999995</ele><time>2026-05-02T16:35:08Z</time></trkpt><trkpt lat="44.27652684294287" lon="11.192274191064623"><ele>340.4</ele><time>2026-05-02T16:35:09Z</time></trkpt><trkpt lat="44.27647768708501" lon="11.192410193327822"><ele>338.0</ele><time>2026-05-02T16:35:10Z</time></trkpt><trkpt lat="44.27645206681424" lon="11.192526513572266"><ele>332.79999999999995</ele><time>2026-05-02T16:35:11Z</time></trkpt><trkpt lat="44.276414666600616" lon="11.192667514364816"><ele>327.59999999999997</ele><time>2026-05-02T16:35:13Z</time></trkpt><trkpt lat="44.276336143580764" lon="11.19279068841914"><ele>322.4</ele><time>2026-05-02T16:35:15Z</time></trkpt><trkpt lat="44.27622180131151" lon="11.19281714577578"><ele>317.2</ele><time>2026-05-02T16:35:17Z</time></trkpt><trkpt lat="44.27614367883037" lon="11.192758281536966"><ele>312.0</ele><time>2026-05-02T16:35:19Z</time></trkpt><trkpt lat="44.276077326131535" lon="11.1927334613883"><ele>312.0</ele><time>2026-05-02T16:35:21Z</time></trkpt><trkpt lat="44.275995219399356" lon="11.192674493458522"><ele>312.0</ele><time>2026-05-02T16:35:24Z</time></trkpt><trkpt lat="44.27590966521764" lon="11.192648180301514"><ele>312.0</ele><time>2026-05-02T16:35:27Z</time></trkpt><trkpt lat="44.27584662634144" lon="11.192676405819808"><ele>312.0</ele><time>2026-05-02T16:35:29Z</time></trkpt><trkpt lat="44.27581905371813" lon="11.192774679286055"><ele>312.0</ele><time>2026-05-02T16:35:32Z</time></trkpt><trkpt lat="44.27581181782426" lon="11.192865762307266"><ele>312.0</ele><time>2026-05-02T16:35:35Z</time></trkpt><trkpt lat="44.27584797283131" lon="11.192959976162106"><ele>312.0</ele><time>2026-05-02T16:35:39Z</time></trkpt><trkpt lat="44.27590245101206" lon="11.193013726842576"><ele>312.0</ele><time>2026-05-02T16:35:41Z</time></trkpt><trkpt lat="44.27597666397696" lon="11.193095594191327"><ele>312.0</ele><time>2026-05-02T16:35:43Z</time></trkpt><trkpt lat="44.27604350259117" lon="11.193170018906939"><ele>312.0</ele><time>2026-05-02T16:35:45Z</time></trkpt><trkpt lat="44.27610167722154" lon="11.193231751757342"><ele>312.0</ele><time>2026-05-02T16:35:48Z</time></trkpt><trkpt lat="44.27614939452429" lon="11.193316463734014"><ele>312.0</ele><time>2026-05-02T16:35:51.001Z</time></trkpt><trkpt lat="44.27622090445522" lon="11.193401857824435"><ele>311.3333333333333</ele><time>2026-05-02T16:35:54.001Z</time></trkpt><trkpt lat="44.27627197897936" lon="11.193481970916629"><ele>310.6666666666667</ele><time>2026-05-02T16:35:56.001Z</time></trkpt><trkpt lat="44.27633218784255" lon="11.193573702044844"><ele>310.0</ele><time>2026-05-02T16:35:59.001Z</time></trkpt><trkpt lat="44.27637967367571" lon="11.19363321346146"><ele>309.33333333333337</ele><time>2026-05-02T16:36:02.001Z</time></trkpt><trkpt lat="44.276436607626586" lon="11.193709491615888"><ele>308.6666666666667</ele><time>2026-05-02T16:36:06.001Z</time></trkpt><trkpt lat="44.27649300792028" lon="11.193787630420276"><ele>308.0</ele><time>2026-05-02T16:36:10.001Z</time></trkpt><trkpt lat="44.27655212975618" lon="11.193849924971309"><ele>308.0</ele><time>2026-05-02T16:36:14.001Z</time></trkpt><trkpt lat="44.27661618432355" lon="11.193881845396302"><ele>308.0</ele><time>2026-05-02T16:36:17.001Z</time></trkpt><trkpt lat="44.27669820867902" lon="11.193910684336549"><ele>308.0</ele><time>2026-05-02T16:36:21.001Z</time></trkpt><trkpt lat="44.27678524778438" lon="11.193945094895817"><ele>308.0</ele><time>2026-05-02T16:36:23.001Z</time></trkpt><trkpt lat="44.27687363171382" lon="11.193981071861991"><ele>308.0</ele><time>2026-05-02T16:36:25.001Z</time></trkpt><trkpt lat="44.27697200973761" lon="11.194031662904074"><ele>308.0</ele><time>2026-05-02T16:36:27.001Z</time></trkpt><trkpt lat="44.27704121391764" lon="11.19404843271822"><ele>304.2</ele><time>2026-05-02T16:36:29.001Z</time></trkpt><trkpt lat="44.27712020051941" lon="11.194040208697688"><ele>300.4</ele><time>2026-05-02T16:36:34.001Z</time></trkpt><trkpt lat="44.27724528231114" lon="11.194029424570957"><ele>296.59999999999997</ele><time>2026-05-02T16:41:56.001Z</time></trkpt><trkpt lat="44.2773110588224" lon="11.194006355133352"><ele>292.8</ele><time>2026-05-02T16:41:59.001Z</time></trkpt><trkpt lat="44.27737554364279" lon="11.194028124102761"><ele>289.0</ele><time>2026-05-02T16:42:01.001Z</time></trkpt><trkpt lat="44.27748069866309" lon="11.194096120240747"><ele>289.0</ele><time>2026-05-02T16:42:03.001Z</time></trkpt><trkpt lat="44.27755941164544" lon="11.194120512409686"><ele>289.0</ele><time>2026-05-02T16:42:04.001Z</time></trkpt><trkpt lat="44.277632452755874" lon="11.194157582267241"><ele>289.0</ele><time>2026-05-02T16:42:05.001Z</time></trkpt><trkpt lat="44.27772734314519" lon="11.1941876442748"><ele>289.0</ele><time>2026-05-02T16:42:06.001Z</time></trkpt><trkpt lat="44.27783855221775" lon="11.194214261984303"><ele>289.0</ele><time>2026-05-02T16:42:07.001Z</time></trkpt><trkpt lat="44.27795848359132" lon="11.194226969305952"><ele>289.0</ele><time>2026-05-02T16:42:08.001Z</time></trkpt><trkpt lat="44.278089086271144" lon="11.194259685567772"><ele>289.0</ele><time>2026-05-02T16:42:09.001Z</time></trkpt><trkpt lat="44.2782047174084" lon="11.194366952801579"><ele>289.0</ele><time>2026-05-02T16:42:10.001Z</time></trkpt><trkpt lat="44.27833771220582" lon="11.194483373427637"><ele>289.0</ele><time>2026-05-02T16:42:11.001Z</time></trkpt><trkpt lat="44.27838700285935" lon="11.194562783164317"><ele>290.59999999999997</ele><time>2026-05-02T16:42:13.001Z</time></trkpt><trkpt lat="44.2784634039721" lon="11.194645432861659"><ele>292.2</ele><time>2026-05-02T16:42:14.001Z</time></trkpt><trkpt lat="44.27854852136991" lon="11.194701208363393"><ele>293.79999999999995</ele><time>2026-05-02T16:42:15.001Z</time></trkpt><trkpt lat="44.27862596740741" lon="11.194719917484635"><ele>295.4</ele><time>2026-05-02T16:42:16.001Z</time></trkpt><trkpt lat="44.278721169696546" lon="11.194714214449762"><ele>297.0</ele><time>2026-05-02T16:42:17.001Z</time></trkpt><trkpt lat="44.27881746965086" lon="11.194711906029774"><ele>297.0</ele><time>2026-05-02T16:42:18.001Z</time></trkpt><trkpt lat="44.27891304084134" lon="11.194724686407831"><ele>297.0</ele><time>2026-05-02T16:42:19.001Z</time></trkpt><trkpt lat="44.27899099946199" lon="11.194805582688023"><ele>297.0</ele><time>2026-05-02T16:42:20.001Z</time></trkpt><trkpt lat="44.279079575419324" lon="11.19487876264486"><ele>297.0</ele><time>2026-05-02T16:42:21.001Z</time></trkpt><trkpt lat="44.27915234135742" lon="11.194963279307595"><ele>297.0</ele><time>2026-05-02T16:42:22.001Z</time></trkpt><trkpt lat="44.27921094651754" lon="11.195015124572574"><ele>292.2</ele><time>2026-05-02T16:42:23.001Z</time></trkpt><trkpt lat="44.279241718423826" lon="11.195124814141803"><ele>287.4</ele><time>2026-05-02T16:42:25.001Z</time></trkpt><trkpt lat="44.27915764896862" lon="11.195060142092672"><ele>282.6</ele><time>2026-05-02T16:42:27.001Z</time></trkpt><trkpt lat="44.27903155194024" lon="11.195000017989463"><ele>277.8</ele><time>2026-05-02T16:42:29.001Z</time></trkpt><trkpt lat="44.27895101345199" lon="11.19496492988244"><ele>273.0</ele><time>2026-05-02T16:42:30.001Z</time></trkpt><trkpt lat="44.27886088163536" lon="11.194930137409811"><ele>270.0</ele><time>2026-05-02T16:42:31.001Z</time></trkpt><trkpt lat="44.278762270552065" lon="11.194904653913504"><ele>267.0</ele><time>2026-05-02T16:42:32.001Z</time></trkpt><trkpt lat="44.27865320907899" lon="11.194889001626503"><ele>264.0</ele><time>2026-05-02T16:42:33.001Z</time></trkpt><trkpt lat="44.27853638720621" lon="11.194884843413655"><ele>261.0</ele><time>2026-05-02T16:42:34.001Z</time></trkpt><trkpt lat="44.278402521337696" lon="11.194892161365502"><ele>261.0</ele><time>2026-05-02T16:42:35.001Z</time></trkpt><trkpt lat="44.278290171382004" lon="11.194900237029136"><ele>261.0</ele><time>2026-05-02T16:42:36.001Z</time></trkpt><trkpt lat="44.27818632979327" lon="11.194925515897639"><ele>261.0</ele><time>2026-05-02T16:42:37.001Z</time></trkpt><trkpt lat="44.27808292080838" lon="11.194948055905916"><ele>261.0</ele><time>2026-05-02T16:42:38.001Z</time></trkpt><trkpt lat="44.277982021711715" lon="11.194981550579968"><ele>261.0</ele><time>2026-05-02T16:42:39.001Z</time></trkpt><trkpt lat="44.277884976715754" lon="11.194990311883075"><ele>260.25</ele><time>2026-05-02T16:42:40.001Z</time></trkpt><trkpt lat="44.277704919498454" lon="11.194972218031207"><ele>259.5</ele><time>2026-05-02T16:42:42.001Z</time></trkpt><trkpt lat="44.277610288592165" lon="11.194999399202025"><ele>258.75</ele><time>2026-05-02T16:42:44.001Z</time></trkpt><trkpt lat="44.277577356454536" lon="11.195196259338742"><ele>258.0</ele><time>2026-05-02T16:42:46.001Z</time></trkpt><trkpt lat="44.27761352174918" lon="11.1953174499363"><ele>258.0</ele><time>2026-05-02T16:42:47.001Z</time></trkpt><trkpt lat="44.27764913793723" lon="11.195446272506409"><ele>258.0</ele><time>2026-05-02T16:42:48.001Z</time></trkpt><trkpt lat="44.27765601057564" lon="11.195551587472723"><ele>258.0</ele><time>2026-05-02T16:42:49.001Z</time></trkpt><trkpt lat="44.27762709122489" lon="11.195630545359933"><ele>258.0</ele><time>2026-05-02T16:42:50.001Z</time></trkpt><trkpt lat="44.27756972565324" lon="11.195690875454975"><ele>258.0</ele><time>2026-05-02T16:42:51.001Z</time></trkpt><trkpt lat="44.277475415909045" lon="11.195681318594803"><ele>258.0</ele><time>2026-05-02T16:42:52.001Z</time></trkpt><trkpt lat="44.27740486644491" lon="11.195613625475843"><ele>258.0</ele><time>2026-05-02T16:42:53.001Z</time></trkpt><trkpt lat="44.27733710090232" lon="11.195559224492271"><ele>258.0</ele><time>2026-05-02T16:42:54.001Z</time></trkpt><trkpt lat="44.27726222482376" lon="11.195528870955691"><ele>258.0</ele><time>2026-05-02T16:42:55.001Z</time></trkpt><trkpt lat="44.277186284801374" lon="11.195500745595675"><ele>258.0</ele><time>2026-05-02T16:42:56.001Z</time></trkpt><trkpt lat="44.277099058112384" lon="11.19548645697868"><ele>258.0</ele><time>2026-05-02T16:42:57.001Z</time></trkpt><trkpt lat="44.27700648291732" lon="11.195474860124728"><ele>258.0</ele><time>2026-05-02T16:42:58.001Z</time></trkpt><trkpt lat="44.27691278532083" lon="11.195479089726696"><ele>258.4</ele><time>2026-05-02T16:42:59.001Z</time></trkpt><trkpt lat="44.27681517765479" lon="11.195477727304201"><ele>258.8</ele><time>2026-05-02T16:43:00.001Z</time></trkpt><trkpt lat="44.27670995583594" lon="11.195485482884356"><ele>259.2</ele><time>2026-05-02T16:43:01.001Z</time></trkpt><trkpt lat="44.27660538032718" lon="11.19547038684367"><ele>259.6</ele><time>2026-05-02T16:43:02.001Z</time></trkpt><trkpt lat="44.27650246734562" lon="11.195442677363438"><ele>260.0</ele><time>2026-05-02T16:43:03.001Z</time></trkpt><trkpt lat="44.27640110512349" lon="11.195410114111416"><ele>257.5</ele><time>2026-05-02T16:43:04.001Z</time></trkpt><trkpt lat="44.276293773301845" lon="11.195387490690216"><ele>255.0</ele><time>2026-05-02T16:43:05.001Z</time></trkpt><trkpt lat="44.276183048889074" lon="11.195351318474712"><ele>252.5</ele><time>2026-05-02T16:43:06.001Z</time></trkpt><trkpt lat="44.27606604046517" lon="11.195321090211522"><ele>250.0</ele><time>2026-05-02T16:43:07.001Z</time></trkpt><trkpt lat="44.27595505274075" lon="11.19528725530202"><ele>250.0</ele><time>2026-05-02T16:43:08.001Z</time></trkpt><trkpt lat="44.27584829378963" lon="11.195269304872703"><ele>250.0</ele><time>2026-05-02T16:43:09.001Z</time></trkpt><trkpt lat="44.275746129095694" lon="11.195234819714727"><ele>250.0</ele><time>2026-05-02T16:43:10.001Z</time></trkpt><trkpt lat="44.27565604719332" lon="11.195171746431575"><ele>250.0</ele><time>2026-05-02T16:43:11.001Z</time></trkpt><trkpt lat="44.275579998499815" lon="11.195079480303109"><ele>250.0</ele><time>2026-05-02T16:43:12.001Z</time></trkpt><trkpt lat="44.27549409232569" lon="11.19499172241914"><ele>249.49999999999997</ele><time>2026-05-02T16:43:13.001Z</time></trkpt><trkpt lat="44.275413556109775" lon="11.194895485249338"><ele>249.0</ele><time>2026-05-02T16:43:14.001Z</time></trkpt><trkpt lat="44.275332885672846" lon="11.194817247322442"><ele>248.5</ele><time>2026-05-02T16:43:15.001Z</time></trkpt><trkpt lat="44.27527701331712" lon="11.194760785641744"><ele>248.0</ele><time>2026-05-02T16:43:16.001Z</time></trkpt><trkpt lat="44.2751975528158" lon="11.194758220058798"><ele>247.49999999999997</ele><time>2026-05-02T16:43:18.001Z</time></trkpt><trkpt lat="44.27514493867118" lon="11.194848171176234"><ele>247.0</ele><time>2026-05-02T16:43:20Z</time></trkpt><trkpt lat="44.27509613931796" lon="11.194921205837824"><ele>247.0</ele><time>2026-05-02T16:43:24Z</time></trkpt><trkpt lat="44.27517886169845" lon="11.19507481888997"><ele>247.0</ele><time>2026-05-02T16:43:26Z</time></trkpt><trkpt lat="44.27523351672068" lon="11.195129755928209"><ele>247.0</ele><time>2026-05-02T16:43:27Z</time></trkpt><trkpt lat="44.27529669414643" lon="11.195203654205743"><ele>247.0</ele><time>2026-05-02T16:43:28Z</time></trkpt><trkpt lat="44.2753712096532" lon="11.19527181765263"><ele>247.0</ele><time>2026-05-02T16:43:29Z</time></trkpt><trkpt lat="44.27545616982774" lon="11.195336942675766"><ele>247.0</ele><time>2026-05-02T16:43:30Z</time></trkpt><trkpt lat="44.275547487363575" lon="11.1953973167494"><ele>247.0</ele><time>2026-05-02T16:43:31Z</time></trkpt><trkpt lat="44.275637548850874" lon="11.195466444735954"><ele>247.0</ele><time>2026-05-02T16:43:32Z</time></trkpt><trkpt lat="44.275728240165606" lon="11.195526025101"><ele>247.0</ele><time>2026-05-02T16:43:33Z</time></trkpt><trkpt lat="44.275816698515854" lon="11.195615763737557"><ele>247.0</ele><time>2026-05-02T16:43:34Z</time></trkpt><trkpt lat="44.275908105078884" lon="11.195693866570652"><ele>244.2</ele><time>2026-05-02T16:43:35Z</time></trkpt><trkpt lat="44.27598982461779" lon="11.195755303768895"><ele>241.39999999999998</ele><time>2026-05-02T16:43:36Z</time></trkpt><trkpt lat="44.27604777547743" lon="11.195818842211851"><ele>238.60000000000002</ele><time>2026-05-02T16:43:37Z</time></trkpt><trkpt lat="44.2760625920821" lon="11.195908349588715"><ele>235.8</ele><time>2026-05-02T16:43:38Z</time></trkpt><trkpt lat="44.2759699562075" lon="11.196053428664024"><ele>233.0</ele><time>2026-05-02T16:43:40Z</time></trkpt><trkpt lat="44.27588804380036" lon="11.196054339650628"><ele>233.00000000000003</ele><time>2026-05-02T16:43:41Z</time></trkpt><trkpt lat="44.27581664179161" lon="11.195973427922247"><ele>233.0</ele><time>2026-05-02T16:43:42Z</time></trkpt><trkpt lat="44.27574423027448" lon="11.19593681651652"><ele>233.0</ele><time>2026-05-02T16:43:43Z</time></trkpt><trkpt lat="44.275666042533864" lon="11.195917832316821"><ele>233.0</ele><time>2026-05-02T16:43:44Z</time></trkpt><trkpt lat="44.27560110307876" lon="11.195873153833853"><ele>233.00000000000003</ele><time>2026-05-02T16:43:45Z</time></trkpt><trkpt lat="44.275517568386675" lon="11.195831715366566"><ele>233.0</ele><time>2026-05-02T16:43:46Z</time></trkpt><trkpt lat="44.27543450816219" lon="11.195801886092456"><ele>233.0</ele><time>2026-05-02T16:43:47Z</time></trkpt><trkpt lat="44.27534358799082" lon="11.195792728827445"><ele>233.0</ele><time>2026-05-02T16:43:48Z</time></trkpt><trkpt lat="44.275256515444404" lon="11.195806728398813"><ele>233.0</ele><time>2026-05-02T16:43:49Z</time></trkpt><trkpt lat="44.27517544419416" lon="11.195848071622043"><ele>233.0</ele><time>2026-05-02T16:43:50Z</time></trkpt><trkpt lat="44.275105120508925" lon="11.195880194472142"><ele>233.0</ele><time>2026-05-02T16:43:51Z</time></trkpt><trkpt lat="44.27500913344148" lon="11.195970165000052"><ele>233.0</ele><time>2026-05-02T16:43:53Z</time></trkpt><trkpt lat="44.27487958053669" lon="11.195965328291054"><ele>233.0</ele><time>2026-05-02T16:43:55Z</time></trkpt><trkpt lat="44.27479965478186" lon="11.195943448215468"><ele>233.0</ele><time>2026-05-02T16:43:56Z</time></trkpt><trkpt lat="44.27470641675387" lon="11.19589054728848"><ele>233.0</ele><time>2026-05-02T16:43:57Z</time></trkpt><trkpt lat="44.27461862879197" lon="11.195859375507515"><ele>233.0</ele><time>2026-05-02T16:43:58Z</time></trkpt><trkpt lat="44.274544764149155" lon="11.195803927177666"><ele>233.00000000000003</ele><time>2026-05-02T16:43:59Z</time></trkpt><trkpt lat="44.27447032277266" lon="11.195775032436377"><ele>233.0</ele><time>2026-05-02T16:44:00Z</time></trkpt><trkpt lat="44.27435143240611" lon="11.195702122016366"><ele>233.0</ele><time>2026-05-02T16:44:02Z</time></trkpt><trkpt lat="44.274291532019525" lon="11.19566913871991"><ele>233.0</ele><time>2026-05-02T16:44:03Z</time></trkpt><trkpt lat="44.274217529214376" lon="11.195649920749279"><ele>233.00000000000003</ele><time>2026-05-02T16:44:04Z</time></trkpt><trkpt lat="44.274134996397336" lon="11.195649298672977"><ele>233.0</ele><time>2026-05-02T16:44:05Z</time></trkpt><trkpt lat="44.27405324102242" lon="11.19565213752066"><ele>231.66666666666669</ele><time>2026-05-02T16:44:06Z</time></trkpt><trkpt lat="44.273975411707134" lon="11.195695879941795"><ele>230.33333333333334</ele><time>2026-05-02T16:44:07Z</time></trkpt><trkpt lat="44.273898795835734" lon="11.195741712890957"><ele>229.0</ele><time>2026-05-02T16:44:08Z</time></trkpt><trkpt lat="44.27382646728865" lon="11.195785530458215"><ele>227.66666666666669</ele><time>2026-05-02T16:44:09Z</time></trkpt><trkpt lat="44.27375366155273" lon="11.195852170174845"><ele>226.33333333333334</ele><time>2026-05-02T16:44:10Z</time></trkpt><trkpt lat="44.273670208559814" lon="11.195896433326"><ele>225.0</ele><time>2026-05-02T16:44:11Z</time></trkpt><trkpt lat="44.27359143818328" lon="11.195950541862443"><ele>224.8571428571429</ele><time>2026-05-02T16:44:12Z</time></trkpt><trkpt lat="44.273511762164844" lon="11.195988367879327"><ele>224.71428571428572</ele><time>2026-05-02T16:44:13Z</time></trkpt><trkpt lat="44.27344383965998" lon="11.196034054658817"><ele>224.57142857142858</ele><time>2026-05-02T16:44:14Z</time></trkpt><trkpt lat="44.273374813784855" lon="11.196074548586346"><ele>224.42857142857144</ele><time>2026-05-02T16:44:15Z</time></trkpt><trkpt lat="44.27330884487627" lon="11.196111433526415"><ele>224.28571428571428</ele><time>2026-05-02T16:44:16Z</time></trkpt><trkpt lat="44.273243673987714" lon="11.196147158202201"><ele>224.14285714285714</ele><time>2026-05-02T16:44:17Z</time></trkpt><trkpt lat="44.27317720494578" lon="11.196189545749865"><ele>224.0</ele><time>2026-05-02T16:44:18Z</time></trkpt><trkpt lat="44.27311664490319" lon="11.19621853288907"><ele>226.0</ele><time>2026-05-02T16:44:19Z</time></trkpt><trkpt lat="44.27300876977426" lon="11.196253307102731"><ele>227.99999999999997</ele><time>2026-05-02T16:44:21Z</time></trkpt><trkpt lat="44.272950331127824" lon="11.196119749227154"><ele>229.99999999999997</ele><time>2026-05-02T16:44:23Z</time></trkpt><trkpt lat="44.272888484154315" lon="11.196052140343303"><ele>232.0</ele><time>2026-05-02T16:44:24Z</time></trkpt><trkpt lat="44.27283359778326" lon="11.195959823623285"><ele>234.0</ele><time>2026-05-02T16:44:25Z</time></trkpt><trkpt lat="44.27276886411796" lon="11.19588133528451"><ele>234.0</ele><time>2026-05-02T16:44:26Z</time></trkpt><trkpt lat="44.27270630189085" lon="11.19581904213126"><ele>234.0</ele><time>2026-05-02T16:44:27Z</time></trkpt><trkpt lat="44.272636336547144" lon="11.195746927247482"><ele>234.0</ele><time>2026-05-02T16:44:28Z</time></trkpt><trkpt lat="44.272575065057964" lon="11.195675076801967"><ele>234.0</ele><time>2026-05-02T16:44:29Z</time></trkpt><trkpt lat="44.27249825312232" lon="11.195598930697678"><ele>234.0</ele><time>2026-05-02T16:44:30Z</time></trkpt><trkpt lat="44.272426292801654" lon="11.195522767550456"><ele>234.0</ele><time>2026-05-02T16:44:31Z</time></trkpt><trkpt lat="44.27236195125114" lon="11.19544484463782"><ele>233.2</ele><time>2026-05-02T16:44:32Z</time></trkpt><trkpt lat="44.27229570747722" lon="11.19538524032431"><ele>232.39999999999998</ele><time>2026-05-02T16:44:33Z</time></trkpt><trkpt lat="44.272199660592676" lon="11.195296862361477"><ele>231.6</ele><time>2026-05-02T16:44:35Z</time></trkpt><trkpt lat="44.27213124148694" lon="11.195314122224158"><ele>230.8</ele><time>2026-05-02T16:44:36Z</time></trkpt><trkpt lat="44.2720445142274" lon="11.19545044636426"><ele>230.0</ele><time>2026-05-02T16:44:38Z</time></trkpt><trkpt lat="44.272025082208" lon="11.19556581472426"><ele>233.6</ele><time>2026-05-02T16:44:39Z</time></trkpt><trkpt lat="44.27203352666296" lon="11.195676981279368"><ele>237.2</ele><time>2026-05-02T16:44:40Z</time></trkpt><trkpt lat="44.27204672208187" lon="11.195798484767334"><ele>240.8</ele><time>2026-05-02T16:44:41Z</time></trkpt><trkpt lat="44.27205066220106" lon="11.195892296932902"><ele>244.4</ele><time>2026-05-02T16:44:42Z</time></trkpt><trkpt lat="44.272085775081905" lon="11.19607638522927"><ele>248.0</ele><time>2026-05-02T16:44:44Z</time></trkpt><trkpt lat="44.272051214905815" lon="11.196266496877627"><ele>248.00000000000003</ele><time>2026-05-02T16:44:46Z</time></trkpt><trkpt lat="44.27202479383184" lon="11.196363001235968"><ele>248.0</ele><time>2026-05-02T16:44:47Z</time></trkpt><trkpt lat="44.2719962551438" lon="11.1964664427813"><ele>248.0</ele><time>2026-05-02T16:44:48Z</time></trkpt><trkpt lat="44.271953881914555" lon="11.196566644049032"><ele>248.0</ele><time>2026-05-02T16:44:49Z</time></trkpt><trkpt lat="44.27191097480243" lon="11.196661062933162"><ele>248.00000000000003</ele><time>2026-05-02T16:44:50Z</time></trkpt><trkpt lat="44.27186337174221" lon="11.196752546821894"><ele>248.0</ele><time>2026-05-02T16:44:51Z</time></trkpt><trkpt lat="44.27180867535014" lon="11.196849476230117"><ele>248.0</ele><time>2026-05-02T16:44:52Z</time></trkpt><trkpt lat="44.27164938010352" lon="11.196934551810577"><ele>248.0</ele><time>2026-05-02T16:44:54Z</time></trkpt><trkpt lat="44.27157623485149" lon="11.196961478345028"><ele>248.0</ele><time>2026-05-02T16:44:55Z</time></trkpt><trkpt lat="44.2714803834799" lon="11.19705225368925"><ele>248.0</ele><time>2026-05-02T16:44:57Z</time></trkpt><trkpt lat="44.27160221270559" lon="11.197202807678089"><ele>248.0</ele><time>2026-05-02T16:45:06Z</time></trkpt><trkpt lat="44.27168511252342" lon="11.197229769338161"><ele>248.0</ele><time>2026-05-02T16:45:07Z</time></trkpt><trkpt lat="44.271794044510536" lon="11.197273523303446"><ele>248.0</ele><time>2026-05-02T16:45:08Z</time></trkpt><trkpt lat="44.27189148801487" lon="11.19733308204437"><ele>248.0</ele><time>2026-05-02T16:45:09Z</time></trkpt><trkpt lat="44.271986106166274" lon="11.19739890291883"><ele>248.0</ele><time>2026-05-02T16:45:10Z</time></trkpt><trkpt lat="44.272077565096986" lon="11.1974764942485"><ele>248.60000000000002</ele><time>2026-05-02T16:45:11Z</time></trkpt><trkpt lat="44.27215075238091" lon="11.197580706662071"><ele>249.20000000000002</ele><time>2026-05-02T16:45:12Z</time></trkpt><trkpt lat="44.272242294821645" lon="11.197654815945617"><ele>249.8</ele><time>2026-05-02T16:45:13Z</time></trkpt><trkpt lat="44.272332068860635" lon="11.197734986895421"><ele>250.4</ele><time>2026-05-02T16:45:14Z</time></trkpt><trkpt lat="44.27242393295502" lon="11.197821185556096"><ele>251.0</ele><time>2026-05-02T16:45:15Z</time></trkpt><trkpt lat="44.27252359448294" lon="11.197895117129958"><ele>251.0</ele><time>2026-05-02T16:45:16Z</time></trkpt><trkpt lat="44.27262350584155" lon="11.197969276454327"><ele>251.0</ele><time>2026-05-02T16:45:17Z</time></trkpt><trkpt lat="44.272718957353995" lon="11.198051447867664"><ele>251.0</ele><time>2026-05-02T16:45:18Z</time></trkpt><trkpt lat="44.272819072819956" lon="11.198136135825973"><ele>251.0</ele><time>2026-05-02T16:45:19Z</time></trkpt><trkpt lat="44.272914224582465" lon="11.198238010794622"><ele>249.75</ele><time>2026-05-02T16:45:20Z</time></trkpt><trkpt lat="44.273013963255785" lon="11.198340955137313"><ele>248.5</ele><time>2026-05-02T16:45:21Z</time></trkpt><trkpt lat="44.27311683542546" lon="11.19843238070612"><ele>247.25</ele><time>2026-05-02T16:45:22Z</time></trkpt><trkpt lat="44.27322610519846" lon="11.198510980788566"><ele>246.0</ele><time>2026-05-02T16:45:23Z</time></trkpt><trkpt lat="44.273337448186595" lon="11.198591008785439"><ele>246.0</ele><time>2026-05-02T16:45:24Z</time></trkpt><trkpt lat="44.27344559915373" lon="11.198682056084081"><ele>246.0</ele><time>2026-05-02T16:45:24.999Z</time></trkpt><trkpt lat="44.27356345806249" lon="11.19874341512213"><ele>246.0</ele><time>2026-05-02T16:45:25.999Z</time></trkpt><trkpt lat="44.27367140285924" lon="11.198790924212409"><ele>246.0</ele><time>2026-05-02T16:45:26.999Z</time></trkpt><trkpt lat="44.27378871611119" lon="11.198833472120773"><ele>246.0</ele><time>2026-05-02T16:45:27.999Z</time></trkpt><trkpt lat="44.273892031128064" lon="11.198898490935319"><ele>246.0</ele><time>2026-05-02T16:45:28.999Z</time></trkpt><trkpt lat="44.274006831258816" lon="11.19893344122733"><ele>246.0</ele><time>2026-05-02T16:45:29.999Z</time></trkpt><trkpt lat="44.274130665116054" lon="11.198917622304533"><ele>246.0</ele><time>2026-05-02T16:45:30.999Z</time></trkpt><trkpt lat="44.2742446239643" lon="11.198916626742093"><ele>242.60000000000002</ele><time>2026-05-02T16:45:31.999Z</time></trkpt><trkpt lat="44.27435897874721" lon="11.198919068771541"><ele>239.20000000000002</ele><time>2026-05-02T16:45:32.999Z</time></trkpt><trkpt lat="44.27446683912212" lon="11.19893496008341"><ele>235.79999999999998</ele><time>2026-05-02T16:45:33.999Z</time></trkpt><trkpt lat="44.274574376646804" lon="11.198959680665368"><ele>232.39999999999998</ele><time>2026-05-02T16:45:34.999Z</time></trkpt><trkpt lat="44.274682760150554" lon="11.198995275427121"><ele>229.0</ele><time>2026-05-02T16:45:35.999Z</time></trkpt><trkpt lat="44.274789979386945" lon="11.199026522430675"><ele>229.0</ele><time>2026-05-02T16:45:36.999Z</time></trkpt><trkpt lat="44.27489545665404" lon="11.19906228647694"><ele>229.0</ele><time>2026-05-02T16:45:37.999Z</time></trkpt><trkpt lat="44.27500639209523" lon="11.199099046729131"><ele>229.0</ele><time>2026-05-02T16:45:38.999Z</time></trkpt><trkpt lat="44.27511852870567" lon="11.19913378595052"><ele>229.0</ele><time>2026-05-02T16:45:39.999Z</time></trkpt><trkpt lat="44.27523171810715" lon="11.199176096815341"><ele>229.0</ele><time>2026-05-02T16:45:40.999Z</time></trkpt><trkpt lat="44.27534693014837" lon="11.19921351449669"><ele>229.0</ele><time>2026-05-02T16:45:41.999Z</time></trkpt><trkpt lat="44.27546465176965" lon="11.199245339385445"><ele>229.0</ele><time>2026-05-02T16:45:42.999Z</time></trkpt><trkpt lat="44.27558103338012" lon="11.199282334567958"><ele>229.0</ele><time>2026-05-02T16:45:43.999Z</time></trkpt><trkpt lat="44.27569681134287" lon="11.19932140735166"><ele>228.0</ele><time>2026-05-02T16:45:44.999Z</time></trkpt><trkpt lat="44.27581012037422" lon="11.19935812812484"><ele>227.0</ele><time>2026-05-02T16:45:45.999Z</time></trkpt><trkpt lat="44.275923080816696" lon="11.199392076402837"><ele>226.0</ele><time>2026-05-02T16:45:46.999Z</time></trkpt><trkpt lat="44.27603330709321" lon="11.19942946998309"><ele>225.0</ele><time>2026-05-02T16:45:47.999Z</time></trkpt><trkpt lat="44.27614423808467" lon="11.19946487242066"><ele>225.0</ele><time>2026-05-02T16:45:48.999Z</time></trkpt><trkpt lat="44.27625368602731" lon="11.199503040237687"><ele>225.0</ele><time>2026-05-02T16:45:49.999Z</time></trkpt><trkpt lat="44.27636497075819" lon="11.199537136124441"><ele>225.0</ele><time>2026-05-02T16:45:50.999Z</time></trkpt><trkpt lat="44.276477766918724" lon="11.199567834152981"><ele>225.0</ele><time>2026-05-02T16:45:51.999Z</time></trkpt><trkpt lat="44.27658791234619" lon="11.199600239035899"><ele>225.6</ele><time>2026-05-02T16:45:52.999Z</time></trkpt><trkpt lat="44.27669593382496" lon="11.199636023386121"><ele>226.2</ele><time>2026-05-02T16:45:54Z</time></trkpt><trkpt lat="44.27680406413931" lon="11.199671582029318"><ele>226.8</ele><time>2026-05-02T16:45:55Z</time></trkpt><trkpt lat="44.27691074352415" lon="11.199705475578257"><ele>227.4</ele><time>2026-05-02T16:45:56Z</time></trkpt><trkpt lat="44.27701577945869" lon="11.199738268797885"><ele>228.0</ele><time>2026-05-02T16:45:57Z</time></trkpt><trkpt lat="44.27712563682355" lon="11.199770669348696"><ele>228.0</ele><time>2026-05-02T16:45:58Z</time></trkpt><trkpt lat="44.27722552137066" lon="11.19979832638337"><ele>228.0</ele><time>2026-05-02T16:45:59Z</time></trkpt><trkpt lat="44.27731601129605" lon="11.199835963971779"><ele>228.0</ele><time>2026-05-02T16:46:00Z</time></trkpt><trkpt lat="44.2773994634982" lon="11.199889945103115"><ele>228.0</ele><time>2026-05-02T16:46:01Z</time></trkpt><trkpt lat="44.27747007832638" lon="11.199962384624802"><ele>228.0</ele><time>2026-05-02T16:46:02Z</time></trkpt><trkpt lat="44.277512945557795" lon="11.200068927844042"><ele>230.5</ele><time>2026-05-02T16:46:03Z</time></trkpt><trkpt lat="44.2775535556172" lon="11.200169520553628"><ele>233.0</ele><time>2026-05-02T16:46:04Z</time></trkpt><trkpt lat="44.277590980689205" lon="11.200263700589389"><ele>235.5</ele><time>2026-05-02T16:46:05Z</time></trkpt><trkpt lat="44.27762105426368" lon="11.200358518757204"><ele>238.0</ele><time>2026-05-02T16:46:06Z</time></trkpt><trkpt lat="44.27766026044132" lon="11.200461683046708"><ele>240.5</ele><time>2026-05-02T16:46:07Z</time></trkpt><trkpt lat="44.277694675077285" lon="11.200581627003478"><ele>243.0</ele><time>2026-05-02T16:46:08Z</time></trkpt><trkpt lat="44.27773938480543" lon="11.200689040806783"><ele>245.4</ele><time>2026-05-02T16:46:09Z</time></trkpt><trkpt lat="44.27779020984496" lon="11.200795298352242"><ele>247.8</ele><time>2026-05-02T16:46:10Z</time></trkpt><trkpt lat="44.277835586616945" lon="11.200902426498255"><ele>250.2</ele><time>2026-05-02T16:46:11Z</time></trkpt><trkpt lat="44.27788052279298" lon="11.201009400397288"><ele>252.6</ele><time>2026-05-02T16:46:12Z</time></trkpt><trkpt lat="44.27794064615196" lon="11.201113234271066"><ele>255.0</ele><time>2026-05-02T16:46:13Z</time></trkpt><trkpt lat="44.2780003008714" lon="11.201228751867246"><ele>255.0</ele><time>2026-05-02T16:46:14Z</time></trkpt><trkpt lat="44.27807119222111" lon="11.201336130403762"><ele>255.0</ele><time>2026-05-02T16:46:15Z</time></trkpt><trkpt lat="44.278139489884964" lon="11.201451847438847"><ele>255.0</ele><time>2026-05-02T16:46:16Z</time></trkpt><trkpt lat="44.27821611636661" lon="11.201561718035801"><ele>255.0</ele><time>2026-05-02T16:46:17Z</time></trkpt><trkpt lat="44.27829178933248" lon="11.20166929987416"><ele>255.0</ele><time>2026-05-02T16:46:18Z</time></trkpt><trkpt lat="44.278357055849774" lon="11.201790188270778"><ele>254.4</ele><time>2026-05-02T16:46:19Z</time></trkpt><trkpt lat="44.27842544204205" lon="11.201909717748666"><ele>253.8</ele><time>2026-05-02T16:46:20Z</time></trkpt><trkpt lat="44.2784893923028" lon="11.202028858607763"><ele>253.2</ele><time>2026-05-02T16:46:21Z</time></trkpt><trkpt lat="44.27855676325026" lon="11.20215555052032"><ele>252.6</ele><time>2026-05-02T16:46:22Z</time></trkpt><trkpt lat="44.27861026091395" lon="11.202275401552413"><ele>252.0</ele><time>2026-05-02T16:46:23Z</time></trkpt><trkpt lat="44.27868247316935" lon="11.202398888734301"><ele>250.6</ele><time>2026-05-02T16:46:24Z</time></trkpt><trkpt lat="44.27875956475427" lon="11.202509403926312"><ele>249.2</ele><time>2026-05-02T16:46:25Z</time></trkpt><trkpt lat="44.27883693510765" lon="11.202613890702604"><ele>247.8</ele><time>2026-05-02T16:46:26Z</time></trkpt><trkpt lat="44.278920318371924" lon="11.20271883102751"><ele>246.4</ele><time>2026-05-02T16:46:27Z</time></trkpt><trkpt lat="44.27900544867787" lon="11.202820191604257"><ele>245.0</ele><time>2026-05-02T16:46:28Z</time></trkpt><trkpt lat="44.27909109670754" lon="11.202925584287112"><ele>245.0</ele><time>2026-05-02T16:46:29Z</time></trkpt><trkpt lat="44.279182278828245" lon="11.20303713841093"><ele>245.0</ele><time>2026-05-02T16:46:30Z</time></trkpt><trkpt lat="44.27927198622542" lon="11.203151314353786"><ele>245.0</ele><time>2026-05-02T16:46:31Z</time></trkpt><trkpt lat="44.27936347002075" lon="11.203265093869847"><ele>245.0</ele><time>2026-05-02T16:46:32Z</time></trkpt><trkpt lat="44.279456653455235" lon="11.203382342780507"><ele>247.5</ele><time>2026-05-02T16:46:33Z</time></trkpt><trkpt lat="44.27954834064187" lon="11.203487638338359"><ele>250.0</ele><time>2026-05-02T16:46:34Z</time></trkpt><trkpt lat="44.279637934814644" lon="11.203589675390079"><ele>252.5</ele><time>2026-05-02T16:46:35Z</time></trkpt><trkpt lat="44.279726307142774" lon="11.203688708057655"><ele>255.0</ele><time>2026-05-02T16:46:36Z</time></trkpt><trkpt lat="44.27982069377588" lon="11.203786635855867"><ele>253.0</ele><time>2026-05-02T16:46:37Z</time></trkpt><trkpt lat="44.27991910033203" lon="11.203875936733773"><ele>251.0</ele><time>2026-05-02T16:46:38Z</time></trkpt><trkpt lat="44.280009591637885" lon="11.20397595847302"><ele>249.0</ele><time>2026-05-02T16:46:39Z</time></trkpt><trkpt lat="44.28009825025179" lon="11.204084949004804"><ele>247.0</ele><time>2026-05-02T16:46:40Z</time></trkpt><trkpt lat="44.280180006733055" lon="11.204200718699544"><ele>247.0</ele><time>2026-05-02T16:46:41Z</time></trkpt><trkpt lat="44.280262404798826" lon="11.204319669539794"><ele>247.0</ele><time>2026-05-02T16:46:42Z</time></trkpt><trkpt lat="44.28034004058896" lon="11.204438489854605"><ele>247.0</ele><time>2026-05-02T16:46:43Z</time></trkpt><trkpt lat="44.28041890567776" lon="11.204555647523417"><ele>247.0</ele><time>2026-05-02T16:46:44Z</time></trkpt><trkpt lat="44.280497397702185" lon="11.204673922732013"><ele>247.0</ele><time>2026-05-02T16:46:45Z</time></trkpt><trkpt lat="44.28057583922724" lon="11.204802467007124"><ele>247.0</ele><time>2026-05-02T16:46:46Z</time></trkpt><trkpt lat="44.28063380730715" lon="11.204933171093332"><ele>247.0</ele><time>2026-05-02T16:46:47Z</time></trkpt><trkpt lat="44.28069812513393" lon="11.20506253639395"><ele>247.0</ele><time>2026-05-02T16:46:48Z</time></trkpt><trkpt lat="44.28076878179941" lon="11.205173531063934"><ele>245.2</ele><time>2026-05-02T16:46:49Z</time></trkpt><trkpt lat="44.280847591205735" lon="11.20526897028582"><ele>243.39999999999998</ele><time>2026-05-02T16:46:50Z</time></trkpt><trkpt lat="44.28093802879285" lon="11.205360108618788"><ele>241.60000000000002</ele><time>2026-05-02T16:46:51Z</time></trkpt><trkpt lat="44.28102714557285" lon="11.205444850148362"><ele>239.8</ele><time>2026-05-02T16:46:52Z</time></trkpt><trkpt lat="44.28111381770395" lon="11.205527443663074"><ele>238.0</ele><time>2026-05-02T16:46:53Z</time></trkpt><trkpt lat="44.28120584522752" lon="11.20560244764553"><ele>238.4</ele><time>2026-05-02T16:46:54Z</time></trkpt><trkpt lat="44.28129726599975" lon="11.205683190623333"><ele>238.8</ele><time>2026-05-02T16:46:55Z</time></trkpt><trkpt lat="44.28139637869924" lon="11.205755944145565"><ele>239.2</ele><time>2026-05-02T16:46:56Z</time></trkpt><trkpt lat="44.28149430144848" lon="11.20582272902431"><ele>239.6</ele><time>2026-05-02T16:46:57Z</time></trkpt><trkpt lat="44.281603898855025" lon="11.20587478058493"><ele>240.0</ele><time>2026-05-02T16:46:58Z</time></trkpt><trkpt lat="44.28171320329984" lon="11.205897950251591"><ele>240.0</ele><time>2026-05-02T16:46:59Z</time></trkpt><trkpt lat="44.281823144254496" lon="11.20588779997462"><ele>240.0</ele><time>2026-05-02T16:47:00Z</time></trkpt><trkpt lat="44.28193923809268" lon="11.205865654606882"><ele>240.0</ele><time>2026-05-02T16:47:01Z</time></trkpt><trkpt lat="44.28205413693225" lon="11.205824209130888"><ele>240.0</ele><time>2026-05-02T16:47:02Z</time></trkpt><trkpt lat="44.282166991083855" lon="11.205770208706117"><ele>239.25</ele><time>2026-05-02T16:47:03Z</time></trkpt><trkpt lat="44.28227795945581" lon="11.205707310132494"><ele>238.5</ele><time>2026-05-02T16:47:04Z</time></trkpt><trkpt lat="44.282386397056385" lon="11.205641798541029"><ele>237.75</ele><time>2026-05-02T16:47:05Z</time></trkpt><trkpt lat="44.28249462823853" lon="11.205586814613842"><ele>237.0</ele><time>2026-05-02T16:47:06Z</time></trkpt><trkpt lat="44.28260559098358" lon="11.205551764803847"><ele>237.0</ele><time>2026-05-02T16:47:07Z</time></trkpt><trkpt lat="44.28271817004447" lon="11.205541941182856"><ele>237.0</ele><time>2026-05-02T16:47:08Z</time></trkpt><trkpt lat="44.28283077569069" lon="11.205563353280118"><ele>237.0</ele><time>2026-05-02T16:47:09Z</time></trkpt><trkpt lat="44.28293676407875" lon="11.205604913979622"><ele>237.0</ele><time>2026-05-02T16:47:10Z</time></trkpt><trkpt lat="44.283035549846936" lon="11.205677110534593"><ele>237.0</ele><time>2026-05-02T16:47:11Z</time></trkpt><trkpt lat="44.28312258371095" lon="11.205779224875753"><ele>237.2</ele><time>2026-05-02T16:47:12Z</time></trkpt><trkpt lat="44.28320593478935" lon="11.205889003559077"><ele>237.39999999999998</ele><time>2026-05-02T16:47:13Z</time></trkpt><trkpt lat="44.28326629060008" lon="11.206018876124556"><ele>237.60000000000002</ele><time>2026-05-02T16:47:14Z</time></trkpt><trkpt lat="44.28331850466457" lon="11.206157409774034"><ele>237.8</ele><time>2026-05-02T16:47:15Z</time></trkpt><trkpt lat="44.28336154451758" lon="11.206300990814755"><ele>238.0</ele><time>2026-05-02T16:47:16Z</time></trkpt><trkpt lat="44.28340928533635" lon="11.206438056283407"><ele>239.2</ele><time>2026-05-02T16:47:17Z</time></trkpt><trkpt lat="44.28345461220561" lon="11.206583827456468"><ele>240.4</ele><time>2026-05-02T16:47:18Z</time></trkpt><trkpt lat="44.28350676312698" lon="11.206721882982896"><ele>241.59999999999997</ele><time>2026-05-02T16:47:19Z</time></trkpt><trkpt lat="44.28354586812925" lon="11.206859887546562"><ele>242.79999999999998</ele><time>2026-05-02T16:47:20Z</time></trkpt><trkpt lat="44.283599193319986" lon="11.206994919744004"><ele>244.0</ele><time>2026-05-02T16:47:21Z</time></trkpt><trkpt lat="44.28365240435904" lon="11.207127712654431"><ele>244.0</ele><time>2026-05-02T16:47:22Z</time></trkpt><trkpt lat="44.28370751436016" lon="11.207255571174922"><ele>243.99999999999997</ele><time>2026-05-02T16:47:23Z</time></trkpt><trkpt lat="44.28376560338217" lon="11.20738579964212"><ele>243.99999999999997</ele><time>2026-05-02T16:47:24Z</time></trkpt><trkpt lat="44.28382705941927" lon="11.207511751262166"><ele>244.0</ele><time>2026-05-02T16:47:25Z</time></trkpt><trkpt lat="44.2838997747085" lon="11.207634135708764"><ele>244.0</ele><time>2026-05-02T16:47:26Z</time></trkpt><trkpt lat="44.28396425669046" lon="11.207751210412193"><ele>244.39999999999998</ele><time>2026-05-02T16:47:27Z</time></trkpt><trkpt lat="44.2840217533319" lon="11.207874894491098"><ele>244.79999999999998</ele><time>2026-05-02T16:47:28Z</time></trkpt><trkpt lat="44.284085664247655" lon="11.207976929028575"><ele>245.20000000000002</ele><time>2026-05-02T16:47:29Z</time></trkpt><trkpt lat="44.28413773133891" lon="11.208068159319781"><ele>245.60000000000002</ele><time>2026-05-02T16:47:30Z</time></trkpt><trkpt lat="44.28419253431825" lon="11.208221878175785"><ele>246.0</ele><time>2026-05-02T16:47:31.998Z</time></trkpt><trkpt lat="44.28425062644214" lon="11.208332469552909"><ele>247.75</ele><time>2026-05-02T16:47:33.999Z</time></trkpt><trkpt lat="44.2843818353787" lon="11.208435072336087"><ele>249.5</ele><time>2026-05-02T16:47:34.998Z</time></trkpt><trkpt lat="44.28442688835612" lon="11.208534843728398"><ele>251.25</ele><time>2026-05-02T16:47:36.999Z</time></trkpt><trkpt lat="44.284526545377034" lon="11.208454227218054"><ele>253.0</ele><time>2026-05-02T16:47:37.999Z</time></trkpt><trkpt lat="44.28462753156649" lon="11.208494247347797"><ele>252.99999999999997</ele><time>2026-05-02T16:47:39.999Z</time></trkpt><trkpt lat="44.28470927694607" lon="11.208629166146245"><ele>253.0</ele><time>2026-05-02T16:47:41.998Z</time></trkpt><trkpt lat="44.28475698342224" lon="11.208690013788466"><ele>253.0</ele><time>2026-05-02T16:47:42.999Z</time></trkpt><trkpt lat="44.284804814329405" lon="11.208758125643326"><ele>253.0</ele><time>2026-05-02T16:47:43.999Z</time></trkpt><trkpt lat="44.28485037943123" lon="11.208836900363508"><ele>252.99999999999997</ele><time>2026-05-02T16:47:44.999Z</time></trkpt><trkpt lat="44.284895121333655" lon="11.208904769884867"><ele>253.0</ele><time>2026-05-02T16:47:45.999Z</time></trkpt><trkpt lat="44.28496877059228" lon="11.208994645591133"><ele>249.49999999999997</ele><time>2026-05-02T16:47:47.999Z</time></trkpt><trkpt lat="44.28504202801833" lon="11.208989866778065"><ele>246.0</ele><time>2026-05-02T16:47:49.999Z</time></trkpt><trkpt lat="44.28507971221895" lon="11.208886315249876"><ele>242.5</ele><time>2026-05-02T16:47:51.999Z</time></trkpt><trkpt lat="44.285066934391565" lon="11.208707727276586"><ele>239.0</ele><time>2026-05-02T16:47:53.999Z</time></trkpt><trkpt lat="44.285033464232335" lon="11.208598583346843"><ele>235.49999999999997</ele><time>2026-05-02T16:47:54.999Z</time></trkpt><trkpt lat="44.28500038773105" lon="11.208500660809618"><ele>232.0</ele><time>2026-05-02T16:47:55.999Z</time></trkpt><trkpt lat="44.284993645505956" lon="11.208394925849865"><ele>231.99999999999997</ele><time>2026-05-02T16:47:56.999Z</time></trkpt><trkpt lat="44.28497917559677" lon="11.208266371392297"><ele>232.0</ele><time>2026-05-02T16:47:57.999Z</time></trkpt><trkpt lat="44.28495478902744" lon="11.20817647519655"><ele>232.0</ele><time>2026-05-02T16:47:58.999Z</time></trkpt><trkpt lat="44.28495389565801" lon="11.20800359626453"><ele>232.0</ele><time>2026-05-02T16:48:00.999Z</time></trkpt><trkpt lat="44.28495325624238" lon="11.207909588694712"><ele>231.99999999999997</ele><time>2026-05-02T16:48:01.999Z</time></trkpt><trkpt lat="44.28493930054742" lon="11.2078108657647"><ele>232.0</ele><time>2026-05-02T16:48:02.999Z</time></trkpt><trkpt lat="44.28496360854429" lon="11.207708324009701"><ele>231.16666666666666</ele><time>2026-05-02T16:48:03.999Z</time></trkpt><trkpt lat="44.28498869554267" lon="11.207593650382043"><ele>230.33333333333331</ele><time>2026-05-02T16:48:04.999Z</time></trkpt><trkpt lat="44.28501908523767" lon="11.207466815401773"><ele>229.5</ele><time>2026-05-02T16:48:05.999Z</time></trkpt><trkpt lat="44.28504281389947" lon="11.207354340151078"><ele>228.66666666666669</ele><time>2026-05-02T16:48:06.999Z</time></trkpt><trkpt lat="44.28506142078553" lon="11.207245335232356"><ele>227.83333333333334</ele><time>2026-05-02T16:48:07.999Z</time></trkpt><trkpt lat="44.28506492291299" lon="11.207149122210325"><ele>227.0</ele><time>2026-05-02T16:48:08.999Z</time></trkpt><trkpt lat="44.28509112977941" lon="11.207017616891788"><ele>226.33333333333334</ele><time>2026-05-02T16:48:10.999Z</time></trkpt><trkpt lat="44.2851087408239" lon="11.20690682060936"><ele>225.66666666666669</ele><time>2026-05-02T16:48:11.999Z</time></trkpt><trkpt lat="44.285140852531796" lon="11.206827413035697"><ele>225.0</ele><time>2026-05-02T16:48:13.999Z</time></trkpt><trkpt lat="44.28523154258201" lon="11.20675553681043"><ele>224.33333333333331</ele><time>2026-05-02T16:48:15.999Z</time></trkpt><trkpt lat="44.28529869703327" lon="11.206747745604673"><ele>223.66666666666666</ele><time>2026-05-02T16:48:16.999Z</time></trkpt><trkpt lat="44.28541952051433" lon="11.206758745905288"><ele>223.0</ele><time>2026-05-02T16:48:19Z</time></trkpt><trkpt lat="44.285488427755176" lon="11.206708994366414"><ele>223.0</ele><time>2026-05-02T16:48:20Z</time></trkpt><trkpt lat="44.285581599958746" lon="11.206695953137164"><ele>223.0</ele><time>2026-05-02T16:48:22Z</time></trkpt><trkpt lat="44.285667987734016" lon="11.206613752638642"><ele>223.0</ele><time>2026-05-02T16:48:24Z</time></trkpt><trkpt lat="44.28568554985658" lon="11.206863768199977"><ele>223.0</ele><time>2026-05-02T16:48:26Z</time></trkpt><trkpt lat="44.28571062872191" lon="11.20697921714068"><ele>221.42857142857142</ele><time>2026-05-02T16:48:28Z</time></trkpt><trkpt lat="44.28576506781791" lon="11.207061532702966"><ele>219.85714285714283</ele><time>2026-05-02T16:48:30Z</time></trkpt><trkpt lat="44.28581234097743" lon="11.20712990549915"><ele>218.28571428571428</ele><time>2026-05-02T16:48:32Z</time></trkpt><trkpt lat="44.285846659999" lon="11.207206428769876"><ele>216.71428571428572</ele><time>2026-05-02T16:48:34Z</time></trkpt><trkpt lat="44.285897624232554" lon="11.20727450744533"><ele>215.14285714285714</ele><time>2026-05-02T16:48:37Z</time></trkpt><trkpt lat="44.28595194754804" lon="11.207349643289387"><ele>213.57142857142858</ele><time>2026-05-02T16:48:44Z</time></trkpt><trkpt lat="44.28597412178078" lon="11.207448649891864"><ele>212.0</ele><time>2026-05-02T16:48:49Z</time></trkpt><trkpt lat="44.285892528820234" lon="11.207531783253879"><ele>212.0</ele><time>2026-05-02T16:48:50Z</time></trkpt><trkpt lat="44.2858507180047" lon="11.207659146095036"><ele>212.0</ele><time>2026-05-02T16:48:53Z</time></trkpt><trkpt lat="44.285856525823334" lon="11.207768618405913"><ele>212.0</ele><time>2026-05-02T16:48:54Z</time></trkpt><trkpt lat="44.285898420408955" lon="11.207901858846533"><ele>212.0</ele><time>2026-05-02T16:48:55Z</time></trkpt><trkpt lat="44.28594326426199" lon="11.208004412214814"><ele>212.0</ele><time>2026-05-02T16:48:56Z</time></trkpt><trkpt lat="44.28599723905459" lon="11.208118520380275"><ele>212.0</ele><time>2026-05-02T16:48:58Z</time></trkpt><trkpt lat="44.286042010966966" lon="11.208180675459767"><ele>211.0</ele><time>2026-05-02T16:49:00Z</time></trkpt><trkpt lat="44.286081490531195" lon="11.208275356337875"><ele>211.0</ele><time>2026-05-02T16:49:05Z</time></trkpt><trkpt lat="44.28613566537022" lon="11.208354839775533"><ele>211.0</ele><time>2026-05-02T16:49:07Z</time></trkpt><trkpt lat="44.286195354494645" lon="11.208424902941701"><ele>211.0</ele><time>2026-05-02T16:49:10Z</time></trkpt><trkpt lat="44.28624479297898" lon="11.20848099279851"><ele>211.0</ele><time>2026-05-02T16:49:30Z</time></trkpt></trkseg></trk></gpx>